<?xml version="1.0" encoding="UTF-8"?>
<gpx version="1.1" creator="https://www.youtrack.es" xsi:schemaLocation="http://www.topografix.com/GPX/1/1 http://www.topografix.com/GPX/1/1/gpx.xsd http://www.garmin.com/xmlschemas/GpxExtensions/v3 http://www.garmin.com/xmlschemas/GpxExtensionsv3.xsd http://www.garmin.com/xmlschemas/TrackPointExtension/v1 http://www.garmin.com/xmlschemas/TrackPointExtensionv1.xsd" xmlns:gpxtpx="http://www.garmin.com/xmlschemas/TrackPointExtension/v1" xmlns:gpxx="http://www.garmin.com/xmlschemas/GpxExtensions/v3" xmlns:xsi="http://www.w3.org/2001/XMLSchema-instance">
  <metadata>
    <link href="https://www.youtrack.es">
      <text>YouTrack.es</text>
    </link>
    <time>2026-05-08T23:02:18Z</time>
  </metadata>
  <trk>
    <src>https://www.youtrack.es</src>
    <link href="https://www.youtrack.es/ruta/7461-lisboa-santiago">
      <text>YouTrack.es</text>
    </link>
    <trkseg>
      <trkpt lat="38.7159860" lon="-9.1438330">
        <ele>46.8</ele>
        <time>2015-03-19T07:49:51Z</time>
      </trkpt>
      <trkpt lat="38.7159000" lon="-9.1437690">
        <ele>46.3</ele>
        <time>2015-03-19T07:50:22Z</time>
      </trkpt>
      <trkpt lat="38.7158130" lon="-9.1436480">
        <ele>45.4</ele>
        <time>2015-03-19T07:50:36Z</time>
      </trkpt>
      <trkpt lat="38.7157410" lon="-9.1435460">
        <ele>43.6</ele>
        <time>2015-03-19T07:50:51Z</time>
      </trkpt>
      <trkpt lat="38.7157480" lon="-9.1434080">
        <ele>41.9</ele>
        <time>2015-03-19T07:51:05Z</time>
      </trkpt>
      <trkpt lat="38.7157840" lon="-9.1432370">
        <ele>40.4</ele>
        <time>2015-03-19T07:51:20Z</time>
      </trkpt>
      <trkpt lat="38.7157590" lon="-9.1431770">
        <ele>39.8</ele>
        <time>2015-03-19T07:51:29Z</time>
      </trkpt>
      <trkpt lat="38.7158670" lon="-9.1430990">
        <ele>37.8</ele>
        <time>2015-03-19T07:51:42Z</time>
      </trkpt>
      <trkpt lat="38.7159690" lon="-9.1430080">
        <ele>36.5</ele>
        <time>2015-03-19T07:51:54Z</time>
      </trkpt>
      <trkpt lat="38.7160070" lon="-9.1429090">
        <ele>35.7</ele>
        <time>2015-03-19T07:52:02Z</time>
      </trkpt>
      <trkpt lat="38.7161150" lon="-9.1427320">
        <ele>33.4</ele>
        <time>2015-03-19T07:52:17Z</time>
      </trkpt>
      <trkpt lat="38.7161430" lon="-9.1426320">
        <ele>33.0</ele>
        <time>2015-03-19T07:52:31Z</time>
      </trkpt>
      <trkpt lat="38.7160590" lon="-9.1425350">
        <ele>31.3</ele>
        <time>2015-03-19T07:53:21Z</time>
      </trkpt>
      <trkpt lat="38.7158490" lon="-9.1422770">
        <ele>30.0</ele>
        <time>2015-03-19T07:53:46Z</time>
      </trkpt>
      <trkpt lat="38.7154220" lon="-9.1419030">
        <ele>31.8</ele>
        <time>2015-03-19T07:54:05Z</time>
      </trkpt>
      <trkpt lat="38.7151810" lon="-9.1416730">
        <ele>33.1</ele>
        <time>2015-03-19T07:54:17Z</time>
      </trkpt>
      <trkpt lat="38.7150240" lon="-9.1413900">
        <ele>31.5</ele>
        <time>2015-03-19T07:54:27Z</time>
      </trkpt>
      <trkpt lat="38.7149290" lon="-9.1411220">
        <ele>30.1</ele>
        <time>2015-03-19T07:54:35Z</time>
      </trkpt>
      <trkpt lat="38.7145870" lon="-9.1405740">
        <ele>28.6</ele>
        <time>2015-03-19T07:54:51Z</time>
      </trkpt>
      <trkpt lat="38.7143880" lon="-9.1400410">
        <ele>27.0</ele>
        <time>2015-03-19T07:55:04Z</time>
      </trkpt>
      <trkpt lat="38.7139530" lon="-9.1398060">
        <ele>24.6</ele>
        <time>2015-03-19T07:55:19Z</time>
      </trkpt>
      <trkpt lat="38.7135390" lon="-9.1396090">
        <ele>24.3</ele>
        <time>2015-03-19T07:55:34Z</time>
      </trkpt>
      <trkpt lat="38.7130930" lon="-9.1393180">
        <ele>24.1</ele>
        <time>2015-03-19T07:55:49Z</time>
      </trkpt>
      <trkpt lat="38.7130330" lon="-9.1389560">
        <ele>23.3</ele>
        <time>2015-03-19T07:55:59Z</time>
      </trkpt>
      <trkpt lat="38.7129470" lon="-9.1385210">
        <ele>20.3</ele>
        <time>2015-03-19T07:56:12Z</time>
      </trkpt>
      <trkpt lat="38.7127130" lon="-9.1383530">
        <ele>21.8</ele>
        <time>2015-03-19T07:56:24Z</time>
      </trkpt>
      <trkpt lat="38.7124340" lon="-9.1383110">
        <ele>24.5</ele>
        <time>2015-03-19T07:56:35Z</time>
      </trkpt>
      <trkpt lat="38.7121760" lon="-9.1382440">
        <ele>25.0</ele>
        <time>2015-03-19T07:56:41Z</time>
      </trkpt>
      <trkpt lat="38.7116040" lon="-9.1380240">
        <ele>25.0</ele>
        <time>2015-03-19T07:56:56Z</time>
      </trkpt>
      <trkpt lat="38.7111640" lon="-9.1378230">
        <ele>23.7</ele>
        <time>2015-03-19T07:57:09Z</time>
      </trkpt>
      <trkpt lat="38.7108940" lon="-9.1377260">
        <ele>23.5</ele>
        <time>2015-03-19T07:57:19Z</time>
      </trkpt>
      <trkpt lat="38.7104630" lon="-9.1375630">
        <ele>23.5</ele>
        <time>2015-03-19T07:57:32Z</time>
      </trkpt>
      <trkpt lat="38.7100330" lon="-9.1374330">
        <ele>23.5</ele>
        <time>2015-03-19T07:57:45Z</time>
      </trkpt>
      <trkpt lat="38.7095850" lon="-9.1372720">
        <ele>23.5</ele>
        <time>2015-03-19T07:58:00Z</time>
      </trkpt>
      <trkpt lat="38.7095740" lon="-9.1371740">
        <ele>23.5</ele>
        <time>2015-03-19T07:58:04Z</time>
      </trkpt>
      <trkpt lat="38.7096660" lon="-9.1368040">
        <ele>23.2</ele>
        <time>2015-03-19T07:58:14Z</time>
      </trkpt>
      <trkpt lat="38.7098160" lon="-9.1363260">
        <ele>22.9</ele>
        <time>2015-03-19T07:58:27Z</time>
      </trkpt>
      <trkpt lat="38.7098810" lon="-9.1359610">
        <ele>23.5</ele>
        <time>2015-03-19T07:58:39Z</time>
      </trkpt>
      <trkpt lat="38.7099030" lon="-9.1358890">
        <ele>23.9</ele>
        <time>2015-03-19T07:58:41Z</time>
      </trkpt>
      <trkpt lat="38.7100130" lon="-9.1356010">
        <ele>25.7</ele>
        <time>2015-03-19T07:58:50Z</time>
      </trkpt>
      <trkpt lat="38.7100850" lon="-9.1352420">
        <ele>28.4</ele>
        <time>2015-03-19T07:59:06Z</time>
      </trkpt>
      <trkpt lat="38.7101300" lon="-9.1351130">
        <ele>29.6</ele>
        <time>2015-03-19T07:59:16Z</time>
      </trkpt>
      <trkpt lat="38.7101990" lon="-9.1349770">
        <ele>30.9</ele>
        <time>2015-03-19T07:59:22Z</time>
      </trkpt>
      <trkpt lat="38.7102370" lon="-9.1349150">
        <ele>31.4</ele>
        <time>2015-03-19T07:59:27Z</time>
      </trkpt>
      <trkpt lat="38.7101790" lon="-9.1346220">
        <ele>31.6</ele>
        <time>2015-03-19T07:59:44Z</time>
      </trkpt>
      <trkpt lat="38.7101550" lon="-9.1345200">
        <ele>31.7</ele>
        <time>2015-03-19T07:59:50Z</time>
      </trkpt>
      <trkpt lat="38.7100970" lon="-9.1342890">
        <ele>31.4</ele>
        <time>2015-03-19T08:00:03Z</time>
      </trkpt>
      <trkpt lat="38.7100460" lon="-9.1341070">
        <ele>31.0</ele>
        <time>2015-03-19T08:00:14Z</time>
      </trkpt>
      <trkpt lat="38.7099640" lon="-9.1339750">
        <ele>30.8</ele>
        <time>2015-03-19T08:00:21Z</time>
      </trkpt>
      <trkpt lat="38.7098390" lon="-9.1337320">
        <ele>30.5</ele>
        <time>2015-03-19T08:00:35Z</time>
      </trkpt>
      <trkpt lat="38.7098150" lon="-9.1334560">
        <ele>31.2</ele>
        <time>2015-03-19T08:00:52Z</time>
      </trkpt>
      <trkpt lat="38.7099680" lon="-9.1333230">
        <ele>33.7</ele>
        <time>2015-03-19T08:01:04Z</time>
      </trkpt>
      <trkpt lat="38.7100120" lon="-9.1332580">
        <ele>34.6</ele>
        <time>2015-03-19T08:01:09Z</time>
      </trkpt>
      <trkpt lat="38.7100230" lon="-9.1330950">
        <ele>35.5</ele>
        <time>2015-03-19T08:01:18Z</time>
      </trkpt>
      <trkpt lat="38.7100210" lon="-9.1327790">
        <ele>37.3</ele>
        <time>2015-03-19T08:01:35Z</time>
      </trkpt>
      <trkpt lat="38.7101390" lon="-9.1324410">
        <ele>39.2</ele>
        <time>2015-03-19T08:01:53Z</time>
      </trkpt>
      <trkpt lat="38.7102160" lon="-9.1320800">
        <ele>44.2</ele>
        <time>2015-03-19T08:02:12Z</time>
      </trkpt>
      <trkpt lat="38.7102670" lon="-9.1318850">
        <ele>47.4</ele>
        <time>2015-03-19T08:02:23Z</time>
      </trkpt>
      <trkpt lat="38.7103740" lon="-9.1316350">
        <ele>51.7</ele>
        <time>2015-03-19T08:02:38Z</time>
      </trkpt>
      <trkpt lat="38.7104430" lon="-9.1313540">
        <ele>56.1</ele>
        <time>2015-03-19T08:02:53Z</time>
      </trkpt>
      <trkpt lat="38.7105840" lon="-9.1310910">
        <ele>58.4</ele>
        <time>2015-03-19T08:03:11Z</time>
      </trkpt>
      <trkpt lat="38.7106770" lon="-9.1308670">
        <ele>60.2</ele>
        <time>2015-03-19T08:03:24Z</time>
      </trkpt>
      <trkpt lat="38.7107110" lon="-9.1307990">
        <ele>60.7</ele>
        <time>2015-03-19T08:03:28Z</time>
      </trkpt>
      <trkpt lat="38.7109470" lon="-9.1306810">
        <ele>62.5</ele>
        <time>2015-03-19T08:03:44Z</time>
      </trkpt>
      <trkpt lat="38.7110370" lon="-9.1306320">
        <ele>62.9</ele>
        <time>2015-03-19T08:03:51Z</time>
      </trkpt>
      <trkpt lat="38.7111150" lon="-9.1306080">
        <ele>63.2</ele>
        <time>2015-03-19T08:03:57Z</time>
      </trkpt>
      <trkpt lat="38.7113760" lon="-9.1306320">
        <ele>64.3</ele>
        <time>2015-03-19T08:04:16Z</time>
      </trkpt>
      <trkpt lat="38.7114710" lon="-9.1307100">
        <ele>64.9</ele>
        <time>2015-03-19T08:04:24Z</time>
      </trkpt>
      <trkpt lat="38.7115130" lon="-9.1307640">
        <ele>65.5</ele>
        <time>2015-03-19T08:04:29Z</time>
      </trkpt>
      <trkpt lat="38.7115280" lon="-9.1308450">
        <ele>66.4</ele>
        <time>2015-03-19T08:04:35Z</time>
      </trkpt>
      <trkpt lat="38.7115560" lon="-9.1309150">
        <ele>66.4</ele>
        <time>2015-03-19T08:04:48Z</time>
      </trkpt>
      <trkpt lat="38.7115120" lon="-9.1308370">
        <ele>66.3</ele>
        <time>2015-03-19T08:05:57Z</time>
      </trkpt>
      <trkpt lat="38.7114200" lon="-9.1307040">
        <ele>64.3</ele>
        <time>2015-03-19T08:06:03Z</time>
      </trkpt>
      <trkpt lat="38.7113300" lon="-9.1306780">
        <ele>64.3</ele>
        <time>2015-03-19T08:06:06Z</time>
      </trkpt>
      <trkpt lat="38.7110870" lon="-9.1306380">
        <ele>63.2</ele>
        <time>2015-03-19T08:06:12Z</time>
      </trkpt>
      <trkpt lat="38.7108370" lon="-9.1308050">
        <ele>61.6</ele>
        <time>2015-03-19T08:06:18Z</time>
      </trkpt>
      <trkpt lat="38.7106670" lon="-9.1310700">
        <ele>59.0</ele>
        <time>2015-03-19T08:06:23Z</time>
      </trkpt>
      <trkpt lat="38.7105140" lon="-9.1315350">
        <ele>54.2</ele>
        <time>2015-03-19T08:06:31Z</time>
      </trkpt>
      <trkpt lat="38.7102920" lon="-9.1320800">
        <ele>44.8</ele>
        <time>2015-03-19T08:06:38Z</time>
      </trkpt>
      <trkpt lat="38.7102430" lon="-9.1321720">
        <ele>43.1</ele>
        <time>2015-03-19T08:06:39Z</time>
      </trkpt>
      <trkpt lat="38.7101840" lon="-9.1323480">
        <ele>40.1</ele>
        <time>2015-03-19T08:06:41Z</time>
      </trkpt>
      <trkpt lat="38.7101500" lon="-9.1328370">
        <ele>37.1</ele>
        <time>2015-03-19T08:06:47Z</time>
      </trkpt>
      <trkpt lat="38.7101200" lon="-9.1331120">
        <ele>35.5</ele>
        <time>2015-03-19T08:06:51Z</time>
      </trkpt>
      <trkpt lat="38.7101060" lon="-9.1331780">
        <ele>35.3</ele>
        <time>2015-03-19T08:06:52Z</time>
      </trkpt>
      <trkpt lat="38.7099170" lon="-9.1333690">
        <ele>32.9</ele>
        <time>2015-03-19T08:06:58Z</time>
      </trkpt>
      <trkpt lat="38.7098630" lon="-9.1333810">
        <ele>32.2</ele>
        <time>2015-03-19T08:07:00Z</time>
      </trkpt>
      <trkpt lat="38.7097640" lon="-9.1333440">
        <ele>31.2</ele>
        <time>2015-03-19T08:07:12Z</time>
      </trkpt>
      <trkpt lat="38.7097070" lon="-9.1334000">
        <ele>30.2</ele>
        <time>2015-03-19T08:08:03Z</time>
      </trkpt>
      <trkpt lat="38.7095960" lon="-9.1333500">
        <ele>30.2</ele>
        <time>2015-03-19T08:08:40Z</time>
      </trkpt>
      <trkpt lat="38.7095580" lon="-9.1332130">
        <ele>30.0</ele>
        <time>2015-03-19T08:08:45Z</time>
      </trkpt>
      <trkpt lat="38.7096220" lon="-9.1327540">
        <ele>28.8</ele>
        <time>2015-03-19T08:08:57Z</time>
      </trkpt>
      <trkpt lat="38.7096520" lon="-9.1326070">
        <ele>28.7</ele>
        <time>2015-03-19T08:09:00Z</time>
      </trkpt>
      <trkpt lat="38.7095810" lon="-9.1323860">
        <ele>28.6</ele>
        <time>2015-03-19T08:09:04Z</time>
      </trkpt>
      <trkpt lat="38.7095260" lon="-9.1322060">
        <ele>28.1</ele>
        <time>2015-03-19T08:09:07Z</time>
      </trkpt>
      <trkpt lat="38.7095340" lon="-9.1320840">
        <ele>27.8</ele>
        <time>2015-03-19T08:09:09Z</time>
      </trkpt>
      <trkpt lat="38.7095880" lon="-9.1313770">
        <ele>30.9</ele>
        <time>2015-03-19T08:09:22Z</time>
      </trkpt>
      <trkpt lat="38.7096320" lon="-9.1308570">
        <ele>30.5</ele>
        <time>2015-03-19T08:09:33Z</time>
      </trkpt>
      <trkpt lat="38.7096310" lon="-9.1305150">
        <ele>29.4</ele>
        <time>2015-03-19T08:09:44Z</time>
      </trkpt>
      <trkpt lat="38.7097010" lon="-9.1304600">
        <ele>29.1</ele>
        <time>2015-03-19T08:09:48Z</time>
      </trkpt>
      <trkpt lat="38.7097630" lon="-9.1303910">
        <ele>34.1</ele>
        <time>2015-03-19T08:09:52Z</time>
      </trkpt>
      <trkpt lat="38.7099180" lon="-9.1300320">
        <ele>33.2</ele>
        <time>2015-03-19T08:10:04Z</time>
      </trkpt>
      <trkpt lat="38.7102020" lon="-9.1297770">
        <ele>32.3</ele>
        <time>2015-03-19T08:10:15Z</time>
      </trkpt>
      <trkpt lat="38.7104400" lon="-9.1295890">
        <ele>32.8</ele>
        <time>2015-03-19T08:10:26Z</time>
      </trkpt>
      <trkpt lat="38.7106540" lon="-9.1292590">
        <ele>29.0</ele>
        <time>2015-03-19T08:10:37Z</time>
      </trkpt>
      <trkpt lat="38.7109300" lon="-9.1289600">
        <ele>23.8</ele>
        <time>2015-03-19T08:10:46Z</time>
      </trkpt>
      <trkpt lat="38.7111450" lon="-9.1285970">
        <ele>19.9</ele>
        <time>2015-03-19T08:10:57Z</time>
      </trkpt>
      <trkpt lat="38.7113120" lon="-9.1284390">
        <ele>18.2</ele>
        <time>2015-03-19T08:11:04Z</time>
      </trkpt>
      <trkpt lat="38.7113250" lon="-9.1282980">
        <ele>17.7</ele>
        <time>2015-03-19T08:11:08Z</time>
      </trkpt>
      <trkpt lat="38.7113440" lon="-9.1280520">
        <ele>16.1</ele>
        <time>2015-03-19T08:11:15Z</time>
      </trkpt>
      <trkpt lat="38.7112510" lon="-9.1278430">
        <ele>14.3</ele>
        <time>2015-03-19T08:11:22Z</time>
      </trkpt>
      <trkpt lat="38.7114520" lon="-9.1276300">
        <ele>15.3</ele>
        <time>2015-03-19T08:11:37Z</time>
      </trkpt>
      <trkpt lat="38.7115830" lon="-9.1274790">
        <ele>16.4</ele>
        <time>2015-03-19T08:11:50Z</time>
      </trkpt>
      <trkpt lat="38.7117450" lon="-9.1273830">
        <ele>18.2</ele>
        <time>2015-03-19T08:12:02Z</time>
      </trkpt>
      <trkpt lat="38.7118350" lon="-9.1272530">
        <ele>19.7</ele>
        <time>2015-03-19T08:12:10Z</time>
      </trkpt>
      <trkpt lat="38.7120190" lon="-9.1270190">
        <ele>21.9</ele>
        <time>2015-03-19T08:12:28Z</time>
      </trkpt>
      <trkpt lat="38.7120710" lon="-9.1269880">
        <ele>22.3</ele>
        <time>2015-03-19T08:12:41Z</time>
      </trkpt>
      <trkpt lat="38.7121540" lon="-9.1268730">
        <ele>23.3</ele>
        <time>2015-03-19T08:12:56Z</time>
      </trkpt>
      <trkpt lat="38.7122690" lon="-9.1265980">
        <ele>25.7</ele>
        <time>2015-03-19T08:13:10Z</time>
      </trkpt>
      <trkpt lat="38.7123030" lon="-9.1265390">
        <ele>26.3</ele>
        <time>2015-03-19T08:13:14Z</time>
      </trkpt>
      <trkpt lat="38.7124490" lon="-9.1263680">
        <ele>29.7</ele>
        <time>2015-03-19T08:13:29Z</time>
      </trkpt>
      <trkpt lat="38.7125920" lon="-9.1262510">
        <ele>31.8</ele>
        <time>2015-03-19T08:13:43Z</time>
      </trkpt>
      <trkpt lat="38.7126420" lon="-9.1261830">
        <ele>32.7</ele>
        <time>2015-03-19T08:13:59Z</time>
      </trkpt>
      <trkpt lat="38.7127430" lon="-9.1260960">
        <ele>34.3</ele>
        <time>2015-03-19T08:14:11Z</time>
      </trkpt>
      <trkpt lat="38.7128440" lon="-9.1259620">
        <ele>34.5</ele>
        <time>2015-03-19T08:14:26Z</time>
      </trkpt>
      <trkpt lat="38.7128990" lon="-9.1259410">
        <ele>34.6</ele>
        <time>2015-03-19T08:14:32Z</time>
      </trkpt>
      <trkpt lat="38.7129590" lon="-9.1258690">
        <ele>35.4</ele>
        <time>2015-03-19T08:14:37Z</time>
      </trkpt>
      <trkpt lat="38.7132520" lon="-9.1254350">
        <ele>33.6</ele>
        <time>2015-03-19T08:14:51Z</time>
      </trkpt>
      <trkpt lat="38.7133380" lon="-9.1253600">
        <ele>33.5</ele>
        <time>2015-03-19T08:14:57Z</time>
      </trkpt>
      <trkpt lat="38.7135940" lon="-9.1250200">
        <ele>32.4</ele>
        <time>2015-03-19T08:15:11Z</time>
      </trkpt>
      <trkpt lat="38.7137160" lon="-9.1248180">
        <ele>33.2</ele>
        <time>2015-03-19T08:15:23Z</time>
      </trkpt>
      <trkpt lat="38.7138540" lon="-9.1245780">
        <ele>33.4</ele>
        <time>2015-03-19T08:15:36Z</time>
      </trkpt>
      <trkpt lat="38.7139960" lon="-9.1243140">
        <ele>34.6</ele>
        <time>2015-03-19T08:15:50Z</time>
      </trkpt>
      <trkpt lat="38.7141610" lon="-9.1240920">
        <ele>35.8</ele>
        <time>2015-03-19T08:16:04Z</time>
      </trkpt>
      <trkpt lat="38.7143570" lon="-9.1238890">
        <ele>37.3</ele>
        <time>2015-03-19T08:16:19Z</time>
      </trkpt>
      <trkpt lat="38.7144490" lon="-9.1237970">
        <ele>37.9</ele>
        <time>2015-03-19T08:16:26Z</time>
      </trkpt>
      <trkpt lat="38.7146710" lon="-9.1235610">
        <ele>38.3</ele>
        <time>2015-03-19T08:16:43Z</time>
      </trkpt>
      <trkpt lat="38.7149630" lon="-9.1233290">
        <ele>37.5</ele>
        <time>2015-03-19T08:16:58Z</time>
      </trkpt>
      <trkpt lat="38.7151190" lon="-9.1231550">
        <ele>36.2</ele>
        <time>2015-03-19T08:17:05Z</time>
      </trkpt>
      <trkpt lat="38.7152160" lon="-9.1230490">
        <ele>35.6</ele>
        <time>2015-03-19T08:17:08Z</time>
      </trkpt>
      <trkpt lat="38.7154170" lon="-9.1228830">
        <ele>36.4</ele>
        <time>2015-03-19T08:17:12Z</time>
      </trkpt>
      <trkpt lat="38.7156940" lon="-9.1226260">
        <ele>35.8</ele>
        <time>2015-03-19T08:17:21Z</time>
      </trkpt>
      <trkpt lat="38.7159480" lon="-9.1223950">
        <ele>34.1</ele>
        <time>2015-03-19T08:17:32Z</time>
      </trkpt>
      <trkpt lat="38.7161620" lon="-9.1221750">
        <ele>33.2</ele>
        <time>2015-03-19T08:17:44Z</time>
      </trkpt>
      <trkpt lat="38.7164320" lon="-9.1219630">
        <ele>30.1</ele>
        <time>2015-03-19T08:17:55Z</time>
      </trkpt>
      <trkpt lat="38.7166070" lon="-9.1217150">
        <ele>28.1</ele>
        <time>2015-03-19T08:18:02Z</time>
      </trkpt>
      <trkpt lat="38.7166640" lon="-9.1216080">
        <ele>27.6</ele>
        <time>2015-03-19T08:18:04Z</time>
      </trkpt>
      <trkpt lat="38.7167610" lon="-9.1214510">
        <ele>26.8</ele>
        <time>2015-03-19T08:18:07Z</time>
      </trkpt>
      <trkpt lat="38.7171000" lon="-9.1214470">
        <ele>27.8</ele>
        <time>2015-03-19T08:18:14Z</time>
      </trkpt>
      <trkpt lat="38.7171370" lon="-9.1214840">
        <ele>28.2</ele>
        <time>2015-03-19T08:18:15Z</time>
      </trkpt>
      <trkpt lat="38.7173890" lon="-9.1217930">
        <ele>30.7</ele>
        <time>2015-03-19T08:18:24Z</time>
      </trkpt>
      <trkpt lat="38.7174750" lon="-9.1217460">
        <ele>31.4</ele>
        <time>2015-03-19T08:18:31Z</time>
      </trkpt>
      <trkpt lat="38.7176230" lon="-9.1216530">
        <ele>31.9</ele>
        <time>2015-03-19T08:18:39Z</time>
      </trkpt>
      <trkpt lat="38.7176300" lon="-9.1215770">
        <ele>31.7</ele>
        <time>2015-03-19T08:18:41Z</time>
      </trkpt>
      <trkpt lat="38.7175000" lon="-9.1211020">
        <ele>31.0</ele>
        <time>2015-03-19T08:18:56Z</time>
      </trkpt>
      <trkpt lat="38.7174100" lon="-9.1206660">
        <ele>29.7</ele>
        <time>2015-03-19T08:19:11Z</time>
      </trkpt>
      <trkpt lat="38.7174080" lon="-9.1200810">
        <ele>25.8</ele>
        <time>2015-03-19T08:19:29Z</time>
      </trkpt>
      <trkpt lat="38.7175610" lon="-9.1197030">
        <ele>23.6</ele>
        <time>2015-03-19T08:19:37Z</time>
      </trkpt>
      <trkpt lat="38.7177010" lon="-9.1194190">
        <ele>22.2</ele>
        <time>2015-03-19T08:19:42Z</time>
      </trkpt>
      <trkpt lat="38.7177690" lon="-9.1193160">
        <ele>21.7</ele>
        <time>2015-03-19T08:19:44Z</time>
      </trkpt>
      <trkpt lat="38.7178660" lon="-9.1191540">
        <ele>21.0</ele>
        <time>2015-03-19T08:19:49Z</time>
      </trkpt>
      <trkpt lat="38.7179060" lon="-9.1190510">
        <ele>20.7</ele>
        <time>2015-03-19T08:19:54Z</time>
      </trkpt>
      <trkpt lat="38.7183310" lon="-9.1185230">
        <ele>17.2</ele>
        <time>2015-03-19T08:20:11Z</time>
      </trkpt>
      <trkpt lat="38.7184750" lon="-9.1183890">
        <ele>16.4</ele>
        <time>2015-03-19T08:20:15Z</time>
      </trkpt>
      <trkpt lat="38.7189710" lon="-9.1182110">
        <ele>13.9</ele>
        <time>2015-03-19T08:20:28Z</time>
      </trkpt>
      <trkpt lat="38.7190480" lon="-9.1181760">
        <ele>13.6</ele>
        <time>2015-03-19T08:20:30Z</time>
      </trkpt>
      <trkpt lat="38.7195600" lon="-9.1180060">
        <ele>12.7</ele>
        <time>2015-03-19T08:20:43Z</time>
      </trkpt>
      <trkpt lat="38.7197260" lon="-9.1178280">
        <ele>12.6</ele>
        <time>2015-03-19T08:20:48Z</time>
      </trkpt>
      <trkpt lat="38.7199270" lon="-9.1174360">
        <ele>12.6</ele>
        <time>2015-03-19T08:21:02Z</time>
      </trkpt>
      <trkpt lat="38.7202810" lon="-9.1170030">
        <ele>14.8</ele>
        <time>2015-03-19T08:21:21Z</time>
      </trkpt>
      <trkpt lat="38.7206750" lon="-9.1167680">
        <ele>21.4</ele>
        <time>2015-03-19T08:21:39Z</time>
      </trkpt>
      <trkpt lat="38.7210010" lon="-9.1166010">
        <ele>23.3</ele>
        <time>2015-03-19T08:21:53Z</time>
      </trkpt>
      <trkpt lat="38.7212940" lon="-9.1164470">
        <ele>24.3</ele>
        <time>2015-03-19T08:22:06Z</time>
      </trkpt>
      <trkpt lat="38.7216240" lon="-9.1162320">
        <ele>24.6</ele>
        <time>2015-03-19T08:22:21Z</time>
      </trkpt>
      <trkpt lat="38.7218380" lon="-9.1161110">
        <ele>24.2</ele>
        <time>2015-03-19T08:22:30Z</time>
      </trkpt>
      <trkpt lat="38.7221720" lon="-9.1158930">
        <ele>23.1</ele>
        <time>2015-03-19T08:22:43Z</time>
      </trkpt>
      <trkpt lat="38.7226800" lon="-9.1155220">
        <ele>21.1</ele>
        <time>2015-03-19T08:23:00Z</time>
      </trkpt>
      <trkpt lat="38.7227710" lon="-9.1154450">
        <ele>20.7</ele>
        <time>2015-03-19T08:23:03Z</time>
      </trkpt>
      <trkpt lat="38.7228440" lon="-9.1152330">
        <ele>18.6</ele>
        <time>2015-03-19T08:23:08Z</time>
      </trkpt>
      <trkpt lat="38.7229280" lon="-9.1149970">
        <ele>18.1</ele>
        <time>2015-03-19T08:23:12Z</time>
      </trkpt>
      <trkpt lat="38.7232040" lon="-9.1146730">
        <ele>18.3</ele>
        <time>2015-03-19T08:23:18Z</time>
      </trkpt>
      <trkpt lat="38.7237210" lon="-9.1142920">
        <ele>17.8</ele>
        <time>2015-03-19T08:23:26Z</time>
      </trkpt>
      <trkpt lat="38.7239950" lon="-9.1140810">
        <ele>16.3</ele>
        <time>2015-03-19T08:23:30Z</time>
      </trkpt>
      <trkpt lat="38.7244760" lon="-9.1136290">
        <ele>12.9</ele>
        <time>2015-03-19T08:23:40Z</time>
      </trkpt>
      <trkpt lat="38.7245220" lon="-9.1136490">
        <ele>12.7</ele>
        <time>2015-03-19T08:24:12Z</time>
      </trkpt>
      <trkpt lat="38.7245950" lon="-9.1135840">
        <ele>12.1</ele>
        <time>2015-03-19T08:24:17Z</time>
      </trkpt>
      <trkpt lat="38.7250100" lon="-9.1133060">
        <ele>9.9</ele>
        <time>2015-03-19T08:24:32Z</time>
      </trkpt>
      <trkpt lat="38.7252030" lon="-9.1132270">
        <ele>9.6</ele>
        <time>2015-03-19T08:24:46Z</time>
      </trkpt>
      <trkpt lat="38.7252820" lon="-9.1131870">
        <ele>9.3</ele>
        <time>2015-03-19T08:25:17Z</time>
      </trkpt>
      <trkpt lat="38.7255470" lon="-9.1129960">
        <ele>5.8</ele>
        <time>2015-03-19T08:25:27Z</time>
      </trkpt>
      <trkpt lat="38.7260280" lon="-9.1122950">
        <ele>6.7</ele>
        <time>2015-03-19T08:25:44Z</time>
      </trkpt>
      <trkpt lat="38.7264440" lon="-9.1116040">
        <ele>6.7</ele>
        <time>2015-03-19T08:26:02Z</time>
      </trkpt>
      <trkpt lat="38.7268830" lon="-9.1109880">
        <ele>8.3</ele>
        <time>2015-03-19T08:26:19Z</time>
      </trkpt>
      <trkpt lat="38.7274060" lon="-9.1103340">
        <ele>14.7</ele>
        <time>2015-03-19T08:26:38Z</time>
      </trkpt>
      <trkpt lat="38.7279490" lon="-9.1098180">
        <ele>19.5</ele>
        <time>2015-03-19T08:26:56Z</time>
      </trkpt>
      <trkpt lat="38.7283570" lon="-9.1094700">
        <ele>18.8</ele>
        <time>2015-03-19T08:27:13Z</time>
      </trkpt>
      <trkpt lat="38.7287400" lon="-9.1091240">
        <ele>15.1</ele>
        <time>2015-03-19T08:27:32Z</time>
      </trkpt>
      <trkpt lat="38.7289900" lon="-9.1088360">
        <ele>15.1</ele>
        <time>2015-03-19T08:27:48Z</time>
      </trkpt>
      <trkpt lat="38.7292940" lon="-9.1085260">
        <ele>15.2</ele>
        <time>2015-03-19T08:28:06Z</time>
      </trkpt>
      <trkpt lat="38.7295410" lon="-9.1082920">
        <ele>14.7</ele>
        <time>2015-03-19T08:28:21Z</time>
      </trkpt>
      <trkpt lat="38.7298630" lon="-9.1081320">
        <ele>15.6</ele>
        <time>2015-03-19T08:28:33Z</time>
      </trkpt>
      <trkpt lat="38.7302710" lon="-9.1079010">
        <ele>14.9</ele>
        <time>2015-03-19T08:28:42Z</time>
      </trkpt>
      <trkpt lat="38.7308050" lon="-9.1074540">
        <ele>13.8</ele>
        <time>2015-03-19T08:28:53Z</time>
      </trkpt>
      <trkpt lat="38.7315580" lon="-9.1068480">
        <ele>11.7</ele>
        <time>2015-03-19T08:29:08Z</time>
      </trkpt>
      <trkpt lat="38.7321380" lon="-9.1063810">
        <ele>13.8</ele>
        <time>2015-03-19T08:29:19Z</time>
      </trkpt>
      <trkpt lat="38.7323040" lon="-9.1062500">
        <ele>14.2</ele>
        <time>2015-03-19T08:29:23Z</time>
      </trkpt>
      <trkpt lat="38.7328750" lon="-9.1056800">
        <ele>14.3</ele>
        <time>2015-03-19T08:29:42Z</time>
      </trkpt>
      <trkpt lat="38.7334300" lon="-9.1054410">
        <ele>16.8</ele>
        <time>2015-03-19T08:29:57Z</time>
      </trkpt>
      <trkpt lat="38.7336590" lon="-9.1053810">
        <ele>16.3</ele>
        <time>2015-03-19T08:30:03Z</time>
      </trkpt>
      <trkpt lat="38.7341200" lon="-9.1052610">
        <ele>15.1</ele>
        <time>2015-03-19T08:30:13Z</time>
      </trkpt>
      <trkpt lat="38.7341820" lon="-9.1052410">
        <ele>15.1</ele>
        <time>2015-03-19T08:30:14Z</time>
      </trkpt>
      <trkpt lat="38.7346940" lon="-9.1048940">
        <ele>15.9</ele>
        <time>2015-03-19T08:30:28Z</time>
      </trkpt>
      <trkpt lat="38.7353100" lon="-9.1044330">
        <ele>17.6</ele>
        <time>2015-03-19T08:30:47Z</time>
      </trkpt>
      <trkpt lat="38.7359400" lon="-9.1041050">
        <ele>17.6</ele>
        <time>2015-03-19T08:31:04Z</time>
      </trkpt>
      <trkpt lat="38.7365350" lon="-9.1038630">
        <ele>15.8</ele>
        <time>2015-03-19T08:31:21Z</time>
      </trkpt>
      <trkpt lat="38.7371670" lon="-9.1036260">
        <ele>14.7</ele>
        <time>2015-03-19T08:31:39Z</time>
      </trkpt>
      <trkpt lat="38.7379800" lon="-9.1033820">
        <ele>13.6</ele>
        <time>2015-03-19T08:32:01Z</time>
      </trkpt>
      <trkpt lat="38.7384540" lon="-9.1032540">
        <ele>13.4</ele>
        <time>2015-03-19T08:32:14Z</time>
      </trkpt>
      <trkpt lat="38.7386850" lon="-9.1031840">
        <ele>13.3</ele>
        <time>2015-03-19T08:32:20Z</time>
      </trkpt>
      <trkpt lat="38.7392890" lon="-9.1029770">
        <ele>13.4</ele>
        <time>2015-03-19T08:32:36Z</time>
      </trkpt>
      <trkpt lat="38.7397760" lon="-9.1028590">
        <ele>12.9</ele>
        <time>2015-03-19T08:32:49Z</time>
      </trkpt>
      <trkpt lat="38.7405410" lon="-9.1027000">
        <ele>11.5</ele>
        <time>2015-03-19T08:33:06Z</time>
      </trkpt>
      <trkpt lat="38.7413990" lon="-9.1025370">
        <ele>11.6</ele>
        <time>2015-03-19T08:33:23Z</time>
      </trkpt>
      <trkpt lat="38.7421300" lon="-9.1022570">
        <ele>11.8</ele>
        <time>2015-03-19T08:33:43Z</time>
      </trkpt>
      <trkpt lat="38.7427050" lon="-9.1019660">
        <ele>11.2</ele>
        <time>2015-03-19T08:34:00Z</time>
      </trkpt>
      <trkpt lat="38.7433550" lon="-9.1016690">
        <ele>11.1</ele>
        <time>2015-03-19T08:34:20Z</time>
      </trkpt>
      <trkpt lat="38.7437780" lon="-9.1014460">
        <ele>11.5</ele>
        <time>2015-03-19T08:34:38Z</time>
      </trkpt>
      <trkpt lat="38.7439750" lon="-9.1013450">
        <ele>11.6</ele>
        <time>2015-03-19T08:34:50Z</time>
      </trkpt>
      <trkpt lat="38.7441360" lon="-9.1012550">
        <ele>12.4</ele>
        <time>2015-03-19T08:35:21Z</time>
      </trkpt>
      <trkpt lat="38.7443530" lon="-9.1013770">
        <ele>14.1</ele>
        <time>2015-03-19T08:35:32Z</time>
      </trkpt>
      <trkpt lat="38.7446330" lon="-9.1014300">
        <ele>16.7</ele>
        <time>2015-03-19T08:35:47Z</time>
      </trkpt>
      <trkpt lat="38.7449370" lon="-9.1014740">
        <ele>19.5</ele>
        <time>2015-03-19T08:36:03Z</time>
      </trkpt>
      <trkpt lat="38.7452300" lon="-9.1014740">
        <ele>22.5</ele>
        <time>2015-03-19T08:36:18Z</time>
      </trkpt>
      <trkpt lat="38.7455100" lon="-9.1014800">
        <ele>24.9</ele>
        <time>2015-03-19T08:36:33Z</time>
      </trkpt>
      <trkpt lat="38.7458340" lon="-9.1014700">
        <ele>26.9</ele>
        <time>2015-03-19T08:36:50Z</time>
      </trkpt>
      <trkpt lat="38.7461670" lon="-9.1014440">
        <ele>26.7</ele>
        <time>2015-03-19T08:37:05Z</time>
      </trkpt>
      <trkpt lat="38.7466490" lon="-9.1013570">
        <ele>26.6</ele>
        <time>2015-03-19T08:37:23Z</time>
      </trkpt>
      <trkpt lat="38.7471210" lon="-9.1012790">
        <ele>26.3</ele>
        <time>2015-03-19T08:37:39Z</time>
      </trkpt>
      <trkpt lat="38.7475480" lon="-9.1012720">
        <ele>26.1</ele>
        <time>2015-03-19T08:37:54Z</time>
      </trkpt>
      <trkpt lat="38.7479490" lon="-9.1012790">
        <ele>25.8</ele>
        <time>2015-03-19T08:38:09Z</time>
      </trkpt>
      <trkpt lat="38.7480490" lon="-9.1012950">
        <ele>25.7</ele>
        <time>2015-03-19T08:38:13Z</time>
      </trkpt>
      <trkpt lat="38.7481880" lon="-9.1012920">
        <ele>25.6</ele>
        <time>2015-03-19T08:38:18Z</time>
      </trkpt>
      <trkpt lat="38.7487460" lon="-9.1012930">
        <ele>24.5</ele>
        <time>2015-03-19T08:38:38Z</time>
      </trkpt>
      <trkpt lat="38.7491340" lon="-9.1012630">
        <ele>24.2</ele>
        <time>2015-03-19T08:38:53Z</time>
      </trkpt>
      <trkpt lat="38.7496770" lon="-9.1011750">
        <ele>25.8</ele>
        <time>2015-03-19T08:39:10Z</time>
      </trkpt>
      <trkpt lat="38.7502980" lon="-9.1009550">
        <ele>26.1</ele>
        <time>2015-03-19T08:39:28Z</time>
      </trkpt>
      <trkpt lat="38.7508610" lon="-9.1008140">
        <ele>26.1</ele>
        <time>2015-03-19T08:39:44Z</time>
      </trkpt>
      <trkpt lat="38.7511530" lon="-9.1007740">
        <ele>26.5</ele>
        <time>2015-03-19T08:39:55Z</time>
      </trkpt>
      <trkpt lat="38.7516400" lon="-9.1007010">
        <ele>27.6</ele>
        <time>2015-03-19T08:40:09Z</time>
      </trkpt>
      <trkpt lat="38.7521480" lon="-9.1006840">
        <ele>27.9</ele>
        <time>2015-03-19T08:40:24Z</time>
      </trkpt>
      <trkpt lat="38.7526430" lon="-9.1005700">
        <ele>29.2</ele>
        <time>2015-03-19T08:40:39Z</time>
      </trkpt>
      <trkpt lat="38.7531920" lon="-9.1004690">
        <ele>29.8</ele>
        <time>2015-03-19T08:40:55Z</time>
      </trkpt>
      <trkpt lat="38.7538480" lon="-9.1004510">
        <ele>29.4</ele>
        <time>2015-03-19T08:41:12Z</time>
      </trkpt>
      <trkpt lat="38.7545100" lon="-9.1003910">
        <ele>28.4</ele>
        <time>2015-03-19T08:41:30Z</time>
      </trkpt>
      <trkpt lat="38.7547650" lon="-9.1003170">
        <ele>28.1</ele>
        <time>2015-03-19T08:41:35Z</time>
      </trkpt>
      <trkpt lat="38.7553610" lon="-9.1002390">
        <ele>29.1</ele>
        <time>2015-03-19T08:41:47Z</time>
      </trkpt>
      <trkpt lat="38.7561370" lon="-9.1001490">
        <ele>26.9</ele>
        <time>2015-03-19T08:42:06Z</time>
      </trkpt>
      <trkpt lat="38.7563710" lon="-9.1001240">
        <ele>26.7</ele>
        <time>2015-03-19T08:42:12Z</time>
      </trkpt>
      <trkpt lat="38.7563750" lon="-9.0999270">
        <ele>25.2</ele>
        <time>2015-03-19T08:42:17Z</time>
      </trkpt>
      <trkpt lat="38.7560540" lon="-9.0992080">
        <ele>22.3</ele>
        <time>2015-03-19T08:42:34Z</time>
      </trkpt>
      <trkpt lat="38.7560360" lon="-9.0991500">
        <ele>22.1</ele>
        <time>2015-03-19T08:42:36Z</time>
      </trkpt>
      <trkpt lat="38.7561070" lon="-9.0989390">
        <ele>21.3</ele>
        <time>2015-03-19T08:42:48Z</time>
      </trkpt>
      <trkpt lat="38.7561900" lon="-9.0990780">
        <ele>21.5</ele>
        <time>2015-03-19T08:42:57Z</time>
      </trkpt>
      <trkpt lat="38.7562880" lon="-9.0990290">
        <ele>21.4</ele>
        <time>2015-03-19T08:43:00Z</time>
      </trkpt>
      <trkpt lat="38.7566460" lon="-9.0987500">
        <ele>19.4</ele>
        <time>2015-03-19T08:43:08Z</time>
      </trkpt>
      <trkpt lat="38.7570530" lon="-9.0984580">
        <ele>17.7</ele>
        <time>2015-03-19T08:43:20Z</time>
      </trkpt>
      <trkpt lat="38.7577130" lon="-9.0979610">
        <ele>15.5</ele>
        <time>2015-03-19T08:43:36Z</time>
      </trkpt>
      <trkpt lat="38.7582090" lon="-9.0975570">
        <ele>13.4</ele>
        <time>2015-03-19T08:43:50Z</time>
      </trkpt>
      <trkpt lat="38.7585560" lon="-9.0973150">
        <ele>12.5</ele>
        <time>2015-03-19T08:44:01Z</time>
      </trkpt>
      <trkpt lat="38.7592400" lon="-9.0967800">
        <ele>12.3</ele>
        <time>2015-03-19T08:44:18Z</time>
      </trkpt>
      <trkpt lat="38.7597580" lon="-9.0964920">
        <ele>13.4</ele>
        <time>2015-03-19T08:44:32Z</time>
      </trkpt>
      <trkpt lat="38.7605550" lon="-9.0964340">
        <ele>11.3</ele>
        <time>2015-03-19T08:44:52Z</time>
      </trkpt>
      <trkpt lat="38.7612200" lon="-9.0964230">
        <ele>9.7</ele>
        <time>2015-03-19T08:45:09Z</time>
      </trkpt>
      <trkpt lat="38.7615250" lon="-9.0965800">
        <ele>9.3</ele>
        <time>2015-03-19T08:45:20Z</time>
      </trkpt>
      <trkpt lat="38.7618590" lon="-9.0965230">
        <ele>10.7</ele>
        <time>2015-03-19T08:45:32Z</time>
      </trkpt>
      <trkpt lat="38.7619230" lon="-9.0964470">
        <ele>11.7</ele>
        <time>2015-03-19T08:45:35Z</time>
      </trkpt>
      <trkpt lat="38.7620110" lon="-9.0962260">
        <ele>11.7</ele>
        <time>2015-03-19T08:45:45Z</time>
      </trkpt>
      <trkpt lat="38.7620630" lon="-9.0962360">
        <ele>11.7</ele>
        <time>2015-03-19T08:45:47Z</time>
      </trkpt>
      <trkpt lat="38.7625420" lon="-9.0962290">
        <ele>9.8</ele>
        <time>2015-03-19T08:46:02Z</time>
      </trkpt>
      <trkpt lat="38.7630830" lon="-9.0961880">
        <ele>7.4</ele>
        <time>2015-03-19T08:46:18Z</time>
      </trkpt>
      <trkpt lat="38.7634970" lon="-9.0959970">
        <ele>7.4</ele>
        <time>2015-03-19T08:46:32Z</time>
      </trkpt>
      <trkpt lat="38.7638150" lon="-9.0959150">
        <ele>7.3</ele>
        <time>2015-03-19T08:46:43Z</time>
      </trkpt>
      <trkpt lat="38.7643060" lon="-9.0958870">
        <ele>6.6</ele>
        <time>2015-03-19T08:46:58Z</time>
      </trkpt>
      <trkpt lat="38.7648630" lon="-9.0958430">
        <ele>6.4</ele>
        <time>2015-03-19T08:47:15Z</time>
      </trkpt>
      <trkpt lat="38.7652170" lon="-9.0957880">
        <ele>6.7</ele>
        <time>2015-03-19T08:47:27Z</time>
      </trkpt>
      <trkpt lat="38.7652570" lon="-9.0956600">
        <ele>6.6</ele>
        <time>2015-03-19T08:47:33Z</time>
      </trkpt>
      <trkpt lat="38.7653690" lon="-9.0956180">
        <ele>6.3</ele>
        <time>2015-03-19T08:47:47Z</time>
      </trkpt>
      <trkpt lat="38.7653880" lon="-9.0951870">
        <ele>4.6</ele>
        <time>2015-03-19T08:49:39Z</time>
      </trkpt>
      <trkpt lat="38.7652840" lon="-9.0947690">
        <ele>3.8</ele>
        <time>2015-03-19T08:49:51Z</time>
      </trkpt>
      <trkpt lat="38.7653360" lon="-9.0947470">
        <ele>3.7</ele>
        <time>2015-03-19T08:50:13Z</time>
      </trkpt>
      <trkpt lat="38.7655080" lon="-9.0947260">
        <ele>3.3</ele>
        <time>2015-03-19T08:50:57Z</time>
      </trkpt>
      <trkpt lat="38.7660670" lon="-9.0946510">
        <ele>2.6</ele>
        <time>2015-03-19T08:51:14Z</time>
      </trkpt>
      <trkpt lat="38.7665480" lon="-9.0946780">
        <ele>2.8</ele>
        <time>2015-03-19T08:51:28Z</time>
      </trkpt>
      <trkpt lat="38.7669370" lon="-9.0945350">
        <ele>8.9</ele>
        <time>2015-03-19T08:51:40Z</time>
      </trkpt>
      <trkpt lat="38.7672890" lon="-9.0939420">
        <ele>6.6</ele>
        <time>2015-03-19T08:51:56Z</time>
      </trkpt>
      <trkpt lat="38.7673250" lon="-9.0932910">
        <ele>6.3</ele>
        <time>2015-03-19T08:52:10Z</time>
      </trkpt>
      <trkpt lat="38.7672800" lon="-9.0923170">
        <ele>5.3</ele>
        <time>2015-03-19T08:52:30Z</time>
      </trkpt>
      <trkpt lat="38.7674180" lon="-9.0921150">
        <ele>6.1</ele>
        <time>2015-03-19T08:52:38Z</time>
      </trkpt>
      <trkpt lat="38.7674740" lon="-9.0921190">
        <ele>6.6</ele>
        <time>2015-03-19T08:52:40Z</time>
      </trkpt>
      <trkpt lat="38.7679560" lon="-9.0920790">
        <ele>6.6</ele>
        <time>2015-03-19T08:52:55Z</time>
      </trkpt>
      <trkpt lat="38.7682940" lon="-9.0921020">
        <ele>6.8</ele>
        <time>2015-03-19T08:53:06Z</time>
      </trkpt>
      <trkpt lat="38.7686940" lon="-9.0920990">
        <ele>7.2</ele>
        <time>2015-03-19T08:53:19Z</time>
      </trkpt>
      <trkpt lat="38.7691740" lon="-9.0920390">
        <ele>8.0</ele>
        <time>2015-03-19T08:53:32Z</time>
      </trkpt>
      <trkpt lat="38.7694870" lon="-9.0919690">
        <ele>8.7</ele>
        <time>2015-03-19T08:53:42Z</time>
      </trkpt>
      <trkpt lat="38.7696800" lon="-9.0919450">
        <ele>9.2</ele>
        <time>2015-03-19T08:53:48Z</time>
      </trkpt>
      <trkpt lat="38.7700430" lon="-9.0919260">
        <ele>10.2</ele>
        <time>2015-03-19T08:54:00Z</time>
      </trkpt>
      <trkpt lat="38.7704010" lon="-9.0918850">
        <ele>10.9</ele>
        <time>2015-03-19T08:54:12Z</time>
      </trkpt>
      <trkpt lat="38.7707730" lon="-9.0918280">
        <ele>11.4</ele>
        <time>2015-03-19T08:54:22Z</time>
      </trkpt>
      <trkpt lat="38.7712990" lon="-9.0917740">
        <ele>11.5</ele>
        <time>2015-03-19T08:54:37Z</time>
      </trkpt>
      <trkpt lat="38.7717380" lon="-9.0917450">
        <ele>10.8</ele>
        <time>2015-03-19T08:54:50Z</time>
      </trkpt>
      <trkpt lat="38.7721830" lon="-9.0917150">
        <ele>8.8</ele>
        <time>2015-03-19T08:55:05Z</time>
      </trkpt>
      <trkpt lat="38.7725430" lon="-9.0917090">
        <ele>7.7</ele>
        <time>2015-03-19T08:55:16Z</time>
      </trkpt>
      <trkpt lat="38.7728860" lon="-9.0916720">
        <ele>7.4</ele>
        <time>2015-03-19T08:55:27Z</time>
      </trkpt>
      <trkpt lat="38.7734030" lon="-9.0916230">
        <ele>6.7</ele>
        <time>2015-03-19T08:55:41Z</time>
      </trkpt>
      <trkpt lat="38.7737480" lon="-9.0916640">
        <ele>5.6</ele>
        <time>2015-03-19T08:55:53Z</time>
      </trkpt>
      <trkpt lat="38.7740920" lon="-9.0916530">
        <ele>5.4</ele>
        <time>2015-03-19T08:56:04Z</time>
      </trkpt>
      <trkpt lat="38.7743230" lon="-9.0916980">
        <ele>5.1</ele>
        <time>2015-03-19T08:56:16Z</time>
      </trkpt>
      <trkpt lat="38.7744680" lon="-9.0916890">
        <ele>4.9</ele>
        <time>2015-03-19T09:03:39Z</time>
      </trkpt>
      <trkpt lat="38.7745090" lon="-9.0917240">
        <ele>4.8</ele>
        <time>2015-03-19T09:04:41Z</time>
      </trkpt>
      <trkpt lat="38.7747680" lon="-9.0917170">
        <ele>3.7</ele>
        <time>2015-03-19T09:04:54Z</time>
      </trkpt>
      <trkpt lat="38.7750650" lon="-9.0914560">
        <ele>0.0</ele>
        <time>2015-03-19T09:05:08Z</time>
      </trkpt>
      <trkpt lat="38.7755520" lon="-9.0913690">
        <ele>5.7</ele>
        <time>2015-03-19T09:05:23Z</time>
      </trkpt>
      <trkpt lat="38.7756110" lon="-9.0913610">
        <ele>6.5</ele>
        <time>2015-03-19T09:05:32Z</time>
      </trkpt>
      <trkpt lat="38.7757450" lon="-9.0913410">
        <ele>8.6</ele>
        <time>2015-03-19T09:06:17Z</time>
      </trkpt>
      <trkpt lat="38.7764400" lon="-9.0913140">
        <ele>5.5</ele>
        <time>2015-03-19T09:06:38Z</time>
      </trkpt>
      <trkpt lat="38.7770910" lon="-9.0912580">
        <ele>5.0</ele>
        <time>2015-03-19T09:06:57Z</time>
      </trkpt>
      <trkpt lat="38.7778240" lon="-9.0911940">
        <ele>4.0</ele>
        <time>2015-03-19T09:07:18Z</time>
      </trkpt>
      <trkpt lat="38.7786180" lon="-9.0911200">
        <ele>4.0</ele>
        <time>2015-03-19T09:07:41Z</time>
      </trkpt>
      <trkpt lat="38.7795010" lon="-9.0910670">
        <ele>4.1</ele>
        <time>2015-03-19T09:08:06Z</time>
      </trkpt>
      <trkpt lat="38.7800900" lon="-9.0910230">
        <ele>4.3</ele>
        <time>2015-03-19T09:08:23Z</time>
      </trkpt>
      <trkpt lat="38.7809070" lon="-9.0909520">
        <ele>3.5</ele>
        <time>2015-03-19T09:08:46Z</time>
      </trkpt>
      <trkpt lat="38.7816700" lon="-9.0908910">
        <ele>3.4</ele>
        <time>2015-03-19T09:09:09Z</time>
      </trkpt>
      <trkpt lat="38.7823540" lon="-9.0908450">
        <ele>1.5</ele>
        <time>2015-03-19T09:09:30Z</time>
      </trkpt>
      <trkpt lat="38.7830470" lon="-9.0907880">
        <ele>1.9</ele>
        <time>2015-03-19T09:09:51Z</time>
      </trkpt>
      <trkpt lat="38.7835870" lon="-9.0907670">
        <ele>0.8</ele>
        <time>2015-03-19T09:10:08Z</time>
      </trkpt>
      <trkpt lat="38.7840740" lon="-9.0910340">
        <ele>0.7</ele>
        <time>2015-03-19T09:10:25Z</time>
      </trkpt>
      <trkpt lat="38.7843800" lon="-9.0912640">
        <ele>0.9</ele>
        <time>2015-03-19T09:10:41Z</time>
      </trkpt>
      <trkpt lat="38.7844980" lon="-9.0913970">
        <ele>1.1</ele>
        <time>2015-03-19T09:11:11Z</time>
      </trkpt>
      <trkpt lat="38.7850070" lon="-9.0919100">
        <ele>4.5</ele>
        <time>2015-03-19T09:11:30Z</time>
      </trkpt>
      <trkpt lat="38.7854800" lon="-9.0922740">
        <ele>9.6</ele>
        <time>2015-03-19T09:11:47Z</time>
      </trkpt>
      <trkpt lat="38.7860420" lon="-9.0923450">
        <ele>12.8</ele>
        <time>2015-03-19T09:12:04Z</time>
      </trkpt>
      <trkpt lat="38.7864740" lon="-9.0923170">
        <ele>9.9</ele>
        <time>2015-03-19T09:12:19Z</time>
      </trkpt>
      <trkpt lat="38.7870610" lon="-9.0922220">
        <ele>5.2</ele>
        <time>2015-03-19T09:12:32Z</time>
      </trkpt>
      <trkpt lat="38.7878080" lon="-9.0918750">
        <ele>2.6</ele>
        <time>2015-03-19T09:12:51Z</time>
      </trkpt>
      <trkpt lat="38.7883600" lon="-9.0914540">
        <ele>2.2</ele>
        <time>2015-03-19T09:13:07Z</time>
      </trkpt>
      <trkpt lat="38.7890400" lon="-9.0908450">
        <ele>2.8</ele>
        <time>2015-03-19T09:13:29Z</time>
      </trkpt>
      <trkpt lat="38.7896260" lon="-9.0907350">
        <ele>2.7</ele>
        <time>2015-03-19T09:13:45Z</time>
      </trkpt>
      <trkpt lat="38.7903840" lon="-9.0904560">
        <ele>2.5</ele>
        <time>2015-03-19T09:14:06Z</time>
      </trkpt>
      <trkpt lat="38.7909210" lon="-9.0903000">
        <ele>2.4</ele>
        <time>2015-03-19T09:14:21Z</time>
      </trkpt>
      <trkpt lat="38.7915670" lon="-9.0904170">
        <ele>2.3</ele>
        <time>2015-03-19T09:14:38Z</time>
      </trkpt>
      <trkpt lat="38.7923470" lon="-9.0906440">
        <ele>2.2</ele>
        <time>2015-03-19T09:14:59Z</time>
      </trkpt>
      <trkpt lat="38.7930310" lon="-9.0906130">
        <ele>2.1</ele>
        <time>2015-03-19T09:15:17Z</time>
      </trkpt>
      <trkpt lat="38.7937040" lon="-9.0905970">
        <ele>2.0</ele>
        <time>2015-03-19T09:15:35Z</time>
      </trkpt>
      <trkpt lat="38.7941140" lon="-9.0907380">
        <ele>1.9</ele>
        <time>2015-03-19T09:15:48Z</time>
      </trkpt>
      <trkpt lat="38.7944920" lon="-9.0909130">
        <ele>2.1</ele>
        <time>2015-03-19T09:16:00Z</time>
      </trkpt>
      <trkpt lat="38.7948610" lon="-9.0911770">
        <ele>2.1</ele>
        <time>2015-03-19T09:16:12Z</time>
      </trkpt>
      <trkpt lat="38.7955820" lon="-9.0914100">
        <ele>2.5</ele>
        <time>2015-03-19T09:16:32Z</time>
      </trkpt>
      <trkpt lat="38.7959260" lon="-9.0920040">
        <ele>3.3</ele>
        <time>2015-03-19T09:16:48Z</time>
      </trkpt>
      <trkpt lat="38.7959720" lon="-9.0930820">
        <ele>3.6</ele>
        <time>2015-03-19T09:17:09Z</time>
      </trkpt>
      <trkpt lat="38.7960280" lon="-9.0941050">
        <ele>2.7</ele>
        <time>2015-03-19T09:17:29Z</time>
      </trkpt>
      <trkpt lat="38.7960730" lon="-9.0950690">
        <ele>2.8</ele>
        <time>2015-03-19T09:17:48Z</time>
      </trkpt>
      <trkpt lat="38.7961100" lon="-9.0959590">
        <ele>3.3</ele>
        <time>2015-03-19T09:18:05Z</time>
      </trkpt>
      <trkpt lat="38.7960840" lon="-9.0970450">
        <ele>5.0</ele>
        <time>2015-03-19T09:18:26Z</time>
      </trkpt>
      <trkpt lat="38.7959570" lon="-9.0978470">
        <ele>6.0</ele>
        <time>2015-03-19T09:18:42Z</time>
      </trkpt>
      <trkpt lat="38.7959540" lon="-9.0985140">
        <ele>6.4</ele>
        <time>2015-03-19T09:18:56Z</time>
      </trkpt>
      <trkpt lat="38.7960860" lon="-9.0990480">
        <ele>6.6</ele>
        <time>2015-03-19T09:19:07Z</time>
      </trkpt>
      <trkpt lat="38.7962040" lon="-9.0991230">
        <ele>6.6</ele>
        <time>2015-03-19T09:19:11Z</time>
      </trkpt>
      <trkpt lat="38.7962750" lon="-9.0991330">
        <ele>6.6</ele>
        <time>2015-03-19T09:19:13Z</time>
      </trkpt>
      <trkpt lat="38.7963700" lon="-9.0995150">
        <ele>6.7</ele>
        <time>2015-03-19T09:19:23Z</time>
      </trkpt>
      <trkpt lat="38.7965030" lon="-9.1000720">
        <ele>7.6</ele>
        <time>2015-03-19T09:19:39Z</time>
      </trkpt>
      <trkpt lat="38.7967940" lon="-9.1007970">
        <ele>8.1</ele>
        <time>2015-03-19T09:19:57Z</time>
      </trkpt>
      <trkpt lat="38.7970110" lon="-9.1015640">
        <ele>7.3</ele>
        <time>2015-03-19T09:20:14Z</time>
      </trkpt>
      <trkpt lat="38.7970830" lon="-9.1023170">
        <ele>6.6</ele>
        <time>2015-03-19T09:20:31Z</time>
      </trkpt>
      <trkpt lat="38.7970700" lon="-9.1026860">
        <ele>6.4</ele>
        <time>2015-03-19T09:20:40Z</time>
      </trkpt>
      <trkpt lat="38.7970510" lon="-9.1033310">
        <ele>4.4</ele>
        <time>2015-03-19T09:20:54Z</time>
      </trkpt>
      <trkpt lat="38.7969310" lon="-9.1038600">
        <ele>4.2</ele>
        <time>2015-03-19T09:21:06Z</time>
      </trkpt>
      <trkpt lat="38.7966740" lon="-9.1040790">
        <ele>4.5</ele>
        <time>2015-03-19T09:21:15Z</time>
      </trkpt>
      <trkpt lat="38.7966410" lon="-9.1044020">
        <ele>4.2</ele>
        <time>2015-03-19T09:21:23Z</time>
      </trkpt>
      <trkpt lat="38.7966520" lon="-9.1045050">
        <ele>4.1</ele>
        <time>2015-03-19T09:21:26Z</time>
      </trkpt>
      <trkpt lat="38.7967100" lon="-9.1045300">
        <ele>3.7</ele>
        <time>2015-03-19T09:21:30Z</time>
      </trkpt>
      <trkpt lat="38.7969700" lon="-9.1046130">
        <ele>2.0</ele>
        <time>2015-03-19T09:21:39Z</time>
      </trkpt>
      <trkpt lat="38.7974600" lon="-9.1045930">
        <ele>1.7</ele>
        <time>2015-03-19T09:21:54Z</time>
      </trkpt>
      <trkpt lat="38.7976220" lon="-9.1045530">
        <ele>1.8</ele>
        <time>2015-03-19T09:22:04Z</time>
      </trkpt>
      <trkpt lat="38.7976760" lon="-9.1048820">
        <ele>2.0</ele>
        <time>2015-03-19T09:22:18Z</time>
      </trkpt>
      <trkpt lat="38.7978440" lon="-9.1052740">
        <ele>2.1</ele>
        <time>2015-03-19T09:22:30Z</time>
      </trkpt>
      <trkpt lat="38.7981880" lon="-9.1059300">
        <ele>2.3</ele>
        <time>2015-03-19T09:22:48Z</time>
      </trkpt>
      <trkpt lat="38.7985280" lon="-9.1064040">
        <ele>2.4</ele>
        <time>2015-03-19T09:23:02Z</time>
      </trkpt>
      <trkpt lat="38.7987940" lon="-9.1064790">
        <ele>2.6</ele>
        <time>2015-03-19T09:23:10Z</time>
      </trkpt>
      <trkpt lat="38.7990360" lon="-9.1068900">
        <ele>2.8</ele>
        <time>2015-03-19T09:23:20Z</time>
      </trkpt>
      <trkpt lat="38.7995270" lon="-9.1076380">
        <ele>3.1</ele>
        <time>2015-03-19T09:23:39Z</time>
      </trkpt>
      <trkpt lat="38.8000450" lon="-9.1080850">
        <ele>3.4</ele>
        <time>2015-03-19T09:23:55Z</time>
      </trkpt>
      <trkpt lat="38.8001950" lon="-9.1078420">
        <ele>3.9</ele>
        <time>2015-03-19T09:24:01Z</time>
      </trkpt>
      <trkpt lat="38.8004000" lon="-9.1072510">
        <ele>5.4</ele>
        <time>2015-03-19T09:24:13Z</time>
      </trkpt>
      <trkpt lat="38.8006340" lon="-9.1071290">
        <ele>6.3</ele>
        <time>2015-03-19T09:24:20Z</time>
      </trkpt>
      <trkpt lat="38.8010500" lon="-9.1074970">
        <ele>8.2</ele>
        <time>2015-03-19T09:24:34Z</time>
      </trkpt>
      <trkpt lat="38.8014150" lon="-9.1077390">
        <ele>10.9</ele>
        <time>2015-03-19T09:24:45Z</time>
      </trkpt>
      <trkpt lat="38.8017380" lon="-9.1079230">
        <ele>11.2</ele>
        <time>2015-03-19T09:24:57Z</time>
      </trkpt>
      <trkpt lat="38.8018460" lon="-9.1079410">
        <ele>11.2</ele>
        <time>2015-03-19T09:25:01Z</time>
      </trkpt>
      <trkpt lat="38.8022180" lon="-9.1079050">
        <ele>10.6</ele>
        <time>2015-03-19T09:25:16Z</time>
      </trkpt>
      <trkpt lat="38.8024910" lon="-9.1078100">
        <ele>10.1</ele>
        <time>2015-03-19T09:25:27Z</time>
      </trkpt>
      <trkpt lat="38.8026480" lon="-9.1077090">
        <ele>10.0</ele>
        <time>2015-03-19T09:26:00Z</time>
      </trkpt>
      <trkpt lat="38.8031790" lon="-9.1073390">
        <ele>9.5</ele>
        <time>2015-03-19T09:26:16Z</time>
      </trkpt>
      <trkpt lat="38.8037770" lon="-9.1069630">
        <ele>9.7</ele>
        <time>2015-03-19T09:26:33Z</time>
      </trkpt>
      <trkpt lat="38.8043980" lon="-9.1066000">
        <ele>9.9</ele>
        <time>2015-03-19T09:26:50Z</time>
      </trkpt>
      <trkpt lat="38.8050600" lon="-9.1062720">
        <ele>9.6</ele>
        <time>2015-03-19T09:27:08Z</time>
      </trkpt>
      <trkpt lat="38.8055650" lon="-9.1061690">
        <ele>9.1</ele>
        <time>2015-03-19T09:27:23Z</time>
      </trkpt>
      <trkpt lat="38.8058880" lon="-9.1061800">
        <ele>8.9</ele>
        <time>2015-03-19T09:27:33Z</time>
      </trkpt>
      <trkpt lat="38.8059590" lon="-9.1061990">
        <ele>9.0</ele>
        <time>2015-03-19T09:27:35Z</time>
      </trkpt>
      <trkpt lat="38.8062090" lon="-9.1061440">
        <ele>8.7</ele>
        <time>2015-03-19T09:27:42Z</time>
      </trkpt>
      <trkpt lat="38.8067300" lon="-9.1060300">
        <ele>8.6</ele>
        <time>2015-03-19T09:27:58Z</time>
      </trkpt>
      <trkpt lat="38.8071810" lon="-9.1059360">
        <ele>8.4</ele>
        <time>2015-03-19T09:28:11Z</time>
      </trkpt>
      <trkpt lat="38.8074900" lon="-9.1058960">
        <ele>8.2</ele>
        <time>2015-03-19T09:28:22Z</time>
      </trkpt>
      <trkpt lat="38.8077870" lon="-9.1058880">
        <ele>8.2</ele>
        <time>2015-03-19T09:28:32Z</time>
      </trkpt>
      <trkpt lat="38.8078930" lon="-9.1058690">
        <ele>8.3</ele>
        <time>2015-03-19T09:28:36Z</time>
      </trkpt>
      <trkpt lat="38.8082320" lon="-9.1059060">
        <ele>8.4</ele>
        <time>2015-03-19T09:28:49Z</time>
      </trkpt>
      <trkpt lat="38.8085530" lon="-9.1059260">
        <ele>8.5</ele>
        <time>2015-03-19T09:29:01Z</time>
      </trkpt>
      <trkpt lat="38.8086600" lon="-9.1059200">
        <ele>8.6</ele>
        <time>2015-03-19T09:29:05Z</time>
      </trkpt>
      <trkpt lat="38.8089820" lon="-9.1059910">
        <ele>8.8</ele>
        <time>2015-03-19T09:29:17Z</time>
      </trkpt>
      <trkpt lat="38.8093590" lon="-9.1061030">
        <ele>9.4</ele>
        <time>2015-03-19T09:29:32Z</time>
      </trkpt>
      <trkpt lat="38.8095310" lon="-9.1061750">
        <ele>9.3</ele>
        <time>2015-03-19T09:29:39Z</time>
      </trkpt>
      <trkpt lat="38.8096220" lon="-9.1062010">
        <ele>9.3</ele>
        <time>2015-03-19T09:29:43Z</time>
      </trkpt>
      <trkpt lat="38.8098730" lon="-9.1063340">
        <ele>9.0</ele>
        <time>2015-03-19T09:29:54Z</time>
      </trkpt>
      <trkpt lat="38.8100560" lon="-9.1064100">
        <ele>9.0</ele>
        <time>2015-03-19T09:30:02Z</time>
      </trkpt>
      <trkpt lat="38.8101560" lon="-9.1064800">
        <ele>8.9</ele>
        <time>2015-03-19T09:30:07Z</time>
      </trkpt>
      <trkpt lat="38.8102950" lon="-9.1065780">
        <ele>8.7</ele>
        <time>2015-03-19T09:30:14Z</time>
      </trkpt>
      <trkpt lat="38.8104260" lon="-9.1066550">
        <ele>8.7</ele>
        <time>2015-03-19T09:30:20Z</time>
      </trkpt>
      <trkpt lat="38.8105420" lon="-9.1067210">
        <ele>8.9</ele>
        <time>2015-03-19T09:30:25Z</time>
      </trkpt>
      <trkpt lat="38.8108010" lon="-9.1068950">
        <ele>9.1</ele>
        <time>2015-03-19T09:30:37Z</time>
      </trkpt>
      <trkpt lat="38.8109740" lon="-9.1070170">
        <ele>8.9</ele>
        <time>2015-03-19T09:30:45Z</time>
      </trkpt>
      <trkpt lat="38.8111630" lon="-9.1071610">
        <ele>9.1</ele>
        <time>2015-03-19T09:30:54Z</time>
      </trkpt>
      <trkpt lat="38.8114400" lon="-9.1073980">
        <ele>9.4</ele>
        <time>2015-03-19T09:31:08Z</time>
      </trkpt>
      <trkpt lat="38.8116040" lon="-9.1075680">
        <ele>9.0</ele>
        <time>2015-03-19T09:31:17Z</time>
      </trkpt>
      <trkpt lat="38.8117100" lon="-9.1075510">
        <ele>8.7</ele>
        <time>2015-03-19T09:31:30Z</time>
      </trkpt>
      <trkpt lat="38.8119190" lon="-9.1077180">
        <ele>8.0</ele>
        <time>2015-03-19T09:31:50Z</time>
      </trkpt>
      <trkpt lat="38.8118840" lon="-9.1078020">
        <ele>7.8</ele>
        <time>2015-03-19T09:31:57Z</time>
      </trkpt>
      <trkpt lat="38.8118450" lon="-9.1078840">
        <ele>7.6</ele>
        <time>2015-03-19T09:32:06Z</time>
      </trkpt>
      <trkpt lat="38.8118600" lon="-9.1079410">
        <ele>7.5</ele>
        <time>2015-03-19T09:32:12Z</time>
      </trkpt>
      <trkpt lat="38.8118820" lon="-9.1080630">
        <ele>7.5</ele>
        <time>2015-03-19T09:32:21Z</time>
      </trkpt>
      <trkpt lat="38.8119530" lon="-9.1082180">
        <ele>7.5</ele>
        <time>2015-03-19T09:32:33Z</time>
      </trkpt>
      <trkpt lat="38.8119780" lon="-9.1082900">
        <ele>7.4</ele>
        <time>2015-03-19T09:32:43Z</time>
      </trkpt>
      <trkpt lat="38.8120220" lon="-9.1084290">
        <ele>7.4</ele>
        <time>2015-03-19T09:32:49Z</time>
      </trkpt>
      <trkpt lat="38.8121410" lon="-9.1087320">
        <ele>7.2</ele>
        <time>2015-03-19T09:33:01Z</time>
      </trkpt>
      <trkpt lat="38.8122920" lon="-9.1090610">
        <ele>7.1</ele>
        <time>2015-03-19T09:33:14Z</time>
      </trkpt>
      <trkpt lat="38.8123230" lon="-9.1091370">
        <ele>7.1</ele>
        <time>2015-03-19T09:33:17Z</time>
      </trkpt>
      <trkpt lat="38.8124400" lon="-9.1094140">
        <ele>7.1</ele>
        <time>2015-03-19T09:33:30Z</time>
      </trkpt>
      <trkpt lat="38.8125440" lon="-9.1096720">
        <ele>6.8</ele>
        <time>2015-03-19T09:33:40Z</time>
      </trkpt>
      <trkpt lat="38.8126220" lon="-9.1098630">
        <ele>6.6</ele>
        <time>2015-03-19T09:33:50Z</time>
      </trkpt>
      <trkpt lat="38.8126480" lon="-9.1099130">
        <ele>6.6</ele>
        <time>2015-03-19T09:33:52Z</time>
      </trkpt>
      <trkpt lat="38.8128460" lon="-9.1102600">
        <ele>6.4</ele>
        <time>2015-03-19T09:34:06Z</time>
      </trkpt>
      <trkpt lat="38.8130320" lon="-9.1105320">
        <ele>6.4</ele>
        <time>2015-03-19T09:34:17Z</time>
      </trkpt>
      <trkpt lat="38.8132920" lon="-9.1107550">
        <ele>6.2</ele>
        <time>2015-03-19T09:34:32Z</time>
      </trkpt>
      <trkpt lat="38.8134780" lon="-9.1109040">
        <ele>6.1</ele>
        <time>2015-03-19T09:34:42Z</time>
      </trkpt>
      <trkpt lat="38.8136660" lon="-9.1110310">
        <ele>6.1</ele>
        <time>2015-03-19T09:34:52Z</time>
      </trkpt>
      <trkpt lat="38.8137630" lon="-9.1110680">
        <ele>6.1</ele>
        <time>2015-03-19T09:34:56Z</time>
      </trkpt>
      <trkpt lat="38.8140380" lon="-9.1111700">
        <ele>6.1</ele>
        <time>2015-03-19T09:35:08Z</time>
      </trkpt>
      <trkpt lat="38.8143890" lon="-9.1113000">
        <ele>6.0</ele>
        <time>2015-03-19T09:35:22Z</time>
      </trkpt>
      <trkpt lat="38.8147520" lon="-9.1114070">
        <ele>5.9</ele>
        <time>2015-03-19T09:35:37Z</time>
      </trkpt>
      <trkpt lat="38.8150960" lon="-9.1114470">
        <ele>5.8</ele>
        <time>2015-03-19T09:35:51Z</time>
      </trkpt>
      <trkpt lat="38.8154160" lon="-9.1114670">
        <ele>5.7</ele>
        <time>2015-03-19T09:36:03Z</time>
      </trkpt>
      <trkpt lat="38.8157090" lon="-9.1114500">
        <ele>5.7</ele>
        <time>2015-03-19T09:36:15Z</time>
      </trkpt>
      <trkpt lat="38.8159830" lon="-9.1113940">
        <ele>5.7</ele>
        <time>2015-03-19T09:36:27Z</time>
      </trkpt>
      <trkpt lat="38.8160730" lon="-9.1113860">
        <ele>5.7</ele>
        <time>2015-03-19T09:36:31Z</time>
      </trkpt>
      <trkpt lat="38.8163210" lon="-9.1112980">
        <ele>5.8</ele>
        <time>2015-03-19T09:36:42Z</time>
      </trkpt>
      <trkpt lat="38.8165760" lon="-9.1111790">
        <ele>5.8</ele>
        <time>2015-03-19T09:36:53Z</time>
      </trkpt>
      <trkpt lat="38.8169170" lon="-9.1110280">
        <ele>5.7</ele>
        <time>2015-03-19T09:37:07Z</time>
      </trkpt>
      <trkpt lat="38.8171250" lon="-9.1109400">
        <ele>5.6</ele>
        <time>2015-03-19T09:37:16Z</time>
      </trkpt>
      <trkpt lat="38.8172270" lon="-9.1109070">
        <ele>5.6</ele>
        <time>2015-03-19T09:37:21Z</time>
      </trkpt>
      <trkpt lat="38.8175620" lon="-9.1107570">
        <ele>5.4</ele>
        <time>2015-03-19T09:37:35Z</time>
      </trkpt>
      <trkpt lat="38.8177270" lon="-9.1106840">
        <ele>5.2</ele>
        <time>2015-03-19T09:37:42Z</time>
      </trkpt>
      <trkpt lat="38.8178750" lon="-9.1106060">
        <ele>5.0</ele>
        <time>2015-03-19T09:37:49Z</time>
      </trkpt>
      <trkpt lat="38.8180590" lon="-9.1105330">
        <ele>4.9</ele>
        <time>2015-03-19T09:37:57Z</time>
      </trkpt>
      <trkpt lat="38.8182810" lon="-9.1104550">
        <ele>5.0</ele>
        <time>2015-03-19T09:38:07Z</time>
      </trkpt>
      <trkpt lat="38.8185700" lon="-9.1103920">
        <ele>4.9</ele>
        <time>2015-03-19T09:38:20Z</time>
      </trkpt>
      <trkpt lat="38.8187130" lon="-9.1103930">
        <ele>4.8</ele>
        <time>2015-03-19T09:38:27Z</time>
      </trkpt>
      <trkpt lat="38.8187710" lon="-9.1103840">
        <ele>4.7</ele>
        <time>2015-03-19T09:38:37Z</time>
      </trkpt>
      <trkpt lat="38.8189030" lon="-9.1103770">
        <ele>4.7</ele>
        <time>2015-03-19T09:38:49Z</time>
      </trkpt>
      <trkpt lat="38.8191480" lon="-9.1103910">
        <ele>4.8</ele>
        <time>2015-03-19T09:39:00Z</time>
      </trkpt>
      <trkpt lat="38.8192110" lon="-9.1103830">
        <ele>4.8</ele>
        <time>2015-03-19T09:39:03Z</time>
      </trkpt>
      <trkpt lat="38.8194860" lon="-9.1104200">
        <ele>5.0</ele>
        <time>2015-03-19T09:39:16Z</time>
      </trkpt>
      <trkpt lat="38.8196200" lon="-9.1104450">
        <ele>5.0</ele>
        <time>2015-03-19T09:39:23Z</time>
      </trkpt>
      <trkpt lat="38.8199180" lon="-9.1105290">
        <ele>4.7</ele>
        <time>2015-03-19T09:39:36Z</time>
      </trkpt>
      <trkpt lat="38.8201370" lon="-9.1106320">
        <ele>4.5</ele>
        <time>2015-03-19T09:39:47Z</time>
      </trkpt>
      <trkpt lat="38.8202490" lon="-9.1106880">
        <ele>4.3</ele>
        <time>2015-03-19T09:39:53Z</time>
      </trkpt>
      <trkpt lat="38.8203400" lon="-9.1107080">
        <ele>4.2</ele>
        <time>2015-03-19T09:39:59Z</time>
      </trkpt>
      <trkpt lat="38.8205850" lon="-9.1108460">
        <ele>4.1</ele>
        <time>2015-03-19T09:40:13Z</time>
      </trkpt>
      <trkpt lat="38.8206310" lon="-9.1108730">
        <ele>4.1</ele>
        <time>2015-03-19T09:40:16Z</time>
      </trkpt>
      <trkpt lat="38.8207000" lon="-9.1109290">
        <ele>4.1</ele>
        <time>2015-03-19T09:40:20Z</time>
      </trkpt>
      <trkpt lat="38.8209100" lon="-9.1110660">
        <ele>4.2</ele>
        <time>2015-03-19T09:40:32Z</time>
      </trkpt>
      <trkpt lat="38.8212250" lon="-9.1112960">
        <ele>4.2</ele>
        <time>2015-03-19T09:40:47Z</time>
      </trkpt>
      <trkpt lat="38.8214270" lon="-9.1114620">
        <ele>4.0</ele>
        <time>2015-03-19T09:40:58Z</time>
      </trkpt>
      <trkpt lat="38.8216310" lon="-9.1116290">
        <ele>3.8</ele>
        <time>2015-03-19T09:41:09Z</time>
      </trkpt>
      <trkpt lat="38.8217100" lon="-9.1116830">
        <ele>3.7</ele>
        <time>2015-03-19T09:41:14Z</time>
      </trkpt>
      <trkpt lat="38.8218140" lon="-9.1117600">
        <ele>3.6</ele>
        <time>2015-03-19T09:41:20Z</time>
      </trkpt>
      <trkpt lat="38.8220820" lon="-9.1119850">
        <ele>3.7</ele>
        <time>2015-03-19T09:41:34Z</time>
      </trkpt>
      <trkpt lat="38.8222900" lon="-9.1121450">
        <ele>3.7</ele>
        <time>2015-03-19T09:41:47Z</time>
      </trkpt>
      <trkpt lat="38.8224830" lon="-9.1122950">
        <ele>3.5</ele>
        <time>2015-03-19T09:41:59Z</time>
      </trkpt>
      <trkpt lat="38.8226640" lon="-9.1124510">
        <ele>3.5</ele>
        <time>2015-03-19T09:42:12Z</time>
      </trkpt>
      <trkpt lat="38.8229390" lon="-9.1126940">
        <ele>3.7</ele>
        <time>2015-03-19T09:42:27Z</time>
      </trkpt>
      <trkpt lat="38.8232340" lon="-9.1130790">
        <ele>3.4</ele>
        <time>2015-03-19T09:42:44Z</time>
      </trkpt>
      <trkpt lat="38.8233230" lon="-9.1131620">
        <ele>3.2</ele>
        <time>2015-03-19T09:42:50Z</time>
      </trkpt>
      <trkpt lat="38.8233800" lon="-9.1131130">
        <ele>3.1</ele>
        <time>2015-03-19T09:42:55Z</time>
      </trkpt>
      <trkpt lat="38.8236470" lon="-9.1128320">
        <ele>3.7</ele>
        <time>2015-03-19T09:43:10Z</time>
      </trkpt>
      <trkpt lat="38.8239800" lon="-9.1130390">
        <ele>3.5</ele>
        <time>2015-03-19T09:43:23Z</time>
      </trkpt>
      <trkpt lat="38.8243340" lon="-9.1133890">
        <ele>3.2</ele>
        <time>2015-03-19T09:43:36Z</time>
      </trkpt>
      <trkpt lat="38.8247970" lon="-9.1138630">
        <ele>3.6</ele>
        <time>2015-03-19T09:43:51Z</time>
      </trkpt>
      <trkpt lat="38.8253010" lon="-9.1143620">
        <ele>3.3</ele>
        <time>2015-03-19T09:44:07Z</time>
      </trkpt>
      <trkpt lat="38.8257560" lon="-9.1147790">
        <ele>4.0</ele>
        <time>2015-03-19T09:44:21Z</time>
      </trkpt>
      <trkpt lat="38.8262530" lon="-9.1150980">
        <ele>5.8</ele>
        <time>2015-03-19T09:44:36Z</time>
      </trkpt>
      <trkpt lat="38.8267920" lon="-9.1154880">
        <ele>5.8</ele>
        <time>2015-03-19T09:44:51Z</time>
      </trkpt>
      <trkpt lat="38.8268300" lon="-9.1155210">
        <ele>5.8</ele>
        <time>2015-03-19T09:44:52Z</time>
      </trkpt>
      <trkpt lat="38.8269310" lon="-9.1156250">
        <ele>5.8</ele>
        <time>2015-03-19T09:44:55Z</time>
      </trkpt>
      <trkpt lat="38.8273050" lon="-9.1157220">
        <ele>5.8</ele>
        <time>2015-03-19T09:45:06Z</time>
      </trkpt>
      <trkpt lat="38.8276640" lon="-9.1157280">
        <ele>5.9</ele>
        <time>2015-03-19T09:45:16Z</time>
      </trkpt>
      <trkpt lat="38.8279760" lon="-9.1157480">
        <ele>6.9</ele>
        <time>2015-03-19T09:45:25Z</time>
      </trkpt>
      <trkpt lat="38.8283430" lon="-9.1156770">
        <ele>7.3</ele>
        <time>2015-03-19T09:45:36Z</time>
      </trkpt>
      <trkpt lat="38.8288000" lon="-9.1156750">
        <ele>7.3</ele>
        <time>2015-03-19T09:45:49Z</time>
      </trkpt>
      <trkpt lat="38.8291400" lon="-9.1155590">
        <ele>7.3</ele>
        <time>2015-03-19T09:45:59Z</time>
      </trkpt>
      <trkpt lat="38.8297040" lon="-9.1155120">
        <ele>7.3</ele>
        <time>2015-03-19T09:46:15Z</time>
      </trkpt>
      <trkpt lat="38.8301850" lon="-9.1154170">
        <ele>7.3</ele>
        <time>2015-03-19T09:46:29Z</time>
      </trkpt>
      <trkpt lat="38.8305100" lon="-9.1152780">
        <ele>7.3</ele>
        <time>2015-03-19T09:46:39Z</time>
      </trkpt>
      <trkpt lat="38.8310540" lon="-9.1150770">
        <ele>7.9</ele>
        <time>2015-03-19T09:46:56Z</time>
      </trkpt>
      <trkpt lat="38.8315390" lon="-9.1148410">
        <ele>8.9</ele>
        <time>2015-03-19T09:47:12Z</time>
      </trkpt>
      <trkpt lat="38.8320340" lon="-9.1147260">
        <ele>9.4</ele>
        <time>2015-03-19T09:47:27Z</time>
      </trkpt>
      <trkpt lat="38.8324750" lon="-9.1146760">
        <ele>10.5</ele>
        <time>2015-03-19T09:47:41Z</time>
      </trkpt>
      <trkpt lat="38.8330090" lon="-9.1146070">
        <ele>10.5</ele>
        <time>2015-03-19T09:47:56Z</time>
      </trkpt>
      <trkpt lat="38.8330810" lon="-9.1145900">
        <ele>10.5</ele>
        <time>2015-03-19T09:47:58Z</time>
      </trkpt>
      <trkpt lat="38.8331720" lon="-9.1145710">
        <ele>10.5</ele>
        <time>2015-03-19T09:48:01Z</time>
      </trkpt>
      <trkpt lat="38.8336230" lon="-9.1144720">
        <ele>10.4</ele>
        <time>2015-03-19T09:48:16Z</time>
      </trkpt>
      <trkpt lat="38.8340810" lon="-9.1144940">
        <ele>8.7</ele>
        <time>2015-03-19T09:48:31Z</time>
      </trkpt>
      <trkpt lat="38.8341740" lon="-9.1144310">
        <ele>8.4</ele>
        <time>2015-03-19T09:48:40Z</time>
      </trkpt>
      <trkpt lat="38.8345040" lon="-9.1144460">
        <ele>8.3</ele>
        <time>2015-03-19T09:49:00Z</time>
      </trkpt>
      <trkpt lat="38.8346740" lon="-9.1144290">
        <ele>8.3</ele>
        <time>2015-03-19T09:49:07Z</time>
      </trkpt>
      <trkpt lat="38.8350530" lon="-9.1146020">
        <ele>8.3</ele>
        <time>2015-03-19T09:49:23Z</time>
      </trkpt>
      <trkpt lat="38.8351630" lon="-9.1147630">
        <ele>8.3</ele>
        <time>2015-03-19T09:49:30Z</time>
      </trkpt>
      <trkpt lat="38.8353540" lon="-9.1148300">
        <ele>8.3</ele>
        <time>2015-03-19T09:49:41Z</time>
      </trkpt>
      <trkpt lat="38.8354750" lon="-9.1148600">
        <ele>8.3</ele>
        <time>2015-03-19T09:49:47Z</time>
      </trkpt>
      <trkpt lat="38.8357010" lon="-9.1148310">
        <ele>8.3</ele>
        <time>2015-03-19T09:49:56Z</time>
      </trkpt>
      <trkpt lat="38.8359530" lon="-9.1147550">
        <ele>8.3</ele>
        <time>2015-03-19T09:50:10Z</time>
      </trkpt>
      <trkpt lat="38.8360570" lon="-9.1146960">
        <ele>8.3</ele>
        <time>2015-03-19T09:50:22Z</time>
      </trkpt>
      <trkpt lat="38.8362350" lon="-9.1146690">
        <ele>8.3</ele>
        <time>2015-03-19T09:50:37Z</time>
      </trkpt>
      <trkpt lat="38.8362910" lon="-9.1146840">
        <ele>8.3</ele>
        <time>2015-03-19T09:50:46Z</time>
      </trkpt>
      <trkpt lat="38.8363960" lon="-9.1146840">
        <ele>8.3</ele>
        <time>2015-03-19T09:50:53Z</time>
      </trkpt>
      <trkpt lat="38.8367560" lon="-9.1146840">
        <ele>8.3</ele>
        <time>2015-03-19T09:51:09Z</time>
      </trkpt>
      <trkpt lat="38.8368410" lon="-9.1146740">
        <ele>8.3</ele>
        <time>2015-03-19T09:51:13Z</time>
      </trkpt>
      <trkpt lat="38.8369360" lon="-9.1146330">
        <ele>8.3</ele>
        <time>2015-03-19T09:51:19Z</time>
      </trkpt>
      <trkpt lat="38.8373000" lon="-9.1144270">
        <ele>9.4</ele>
        <time>2015-03-19T09:51:36Z</time>
      </trkpt>
      <trkpt lat="38.8373550" lon="-9.1143590">
        <ele>9.6</ele>
        <time>2015-03-19T09:51:39Z</time>
      </trkpt>
      <trkpt lat="38.8375450" lon="-9.1141310">
        <ele>9.8</ele>
        <time>2015-03-19T09:51:50Z</time>
      </trkpt>
      <trkpt lat="38.8378210" lon="-9.1138460">
        <ele>9.8</ele>
        <time>2015-03-19T09:52:04Z</time>
      </trkpt>
      <trkpt lat="38.8381520" lon="-9.1136850">
        <ele>9.5</ele>
        <time>2015-03-19T09:52:16Z</time>
      </trkpt>
      <trkpt lat="38.8385420" lon="-9.1136670">
        <ele>8.2</ele>
        <time>2015-03-19T09:52:28Z</time>
      </trkpt>
      <trkpt lat="38.8388080" lon="-9.1136840">
        <ele>7.5</ele>
        <time>2015-03-19T09:52:40Z</time>
      </trkpt>
      <trkpt lat="38.8390520" lon="-9.1137000">
        <ele>6.6</ele>
        <time>2015-03-19T09:52:51Z</time>
      </trkpt>
      <trkpt lat="38.8393950" lon="-9.1136550">
        <ele>7.2</ele>
        <time>2015-03-19T09:53:06Z</time>
      </trkpt>
      <trkpt lat="38.8396460" lon="-9.1135540">
        <ele>7.4</ele>
        <time>2015-03-19T09:53:18Z</time>
      </trkpt>
      <trkpt lat="38.8399210" lon="-9.1135050">
        <ele>7.7</ele>
        <time>2015-03-19T09:53:31Z</time>
      </trkpt>
      <trkpt lat="38.8402350" lon="-9.1134740">
        <ele>8.6</ele>
        <time>2015-03-19T09:53:46Z</time>
      </trkpt>
      <trkpt lat="38.8405860" lon="-9.1134230">
        <ele>9.1</ele>
        <time>2015-03-19T09:54:01Z</time>
      </trkpt>
      <trkpt lat="38.8408950" lon="-9.1133570">
        <ele>9.1</ele>
        <time>2015-03-19T09:54:10Z</time>
      </trkpt>
      <trkpt lat="38.8412650" lon="-9.1132030">
        <ele>9.2</ele>
        <time>2015-03-19T09:54:23Z</time>
      </trkpt>
      <trkpt lat="38.8416690" lon="-9.1130680">
        <ele>9.2</ele>
        <time>2015-03-19T09:54:40Z</time>
      </trkpt>
      <trkpt lat="38.8420290" lon="-9.1130400">
        <ele>9.8</ele>
        <time>2015-03-19T09:54:55Z</time>
      </trkpt>
      <trkpt lat="38.8424010" lon="-9.1132280">
        <ele>9.2</ele>
        <time>2015-03-19T09:55:10Z</time>
      </trkpt>
      <trkpt lat="38.8427640" lon="-9.1135180">
        <ele>8.1</ele>
        <time>2015-03-19T09:55:27Z</time>
      </trkpt>
      <trkpt lat="38.8429530" lon="-9.1136830">
        <ele>7.3</ele>
        <time>2015-03-19T09:55:37Z</time>
      </trkpt>
      <trkpt lat="38.8430150" lon="-9.1137590">
        <ele>7.1</ele>
        <time>2015-03-19T09:55:42Z</time>
      </trkpt>
      <trkpt lat="38.8432500" lon="-9.1139470">
        <ele>6.8</ele>
        <time>2015-03-19T09:55:54Z</time>
      </trkpt>
      <trkpt lat="38.8435170" lon="-9.1141600">
        <ele>6.3</ele>
        <time>2015-03-19T09:56:07Z</time>
      </trkpt>
      <trkpt lat="38.8438370" lon="-9.1143650">
        <ele>5.7</ele>
        <time>2015-03-19T09:56:21Z</time>
      </trkpt>
      <trkpt lat="38.8440670" lon="-9.1143140">
        <ele>5.6</ele>
        <time>2015-03-19T09:56:31Z</time>
      </trkpt>
      <trkpt lat="38.8442720" lon="-9.1141520">
        <ele>5.5</ele>
        <time>2015-03-19T09:56:41Z</time>
      </trkpt>
      <trkpt lat="38.8445230" lon="-9.1139800">
        <ele>5.5</ele>
        <time>2015-03-19T09:56:52Z</time>
      </trkpt>
      <trkpt lat="38.8449580" lon="-9.1137410">
        <ele>5.3</ele>
        <time>2015-03-19T09:57:07Z</time>
      </trkpt>
      <trkpt lat="38.8453710" lon="-9.1134860">
        <ele>5.4</ele>
        <time>2015-03-19T09:57:21Z</time>
      </trkpt>
      <trkpt lat="38.8457670" lon="-9.1131970">
        <ele>6.0</ele>
        <time>2015-03-19T09:57:35Z</time>
      </trkpt>
      <trkpt lat="38.8459870" lon="-9.1127950">
        <ele>6.7</ele>
        <time>2015-03-19T09:57:48Z</time>
      </trkpt>
      <trkpt lat="38.8462290" lon="-9.1123940">
        <ele>7.4</ele>
        <time>2015-03-19T09:58:00Z</time>
      </trkpt>
      <trkpt lat="38.8467220" lon="-9.1119300">
        <ele>7.3</ele>
        <time>2015-03-19T09:58:18Z</time>
      </trkpt>
      <trkpt lat="38.8470310" lon="-9.1116900">
        <ele>7.5</ele>
        <time>2015-03-19T09:58:29Z</time>
      </trkpt>
      <trkpt lat="38.8474590" lon="-9.1115060">
        <ele>7.9</ele>
        <time>2015-03-19T09:58:43Z</time>
      </trkpt>
      <trkpt lat="38.8479200" lon="-9.1113190">
        <ele>8.0</ele>
        <time>2015-03-19T09:58:59Z</time>
      </trkpt>
      <trkpt lat="38.8480880" lon="-9.1112720">
        <ele>8.0</ele>
        <time>2015-03-19T09:59:13Z</time>
      </trkpt>
      <trkpt lat="38.8486660" lon="-9.1110310">
        <ele>8.0</ele>
        <time>2015-03-19T09:59:32Z</time>
      </trkpt>
      <trkpt lat="38.8491020" lon="-9.1108840">
        <ele>8.1</ele>
        <time>2015-03-19T09:59:45Z</time>
      </trkpt>
      <trkpt lat="38.8496910" lon="-9.1108870">
        <ele>8.5</ele>
        <time>2015-03-19T10:00:02Z</time>
      </trkpt>
      <trkpt lat="38.8501340" lon="-9.1109290">
        <ele>8.5</ele>
        <time>2015-03-19T10:00:15Z</time>
      </trkpt>
      <trkpt lat="38.8504420" lon="-9.1109120">
        <ele>8.4</ele>
        <time>2015-03-19T10:00:24Z</time>
      </trkpt>
      <trkpt lat="38.8509120" lon="-9.1107260">
        <ele>8.6</ele>
        <time>2015-03-19T10:00:38Z</time>
      </trkpt>
      <trkpt lat="38.8513520" lon="-9.1103780">
        <ele>8.7</ele>
        <time>2015-03-19T10:00:53Z</time>
      </trkpt>
      <trkpt lat="38.8516930" lon="-9.1100680">
        <ele>8.2</ele>
        <time>2015-03-19T10:01:06Z</time>
      </trkpt>
      <trkpt lat="38.8520200" lon="-9.1093900">
        <ele>7.9</ele>
        <time>2015-03-19T10:01:24Z</time>
      </trkpt>
      <trkpt lat="38.8523620" lon="-9.1089380">
        <ele>8.1</ele>
        <time>2015-03-19T10:01:39Z</time>
      </trkpt>
      <trkpt lat="38.8528350" lon="-9.1086140">
        <ele>8.2</ele>
        <time>2015-03-19T10:01:55Z</time>
      </trkpt>
      <trkpt lat="38.8533710" lon="-9.1084350">
        <ele>8.4</ele>
        <time>2015-03-19T10:02:11Z</time>
      </trkpt>
      <trkpt lat="38.8537660" lon="-9.1081100">
        <ele>8.7</ele>
        <time>2015-03-19T10:02:25Z</time>
      </trkpt>
      <trkpt lat="38.8541910" lon="-9.1077460">
        <ele>9.0</ele>
        <time>2015-03-19T10:02:40Z</time>
      </trkpt>
      <trkpt lat="38.8546800" lon="-9.1075590">
        <ele>9.1</ele>
        <time>2015-03-19T10:02:55Z</time>
      </trkpt>
      <trkpt lat="38.8552680" lon="-9.1074110">
        <ele>9.8</ele>
        <time>2015-03-19T10:03:13Z</time>
      </trkpt>
      <trkpt lat="38.8556820" lon="-9.1073150">
        <ele>10.3</ele>
        <time>2015-03-19T10:03:26Z</time>
      </trkpt>
      <trkpt lat="38.8559950" lon="-9.1069430">
        <ele>10.6</ele>
        <time>2015-03-19T10:03:39Z</time>
      </trkpt>
      <trkpt lat="38.8561680" lon="-9.1062660">
        <ele>10.6</ele>
        <time>2015-03-19T10:03:55Z</time>
      </trkpt>
      <trkpt lat="38.8564300" lon="-9.1054690">
        <ele>11.5</ele>
        <time>2015-03-19T10:04:15Z</time>
      </trkpt>
      <trkpt lat="38.8566950" lon="-9.1047220">
        <ele>12.0</ele>
        <time>2015-03-19T10:04:34Z</time>
      </trkpt>
      <trkpt lat="38.8568850" lon="-9.1041930">
        <ele>12.4</ele>
        <time>2015-03-19T10:04:47Z</time>
      </trkpt>
      <trkpt lat="38.8571490" lon="-9.1033870">
        <ele>12.5</ele>
        <time>2015-03-19T10:05:06Z</time>
      </trkpt>
      <trkpt lat="38.8571670" lon="-9.1026090">
        <ele>13.7</ele>
        <time>2015-03-19T10:05:24Z</time>
      </trkpt>
      <trkpt lat="38.8572170" lon="-9.1018730">
        <ele>14.4</ele>
        <time>2015-03-19T10:05:42Z</time>
      </trkpt>
      <trkpt lat="38.8573990" lon="-9.1010980">
        <ele>15.3</ele>
        <time>2015-03-19T10:06:01Z</time>
      </trkpt>
      <trkpt lat="38.8575420" lon="-9.1004140">
        <ele>17.2</ele>
        <time>2015-03-19T10:06:18Z</time>
      </trkpt>
      <trkpt lat="38.8576330" lon="-9.0998760">
        <ele>18.8</ele>
        <time>2015-03-19T10:06:33Z</time>
      </trkpt>
      <trkpt lat="38.8575960" lon="-9.0997100">
        <ele>19.3</ele>
        <time>2015-03-19T10:06:40Z</time>
      </trkpt>
      <trkpt lat="38.8577160" lon="-9.0993000">
        <ele>19.3</ele>
        <time>2015-03-19T10:06:53Z</time>
      </trkpt>
      <trkpt lat="38.8578710" lon="-9.0991510">
        <ele>18.7</ele>
        <time>2015-03-19T10:06:58Z</time>
      </trkpt>
      <trkpt lat="38.8582800" lon="-9.0986090">
        <ele>18.9</ele>
        <time>2015-03-19T10:07:10Z</time>
      </trkpt>
      <trkpt lat="38.8583950" lon="-9.0984910">
        <ele>19.0</ele>
        <time>2015-03-19T10:07:13Z</time>
      </trkpt>
      <trkpt lat="38.8587310" lon="-9.0979430">
        <ele>19.5</ele>
        <time>2015-03-19T10:07:28Z</time>
      </trkpt>
      <trkpt lat="38.8591280" lon="-9.0972920">
        <ele>21.1</ele>
        <time>2015-03-19T10:07:47Z</time>
      </trkpt>
      <trkpt lat="38.8593630" lon="-9.0965630">
        <ele>23.0</ele>
        <time>2015-03-19T10:08:06Z</time>
      </trkpt>
      <trkpt lat="38.8594910" lon="-9.0959790">
        <ele>24.6</ele>
        <time>2015-03-19T10:08:21Z</time>
      </trkpt>
      <trkpt lat="38.8597880" lon="-9.0954450">
        <ele>26.3</ele>
        <time>2015-03-19T10:08:37Z</time>
      </trkpt>
      <trkpt lat="38.8603330" lon="-9.0948500">
        <ele>27.3</ele>
        <time>2015-03-19T10:08:57Z</time>
      </trkpt>
      <trkpt lat="38.8607860" lon="-9.0943680">
        <ele>27.5</ele>
        <time>2015-03-19T10:09:14Z</time>
      </trkpt>
      <trkpt lat="38.8611900" lon="-9.0939400">
        <ele>29.0</ele>
        <time>2015-03-19T10:09:31Z</time>
      </trkpt>
      <trkpt lat="38.8615820" lon="-9.0935120">
        <ele>30.6</ele>
        <time>2015-03-19T10:09:47Z</time>
      </trkpt>
      <trkpt lat="38.8619780" lon="-9.0931170">
        <ele>32.4</ele>
        <time>2015-03-19T10:10:02Z</time>
      </trkpt>
      <trkpt lat="38.8624450" lon="-9.0926520">
        <ele>34.3</ele>
        <time>2015-03-19T10:10:19Z</time>
      </trkpt>
      <trkpt lat="38.8628710" lon="-9.0924120">
        <ele>34.7</ele>
        <time>2015-03-19T10:10:34Z</time>
      </trkpt>
      <trkpt lat="38.8629130" lon="-9.0922890">
        <ele>34.8</ele>
        <time>2015-03-19T10:21:56Z</time>
      </trkpt>
      <trkpt lat="38.8630890" lon="-9.0922950">
        <ele>34.5</ele>
        <time>2015-03-19T10:22:04Z</time>
      </trkpt>
      <trkpt lat="38.8631750" lon="-9.0923420">
        <ele>34.4</ele>
        <time>2015-03-19T10:22:08Z</time>
      </trkpt>
      <trkpt lat="38.8632570" lon="-9.0923240">
        <ele>34.3</ele>
        <time>2015-03-19T10:22:12Z</time>
      </trkpt>
      <trkpt lat="38.8634550" lon="-9.0918320">
        <ele>35.3</ele>
        <time>2015-03-19T10:22:30Z</time>
      </trkpt>
      <trkpt lat="38.8635620" lon="-9.0914040">
        <ele>36.5</ele>
        <time>2015-03-19T10:22:44Z</time>
      </trkpt>
      <trkpt lat="38.8637420" lon="-9.0910020">
        <ele>37.9</ele>
        <time>2015-03-19T10:22:59Z</time>
      </trkpt>
      <trkpt lat="38.8639520" lon="-9.0906150">
        <ele>38.7</ele>
        <time>2015-03-19T10:23:16Z</time>
      </trkpt>
      <trkpt lat="38.8641690" lon="-9.0902140">
        <ele>39.6</ele>
        <time>2015-03-19T10:23:33Z</time>
      </trkpt>
      <trkpt lat="38.8643790" lon="-9.0898560">
        <ele>41.1</ele>
        <time>2015-03-19T10:23:48Z</time>
      </trkpt>
      <trkpt lat="38.8646520" lon="-9.0894410">
        <ele>41.5</ele>
        <time>2015-03-19T10:24:05Z</time>
      </trkpt>
      <trkpt lat="38.8650160" lon="-9.0891220">
        <ele>41.9</ele>
        <time>2015-03-19T10:24:21Z</time>
      </trkpt>
      <trkpt lat="38.8653800" lon="-9.0888630">
        <ele>42.6</ele>
        <time>2015-03-19T10:24:37Z</time>
      </trkpt>
      <trkpt lat="38.8657880" lon="-9.0885280">
        <ele>45.5</ele>
        <time>2015-03-19T10:24:54Z</time>
      </trkpt>
      <trkpt lat="38.8660880" lon="-9.0881300">
        <ele>45.5</ele>
        <time>2015-03-19T10:25:09Z</time>
      </trkpt>
      <trkpt lat="38.8665170" lon="-9.0878010">
        <ele>46.1</ele>
        <time>2015-03-19T10:25:26Z</time>
      </trkpt>
      <trkpt lat="38.8669390" lon="-9.0875820">
        <ele>46.5</ele>
        <time>2015-03-19T10:25:42Z</time>
      </trkpt>
      <trkpt lat="38.8673620" lon="-9.0873760">
        <ele>47.3</ele>
        <time>2015-03-19T10:25:58Z</time>
      </trkpt>
      <trkpt lat="38.8678180" lon="-9.0870880">
        <ele>48.2</ele>
        <time>2015-03-19T10:26:15Z</time>
      </trkpt>
      <trkpt lat="38.8683110" lon="-9.0868610">
        <ele>49.0</ele>
        <time>2015-03-19T10:26:32Z</time>
      </trkpt>
      <trkpt lat="38.8685030" lon="-9.0864830">
        <ele>49.3</ele>
        <time>2015-03-19T10:27:50Z</time>
      </trkpt>
      <trkpt lat="38.8685170" lon="-9.0863820">
        <ele>49.2</ele>
        <time>2015-03-19T10:27:53Z</time>
      </trkpt>
      <trkpt lat="38.8685660" lon="-9.0858500">
        <ele>49.2</ele>
        <time>2015-03-19T10:28:10Z</time>
      </trkpt>
      <trkpt lat="38.8686290" lon="-9.0852980">
        <ele>49.4</ele>
        <time>2015-03-19T10:28:28Z</time>
      </trkpt>
      <trkpt lat="38.8686560" lon="-9.0851400">
        <ele>49.4</ele>
        <time>2015-03-19T10:29:12Z</time>
      </trkpt>
      <trkpt lat="38.8686780" lon="-9.0850620">
        <ele>49.3</ele>
        <time>2015-03-19T10:29:21Z</time>
      </trkpt>
      <trkpt lat="38.8687610" lon="-9.0847440">
        <ele>48.8</ele>
        <time>2015-03-19T10:29:33Z</time>
      </trkpt>
      <trkpt lat="38.8687260" lon="-9.0846360">
        <ele>48.8</ele>
        <time>2015-03-19T10:29:37Z</time>
      </trkpt>
      <trkpt lat="38.8687780" lon="-9.0842500">
        <ele>48.6</ele>
        <time>2015-03-19T10:29:51Z</time>
      </trkpt>
      <trkpt lat="38.8687910" lon="-9.0839520">
        <ele>48.8</ele>
        <time>2015-03-19T10:30:02Z</time>
      </trkpt>
      <trkpt lat="38.8688040" lon="-9.0835450">
        <ele>48.4</ele>
        <time>2015-03-19T10:30:16Z</time>
      </trkpt>
      <trkpt lat="38.8687640" lon="-9.0832170">
        <ele>47.7</ele>
        <time>2015-03-19T10:30:28Z</time>
      </trkpt>
      <trkpt lat="38.8685350" lon="-9.0830440">
        <ele>48.0</ele>
        <time>2015-03-19T10:30:41Z</time>
      </trkpt>
      <trkpt lat="38.8683930" lon="-9.0827790">
        <ele>47.8</ele>
        <time>2015-03-19T10:30:53Z</time>
      </trkpt>
      <trkpt lat="38.8684510" lon="-9.0825080">
        <ele>47.6</ele>
        <time>2015-03-19T10:31:05Z</time>
      </trkpt>
      <trkpt lat="38.8684230" lon="-9.0824020">
        <ele>47.4</ele>
        <time>2015-03-19T10:31:10Z</time>
      </trkpt>
      <trkpt lat="38.8684090" lon="-9.0822360">
        <ele>47.1</ele>
        <time>2015-03-19T10:31:16Z</time>
      </trkpt>
      <trkpt lat="38.8684910" lon="-9.0818360">
        <ele>46.7</ele>
        <time>2015-03-19T10:31:32Z</time>
      </trkpt>
      <trkpt lat="38.8684900" lon="-9.0817190">
        <ele>46.6</ele>
        <time>2015-03-19T10:31:43Z</time>
      </trkpt>
      <trkpt lat="38.8684810" lon="-9.0815670">
        <ele>46.4</ele>
        <time>2015-03-19T10:32:08Z</time>
      </trkpt>
      <trkpt lat="38.8684830" lon="-9.0814980">
        <ele>46.3</ele>
        <time>2015-03-19T10:32:11Z</time>
      </trkpt>
      <trkpt lat="38.8684440" lon="-9.0814110">
        <ele>46.2</ele>
        <time>2015-03-19T10:32:16Z</time>
      </trkpt>
      <trkpt lat="38.8684550" lon="-9.0810090">
        <ele>45.4</ele>
        <time>2015-03-19T10:32:31Z</time>
      </trkpt>
      <trkpt lat="38.8684690" lon="-9.0805420">
        <ele>45.0</ele>
        <time>2015-03-19T10:32:48Z</time>
      </trkpt>
      <trkpt lat="38.8685960" lon="-9.0801450">
        <ele>44.7</ele>
        <time>2015-03-19T10:33:04Z</time>
      </trkpt>
      <trkpt lat="38.8686900" lon="-9.0797730">
        <ele>44.1</ele>
        <time>2015-03-19T10:33:19Z</time>
      </trkpt>
      <trkpt lat="38.8687050" lon="-9.0793480">
        <ele>43.5</ele>
        <time>2015-03-19T10:33:34Z</time>
      </trkpt>
      <trkpt lat="38.8688280" lon="-9.0788790">
        <ele>43.0</ele>
        <time>2015-03-19T10:33:51Z</time>
      </trkpt>
      <trkpt lat="38.8689360" lon="-9.0784350">
        <ele>42.4</ele>
        <time>2015-03-19T10:34:08Z</time>
      </trkpt>
      <trkpt lat="38.8690370" lon="-9.0780050">
        <ele>42.0</ele>
        <time>2015-03-19T10:34:25Z</time>
      </trkpt>
      <trkpt lat="38.8691410" lon="-9.0776020">
        <ele>41.8</ele>
        <time>2015-03-19T10:34:39Z</time>
      </trkpt>
      <trkpt lat="38.8690930" lon="-9.0771520">
        <ele>42.7</ele>
        <time>2015-03-19T10:34:54Z</time>
      </trkpt>
      <trkpt lat="38.8687320" lon="-9.0770090">
        <ele>43.8</ele>
        <time>2015-03-19T10:35:10Z</time>
      </trkpt>
      <trkpt lat="38.8684310" lon="-9.0769350">
        <ele>45.0</ele>
        <time>2015-03-19T10:35:23Z</time>
      </trkpt>
      <trkpt lat="38.8680260" lon="-9.0768300">
        <ele>47.2</ele>
        <time>2015-03-19T10:35:41Z</time>
      </trkpt>
      <trkpt lat="38.8676620" lon="-9.0766430">
        <ele>50.8</ele>
        <time>2015-03-19T10:36:00Z</time>
      </trkpt>
      <trkpt lat="38.8677570" lon="-9.0763160">
        <ele>51.3</ele>
        <time>2015-03-19T10:36:13Z</time>
      </trkpt>
      <trkpt lat="38.8678590" lon="-9.0761050">
        <ele>51.2</ele>
        <time>2015-03-19T10:36:22Z</time>
      </trkpt>
      <trkpt lat="38.8679310" lon="-9.0757410">
        <ele>51.0</ele>
        <time>2015-03-19T10:36:36Z</time>
      </trkpt>
      <trkpt lat="38.8681450" lon="-9.0753190">
        <ele>50.4</ele>
        <time>2015-03-19T10:36:52Z</time>
      </trkpt>
      <trkpt lat="38.8683780" lon="-9.0749160">
        <ele>49.9</ele>
        <time>2015-03-19T10:37:08Z</time>
      </trkpt>
      <trkpt lat="38.8686350" lon="-9.0743880">
        <ele>48.1</ele>
        <time>2015-03-19T10:37:24Z</time>
      </trkpt>
      <trkpt lat="38.8689170" lon="-9.0738320">
        <ele>45.9</ele>
        <time>2015-03-19T10:37:41Z</time>
      </trkpt>
      <trkpt lat="38.8691930" lon="-9.0733250">
        <ele>44.4</ele>
        <time>2015-03-19T10:37:58Z</time>
      </trkpt>
      <trkpt lat="38.8692540" lon="-9.0732250">
        <ele>44.2</ele>
        <time>2015-03-19T10:38:39Z</time>
      </trkpt>
      <trkpt lat="38.8695100" lon="-9.0726890">
        <ele>44.1</ele>
        <time>2015-03-19T10:38:56Z</time>
      </trkpt>
      <trkpt lat="38.8697520" lon="-9.0722530">
        <ele>42.8</ele>
        <time>2015-03-19T10:39:05Z</time>
      </trkpt>
      <trkpt lat="38.8697820" lon="-9.0721970">
        <ele>42.4</ele>
        <time>2015-03-19T10:39:06Z</time>
      </trkpt>
      <trkpt lat="38.8698710" lon="-9.0720090">
        <ele>40.8</ele>
        <time>2015-03-19T10:39:09Z</time>
      </trkpt>
      <trkpt lat="38.8699170" lon="-9.0718890">
        <ele>39.7</ele>
        <time>2015-03-19T10:39:11Z</time>
      </trkpt>
      <trkpt lat="38.8699950" lon="-9.0716970">
        <ele>38.2</ele>
        <time>2015-03-19T10:39:15Z</time>
      </trkpt>
      <trkpt lat="38.8702880" lon="-9.0713270">
        <ele>36.3</ele>
        <time>2015-03-19T10:39:30Z</time>
      </trkpt>
      <trkpt lat="38.8704690" lon="-9.0709700">
        <ele>35.9</ele>
        <time>2015-03-19T10:39:43Z</time>
      </trkpt>
      <trkpt lat="38.8706560" lon="-9.0706880">
        <ele>35.7</ele>
        <time>2015-03-19T10:39:56Z</time>
      </trkpt>
      <trkpt lat="38.8709070" lon="-9.0703050">
        <ele>35.7</ele>
        <time>2015-03-19T10:40:13Z</time>
      </trkpt>
      <trkpt lat="38.8711720" lon="-9.0699710">
        <ele>35.8</ele>
        <time>2015-03-19T10:40:29Z</time>
      </trkpt>
      <trkpt lat="38.8713520" lon="-9.0697520">
        <ele>35.4</ele>
        <time>2015-03-19T10:40:38Z</time>
      </trkpt>
      <trkpt lat="38.8715300" lon="-9.0695330">
        <ele>35.2</ele>
        <time>2015-03-19T10:40:48Z</time>
      </trkpt>
      <trkpt lat="38.8716730" lon="-9.0693970">
        <ele>35.0</ele>
        <time>2015-03-19T10:40:57Z</time>
      </trkpt>
      <trkpt lat="38.8716650" lon="-9.0692120">
        <ele>34.3</ele>
        <time>2015-03-19T10:41:06Z</time>
      </trkpt>
      <trkpt lat="38.8714360" lon="-9.0687420">
        <ele>31.9</ele>
        <time>2015-03-19T10:41:18Z</time>
      </trkpt>
      <trkpt lat="38.8707580" lon="-9.0680630">
        <ele>27.5</ele>
        <time>2015-03-19T10:41:34Z</time>
      </trkpt>
      <trkpt lat="38.8703620" lon="-9.0673760">
        <ele>25.3</ele>
        <time>2015-03-19T10:41:43Z</time>
      </trkpt>
      <trkpt lat="38.8701030" lon="-9.0662540">
        <ele>27.7</ele>
        <time>2015-03-19T10:41:56Z</time>
      </trkpt>
      <trkpt lat="38.8698890" lon="-9.0651660">
        <ele>28.6</ele>
        <time>2015-03-19T10:42:11Z</time>
      </trkpt>
      <trkpt lat="38.8696850" lon="-9.0642290">
        <ele>29.4</ele>
        <time>2015-03-19T10:42:26Z</time>
      </trkpt>
      <trkpt lat="38.8695950" lon="-9.0638200">
        <ele>29.3</ele>
        <time>2015-03-19T10:42:33Z</time>
      </trkpt>
      <trkpt lat="38.8691720" lon="-9.0628440">
        <ele>28.3</ele>
        <time>2015-03-19T10:42:51Z</time>
      </trkpt>
      <trkpt lat="38.8686750" lon="-9.0621120">
        <ele>26.0</ele>
        <time>2015-03-19T10:43:07Z</time>
      </trkpt>
      <trkpt lat="38.8685290" lon="-9.0618850">
        <ele>25.0</ele>
        <time>2015-03-19T10:43:12Z</time>
      </trkpt>
      <trkpt lat="38.8682370" lon="-9.0614670">
        <ele>23.4</ele>
        <time>2015-03-19T10:43:22Z</time>
      </trkpt>
      <trkpt lat="38.8681590" lon="-9.0611830">
        <ele>23.0</ele>
        <time>2015-03-19T10:43:27Z</time>
      </trkpt>
      <trkpt lat="38.8680110" lon="-9.0609330">
        <ele>22.8</ele>
        <time>2015-03-19T10:43:32Z</time>
      </trkpt>
      <trkpt lat="38.8672760" lon="-9.0601560">
        <ele>20.1</ele>
        <time>2015-03-19T10:43:50Z</time>
      </trkpt>
      <trkpt lat="38.8670450" lon="-9.0599550">
        <ele>19.4</ele>
        <time>2015-03-19T10:43:55Z</time>
      </trkpt>
      <trkpt lat="38.8668390" lon="-9.0598840">
        <ele>19.5</ele>
        <time>2015-03-19T10:43:59Z</time>
      </trkpt>
      <trkpt lat="38.8665710" lon="-9.0599740">
        <ele>19.5</ele>
        <time>2015-03-19T10:44:08Z</time>
      </trkpt>
      <trkpt lat="38.8664430" lon="-9.0600400">
        <ele>19.1</ele>
        <time>2015-03-19T10:44:12Z</time>
      </trkpt>
      <trkpt lat="38.8662700" lon="-9.0600240">
        <ele>18.6</ele>
        <time>2015-03-19T10:44:16Z</time>
      </trkpt>
      <trkpt lat="38.8661000" lon="-9.0600770">
        <ele>17.9</ele>
        <time>2015-03-19T10:44:20Z</time>
      </trkpt>
      <trkpt lat="38.8657730" lon="-9.0603240">
        <ele>16.4</ele>
        <time>2015-03-19T10:44:29Z</time>
      </trkpt>
      <trkpt lat="38.8656020" lon="-9.0603880">
        <ele>15.8</ele>
        <time>2015-03-19T10:44:33Z</time>
      </trkpt>
      <trkpt lat="38.8654640" lon="-9.0604270">
        <ele>15.3</ele>
        <time>2015-03-19T10:44:36Z</time>
      </trkpt>
      <trkpt lat="38.8652870" lon="-9.0604620">
        <ele>15.0</ele>
        <time>2015-03-19T10:44:40Z</time>
      </trkpt>
      <trkpt lat="38.8650980" lon="-9.0604740">
        <ele>14.4</ele>
        <time>2015-03-19T10:44:44Z</time>
      </trkpt>
      <trkpt lat="38.8646910" lon="-9.0605860">
        <ele>13.1</ele>
        <time>2015-03-19T10:44:58Z</time>
      </trkpt>
      <trkpt lat="38.8646000" lon="-9.0606200">
        <ele>13.1</ele>
        <time>2015-03-19T10:45:08Z</time>
      </trkpt>
      <trkpt lat="38.8644330" lon="-9.0604470">
        <ele>11.3</ele>
        <time>2015-03-19T10:45:16Z</time>
      </trkpt>
      <trkpt lat="38.8643690" lon="-9.0602690">
        <ele>10.1</ele>
        <time>2015-03-19T10:45:22Z</time>
      </trkpt>
      <trkpt lat="38.8640890" lon="-9.0597070">
        <ele>9.1</ele>
        <time>2015-03-19T10:45:41Z</time>
      </trkpt>
      <trkpt lat="38.8639660" lon="-9.0594770">
        <ele>7.5</ele>
        <time>2015-03-19T10:45:47Z</time>
      </trkpt>
      <trkpt lat="38.8637920" lon="-9.0591160">
        <ele>4.6</ele>
        <time>2015-03-19T10:45:53Z</time>
      </trkpt>
      <trkpt lat="38.8637550" lon="-9.0590380">
        <ele>3.8</ele>
        <time>2015-03-19T10:45:54Z</time>
      </trkpt>
      <trkpt lat="38.8635010" lon="-9.0587740">
        <ele>2.6</ele>
        <time>2015-03-19T10:45:58Z</time>
      </trkpt>
      <trkpt lat="38.8631010" lon="-9.0585340">
        <ele>1.9</ele>
        <time>2015-03-19T10:46:03Z</time>
      </trkpt>
      <trkpt lat="38.8628480" lon="-9.0582860">
        <ele>1.3</ele>
        <time>2015-03-19T10:46:10Z</time>
      </trkpt>
      <trkpt lat="38.8625870" lon="-9.0580290">
        <ele>1.7</ele>
        <time>2015-03-19T10:46:20Z</time>
      </trkpt>
      <trkpt lat="38.8623430" lon="-9.0575860">
        <ele>2.6</ele>
        <time>2015-03-19T10:46:32Z</time>
      </trkpt>
      <trkpt lat="38.8621340" lon="-9.0572470">
        <ele>3.1</ele>
        <time>2015-03-19T10:46:42Z</time>
      </trkpt>
      <trkpt lat="38.8619210" lon="-9.0571450">
        <ele>3.1</ele>
        <time>2015-03-19T10:46:49Z</time>
      </trkpt>
      <trkpt lat="38.8618160" lon="-9.0570330">
        <ele>3.1</ele>
        <time>2015-03-19T10:46:53Z</time>
      </trkpt>
      <trkpt lat="38.8615940" lon="-9.0568320">
        <ele>3.1</ele>
        <time>2015-03-19T10:47:01Z</time>
      </trkpt>
      <trkpt lat="38.8617070" lon="-9.0565130">
        <ele>3.1</ele>
        <time>2015-03-19T10:47:11Z</time>
      </trkpt>
      <trkpt lat="38.8616810" lon="-9.0564580">
        <ele>3.1</ele>
        <time>2015-03-19T10:47:13Z</time>
      </trkpt>
      <trkpt lat="38.8615550" lon="-9.0562930">
        <ele>2.8</ele>
        <time>2015-03-19T10:47:25Z</time>
      </trkpt>
      <trkpt lat="38.8616520" lon="-9.0561720">
        <ele>3.0</ele>
        <time>2015-03-19T10:47:56Z</time>
      </trkpt>
      <trkpt lat="38.8620390" lon="-9.0557400">
        <ele>3.3</ele>
        <time>2015-03-19T10:48:10Z</time>
      </trkpt>
      <trkpt lat="38.8625640" lon="-9.0551640">
        <ele>6.3</ele>
        <time>2015-03-19T10:48:29Z</time>
      </trkpt>
      <trkpt lat="38.8630460" lon="-9.0547100">
        <ele>6.3</ele>
        <time>2015-03-19T10:48:46Z</time>
      </trkpt>
      <trkpt lat="38.8632390" lon="-9.0545230">
        <ele>6.3</ele>
        <time>2015-03-19T10:48:56Z</time>
      </trkpt>
      <trkpt lat="38.8637490" lon="-9.0539870">
        <ele>4.3</ele>
        <time>2015-03-19T10:49:13Z</time>
      </trkpt>
      <trkpt lat="38.8642820" lon="-9.0534600">
        <ele>5.6</ele>
        <time>2015-03-19T10:49:30Z</time>
      </trkpt>
      <trkpt lat="38.8645070" lon="-9.0532210">
        <ele>5.8</ele>
        <time>2015-03-19T10:49:39Z</time>
      </trkpt>
      <trkpt lat="38.8644140" lon="-9.0530450">
        <ele>5.5</ele>
        <time>2015-03-19T10:49:45Z</time>
      </trkpt>
      <trkpt lat="38.8637610" lon="-9.0526320">
        <ele>4.1</ele>
        <time>2015-03-19T10:50:02Z</time>
      </trkpt>
      <trkpt lat="38.8630670" lon="-9.0521980">
        <ele>1.9</ele>
        <time>2015-03-19T10:50:20Z</time>
      </trkpt>
      <trkpt lat="38.8625770" lon="-9.0519990">
        <ele>3.0</ele>
        <time>2015-03-19T10:50:35Z</time>
      </trkpt>
      <trkpt lat="38.8625070" lon="-9.0519650">
        <ele>2.7</ele>
        <time>2015-03-19T10:51:07Z</time>
      </trkpt>
      <trkpt lat="38.8624020" lon="-9.0518910">
        <ele>2.6</ele>
        <time>2015-03-19T10:51:12Z</time>
      </trkpt>
      <trkpt lat="38.8621700" lon="-9.0517460">
        <ele>1.8</ele>
        <time>2015-03-19T10:51:21Z</time>
      </trkpt>
      <trkpt lat="38.8621740" lon="-9.0515990">
        <ele>1.7</ele>
        <time>2015-03-19T10:51:25Z</time>
      </trkpt>
      <trkpt lat="38.8622880" lon="-9.0513590">
        <ele>1.2</ele>
        <time>2015-03-19T10:51:31Z</time>
      </trkpt>
      <trkpt lat="38.8623920" lon="-9.0512910">
        <ele>0.9</ele>
        <time>2015-03-19T10:51:35Z</time>
      </trkpt>
      <trkpt lat="38.8626170" lon="-9.0509050">
        <ele>0.5</ele>
        <time>2015-03-19T10:51:46Z</time>
      </trkpt>
      <trkpt lat="38.8629920" lon="-9.0498390">
        <ele>0.6</ele>
        <time>2015-03-19T10:52:09Z</time>
      </trkpt>
      <trkpt lat="38.8634620" lon="-9.0486420">
        <ele>0.8</ele>
        <time>2015-03-19T10:52:35Z</time>
      </trkpt>
      <trkpt lat="38.8636310" lon="-9.0482220">
        <ele>0.7</ele>
        <time>2015-03-19T10:52:48Z</time>
      </trkpt>
      <trkpt lat="38.8639790" lon="-9.0473650">
        <ele>0.8</ele>
        <time>2015-03-19T10:53:08Z</time>
      </trkpt>
      <trkpt lat="38.8644270" lon="-9.0463680">
        <ele>0.6</ele>
        <time>2015-03-19T10:53:31Z</time>
      </trkpt>
      <trkpt lat="38.8648380" lon="-9.0454940">
        <ele>0.6</ele>
        <time>2015-03-19T10:53:51Z</time>
      </trkpt>
      <trkpt lat="38.8653070" lon="-9.0445140">
        <ele>0.6</ele>
        <time>2015-03-19T10:54:13Z</time>
      </trkpt>
      <trkpt lat="38.8655150" lon="-9.0440880">
        <ele>0.4</ele>
        <time>2015-03-19T10:54:27Z</time>
      </trkpt>
      <trkpt lat="38.8655530" lon="-9.0440560">
        <ele>0.4</ele>
        <time>2015-03-19T10:54:30Z</time>
      </trkpt>
      <trkpt lat="38.8656110" lon="-9.0440590">
        <ele>0.3</ele>
        <time>2015-03-19T10:55:10Z</time>
      </trkpt>
      <trkpt lat="38.8656710" lon="-9.0439310">
        <ele>0.3</ele>
        <time>2015-03-19T10:55:17Z</time>
      </trkpt>
      <trkpt lat="38.8657170" lon="-9.0438180">
        <ele>0.3</ele>
        <time>2015-03-19T10:55:21Z</time>
      </trkpt>
      <trkpt lat="38.8658490" lon="-9.0438630">
        <ele>0.3</ele>
        <time>2015-03-19T10:55:27Z</time>
      </trkpt>
      <trkpt lat="38.8664790" lon="-9.0442810">
        <ele>0.3</ele>
        <time>2015-03-19T10:55:45Z</time>
      </trkpt>
      <trkpt lat="38.8672630" lon="-9.0447700">
        <ele>0.2</ele>
        <time>2015-03-19T10:56:07Z</time>
      </trkpt>
      <trkpt lat="38.8679190" lon="-9.0449190">
        <ele>0.2</ele>
        <time>2015-03-19T10:56:24Z</time>
      </trkpt>
      <trkpt lat="38.8685110" lon="-9.0445980">
        <ele>0.2</ele>
        <time>2015-03-19T10:56:41Z</time>
      </trkpt>
      <trkpt lat="38.8690050" lon="-9.0441880">
        <ele>0.2</ele>
        <time>2015-03-19T10:56:56Z</time>
      </trkpt>
      <trkpt lat="38.8696720" lon="-9.0436420">
        <ele>1.5</ele>
        <time>2015-03-19T10:57:16Z</time>
      </trkpt>
      <trkpt lat="38.8704900" lon="-9.0429860">
        <ele>1.9</ele>
        <time>2015-03-19T10:57:40Z</time>
      </trkpt>
      <trkpt lat="38.8708850" lon="-9.0426590">
        <ele>1.8</ele>
        <time>2015-03-19T10:57:52Z</time>
      </trkpt>
      <trkpt lat="38.8710940" lon="-9.0427810">
        <ele>1.5</ele>
        <time>2015-03-19T10:57:59Z</time>
      </trkpt>
      <trkpt lat="38.8711570" lon="-9.0427380">
        <ele>1.6</ele>
        <time>2015-03-19T10:58:01Z</time>
      </trkpt>
      <trkpt lat="38.8717420" lon="-9.0422270">
        <ele>1.5</ele>
        <time>2015-03-19T10:58:19Z</time>
      </trkpt>
      <trkpt lat="38.8723640" lon="-9.0417060">
        <ele>1.7</ele>
        <time>2015-03-19T10:58:38Z</time>
      </trkpt>
      <trkpt lat="38.8731100" lon="-9.0410990">
        <ele>1.9</ele>
        <time>2015-03-19T10:59:00Z</time>
      </trkpt>
      <trkpt lat="38.8731780" lon="-9.0410440">
        <ele>1.9</ele>
        <time>2015-03-19T10:59:02Z</time>
      </trkpt>
      <trkpt lat="38.8738960" lon="-9.0404560">
        <ele>1.7</ele>
        <time>2015-03-19T10:59:23Z</time>
      </trkpt>
      <trkpt lat="38.8745670" lon="-9.0399310">
        <ele>1.4</ele>
        <time>2015-03-19T10:59:43Z</time>
      </trkpt>
      <trkpt lat="38.8751540" lon="-9.0394250">
        <ele>1.3</ele>
        <time>2015-03-19T11:00:01Z</time>
      </trkpt>
      <trkpt lat="38.8759020" lon="-9.0388190">
        <ele>1.5</ele>
        <time>2015-03-19T11:00:23Z</time>
      </trkpt>
      <trkpt lat="38.8765270" lon="-9.0386040">
        <ele>1.9</ele>
        <time>2015-03-19T11:00:39Z</time>
      </trkpt>
      <trkpt lat="38.8771620" lon="-9.0388140">
        <ele>2.2</ele>
        <time>2015-03-19T11:00:55Z</time>
      </trkpt>
      <trkpt lat="38.8776230" lon="-9.0393470">
        <ele>2.2</ele>
        <time>2015-03-19T11:01:10Z</time>
      </trkpt>
      <trkpt lat="38.8781400" lon="-9.0400900">
        <ele>2.0</ele>
        <time>2015-03-19T11:01:28Z</time>
      </trkpt>
      <trkpt lat="38.8786040" lon="-9.0407350">
        <ele>2.1</ele>
        <time>2015-03-19T11:01:44Z</time>
      </trkpt>
      <trkpt lat="38.8790990" lon="-9.0414020">
        <ele>2.3</ele>
        <time>2015-03-19T11:02:01Z</time>
      </trkpt>
      <trkpt lat="38.8796340" lon="-9.0421000">
        <ele>2.6</ele>
        <time>2015-03-19T11:02:19Z</time>
      </trkpt>
      <trkpt lat="38.8798050" lon="-9.0423270">
        <ele>2.7</ele>
        <time>2015-03-19T11:02:25Z</time>
      </trkpt>
      <trkpt lat="38.8798990" lon="-9.0422910">
        <ele>2.8</ele>
        <time>2015-03-19T11:02:29Z</time>
      </trkpt>
      <trkpt lat="38.8799320" lon="-9.0422360">
        <ele>2.9</ele>
        <time>2015-03-19T11:02:31Z</time>
      </trkpt>
      <trkpt lat="38.8801160" lon="-9.0422810">
        <ele>3.2</ele>
        <time>2015-03-19T11:02:37Z</time>
      </trkpt>
      <trkpt lat="38.8801970" lon="-9.0423630">
        <ele>3.4</ele>
        <time>2015-03-19T11:02:39Z</time>
      </trkpt>
      <trkpt lat="38.8806600" lon="-9.0428640">
        <ele>4.9</ele>
        <time>2015-03-19T11:02:54Z</time>
      </trkpt>
      <trkpt lat="38.8807680" lon="-9.0429250">
        <ele>5.2</ele>
        <time>2015-03-19T11:02:58Z</time>
      </trkpt>
      <trkpt lat="38.8811130" lon="-9.0428690">
        <ele>5.7</ele>
        <time>2015-03-19T11:03:10Z</time>
      </trkpt>
      <trkpt lat="38.8814520" lon="-9.0424320">
        <ele>4.5</ele>
        <time>2015-03-19T11:03:23Z</time>
      </trkpt>
      <trkpt lat="38.8818240" lon="-9.0421290">
        <ele>4.2</ele>
        <time>2015-03-19T11:03:35Z</time>
      </trkpt>
      <trkpt lat="38.8821170" lon="-9.0417620">
        <ele>4.3</ele>
        <time>2015-03-19T11:03:47Z</time>
      </trkpt>
      <trkpt lat="38.8825180" lon="-9.0415400">
        <ele>4.3</ele>
        <time>2015-03-19T11:04:00Z</time>
      </trkpt>
      <trkpt lat="38.8829870" lon="-9.0409960">
        <ele>4.1</ele>
        <time>2015-03-19T11:04:17Z</time>
      </trkpt>
      <trkpt lat="38.8834190" lon="-9.0405800">
        <ele>4.1</ele>
        <time>2015-03-19T11:04:31Z</time>
      </trkpt>
      <trkpt lat="38.8835870" lon="-9.0403910">
        <ele>4.3</ele>
        <time>2015-03-19T11:04:37Z</time>
      </trkpt>
      <trkpt lat="38.8837350" lon="-9.0402270">
        <ele>4.2</ele>
        <time>2015-03-19T11:04:42Z</time>
      </trkpt>
      <trkpt lat="38.8840530" lon="-9.0398940">
        <ele>2.8</ele>
        <time>2015-03-19T11:04:54Z</time>
      </trkpt>
      <trkpt lat="38.8844180" lon="-9.0395940">
        <ele>2.7</ele>
        <time>2015-03-19T11:05:06Z</time>
      </trkpt>
      <trkpt lat="38.8845910" lon="-9.0393670">
        <ele>2.8</ele>
        <time>2015-03-19T11:05:13Z</time>
      </trkpt>
      <trkpt lat="38.8847280" lon="-9.0392190">
        <ele>2.8</ele>
        <time>2015-03-19T11:05:18Z</time>
      </trkpt>
      <trkpt lat="38.8848680" lon="-9.0390620">
        <ele>2.8</ele>
        <time>2015-03-19T11:05:23Z</time>
      </trkpt>
      <trkpt lat="38.8853510" lon="-9.0385340">
        <ele>3.4</ele>
        <time>2015-03-19T11:05:39Z</time>
      </trkpt>
      <trkpt lat="38.8857540" lon="-9.0381740">
        <ele>3.6</ele>
        <time>2015-03-19T11:05:52Z</time>
      </trkpt>
      <trkpt lat="38.8862120" lon="-9.0376620">
        <ele>3.9</ele>
        <time>2015-03-19T11:06:08Z</time>
      </trkpt>
      <trkpt lat="38.8868670" lon="-9.0369550">
        <ele>3.9</ele>
        <time>2015-03-19T11:06:30Z</time>
      </trkpt>
      <trkpt lat="38.8874710" lon="-9.0363140">
        <ele>4.9</ele>
        <time>2015-03-19T11:06:50Z</time>
      </trkpt>
      <trkpt lat="38.8879600" lon="-9.0357920">
        <ele>4.9</ele>
        <time>2015-03-19T11:07:07Z</time>
      </trkpt>
      <trkpt lat="38.8885420" lon="-9.0351980">
        <ele>4.9</ele>
        <time>2015-03-19T11:07:26Z</time>
      </trkpt>
      <trkpt lat="38.8888610" lon="-9.0348480">
        <ele>4.9</ele>
        <time>2015-03-19T11:07:37Z</time>
      </trkpt>
      <trkpt lat="38.8893690" lon="-9.0343470">
        <ele>4.9</ele>
        <time>2015-03-19T11:07:53Z</time>
      </trkpt>
      <trkpt lat="38.8898370" lon="-9.0337630">
        <ele>6.4</ele>
        <time>2015-03-19T11:08:10Z</time>
      </trkpt>
      <trkpt lat="38.8902620" lon="-9.0332740">
        <ele>6.3</ele>
        <time>2015-03-19T11:08:26Z</time>
      </trkpt>
      <trkpt lat="38.8902980" lon="-9.0329950">
        <ele>6.1</ele>
        <time>2015-03-19T11:08:33Z</time>
      </trkpt>
      <trkpt lat="38.8903190" lon="-9.0328000">
        <ele>6.0</ele>
        <time>2015-03-19T11:08:39Z</time>
      </trkpt>
      <trkpt lat="38.8904810" lon="-9.0329990">
        <ele>6.2</ele>
        <time>2015-03-19T11:10:35Z</time>
      </trkpt>
      <trkpt lat="38.8904640" lon="-9.0331280">
        <ele>6.3</ele>
        <time>2015-03-19T11:11:11Z</time>
      </trkpt>
      <trkpt lat="38.8904570" lon="-9.0332040">
        <ele>5.4</ele>
        <time>2015-03-19T11:11:32Z</time>
      </trkpt>
      <trkpt lat="38.8904610" lon="-9.0332640">
        <ele>4.9</ele>
        <time>2015-03-19T11:12:20Z</time>
      </trkpt>
      <trkpt lat="38.8905140" lon="-9.0333540">
        <ele>4.5</ele>
        <time>2015-03-19T11:12:33Z</time>
      </trkpt>
      <trkpt lat="38.8905640" lon="-9.0334480">
        <ele>4.8</ele>
        <time>2015-03-19T11:12:48Z</time>
      </trkpt>
      <trkpt lat="38.8906370" lon="-9.0336630">
        <ele>6.8</ele>
        <time>2015-03-19T11:13:03Z</time>
      </trkpt>
      <trkpt lat="38.8907870" lon="-9.0336090">
        <ele>6.7</ele>
        <time>2015-03-19T11:13:31Z</time>
      </trkpt>
      <trkpt lat="38.8908600" lon="-9.0336460">
        <ele>6.7</ele>
        <time>2015-03-19T11:14:07Z</time>
      </trkpt>
      <trkpt lat="38.8909150" lon="-9.0337250">
        <ele>6.8</ele>
        <time>2015-03-19T11:14:15Z</time>
      </trkpt>
      <trkpt lat="38.8912200" lon="-9.0341170">
        <ele>6.9</ele>
        <time>2015-03-19T11:14:28Z</time>
      </trkpt>
      <trkpt lat="38.8912740" lon="-9.0341860">
        <ele>6.9</ele>
        <time>2015-03-19T11:43:39Z</time>
      </trkpt>
      <trkpt lat="38.8913980" lon="-9.0343260">
        <ele>6.9</ele>
        <time>2015-03-19T11:43:49Z</time>
      </trkpt>
      <trkpt lat="38.8917340" lon="-9.0347240">
        <ele>7.1</ele>
        <time>2015-03-19T11:44:04Z</time>
      </trkpt>
      <trkpt lat="38.8921430" lon="-9.0350760">
        <ele>7.1</ele>
        <time>2015-03-19T11:44:19Z</time>
      </trkpt>
      <trkpt lat="38.8926970" lon="-9.0353030">
        <ele>7.4</ele>
        <time>2015-03-19T11:44:36Z</time>
      </trkpt>
      <trkpt lat="38.8933180" lon="-9.0354010">
        <ele>9.6</ele>
        <time>2015-03-19T11:44:54Z</time>
      </trkpt>
      <trkpt lat="38.8937940" lon="-9.0355760">
        <ele>12.5</ele>
        <time>2015-03-19T11:45:10Z</time>
      </trkpt>
      <trkpt lat="38.8939540" lon="-9.0354240">
        <ele>14.0</ele>
        <time>2015-03-19T11:45:18Z</time>
      </trkpt>
      <trkpt lat="38.8942990" lon="-9.0354150">
        <ele>14.9</ele>
        <time>2015-03-19T11:45:30Z</time>
      </trkpt>
      <trkpt lat="38.8947680" lon="-9.0353770">
        <ele>15.4</ele>
        <time>2015-03-19T11:45:45Z</time>
      </trkpt>
      <trkpt lat="38.8951320" lon="-9.0354370">
        <ele>14.7</ele>
        <time>2015-03-19T11:45:57Z</time>
      </trkpt>
      <trkpt lat="38.8952320" lon="-9.0353310">
        <ele>14.4</ele>
        <time>2015-03-19T11:46:02Z</time>
      </trkpt>
      <trkpt lat="38.8953520" lon="-9.0352170">
        <ele>14.1</ele>
        <time>2015-03-19T11:46:06Z</time>
      </trkpt>
      <trkpt lat="38.8955200" lon="-9.0347630">
        <ele>11.6</ele>
        <time>2015-03-19T11:46:16Z</time>
      </trkpt>
      <trkpt lat="38.8956800" lon="-9.0342750">
        <ele>9.9</ele>
        <time>2015-03-19T11:46:28Z</time>
      </trkpt>
      <trkpt lat="38.8957860" lon="-9.0342820">
        <ele>9.9</ele>
        <time>2015-03-19T11:46:33Z</time>
      </trkpt>
      <trkpt lat="38.8963150" lon="-9.0346980">
        <ele>10.1</ele>
        <time>2015-03-19T11:46:51Z</time>
      </trkpt>
      <trkpt lat="38.8965300" lon="-9.0348830">
        <ele>10.6</ele>
        <time>2015-03-19T11:46:59Z</time>
      </trkpt>
      <trkpt lat="38.8966240" lon="-9.0348550">
        <ele>10.7</ele>
        <time>2015-03-19T11:47:06Z</time>
      </trkpt>
      <trkpt lat="38.8967510" lon="-9.0346990">
        <ele>10.6</ele>
        <time>2015-03-19T11:47:13Z</time>
      </trkpt>
      <trkpt lat="38.8968470" lon="-9.0345800">
        <ele>10.0</ele>
        <time>2015-03-19T11:47:16Z</time>
      </trkpt>
      <trkpt lat="38.8970300" lon="-9.0343080">
        <ele>8.9</ele>
        <time>2015-03-19T11:47:25Z</time>
      </trkpt>
      <trkpt lat="38.8972450" lon="-9.0339700">
        <ele>8.7</ele>
        <time>2015-03-19T11:47:41Z</time>
      </trkpt>
      <trkpt lat="38.8974290" lon="-9.0336420">
        <ele>8.7</ele>
        <time>2015-03-19T11:47:55Z</time>
      </trkpt>
      <trkpt lat="38.8976210" lon="-9.0333270">
        <ele>8.7</ele>
        <time>2015-03-19T11:48:09Z</time>
      </trkpt>
      <trkpt lat="38.8978610" lon="-9.0330090">
        <ele>8.7</ele>
        <time>2015-03-19T11:48:24Z</time>
      </trkpt>
      <trkpt lat="38.8981150" lon="-9.0325360">
        <ele>8.7</ele>
        <time>2015-03-19T11:48:44Z</time>
      </trkpt>
      <trkpt lat="38.8983410" lon="-9.0321380">
        <ele>8.7</ele>
        <time>2015-03-19T11:49:01Z</time>
      </trkpt>
      <trkpt lat="38.8985900" lon="-9.0317100">
        <ele>8.7</ele>
        <time>2015-03-19T11:49:20Z</time>
      </trkpt>
      <trkpt lat="38.8988190" lon="-9.0313630">
        <ele>8.7</ele>
        <time>2015-03-19T11:49:36Z</time>
      </trkpt>
      <trkpt lat="38.8990090" lon="-9.0310780">
        <ele>8.7</ele>
        <time>2015-03-19T11:49:50Z</time>
      </trkpt>
      <trkpt lat="38.8992360" lon="-9.0308820">
        <ele>8.7</ele>
        <time>2015-03-19T11:50:03Z</time>
      </trkpt>
      <trkpt lat="38.8995130" lon="-9.0306600">
        <ele>8.8</ele>
        <time>2015-03-19T11:50:18Z</time>
      </trkpt>
      <trkpt lat="38.8997710" lon="-9.0305020">
        <ele>8.9</ele>
        <time>2015-03-19T11:50:32Z</time>
      </trkpt>
      <trkpt lat="38.8999580" lon="-9.0303200">
        <ele>8.9</ele>
        <time>2015-03-19T11:50:45Z</time>
      </trkpt>
      <trkpt lat="38.8999430" lon="-9.0302160">
        <ele>8.7</ele>
        <time>2015-03-19T11:51:15Z</time>
      </trkpt>
      <trkpt lat="38.8998300" lon="-9.0298430">
        <ele>8.2</ele>
        <time>2015-03-19T11:51:27Z</time>
      </trkpt>
      <trkpt lat="38.8997820" lon="-9.0294050">
        <ele>8.3</ele>
        <time>2015-03-19T11:51:39Z</time>
      </trkpt>
      <trkpt lat="38.8999190" lon="-9.0289660">
        <ele>8.4</ele>
        <time>2015-03-19T11:51:51Z</time>
      </trkpt>
      <trkpt lat="38.9001100" lon="-9.0283820">
        <ele>8.6</ele>
        <time>2015-03-19T11:52:06Z</time>
      </trkpt>
      <trkpt lat="38.9002960" lon="-9.0279830">
        <ele>9.1</ele>
        <time>2015-03-19T11:52:18Z</time>
      </trkpt>
      <trkpt lat="38.9004950" lon="-9.0276930">
        <ele>9.7</ele>
        <time>2015-03-19T11:52:28Z</time>
      </trkpt>
      <trkpt lat="38.9009220" lon="-9.0274700">
        <ele>9.7</ele>
        <time>2015-03-19T11:52:43Z</time>
      </trkpt>
      <trkpt lat="38.9014780" lon="-9.0274000">
        <ele>10.0</ele>
        <time>2015-03-19T11:53:00Z</time>
      </trkpt>
      <trkpt lat="38.9021460" lon="-9.0273970">
        <ele>12.0</ele>
        <time>2015-03-19T11:53:20Z</time>
      </trkpt>
      <trkpt lat="38.9027520" lon="-9.0275180">
        <ele>13.7</ele>
        <time>2015-03-19T11:53:38Z</time>
      </trkpt>
      <trkpt lat="38.9034800" lon="-9.0278470">
        <ele>15.5</ele>
        <time>2015-03-19T11:54:00Z</time>
      </trkpt>
      <trkpt lat="38.9041080" lon="-9.0281200">
        <ele>15.9</ele>
        <time>2015-03-19T11:54:19Z</time>
      </trkpt>
      <trkpt lat="38.9045010" lon="-9.0279180">
        <ele>16.7</ele>
        <time>2015-03-19T11:54:31Z</time>
      </trkpt>
      <trkpt lat="38.9047810" lon="-9.0274930">
        <ele>17.3</ele>
        <time>2015-03-19T11:54:42Z</time>
      </trkpt>
      <trkpt lat="38.9052480" lon="-9.0269480">
        <ele>17.2</ele>
        <time>2015-03-19T11:54:57Z</time>
      </trkpt>
      <trkpt lat="38.9056320" lon="-9.0266320">
        <ele>17.0</ele>
        <time>2015-03-19T11:55:07Z</time>
      </trkpt>
      <trkpt lat="38.9059020" lon="-9.0267010">
        <ele>17.9</ele>
        <time>2015-03-19T11:55:13Z</time>
      </trkpt>
      <trkpt lat="38.9065080" lon="-9.0271450">
        <ele>19.5</ele>
        <time>2015-03-19T11:55:28Z</time>
      </trkpt>
      <trkpt lat="38.9070580" lon="-9.0272280">
        <ele>19.8</ele>
        <time>2015-03-19T11:55:43Z</time>
      </trkpt>
      <trkpt lat="38.9072490" lon="-9.0272770">
        <ele>20.0</ele>
        <time>2015-03-19T11:55:48Z</time>
      </trkpt>
      <trkpt lat="38.9076810" lon="-9.0274240">
        <ele>20.3</ele>
        <time>2015-03-19T11:55:59Z</time>
      </trkpt>
      <trkpt lat="38.9081990" lon="-9.0280010">
        <ele>20.8</ele>
        <time>2015-03-19T11:56:15Z</time>
      </trkpt>
      <trkpt lat="38.9085160" lon="-9.0279890">
        <ele>21.8</ele>
        <time>2015-03-19T11:56:25Z</time>
      </trkpt>
      <trkpt lat="38.9086360" lon="-9.0277380">
        <ele>22.5</ele>
        <time>2015-03-19T11:56:32Z</time>
      </trkpt>
      <trkpt lat="38.9089350" lon="-9.0272330">
        <ele>23.2</ele>
        <time>2015-03-19T11:56:50Z</time>
      </trkpt>
      <trkpt lat="38.9093140" lon="-9.0268270">
        <ele>23.0</ele>
        <time>2015-03-19T11:57:05Z</time>
      </trkpt>
      <trkpt lat="38.9098990" lon="-9.0263500">
        <ele>22.0</ele>
        <time>2015-03-19T11:57:23Z</time>
      </trkpt>
      <trkpt lat="38.9102830" lon="-9.0261180">
        <ele>21.2</ele>
        <time>2015-03-19T11:57:33Z</time>
      </trkpt>
      <trkpt lat="38.9109140" lon="-9.0256470">
        <ele>20.7</ele>
        <time>2015-03-19T11:57:48Z</time>
      </trkpt>
      <trkpt lat="38.9115290" lon="-9.0250860">
        <ele>19.9</ele>
        <time>2015-03-19T11:58:06Z</time>
      </trkpt>
      <trkpt lat="38.9122430" lon="-9.0244500">
        <ele>18.8</ele>
        <time>2015-03-19T11:58:25Z</time>
      </trkpt>
      <trkpt lat="38.9129130" lon="-9.0238760">
        <ele>19.3</ele>
        <time>2015-03-19T11:58:43Z</time>
      </trkpt>
      <trkpt lat="38.9135020" lon="-9.0232850">
        <ele>19.8</ele>
        <time>2015-03-19T11:59:01Z</time>
      </trkpt>
      <trkpt lat="38.9137730" lon="-9.0229350">
        <ele>20.0</ele>
        <time>2015-03-19T11:59:10Z</time>
      </trkpt>
      <trkpt lat="38.9138490" lon="-9.0228150">
        <ele>20.0</ele>
        <time>2015-03-19T11:59:13Z</time>
      </trkpt>
      <trkpt lat="38.9142700" lon="-9.0219850">
        <ele>18.0</ele>
        <time>2015-03-19T11:59:30Z</time>
      </trkpt>
      <trkpt lat="38.9144390" lon="-9.0217150">
        <ele>15.6</ele>
        <time>2015-03-19T11:59:35Z</time>
      </trkpt>
      <trkpt lat="38.9149910" lon="-9.0212770">
        <ele>10.3</ele>
        <time>2015-03-19T11:59:45Z</time>
      </trkpt>
      <trkpt lat="38.9157290" lon="-9.0210360">
        <ele>9.6</ele>
        <time>2015-03-19T11:59:59Z</time>
      </trkpt>
      <trkpt lat="38.9165440" lon="-9.0207440">
        <ele>15.1</ele>
        <time>2015-03-19T12:00:17Z</time>
      </trkpt>
      <trkpt lat="38.9166950" lon="-9.0206670">
        <ele>15.5</ele>
        <time>2015-03-19T12:00:20Z</time>
      </trkpt>
      <trkpt lat="38.9167880" lon="-9.0206030">
        <ele>15.8</ele>
        <time>2015-03-19T12:00:22Z</time>
      </trkpt>
      <trkpt lat="38.9175130" lon="-9.0199890">
        <ele>18.4</ele>
        <time>2015-03-19T12:00:40Z</time>
      </trkpt>
      <trkpt lat="38.9176780" lon="-9.0198120">
        <ele>19.0</ele>
        <time>2015-03-19T12:00:45Z</time>
      </trkpt>
      <trkpt lat="38.9182390" lon="-9.0191580">
        <ele>22.1</ele>
        <time>2015-03-19T12:01:02Z</time>
      </trkpt>
      <trkpt lat="38.9188120" lon="-9.0184750">
        <ele>22.8</ele>
        <time>2015-03-19T12:01:20Z</time>
      </trkpt>
      <trkpt lat="38.9192250" lon="-9.0179560">
        <ele>22.1</ele>
        <time>2015-03-19T12:01:32Z</time>
      </trkpt>
      <trkpt lat="38.9198850" lon="-9.0171140">
        <ele>21.6</ele>
        <time>2015-03-19T12:01:52Z</time>
      </trkpt>
      <trkpt lat="38.9202160" lon="-9.0167770">
        <ele>21.7</ele>
        <time>2015-03-19T12:02:02Z</time>
      </trkpt>
      <trkpt lat="38.9203260" lon="-9.0166830">
        <ele>21.7</ele>
        <time>2015-03-19T12:02:05Z</time>
      </trkpt>
      <trkpt lat="38.9206310" lon="-9.0163920">
        <ele>21.7</ele>
        <time>2015-03-19T12:02:13Z</time>
      </trkpt>
      <trkpt lat="38.9209000" lon="-9.0161520">
        <ele>22.0</ele>
        <time>2015-03-19T12:02:20Z</time>
      </trkpt>
      <trkpt lat="38.9214660" lon="-9.0156000">
        <ele>22.6</ele>
        <time>2015-03-19T12:02:35Z</time>
      </trkpt>
      <trkpt lat="38.9219720" lon="-9.0148950">
        <ele>22.4</ele>
        <time>2015-03-19T12:02:51Z</time>
      </trkpt>
      <trkpt lat="38.9220330" lon="-9.0148030">
        <ele>22.4</ele>
        <time>2015-03-19T12:02:53Z</time>
      </trkpt>
      <trkpt lat="38.9220940" lon="-9.0147080">
        <ele>22.4</ele>
        <time>2015-03-19T12:02:55Z</time>
      </trkpt>
      <trkpt lat="38.9222780" lon="-9.0144290">
        <ele>22.4</ele>
        <time>2015-03-19T12:03:01Z</time>
      </trkpt>
      <trkpt lat="38.9224030" lon="-9.0142550">
        <ele>22.4</ele>
        <time>2015-03-19T12:03:05Z</time>
      </trkpt>
      <trkpt lat="38.9227860" lon="-9.0136280">
        <ele>22.9</ele>
        <time>2015-03-19T12:03:19Z</time>
      </trkpt>
      <trkpt lat="38.9228520" lon="-9.0135390">
        <ele>23.0</ele>
        <time>2015-03-19T12:03:21Z</time>
      </trkpt>
      <trkpt lat="38.9234320" lon="-9.0126970">
        <ele>22.4</ele>
        <time>2015-03-19T12:03:40Z</time>
      </trkpt>
      <trkpt lat="38.9237730" lon="-9.0122930">
        <ele>22.3</ele>
        <time>2015-03-19T12:03:52Z</time>
      </trkpt>
      <trkpt lat="38.9238410" lon="-9.0122310">
        <ele>22.3</ele>
        <time>2015-03-19T12:03:54Z</time>
      </trkpt>
      <trkpt lat="38.9243740" lon="-9.0117260">
        <ele>20.5</ele>
        <time>2015-03-19T12:04:12Z</time>
      </trkpt>
      <trkpt lat="38.9245630" lon="-9.0112570">
        <ele>14.2</ele>
        <time>2015-03-19T12:04:26Z</time>
      </trkpt>
      <trkpt lat="38.9243590" lon="-9.0106940">
        <ele>10.7</ele>
        <time>2015-03-19T12:04:39Z</time>
      </trkpt>
      <trkpt lat="38.9242950" lon="-9.0101450">
        <ele>10.3</ele>
        <time>2015-03-19T12:04:46Z</time>
      </trkpt>
      <trkpt lat="38.9242920" lon="-9.0098410">
        <ele>9.6</ele>
        <time>2015-03-19T12:04:50Z</time>
      </trkpt>
      <trkpt lat="38.9243730" lon="-9.0095470">
        <ele>8.6</ele>
        <time>2015-03-19T12:04:54Z</time>
      </trkpt>
      <trkpt lat="38.9244620" lon="-9.0093340">
        <ele>7.8</ele>
        <time>2015-03-19T12:04:57Z</time>
      </trkpt>
      <trkpt lat="38.9248000" lon="-9.0090940">
        <ele>7.2</ele>
        <time>2015-03-19T12:05:05Z</time>
      </trkpt>
      <trkpt lat="38.9248890" lon="-9.0090920">
        <ele>7.2</ele>
        <time>2015-03-19T12:05:07Z</time>
      </trkpt>
      <trkpt lat="38.9250530" lon="-9.0090300">
        <ele>7.4</ele>
        <time>2015-03-19T12:05:11Z</time>
      </trkpt>
      <trkpt lat="38.9252680" lon="-9.0088520">
        <ele>8.2</ele>
        <time>2015-03-19T12:05:17Z</time>
      </trkpt>
      <trkpt lat="38.9254860" lon="-9.0086190">
        <ele>9.6</ele>
        <time>2015-03-19T12:05:24Z</time>
      </trkpt>
      <trkpt lat="38.9254690" lon="-9.0084330">
        <ele>9.7</ele>
        <time>2015-03-19T12:05:28Z</time>
      </trkpt>
      <trkpt lat="38.9253070" lon="-9.0080460">
        <ele>9.0</ele>
        <time>2015-03-19T12:05:36Z</time>
      </trkpt>
      <trkpt lat="38.9252450" lon="-9.0078990">
        <ele>9.0</ele>
        <time>2015-03-19T12:05:39Z</time>
      </trkpt>
      <trkpt lat="38.9250600" lon="-9.0074160">
        <ele>9.0</ele>
        <time>2015-03-19T12:05:49Z</time>
      </trkpt>
      <trkpt lat="38.9250080" lon="-9.0073310">
        <ele>9.0</ele>
        <time>2015-03-19T12:05:51Z</time>
      </trkpt>
      <trkpt lat="38.9247210" lon="-9.0066480">
        <ele>7.3</ele>
        <time>2015-03-19T12:06:06Z</time>
      </trkpt>
      <trkpt lat="38.9247740" lon="-9.0065700">
        <ele>7.2</ele>
        <time>2015-03-19T12:06:16Z</time>
      </trkpt>
      <trkpt lat="38.9248900" lon="-9.0064320">
        <ele>6.5</ele>
        <time>2015-03-19T12:06:27Z</time>
      </trkpt>
      <trkpt lat="38.9254550" lon="-9.0061270">
        <ele>1.4</ele>
        <time>2015-03-19T12:06:43Z</time>
      </trkpt>
      <trkpt lat="38.9255500" lon="-9.0061680">
        <ele>2.8</ele>
        <time>2015-03-19T12:06:46Z</time>
      </trkpt>
      <trkpt lat="38.9259610" lon="-9.0061370">
        <ele>4.8</ele>
        <time>2015-03-19T12:06:59Z</time>
      </trkpt>
      <trkpt lat="38.9264970" lon="-9.0059600">
        <ele>5.3</ele>
        <time>2015-03-19T12:07:13Z</time>
      </trkpt>
      <trkpt lat="38.9269780" lon="-9.0058120">
        <ele>5.4</ele>
        <time>2015-03-19T12:07:26Z</time>
      </trkpt>
      <trkpt lat="38.9276840" lon="-9.0057250">
        <ele>5.4</ele>
        <time>2015-03-19T12:07:44Z</time>
      </trkpt>
      <trkpt lat="38.9283960" lon="-9.0056700">
        <ele>6.2</ele>
        <time>2015-03-19T12:08:02Z</time>
      </trkpt>
      <trkpt lat="38.9292030" lon="-9.0055000">
        <ele>6.6</ele>
        <time>2015-03-19T12:08:22Z</time>
      </trkpt>
      <trkpt lat="38.9299090" lon="-9.0051460">
        <ele>6.6</ele>
        <time>2015-03-19T12:08:40Z</time>
      </trkpt>
      <trkpt lat="38.9305490" lon="-9.0048790">
        <ele>6.3</ele>
        <time>2015-03-19T12:08:56Z</time>
      </trkpt>
      <trkpt lat="38.9309170" lon="-9.0050940">
        <ele>6.6</ele>
        <time>2015-03-19T12:09:06Z</time>
      </trkpt>
      <trkpt lat="38.9312720" lon="-9.0053240">
        <ele>7.9</ele>
        <time>2015-03-19T12:09:16Z</time>
      </trkpt>
      <trkpt lat="38.9314060" lon="-9.0052470">
        <ele>7.9</ele>
        <time>2015-03-19T12:09:20Z</time>
      </trkpt>
      <trkpt lat="38.9321950" lon="-9.0048570">
        <ele>8.0</ele>
        <time>2015-03-19T12:09:41Z</time>
      </trkpt>
      <trkpt lat="38.9323110" lon="-9.0047960">
        <ele>8.0</ele>
        <time>2015-03-19T12:09:44Z</time>
      </trkpt>
      <trkpt lat="38.9323780" lon="-9.0045620">
        <ele>7.7</ele>
        <time>2015-03-19T12:09:49Z</time>
      </trkpt>
      <trkpt lat="38.9323590" lon="-9.0043740">
        <ele>7.5</ele>
        <time>2015-03-19T12:09:52Z</time>
      </trkpt>
      <trkpt lat="38.9324570" lon="-9.0040920">
        <ele>6.5</ele>
        <time>2015-03-19T12:09:57Z</time>
      </trkpt>
      <trkpt lat="38.9329760" lon="-9.0036780">
        <ele>8.4</ele>
        <time>2015-03-19T12:10:11Z</time>
      </trkpt>
      <trkpt lat="38.9334270" lon="-9.0033290">
        <ele>8.7</ele>
        <time>2015-03-19T12:10:24Z</time>
      </trkpt>
      <trkpt lat="38.9336320" lon="-9.0030450">
        <ele>7.9</ele>
        <time>2015-03-19T12:10:31Z</time>
      </trkpt>
      <trkpt lat="38.9342150" lon="-9.0025650">
        <ele>7.2</ele>
        <time>2015-03-19T12:10:47Z</time>
      </trkpt>
      <trkpt lat="38.9349780" lon="-9.0019480">
        <ele>9.1</ele>
        <time>2015-03-19T12:11:08Z</time>
      </trkpt>
      <trkpt lat="38.9356110" lon="-9.0014510">
        <ele>8.5</ele>
        <time>2015-03-19T12:11:25Z</time>
      </trkpt>
      <trkpt lat="38.9362210" lon="-9.0010660">
        <ele>7.3</ele>
        <time>2015-03-19T12:11:42Z</time>
      </trkpt>
      <trkpt lat="38.9363050" lon="-9.0009890">
        <ele>7.4</ele>
        <time>2015-03-19T12:12:24Z</time>
      </trkpt>
      <trkpt lat="38.9365420" lon="-9.0008520">
        <ele>7.7</ele>
        <time>2015-03-19T12:12:31Z</time>
      </trkpt>
      <trkpt lat="38.9372010" lon="-9.0002080">
        <ele>7.7</ele>
        <time>2015-03-19T12:12:50Z</time>
      </trkpt>
      <trkpt lat="38.9380000" lon="-8.9994120">
        <ele>8.0</ele>
        <time>2015-03-19T12:13:12Z</time>
      </trkpt>
      <trkpt lat="38.9387310" lon="-8.9986900">
        <ele>8.3</ele>
        <time>2015-03-19T12:13:32Z</time>
      </trkpt>
      <trkpt lat="38.9395240" lon="-8.9978990">
        <ele>8.8</ele>
        <time>2015-03-19T12:13:53Z</time>
      </trkpt>
      <trkpt lat="38.9403350" lon="-8.9970920">
        <ele>7.4</ele>
        <time>2015-03-19T12:14:15Z</time>
      </trkpt>
      <trkpt lat="38.9411850" lon="-8.9962790">
        <ele>9.0</ele>
        <time>2015-03-19T12:14:38Z</time>
      </trkpt>
      <trkpt lat="38.9412240" lon="-8.9962460">
        <ele>8.8</ele>
        <time>2015-03-19T12:14:39Z</time>
      </trkpt>
      <trkpt lat="38.9421020" lon="-8.9954830">
        <ele>8.1</ele>
        <time>2015-03-19T12:15:01Z</time>
      </trkpt>
      <trkpt lat="38.9424410" lon="-8.9951300">
        <ele>9.3</ele>
        <time>2015-03-19T12:15:10Z</time>
      </trkpt>
      <trkpt lat="38.9430210" lon="-8.9947710">
        <ele>8.0</ele>
        <time>2015-03-19T12:15:24Z</time>
      </trkpt>
      <trkpt lat="38.9436130" lon="-8.9944170">
        <ele>9.3</ele>
        <time>2015-03-19T12:15:38Z</time>
      </trkpt>
      <trkpt lat="38.9440410" lon="-8.9941570">
        <ele>8.3</ele>
        <time>2015-03-19T12:15:48Z</time>
      </trkpt>
      <trkpt lat="38.9441290" lon="-8.9941240">
        <ele>8.2</ele>
        <time>2015-03-19T12:15:50Z</time>
      </trkpt>
      <trkpt lat="38.9449720" lon="-8.9935900">
        <ele>8.6</ele>
        <time>2015-03-19T12:16:10Z</time>
      </trkpt>
      <trkpt lat="38.9459130" lon="-8.9929740">
        <ele>9.0</ele>
        <time>2015-03-19T12:16:33Z</time>
      </trkpt>
      <trkpt lat="38.9470220" lon="-8.9922540">
        <ele>8.7</ele>
        <time>2015-03-19T12:16:59Z</time>
      </trkpt>
      <trkpt lat="38.9479210" lon="-8.9916720">
        <ele>8.8</ele>
        <time>2015-03-19T12:17:20Z</time>
      </trkpt>
      <trkpt lat="38.9488920" lon="-8.9910340">
        <ele>8.7</ele>
        <time>2015-03-19T12:17:43Z</time>
      </trkpt>
      <trkpt lat="38.9496950" lon="-8.9904920">
        <ele>8.7</ele>
        <time>2015-03-19T12:18:02Z</time>
      </trkpt>
      <trkpt lat="38.9505460" lon="-8.9898180">
        <ele>8.7</ele>
        <time>2015-03-19T12:18:23Z</time>
      </trkpt>
      <trkpt lat="38.9506170" lon="-8.9895090">
        <ele>8.7</ele>
        <time>2015-03-19T12:18:30Z</time>
      </trkpt>
      <trkpt lat="38.9505910" lon="-8.9892700">
        <ele>8.7</ele>
        <time>2015-03-19T12:18:37Z</time>
      </trkpt>
      <trkpt lat="38.9511670" lon="-8.9887460">
        <ele>8.9</ele>
        <time>2015-03-19T12:18:55Z</time>
      </trkpt>
      <trkpt lat="38.9518020" lon="-8.9881200">
        <ele>8.6</ele>
        <time>2015-03-19T12:19:14Z</time>
      </trkpt>
      <trkpt lat="38.9521320" lon="-8.9876890">
        <ele>6.3</ele>
        <time>2015-03-19T12:19:27Z</time>
      </trkpt>
      <trkpt lat="38.9524040" lon="-8.9874070">
        <ele>1.3</ele>
        <time>2015-03-19T12:19:50Z</time>
      </trkpt>
      <trkpt lat="38.9527110" lon="-8.9872370">
        <ele>3.1</ele>
        <time>2015-03-19T12:20:14Z</time>
      </trkpt>
      <trkpt lat="38.9531510" lon="-8.9873290">
        <ele>7.7</ele>
        <time>2015-03-19T12:20:29Z</time>
      </trkpt>
      <trkpt lat="38.9533770" lon="-8.9871720">
        <ele>9.6</ele>
        <time>2015-03-19T12:20:37Z</time>
      </trkpt>
      <trkpt lat="38.9536990" lon="-8.9870150">
        <ele>10.2</ele>
        <time>2015-03-19T12:21:52Z</time>
      </trkpt>
      <trkpt lat="38.9542070" lon="-8.9866610">
        <ele>8.9</ele>
        <time>2015-03-19T12:22:07Z</time>
      </trkpt>
      <trkpt lat="38.9547500" lon="-8.9862780">
        <ele>9.8</ele>
        <time>2015-03-19T12:22:22Z</time>
      </trkpt>
      <trkpt lat="38.9549360" lon="-8.9861650">
        <ele>10.3</ele>
        <time>2015-03-19T12:22:27Z</time>
      </trkpt>
      <trkpt lat="38.9554290" lon="-8.9858120">
        <ele>8.3</ele>
        <time>2015-03-19T12:22:40Z</time>
      </trkpt>
      <trkpt lat="38.9561060" lon="-8.9853420">
        <ele>8.6</ele>
        <time>2015-03-19T12:22:58Z</time>
      </trkpt>
      <trkpt lat="38.9565030" lon="-8.9850400">
        <ele>7.2</ele>
        <time>2015-03-19T12:23:10Z</time>
      </trkpt>
      <trkpt lat="38.9564760" lon="-8.9847200">
        <ele>6.8</ele>
        <time>2015-03-19T12:23:19Z</time>
      </trkpt>
      <trkpt lat="38.9566190" lon="-8.9845880">
        <ele>6.6</ele>
        <time>2015-03-19T12:23:24Z</time>
      </trkpt>
      <trkpt lat="38.9572530" lon="-8.9839090">
        <ele>6.5</ele>
        <time>2015-03-19T12:23:43Z</time>
      </trkpt>
      <trkpt lat="38.9578790" lon="-8.9832220">
        <ele>6.8</ele>
        <time>2015-03-19T12:24:03Z</time>
      </trkpt>
      <trkpt lat="38.9580830" lon="-8.9830260">
        <ele>6.8</ele>
        <time>2015-03-19T12:24:09Z</time>
      </trkpt>
      <trkpt lat="38.9587570" lon="-8.9823550">
        <ele>6.1</ele>
        <time>2015-03-19T12:24:29Z</time>
      </trkpt>
      <trkpt lat="38.9589190" lon="-8.9821760">
        <ele>6.0</ele>
        <time>2015-03-19T12:24:34Z</time>
      </trkpt>
      <trkpt lat="38.9594940" lon="-8.9816090">
        <ele>5.6</ele>
        <time>2015-03-19T12:24:52Z</time>
      </trkpt>
      <trkpt lat="38.9601810" lon="-8.9808570">
        <ele>5.1</ele>
        <time>2015-03-19T12:25:14Z</time>
      </trkpt>
      <trkpt lat="38.9607970" lon="-8.9800720">
        <ele>4.8</ele>
        <time>2015-03-19T12:25:35Z</time>
      </trkpt>
      <trkpt lat="38.9614080" lon="-8.9792390">
        <ele>4.7</ele>
        <time>2015-03-19T12:25:56Z</time>
      </trkpt>
      <trkpt lat="38.9620420" lon="-8.9783930">
        <ele>4.1</ele>
        <time>2015-03-19T12:26:18Z</time>
      </trkpt>
      <trkpt lat="38.9628020" lon="-8.9778950">
        <ele>3.8</ele>
        <time>2015-03-19T12:26:38Z</time>
      </trkpt>
      <trkpt lat="38.9636910" lon="-8.9778500">
        <ele>3.5</ele>
        <time>2015-03-19T12:26:58Z</time>
      </trkpt>
      <trkpt lat="38.9646980" lon="-8.9780550">
        <ele>4.1</ele>
        <time>2015-03-19T12:27:21Z</time>
      </trkpt>
      <trkpt lat="38.9654420" lon="-8.9782040">
        <ele>4.3</ele>
        <time>2015-03-19T12:27:38Z</time>
      </trkpt>
      <trkpt lat="38.9664130" lon="-8.9784040">
        <ele>4.3</ele>
        <time>2015-03-19T12:28:00Z</time>
      </trkpt>
      <trkpt lat="38.9671270" lon="-8.9786630">
        <ele>5.1</ele>
        <time>2015-03-19T12:28:18Z</time>
      </trkpt>
      <trkpt lat="38.9673170" lon="-8.9785190">
        <ele>5.0</ele>
        <time>2015-03-19T12:28:23Z</time>
      </trkpt>
      <trkpt lat="38.9673860" lon="-8.9784760">
        <ele>4.8</ele>
        <time>2015-03-19T12:28:47Z</time>
      </trkpt>
      <trkpt lat="38.9676250" lon="-8.9783570">
        <ele>4.6</ele>
        <time>2015-03-19T12:28:55Z</time>
      </trkpt>
      <trkpt lat="38.9677650" lon="-8.9782700">
        <ele>5.0</ele>
        <time>2015-03-19T12:28:59Z</time>
      </trkpt>
      <trkpt lat="38.9682470" lon="-8.9780320">
        <ele>3.6</ele>
        <time>2015-03-19T12:29:11Z</time>
      </trkpt>
      <trkpt lat="38.9683670" lon="-8.9779560">
        <ele>3.6</ele>
        <time>2015-03-19T12:29:14Z</time>
      </trkpt>
      <trkpt lat="38.9685260" lon="-8.9778520">
        <ele>3.6</ele>
        <time>2015-03-19T12:29:18Z</time>
      </trkpt>
      <trkpt lat="38.9690940" lon="-8.9775250">
        <ele>3.6</ele>
        <time>2015-03-19T12:29:32Z</time>
      </trkpt>
      <trkpt lat="38.9694960" lon="-8.9773190">
        <ele>3.7</ele>
        <time>2015-03-19T12:29:42Z</time>
      </trkpt>
      <trkpt lat="38.9696520" lon="-8.9772240">
        <ele>3.7</ele>
        <time>2015-03-19T12:29:46Z</time>
      </trkpt>
      <trkpt lat="38.9704850" lon="-8.9768860">
        <ele>3.7</ele>
        <time>2015-03-19T12:30:06Z</time>
      </trkpt>
      <trkpt lat="38.9710360" lon="-8.9766510">
        <ele>3.8</ele>
        <time>2015-03-19T12:30:19Z</time>
      </trkpt>
      <trkpt lat="38.9711690" lon="-8.9765970">
        <ele>3.8</ele>
        <time>2015-03-19T12:30:22Z</time>
      </trkpt>
      <trkpt lat="38.9712470" lon="-8.9765500">
        <ele>3.8</ele>
        <time>2015-03-19T12:30:24Z</time>
      </trkpt>
      <trkpt lat="38.9715420" lon="-8.9764030">
        <ele>3.7</ele>
        <time>2015-03-19T12:30:31Z</time>
      </trkpt>
      <trkpt lat="38.9718000" lon="-8.9765370">
        <ele>3.4</ele>
        <time>2015-03-19T12:30:38Z</time>
      </trkpt>
      <trkpt lat="38.9720570" lon="-8.9770840">
        <ele>2.3</ele>
        <time>2015-03-19T12:30:49Z</time>
      </trkpt>
      <trkpt lat="38.9722940" lon="-8.9771320">
        <ele>3.2</ele>
        <time>2015-03-19T12:30:55Z</time>
      </trkpt>
      <trkpt lat="38.9727560" lon="-8.9767950">
        <ele>2.7</ele>
        <time>2015-03-19T12:31:07Z</time>
      </trkpt>
      <trkpt lat="38.9728600" lon="-8.9767140">
        <ele>2.9</ele>
        <time>2015-03-19T12:31:10Z</time>
      </trkpt>
      <trkpt lat="38.9732700" lon="-8.9764200">
        <ele>3.9</ele>
        <time>2015-03-19T12:31:21Z</time>
      </trkpt>
      <trkpt lat="38.9733540" lon="-8.9763780">
        <ele>3.8</ele>
        <time>2015-03-19T12:31:23Z</time>
      </trkpt>
      <trkpt lat="38.9734710" lon="-8.9762650">
        <ele>3.6</ele>
        <time>2015-03-19T12:31:27Z</time>
      </trkpt>
      <trkpt lat="38.9735720" lon="-8.9761800">
        <ele>3.5</ele>
        <time>2015-03-19T12:31:30Z</time>
      </trkpt>
      <trkpt lat="38.9739740" lon="-8.9759210">
        <ele>4.1</ele>
        <time>2015-03-19T12:31:41Z</time>
      </trkpt>
      <trkpt lat="38.9741580" lon="-8.9758000">
        <ele>4.4</ele>
        <time>2015-03-19T12:31:46Z</time>
      </trkpt>
      <trkpt lat="38.9744210" lon="-8.9756150">
        <ele>4.4</ele>
        <time>2015-03-19T12:31:53Z</time>
      </trkpt>
      <trkpt lat="38.9744890" lon="-8.9755500">
        <ele>4.4</ele>
        <time>2015-03-19T12:31:55Z</time>
      </trkpt>
      <trkpt lat="38.9746450" lon="-8.9754660">
        <ele>4.4</ele>
        <time>2015-03-19T12:31:59Z</time>
      </trkpt>
      <trkpt lat="38.9747560" lon="-8.9753920">
        <ele>4.4</ele>
        <time>2015-03-19T12:32:02Z</time>
      </trkpt>
      <trkpt lat="38.9754390" lon="-8.9749150">
        <ele>4.5</ele>
        <time>2015-03-19T12:32:20Z</time>
      </trkpt>
      <trkpt lat="38.9760250" lon="-8.9744250">
        <ele>5.4</ele>
        <time>2015-03-19T12:32:38Z</time>
      </trkpt>
      <trkpt lat="38.9759740" lon="-8.9741230">
        <ele>5.5</ele>
        <time>2015-03-19T12:32:47Z</time>
      </trkpt>
      <trkpt lat="38.9759980" lon="-8.9737760">
        <ele>5.5</ele>
        <time>2015-03-19T12:33:00Z</time>
      </trkpt>
      <trkpt lat="38.9761280" lon="-8.9730970">
        <ele>6.2</ele>
        <time>2015-03-19T12:33:15Z</time>
      </trkpt>
      <trkpt lat="38.9761580" lon="-8.9727820">
        <ele>6.1</ele>
        <time>2015-03-19T12:33:24Z</time>
      </trkpt>
      <trkpt lat="38.9763370" lon="-8.9726630">
        <ele>6.3</ele>
        <time>2015-03-19T12:33:33Z</time>
      </trkpt>
      <trkpt lat="38.9764140" lon="-8.9726150">
        <ele>6.4</ele>
        <time>2015-03-19T12:33:36Z</time>
      </trkpt>
      <trkpt lat="38.9767860" lon="-8.9723510">
        <ele>6.7</ele>
        <time>2015-03-19T12:33:51Z</time>
      </trkpt>
      <trkpt lat="38.9771340" lon="-8.9721060">
        <ele>7.2</ele>
        <time>2015-03-19T12:34:05Z</time>
      </trkpt>
      <trkpt lat="38.9775660" lon="-8.9718060">
        <ele>7.3</ele>
        <time>2015-03-19T12:34:22Z</time>
      </trkpt>
      <trkpt lat="38.9779820" lon="-8.9715290">
        <ele>7.4</ele>
        <time>2015-03-19T12:34:38Z</time>
      </trkpt>
      <trkpt lat="38.9783830" lon="-8.9712340">
        <ele>5.5</ele>
        <time>2015-03-19T12:34:54Z</time>
      </trkpt>
      <trkpt lat="38.9786180" lon="-8.9710410">
        <ele>5.7</ele>
        <time>2015-03-19T12:35:06Z</time>
      </trkpt>
      <trkpt lat="38.9788680" lon="-8.9708400">
        <ele>6.1</ele>
        <time>2015-03-19T12:35:22Z</time>
      </trkpt>
      <trkpt lat="38.9792130" lon="-8.9707460">
        <ele>6.0</ele>
        <time>2015-03-19T12:35:37Z</time>
      </trkpt>
      <trkpt lat="38.9795950" lon="-8.9705950">
        <ele>6.1</ele>
        <time>2015-03-19T12:35:52Z</time>
      </trkpt>
      <trkpt lat="38.9800570" lon="-8.9703310">
        <ele>6.7</ele>
        <time>2015-03-19T12:36:09Z</time>
      </trkpt>
      <trkpt lat="38.9806120" lon="-8.9702260">
        <ele>7.0</ele>
        <time>2015-03-19T12:36:28Z</time>
      </trkpt>
      <trkpt lat="38.9810420" lon="-8.9702400">
        <ele>6.5</ele>
        <time>2015-03-19T12:36:42Z</time>
      </trkpt>
      <trkpt lat="38.9816050" lon="-8.9701170">
        <ele>6.6</ele>
        <time>2015-03-19T12:37:00Z</time>
      </trkpt>
      <trkpt lat="38.9817160" lon="-8.9701350">
        <ele>6.7</ele>
        <time>2015-03-19T12:37:09Z</time>
      </trkpt>
      <trkpt lat="38.9820540" lon="-8.9699410">
        <ele>4.3</ele>
        <time>2015-03-19T12:37:21Z</time>
      </trkpt>
      <trkpt lat="38.9827320" lon="-8.9694670">
        <ele>5.3</ele>
        <time>2015-03-19T12:37:40Z</time>
      </trkpt>
      <trkpt lat="38.9834650" lon="-8.9689450">
        <ele>5.8</ele>
        <time>2015-03-19T12:38:00Z</time>
      </trkpt>
      <trkpt lat="38.9842220" lon="-8.9683940">
        <ele>5.8</ele>
        <time>2015-03-19T12:38:20Z</time>
      </trkpt>
      <trkpt lat="38.9849610" lon="-8.9678710">
        <ele>5.8</ele>
        <time>2015-03-19T12:38:40Z</time>
      </trkpt>
      <trkpt lat="38.9856900" lon="-8.9673600">
        <ele>6.0</ele>
        <time>2015-03-19T12:38:59Z</time>
      </trkpt>
      <trkpt lat="38.9864710" lon="-8.9668100">
        <ele>5.3</ele>
        <time>2015-03-19T12:39:20Z</time>
      </trkpt>
      <trkpt lat="38.9872200" lon="-8.9662850">
        <ele>5.5</ele>
        <time>2015-03-19T12:39:40Z</time>
      </trkpt>
      <trkpt lat="38.9880040" lon="-8.9657370">
        <ele>5.6</ele>
        <time>2015-03-19T12:40:01Z</time>
      </trkpt>
      <trkpt lat="38.9886870" lon="-8.9652440">
        <ele>5.2</ele>
        <time>2015-03-19T12:40:20Z</time>
      </trkpt>
      <trkpt lat="38.9889640" lon="-8.9650580">
        <ele>4.1</ele>
        <time>2015-03-19T12:40:27Z</time>
      </trkpt>
      <trkpt lat="38.9892870" lon="-8.9648730">
        <ele>3.6</ele>
        <time>2015-03-19T12:40:37Z</time>
      </trkpt>
      <trkpt lat="38.9892820" lon="-8.9647860">
        <ele>3.6</ele>
        <time>2015-03-19T12:42:26Z</time>
      </trkpt>
      <trkpt lat="38.9895780" lon="-8.9646000">
        <ele>3.6</ele>
        <time>2015-03-19T12:42:39Z</time>
      </trkpt>
      <trkpt lat="38.9900150" lon="-8.9643140">
        <ele>3.7</ele>
        <time>2015-03-19T12:42:58Z</time>
      </trkpt>
      <trkpt lat="38.9906430" lon="-8.9638290">
        <ele>4.3</ele>
        <time>2015-03-19T12:43:17Z</time>
      </trkpt>
      <trkpt lat="38.9913140" lon="-8.9632830">
        <ele>4.8</ele>
        <time>2015-03-19T12:43:36Z</time>
      </trkpt>
      <trkpt lat="38.9920780" lon="-8.9627040">
        <ele>4.7</ele>
        <time>2015-03-19T12:43:57Z</time>
      </trkpt>
      <trkpt lat="38.9929880" lon="-8.9620740">
        <ele>4.1</ele>
        <time>2015-03-19T12:44:21Z</time>
      </trkpt>
      <trkpt lat="38.9938960" lon="-8.9614470">
        <ele>4.3</ele>
        <time>2015-03-19T12:44:45Z</time>
      </trkpt>
      <trkpt lat="38.9947860" lon="-8.9608280">
        <ele>4.4</ele>
        <time>2015-03-19T12:45:08Z</time>
      </trkpt>
      <trkpt lat="38.9955630" lon="-8.9602910">
        <ele>3.6</ele>
        <time>2015-03-19T12:45:28Z</time>
      </trkpt>
      <trkpt lat="38.9963510" lon="-8.9597540">
        <ele>3.3</ele>
        <time>2015-03-19T12:45:48Z</time>
      </trkpt>
      <trkpt lat="38.9971430" lon="-8.9592050">
        <ele>3.3</ele>
        <time>2015-03-19T12:46:08Z</time>
      </trkpt>
      <trkpt lat="38.9978790" lon="-8.9586760">
        <ele>3.7</ele>
        <time>2015-03-19T12:46:27Z</time>
      </trkpt>
      <trkpt lat="38.9985490" lon="-8.9579990">
        <ele>4.6</ele>
        <time>2015-03-19T12:46:46Z</time>
      </trkpt>
      <trkpt lat="38.9992410" lon="-8.9570600">
        <ele>3.6</ele>
        <time>2015-03-19T12:47:09Z</time>
      </trkpt>
      <trkpt lat="38.9994210" lon="-8.9569380">
        <ele>4.1</ele>
        <time>2015-03-19T12:47:15Z</time>
      </trkpt>
      <trkpt lat="38.9999770" lon="-8.9561410">
        <ele>4.1</ele>
        <time>2015-03-19T12:47:35Z</time>
      </trkpt>
      <trkpt lat="39.0005620" lon="-8.9552520">
        <ele>4.2</ele>
        <time>2015-03-19T12:47:56Z</time>
      </trkpt>
      <trkpt lat="39.0006770" lon="-8.9550150">
        <ele>4.6</ele>
        <time>2015-03-19T12:48:01Z</time>
      </trkpt>
      <trkpt lat="39.0007360" lon="-8.9543250">
        <ele>5.5</ele>
        <time>2015-03-19T12:48:14Z</time>
      </trkpt>
      <trkpt lat="39.0008420" lon="-8.9540620">
        <ele>5.6</ele>
        <time>2015-03-19T12:48:20Z</time>
      </trkpt>
      <trkpt lat="39.0009560" lon="-8.9539840">
        <ele>5.4</ele>
        <time>2015-03-19T12:48:23Z</time>
      </trkpt>
      <trkpt lat="39.0010780" lon="-8.9537740">
        <ele>5.3</ele>
        <time>2015-03-19T12:48:28Z</time>
      </trkpt>
      <trkpt lat="39.0011390" lon="-8.9534960">
        <ele>4.4</ele>
        <time>2015-03-19T12:48:33Z</time>
      </trkpt>
      <trkpt lat="39.0013820" lon="-8.9524930">
        <ele>4.1</ele>
        <time>2015-03-19T12:48:52Z</time>
      </trkpt>
      <trkpt lat="39.0017460" lon="-8.9514960">
        <ele>4.1</ele>
        <time>2015-03-19T12:49:12Z</time>
      </trkpt>
      <trkpt lat="39.0021650" lon="-8.9507520">
        <ele>4.8</ele>
        <time>2015-03-19T12:49:29Z</time>
      </trkpt>
      <trkpt lat="39.0027880" lon="-8.9498960">
        <ele>5.8</ele>
        <time>2015-03-19T12:49:50Z</time>
      </trkpt>
      <trkpt lat="39.0030090" lon="-8.9495980">
        <ele>5.9</ele>
        <time>2015-03-19T12:49:57Z</time>
      </trkpt>
      <trkpt lat="39.0033770" lon="-8.9490650">
        <ele>7.1</ele>
        <time>2015-03-19T12:50:10Z</time>
      </trkpt>
      <trkpt lat="39.0037200" lon="-8.9490730">
        <ele>7.6</ele>
        <time>2015-03-19T12:50:19Z</time>
      </trkpt>
      <trkpt lat="39.0043960" lon="-8.9498660">
        <ele>6.8</ele>
        <time>2015-03-19T12:50:40Z</time>
      </trkpt>
      <trkpt lat="39.0050140" lon="-8.9505890">
        <ele>7.0</ele>
        <time>2015-03-19T12:50:59Z</time>
      </trkpt>
      <trkpt lat="39.0056330" lon="-8.9513330">
        <ele>7.3</ele>
        <time>2015-03-19T12:51:18Z</time>
      </trkpt>
      <trkpt lat="39.0061630" lon="-8.9519590">
        <ele>6.3</ele>
        <time>2015-03-19T12:51:35Z</time>
      </trkpt>
      <trkpt lat="39.0064350" lon="-8.9522580">
        <ele>6.3</ele>
        <time>2015-03-19T12:51:43Z</time>
      </trkpt>
      <trkpt lat="39.0066230" lon="-8.9525090">
        <ele>6.3</ele>
        <time>2015-03-19T12:51:49Z</time>
      </trkpt>
      <trkpt lat="39.0066910" lon="-8.9526630">
        <ele>6.2</ele>
        <time>2015-03-19T12:51:53Z</time>
      </trkpt>
      <trkpt lat="39.0066320" lon="-8.9527680">
        <ele>6.1</ele>
        <time>2015-03-19T12:51:58Z</time>
      </trkpt>
      <trkpt lat="39.0065080" lon="-8.9528510">
        <ele>6.1</ele>
        <time>2015-03-19T12:52:02Z</time>
      </trkpt>
      <trkpt lat="39.0059900" lon="-8.9532180">
        <ele>6.4</ele>
        <time>2015-03-19T12:52:18Z</time>
      </trkpt>
      <trkpt lat="39.0058710" lon="-8.9532660">
        <ele>6.3</ele>
        <time>2015-03-19T12:52:28Z</time>
      </trkpt>
      <trkpt lat="39.0059370" lon="-8.9533070">
        <ele>6.3</ele>
        <time>2015-03-19T12:53:19Z</time>
      </trkpt>
      <trkpt lat="39.0060200" lon="-8.9535180">
        <ele>6.6</ele>
        <time>2015-03-19T12:53:37Z</time>
      </trkpt>
      <trkpt lat="39.0060710" lon="-8.9536000">
        <ele>6.7</ele>
        <time>2015-03-19T12:53:52Z</time>
      </trkpt>
      <trkpt lat="39.0059610" lon="-8.9536910">
        <ele>6.5</ele>
        <time>2015-03-19T12:55:30Z</time>
      </trkpt>
      <trkpt lat="39.0060460" lon="-8.9537830">
        <ele>6.8</ele>
        <time>2015-03-19T12:55:37Z</time>
      </trkpt>
      <trkpt lat="39.0065440" lon="-8.9534180">
        <ele>7.1</ele>
        <time>2015-03-19T12:55:52Z</time>
      </trkpt>
      <trkpt lat="39.0069230" lon="-8.9531760">
        <ele>6.6</ele>
        <time>2015-03-19T12:56:02Z</time>
      </trkpt>
      <trkpt lat="39.0071840" lon="-8.9532960">
        <ele>5.7</ele>
        <time>2015-03-19T12:56:10Z</time>
      </trkpt>
      <trkpt lat="39.0075770" lon="-8.9539830">
        <ele>4.6</ele>
        <time>2015-03-19T12:56:28Z</time>
      </trkpt>
      <trkpt lat="39.0078100" lon="-8.9542690">
        <ele>4.7</ele>
        <time>2015-03-19T12:56:37Z</time>
      </trkpt>
      <trkpt lat="39.0079700" lon="-8.9545980">
        <ele>4.8</ele>
        <time>2015-03-19T12:56:44Z</time>
      </trkpt>
      <trkpt lat="39.0085610" lon="-8.9556360">
        <ele>5.6</ele>
        <time>2015-03-19T12:57:07Z</time>
      </trkpt>
      <trkpt lat="39.0088430" lon="-8.9561330">
        <ele>5.1</ele>
        <time>2015-03-19T12:57:18Z</time>
      </trkpt>
      <trkpt lat="39.0093080" lon="-8.9569490">
        <ele>5.5</ele>
        <time>2015-03-19T12:57:36Z</time>
      </trkpt>
      <trkpt lat="39.0098780" lon="-8.9577820">
        <ele>4.5</ele>
        <time>2015-03-19T12:57:55Z</time>
      </trkpt>
      <trkpt lat="39.0104810" lon="-8.9587940">
        <ele>3.8</ele>
        <time>2015-03-19T12:58:17Z</time>
      </trkpt>
      <trkpt lat="39.0108150" lon="-8.9597060">
        <ele>4.0</ele>
        <time>2015-03-19T12:58:36Z</time>
      </trkpt>
      <trkpt lat="39.0108450" lon="-8.9598580">
        <ele>4.2</ele>
        <time>2015-03-19T13:12:28Z</time>
      </trkpt>
      <trkpt lat="39.0110300" lon="-8.9604220">
        <ele>4.6</ele>
        <time>2015-03-19T13:12:42Z</time>
      </trkpt>
      <trkpt lat="39.0111850" lon="-8.9610780">
        <ele>4.4</ele>
        <time>2015-03-19T13:12:57Z</time>
      </trkpt>
      <trkpt lat="39.0112650" lon="-8.9613500">
        <ele>5.0</ele>
        <time>2015-03-19T13:13:05Z</time>
      </trkpt>
      <trkpt lat="39.0114040" lon="-8.9613290">
        <ele>4.9</ele>
        <time>2015-03-19T13:13:10Z</time>
      </trkpt>
      <trkpt lat="39.0117990" lon="-8.9611140">
        <ele>5.1</ele>
        <time>2015-03-19T13:13:22Z</time>
      </trkpt>
      <trkpt lat="39.0124180" lon="-8.9610780">
        <ele>7.3</ele>
        <time>2015-03-19T13:13:37Z</time>
      </trkpt>
      <trkpt lat="39.0126150" lon="-8.9609900">
        <ele>7.5</ele>
        <time>2015-03-19T13:13:42Z</time>
      </trkpt>
      <trkpt lat="39.0127590" lon="-8.9608690">
        <ele>7.6</ele>
        <time>2015-03-19T13:13:46Z</time>
      </trkpt>
      <trkpt lat="39.0130210" lon="-8.9603160">
        <ele>8.1</ele>
        <time>2015-03-19T13:13:59Z</time>
      </trkpt>
      <trkpt lat="39.0131940" lon="-8.9595590">
        <ele>8.6</ele>
        <time>2015-03-19T13:14:15Z</time>
      </trkpt>
      <trkpt lat="39.0133450" lon="-8.9593080">
        <ele>8.8</ele>
        <time>2015-03-19T13:14:21Z</time>
      </trkpt>
      <trkpt lat="39.0139360" lon="-8.9585260">
        <ele>5.9</ele>
        <time>2015-03-19T13:14:42Z</time>
      </trkpt>
      <trkpt lat="39.0140230" lon="-8.9584300">
        <ele>6.1</ele>
        <time>2015-03-19T13:14:45Z</time>
      </trkpt>
      <trkpt lat="39.0144510" lon="-8.9579160">
        <ele>6.4</ele>
        <time>2015-03-19T13:15:00Z</time>
      </trkpt>
      <trkpt lat="39.0150550" lon="-8.9571920">
        <ele>5.5</ele>
        <time>2015-03-19T13:15:20Z</time>
      </trkpt>
      <trkpt lat="39.0156100" lon="-8.9564760">
        <ele>5.0</ele>
        <time>2015-03-19T13:15:38Z</time>
      </trkpt>
      <trkpt lat="39.0161580" lon="-8.9558020">
        <ele>5.1</ele>
        <time>2015-03-19T13:15:56Z</time>
      </trkpt>
      <trkpt lat="39.0169210" lon="-8.9549520">
        <ele>5.6</ele>
        <time>2015-03-19T13:16:18Z</time>
      </trkpt>
      <trkpt lat="39.0175870" lon="-8.9542320">
        <ele>7.5</ele>
        <time>2015-03-19T13:16:37Z</time>
      </trkpt>
      <trkpt lat="39.0182210" lon="-8.9534800">
        <ele>7.1</ele>
        <time>2015-03-19T13:16:56Z</time>
      </trkpt>
      <trkpt lat="39.0188910" lon="-8.9526060">
        <ele>6.7</ele>
        <time>2015-03-19T13:17:17Z</time>
      </trkpt>
      <trkpt lat="39.0196260" lon="-8.9517060">
        <ele>5.9</ele>
        <time>2015-03-19T13:17:39Z</time>
      </trkpt>
      <trkpt lat="39.0199780" lon="-8.9514480">
        <ele>5.9</ele>
        <time>2015-03-19T13:17:48Z</time>
      </trkpt>
      <trkpt lat="39.0201700" lon="-8.9512260">
        <ele>5.9</ele>
        <time>2015-03-19T13:17:54Z</time>
      </trkpt>
      <trkpt lat="39.0208090" lon="-8.9504560">
        <ele>6.8</ele>
        <time>2015-03-19T13:18:14Z</time>
      </trkpt>
      <trkpt lat="39.0211270" lon="-8.9500830">
        <ele>7.3</ele>
        <time>2015-03-19T13:18:24Z</time>
      </trkpt>
      <trkpt lat="39.0212180" lon="-8.9499660">
        <ele>7.4</ele>
        <time>2015-03-19T13:18:27Z</time>
      </trkpt>
      <trkpt lat="39.0218700" lon="-8.9492010">
        <ele>8.0</ele>
        <time>2015-03-19T13:18:47Z</time>
      </trkpt>
      <trkpt lat="39.0224800" lon="-8.9484820">
        <ele>8.2</ele>
        <time>2015-03-19T13:19:06Z</time>
      </trkpt>
      <trkpt lat="39.0225450" lon="-8.9484100">
        <ele>8.1</ele>
        <time>2015-03-19T13:19:08Z</time>
      </trkpt>
      <trkpt lat="39.0231460" lon="-8.9476710">
        <ele>7.7</ele>
        <time>2015-03-19T13:19:27Z</time>
      </trkpt>
      <trkpt lat="39.0238510" lon="-8.9468300">
        <ele>7.4</ele>
        <time>2015-03-19T13:19:49Z</time>
      </trkpt>
      <trkpt lat="39.0245900" lon="-8.9459640">
        <ele>7.4</ele>
        <time>2015-03-19T13:20:11Z</time>
      </trkpt>
      <trkpt lat="39.0252170" lon="-8.9452540">
        <ele>6.8</ele>
        <time>2015-03-19T13:20:29Z</time>
      </trkpt>
      <trkpt lat="39.0258690" lon="-8.9445040">
        <ele>6.4</ele>
        <time>2015-03-19T13:20:47Z</time>
      </trkpt>
      <trkpt lat="39.0261350" lon="-8.9442250">
        <ele>6.5</ele>
        <time>2015-03-19T13:20:54Z</time>
      </trkpt>
      <trkpt lat="39.0263600" lon="-8.9441000">
        <ele>6.6</ele>
        <time>2015-03-19T13:20:59Z</time>
      </trkpt>
      <trkpt lat="39.0265960" lon="-8.9440010">
        <ele>6.7</ele>
        <time>2015-03-19T13:21:04Z</time>
      </trkpt>
      <trkpt lat="39.0273970" lon="-8.9432630">
        <ele>6.6</ele>
        <time>2015-03-19T13:21:24Z</time>
      </trkpt>
      <trkpt lat="39.0283270" lon="-8.9423840">
        <ele>5.9</ele>
        <time>2015-03-19T13:21:47Z</time>
      </trkpt>
      <trkpt lat="39.0287190" lon="-8.9420220">
        <ele>5.8</ele>
        <time>2015-03-19T13:21:57Z</time>
      </trkpt>
      <trkpt lat="39.0293170" lon="-8.9414420">
        <ele>5.6</ele>
        <time>2015-03-19T13:22:13Z</time>
      </trkpt>
      <trkpt lat="39.0295440" lon="-8.9412270">
        <ele>5.6</ele>
        <time>2015-03-19T13:22:19Z</time>
      </trkpt>
      <trkpt lat="39.0304840" lon="-8.9403440">
        <ele>6.1</ele>
        <time>2015-03-19T13:22:44Z</time>
      </trkpt>
      <trkpt lat="39.0312520" lon="-8.9396170">
        <ele>6.4</ele>
        <time>2015-03-19T13:23:04Z</time>
      </trkpt>
      <trkpt lat="39.0312910" lon="-8.9395800">
        <ele>6.4</ele>
        <time>2015-03-19T13:23:05Z</time>
      </trkpt>
      <trkpt lat="39.0320850" lon="-8.9388190">
        <ele>5.9</ele>
        <time>2015-03-19T13:23:26Z</time>
      </trkpt>
      <trkpt lat="39.0327820" lon="-8.9381610">
        <ele>5.6</ele>
        <time>2015-03-19T13:23:44Z</time>
      </trkpt>
      <trkpt lat="39.0330390" lon="-8.9379160">
        <ele>5.7</ele>
        <time>2015-03-19T13:23:51Z</time>
      </trkpt>
      <trkpt lat="39.0336710" lon="-8.9373230">
        <ele>6.2</ele>
        <time>2015-03-19T13:24:08Z</time>
      </trkpt>
      <trkpt lat="39.0344230" lon="-8.9366040">
        <ele>6.1</ele>
        <time>2015-03-19T13:24:28Z</time>
      </trkpt>
      <trkpt lat="39.0344990" lon="-8.9365370">
        <ele>6.1</ele>
        <time>2015-03-19T13:24:30Z</time>
      </trkpt>
      <trkpt lat="39.0347970" lon="-8.9366270">
        <ele>6.2</ele>
        <time>2015-03-19T13:24:38Z</time>
      </trkpt>
      <trkpt lat="39.0349150" lon="-8.9367960">
        <ele>6.5</ele>
        <time>2015-03-19T13:24:43Z</time>
      </trkpt>
      <trkpt lat="39.0349860" lon="-8.9367780">
        <ele>6.8</ele>
        <time>2015-03-19T13:24:47Z</time>
      </trkpt>
      <trkpt lat="39.0350160" lon="-8.9369880">
        <ele>7.0</ele>
        <time>2015-03-19T13:25:02Z</time>
      </trkpt>
      <trkpt lat="39.0350990" lon="-8.9370340">
        <ele>7.1</ele>
        <time>2015-03-19T13:25:08Z</time>
      </trkpt>
      <trkpt lat="39.0355140" lon="-8.9364840">
        <ele>7.7</ele>
        <time>2015-03-19T13:25:24Z</time>
      </trkpt>
      <trkpt lat="39.0358910" lon="-8.9359410">
        <ele>8.1</ele>
        <time>2015-03-19T13:25:40Z</time>
      </trkpt>
      <trkpt lat="39.0359780" lon="-8.9356760">
        <ele>8.5</ele>
        <time>2015-03-19T13:25:47Z</time>
      </trkpt>
      <trkpt lat="39.0361010" lon="-8.9355220">
        <ele>8.8</ele>
        <time>2015-03-19T13:25:52Z</time>
      </trkpt>
      <trkpt lat="39.0365820" lon="-8.9353060">
        <ele>9.8</ele>
        <time>2015-03-19T13:26:04Z</time>
      </trkpt>
      <trkpt lat="39.0369400" lon="-8.9348760">
        <ele>11.0</ele>
        <time>2015-03-19T13:26:18Z</time>
      </trkpt>
      <trkpt lat="39.0370770" lon="-8.9345330">
        <ele>11.9</ele>
        <time>2015-03-19T13:26:30Z</time>
      </trkpt>
      <trkpt lat="39.0370640" lon="-8.9344720">
        <ele>12.3</ele>
        <time>2015-03-19T13:26:40Z</time>
      </trkpt>
      <trkpt lat="39.0371290" lon="-8.9342100">
        <ele>13.7</ele>
        <time>2015-03-19T13:27:06Z</time>
      </trkpt>
      <trkpt lat="39.0372210" lon="-8.9337110">
        <ele>15.9</ele>
        <time>2015-03-19T13:27:22Z</time>
      </trkpt>
      <trkpt lat="39.0373030" lon="-8.9332890">
        <ele>16.2</ele>
        <time>2015-03-19T13:27:35Z</time>
      </trkpt>
      <trkpt lat="39.0375490" lon="-8.9328610">
        <ele>16.9</ele>
        <time>2015-03-19T13:27:52Z</time>
      </trkpt>
      <trkpt lat="39.0378770" lon="-8.9325600">
        <ele>17.9</ele>
        <time>2015-03-19T13:28:08Z</time>
      </trkpt>
      <trkpt lat="39.0382490" lon="-8.9322190">
        <ele>18.1</ele>
        <time>2015-03-19T13:28:25Z</time>
      </trkpt>
      <trkpt lat="39.0383560" lon="-8.9317990">
        <ele>16.9</ele>
        <time>2015-03-19T13:28:37Z</time>
      </trkpt>
      <trkpt lat="39.0385730" lon="-8.9315490">
        <ele>16.4</ele>
        <time>2015-03-19T13:28:46Z</time>
      </trkpt>
      <trkpt lat="39.0391820" lon="-8.9312450">
        <ele>16.2</ele>
        <time>2015-03-19T13:29:04Z</time>
      </trkpt>
      <trkpt lat="39.0392460" lon="-8.9312020">
        <ele>16.3</ele>
        <time>2015-03-19T13:29:06Z</time>
      </trkpt>
      <trkpt lat="39.0398270" lon="-8.9307200">
        <ele>17.4</ele>
        <time>2015-03-19T13:29:25Z</time>
      </trkpt>
      <trkpt lat="39.0403290" lon="-8.9300660">
        <ele>19.7</ele>
        <time>2015-03-19T13:29:44Z</time>
      </trkpt>
      <trkpt lat="39.0407980" lon="-8.9293400">
        <ele>20.7</ele>
        <time>2015-03-19T13:30:03Z</time>
      </trkpt>
      <trkpt lat="39.0411490" lon="-8.9287380">
        <ele>23.2</ele>
        <time>2015-03-19T13:30:15Z</time>
      </trkpt>
      <trkpt lat="39.0416890" lon="-8.9278350">
        <ele>25.2</ele>
        <time>2015-03-19T13:30:33Z</time>
      </trkpt>
      <trkpt lat="39.0419490" lon="-8.9273900">
        <ele>24.3</ele>
        <time>2015-03-19T13:30:41Z</time>
      </trkpt>
      <trkpt lat="39.0424040" lon="-8.9264400">
        <ele>16.3</ele>
        <time>2015-03-19T13:30:59Z</time>
      </trkpt>
      <trkpt lat="39.0428610" lon="-8.9253270">
        <ele>13.2</ele>
        <time>2015-03-19T13:31:21Z</time>
      </trkpt>
      <trkpt lat="39.0431160" lon="-8.9247070">
        <ele>14.2</ele>
        <time>2015-03-19T13:31:33Z</time>
      </trkpt>
      <trkpt lat="39.0435820" lon="-8.9236590">
        <ele>15.1</ele>
        <time>2015-03-19T13:31:54Z</time>
      </trkpt>
      <trkpt lat="39.0442300" lon="-8.9227030">
        <ele>17.5</ele>
        <time>2015-03-19T13:32:14Z</time>
      </trkpt>
      <trkpt lat="39.0450800" lon="-8.9214860">
        <ele>16.1</ele>
        <time>2015-03-19T13:32:39Z</time>
      </trkpt>
      <trkpt lat="39.0458540" lon="-8.9203560">
        <ele>14.6</ele>
        <time>2015-03-19T13:33:02Z</time>
      </trkpt>
      <trkpt lat="39.0466400" lon="-8.9192400">
        <ele>14.4</ele>
        <time>2015-03-19T13:33:25Z</time>
      </trkpt>
      <trkpt lat="39.0472840" lon="-8.9183050">
        <ele>13.7</ele>
        <time>2015-03-19T13:33:45Z</time>
      </trkpt>
      <trkpt lat="39.0480530" lon="-8.9172040">
        <ele>13.0</ele>
        <time>2015-03-19T13:34:07Z</time>
      </trkpt>
      <trkpt lat="39.0485680" lon="-8.9161790">
        <ele>12.0</ele>
        <time>2015-03-19T13:34:25Z</time>
      </trkpt>
      <trkpt lat="39.0488930" lon="-8.9150980">
        <ele>11.3</ele>
        <time>2015-03-19T13:34:43Z</time>
      </trkpt>
      <trkpt lat="39.0492040" lon="-8.9141080">
        <ele>11.3</ele>
        <time>2015-03-19T13:35:01Z</time>
      </trkpt>
      <trkpt lat="39.0495380" lon="-8.9131230">
        <ele>12.1</ele>
        <time>2015-03-19T13:35:20Z</time>
      </trkpt>
      <trkpt lat="39.0498880" lon="-8.9121600">
        <ele>11.9</ele>
        <time>2015-03-19T13:35:39Z</time>
      </trkpt>
      <trkpt lat="39.0499340" lon="-8.9120450">
        <ele>11.5</ele>
        <time>2015-03-19T13:35:41Z</time>
      </trkpt>
      <trkpt lat="39.0502890" lon="-8.9111160">
        <ele>11.0</ele>
        <time>2015-03-19T13:35:58Z</time>
      </trkpt>
      <trkpt lat="39.0506170" lon="-8.9102370">
        <ele>10.8</ele>
        <time>2015-03-19T13:36:14Z</time>
      </trkpt>
      <trkpt lat="39.0510420" lon="-8.9090980">
        <ele>10.4</ele>
        <time>2015-03-19T13:36:35Z</time>
      </trkpt>
      <trkpt lat="39.0514570" lon="-8.9079940">
        <ele>9.7</ele>
        <time>2015-03-19T13:36:55Z</time>
      </trkpt>
      <trkpt lat="39.0516850" lon="-8.9073900">
        <ele>9.5</ele>
        <time>2015-03-19T13:37:06Z</time>
      </trkpt>
      <trkpt lat="39.0518430" lon="-8.9070210">
        <ele>9.3</ele>
        <time>2015-03-19T13:37:13Z</time>
      </trkpt>
      <trkpt lat="39.0522090" lon="-8.9063360">
        <ele>9.1</ele>
        <time>2015-03-19T13:37:27Z</time>
      </trkpt>
      <trkpt lat="39.0522690" lon="-8.9062280">
        <ele>9.0</ele>
        <time>2015-03-19T13:37:29Z</time>
      </trkpt>
      <trkpt lat="39.0527730" lon="-8.9053310">
        <ele>8.3</ele>
        <time>2015-03-19T13:37:46Z</time>
      </trkpt>
      <trkpt lat="39.0532040" lon="-8.9045410">
        <ele>7.8</ele>
        <time>2015-03-19T13:38:01Z</time>
      </trkpt>
      <trkpt lat="39.0536460" lon="-8.9037300">
        <ele>7.6</ele>
        <time>2015-03-19T13:38:18Z</time>
      </trkpt>
      <trkpt lat="39.0536720" lon="-8.9036810">
        <ele>7.6</ele>
        <time>2015-03-19T13:38:19Z</time>
      </trkpt>
      <trkpt lat="39.0537290" lon="-8.9035790">
        <ele>7.4</ele>
        <time>2015-03-19T13:38:21Z</time>
      </trkpt>
      <trkpt lat="39.0542280" lon="-8.9025990">
        <ele>8.9</ele>
        <time>2015-03-19T13:38:40Z</time>
      </trkpt>
      <trkpt lat="39.0542380" lon="-8.9023000">
        <ele>9.6</ele>
        <time>2015-03-19T13:38:45Z</time>
      </trkpt>
      <trkpt lat="39.0545040" lon="-8.9018360">
        <ele>10.0</ele>
        <time>2015-03-19T13:38:55Z</time>
      </trkpt>
      <trkpt lat="39.0548630" lon="-8.9014630">
        <ele>11.0</ele>
        <time>2015-03-19T13:39:05Z</time>
      </trkpt>
      <trkpt lat="39.0554050" lon="-8.9004140">
        <ele>10.3</ele>
        <time>2015-03-19T13:39:25Z</time>
      </trkpt>
      <trkpt lat="39.0559020" lon="-8.8992680">
        <ele>9.2</ele>
        <time>2015-03-19T13:39:46Z</time>
      </trkpt>
      <trkpt lat="39.0562510" lon="-8.8981980">
        <ele>8.6</ele>
        <time>2015-03-19T13:40:05Z</time>
      </trkpt>
      <trkpt lat="39.0564800" lon="-8.8975170">
        <ele>8.2</ele>
        <time>2015-03-19T13:40:18Z</time>
      </trkpt>
      <trkpt lat="39.0567860" lon="-8.8965610">
        <ele>7.4</ele>
        <time>2015-03-19T13:40:36Z</time>
      </trkpt>
      <trkpt lat="39.0570780" lon="-8.8956550">
        <ele>6.8</ele>
        <time>2015-03-19T13:40:53Z</time>
      </trkpt>
      <trkpt lat="39.0573330" lon="-8.8948800">
        <ele>6.2</ele>
        <time>2015-03-19T13:41:09Z</time>
      </trkpt>
      <trkpt lat="39.0574640" lon="-8.8945370">
        <ele>6.3</ele>
        <time>2015-03-19T13:41:16Z</time>
      </trkpt>
      <trkpt lat="39.0575140" lon="-8.8943710">
        <ele>6.7</ele>
        <time>2015-03-19T13:41:19Z</time>
      </trkpt>
      <trkpt lat="39.0575200" lon="-8.8941470">
        <ele>6.9</ele>
        <time>2015-03-19T13:41:23Z</time>
      </trkpt>
      <trkpt lat="39.0576050" lon="-8.8938480">
        <ele>7.3</ele>
        <time>2015-03-19T13:41:29Z</time>
      </trkpt>
      <trkpt lat="39.0576990" lon="-8.8937300">
        <ele>7.5</ele>
        <time>2015-03-19T13:41:32Z</time>
      </trkpt>
      <trkpt lat="39.0579880" lon="-8.8929250">
        <ele>8.1</ele>
        <time>2015-03-19T13:41:48Z</time>
      </trkpt>
      <trkpt lat="39.0581850" lon="-8.8923910">
        <ele>7.3</ele>
        <time>2015-03-19T13:41:59Z</time>
      </trkpt>
      <trkpt lat="39.0584180" lon="-8.8916360">
        <ele>7.0</ele>
        <time>2015-03-19T13:42:14Z</time>
      </trkpt>
      <trkpt lat="39.0586590" lon="-8.8909260">
        <ele>6.7</ele>
        <time>2015-03-19T13:42:28Z</time>
      </trkpt>
      <trkpt lat="39.0589090" lon="-8.8901720">
        <ele>6.6</ele>
        <time>2015-03-19T13:42:43Z</time>
      </trkpt>
      <trkpt lat="39.0589460" lon="-8.8900670">
        <ele>6.6</ele>
        <time>2015-03-19T13:42:45Z</time>
      </trkpt>
      <trkpt lat="39.0591530" lon="-8.8894440">
        <ele>6.9</ele>
        <time>2015-03-19T13:42:57Z</time>
      </trkpt>
      <trkpt lat="39.0593670" lon="-8.8887930">
        <ele>7.0</ele>
        <time>2015-03-19T13:43:10Z</time>
      </trkpt>
      <trkpt lat="39.0596690" lon="-8.8878260">
        <ele>7.3</ele>
        <time>2015-03-19T13:43:29Z</time>
      </trkpt>
      <trkpt lat="39.0597200" lon="-8.8876710">
        <ele>7.3</ele>
        <time>2015-03-19T13:43:32Z</time>
      </trkpt>
      <trkpt lat="39.0600940" lon="-8.8866000">
        <ele>7.5</ele>
        <time>2015-03-19T13:43:53Z</time>
      </trkpt>
      <trkpt lat="39.0601290" lon="-8.8864980">
        <ele>7.5</ele>
        <time>2015-03-19T13:43:55Z</time>
      </trkpt>
      <trkpt lat="39.0605560" lon="-8.8855620">
        <ele>8.0</ele>
        <time>2015-03-19T13:44:15Z</time>
      </trkpt>
      <trkpt lat="39.0607990" lon="-8.8850820">
        <ele>8.2</ele>
        <time>2015-03-19T13:44:25Z</time>
      </trkpt>
      <trkpt lat="39.0611840" lon="-8.8844190">
        <ele>8.5</ele>
        <time>2015-03-19T13:44:40Z</time>
      </trkpt>
      <trkpt lat="39.0617150" lon="-8.8835370">
        <ele>8.7</ele>
        <time>2015-03-19T13:45:00Z</time>
      </trkpt>
      <trkpt lat="39.0623130" lon="-8.8825130">
        <ele>8.3</ele>
        <time>2015-03-19T13:45:22Z</time>
      </trkpt>
      <trkpt lat="39.0628950" lon="-8.8815450">
        <ele>7.5</ele>
        <time>2015-03-19T13:45:43Z</time>
      </trkpt>
      <trkpt lat="39.0630840" lon="-8.8812230">
        <ele>7.2</ele>
        <time>2015-03-19T13:45:50Z</time>
      </trkpt>
      <trkpt lat="39.0635150" lon="-8.8805040">
        <ele>6.9</ele>
        <time>2015-03-19T13:46:06Z</time>
      </trkpt>
      <trkpt lat="39.0639730" lon="-8.8797210">
        <ele>7.1</ele>
        <time>2015-03-19T13:46:24Z</time>
      </trkpt>
      <trkpt lat="39.0641930" lon="-8.8793160">
        <ele>7.0</ele>
        <time>2015-03-19T13:46:33Z</time>
      </trkpt>
      <trkpt lat="39.0646930" lon="-8.8785230">
        <ele>7.1</ele>
        <time>2015-03-19T13:46:51Z</time>
      </trkpt>
      <trkpt lat="39.0651530" lon="-8.8776500">
        <ele>7.4</ele>
        <time>2015-03-19T13:47:10Z</time>
      </trkpt>
      <trkpt lat="39.0655640" lon="-8.8767750">
        <ele>6.9</ele>
        <time>2015-03-19T13:47:28Z</time>
      </trkpt>
      <trkpt lat="39.0658370" lon="-8.8758950">
        <ele>6.4</ele>
        <time>2015-03-19T13:47:46Z</time>
      </trkpt>
      <trkpt lat="39.0658880" lon="-8.8752810">
        <ele>7.4</ele>
        <time>2015-03-19T13:47:59Z</time>
      </trkpt>
      <trkpt lat="39.0659760" lon="-8.8750830">
        <ele>7.9</ele>
        <time>2015-03-19T13:48:09Z</time>
      </trkpt>
      <trkpt lat="39.0660410" lon="-8.8750700">
        <ele>7.9</ele>
        <time>2015-03-19T13:48:14Z</time>
      </trkpt>
      <trkpt lat="39.0661600" lon="-8.8751190">
        <ele>8.1</ele>
        <time>2015-03-19T13:48:18Z</time>
      </trkpt>
      <trkpt lat="39.0664420" lon="-8.8754130">
        <ele>7.7</ele>
        <time>2015-03-19T13:48:27Z</time>
      </trkpt>
      <trkpt lat="39.0667730" lon="-8.8753800">
        <ele>7.9</ele>
        <time>2015-03-19T13:48:36Z</time>
      </trkpt>
      <trkpt lat="39.0669470" lon="-8.8752560">
        <ele>8.6</ele>
        <time>2015-03-19T13:48:41Z</time>
      </trkpt>
      <trkpt lat="39.0672100" lon="-8.8745950">
        <ele>10.3</ele>
        <time>2015-03-19T13:48:56Z</time>
      </trkpt>
      <trkpt lat="39.0673930" lon="-8.8739940">
        <ele>10.3</ele>
        <time>2015-03-19T13:49:11Z</time>
      </trkpt>
      <trkpt lat="39.0673970" lon="-8.8738890">
        <ele>10.3</ele>
        <time>2015-03-19T14:23:09Z</time>
      </trkpt>
      <trkpt lat="39.0675000" lon="-8.8734440">
        <ele>10.4</ele>
        <time>2015-03-19T14:23:24Z</time>
      </trkpt>
      <trkpt lat="39.0675860" lon="-8.8730070">
        <ele>10.9</ele>
        <time>2015-03-19T14:23:37Z</time>
      </trkpt>
      <trkpt lat="39.0676690" lon="-8.8725450">
        <ele>11.5</ele>
        <time>2015-03-19T14:23:51Z</time>
      </trkpt>
      <trkpt lat="39.0677940" lon="-8.8720100">
        <ele>13.3</ele>
        <time>2015-03-19T14:24:07Z</time>
      </trkpt>
      <trkpt lat="39.0679530" lon="-8.8715250">
        <ele>13.5</ele>
        <time>2015-03-19T14:24:22Z</time>
      </trkpt>
      <trkpt lat="39.0680480" lon="-8.8710350">
        <ele>14.3</ele>
        <time>2015-03-19T14:24:38Z</time>
      </trkpt>
      <trkpt lat="39.0681380" lon="-8.8705350">
        <ele>14.8</ele>
        <time>2015-03-19T14:24:52Z</time>
      </trkpt>
      <trkpt lat="39.0682960" lon="-8.8700320">
        <ele>14.6</ele>
        <time>2015-03-19T14:25:06Z</time>
      </trkpt>
      <trkpt lat="39.0684200" lon="-8.8696830">
        <ele>14.2</ele>
        <time>2015-03-19T14:25:20Z</time>
      </trkpt>
      <trkpt lat="39.0684400" lon="-8.8695420">
        <ele>13.8</ele>
        <time>2015-03-19T14:27:06Z</time>
      </trkpt>
      <trkpt lat="39.0686610" lon="-8.8688750">
        <ele>13.3</ele>
        <time>2015-03-19T14:27:24Z</time>
      </trkpt>
      <trkpt lat="39.0687830" lon="-8.8685710">
        <ele>14.3</ele>
        <time>2015-03-19T14:27:33Z</time>
      </trkpt>
      <trkpt lat="39.0688620" lon="-8.8684160">
        <ele>14.8</ele>
        <time>2015-03-19T14:29:23Z</time>
      </trkpt>
      <trkpt lat="39.0691360" lon="-8.8677410">
        <ele>17.1</ele>
        <time>2015-03-19T14:29:42Z</time>
      </trkpt>
      <trkpt lat="39.0692690" lon="-8.8673600">
        <ele>17.9</ele>
        <time>2015-03-19T14:29:53Z</time>
      </trkpt>
      <trkpt lat="39.0688650" lon="-8.8671130">
        <ele>13.9</ele>
        <time>2015-03-19T14:30:06Z</time>
      </trkpt>
      <trkpt lat="39.0687570" lon="-8.8670440">
        <ele>13.1</ele>
        <time>2015-03-19T14:30:10Z</time>
      </trkpt>
      <trkpt lat="39.0685710" lon="-8.8671420">
        <ele>12.0</ele>
        <time>2015-03-19T14:30:20Z</time>
      </trkpt>
      <trkpt lat="39.0685310" lon="-8.8669930">
        <ele>11.7</ele>
        <time>2015-03-19T14:30:27Z</time>
      </trkpt>
      <trkpt lat="39.0686650" lon="-8.8666030">
        <ele>11.5</ele>
        <time>2015-03-19T14:30:42Z</time>
      </trkpt>
      <trkpt lat="39.0686600" lon="-8.8665380">
        <ele>7.5</ele>
        <time>2015-03-19T14:30:50Z</time>
      </trkpt>
      <trkpt lat="39.0686530" lon="-8.8664470">
        <ele>7.4</ele>
        <time>2015-03-19T14:31:15Z</time>
      </trkpt>
      <trkpt lat="39.0686060" lon="-8.8664020">
        <ele>7.4</ele>
        <time>2015-03-19T14:32:21Z</time>
      </trkpt>
      <trkpt lat="39.0685590" lon="-8.8663450">
        <ele>7.5</ele>
        <time>2015-03-19T14:32:32Z</time>
      </trkpt>
      <trkpt lat="39.0684790" lon="-8.8662730">
        <ele>7.8</ele>
        <time>2015-03-19T14:32:46Z</time>
      </trkpt>
      <trkpt lat="39.0684020" lon="-8.8662900">
        <ele>8.0</ele>
        <time>2015-03-19T14:32:59Z</time>
      </trkpt>
      <trkpt lat="39.0682820" lon="-8.8662920">
        <ele>8.3</ele>
        <time>2015-03-19T14:33:20Z</time>
      </trkpt>
      <trkpt lat="39.0682170" lon="-8.8662620">
        <ele>8.3</ele>
        <time>2015-03-19T14:33:27Z</time>
      </trkpt>
      <trkpt lat="39.0682170" lon="-8.8661450">
        <ele>8.3</ele>
        <time>2015-03-19T14:33:32Z</time>
      </trkpt>
      <trkpt lat="39.0684350" lon="-8.8656430">
        <ele>8.2</ele>
        <time>2015-03-19T14:33:45Z</time>
      </trkpt>
      <trkpt lat="39.0683770" lon="-8.8655140">
        <ele>8.2</ele>
        <time>2015-03-19T14:33:48Z</time>
      </trkpt>
      <trkpt lat="39.0677740" lon="-8.8649850">
        <ele>7.7</ele>
        <time>2015-03-19T14:34:06Z</time>
      </trkpt>
      <trkpt lat="39.0671860" lon="-8.8643220">
        <ele>5.6</ele>
        <time>2015-03-19T14:34:24Z</time>
      </trkpt>
      <trkpt lat="39.0668520" lon="-8.8639430">
        <ele>4.0</ele>
        <time>2015-03-19T14:34:34Z</time>
      </trkpt>
      <trkpt lat="39.0663630" lon="-8.8633710">
        <ele>4.3</ele>
        <time>2015-03-19T14:34:49Z</time>
      </trkpt>
      <trkpt lat="39.0660640" lon="-8.8630190">
        <ele>4.4</ele>
        <time>2015-03-19T14:34:58Z</time>
      </trkpt>
      <trkpt lat="39.0654550" lon="-8.8623390">
        <ele>4.4</ele>
        <time>2015-03-19T14:35:16Z</time>
      </trkpt>
      <trkpt lat="39.0649180" lon="-8.8616890">
        <ele>4.4</ele>
        <time>2015-03-19T14:35:32Z</time>
      </trkpt>
      <trkpt lat="39.0644120" lon="-8.8611080">
        <ele>4.4</ele>
        <time>2015-03-19T14:35:47Z</time>
      </trkpt>
      <trkpt lat="39.0638660" lon="-8.8604740">
        <ele>4.5</ele>
        <time>2015-03-19T14:36:03Z</time>
      </trkpt>
      <trkpt lat="39.0632550" lon="-8.8597560">
        <ele>4.5</ele>
        <time>2015-03-19T14:36:21Z</time>
      </trkpt>
      <trkpt lat="39.0627400" lon="-8.8591440">
        <ele>4.5</ele>
        <time>2015-03-19T14:36:36Z</time>
      </trkpt>
      <trkpt lat="39.0622260" lon="-8.8585370">
        <ele>4.7</ele>
        <time>2015-03-19T14:36:51Z</time>
      </trkpt>
      <trkpt lat="39.0616280" lon="-8.8578490">
        <ele>4.8</ele>
        <time>2015-03-19T14:37:08Z</time>
      </trkpt>
      <trkpt lat="39.0609970" lon="-8.8571200">
        <ele>4.8</ele>
        <time>2015-03-19T14:37:26Z</time>
      </trkpt>
      <trkpt lat="39.0603700" lon="-8.8563870">
        <ele>4.6</ele>
        <time>2015-03-19T14:37:44Z</time>
      </trkpt>
      <trkpt lat="39.0596110" lon="-8.8554580">
        <ele>4.7</ele>
        <time>2015-03-19T14:38:06Z</time>
      </trkpt>
      <trkpt lat="39.0589890" lon="-8.8547420">
        <ele>4.3</ele>
        <time>2015-03-19T14:38:27Z</time>
      </trkpt>
      <trkpt lat="39.0586540" lon="-8.8543320">
        <ele>4.9</ele>
        <time>2015-03-19T14:38:39Z</time>
      </trkpt>
      <trkpt lat="39.0587170" lon="-8.8543180">
        <ele>5.0</ele>
        <time>2015-03-19T14:38:47Z</time>
      </trkpt>
      <trkpt lat="39.0586950" lon="-8.8542640">
        <ele>5.1</ele>
        <time>2015-03-19T14:39:47Z</time>
      </trkpt>
      <trkpt lat="39.0583780" lon="-8.8539200">
        <ele>5.5</ele>
        <time>2015-03-19T14:39:59Z</time>
      </trkpt>
      <trkpt lat="39.0583570" lon="-8.8538500">
        <ele>5.6</ele>
        <time>2015-03-19T14:40:02Z</time>
      </trkpt>
      <trkpt lat="39.0585080" lon="-8.8539070">
        <ele>6.0</ele>
        <time>2015-03-19T14:40:08Z</time>
      </trkpt>
      <trkpt lat="39.0587340" lon="-8.8538980">
        <ele>6.2</ele>
        <time>2015-03-19T14:40:15Z</time>
      </trkpt>
      <trkpt lat="39.0591030" lon="-8.8530470">
        <ele>5.9</ele>
        <time>2015-03-19T14:40:34Z</time>
      </trkpt>
      <trkpt lat="39.0595240" lon="-8.8522080">
        <ele>5.9</ele>
        <time>2015-03-19T14:40:53Z</time>
      </trkpt>
      <trkpt lat="39.0599150" lon="-8.8515700">
        <ele>5.7</ele>
        <time>2015-03-19T14:41:09Z</time>
      </trkpt>
      <trkpt lat="39.0599860" lon="-8.8514420">
        <ele>5.6</ele>
        <time>2015-03-19T14:41:12Z</time>
      </trkpt>
      <trkpt lat="39.0605160" lon="-8.8506010">
        <ele>5.4</ele>
        <time>2015-03-19T14:41:33Z</time>
      </trkpt>
      <trkpt lat="39.0609400" lon="-8.8499620">
        <ele>5.5</ele>
        <time>2015-03-19T14:41:49Z</time>
      </trkpt>
      <trkpt lat="39.0614490" lon="-8.8492580">
        <ele>5.6</ele>
        <time>2015-03-19T14:42:07Z</time>
      </trkpt>
      <trkpt lat="39.0615400" lon="-8.8491520">
        <ele>5.6</ele>
        <time>2015-03-19T14:42:10Z</time>
      </trkpt>
      <trkpt lat="39.0618100" lon="-8.8487620">
        <ele>5.4</ele>
        <time>2015-03-19T14:42:20Z</time>
      </trkpt>
      <trkpt lat="39.0619520" lon="-8.8486540">
        <ele>5.4</ele>
        <time>2015-03-19T14:42:24Z</time>
      </trkpt>
      <trkpt lat="39.0621010" lon="-8.8484980">
        <ele>5.4</ele>
        <time>2015-03-19T14:42:29Z</time>
      </trkpt>
      <trkpt lat="39.0624630" lon="-8.8480130">
        <ele>5.6</ele>
        <time>2015-03-19T14:42:43Z</time>
      </trkpt>
      <trkpt lat="39.0627380" lon="-8.8476720">
        <ele>5.6</ele>
        <time>2015-03-19T14:42:57Z</time>
      </trkpt>
      <trkpt lat="39.0628950" lon="-8.8474400">
        <ele>5.5</ele>
        <time>2015-03-19T14:43:23Z</time>
      </trkpt>
      <trkpt lat="39.0629570" lon="-8.8473530">
        <ele>5.5</ele>
        <time>2015-03-19T14:43:36Z</time>
      </trkpt>
      <trkpt lat="39.0630780" lon="-8.8472010">
        <ele>5.4</ele>
        <time>2015-03-19T14:43:55Z</time>
      </trkpt>
      <trkpt lat="39.0632760" lon="-8.8469380">
        <ele>5.4</ele>
        <time>2015-03-19T14:44:06Z</time>
      </trkpt>
      <trkpt lat="39.0636020" lon="-8.8464360">
        <ele>5.3</ele>
        <time>2015-03-19T14:44:20Z</time>
      </trkpt>
      <trkpt lat="39.0639470" lon="-8.8458540">
        <ele>5.4</ele>
        <time>2015-03-19T14:44:35Z</time>
      </trkpt>
      <trkpt lat="39.0643340" lon="-8.8451760">
        <ele>5.3</ele>
        <time>2015-03-19T14:44:52Z</time>
      </trkpt>
      <trkpt lat="39.0645730" lon="-8.8446820">
        <ele>5.3</ele>
        <time>2015-03-19T14:45:04Z</time>
      </trkpt>
      <trkpt lat="39.0648820" lon="-8.8440420">
        <ele>5.5</ele>
        <time>2015-03-19T14:45:20Z</time>
      </trkpt>
      <trkpt lat="39.0652660" lon="-8.8435920">
        <ele>5.3</ele>
        <time>2015-03-19T14:45:34Z</time>
      </trkpt>
      <trkpt lat="39.0653380" lon="-8.8432740">
        <ele>5.1</ele>
        <time>2015-03-19T14:45:40Z</time>
      </trkpt>
      <trkpt lat="39.0653340" lon="-8.8431580">
        <ele>5.0</ele>
        <time>2015-03-19T14:45:42Z</time>
      </trkpt>
      <trkpt lat="39.0653140" lon="-8.8422810">
        <ele>4.9</ele>
        <time>2015-03-19T14:46:00Z</time>
      </trkpt>
      <trkpt lat="39.0652180" lon="-8.8413510">
        <ele>5.0</ele>
        <time>2015-03-19T14:46:19Z</time>
      </trkpt>
      <trkpt lat="39.0649650" lon="-8.8404870">
        <ele>5.2</ele>
        <time>2015-03-19T14:46:37Z</time>
      </trkpt>
      <trkpt lat="39.0645450" lon="-8.8395490">
        <ele>4.9</ele>
        <time>2015-03-19T14:46:57Z</time>
      </trkpt>
      <trkpt lat="39.0642110" lon="-8.8388300">
        <ele>4.8</ele>
        <time>2015-03-19T14:47:14Z</time>
      </trkpt>
      <trkpt lat="39.0638550" lon="-8.8383350">
        <ele>4.8</ele>
        <time>2015-03-19T14:47:28Z</time>
      </trkpt>
      <trkpt lat="39.0632470" lon="-8.8376940">
        <ele>4.9</ele>
        <time>2015-03-19T14:47:47Z</time>
      </trkpt>
      <trkpt lat="39.0628210" lon="-8.8372380">
        <ele>4.9</ele>
        <time>2015-03-19T14:48:01Z</time>
      </trkpt>
      <trkpt lat="39.0624620" lon="-8.8369290">
        <ele>4.8</ele>
        <time>2015-03-19T14:48:12Z</time>
      </trkpt>
      <trkpt lat="39.0620700" lon="-8.8365580">
        <ele>4.6</ele>
        <time>2015-03-19T14:48:25Z</time>
      </trkpt>
      <trkpt lat="39.0620770" lon="-8.8362600">
        <ele>4.6</ele>
        <time>2015-03-19T14:48:36Z</time>
      </trkpt>
      <trkpt lat="39.0621200" lon="-8.8358920">
        <ele>4.6</ele>
        <time>2015-03-19T14:48:48Z</time>
      </trkpt>
      <trkpt lat="39.0620910" lon="-8.8351550">
        <ele>4.8</ele>
        <time>2015-03-19T14:49:09Z</time>
      </trkpt>
      <trkpt lat="39.0619110" lon="-8.8345760">
        <ele>5.0</ele>
        <time>2015-03-19T14:49:26Z</time>
      </trkpt>
      <trkpt lat="39.0617580" lon="-8.8340630">
        <ele>5.1</ele>
        <time>2015-03-19T14:49:40Z</time>
      </trkpt>
      <trkpt lat="39.0617280" lon="-8.8335590">
        <ele>5.2</ele>
        <time>2015-03-19T14:49:51Z</time>
      </trkpt>
      <trkpt lat="39.0613700" lon="-8.8331490">
        <ele>5.5</ele>
        <time>2015-03-19T14:50:04Z</time>
      </trkpt>
      <trkpt lat="39.0608680" lon="-8.8328390">
        <ele>5.4</ele>
        <time>2015-03-19T14:50:18Z</time>
      </trkpt>
      <trkpt lat="39.0601400" lon="-8.8324210">
        <ele>5.1</ele>
        <time>2015-03-19T14:50:37Z</time>
      </trkpt>
      <trkpt lat="39.0599550" lon="-8.8320810">
        <ele>5.0</ele>
        <time>2015-03-19T14:50:45Z</time>
      </trkpt>
      <trkpt lat="39.0600800" lon="-8.8315010">
        <ele>4.9</ele>
        <time>2015-03-19T14:50:58Z</time>
      </trkpt>
      <trkpt lat="39.0605230" lon="-8.8306870">
        <ele>4.6</ele>
        <time>2015-03-19T14:51:19Z</time>
      </trkpt>
      <trkpt lat="39.0608950" lon="-8.8301820">
        <ele>4.4</ele>
        <time>2015-03-19T14:51:35Z</time>
      </trkpt>
      <trkpt lat="39.0613410" lon="-8.8294580">
        <ele>4.6</ele>
        <time>2015-03-19T14:51:56Z</time>
      </trkpt>
      <trkpt lat="39.0612460" lon="-8.8289920">
        <ele>4.9</ele>
        <time>2015-03-19T14:52:07Z</time>
      </trkpt>
      <trkpt lat="39.0608070" lon="-8.8283040">
        <ele>5.1</ele>
        <time>2015-03-19T14:52:25Z</time>
      </trkpt>
      <trkpt lat="39.0603010" lon="-8.8275290">
        <ele>4.8</ele>
        <time>2015-03-19T14:52:44Z</time>
      </trkpt>
      <trkpt lat="39.0601180" lon="-8.8271860">
        <ele>4.7</ele>
        <time>2015-03-19T14:52:52Z</time>
      </trkpt>
      <trkpt lat="39.0599500" lon="-8.8264770">
        <ele>4.6</ele>
        <time>2015-03-19T14:53:06Z</time>
      </trkpt>
      <trkpt lat="39.0600940" lon="-8.8258320">
        <ele>4.5</ele>
        <time>2015-03-19T14:53:20Z</time>
      </trkpt>
      <trkpt lat="39.0601510" lon="-8.8257820">
        <ele>4.5</ele>
        <time>2015-03-19T14:53:28Z</time>
      </trkpt>
      <trkpt lat="39.0602200" lon="-8.8257330">
        <ele>4.5</ele>
        <time>2015-03-19T14:54:30Z</time>
      </trkpt>
      <trkpt lat="39.0606360" lon="-8.8256060">
        <ele>4.7</ele>
        <time>2015-03-19T14:54:43Z</time>
      </trkpt>
      <trkpt lat="39.0614260" lon="-8.8254770">
        <ele>5.0</ele>
        <time>2015-03-19T14:55:04Z</time>
      </trkpt>
      <trkpt lat="39.0618810" lon="-8.8253560">
        <ele>5.1</ele>
        <time>2015-03-19T14:55:16Z</time>
      </trkpt>
      <trkpt lat="39.0626250" lon="-8.8248750">
        <ele>5.1</ele>
        <time>2015-03-19T14:55:37Z</time>
      </trkpt>
      <trkpt lat="39.0632460" lon="-8.8244100">
        <ele>4.8</ele>
        <time>2015-03-19T14:55:55Z</time>
      </trkpt>
      <trkpt lat="39.0638310" lon="-8.8240250">
        <ele>4.6</ele>
        <time>2015-03-19T14:56:12Z</time>
      </trkpt>
      <trkpt lat="39.0643820" lon="-8.8235520">
        <ele>4.5</ele>
        <time>2015-03-19T14:56:30Z</time>
      </trkpt>
      <trkpt lat="39.0650390" lon="-8.8230170">
        <ele>4.7</ele>
        <time>2015-03-19T14:56:51Z</time>
      </trkpt>
      <trkpt lat="39.0657900" lon="-8.8224220">
        <ele>4.5</ele>
        <time>2015-03-19T14:57:14Z</time>
      </trkpt>
      <trkpt lat="39.0664240" lon="-8.8219040">
        <ele>4.6</ele>
        <time>2015-03-19T14:57:34Z</time>
      </trkpt>
      <trkpt lat="39.0670270" lon="-8.8212990">
        <ele>4.5</ele>
        <time>2015-03-19T14:57:55Z</time>
      </trkpt>
      <trkpt lat="39.0674280" lon="-8.8208430">
        <ele>4.5</ele>
        <time>2015-03-19T14:58:10Z</time>
      </trkpt>
      <trkpt lat="39.0678640" lon="-8.8202090">
        <ele>4.4</ele>
        <time>2015-03-19T14:58:29Z</time>
      </trkpt>
      <trkpt lat="39.0683280" lon="-8.8196110">
        <ele>4.5</ele>
        <time>2015-03-19T14:58:47Z</time>
      </trkpt>
      <trkpt lat="39.0688530" lon="-8.8187820">
        <ele>4.6</ele>
        <time>2015-03-19T14:59:09Z</time>
      </trkpt>
      <trkpt lat="39.0692330" lon="-8.8180960">
        <ele>4.4</ele>
        <time>2015-03-19T14:59:26Z</time>
      </trkpt>
      <trkpt lat="39.0697180" lon="-8.8172150">
        <ele>4.2</ele>
        <time>2015-03-19T14:59:48Z</time>
      </trkpt>
      <trkpt lat="39.0701640" lon="-8.8163620">
        <ele>4.3</ele>
        <time>2015-03-19T15:00:09Z</time>
      </trkpt>
      <trkpt lat="39.0705600" lon="-8.8154970">
        <ele>4.3</ele>
        <time>2015-03-19T15:00:30Z</time>
      </trkpt>
      <trkpt lat="39.0708850" lon="-8.8146960">
        <ele>4.3</ele>
        <time>2015-03-19T15:00:48Z</time>
      </trkpt>
      <trkpt lat="39.0712530" lon="-8.8137730">
        <ele>4.4</ele>
        <time>2015-03-19T15:01:09Z</time>
      </trkpt>
      <trkpt lat="39.0715730" lon="-8.8129640">
        <ele>4.5</ele>
        <time>2015-03-19T15:01:27Z</time>
      </trkpt>
      <trkpt lat="39.0718930" lon="-8.8121680">
        <ele>4.2</ele>
        <time>2015-03-19T15:01:45Z</time>
      </trkpt>
      <trkpt lat="39.0721650" lon="-8.8115760">
        <ele>4.1</ele>
        <time>2015-03-19T15:01:59Z</time>
      </trkpt>
      <trkpt lat="39.0723070" lon="-8.8107360">
        <ele>4.2</ele>
        <time>2015-03-19T15:02:17Z</time>
      </trkpt>
      <trkpt lat="39.0722780" lon="-8.8105280">
        <ele>4.1</ele>
        <time>2015-03-19T15:02:21Z</time>
      </trkpt>
      <trkpt lat="39.0721740" lon="-8.8101260">
        <ele>4.1</ele>
        <time>2015-03-19T15:02:29Z</time>
      </trkpt>
      <trkpt lat="39.0720320" lon="-8.8098550">
        <ele>4.1</ele>
        <time>2015-03-19T15:02:35Z</time>
      </trkpt>
      <trkpt lat="39.0717800" lon="-8.8095620">
        <ele>4.1</ele>
        <time>2015-03-19T15:02:43Z</time>
      </trkpt>
      <trkpt lat="39.0711100" lon="-8.8088780">
        <ele>3.9</ele>
        <time>2015-03-19T15:03:02Z</time>
      </trkpt>
      <trkpt lat="39.0704290" lon="-8.8081750">
        <ele>3.7</ele>
        <time>2015-03-19T15:03:21Z</time>
      </trkpt>
      <trkpt lat="39.0698050" lon="-8.8075170">
        <ele>3.7</ele>
        <time>2015-03-19T15:03:38Z</time>
      </trkpt>
      <trkpt lat="39.0694360" lon="-8.8070330">
        <ele>3.9</ele>
        <time>2015-03-19T15:03:49Z</time>
      </trkpt>
      <trkpt lat="39.0691330" lon="-8.8061490">
        <ele>5.6</ele>
        <time>2015-03-19T15:04:05Z</time>
      </trkpt>
      <trkpt lat="39.0686690" lon="-8.8057800">
        <ele>5.3</ele>
        <time>2015-03-19T15:04:19Z</time>
      </trkpt>
      <trkpt lat="39.0682010" lon="-8.8055890">
        <ele>4.7</ele>
        <time>2015-03-19T15:04:30Z</time>
      </trkpt>
      <trkpt lat="39.0674850" lon="-8.8051760">
        <ele>4.6</ele>
        <time>2015-03-19T15:04:47Z</time>
      </trkpt>
      <trkpt lat="39.0668100" lon="-8.8047540">
        <ele>4.5</ele>
        <time>2015-03-19T15:05:03Z</time>
      </trkpt>
      <trkpt lat="39.0659150" lon="-8.8042270">
        <ele>4.5</ele>
        <time>2015-03-19T15:05:24Z</time>
      </trkpt>
      <trkpt lat="39.0650570" lon="-8.8037300">
        <ele>4.5</ele>
        <time>2015-03-19T15:05:44Z</time>
      </trkpt>
      <trkpt lat="39.0642340" lon="-8.8032180">
        <ele>4.6</ele>
        <time>2015-03-19T15:06:03Z</time>
      </trkpt>
      <trkpt lat="39.0634410" lon="-8.8026220">
        <ele>4.8</ele>
        <time>2015-03-19T15:06:22Z</time>
      </trkpt>
      <trkpt lat="39.0627030" lon="-8.8020150">
        <ele>5.0</ele>
        <time>2015-03-19T15:06:40Z</time>
      </trkpt>
      <trkpt lat="39.0623800" lon="-8.8017340">
        <ele>5.2</ele>
        <time>2015-03-19T15:06:48Z</time>
      </trkpt>
      <trkpt lat="39.0615000" lon="-8.8009430">
        <ele>5.1</ele>
        <time>2015-03-19T15:07:10Z</time>
      </trkpt>
      <trkpt lat="39.0607960" lon="-8.8003030">
        <ele>5.3</ele>
        <time>2015-03-19T15:07:28Z</time>
      </trkpt>
      <trkpt lat="39.0600880" lon="-8.7995750">
        <ele>5.3</ele>
        <time>2015-03-19T15:07:47Z</time>
      </trkpt>
      <trkpt lat="39.0595210" lon="-8.7989900">
        <ele>5.4</ele>
        <time>2015-03-19T15:08:02Z</time>
      </trkpt>
      <trkpt lat="39.0595100" lon="-8.7985630">
        <ele>5.5</ele>
        <time>2015-03-19T15:08:11Z</time>
      </trkpt>
      <trkpt lat="39.0596200" lon="-8.7984090">
        <ele>5.5</ele>
        <time>2015-03-19T15:08:15Z</time>
      </trkpt>
      <trkpt lat="39.0601710" lon="-8.7976360">
        <ele>5.5</ele>
        <time>2015-03-19T15:08:35Z</time>
      </trkpt>
      <trkpt lat="39.0602900" lon="-8.7974950">
        <ele>5.6</ele>
        <time>2015-03-19T15:08:39Z</time>
      </trkpt>
      <trkpt lat="39.0609250" lon="-8.7970380">
        <ele>5.7</ele>
        <time>2015-03-19T15:08:56Z</time>
      </trkpt>
      <trkpt lat="39.0613540" lon="-8.7967970">
        <ele>5.6</ele>
        <time>2015-03-19T15:09:07Z</time>
      </trkpt>
      <trkpt lat="39.0621100" lon="-8.7963830">
        <ele>5.2</ele>
        <time>2015-03-19T15:09:26Z</time>
      </trkpt>
      <trkpt lat="39.0623980" lon="-8.7962100">
        <ele>5.1</ele>
        <time>2015-03-19T15:09:33Z</time>
      </trkpt>
      <trkpt lat="39.0630100" lon="-8.7955800">
        <ele>5.4</ele>
        <time>2015-03-19T15:09:51Z</time>
      </trkpt>
      <trkpt lat="39.0634910" lon="-8.7950110">
        <ele>5.3</ele>
        <time>2015-03-19T15:10:06Z</time>
      </trkpt>
      <trkpt lat="39.0638510" lon="-8.7942130">
        <ele>4.7</ele>
        <time>2015-03-19T15:10:23Z</time>
      </trkpt>
      <trkpt lat="39.0641910" lon="-8.7935780">
        <ele>4.9</ele>
        <time>2015-03-19T15:10:37Z</time>
      </trkpt>
      <trkpt lat="39.0646980" lon="-8.7927020">
        <ele>5.2</ele>
        <time>2015-03-19T15:10:57Z</time>
      </trkpt>
      <trkpt lat="39.0651840" lon="-8.7918450">
        <ele>4.9</ele>
        <time>2015-03-19T15:11:16Z</time>
      </trkpt>
      <trkpt lat="39.0655980" lon="-8.7910150">
        <ele>4.5</ele>
        <time>2015-03-19T15:11:34Z</time>
      </trkpt>
      <trkpt lat="39.0660690" lon="-8.7900820">
        <ele>4.7</ele>
        <time>2015-03-19T15:11:54Z</time>
      </trkpt>
      <trkpt lat="39.0664650" lon="-8.7893730">
        <ele>5.1</ele>
        <time>2015-03-19T15:12:10Z</time>
      </trkpt>
      <trkpt lat="39.0667120" lon="-8.7890170">
        <ele>4.5</ele>
        <time>2015-03-19T15:12:19Z</time>
      </trkpt>
      <trkpt lat="39.0668040" lon="-8.7888540">
        <ele>4.5</ele>
        <time>2015-03-19T15:12:28Z</time>
      </trkpt>
      <trkpt lat="39.0668940" lon="-8.7886830">
        <ele>4.5</ele>
        <time>2015-03-19T15:12:41Z</time>
      </trkpt>
      <trkpt lat="39.0670270" lon="-8.7883050">
        <ele>4.5</ele>
        <time>2015-03-19T15:14:25Z</time>
      </trkpt>
      <trkpt lat="39.0675160" lon="-8.7872830">
        <ele>3.7</ele>
        <time>2015-03-19T15:14:48Z</time>
      </trkpt>
      <trkpt lat="39.0680570" lon="-8.7863160">
        <ele>4.0</ele>
        <time>2015-03-19T15:15:10Z</time>
      </trkpt>
      <trkpt lat="39.0685010" lon="-8.7855910">
        <ele>3.8</ele>
        <time>2015-03-19T15:15:27Z</time>
      </trkpt>
      <trkpt lat="39.0688930" lon="-8.7848300">
        <ele>3.6</ele>
        <time>2015-03-19T15:15:44Z</time>
      </trkpt>
      <trkpt lat="39.0693320" lon="-8.7837300">
        <ele>5.4</ele>
        <time>2015-03-19T15:16:06Z</time>
      </trkpt>
      <trkpt lat="39.0695850" lon="-8.7831480">
        <ele>7.3</ele>
        <time>2015-03-19T15:16:21Z</time>
      </trkpt>
      <trkpt lat="39.0701890" lon="-8.7827130">
        <ele>7.4</ele>
        <time>2015-03-19T15:16:39Z</time>
      </trkpt>
      <trkpt lat="39.0707780" lon="-8.7821280">
        <ele>7.6</ele>
        <time>2015-03-19T15:16:57Z</time>
      </trkpt>
      <trkpt lat="39.0713760" lon="-8.7814500">
        <ele>7.6</ele>
        <time>2015-03-19T15:17:16Z</time>
      </trkpt>
      <trkpt lat="39.0719990" lon="-8.7811380">
        <ele>7.7</ele>
        <time>2015-03-19T15:17:32Z</time>
      </trkpt>
      <trkpt lat="39.0722480" lon="-8.7807800">
        <ele>7.2</ele>
        <time>2015-03-19T15:17:41Z</time>
      </trkpt>
      <trkpt lat="39.0722780" lon="-8.7806750">
        <ele>7.0</ele>
        <time>2015-03-19T15:17:43Z</time>
      </trkpt>
      <trkpt lat="39.0723850" lon="-8.7796580">
        <ele>5.3</ele>
        <time>2015-03-19T15:18:00Z</time>
      </trkpt>
      <trkpt lat="39.0724120" lon="-8.7794480">
        <ele>5.2</ele>
        <time>2015-03-19T15:18:03Z</time>
      </trkpt>
      <trkpt lat="39.0727540" lon="-8.7786720">
        <ele>5.6</ele>
        <time>2015-03-19T15:18:17Z</time>
      </trkpt>
      <trkpt lat="39.0730870" lon="-8.7780760">
        <ele>6.1</ele>
        <time>2015-03-19T15:18:29Z</time>
      </trkpt>
      <trkpt lat="39.0732690" lon="-8.7778920">
        <ele>6.2</ele>
        <time>2015-03-19T15:18:34Z</time>
      </trkpt>
      <trkpt lat="39.0740300" lon="-8.7778100">
        <ele>6.0</ele>
        <time>2015-03-19T15:18:50Z</time>
      </trkpt>
      <trkpt lat="39.0740800" lon="-8.7778010">
        <ele>6.0</ele>
        <time>2015-03-19T15:18:51Z</time>
      </trkpt>
      <trkpt lat="39.0741720" lon="-8.7777680">
        <ele>6.0</ele>
        <time>2015-03-19T15:18:53Z</time>
      </trkpt>
      <trkpt lat="39.0742550" lon="-8.7777200">
        <ele>6.1</ele>
        <time>2015-03-19T15:18:55Z</time>
      </trkpt>
      <trkpt lat="39.0749370" lon="-8.7770210">
        <ele>6.7</ele>
        <time>2015-03-19T15:19:14Z</time>
      </trkpt>
      <trkpt lat="39.0755210" lon="-8.7764190">
        <ele>7.2</ele>
        <time>2015-03-19T15:19:30Z</time>
      </trkpt>
      <trkpt lat="39.0760030" lon="-8.7755930">
        <ele>6.5</ele>
        <time>2015-03-19T15:19:48Z</time>
      </trkpt>
      <trkpt lat="39.0759860" lon="-8.7748630">
        <ele>6.6</ele>
        <time>2015-03-19T15:20:01Z</time>
      </trkpt>
      <trkpt lat="39.0760180" lon="-8.7745890">
        <ele>6.8</ele>
        <time>2015-03-19T15:20:06Z</time>
      </trkpt>
      <trkpt lat="39.0763930" lon="-8.7736070">
        <ele>7.2</ele>
        <time>2015-03-19T15:20:25Z</time>
      </trkpt>
      <trkpt lat="39.0767680" lon="-8.7726160">
        <ele>6.8</ele>
        <time>2015-03-19T15:20:44Z</time>
      </trkpt>
      <trkpt lat="39.0771120" lon="-8.7713310">
        <ele>6.4</ele>
        <time>2015-03-19T15:21:06Z</time>
      </trkpt>
      <trkpt lat="39.0771850" lon="-8.7701890">
        <ele>6.8</ele>
        <time>2015-03-19T15:21:25Z</time>
      </trkpt>
      <trkpt lat="39.0772610" lon="-8.7693140">
        <ele>5.6</ele>
        <time>2015-03-19T15:21:40Z</time>
      </trkpt>
      <trkpt lat="39.0773730" lon="-8.7682080">
        <ele>5.3</ele>
        <time>2015-03-19T15:21:59Z</time>
      </trkpt>
      <trkpt lat="39.0774320" lon="-8.7672120">
        <ele>5.6</ele>
        <time>2015-03-19T15:22:16Z</time>
      </trkpt>
      <trkpt lat="39.0775670" lon="-8.7663560">
        <ele>6.4</ele>
        <time>2015-03-19T15:22:31Z</time>
      </trkpt>
      <trkpt lat="39.0777980" lon="-8.7653130">
        <ele>7.2</ele>
        <time>2015-03-19T15:22:50Z</time>
      </trkpt>
      <trkpt lat="39.0780740" lon="-8.7645080">
        <ele>7.7</ele>
        <time>2015-03-19T15:23:06Z</time>
      </trkpt>
      <trkpt lat="39.0785600" lon="-8.7637750">
        <ele>8.3</ele>
        <time>2015-03-19T15:23:23Z</time>
      </trkpt>
      <trkpt lat="39.0790030" lon="-8.7631720">
        <ele>7.9</ele>
        <time>2015-03-19T15:23:40Z</time>
      </trkpt>
      <trkpt lat="39.0793400" lon="-8.7627010">
        <ele>7.1</ele>
        <time>2015-03-19T15:23:53Z</time>
      </trkpt>
      <trkpt lat="39.0794010" lon="-8.7625630">
        <ele>7.0</ele>
        <time>2015-03-19T15:23:56Z</time>
      </trkpt>
      <trkpt lat="39.0796280" lon="-8.7621410">
        <ele>7.1</ele>
        <time>2015-03-19T15:24:10Z</time>
      </trkpt>
      <trkpt lat="39.0798600" lon="-8.7617580">
        <ele>7.7</ele>
        <time>2015-03-19T15:24:25Z</time>
      </trkpt>
      <trkpt lat="39.0798810" lon="-8.7616420">
        <ele>7.8</ele>
        <time>2015-03-19T15:24:33Z</time>
      </trkpt>
      <trkpt lat="39.0799690" lon="-8.7615270">
        <ele>8.0</ele>
        <time>2015-03-19T15:44:39Z</time>
      </trkpt>
      <trkpt lat="39.0801890" lon="-8.7611780">
        <ele>8.0</ele>
        <time>2015-03-19T15:44:54Z</time>
      </trkpt>
      <trkpt lat="39.0804800" lon="-8.7607440">
        <ele>7.6</ele>
        <time>2015-03-19T15:45:10Z</time>
      </trkpt>
      <trkpt lat="39.0807500" lon="-8.7603310">
        <ele>7.5</ele>
        <time>2015-03-19T15:45:25Z</time>
      </trkpt>
      <trkpt lat="39.0811670" lon="-8.7597120">
        <ele>7.4</ele>
        <time>2015-03-19T15:45:46Z</time>
      </trkpt>
      <trkpt lat="39.0814990" lon="-8.7591410">
        <ele>7.2</ele>
        <time>2015-03-19T15:46:04Z</time>
      </trkpt>
      <trkpt lat="39.0818790" lon="-8.7585860">
        <ele>7.6</ele>
        <time>2015-03-19T15:46:21Z</time>
      </trkpt>
      <trkpt lat="39.0822300" lon="-8.7582270">
        <ele>8.1</ele>
        <time>2015-03-19T15:46:35Z</time>
      </trkpt>
      <trkpt lat="39.0825290" lon="-8.7576930">
        <ele>9.6</ele>
        <time>2015-03-19T15:46:53Z</time>
      </trkpt>
      <trkpt lat="39.0825480" lon="-8.7575560">
        <ele>9.7</ele>
        <time>2015-03-19T15:46:57Z</time>
      </trkpt>
      <trkpt lat="39.0827520" lon="-8.7572020">
        <ele>7.7</ele>
        <time>2015-03-19T15:47:12Z</time>
      </trkpt>
      <trkpt lat="39.0830010" lon="-8.7568760">
        <ele>6.6</ele>
        <time>2015-03-19T15:47:27Z</time>
      </trkpt>
      <trkpt lat="39.0831750" lon="-8.7567600">
        <ele>6.5</ele>
        <time>2015-03-19T15:48:07Z</time>
      </trkpt>
      <trkpt lat="39.0837520" lon="-8.7563860">
        <ele>5.7</ele>
        <time>2015-03-19T15:48:26Z</time>
      </trkpt>
      <trkpt lat="39.0843430" lon="-8.7559760">
        <ele>6.4</ele>
        <time>2015-03-19T15:48:46Z</time>
      </trkpt>
      <trkpt lat="39.0844110" lon="-8.7559960">
        <ele>6.4</ele>
        <time>2015-03-19T15:48:56Z</time>
      </trkpt>
      <trkpt lat="39.0845090" lon="-8.7559430">
        <ele>6.5</ele>
        <time>2015-03-19T15:49:07Z</time>
      </trkpt>
      <trkpt lat="39.0849560" lon="-8.7555910">
        <ele>6.5</ele>
        <time>2015-03-19T15:49:22Z</time>
      </trkpt>
      <trkpt lat="39.0856230" lon="-8.7551160">
        <ele>6.5</ele>
        <time>2015-03-19T15:49:41Z</time>
      </trkpt>
      <trkpt lat="39.0863340" lon="-8.7546120">
        <ele>5.5</ele>
        <time>2015-03-19T15:50:01Z</time>
      </trkpt>
      <trkpt lat="39.0871130" lon="-8.7540800">
        <ele>5.5</ele>
        <time>2015-03-19T15:50:23Z</time>
      </trkpt>
      <trkpt lat="39.0879160" lon="-8.7534660">
        <ele>5.5</ele>
        <time>2015-03-19T15:50:46Z</time>
      </trkpt>
      <trkpt lat="39.0887440" lon="-8.7528080">
        <ele>5.6</ele>
        <time>2015-03-19T15:51:10Z</time>
      </trkpt>
      <trkpt lat="39.0892910" lon="-8.7523480">
        <ele>6.3</ele>
        <time>2015-03-19T15:51:27Z</time>
      </trkpt>
      <trkpt lat="39.0897570" lon="-8.7522310">
        <ele>8.3</ele>
        <time>2015-03-19T15:51:43Z</time>
      </trkpt>
      <trkpt lat="39.0902750" lon="-8.7521050">
        <ele>6.4</ele>
        <time>2015-03-19T15:51:57Z</time>
      </trkpt>
      <trkpt lat="39.0906830" lon="-8.7517650">
        <ele>5.6</ele>
        <time>2015-03-19T15:52:10Z</time>
      </trkpt>
      <trkpt lat="39.0910910" lon="-8.7512240">
        <ele>6.3</ele>
        <time>2015-03-19T15:52:26Z</time>
      </trkpt>
      <trkpt lat="39.0912390" lon="-8.7507630">
        <ele>8.3</ele>
        <time>2015-03-19T15:52:36Z</time>
      </trkpt>
      <trkpt lat="39.0917630" lon="-8.7502670">
        <ele>8.5</ele>
        <time>2015-03-19T15:52:51Z</time>
      </trkpt>
      <trkpt lat="39.0923990" lon="-8.7498540">
        <ele>7.6</ele>
        <time>2015-03-19T15:53:08Z</time>
      </trkpt>
      <trkpt lat="39.0930400" lon="-8.7494980">
        <ele>6.8</ele>
        <time>2015-03-19T15:53:25Z</time>
      </trkpt>
      <trkpt lat="39.0933030" lon="-8.7493300">
        <ele>6.7</ele>
        <time>2015-03-19T15:53:32Z</time>
      </trkpt>
      <trkpt lat="39.0942150" lon="-8.7486930">
        <ele>7.7</ele>
        <time>2015-03-19T15:53:57Z</time>
      </trkpt>
      <trkpt lat="39.0949520" lon="-8.7480900">
        <ele>7.6</ele>
        <time>2015-03-19T15:54:17Z</time>
      </trkpt>
      <trkpt lat="39.0956730" lon="-8.7474440">
        <ele>6.6</ele>
        <time>2015-03-19T15:54:36Z</time>
      </trkpt>
      <trkpt lat="39.0964220" lon="-8.7467880">
        <ele>5.7</ele>
        <time>2015-03-19T15:54:56Z</time>
      </trkpt>
      <trkpt lat="39.0970900" lon="-8.7461750">
        <ele>5.7</ele>
        <time>2015-03-19T15:55:14Z</time>
      </trkpt>
      <trkpt lat="39.0975980" lon="-8.7457830">
        <ele>5.7</ele>
        <time>2015-03-19T15:55:27Z</time>
      </trkpt>
      <trkpt lat="39.0978560" lon="-8.7454500">
        <ele>5.7</ele>
        <time>2015-03-19T15:55:36Z</time>
      </trkpt>
      <trkpt lat="39.0982080" lon="-8.7451410">
        <ele>5.3</ele>
        <time>2015-03-19T15:55:47Z</time>
      </trkpt>
      <trkpt lat="39.0988520" lon="-8.7446160">
        <ele>5.4</ele>
        <time>2015-03-19T15:56:05Z</time>
      </trkpt>
      <trkpt lat="39.0993970" lon="-8.7441060">
        <ele>5.7</ele>
        <time>2015-03-19T15:56:22Z</time>
      </trkpt>
      <trkpt lat="39.1000790" lon="-8.7434370">
        <ele>5.7</ele>
        <time>2015-03-19T15:56:43Z</time>
      </trkpt>
      <trkpt lat="39.1002680" lon="-8.7432470">
        <ele>5.7</ele>
        <time>2015-03-19T15:56:49Z</time>
      </trkpt>
      <trkpt lat="39.1010260" lon="-8.7425840">
        <ele>4.7</ele>
        <time>2015-03-19T15:57:10Z</time>
      </trkpt>
      <trkpt lat="39.1018610" lon="-8.7418090">
        <ele>4.7</ele>
        <time>2015-03-19T15:57:32Z</time>
      </trkpt>
      <trkpt lat="39.1026380" lon="-8.7411290">
        <ele>4.7</ele>
        <time>2015-03-19T15:57:53Z</time>
      </trkpt>
      <trkpt lat="39.1033880" lon="-8.7406600">
        <ele>4.7</ele>
        <time>2015-03-19T15:58:13Z</time>
      </trkpt>
      <trkpt lat="39.1034650" lon="-8.7406230">
        <ele>4.8</ele>
        <time>2015-03-19T15:58:15Z</time>
      </trkpt>
      <trkpt lat="39.1037060" lon="-8.7405320">
        <ele>5.0</ele>
        <time>2015-03-19T15:58:21Z</time>
      </trkpt>
      <trkpt lat="39.1039390" lon="-8.7403680">
        <ele>5.6</ele>
        <time>2015-03-19T15:58:28Z</time>
      </trkpt>
      <trkpt lat="39.1046130" lon="-8.7399710">
        <ele>6.0</ele>
        <time>2015-03-19T15:58:47Z</time>
      </trkpt>
      <trkpt lat="39.1051970" lon="-8.7396890">
        <ele>4.8</ele>
        <time>2015-03-19T15:59:02Z</time>
      </trkpt>
      <trkpt lat="39.1058280" lon="-8.7394280">
        <ele>4.7</ele>
        <time>2015-03-19T15:59:18Z</time>
      </trkpt>
      <trkpt lat="39.1065410" lon="-8.7390680">
        <ele>5.9</ele>
        <time>2015-03-19T15:59:36Z</time>
      </trkpt>
      <trkpt lat="39.1070280" lon="-8.7387350">
        <ele>7.4</ele>
        <time>2015-03-19T15:59:50Z</time>
      </trkpt>
      <trkpt lat="39.1073920" lon="-8.7384500">
        <ele>8.5</ele>
        <time>2015-03-19T16:00:01Z</time>
      </trkpt>
      <trkpt lat="39.1078230" lon="-8.7381540">
        <ele>8.1</ele>
        <time>2015-03-19T16:00:12Z</time>
      </trkpt>
      <trkpt lat="39.1084470" lon="-8.7378090">
        <ele>7.5</ele>
        <time>2015-03-19T16:00:29Z</time>
      </trkpt>
      <trkpt lat="39.1089890" lon="-8.7374520">
        <ele>7.5</ele>
        <time>2015-03-19T16:00:44Z</time>
      </trkpt>
      <trkpt lat="39.1095350" lon="-8.7369850">
        <ele>7.4</ele>
        <time>2015-03-19T16:01:00Z</time>
      </trkpt>
      <trkpt lat="39.1101130" lon="-8.7364410">
        <ele>7.3</ele>
        <time>2015-03-19T16:01:18Z</time>
      </trkpt>
      <trkpt lat="39.1106570" lon="-8.7359860">
        <ele>7.3</ele>
        <time>2015-03-19T16:01:35Z</time>
      </trkpt>
      <trkpt lat="39.1114870" lon="-8.7355000">
        <ele>7.9</ele>
        <time>2015-03-19T16:01:57Z</time>
      </trkpt>
      <trkpt lat="39.1120370" lon="-8.7350890">
        <ele>8.3</ele>
        <time>2015-03-19T16:02:14Z</time>
      </trkpt>
      <trkpt lat="39.1123520" lon="-8.7348880">
        <ele>8.3</ele>
        <time>2015-03-19T16:23:08Z</time>
      </trkpt>
      <trkpt lat="39.1129090" lon="-8.7345710">
        <ele>8.2</ele>
        <time>2015-03-19T16:23:25Z</time>
      </trkpt>
      <trkpt lat="39.1135110" lon="-8.7342800">
        <ele>8.5</ele>
        <time>2015-03-19T16:23:41Z</time>
      </trkpt>
      <trkpt lat="39.1142570" lon="-8.7340910">
        <ele>8.7</ele>
        <time>2015-03-19T16:24:00Z</time>
      </trkpt>
      <trkpt lat="39.1148860" lon="-8.7339260">
        <ele>7.2</ele>
        <time>2015-03-19T16:24:16Z</time>
      </trkpt>
      <trkpt lat="39.1153010" lon="-8.7338700">
        <ele>7.1</ele>
        <time>2015-03-19T16:24:25Z</time>
      </trkpt>
      <trkpt lat="39.1162200" lon="-8.7336360">
        <ele>7.3</ele>
        <time>2015-03-19T16:24:46Z</time>
      </trkpt>
      <trkpt lat="39.1170010" lon="-8.7335440">
        <ele>6.6</ele>
        <time>2015-03-19T16:25:05Z</time>
      </trkpt>
      <trkpt lat="39.1178190" lon="-8.7334940">
        <ele>6.1</ele>
        <time>2015-03-19T16:25:24Z</time>
      </trkpt>
      <trkpt lat="39.1187140" lon="-8.7334520">
        <ele>6.1</ele>
        <time>2015-03-19T16:25:44Z</time>
      </trkpt>
      <trkpt lat="39.1194080" lon="-8.7332240">
        <ele>6.4</ele>
        <time>2015-03-19T16:26:01Z</time>
      </trkpt>
      <trkpt lat="39.1197950" lon="-8.7330250">
        <ele>6.4</ele>
        <time>2015-03-19T16:26:11Z</time>
      </trkpt>
      <trkpt lat="39.1205150" lon="-8.7326780">
        <ele>6.3</ele>
        <time>2015-03-19T16:26:30Z</time>
      </trkpt>
      <trkpt lat="39.1212220" lon="-8.7322310">
        <ele>6.3</ele>
        <time>2015-03-19T16:26:49Z</time>
      </trkpt>
      <trkpt lat="39.1220260" lon="-8.7316690">
        <ele>6.6</ele>
        <time>2015-03-19T16:27:11Z</time>
      </trkpt>
      <trkpt lat="39.1228480" lon="-8.7310230">
        <ele>6.4</ele>
        <time>2015-03-19T16:27:33Z</time>
      </trkpt>
      <trkpt lat="39.1235580" lon="-8.7303520">
        <ele>6.2</ele>
        <time>2015-03-19T16:27:53Z</time>
      </trkpt>
      <trkpt lat="39.1241220" lon="-8.7297450">
        <ele>6.1</ele>
        <time>2015-03-19T16:28:09Z</time>
      </trkpt>
      <trkpt lat="39.1246460" lon="-8.7291880">
        <ele>5.9</ele>
        <time>2015-03-19T16:28:24Z</time>
      </trkpt>
      <trkpt lat="39.1251210" lon="-8.7288420">
        <ele>5.7</ele>
        <time>2015-03-19T16:28:36Z</time>
      </trkpt>
      <trkpt lat="39.1258550" lon="-8.7286280">
        <ele>6.4</ele>
        <time>2015-03-19T16:28:53Z</time>
      </trkpt>
      <trkpt lat="39.1264600" lon="-8.7282730">
        <ele>7.8</ele>
        <time>2015-03-19T16:29:10Z</time>
      </trkpt>
      <trkpt lat="39.1271630" lon="-8.7278920">
        <ele>8.1</ele>
        <time>2015-03-19T16:29:30Z</time>
      </trkpt>
      <trkpt lat="39.1275130" lon="-8.7276680">
        <ele>7.9</ele>
        <time>2015-03-19T16:29:42Z</time>
      </trkpt>
      <trkpt lat="39.1281530" lon="-8.7275660">
        <ele>7.1</ele>
        <time>2015-03-19T16:29:58Z</time>
      </trkpt>
      <trkpt lat="39.1284770" lon="-8.7275360">
        <ele>6.7</ele>
        <time>2015-03-19T16:30:06Z</time>
      </trkpt>
      <trkpt lat="39.1289410" lon="-8.7274460">
        <ele>6.3</ele>
        <time>2015-03-19T16:30:17Z</time>
      </trkpt>
      <trkpt lat="39.1296460" lon="-8.7273020">
        <ele>6.5</ele>
        <time>2015-03-19T16:30:34Z</time>
      </trkpt>
      <trkpt lat="39.1303980" lon="-8.7272230">
        <ele>6.4</ele>
        <time>2015-03-19T16:30:52Z</time>
      </trkpt>
      <trkpt lat="39.1312450" lon="-8.7272690">
        <ele>5.7</ele>
        <time>2015-03-19T16:31:11Z</time>
      </trkpt>
      <trkpt lat="39.1316300" lon="-8.7273590">
        <ele>5.3</ele>
        <time>2015-03-19T16:31:21Z</time>
      </trkpt>
      <trkpt lat="39.1324080" lon="-8.7276370">
        <ele>4.7</ele>
        <time>2015-03-19T16:31:37Z</time>
      </trkpt>
      <trkpt lat="39.1334300" lon="-8.7278690">
        <ele>5.0</ele>
        <time>2015-03-19T16:32:00Z</time>
      </trkpt>
      <trkpt lat="39.1341180" lon="-8.7280970">
        <ele>5.3</ele>
        <time>2015-03-19T16:32:16Z</time>
      </trkpt>
      <trkpt lat="39.1344390" lon="-8.7282930">
        <ele>5.3</ele>
        <time>2015-03-19T16:32:24Z</time>
      </trkpt>
      <trkpt lat="39.1352710" lon="-8.7287240">
        <ele>4.9</ele>
        <time>2015-03-19T16:32:44Z</time>
      </trkpt>
      <trkpt lat="39.1357460" lon="-8.7289240">
        <ele>4.9</ele>
        <time>2015-03-19T16:32:55Z</time>
      </trkpt>
      <trkpt lat="39.1365780" lon="-8.7291630">
        <ele>5.3</ele>
        <time>2015-03-19T16:33:15Z</time>
      </trkpt>
      <trkpt lat="39.1366950" lon="-8.7291490">
        <ele>5.3</ele>
        <time>2015-03-19T16:33:25Z</time>
      </trkpt>
      <trkpt lat="39.1371050" lon="-8.7289760">
        <ele>5.5</ele>
        <time>2015-03-19T16:34:05Z</time>
      </trkpt>
      <trkpt lat="39.1377680" lon="-8.7287930">
        <ele>5.9</ele>
        <time>2015-03-19T16:34:21Z</time>
      </trkpt>
      <trkpt lat="39.1384440" lon="-8.7285490">
        <ele>5.3</ele>
        <time>2015-03-19T16:34:37Z</time>
      </trkpt>
      <trkpt lat="39.1394570" lon="-8.7283640">
        <ele>4.8</ele>
        <time>2015-03-19T16:34:59Z</time>
      </trkpt>
      <trkpt lat="39.1397380" lon="-8.7283060">
        <ele>5.4</ele>
        <time>2015-03-19T16:35:06Z</time>
      </trkpt>
      <trkpt lat="39.1404500" lon="-8.7278680">
        <ele>4.7</ele>
        <time>2015-03-19T16:35:25Z</time>
      </trkpt>
      <trkpt lat="39.1409170" lon="-8.7275340">
        <ele>4.9</ele>
        <time>2015-03-19T16:35:40Z</time>
      </trkpt>
      <trkpt lat="39.1409610" lon="-8.7274890">
        <ele>5.0</ele>
        <time>2015-03-19T16:37:58Z</time>
      </trkpt>
      <trkpt lat="39.1413220" lon="-8.7272160">
        <ele>5.7</ele>
        <time>2015-03-19T16:38:11Z</time>
      </trkpt>
      <trkpt lat="39.1420010" lon="-8.7268110">
        <ele>5.9</ele>
        <time>2015-03-19T16:38:29Z</time>
      </trkpt>
      <trkpt lat="39.1427730" lon="-8.7265540">
        <ele>6.3</ele>
        <time>2015-03-19T16:38:48Z</time>
      </trkpt>
      <trkpt lat="39.1435010" lon="-8.7261880">
        <ele>6.1</ele>
        <time>2015-03-19T16:39:06Z</time>
      </trkpt>
      <trkpt lat="39.1441640" lon="-8.7258880">
        <ele>6.1</ele>
        <time>2015-03-19T16:39:22Z</time>
      </trkpt>
      <trkpt lat="39.1444140" lon="-8.7257700">
        <ele>6.0</ele>
        <time>2015-03-19T16:39:28Z</time>
      </trkpt>
      <trkpt lat="39.1451690" lon="-8.7254100">
        <ele>5.0</ele>
        <time>2015-03-19T16:39:46Z</time>
      </trkpt>
      <trkpt lat="39.1459810" lon="-8.7250060">
        <ele>5.3</ele>
        <time>2015-03-19T16:40:06Z</time>
      </trkpt>
      <trkpt lat="39.1468500" lon="-8.7247130">
        <ele>5.3</ele>
        <time>2015-03-19T16:40:27Z</time>
      </trkpt>
      <trkpt lat="39.1476260" lon="-8.7244970">
        <ele>4.9</ele>
        <time>2015-03-19T16:40:46Z</time>
      </trkpt>
      <trkpt lat="39.1480160" lon="-8.7243040">
        <ele>5.7</ele>
        <time>2015-03-19T16:40:56Z</time>
      </trkpt>
      <trkpt lat="39.1484710" lon="-8.7241030">
        <ele>6.2</ele>
        <time>2015-03-19T16:41:08Z</time>
      </trkpt>
      <trkpt lat="39.1490630" lon="-8.7238160">
        <ele>6.0</ele>
        <time>2015-03-19T16:41:23Z</time>
      </trkpt>
      <trkpt lat="39.1495820" lon="-8.7235810">
        <ele>6.1</ele>
        <time>2015-03-19T16:41:37Z</time>
      </trkpt>
      <trkpt lat="39.1497830" lon="-8.7235080">
        <ele>6.3</ele>
        <time>2015-03-19T16:41:47Z</time>
      </trkpt>
      <trkpt lat="39.1498570" lon="-8.7234460">
        <ele>6.4</ele>
        <time>2015-03-19T16:42:21Z</time>
      </trkpt>
      <trkpt lat="39.1504140" lon="-8.7230850">
        <ele>6.6</ele>
        <time>2015-03-19T16:42:37Z</time>
      </trkpt>
      <trkpt lat="39.1510300" lon="-8.7227350">
        <ele>6.0</ele>
        <time>2015-03-19T16:42:53Z</time>
      </trkpt>
      <trkpt lat="39.1516830" lon="-8.7223710">
        <ele>5.8</ele>
        <time>2015-03-19T16:43:10Z</time>
      </trkpt>
      <trkpt lat="39.1524920" lon="-8.7219610">
        <ele>6.5</ele>
        <time>2015-03-19T16:43:30Z</time>
      </trkpt>
      <trkpt lat="39.1532610" lon="-8.7216440">
        <ele>7.0</ele>
        <time>2015-03-19T16:43:49Z</time>
      </trkpt>
      <trkpt lat="39.1541040" lon="-8.7213290">
        <ele>6.0</ele>
        <time>2015-03-19T16:44:09Z</time>
      </trkpt>
      <trkpt lat="39.1549290" lon="-8.7210040">
        <ele>6.5</ele>
        <time>2015-03-19T16:44:29Z</time>
      </trkpt>
      <trkpt lat="39.1555610" lon="-8.7207390">
        <ele>6.6</ele>
        <time>2015-03-19T16:44:45Z</time>
      </trkpt>
      <trkpt lat="39.1562780" lon="-8.7204890">
        <ele>6.9</ele>
        <time>2015-03-19T16:45:02Z</time>
      </trkpt>
      <trkpt lat="39.1569760" lon="-8.7202020">
        <ele>6.8</ele>
        <time>2015-03-19T16:45:19Z</time>
      </trkpt>
      <trkpt lat="39.1576790" lon="-8.7197050">
        <ele>5.9</ele>
        <time>2015-03-19T16:45:37Z</time>
      </trkpt>
      <trkpt lat="39.1578650" lon="-8.7195670">
        <ele>5.9</ele>
        <time>2015-03-19T16:45:42Z</time>
      </trkpt>
      <trkpt lat="39.1584180" lon="-8.7190980">
        <ele>5.8</ele>
        <time>2015-03-19T16:45:58Z</time>
      </trkpt>
      <trkpt lat="39.1589990" lon="-8.7185690">
        <ele>5.8</ele>
        <time>2015-03-19T16:46:15Z</time>
      </trkpt>
      <trkpt lat="39.1595420" lon="-8.7180330">
        <ele>5.6</ele>
        <time>2015-03-19T16:46:31Z</time>
      </trkpt>
      <trkpt lat="39.1601710" lon="-8.7173620">
        <ele>6.0</ele>
        <time>2015-03-19T16:46:50Z</time>
      </trkpt>
      <trkpt lat="39.1607530" lon="-8.7167200">
        <ele>6.6</ele>
        <time>2015-03-19T16:47:09Z</time>
      </trkpt>
      <trkpt lat="39.1614860" lon="-8.7160400">
        <ele>6.7</ele>
        <time>2015-03-19T16:47:31Z</time>
      </trkpt>
      <trkpt lat="39.1619340" lon="-8.7155590">
        <ele>6.6</ele>
        <time>2015-03-19T16:47:46Z</time>
      </trkpt>
      <trkpt lat="39.1623330" lon="-8.7151180">
        <ele>7.1</ele>
        <time>2015-03-19T16:48:00Z</time>
      </trkpt>
      <trkpt lat="39.1627950" lon="-8.7146970">
        <ele>7.0</ele>
        <time>2015-03-19T16:48:14Z</time>
      </trkpt>
      <trkpt lat="39.1632110" lon="-8.7142790">
        <ele>6.4</ele>
        <time>2015-03-19T16:48:27Z</time>
      </trkpt>
      <trkpt lat="39.1637050" lon="-8.7137720">
        <ele>6.1</ele>
        <time>2015-03-19T16:48:43Z</time>
      </trkpt>
      <trkpt lat="39.1642020" lon="-8.7132840">
        <ele>6.1</ele>
        <time>2015-03-19T16:48:58Z</time>
      </trkpt>
      <trkpt lat="39.1646120" lon="-8.7128900">
        <ele>6.1</ele>
        <time>2015-03-19T16:49:11Z</time>
      </trkpt>
      <trkpt lat="39.1651350" lon="-8.7123790">
        <ele>6.2</ele>
        <time>2015-03-19T16:49:27Z</time>
      </trkpt>
      <trkpt lat="39.1656300" lon="-8.7118900">
        <ele>6.1</ele>
        <time>2015-03-19T16:49:42Z</time>
      </trkpt>
      <trkpt lat="39.1661840" lon="-8.7113390">
        <ele>6.6</ele>
        <time>2015-03-19T16:49:59Z</time>
      </trkpt>
      <trkpt lat="39.1666820" lon="-8.7108780">
        <ele>6.8</ele>
        <time>2015-03-19T16:50:14Z</time>
      </trkpt>
      <trkpt lat="39.1671020" lon="-8.7105190">
        <ele>7.0</ele>
        <time>2015-03-19T16:50:29Z</time>
      </trkpt>
      <trkpt lat="39.1672790" lon="-8.7103610">
        <ele>7.0</ele>
        <time>2015-03-19T16:51:15Z</time>
      </trkpt>
      <trkpt lat="39.1678850" lon="-8.7098000">
        <ele>6.9</ele>
        <time>2015-03-19T16:51:34Z</time>
      </trkpt>
      <trkpt lat="39.1685690" lon="-8.7091640">
        <ele>6.9</ele>
        <time>2015-03-19T16:51:55Z</time>
      </trkpt>
      <trkpt lat="39.1689010" lon="-8.7088640">
        <ele>6.8</ele>
        <time>2015-03-19T16:52:05Z</time>
      </trkpt>
      <trkpt lat="39.1695090" lon="-8.7082760">
        <ele>6.5</ele>
        <time>2015-03-19T16:52:24Z</time>
      </trkpt>
      <trkpt lat="39.1699860" lon="-8.7078390">
        <ele>6.0</ele>
        <time>2015-03-19T16:52:38Z</time>
      </trkpt>
      <trkpt lat="39.1705660" lon="-8.7073020">
        <ele>5.7</ele>
        <time>2015-03-19T16:52:55Z</time>
      </trkpt>
      <trkpt lat="39.1707280" lon="-8.7071470">
        <ele>5.6</ele>
        <time>2015-03-19T16:53:00Z</time>
      </trkpt>
      <trkpt lat="39.1713020" lon="-8.7066280">
        <ele>5.5</ele>
        <time>2015-03-19T16:53:17Z</time>
      </trkpt>
      <trkpt lat="39.1719130" lon="-8.7060670">
        <ele>5.9</ele>
        <time>2015-03-19T16:53:36Z</time>
      </trkpt>
      <trkpt lat="39.1722360" lon="-8.7057070">
        <ele>6.3</ele>
        <time>2015-03-19T16:53:47Z</time>
      </trkpt>
      <trkpt lat="39.1723510" lon="-8.7055430">
        <ele>6.2</ele>
        <time>2015-03-19T16:53:51Z</time>
      </trkpt>
      <trkpt lat="39.1729300" lon="-8.7049110">
        <ele>6.2</ele>
        <time>2015-03-19T16:54:10Z</time>
      </trkpt>
      <trkpt lat="39.1733110" lon="-8.7044330">
        <ele>6.6</ele>
        <time>2015-03-19T16:54:23Z</time>
      </trkpt>
      <trkpt lat="39.1735620" lon="-8.7044140">
        <ele>6.6</ele>
        <time>2015-03-19T16:54:30Z</time>
      </trkpt>
      <trkpt lat="39.1736770" lon="-8.7045670">
        <ele>6.6</ele>
        <time>2015-03-19T16:54:34Z</time>
      </trkpt>
      <trkpt lat="39.1738570" lon="-8.7046660">
        <ele>6.6</ele>
        <time>2015-03-19T16:54:39Z</time>
      </trkpt>
      <trkpt lat="39.1745740" lon="-8.7047530">
        <ele>6.5</ele>
        <time>2015-03-19T16:54:57Z</time>
      </trkpt>
      <trkpt lat="39.1751970" lon="-8.7048270">
        <ele>6.6</ele>
        <time>2015-03-19T16:55:13Z</time>
      </trkpt>
      <trkpt lat="39.1756180" lon="-8.7048820">
        <ele>7.1</ele>
        <time>2015-03-19T16:55:28Z</time>
      </trkpt>
      <trkpt lat="39.1756820" lon="-8.7048940">
        <ele>7.2</ele>
        <time>2015-03-19T16:55:55Z</time>
      </trkpt>
      <trkpt lat="39.1760390" lon="-8.7049480">
        <ele>7.3</ele>
        <time>2015-03-19T16:56:06Z</time>
      </trkpt>
      <trkpt lat="39.1765280" lon="-8.7048000">
        <ele>6.3</ele>
        <time>2015-03-19T16:56:19Z</time>
      </trkpt>
      <trkpt lat="39.1770340" lon="-8.7044830">
        <ele>5.6</ele>
        <time>2015-03-19T16:56:33Z</time>
      </trkpt>
      <trkpt lat="39.1776770" lon="-8.7042350">
        <ele>5.8</ele>
        <time>2015-03-19T16:56:50Z</time>
      </trkpt>
      <trkpt lat="39.1783220" lon="-8.7037750">
        <ele>5.5</ele>
        <time>2015-03-19T16:57:10Z</time>
      </trkpt>
      <trkpt lat="39.1788930" lon="-8.7033460">
        <ele>5.5</ele>
        <time>2015-03-19T16:57:27Z</time>
      </trkpt>
      <trkpt lat="39.1794630" lon="-8.7028840">
        <ele>5.4</ele>
        <time>2015-03-19T16:57:44Z</time>
      </trkpt>
      <trkpt lat="39.1797830" lon="-8.7026810">
        <ele>5.4</ele>
        <time>2015-03-19T16:57:53Z</time>
      </trkpt>
      <trkpt lat="39.1803010" lon="-8.7025950">
        <ele>5.5</ele>
        <time>2015-03-19T16:58:07Z</time>
      </trkpt>
      <trkpt lat="39.1806240" lon="-8.7021240">
        <ele>5.6</ele>
        <time>2015-03-19T16:58:22Z</time>
      </trkpt>
      <trkpt lat="39.1810960" lon="-8.7016040">
        <ele>5.6</ele>
        <time>2015-03-19T16:58:40Z</time>
      </trkpt>
      <trkpt lat="39.1816250" lon="-8.7011790">
        <ele>5.8</ele>
        <time>2015-03-19T16:58:56Z</time>
      </trkpt>
      <trkpt lat="39.1819010" lon="-8.7009760">
        <ele>5.8</ele>
        <time>2015-03-19T16:59:04Z</time>
      </trkpt>
      <trkpt lat="39.1824250" lon="-8.7005020">
        <ele>5.9</ele>
        <time>2015-03-19T16:59:21Z</time>
      </trkpt>
      <trkpt lat="39.1828760" lon="-8.7000410">
        <ele>6.0</ele>
        <time>2015-03-19T16:59:36Z</time>
      </trkpt>
      <trkpt lat="39.1833960" lon="-8.6995790">
        <ele>6.0</ele>
        <time>2015-03-19T16:59:53Z</time>
      </trkpt>
      <trkpt lat="39.1839410" lon="-8.6991850">
        <ele>6.1</ele>
        <time>2015-03-19T17:00:10Z</time>
      </trkpt>
      <trkpt lat="39.1846160" lon="-8.6988400">
        <ele>6.2</ele>
        <time>2015-03-19T17:00:28Z</time>
      </trkpt>
      <trkpt lat="39.1850130" lon="-8.6986270">
        <ele>6.3</ele>
        <time>2015-03-19T17:00:39Z</time>
      </trkpt>
      <trkpt lat="39.1851580" lon="-8.6985550">
        <ele>6.3</ele>
        <time>2015-03-19T17:00:43Z</time>
      </trkpt>
      <trkpt lat="39.1858170" lon="-8.6981750">
        <ele>6.4</ele>
        <time>2015-03-19T17:01:02Z</time>
      </trkpt>
      <trkpt lat="39.1863910" lon="-8.6978410">
        <ele>6.5</ele>
        <time>2015-03-19T17:01:18Z</time>
      </trkpt>
      <trkpt lat="39.1870440" lon="-8.6974580">
        <ele>6.7</ele>
        <time>2015-03-19T17:01:36Z</time>
      </trkpt>
      <trkpt lat="39.1872680" lon="-8.6973290">
        <ele>6.7</ele>
        <time>2015-03-19T17:01:42Z</time>
      </trkpt>
      <trkpt lat="39.1878070" lon="-8.6969750">
        <ele>6.8</ele>
        <time>2015-03-19T17:01:57Z</time>
      </trkpt>
      <trkpt lat="39.1884510" lon="-8.6965000">
        <ele>6.9</ele>
        <time>2015-03-19T17:02:16Z</time>
      </trkpt>
      <trkpt lat="39.1891020" lon="-8.6962960">
        <ele>7.0</ele>
        <time>2015-03-19T17:02:33Z</time>
      </trkpt>
      <trkpt lat="39.1896260" lon="-8.6961640">
        <ele>7.1</ele>
        <time>2015-03-19T17:02:47Z</time>
      </trkpt>
      <trkpt lat="39.1901370" lon="-8.6959080">
        <ele>7.5</ele>
        <time>2015-03-19T17:03:02Z</time>
      </trkpt>
      <trkpt lat="39.1907540" lon="-8.6955710">
        <ele>7.5</ele>
        <time>2015-03-19T17:03:19Z</time>
      </trkpt>
      <trkpt lat="39.1913650" lon="-8.6952170">
        <ele>7.3</ele>
        <time>2015-03-19T17:03:36Z</time>
      </trkpt>
      <trkpt lat="39.1920590" lon="-8.6948930">
        <ele>7.6</ele>
        <time>2015-03-19T17:03:55Z</time>
      </trkpt>
      <trkpt lat="39.1923590" lon="-8.6946380">
        <ele>7.7</ele>
        <time>2015-03-19T17:04:04Z</time>
      </trkpt>
      <trkpt lat="39.1929740" lon="-8.6941410">
        <ele>7.4</ele>
        <time>2015-03-19T17:04:22Z</time>
      </trkpt>
      <trkpt lat="39.1934900" lon="-8.6938600">
        <ele>6.7</ele>
        <time>2015-03-19T17:04:36Z</time>
      </trkpt>
      <trkpt lat="39.1942370" lon="-8.6935140">
        <ele>7.1</ele>
        <time>2015-03-19T17:04:56Z</time>
      </trkpt>
      <trkpt lat="39.1949290" lon="-8.6931620">
        <ele>7.2</ele>
        <time>2015-03-19T17:05:15Z</time>
      </trkpt>
      <trkpt lat="39.1955370" lon="-8.6928240">
        <ele>7.8</ele>
        <time>2015-03-19T17:05:32Z</time>
      </trkpt>
      <trkpt lat="39.1959810" lon="-8.6925630">
        <ele>7.6</ele>
        <time>2015-03-19T17:05:44Z</time>
      </trkpt>
      <trkpt lat="39.1965590" lon="-8.6922100">
        <ele>7.8</ele>
        <time>2015-03-19T17:06:00Z</time>
      </trkpt>
      <trkpt lat="39.1971530" lon="-8.6918580">
        <ele>7.9</ele>
        <time>2015-03-19T17:06:16Z</time>
      </trkpt>
      <trkpt lat="39.1977940" lon="-8.6914670">
        <ele>8.1</ele>
        <time>2015-03-19T17:06:33Z</time>
      </trkpt>
      <trkpt lat="39.1983930" lon="-8.6910940">
        <ele>7.7</ele>
        <time>2015-03-19T17:06:49Z</time>
      </trkpt>
      <trkpt lat="39.1988640" lon="-8.6908880">
        <ele>8.0</ele>
        <time>2015-03-19T17:07:02Z</time>
      </trkpt>
      <trkpt lat="39.1994320" lon="-8.6905390">
        <ele>8.6</ele>
        <time>2015-03-19T17:07:18Z</time>
      </trkpt>
      <trkpt lat="39.1999830" lon="-8.6899190">
        <ele>8.9</ele>
        <time>2015-03-19T17:07:36Z</time>
      </trkpt>
      <trkpt lat="39.2004680" lon="-8.6893450">
        <ele>9.0</ele>
        <time>2015-03-19T17:07:52Z</time>
      </trkpt>
      <trkpt lat="39.2009110" lon="-8.6888150">
        <ele>9.1</ele>
        <time>2015-03-19T17:08:07Z</time>
      </trkpt>
      <trkpt lat="39.2013480" lon="-8.6883330">
        <ele>9.3</ele>
        <time>2015-03-19T17:08:22Z</time>
      </trkpt>
      <trkpt lat="39.2015340" lon="-8.6880990">
        <ele>9.3</ele>
        <time>2015-03-19T17:08:35Z</time>
      </trkpt>
      <trkpt lat="39.2014430" lon="-8.6880380">
        <ele>9.5</ele>
        <time>2015-03-19T17:22:43Z</time>
      </trkpt>
      <trkpt lat="39.2012440" lon="-8.6877000">
        <ele>10.1</ele>
        <time>2015-03-19T17:22:57Z</time>
      </trkpt>
      <trkpt lat="39.2009560" lon="-8.6872420">
        <ele>10.4</ele>
        <time>2015-03-19T17:23:13Z</time>
      </trkpt>
      <trkpt lat="39.2009540" lon="-8.6871410">
        <ele>10.4</ele>
        <time>2015-03-19T17:23:16Z</time>
      </trkpt>
      <trkpt lat="39.2010770" lon="-8.6870890">
        <ele>10.2</ele>
        <time>2015-03-19T17:23:21Z</time>
      </trkpt>
      <trkpt lat="39.2016190" lon="-8.6872060">
        <ele>10.1</ele>
        <time>2015-03-19T17:23:36Z</time>
      </trkpt>
      <trkpt lat="39.2022120" lon="-8.6872620">
        <ele>9.8</ele>
        <time>2015-03-19T17:23:52Z</time>
      </trkpt>
      <trkpt lat="39.2028250" lon="-8.6872950">
        <ele>10.0</ele>
        <time>2015-03-19T17:24:09Z</time>
      </trkpt>
      <trkpt lat="39.2035450" lon="-8.6873210">
        <ele>10.1</ele>
        <time>2015-03-19T17:24:27Z</time>
      </trkpt>
      <trkpt lat="39.2042910" lon="-8.6871710">
        <ele>10.1</ele>
        <time>2015-03-19T17:24:46Z</time>
      </trkpt>
      <trkpt lat="39.2047610" lon="-8.6869670">
        <ele>10.2</ele>
        <time>2015-03-19T17:24:59Z</time>
      </trkpt>
      <trkpt lat="39.2054990" lon="-8.6866480">
        <ele>10.2</ele>
        <time>2015-03-19T17:25:18Z</time>
      </trkpt>
      <trkpt lat="39.2062020" lon="-8.6863430">
        <ele>10.3</ele>
        <time>2015-03-19T17:25:36Z</time>
      </trkpt>
      <trkpt lat="39.2069690" lon="-8.6860030">
        <ele>10.3</ele>
        <time>2015-03-19T17:25:56Z</time>
      </trkpt>
      <trkpt lat="39.2075730" lon="-8.6857380">
        <ele>10.3</ele>
        <time>2015-03-19T17:26:12Z</time>
      </trkpt>
      <trkpt lat="39.2083470" lon="-8.6854090">
        <ele>10.3</ele>
        <time>2015-03-19T17:26:32Z</time>
      </trkpt>
      <trkpt lat="39.2090930" lon="-8.6850840">
        <ele>11.3</ele>
        <time>2015-03-19T17:26:51Z</time>
      </trkpt>
      <trkpt lat="39.2098670" lon="-8.6847570">
        <ele>10.2</ele>
        <time>2015-03-19T17:27:11Z</time>
      </trkpt>
      <trkpt lat="39.2101950" lon="-8.6845920">
        <ele>9.8</ele>
        <time>2015-03-19T17:27:20Z</time>
      </trkpt>
      <trkpt lat="39.2107070" lon="-8.6839460">
        <ele>8.8</ele>
        <time>2015-03-19T17:27:39Z</time>
      </trkpt>
      <trkpt lat="39.2112510" lon="-8.6832500">
        <ele>8.0</ele>
        <time>2015-03-19T17:27:58Z</time>
      </trkpt>
      <trkpt lat="39.2119400" lon="-8.6826340">
        <ele>8.1</ele>
        <time>2015-03-19T17:28:18Z</time>
      </trkpt>
      <trkpt lat="39.2127090" lon="-8.6820750">
        <ele>8.9</ele>
        <time>2015-03-19T17:28:39Z</time>
      </trkpt>
      <trkpt lat="39.2128730" lon="-8.6820210">
        <ele>9.0</ele>
        <time>2015-03-19T17:28:43Z</time>
      </trkpt>
      <trkpt lat="39.2132080" lon="-8.6820930">
        <ele>8.9</ele>
        <time>2015-03-19T17:28:51Z</time>
      </trkpt>
      <trkpt lat="39.2138680" lon="-8.6825740">
        <ele>9.1</ele>
        <time>2015-03-19T17:29:10Z</time>
      </trkpt>
      <trkpt lat="39.2145260" lon="-8.6828860">
        <ele>9.9</ele>
        <time>2015-03-19T17:29:28Z</time>
      </trkpt>
      <trkpt lat="39.2152880" lon="-8.6829140">
        <ele>10.4</ele>
        <time>2015-03-19T17:29:47Z</time>
      </trkpt>
      <trkpt lat="39.2159700" lon="-8.6830300">
        <ele>12.1</ele>
        <time>2015-03-19T17:30:04Z</time>
      </trkpt>
      <trkpt lat="39.2164140" lon="-8.6830510">
        <ele>13.4</ele>
        <time>2015-03-19T17:30:15Z</time>
      </trkpt>
      <trkpt lat="39.2169940" lon="-8.6828360">
        <ele>13.8</ele>
        <time>2015-03-19T17:30:30Z</time>
      </trkpt>
      <trkpt lat="39.2175950" lon="-8.6824010">
        <ele>14.8</ele>
        <time>2015-03-19T17:30:47Z</time>
      </trkpt>
      <trkpt lat="39.2177090" lon="-8.6823990">
        <ele>15.0</ele>
        <time>2015-03-19T17:30:50Z</time>
      </trkpt>
      <trkpt lat="39.2182000" lon="-8.6827850">
        <ele>17.9</ele>
        <time>2015-03-19T17:31:05Z</time>
      </trkpt>
      <trkpt lat="39.2186000" lon="-8.6829950">
        <ele>20.4</ele>
        <time>2015-03-19T17:31:21Z</time>
      </trkpt>
      <trkpt lat="39.2190390" lon="-8.6831880">
        <ele>22.8</ele>
        <time>2015-03-19T17:31:39Z</time>
      </trkpt>
      <trkpt lat="39.2194510" lon="-8.6831770">
        <ele>25.0</ele>
        <time>2015-03-19T17:31:56Z</time>
      </trkpt>
      <trkpt lat="39.2198050" lon="-8.6830600">
        <ele>26.7</ele>
        <time>2015-03-19T17:32:12Z</time>
      </trkpt>
      <trkpt lat="39.2202380" lon="-8.6829970">
        <ele>28.8</ele>
        <time>2015-03-19T17:32:30Z</time>
      </trkpt>
      <trkpt lat="39.2206030" lon="-8.6830150">
        <ele>30.3</ele>
        <time>2015-03-19T17:32:47Z</time>
      </trkpt>
      <trkpt lat="39.2209290" lon="-8.6831040">
        <ele>31.1</ele>
        <time>2015-03-19T17:33:03Z</time>
      </trkpt>
      <trkpt lat="39.2212670" lon="-8.6832260">
        <ele>32.5</ele>
        <time>2015-03-19T17:33:19Z</time>
      </trkpt>
      <trkpt lat="39.2216230" lon="-8.6833710">
        <ele>33.7</ele>
        <time>2015-03-19T17:33:37Z</time>
      </trkpt>
      <trkpt lat="39.2219370" lon="-8.6834250">
        <ele>35.4</ele>
        <time>2015-03-19T17:33:53Z</time>
      </trkpt>
      <trkpt lat="39.2223090" lon="-8.6833420">
        <ele>38.4</ele>
        <time>2015-03-19T17:34:11Z</time>
      </trkpt>
      <trkpt lat="39.2226630" lon="-8.6831840">
        <ele>41.1</ele>
        <time>2015-03-19T17:34:30Z</time>
      </trkpt>
      <trkpt lat="39.2229900" lon="-8.6830160">
        <ele>44.9</ele>
        <time>2015-03-19T17:34:48Z</time>
      </trkpt>
      <trkpt lat="39.2233300" lon="-8.6828440">
        <ele>47.8</ele>
        <time>2015-03-19T17:35:07Z</time>
      </trkpt>
      <trkpt lat="39.2236270" lon="-8.6827120">
        <ele>49.1</ele>
        <time>2015-03-19T17:35:24Z</time>
      </trkpt>
      <trkpt lat="39.2238940" lon="-8.6825970">
        <ele>49.9</ele>
        <time>2015-03-19T17:35:41Z</time>
      </trkpt>
      <trkpt lat="39.2241610" lon="-8.6825030">
        <ele>50.7</ele>
        <time>2015-03-19T17:35:56Z</time>
      </trkpt>
      <trkpt lat="39.2244090" lon="-8.6824390">
        <ele>51.8</ele>
        <time>2015-03-19T17:36:11Z</time>
      </trkpt>
      <trkpt lat="39.2248020" lon="-8.6824450">
        <ele>55.3</ele>
        <time>2015-03-19T17:36:30Z</time>
      </trkpt>
      <trkpt lat="39.2249740" lon="-8.6825410">
        <ele>57.2</ele>
        <time>2015-03-19T17:37:17Z</time>
      </trkpt>
      <trkpt lat="39.2253100" lon="-8.6825700">
        <ele>59.8</ele>
        <time>2015-03-19T17:37:32Z</time>
      </trkpt>
      <trkpt lat="39.2253790" lon="-8.6825470">
        <ele>60.3</ele>
        <time>2015-03-19T17:37:36Z</time>
      </trkpt>
      <trkpt lat="39.2256400" lon="-8.6824710">
        <ele>61.9</ele>
        <time>2015-03-19T17:37:52Z</time>
      </trkpt>
      <trkpt lat="39.2259170" lon="-8.6824190">
        <ele>63.1</ele>
        <time>2015-03-19T17:38:09Z</time>
      </trkpt>
      <trkpt lat="39.2261300" lon="-8.6823840">
        <ele>63.5</ele>
        <time>2015-03-19T17:38:22Z</time>
      </trkpt>
      <trkpt lat="39.2263740" lon="-8.6823540">
        <ele>64.0</ele>
        <time>2015-03-19T17:38:37Z</time>
      </trkpt>
      <trkpt lat="39.2266360" lon="-8.6823380">
        <ele>64.5</ele>
        <time>2015-03-19T17:38:53Z</time>
      </trkpt>
      <trkpt lat="39.2269280" lon="-8.6824170">
        <ele>65.7</ele>
        <time>2015-03-19T17:39:10Z</time>
      </trkpt>
      <trkpt lat="39.2272960" lon="-8.6827640">
        <ele>68.3</ele>
        <time>2015-03-19T17:39:29Z</time>
      </trkpt>
      <trkpt lat="39.2276280" lon="-8.6830750">
        <ele>70.8</ele>
        <time>2015-03-19T17:39:49Z</time>
      </trkpt>
      <trkpt lat="39.2278490" lon="-8.6832740">
        <ele>72.8</ele>
        <time>2015-03-19T17:40:03Z</time>
      </trkpt>
      <trkpt lat="39.2281850" lon="-8.6835150">
        <ele>75.7</ele>
        <time>2015-03-19T17:40:23Z</time>
      </trkpt>
      <trkpt lat="39.2284740" lon="-8.6837600">
        <ele>78.6</ele>
        <time>2015-03-19T17:40:43Z</time>
      </trkpt>
      <trkpt lat="39.2286770" lon="-8.6840260">
        <ele>80.7</ele>
        <time>2015-03-19T17:41:01Z</time>
      </trkpt>
      <trkpt lat="39.2288330" lon="-8.6842330">
        <ele>82.1</ele>
        <time>2015-03-19T17:41:16Z</time>
      </trkpt>
      <trkpt lat="39.2288800" lon="-8.6842980">
        <ele>82.6</ele>
        <time>2015-03-19T17:41:21Z</time>
      </trkpt>
      <trkpt lat="39.2290360" lon="-8.6845630">
        <ele>85.2</ele>
        <time>2015-03-19T17:41:39Z</time>
      </trkpt>
      <trkpt lat="39.2291560" lon="-8.6848180">
        <ele>89.7</ele>
        <time>2015-03-19T17:41:56Z</time>
      </trkpt>
      <trkpt lat="39.2292710" lon="-8.6850360">
        <ele>89.5</ele>
        <time>2015-03-19T17:42:12Z</time>
      </trkpt>
      <trkpt lat="39.2293900" lon="-8.6852380">
        <ele>90.7</ele>
        <time>2015-03-19T17:42:27Z</time>
      </trkpt>
      <trkpt lat="39.2294860" lon="-8.6853610">
        <ele>92.0</ele>
        <time>2015-03-19T17:42:38Z</time>
      </trkpt>
      <trkpt lat="39.2296580" lon="-8.6854620">
        <ele>93.3</ele>
        <time>2015-03-19T17:42:53Z</time>
      </trkpt>
      <trkpt lat="39.2298200" lon="-8.6855250">
        <ele>93.8</ele>
        <time>2015-03-19T17:43:07Z</time>
      </trkpt>
      <trkpt lat="39.2299920" lon="-8.6855630">
        <ele>95.0</ele>
        <time>2015-03-19T17:43:22Z</time>
      </trkpt>
      <trkpt lat="39.2300850" lon="-8.6855520">
        <ele>96.1</ele>
        <time>2015-03-19T17:43:30Z</time>
      </trkpt>
      <trkpt lat="39.2302790" lon="-8.6855280">
        <ele>99.4</ele>
        <time>2015-03-19T17:43:46Z</time>
      </trkpt>
      <trkpt lat="39.2304560" lon="-8.6855050">
        <ele>103.0</ele>
        <time>2015-03-19T17:44:01Z</time>
      </trkpt>
      <trkpt lat="39.2305050" lon="-8.6855080">
        <ele>104.3</ele>
        <time>2015-03-19T17:44:05Z</time>
      </trkpt>
      <trkpt lat="39.2307190" lon="-8.6855740">
        <ele>106.0</ele>
        <time>2015-03-19T17:44:21Z</time>
      </trkpt>
      <trkpt lat="39.2309320" lon="-8.6857320">
        <ele>107.3</ele>
        <time>2015-03-19T17:44:38Z</time>
      </trkpt>
      <trkpt lat="39.2310660" lon="-8.6858960">
        <ele>108.0</ele>
        <time>2015-03-19T17:44:51Z</time>
      </trkpt>
      <trkpt lat="39.2311200" lon="-8.6859110">
        <ele>108.2</ele>
        <time>2015-03-19T17:44:55Z</time>
      </trkpt>
      <trkpt lat="39.2312790" lon="-8.6861480">
        <ele>108.1</ele>
        <time>2015-03-19T17:45:11Z</time>
      </trkpt>
      <trkpt lat="39.2316010" lon="-8.6860730">
        <ele>108.3</ele>
        <time>2015-03-19T17:45:30Z</time>
      </trkpt>
      <trkpt lat="39.2319000" lon="-8.6859580">
        <ele>109.3</ele>
        <time>2015-03-19T17:45:44Z</time>
      </trkpt>
      <trkpt lat="39.2321710" lon="-8.6859030">
        <ele>110.5</ele>
        <time>2015-03-19T17:45:56Z</time>
      </trkpt>
      <trkpt lat="39.2324690" lon="-8.6858510">
        <ele>110.6</ele>
        <time>2015-03-19T17:46:08Z</time>
      </trkpt>
      <trkpt lat="39.2328780" lon="-8.6857850">
        <ele>110.2</ele>
        <time>2015-03-19T17:46:22Z</time>
      </trkpt>
      <trkpt lat="39.2331130" lon="-8.6857740">
        <ele>109.9</ele>
        <time>2015-03-19T17:46:33Z</time>
      </trkpt>
      <trkpt lat="39.2333970" lon="-8.6857890">
        <ele>109.5</ele>
        <time>2015-03-19T17:46:44Z</time>
      </trkpt>
      <trkpt lat="39.2337710" lon="-8.6855890">
        <ele>108.7</ele>
        <time>2015-03-19T17:46:58Z</time>
      </trkpt>
      <trkpt lat="39.2339370" lon="-8.6853010">
        <ele>107.9</ele>
        <time>2015-03-19T17:47:12Z</time>
      </trkpt>
      <trkpt lat="39.2338610" lon="-8.6851030">
        <ele>107.6</ele>
        <time>2015-03-19T17:47:55Z</time>
      </trkpt>
      <trkpt lat="39.2339570" lon="-8.6848360">
        <ele>108.1</ele>
        <time>2015-03-19T17:48:29Z</time>
      </trkpt>
      <trkpt lat="39.2340120" lon="-8.6847170">
        <ele>108.5</ele>
        <time>2015-03-19T17:48:34Z</time>
      </trkpt>
      <trkpt lat="39.2340480" lon="-8.6846740">
        <ele>108.7</ele>
        <time>2015-03-19T17:48:36Z</time>
      </trkpt>
      <trkpt lat="39.2342000" lon="-8.6843220">
        <ele>109.7</ele>
        <time>2015-03-19T17:48:50Z</time>
      </trkpt>
      <trkpt lat="39.2342270" lon="-8.6842110">
        <ele>110.0</ele>
        <time>2015-03-19T17:48:54Z</time>
      </trkpt>
      <trkpt lat="39.2343490" lon="-8.6838130">
        <ele>110.8</ele>
        <time>2015-03-19T17:49:09Z</time>
      </trkpt>
      <trkpt lat="39.2344290" lon="-8.6834580">
        <ele>111.4</ele>
        <time>2015-03-19T17:49:23Z</time>
      </trkpt>
      <trkpt lat="39.2345200" lon="-8.6832060">
        <ele>111.7</ele>
        <time>2015-03-19T17:49:34Z</time>
      </trkpt>
      <trkpt lat="39.2345980" lon="-8.6830690">
        <ele>111.9</ele>
        <time>2015-03-19T17:49:41Z</time>
      </trkpt>
      <trkpt lat="39.2348090" lon="-8.6826070">
        <ele>112.4</ele>
        <time>2015-03-19T17:49:57Z</time>
      </trkpt>
      <trkpt lat="39.2349190" lon="-8.6822720">
        <ele>112.5</ele>
        <time>2015-03-19T17:50:10Z</time>
      </trkpt>
      <trkpt lat="39.2350440" lon="-8.6817980">
        <ele>112.0</ele>
        <time>2015-03-19T17:50:26Z</time>
      </trkpt>
      <trkpt lat="39.2350870" lon="-8.6816280">
        <ele>111.8</ele>
        <time>2015-03-19T17:50:34Z</time>
      </trkpt>
      <trkpt lat="39.2351820" lon="-8.6816930">
        <ele>111.8</ele>
        <time>2015-03-19T17:50:53Z</time>
      </trkpt>
      <trkpt lat="39.2352830" lon="-8.6817160">
        <ele>111.8</ele>
        <time>2015-03-19T17:51:27Z</time>
      </trkpt>
      <trkpt lat="39.2353300" lon="-8.6817140">
        <ele>111.8</ele>
        <time>2015-03-19T17:51:29Z</time>
      </trkpt>
      <trkpt lat="39.2355290" lon="-8.6818570">
        <ele>111.9</ele>
        <time>2015-03-19T17:51:39Z</time>
      </trkpt>
      <trkpt lat="39.2356590" lon="-8.6819110">
        <ele>111.5</ele>
        <time>2015-03-19T17:51:48Z</time>
      </trkpt>
      <trkpt lat="39.2357160" lon="-8.6819990">
        <ele>111.2</ele>
        <time>2015-03-19T17:51:52Z</time>
      </trkpt>
      <trkpt lat="39.2358290" lon="-8.6824340">
        <ele>110.8</ele>
        <time>2015-03-19T17:52:07Z</time>
      </trkpt>
      <trkpt lat="39.2359410" lon="-8.6829380">
        <ele>111.3</ele>
        <time>2015-03-19T17:52:22Z</time>
      </trkpt>
      <trkpt lat="39.2360780" lon="-8.6833780">
        <ele>112.0</ele>
        <time>2015-03-19T17:52:37Z</time>
      </trkpt>
      <trkpt lat="39.2361580" lon="-8.6835310">
        <ele>112.2</ele>
        <time>2015-03-19T17:52:45Z</time>
      </trkpt>
      <trkpt lat="39.2359660" lon="-8.6838130">
        <ele>112.6</ele>
        <time>2015-03-19T17:52:59Z</time>
      </trkpt>
      <trkpt lat="39.2357960" lon="-8.6840910">
        <ele>112.8</ele>
        <time>2015-03-19T17:53:12Z</time>
      </trkpt>
      <trkpt lat="39.2355710" lon="-8.6844660">
        <ele>113.0</ele>
        <time>2015-03-19T17:53:30Z</time>
      </trkpt>
      <trkpt lat="39.2354880" lon="-8.6845630">
        <ele>113.0</ele>
        <time>2015-03-19T18:03:09Z</time>
      </trkpt>
      <trkpt lat="39.2352660" lon="-8.6849500">
        <ele>112.7</ele>
        <time>2015-03-19T18:03:23Z</time>
      </trkpt>
      <trkpt lat="39.2351690" lon="-8.6851140">
        <ele>112.2</ele>
        <time>2015-03-19T18:03:29Z</time>
      </trkpt>
      <trkpt lat="39.2353800" lon="-8.6851040">
        <ele>112.3</ele>
        <time>2015-03-19T18:03:47Z</time>
      </trkpt>
      <trkpt lat="39.2355860" lon="-8.6850650">
        <ele>112.5</ele>
        <time>2015-03-19T18:04:02Z</time>
      </trkpt>
      <trkpt lat="39.2356940" lon="-8.6849820">
        <ele>112.6</ele>
        <time>2015-03-19T18:06:33Z</time>
      </trkpt>
      <trkpt lat="39.2358200" lon="-8.6847570">
        <ele>112.8</ele>
        <time>2015-03-19T18:06:55Z</time>
      </trkpt>
      <trkpt lat="39.2359550" lon="-8.6845400">
        <ele>112.9</ele>
        <time>2015-03-19T18:07:13Z</time>
      </trkpt>
      <trkpt lat="39.2361120" lon="-8.6843330">
        <ele>112.7</ele>
        <time>2015-03-19T18:07:29Z</time>
      </trkpt>
      <trkpt lat="39.2361450" lon="-8.6842340">
        <ele>112.6</ele>
        <time>2015-03-20T08:20:09Z</time>
      </trkpt>
      <trkpt lat="39.2362040" lon="-8.6841430">
        <ele>112.5</ele>
        <time>2015-03-20T08:20:23Z</time>
      </trkpt>
      <trkpt lat="39.2363180" lon="-8.6840220">
        <ele>112.4</ele>
        <time>2015-03-20T08:20:30Z</time>
      </trkpt>
      <trkpt lat="39.2364370" lon="-8.6839170">
        <ele>112.3</ele>
        <time>2015-03-20T08:20:38Z</time>
      </trkpt>
      <trkpt lat="39.2365940" lon="-8.6841530">
        <ele>112.2</ele>
        <time>2015-03-20T08:20:50Z</time>
      </trkpt>
      <trkpt lat="39.2368110" lon="-8.6845240">
        <ele>111.9</ele>
        <time>2015-03-20T08:21:03Z</time>
      </trkpt>
      <trkpt lat="39.2370510" lon="-8.6849080">
        <ele>112.1</ele>
        <time>2015-03-20T08:21:19Z</time>
      </trkpt>
      <trkpt lat="39.2371080" lon="-8.6849500">
        <ele>112.2</ele>
        <time>2015-03-20T08:22:30Z</time>
      </trkpt>
      <trkpt lat="39.2370700" lon="-8.6850610">
        <ele>112.2</ele>
        <time>2015-03-20T08:23:04Z</time>
      </trkpt>
      <trkpt lat="39.2370130" lon="-8.6851130">
        <ele>112.2</ele>
        <time>2015-03-20T08:23:08Z</time>
      </trkpt>
      <trkpt lat="39.2366580" lon="-8.6850580">
        <ele>112.5</ele>
        <time>2015-03-20T08:23:26Z</time>
      </trkpt>
      <trkpt lat="39.2363560" lon="-8.6849900">
        <ele>112.6</ele>
        <time>2015-03-20T08:23:42Z</time>
      </trkpt>
      <trkpt lat="39.2360260" lon="-8.6849030">
        <ele>112.7</ele>
        <time>2015-03-20T08:23:57Z</time>
      </trkpt>
      <trkpt lat="39.2357660" lon="-8.6847150">
        <ele>112.9</ele>
        <time>2015-03-20T08:24:10Z</time>
      </trkpt>
      <trkpt lat="39.2355540" lon="-8.6845250">
        <ele>113.0</ele>
        <time>2015-03-20T08:24:22Z</time>
      </trkpt>
      <trkpt lat="39.2354370" lon="-8.6846160">
        <ele>113.0</ele>
        <time>2015-03-20T08:24:28Z</time>
      </trkpt>
      <trkpt lat="39.2350790" lon="-8.6851350">
        <ele>112.2</ele>
        <time>2015-03-20T08:24:44Z</time>
      </trkpt>
      <trkpt lat="39.2349300" lon="-8.6853720">
        <ele>110.8</ele>
        <time>2015-03-20T08:24:55Z</time>
      </trkpt>
      <trkpt lat="39.2346830" lon="-8.6857200">
        <ele>109.9</ele>
        <time>2015-03-20T08:25:06Z</time>
      </trkpt>
      <trkpt lat="39.2346200" lon="-8.6857620">
        <ele>109.7</ele>
        <time>2015-03-20T08:25:10Z</time>
      </trkpt>
      <trkpt lat="39.2344950" lon="-8.6857760">
        <ele>109.2</ele>
        <time>2015-03-20T08:25:15Z</time>
      </trkpt>
      <trkpt lat="39.2343150" lon="-8.6857160">
        <ele>108.9</ele>
        <time>2015-03-20T08:25:22Z</time>
      </trkpt>
      <trkpt lat="39.2342410" lon="-8.6857530">
        <ele>108.8</ele>
        <time>2015-03-20T08:25:32Z</time>
      </trkpt>
      <trkpt lat="39.2341860" lon="-8.6856960">
        <ele>108.7</ele>
        <time>2015-03-20T08:26:00Z</time>
      </trkpt>
      <trkpt lat="39.2339010" lon="-8.6852570">
        <ele>108.0</ele>
        <time>2015-03-20T08:26:17Z</time>
      </trkpt>
      <trkpt lat="39.2338540" lon="-8.6852780">
        <ele>108.0</ele>
        <time>2015-03-20T08:27:00Z</time>
      </trkpt>
      <trkpt lat="39.2337580" lon="-8.6851410">
        <ele>107.6</ele>
        <time>2015-03-20T08:27:10Z</time>
      </trkpt>
      <trkpt lat="39.2337980" lon="-8.6850390">
        <ele>107.5</ele>
        <time>2015-03-20T08:27:14Z</time>
      </trkpt>
      <trkpt lat="39.2338800" lon="-8.6848500">
        <ele>108.0</ele>
        <time>2015-03-20T08:27:20Z</time>
      </trkpt>
      <trkpt lat="39.2340310" lon="-8.6844420">
        <ele>109.2</ele>
        <time>2015-03-20T08:27:35Z</time>
      </trkpt>
      <trkpt lat="39.2341740" lon="-8.6840370">
        <ele>110.3</ele>
        <time>2015-03-20T08:27:50Z</time>
      </trkpt>
      <trkpt lat="39.2343080" lon="-8.6835950">
        <ele>111.2</ele>
        <time>2015-03-20T08:28:08Z</time>
      </trkpt>
      <trkpt lat="39.2344250" lon="-8.6833010">
        <ele>111.5</ele>
        <time>2015-03-20T08:28:21Z</time>
      </trkpt>
      <trkpt lat="39.2345860" lon="-8.6829110">
        <ele>112.0</ele>
        <time>2015-03-20T08:28:36Z</time>
      </trkpt>
      <trkpt lat="39.2347520" lon="-8.6825500">
        <ele>112.4</ele>
        <time>2015-03-20T08:28:49Z</time>
      </trkpt>
      <trkpt lat="39.2348690" lon="-8.6822720">
        <ele>112.5</ele>
        <time>2015-03-20T08:29:00Z</time>
      </trkpt>
      <trkpt lat="39.2349820" lon="-8.6818340">
        <ele>112.1</ele>
        <time>2015-03-20T08:29:16Z</time>
      </trkpt>
      <trkpt lat="39.2350260" lon="-8.6816690">
        <ele>111.9</ele>
        <time>2015-03-20T08:29:22Z</time>
      </trkpt>
      <trkpt lat="39.2351530" lon="-8.6816140">
        <ele>111.8</ele>
        <time>2015-03-20T08:29:32Z</time>
      </trkpt>
      <trkpt lat="39.2353430" lon="-8.6815530">
        <ele>111.7</ele>
        <time>2015-03-20T08:30:03Z</time>
      </trkpt>
      <trkpt lat="39.2354980" lon="-8.6812870">
        <ele>111.5</ele>
        <time>2015-03-20T08:30:12Z</time>
      </trkpt>
      <trkpt lat="39.2355810" lon="-8.6810860">
        <ele>110.5</ele>
        <time>2015-03-20T08:30:20Z</time>
      </trkpt>
      <trkpt lat="39.2355270" lon="-8.6806320">
        <ele>109.3</ele>
        <time>2015-03-20T08:30:35Z</time>
      </trkpt>
      <trkpt lat="39.2355940" lon="-8.6802140">
        <ele>108.1</ele>
        <time>2015-03-20T08:30:48Z</time>
      </trkpt>
      <trkpt lat="39.2356440" lon="-8.6798920">
        <ele>107.2</ele>
        <time>2015-03-20T08:31:51Z</time>
      </trkpt>
      <trkpt lat="39.2357090" lon="-8.6792530">
        <ele>102.9</ele>
        <time>2015-03-20T08:32:08Z</time>
      </trkpt>
      <trkpt lat="39.2354560" lon="-8.6787060">
        <ele>101.4</ele>
        <time>2015-03-20T08:32:23Z</time>
      </trkpt>
      <trkpt lat="39.2350980" lon="-8.6781820">
        <ele>102.1</ele>
        <time>2015-03-20T08:32:39Z</time>
      </trkpt>
      <trkpt lat="39.2347350" lon="-8.6775810">
        <ele>104.7</ele>
        <time>2015-03-20T08:32:56Z</time>
      </trkpt>
      <trkpt lat="39.2345490" lon="-8.6772910">
        <ele>105.7</ele>
        <time>2015-03-20T08:33:08Z</time>
      </trkpt>
      <trkpt lat="39.2343270" lon="-8.6768310">
        <ele>107.0</ele>
        <time>2015-03-20T08:33:22Z</time>
      </trkpt>
      <trkpt lat="39.2345120" lon="-8.6768200">
        <ele>105.4</ele>
        <time>2015-03-20T08:33:30Z</time>
      </trkpt>
      <trkpt lat="39.2347740" lon="-8.6771420">
        <ele>102.3</ele>
        <time>2015-03-20T08:33:42Z</time>
      </trkpt>
      <trkpt lat="39.2348720" lon="-8.6772230">
        <ele>101.0</ele>
        <time>2015-03-20T08:33:48Z</time>
      </trkpt>
      <trkpt lat="39.2350220" lon="-8.6770340">
        <ele>99.3</ele>
        <time>2015-03-20T08:33:56Z</time>
      </trkpt>
      <trkpt lat="39.2352170" lon="-8.6768120">
        <ele>98.1</ele>
        <time>2015-03-20T08:34:05Z</time>
      </trkpt>
      <trkpt lat="39.2354230" lon="-8.6765660">
        <ele>96.3</ele>
        <time>2015-03-20T08:34:18Z</time>
      </trkpt>
      <trkpt lat="39.2355640" lon="-8.6763000">
        <ele>93.1</ele>
        <time>2015-03-20T08:34:57Z</time>
      </trkpt>
      <trkpt lat="39.2355920" lon="-8.6761710">
        <ele>91.1</ele>
        <time>2015-03-20T08:35:04Z</time>
      </trkpt>
      <trkpt lat="39.2355710" lon="-8.6760480">
        <ele>89.4</ele>
        <time>2015-03-20T08:35:11Z</time>
      </trkpt>
      <trkpt lat="39.2355460" lon="-8.6759540">
        <ele>88.0</ele>
        <time>2015-03-20T08:35:22Z</time>
      </trkpt>
      <trkpt lat="39.2355150" lon="-8.6758510">
        <ele>86.1</ele>
        <time>2015-03-20T08:35:30Z</time>
      </trkpt>
      <trkpt lat="39.2354590" lon="-8.6757110">
        <ele>83.6</ele>
        <time>2015-03-20T08:35:43Z</time>
      </trkpt>
      <trkpt lat="39.2353660" lon="-8.6756160">
        <ele>81.4</ele>
        <time>2015-03-20T08:35:50Z</time>
      </trkpt>
      <trkpt lat="39.2352480" lon="-8.6754880">
        <ele>79.1</ele>
        <time>2015-03-20T08:35:56Z</time>
      </trkpt>
      <trkpt lat="39.2351530" lon="-8.6753750">
        <ele>77.2</ele>
        <time>2015-03-20T08:36:01Z</time>
      </trkpt>
      <trkpt lat="39.2350730" lon="-8.6752660">
        <ele>75.0</ele>
        <time>2015-03-20T08:36:06Z</time>
      </trkpt>
      <trkpt lat="39.2350250" lon="-8.6751650">
        <ele>73.6</ele>
        <time>2015-03-20T08:36:11Z</time>
      </trkpt>
      <trkpt lat="39.2350480" lon="-8.6750070">
        <ele>69.8</ele>
        <time>2015-03-20T08:36:18Z</time>
      </trkpt>
      <trkpt lat="39.2350620" lon="-8.6748440">
        <ele>65.5</ele>
        <time>2015-03-20T08:36:22Z</time>
      </trkpt>
      <trkpt lat="39.2350820" lon="-8.6747270">
        <ele>63.0</ele>
        <time>2015-03-20T08:36:34Z</time>
      </trkpt>
      <trkpt lat="39.2349970" lon="-8.6746880">
        <ele>61.4</ele>
        <time>2015-03-20T08:36:46Z</time>
      </trkpt>
      <trkpt lat="39.2349230" lon="-8.6745390">
        <ele>58.0</ele>
        <time>2015-03-20T08:36:54Z</time>
      </trkpt>
      <trkpt lat="39.2349050" lon="-8.6744330">
        <ele>56.3</ele>
        <time>2015-03-20T08:36:59Z</time>
      </trkpt>
      <trkpt lat="39.2349530" lon="-8.6743560">
        <ele>54.9</ele>
        <time>2015-03-20T08:37:03Z</time>
      </trkpt>
      <trkpt lat="39.2350630" lon="-8.6743260">
        <ele>51.6</ele>
        <time>2015-03-20T08:37:08Z</time>
      </trkpt>
      <trkpt lat="39.2350970" lon="-8.6742630">
        <ele>50.1</ele>
        <time>2015-03-20T08:37:11Z</time>
      </trkpt>
      <trkpt lat="39.2351920" lon="-8.6742330">
        <ele>48.1</ele>
        <time>2015-03-20T08:37:17Z</time>
      </trkpt>
      <trkpt lat="39.2353150" lon="-8.6743240">
        <ele>44.0</ele>
        <time>2015-03-20T08:37:32Z</time>
      </trkpt>
      <trkpt lat="39.2355440" lon="-8.6743000">
        <ele>42.1</ele>
        <time>2015-03-20T08:37:47Z</time>
      </trkpt>
      <trkpt lat="39.2359140" lon="-8.6745990">
        <ele>36.8</ele>
        <time>2015-03-20T08:37:59Z</time>
      </trkpt>
      <trkpt lat="39.2365100" lon="-8.6747180">
        <ele>31.0</ele>
        <time>2015-03-20T08:38:13Z</time>
      </trkpt>
      <trkpt lat="39.2369430" lon="-8.6748040">
        <ele>30.6</ele>
        <time>2015-03-20T08:38:27Z</time>
      </trkpt>
      <trkpt lat="39.2369920" lon="-8.6748800">
        <ele>30.9</ele>
        <time>2015-03-20T08:38:29Z</time>
      </trkpt>
      <trkpt lat="39.2370390" lon="-8.6750290">
        <ele>30.8</ele>
        <time>2015-03-20T08:38:32Z</time>
      </trkpt>
      <trkpt lat="39.2370490" lon="-8.6752630">
        <ele>30.2</ele>
        <time>2015-03-20T08:38:36Z</time>
      </trkpt>
      <trkpt lat="39.2370490" lon="-8.6755000">
        <ele>30.2</ele>
        <time>2015-03-20T08:38:40Z</time>
      </trkpt>
      <trkpt lat="39.2371870" lon="-8.6759150">
        <ele>30.0</ele>
        <time>2015-03-20T08:38:51Z</time>
      </trkpt>
      <trkpt lat="39.2374540" lon="-8.6759060">
        <ele>28.6</ele>
        <time>2015-03-20T08:39:03Z</time>
      </trkpt>
      <trkpt lat="39.2375720" lon="-8.6758200">
        <ele>28.0</ele>
        <time>2015-03-20T08:39:09Z</time>
      </trkpt>
      <trkpt lat="39.2375290" lon="-8.6756940">
        <ele>27.6</ele>
        <time>2015-03-20T08:39:15Z</time>
      </trkpt>
      <trkpt lat="39.2374570" lon="-8.6749770">
        <ele>24.2</ele>
        <time>2015-03-20T08:39:31Z</time>
      </trkpt>
      <trkpt lat="39.2375410" lon="-8.6745940">
        <ele>21.3</ele>
        <time>2015-03-20T08:39:42Z</time>
      </trkpt>
      <trkpt lat="39.2377360" lon="-8.6740750">
        <ele>17.2</ele>
        <time>2015-03-20T08:39:57Z</time>
      </trkpt>
      <trkpt lat="39.2380770" lon="-8.6732760">
        <ele>13.8</ele>
        <time>2015-03-20T08:40:16Z</time>
      </trkpt>
      <trkpt lat="39.2381190" lon="-8.6732110">
        <ele>13.8</ele>
        <time>2015-03-20T08:40:18Z</time>
      </trkpt>
      <trkpt lat="39.2384870" lon="-8.6733150">
        <ele>11.5</ele>
        <time>2015-03-20T08:40:29Z</time>
      </trkpt>
      <trkpt lat="39.2390180" lon="-8.6735710">
        <ele>11.2</ele>
        <time>2015-03-20T08:40:45Z</time>
      </trkpt>
      <trkpt lat="39.2394860" lon="-8.6740450">
        <ele>12.8</ele>
        <time>2015-03-20T08:41:02Z</time>
      </trkpt>
      <trkpt lat="39.2398450" lon="-8.6741760">
        <ele>12.9</ele>
        <time>2015-03-20T08:41:16Z</time>
      </trkpt>
      <trkpt lat="39.2399250" lon="-8.6741300">
        <ele>12.9</ele>
        <time>2015-03-20T08:41:58Z</time>
      </trkpt>
      <trkpt lat="39.2400230" lon="-8.6735870">
        <ele>11.6</ele>
        <time>2015-03-20T08:42:12Z</time>
      </trkpt>
      <trkpt lat="39.2401690" lon="-8.6732050">
        <ele>10.7</ele>
        <time>2015-03-20T08:42:22Z</time>
      </trkpt>
      <trkpt lat="39.2405000" lon="-8.6727460">
        <ele>9.1</ele>
        <time>2015-03-20T08:42:36Z</time>
      </trkpt>
      <trkpt lat="39.2407500" lon="-8.6723280">
        <ele>8.4</ele>
        <time>2015-03-20T08:42:49Z</time>
      </trkpt>
      <trkpt lat="39.2408090" lon="-8.6721980">
        <ele>8.5</ele>
        <time>2015-03-20T08:42:52Z</time>
      </trkpt>
      <trkpt lat="39.2412110" lon="-8.6715740">
        <ele>8.6</ele>
        <time>2015-03-20T08:43:08Z</time>
      </trkpt>
      <trkpt lat="39.2415460" lon="-8.6710600">
        <ele>9.1</ele>
        <time>2015-03-20T08:43:22Z</time>
      </trkpt>
      <trkpt lat="39.2418100" lon="-8.6706500">
        <ele>9.2</ele>
        <time>2015-03-20T08:43:36Z</time>
      </trkpt>
      <trkpt lat="39.2420390" lon="-8.6703100">
        <ele>9.2</ele>
        <time>2015-03-20T08:43:47Z</time>
      </trkpt>
      <trkpt lat="39.2422790" lon="-8.6699400">
        <ele>9.3</ele>
        <time>2015-03-20T08:44:32Z</time>
      </trkpt>
      <trkpt lat="39.2427370" lon="-8.6692650">
        <ele>9.4</ele>
        <time>2015-03-20T08:44:52Z</time>
      </trkpt>
      <trkpt lat="39.2432070" lon="-8.6685710">
        <ele>9.5</ele>
        <time>2015-03-20T08:45:11Z</time>
      </trkpt>
      <trkpt lat="39.2436920" lon="-8.6678550">
        <ele>9.5</ele>
        <time>2015-03-20T08:45:30Z</time>
      </trkpt>
      <trkpt lat="39.2442790" lon="-8.6670060">
        <ele>9.3</ele>
        <time>2015-03-20T08:45:53Z</time>
      </trkpt>
      <trkpt lat="39.2447190" lon="-8.6663260">
        <ele>9.1</ele>
        <time>2015-03-20T08:46:11Z</time>
      </trkpt>
      <trkpt lat="39.2447890" lon="-8.6661900">
        <ele>9.1</ele>
        <time>2015-03-20T08:46:16Z</time>
      </trkpt>
      <trkpt lat="39.2448420" lon="-8.6662050">
        <ele>9.1</ele>
        <time>2015-03-20T08:46:25Z</time>
      </trkpt>
      <trkpt lat="39.2449290" lon="-8.6662360">
        <ele>9.1</ele>
        <time>2015-03-20T08:46:35Z</time>
      </trkpt>
      <trkpt lat="39.2453520" lon="-8.6664090">
        <ele>8.6</ele>
        <time>2015-03-20T08:46:50Z</time>
      </trkpt>
      <trkpt lat="39.2458140" lon="-8.6665460">
        <ele>8.2</ele>
        <time>2015-03-20T08:47:06Z</time>
      </trkpt>
      <trkpt lat="39.2459020" lon="-8.6665480">
        <ele>8.2</ele>
        <time>2015-03-20T08:47:09Z</time>
      </trkpt>
      <trkpt lat="39.2461380" lon="-8.6662000">
        <ele>8.3</ele>
        <time>2015-03-20T08:47:22Z</time>
      </trkpt>
      <trkpt lat="39.2465770" lon="-8.6656160">
        <ele>8.2</ele>
        <time>2015-03-20T08:47:41Z</time>
      </trkpt>
      <trkpt lat="39.2469260" lon="-8.6650840">
        <ele>8.2</ele>
        <time>2015-03-20T08:47:58Z</time>
      </trkpt>
      <trkpt lat="39.2471750" lon="-8.6646300">
        <ele>8.2</ele>
        <time>2015-03-20T08:48:12Z</time>
      </trkpt>
      <trkpt lat="39.2474410" lon="-8.6641850">
        <ele>8.2</ele>
        <time>2015-03-20T08:48:27Z</time>
      </trkpt>
      <trkpt lat="39.2476080" lon="-8.6638130">
        <ele>8.5</ele>
        <time>2015-03-20T08:48:39Z</time>
      </trkpt>
      <trkpt lat="39.2478330" lon="-8.6634190">
        <ele>9.1</ele>
        <time>2015-03-20T08:48:53Z</time>
      </trkpt>
      <trkpt lat="39.2481950" lon="-8.6629840">
        <ele>9.4</ele>
        <time>2015-03-20T08:49:10Z</time>
      </trkpt>
      <trkpt lat="39.2485420" lon="-8.6626180">
        <ele>9.1</ele>
        <time>2015-03-20T08:49:25Z</time>
      </trkpt>
      <trkpt lat="39.2489060" lon="-8.6621390">
        <ele>9.3</ele>
        <time>2015-03-20T08:49:42Z</time>
      </trkpt>
      <trkpt lat="39.2492510" lon="-8.6615950">
        <ele>9.2</ele>
        <time>2015-03-20T08:50:00Z</time>
      </trkpt>
      <trkpt lat="39.2496050" lon="-8.6611290">
        <ele>9.3</ele>
        <time>2015-03-20T08:50:18Z</time>
      </trkpt>
      <trkpt lat="39.2499060" lon="-8.6607670">
        <ele>9.5</ele>
        <time>2015-03-20T08:50:33Z</time>
      </trkpt>
      <trkpt lat="39.2502150" lon="-8.6604080">
        <ele>9.6</ele>
        <time>2015-03-20T08:50:48Z</time>
      </trkpt>
      <trkpt lat="39.2504630" lon="-8.6602110">
        <ele>9.6</ele>
        <time>2015-03-20T08:50:59Z</time>
      </trkpt>
      <trkpt lat="39.2506500" lon="-8.6600220">
        <ele>9.6</ele>
        <time>2015-03-20T08:51:11Z</time>
      </trkpt>
      <trkpt lat="39.2507200" lon="-8.6599380">
        <ele>9.6</ele>
        <time>2015-03-20T08:51:52Z</time>
      </trkpt>
      <trkpt lat="39.2510320" lon="-8.6596450">
        <ele>9.7</ele>
        <time>2015-03-20T08:52:09Z</time>
      </trkpt>
      <trkpt lat="39.2512840" lon="-8.6593280">
        <ele>9.8</ele>
        <time>2015-03-20T08:52:24Z</time>
      </trkpt>
      <trkpt lat="39.2515250" lon="-8.6589200">
        <ele>9.8</ele>
        <time>2015-03-20T08:52:41Z</time>
      </trkpt>
      <trkpt lat="39.2516780" lon="-8.6583660">
        <ele>9.7</ele>
        <time>2015-03-20T08:53:01Z</time>
      </trkpt>
      <trkpt lat="39.2517860" lon="-8.6579060">
        <ele>9.5</ele>
        <time>2015-03-20T08:53:17Z</time>
      </trkpt>
      <trkpt lat="39.2519780" lon="-8.6572840">
        <ele>8.8</ele>
        <time>2015-03-20T08:53:39Z</time>
      </trkpt>
      <trkpt lat="39.2521840" lon="-8.6567870">
        <ele>8.2</ele>
        <time>2015-03-20T08:53:57Z</time>
      </trkpt>
      <trkpt lat="39.2524410" lon="-8.6563290">
        <ele>8.4</ele>
        <time>2015-03-20T08:54:15Z</time>
      </trkpt>
      <trkpt lat="39.2527060" lon="-8.6559330">
        <ele>8.9</ele>
        <time>2015-03-20T08:54:32Z</time>
      </trkpt>
      <trkpt lat="39.2529650" lon="-8.6555700">
        <ele>9.3</ele>
        <time>2015-03-20T08:54:49Z</time>
      </trkpt>
      <trkpt lat="39.2532470" lon="-8.6551980">
        <ele>9.4</ele>
        <time>2015-03-20T08:55:07Z</time>
      </trkpt>
      <trkpt lat="39.2535170" lon="-8.6548410">
        <ele>9.2</ele>
        <time>2015-03-20T08:55:24Z</time>
      </trkpt>
      <trkpt lat="39.2537210" lon="-8.6545670">
        <ele>9.0</ele>
        <time>2015-03-20T08:55:38Z</time>
      </trkpt>
      <trkpt lat="39.2540280" lon="-8.6542160">
        <ele>8.8</ele>
        <time>2015-03-20T08:55:56Z</time>
      </trkpt>
      <trkpt lat="39.2543280" lon="-8.6539040">
        <ele>8.7</ele>
        <time>2015-03-20T08:56:13Z</time>
      </trkpt>
      <trkpt lat="39.2545820" lon="-8.6536020">
        <ele>8.7</ele>
        <time>2015-03-20T08:56:29Z</time>
      </trkpt>
      <trkpt lat="39.2548360" lon="-8.6533070">
        <ele>8.9</ele>
        <time>2015-03-20T08:56:44Z</time>
      </trkpt>
      <trkpt lat="39.2551690" lon="-8.6529420">
        <ele>8.9</ele>
        <time>2015-03-20T08:57:03Z</time>
      </trkpt>
      <trkpt lat="39.2554630" lon="-8.6526430">
        <ele>8.9</ele>
        <time>2015-03-20T08:57:20Z</time>
      </trkpt>
      <trkpt lat="39.2558050" lon="-8.6522800">
        <ele>8.9</ele>
        <time>2015-03-20T08:57:40Z</time>
      </trkpt>
      <trkpt lat="39.2561860" lon="-8.6519700">
        <ele>8.7</ele>
        <time>2015-03-20T08:57:59Z</time>
      </trkpt>
      <trkpt lat="39.2565430" lon="-8.6517540">
        <ele>8.7</ele>
        <time>2015-03-20T08:58:16Z</time>
      </trkpt>
      <trkpt lat="39.2568230" lon="-8.6514150">
        <ele>8.6</ele>
        <time>2015-03-20T08:58:33Z</time>
      </trkpt>
      <trkpt lat="39.2570280" lon="-8.6509940">
        <ele>8.4</ele>
        <time>2015-03-20T08:58:50Z</time>
      </trkpt>
      <trkpt lat="39.2572530" lon="-8.6505700">
        <ele>8.1</ele>
        <time>2015-03-20T08:59:08Z</time>
      </trkpt>
      <trkpt lat="39.2573730" lon="-8.6502710">
        <ele>7.8</ele>
        <time>2015-03-20T08:59:20Z</time>
      </trkpt>
      <trkpt lat="39.2575260" lon="-8.6499390">
        <ele>7.6</ele>
        <time>2015-03-20T08:59:33Z</time>
      </trkpt>
      <trkpt lat="39.2577330" lon="-8.6496010">
        <ele>7.3</ele>
        <time>2015-03-20T08:59:47Z</time>
      </trkpt>
      <trkpt lat="39.2577590" lon="-8.6495510">
        <ele>7.3</ele>
        <time>2015-03-20T08:59:49Z</time>
      </trkpt>
      <trkpt lat="39.2579780" lon="-8.6492250">
        <ele>7.7</ele>
        <time>2015-03-20T09:00:03Z</time>
      </trkpt>
      <trkpt lat="39.2582330" lon="-8.6488620">
        <ele>8.8</ele>
        <time>2015-03-20T09:00:19Z</time>
      </trkpt>
      <trkpt lat="39.2585770" lon="-8.6484010">
        <ele>10.3</ele>
        <time>2015-03-20T09:00:40Z</time>
      </trkpt>
      <trkpt lat="39.2588370" lon="-8.6481170">
        <ele>10.7</ele>
        <time>2015-03-20T09:00:55Z</time>
      </trkpt>
      <trkpt lat="39.2590880" lon="-8.6477910">
        <ele>10.8</ele>
        <time>2015-03-20T09:01:11Z</time>
      </trkpt>
      <trkpt lat="39.2593520" lon="-8.6474390">
        <ele>10.7</ele>
        <time>2015-03-20T09:01:28Z</time>
      </trkpt>
      <trkpt lat="39.2596400" lon="-8.6470510">
        <ele>10.4</ele>
        <time>2015-03-20T09:01:46Z</time>
      </trkpt>
      <trkpt lat="39.2599190" lon="-8.6466530">
        <ele>10.2</ele>
        <time>2015-03-20T09:02:04Z</time>
      </trkpt>
      <trkpt lat="39.2601840" lon="-8.6462600">
        <ele>10.2</ele>
        <time>2015-03-20T09:02:22Z</time>
      </trkpt>
      <trkpt lat="39.2604880" lon="-8.6458490">
        <ele>10.4</ele>
        <time>2015-03-20T09:02:41Z</time>
      </trkpt>
      <trkpt lat="39.2607390" lon="-8.6454870">
        <ele>10.4</ele>
        <time>2015-03-20T09:02:57Z</time>
      </trkpt>
      <trkpt lat="39.2609760" lon="-8.6451430">
        <ele>10.3</ele>
        <time>2015-03-20T09:03:12Z</time>
      </trkpt>
      <trkpt lat="39.2612190" lon="-8.6447980">
        <ele>10.2</ele>
        <time>2015-03-20T09:03:28Z</time>
      </trkpt>
      <trkpt lat="39.2614680" lon="-8.6444030">
        <ele>10.2</ele>
        <time>2015-03-20T09:03:45Z</time>
      </trkpt>
      <trkpt lat="39.2616880" lon="-8.6440450">
        <ele>10.5</ele>
        <time>2015-03-20T09:04:00Z</time>
      </trkpt>
      <trkpt lat="39.2620080" lon="-8.6436030">
        <ele>10.7</ele>
        <time>2015-03-20T09:04:20Z</time>
      </trkpt>
      <trkpt lat="39.2622360" lon="-8.6432620">
        <ele>10.8</ele>
        <time>2015-03-20T09:04:35Z</time>
      </trkpt>
      <trkpt lat="39.2624940" lon="-8.6429060">
        <ele>11.1</ele>
        <time>2015-03-20T09:04:51Z</time>
      </trkpt>
      <trkpt lat="39.2627320" lon="-8.6425780">
        <ele>11.1</ele>
        <time>2015-03-20T09:05:06Z</time>
      </trkpt>
      <trkpt lat="39.2630150" lon="-8.6421930">
        <ele>11.1</ele>
        <time>2015-03-20T09:05:24Z</time>
      </trkpt>
      <trkpt lat="39.2632170" lon="-8.6418700">
        <ele>11.1</ele>
        <time>2015-03-20T09:05:37Z</time>
      </trkpt>
      <trkpt lat="39.2634540" lon="-8.6415680">
        <ele>11.1</ele>
        <time>2015-03-20T09:05:51Z</time>
      </trkpt>
      <trkpt lat="39.2637270" lon="-8.6412030">
        <ele>11.1</ele>
        <time>2015-03-20T09:06:08Z</time>
      </trkpt>
      <trkpt lat="39.2637830" lon="-8.6411150">
        <ele>11.1</ele>
        <time>2015-03-20T09:06:12Z</time>
      </trkpt>
      <trkpt lat="39.2638820" lon="-8.6410140">
        <ele>11.1</ele>
        <time>2015-03-20T09:07:02Z</time>
      </trkpt>
      <trkpt lat="39.2641840" lon="-8.6406500">
        <ele>10.8</ele>
        <time>2015-03-20T09:07:19Z</time>
      </trkpt>
      <trkpt lat="39.2646110" lon="-8.6401870">
        <ele>10.9</ele>
        <time>2015-03-20T09:07:36Z</time>
      </trkpt>
      <trkpt lat="39.2651910" lon="-8.6397410">
        <ele>11.0</ele>
        <time>2015-03-20T09:07:56Z</time>
      </trkpt>
      <trkpt lat="39.2657700" lon="-8.6393470">
        <ele>10.8</ele>
        <time>2015-03-20T09:08:15Z</time>
      </trkpt>
      <trkpt lat="39.2662590" lon="-8.6390180">
        <ele>10.4</ele>
        <time>2015-03-20T09:08:32Z</time>
      </trkpt>
      <trkpt lat="39.2667560" lon="-8.6387070">
        <ele>9.9</ele>
        <time>2015-03-20T09:08:48Z</time>
      </trkpt>
      <trkpt lat="39.2671130" lon="-8.6382420">
        <ele>10.0</ele>
        <time>2015-03-20T09:09:03Z</time>
      </trkpt>
      <trkpt lat="39.2673690" lon="-8.6378980">
        <ele>10.2</ele>
        <time>2015-03-20T09:09:14Z</time>
      </trkpt>
      <trkpt lat="39.2678790" lon="-8.6373540">
        <ele>10.4</ele>
        <time>2015-03-20T09:09:34Z</time>
      </trkpt>
      <trkpt lat="39.2683090" lon="-8.6369390">
        <ele>10.5</ele>
        <time>2015-03-20T09:09:51Z</time>
      </trkpt>
      <trkpt lat="39.2687060" lon="-8.6364190">
        <ele>10.5</ele>
        <time>2015-03-20T09:10:08Z</time>
      </trkpt>
      <trkpt lat="39.2691530" lon="-8.6358560">
        <ele>11.1</ele>
        <time>2015-03-20T09:10:27Z</time>
      </trkpt>
      <trkpt lat="39.2694500" lon="-8.6355270">
        <ele>11.4</ele>
        <time>2015-03-20T09:10:39Z</time>
      </trkpt>
      <trkpt lat="39.2699490" lon="-8.6350070">
        <ele>11.4</ele>
        <time>2015-03-20T09:10:58Z</time>
      </trkpt>
      <trkpt lat="39.2703240" lon="-8.6345800">
        <ele>11.3</ele>
        <time>2015-03-20T09:11:13Z</time>
      </trkpt>
      <trkpt lat="39.2708490" lon="-8.6340510">
        <ele>11.2</ele>
        <time>2015-03-20T09:11:33Z</time>
      </trkpt>
      <trkpt lat="39.2712700" lon="-8.6336270">
        <ele>11.1</ele>
        <time>2015-03-20T09:11:49Z</time>
      </trkpt>
      <trkpt lat="39.2716710" lon="-8.6332660">
        <ele>11.0</ele>
        <time>2015-03-20T09:12:04Z</time>
      </trkpt>
      <trkpt lat="39.2719650" lon="-8.6334930">
        <ele>11.1</ele>
        <time>2015-03-20T09:12:16Z</time>
      </trkpt>
      <trkpt lat="39.2722550" lon="-8.6334480">
        <ele>11.3</ele>
        <time>2015-03-20T09:12:27Z</time>
      </trkpt>
      <trkpt lat="39.2724090" lon="-8.6333350">
        <ele>11.4</ele>
        <time>2015-03-20T09:12:37Z</time>
      </trkpt>
      <trkpt lat="39.2727600" lon="-8.6330910">
        <ele>11.3</ele>
        <time>2015-03-20T09:12:51Z</time>
      </trkpt>
      <trkpt lat="39.2731680" lon="-8.6328150">
        <ele>11.3</ele>
        <time>2015-03-20T09:13:07Z</time>
      </trkpt>
      <trkpt lat="39.2734740" lon="-8.6326270">
        <ele>11.4</ele>
        <time>2015-03-20T09:13:19Z</time>
      </trkpt>
      <trkpt lat="39.2738690" lon="-8.6323860">
        <ele>11.6</ele>
        <time>2015-03-20T09:13:34Z</time>
      </trkpt>
      <trkpt lat="39.2742830" lon="-8.6321370">
        <ele>11.8</ele>
        <time>2015-03-20T09:13:49Z</time>
      </trkpt>
      <trkpt lat="39.2747520" lon="-8.6318300">
        <ele>11.9</ele>
        <time>2015-03-20T09:14:06Z</time>
      </trkpt>
      <trkpt lat="39.2750600" lon="-8.6316340">
        <ele>11.9</ele>
        <time>2015-03-20T09:14:18Z</time>
      </trkpt>
      <trkpt lat="39.2755770" lon="-8.6313050">
        <ele>11.8</ele>
        <time>2015-03-20T09:14:36Z</time>
      </trkpt>
      <trkpt lat="39.2760900" lon="-8.6311320">
        <ele>11.7</ele>
        <time>2015-03-20T09:14:52Z</time>
      </trkpt>
      <trkpt lat="39.2763800" lon="-8.6310830">
        <ele>11.7</ele>
        <time>2015-03-20T09:15:03Z</time>
      </trkpt>
      <trkpt lat="39.2764500" lon="-8.6310770">
        <ele>11.7</ele>
        <time>2015-03-20T09:15:25Z</time>
      </trkpt>
      <trkpt lat="39.2767880" lon="-8.6310020">
        <ele>11.8</ele>
        <time>2015-03-20T09:15:38Z</time>
      </trkpt>
      <trkpt lat="39.2772470" lon="-8.6309590">
        <ele>12.1</ele>
        <time>2015-03-20T09:15:53Z</time>
      </trkpt>
      <trkpt lat="39.2777790" lon="-8.6309940">
        <ele>12.3</ele>
        <time>2015-03-20T09:16:09Z</time>
      </trkpt>
      <trkpt lat="39.2782500" lon="-8.6309900">
        <ele>12.2</ele>
        <time>2015-03-20T09:16:23Z</time>
      </trkpt>
      <trkpt lat="39.2787550" lon="-8.6309630">
        <ele>12.0</ele>
        <time>2015-03-20T09:16:38Z</time>
      </trkpt>
      <trkpt lat="39.2789930" lon="-8.6311770">
        <ele>12.2</ele>
        <time>2015-03-20T09:16:48Z</time>
      </trkpt>
      <trkpt lat="39.2793830" lon="-8.6316430">
        <ele>12.3</ele>
        <time>2015-03-20T09:17:04Z</time>
      </trkpt>
      <trkpt lat="39.2796490" lon="-8.6320230">
        <ele>12.3</ele>
        <time>2015-03-20T09:17:16Z</time>
      </trkpt>
      <trkpt lat="39.2799920" lon="-8.6324520">
        <ele>12.3</ele>
        <time>2015-03-20T09:17:31Z</time>
      </trkpt>
      <trkpt lat="39.2802810" lon="-8.6328360">
        <ele>12.1</ele>
        <time>2015-03-20T09:17:44Z</time>
      </trkpt>
      <trkpt lat="39.2803540" lon="-8.6329270">
        <ele>12.0</ele>
        <time>2015-03-20T09:17:47Z</time>
      </trkpt>
      <trkpt lat="39.2806890" lon="-8.6327660">
        <ele>12.1</ele>
        <time>2015-03-20T09:17:58Z</time>
      </trkpt>
      <trkpt lat="39.2813770" lon="-8.6323390">
        <ele>12.5</ele>
        <time>2015-03-20T09:18:19Z</time>
      </trkpt>
      <trkpt lat="39.2819350" lon="-8.6319890">
        <ele>13.0</ele>
        <time>2015-03-20T09:18:36Z</time>
      </trkpt>
      <trkpt lat="39.2826060" lon="-8.6316040">
        <ele>13.6</ele>
        <time>2015-03-20T09:18:55Z</time>
      </trkpt>
      <trkpt lat="39.2826850" lon="-8.6315870">
        <ele>13.6</ele>
        <time>2015-03-20T09:18:57Z</time>
      </trkpt>
      <trkpt lat="39.2828460" lon="-8.6316030">
        <ele>13.6</ele>
        <time>2015-03-20T09:19:01Z</time>
      </trkpt>
      <trkpt lat="39.2834960" lon="-8.6318610">
        <ele>13.6</ele>
        <time>2015-03-20T09:19:18Z</time>
      </trkpt>
      <trkpt lat="39.2840780" lon="-8.6322760">
        <ele>14.1</ele>
        <time>2015-03-20T09:19:34Z</time>
      </trkpt>
      <trkpt lat="39.2847720" lon="-8.6323410">
        <ele>14.6</ele>
        <time>2015-03-20T09:19:51Z</time>
      </trkpt>
      <trkpt lat="39.2856540" lon="-8.6323420">
        <ele>15.2</ele>
        <time>2015-03-20T09:20:13Z</time>
      </trkpt>
      <trkpt lat="39.2865330" lon="-8.6322900">
        <ele>15.8</ele>
        <time>2015-03-20T09:20:34Z</time>
      </trkpt>
      <trkpt lat="39.2871380" lon="-8.6322390">
        <ele>16.5</ele>
        <time>2015-03-20T09:20:49Z</time>
      </trkpt>
      <trkpt lat="39.2874210" lon="-8.6322130">
        <ele>16.7</ele>
        <time>2015-03-20T09:20:56Z</time>
      </trkpt>
      <trkpt lat="39.2882900" lon="-8.6321260">
        <ele>18.2</ele>
        <time>2015-03-20T09:21:18Z</time>
      </trkpt>
      <trkpt lat="39.2890820" lon="-8.6320330">
        <ele>19.7</ele>
        <time>2015-03-20T09:21:38Z</time>
      </trkpt>
      <trkpt lat="39.2898390" lon="-8.6320510">
        <ele>19.7</ele>
        <time>2015-03-20T09:21:57Z</time>
      </trkpt>
      <trkpt lat="39.2905120" lon="-8.6320180">
        <ele>19.9</ele>
        <time>2015-03-20T09:22:13Z</time>
      </trkpt>
      <trkpt lat="39.2908530" lon="-8.6319530">
        <ele>20.2</ele>
        <time>2015-03-20T09:22:21Z</time>
      </trkpt>
      <trkpt lat="39.2910010" lon="-8.6315450">
        <ele>19.1</ele>
        <time>2015-03-20T09:22:30Z</time>
      </trkpt>
      <trkpt lat="39.2909860" lon="-8.6314390">
        <ele>18.8</ele>
        <time>2015-03-20T09:22:32Z</time>
      </trkpt>
      <trkpt lat="39.2908620" lon="-8.6308610">
        <ele>17.4</ele>
        <time>2015-03-20T09:22:43Z</time>
      </trkpt>
      <trkpt lat="39.2908680" lon="-8.6306520">
        <ele>17.6</ele>
        <time>2015-03-20T09:22:47Z</time>
      </trkpt>
      <trkpt lat="39.2909410" lon="-8.6304810">
        <ele>17.9</ele>
        <time>2015-03-20T09:22:51Z</time>
      </trkpt>
      <trkpt lat="39.2915630" lon="-8.6300760">
        <ele>18.7</ele>
        <time>2015-03-20T09:23:08Z</time>
      </trkpt>
      <trkpt lat="39.2920940" lon="-8.6296100">
        <ele>19.3</ele>
        <time>2015-03-20T09:23:25Z</time>
      </trkpt>
      <trkpt lat="39.2926260" lon="-8.6291280">
        <ele>20.3</ele>
        <time>2015-03-20T09:23:43Z</time>
      </trkpt>
      <trkpt lat="39.2930830" lon="-8.6287390">
        <ele>21.1</ele>
        <time>2015-03-20T09:23:58Z</time>
      </trkpt>
      <trkpt lat="39.2936600" lon="-8.6285170">
        <ele>21.4</ele>
        <time>2015-03-20T09:24:14Z</time>
      </trkpt>
      <trkpt lat="39.2938130" lon="-8.6285550">
        <ele>21.4</ele>
        <time>2015-03-20T09:24:18Z</time>
      </trkpt>
      <trkpt lat="39.2944760" lon="-8.6287640">
        <ele>21.0</ele>
        <time>2015-03-20T09:24:35Z</time>
      </trkpt>
      <trkpt lat="39.2949780" lon="-8.6285700">
        <ele>21.2</ele>
        <time>2015-03-20T09:24:49Z</time>
      </trkpt>
      <trkpt lat="39.2954140" lon="-8.6281870">
        <ele>22.0</ele>
        <time>2015-03-20T09:25:03Z</time>
      </trkpt>
      <trkpt lat="39.2959390" lon="-8.6277700">
        <ele>24.1</ele>
        <time>2015-03-20T09:25:20Z</time>
      </trkpt>
      <trkpt lat="39.2963480" lon="-8.6276980">
        <ele>26.7</ele>
        <time>2015-03-20T09:25:38Z</time>
      </trkpt>
      <trkpt lat="39.2966090" lon="-8.6277180">
        <ele>28.3</ele>
        <time>2015-03-20T09:25:52Z</time>
      </trkpt>
      <trkpt lat="39.2970050" lon="-8.6277410">
        <ele>30.8</ele>
        <time>2015-03-20T09:26:12Z</time>
      </trkpt>
      <trkpt lat="39.2973460" lon="-8.6277480">
        <ele>32.5</ele>
        <time>2015-03-20T09:26:28Z</time>
      </trkpt>
      <trkpt lat="39.2977580" lon="-8.6277160">
        <ele>34.1</ele>
        <time>2015-03-20T09:26:45Z</time>
      </trkpt>
      <trkpt lat="39.2982550" lon="-8.6276940">
        <ele>35.9</ele>
        <time>2015-03-20T09:27:05Z</time>
      </trkpt>
      <trkpt lat="39.2988130" lon="-8.6276660">
        <ele>37.6</ele>
        <time>2015-03-20T09:27:27Z</time>
      </trkpt>
      <trkpt lat="39.2993290" lon="-8.6276400">
        <ele>38.9</ele>
        <time>2015-03-20T09:27:47Z</time>
      </trkpt>
      <trkpt lat="39.2998160" lon="-8.6275730">
        <ele>40.2</ele>
        <time>2015-03-20T09:28:06Z</time>
      </trkpt>
      <trkpt lat="39.3003770" lon="-8.6274880">
        <ele>41.3</ele>
        <time>2015-03-20T09:28:28Z</time>
      </trkpt>
      <trkpt lat="39.3009170" lon="-8.6273860">
        <ele>42.1</ele>
        <time>2015-03-20T09:28:49Z</time>
      </trkpt>
      <trkpt lat="39.3014200" lon="-8.6273130">
        <ele>43.2</ele>
        <time>2015-03-20T09:29:08Z</time>
      </trkpt>
      <trkpt lat="39.3019630" lon="-8.6273240">
        <ele>43.4</ele>
        <time>2015-03-20T09:29:27Z</time>
      </trkpt>
      <trkpt lat="39.3024120" lon="-8.6274020">
        <ele>44.1</ele>
        <time>2015-03-20T09:29:43Z</time>
      </trkpt>
      <trkpt lat="39.3028050" lon="-8.6274910">
        <ele>44.8</ele>
        <time>2015-03-20T09:29:57Z</time>
      </trkpt>
      <trkpt lat="39.3033520" lon="-8.6276270">
        <ele>46.1</ele>
        <time>2015-03-20T09:30:16Z</time>
      </trkpt>
      <trkpt lat="39.3038840" lon="-8.6277240">
        <ele>48.0</ele>
        <time>2015-03-20T09:30:35Z</time>
      </trkpt>
      <trkpt lat="39.3043770" lon="-8.6276560">
        <ele>50.5</ele>
        <time>2015-03-20T09:30:53Z</time>
      </trkpt>
      <trkpt lat="39.3048710" lon="-8.6276120">
        <ele>53.8</ele>
        <time>2015-03-20T09:31:11Z</time>
      </trkpt>
      <trkpt lat="39.3053240" lon="-8.6275630">
        <ele>56.2</ele>
        <time>2015-03-20T09:31:29Z</time>
      </trkpt>
      <trkpt lat="39.3057570" lon="-8.6275300">
        <ele>57.8</ele>
        <time>2015-03-20T09:31:46Z</time>
      </trkpt>
      <trkpt lat="39.3061750" lon="-8.6275220">
        <ele>58.1</ele>
        <time>2015-03-20T09:32:02Z</time>
      </trkpt>
      <trkpt lat="39.3065640" lon="-8.6275470">
        <ele>58.6</ele>
        <time>2015-03-20T09:32:17Z</time>
      </trkpt>
      <trkpt lat="39.3068890" lon="-8.6275450">
        <ele>58.7</ele>
        <time>2015-03-20T09:32:31Z</time>
      </trkpt>
      <trkpt lat="39.3069890" lon="-8.6275460">
        <ele>58.5</ele>
        <time>2015-03-20T09:32:44Z</time>
      </trkpt>
      <trkpt lat="39.3070230" lon="-8.6274760">
        <ele>58.4</ele>
        <time>2015-03-20T09:48:53Z</time>
      </trkpt>
      <trkpt lat="39.3073330" lon="-8.6274330">
        <ele>58.0</ele>
        <time>2015-03-20T09:49:07Z</time>
      </trkpt>
      <trkpt lat="39.3078100" lon="-8.6274570">
        <ele>57.3</ele>
        <time>2015-03-20T09:49:24Z</time>
      </trkpt>
      <trkpt lat="39.3081100" lon="-8.6274610">
        <ele>57.1</ele>
        <time>2015-03-20T09:49:37Z</time>
      </trkpt>
      <trkpt lat="39.3085050" lon="-8.6274190">
        <ele>57.6</ele>
        <time>2015-03-20T09:49:51Z</time>
      </trkpt>
      <trkpt lat="39.3089270" lon="-8.6274380">
        <ele>58.4</ele>
        <time>2015-03-20T09:50:04Z</time>
      </trkpt>
      <trkpt lat="39.3090360" lon="-8.6269020">
        <ele>57.7</ele>
        <time>2015-03-20T09:50:16Z</time>
      </trkpt>
      <trkpt lat="39.3091080" lon="-8.6264850">
        <ele>57.6</ele>
        <time>2015-03-20T09:50:28Z</time>
      </trkpt>
      <trkpt lat="39.3091300" lon="-8.6263480">
        <ele>57.6</ele>
        <time>2015-03-20T09:53:02Z</time>
      </trkpt>
      <trkpt lat="39.3091900" lon="-8.6259980">
        <ele>58.0</ele>
        <time>2015-03-20T09:53:12Z</time>
      </trkpt>
      <trkpt lat="39.3092110" lon="-8.6255630">
        <ele>58.5</ele>
        <time>2015-03-20T09:53:21Z</time>
      </trkpt>
      <trkpt lat="39.3091960" lon="-8.6249870">
        <ele>56.8</ele>
        <time>2015-03-20T09:53:28Z</time>
      </trkpt>
      <trkpt lat="39.3091770" lon="-8.6243590">
        <ele>54.0</ele>
        <time>2015-03-20T09:53:34Z</time>
      </trkpt>
      <trkpt lat="39.3091670" lon="-8.6238900">
        <ele>51.8</ele>
        <time>2015-03-20T09:53:38Z</time>
      </trkpt>
      <trkpt lat="39.3091160" lon="-8.6227980">
        <ele>48.2</ele>
        <time>2015-03-20T09:53:47Z</time>
      </trkpt>
      <trkpt lat="39.3090950" lon="-8.6222420">
        <ele>47.9</ele>
        <time>2015-03-20T09:53:53Z</time>
      </trkpt>
      <trkpt lat="39.3091670" lon="-8.6215610">
        <ele>48.8</ele>
        <time>2015-03-20T09:54:05Z</time>
      </trkpt>
      <trkpt lat="39.3092270" lon="-8.6211350">
        <ele>49.4</ele>
        <time>2015-03-20T09:54:15Z</time>
      </trkpt>
      <trkpt lat="39.3093290" lon="-8.6206520">
        <ele>50.6</ele>
        <time>2015-03-20T09:54:29Z</time>
      </trkpt>
      <trkpt lat="39.3094700" lon="-8.6199390">
        <ele>53.4</ele>
        <time>2015-03-20T09:54:51Z</time>
      </trkpt>
      <trkpt lat="39.3096080" lon="-8.6194280">
        <ele>55.6</ele>
        <time>2015-03-20T09:55:09Z</time>
      </trkpt>
      <trkpt lat="39.3098570" lon="-8.6190980">
        <ele>58.4</ele>
        <time>2015-03-20T09:55:26Z</time>
      </trkpt>
      <trkpt lat="39.3101870" lon="-8.6189010">
        <ele>59.9</ele>
        <time>2015-03-20T09:55:42Z</time>
      </trkpt>
      <trkpt lat="39.3105330" lon="-8.6186870">
        <ele>61.2</ele>
        <time>2015-03-20T09:55:58Z</time>
      </trkpt>
      <trkpt lat="39.3108980" lon="-8.6184050">
        <ele>59.8</ele>
        <time>2015-03-20T09:56:09Z</time>
      </trkpt>
      <trkpt lat="39.3114660" lon="-8.6176420">
        <ele>57.4</ele>
        <time>2015-03-20T09:56:26Z</time>
      </trkpt>
      <trkpt lat="39.3118840" lon="-8.6172110">
        <ele>55.8</ele>
        <time>2015-03-20T09:56:36Z</time>
      </trkpt>
      <trkpt lat="39.3120420" lon="-8.6167570">
        <ele>54.8</ele>
        <time>2015-03-20T09:56:47Z</time>
      </trkpt>
      <trkpt lat="39.3120280" lon="-8.6161890">
        <ele>53.9</ele>
        <time>2015-03-20T09:56:58Z</time>
      </trkpt>
      <trkpt lat="39.3120420" lon="-8.6155990">
        <ele>52.5</ele>
        <time>2015-03-20T09:57:07Z</time>
      </trkpt>
      <trkpt lat="39.3121380" lon="-8.6152820">
        <ele>51.3</ele>
        <time>2015-03-20T09:57:12Z</time>
      </trkpt>
      <trkpt lat="39.3124100" lon="-8.6147140">
        <ele>48.6</ele>
        <time>2015-03-20T09:57:22Z</time>
      </trkpt>
      <trkpt lat="39.3125010" lon="-8.6144690">
        <ele>47.5</ele>
        <time>2015-03-20T09:57:26Z</time>
      </trkpt>
      <trkpt lat="39.3125180" lon="-8.6144110">
        <ele>47.2</ele>
        <time>2015-03-20T09:57:27Z</time>
      </trkpt>
      <trkpt lat="39.3125550" lon="-8.6142250">
        <ele>46.3</ele>
        <time>2015-03-20T09:57:30Z</time>
      </trkpt>
      <trkpt lat="39.3125470" lon="-8.6137680">
        <ele>44.7</ele>
        <time>2015-03-20T09:57:41Z</time>
      </trkpt>
      <trkpt lat="39.3125190" lon="-8.6136940">
        <ele>44.5</ele>
        <time>2015-03-20T09:57:50Z</time>
      </trkpt>
      <trkpt lat="39.3124980" lon="-8.6136040">
        <ele>44.3</ele>
        <time>2015-03-20T09:58:06Z</time>
      </trkpt>
      <trkpt lat="39.3124750" lon="-8.6135280">
        <ele>44.1</ele>
        <time>2015-03-20T09:58:28Z</time>
      </trkpt>
      <trkpt lat="39.3124140" lon="-8.6130690">
        <ele>42.8</ele>
        <time>2015-03-20T09:58:40Z</time>
      </trkpt>
      <trkpt lat="39.3122930" lon="-8.6124290">
        <ele>41.4</ele>
        <time>2015-03-20T09:58:52Z</time>
      </trkpt>
      <trkpt lat="39.3122910" lon="-8.6121910">
        <ele>40.4</ele>
        <time>2015-03-20T09:58:56Z</time>
      </trkpt>
      <trkpt lat="39.3123230" lon="-8.6118880">
        <ele>37.2</ele>
        <time>2015-03-20T09:59:01Z</time>
      </trkpt>
      <trkpt lat="39.3123320" lon="-8.6117570">
        <ele>36.0</ele>
        <time>2015-03-20T09:59:03Z</time>
      </trkpt>
      <trkpt lat="39.3123560" lon="-8.6114740">
        <ele>34.0</ele>
        <time>2015-03-20T09:59:07Z</time>
      </trkpt>
      <trkpt lat="39.3123960" lon="-8.6112790">
        <ele>32.7</ele>
        <time>2015-03-20T09:59:10Z</time>
      </trkpt>
      <trkpt lat="39.3125180" lon="-8.6109520">
        <ele>30.1</ele>
        <time>2015-03-20T09:59:16Z</time>
      </trkpt>
      <trkpt lat="39.3126570" lon="-8.6105440">
        <ele>26.6</ele>
        <time>2015-03-20T09:59:22Z</time>
      </trkpt>
      <trkpt lat="39.3126770" lon="-8.6104690">
        <ele>26.2</ele>
        <time>2015-03-20T09:59:23Z</time>
      </trkpt>
      <trkpt lat="39.3126970" lon="-8.6104000">
        <ele>25.8</ele>
        <time>2015-03-20T09:59:24Z</time>
      </trkpt>
      <trkpt lat="39.3127720" lon="-8.6101950">
        <ele>25.0</ele>
        <time>2015-03-20T09:59:27Z</time>
      </trkpt>
      <trkpt lat="39.3128640" lon="-8.6100130">
        <ele>24.6</ele>
        <time>2015-03-20T09:59:30Z</time>
      </trkpt>
      <trkpt lat="39.3130940" lon="-8.6094100">
        <ele>23.4</ele>
        <time>2015-03-20T09:59:43Z</time>
      </trkpt>
      <trkpt lat="39.3135530" lon="-8.6085150">
        <ele>20.8</ele>
        <time>2015-03-20T10:00:02Z</time>
      </trkpt>
      <trkpt lat="39.3137570" lon="-8.6079180">
        <ele>19.3</ele>
        <time>2015-03-20T10:00:15Z</time>
      </trkpt>
      <trkpt lat="39.3138740" lon="-8.6071820">
        <ele>17.6</ele>
        <time>2015-03-20T10:00:31Z</time>
      </trkpt>
      <trkpt lat="39.3139910" lon="-8.6067920">
        <ele>17.2</ele>
        <time>2015-03-20T10:00:43Z</time>
      </trkpt>
      <trkpt lat="39.3142430" lon="-8.6063280">
        <ele>16.5</ele>
        <time>2015-03-20T10:00:58Z</time>
      </trkpt>
      <trkpt lat="39.3143310" lon="-8.6057780">
        <ele>15.6</ele>
        <time>2015-03-20T10:01:15Z</time>
      </trkpt>
      <trkpt lat="39.3142690" lon="-8.6056750">
        <ele>15.4</ele>
        <time>2015-03-20T10:01:19Z</time>
      </trkpt>
      <trkpt lat="39.3141650" lon="-8.6055890">
        <ele>15.0</ele>
        <time>2015-03-20T10:01:24Z</time>
      </trkpt>
      <trkpt lat="39.3135670" lon="-8.6055900">
        <ele>14.0</ele>
        <time>2015-03-20T10:01:41Z</time>
      </trkpt>
      <trkpt lat="39.3129450" lon="-8.6057630">
        <ele>13.4</ele>
        <time>2015-03-20T10:01:57Z</time>
      </trkpt>
      <trkpt lat="39.3122400" lon="-8.6060500">
        <ele>12.6</ele>
        <time>2015-03-20T10:02:16Z</time>
      </trkpt>
      <trkpt lat="39.3120710" lon="-8.6061190">
        <ele>12.5</ele>
        <time>2015-03-20T10:02:21Z</time>
      </trkpt>
      <trkpt lat="39.3119960" lon="-8.6057830">
        <ele>12.4</ele>
        <time>2015-03-20T10:02:29Z</time>
      </trkpt>
      <trkpt lat="39.3122030" lon="-8.6048810">
        <ele>13.0</ele>
        <time>2015-03-20T10:02:47Z</time>
      </trkpt>
      <trkpt lat="39.3123870" lon="-8.6041480">
        <ele>13.0</ele>
        <time>2015-03-20T10:03:03Z</time>
      </trkpt>
      <trkpt lat="39.3125340" lon="-8.6032430">
        <ele>12.6</ele>
        <time>2015-03-20T10:03:22Z</time>
      </trkpt>
      <trkpt lat="39.3120990" lon="-8.6032040">
        <ele>12.1</ele>
        <time>2015-03-20T10:03:35Z</time>
      </trkpt>
      <trkpt lat="39.3117010" lon="-8.6028790">
        <ele>11.2</ele>
        <time>2015-03-20T10:03:47Z</time>
      </trkpt>
      <trkpt lat="39.3116340" lon="-8.6028170">
        <ele>11.1</ele>
        <time>2015-03-20T10:03:49Z</time>
      </trkpt>
      <trkpt lat="39.3112210" lon="-8.6023580">
        <ele>11.4</ele>
        <time>2015-03-20T10:04:03Z</time>
      </trkpt>
      <trkpt lat="39.3108790" lon="-8.6015610">
        <ele>11.8</ele>
        <time>2015-03-20T10:04:21Z</time>
      </trkpt>
      <trkpt lat="39.3106840" lon="-8.6007910">
        <ele>11.7</ele>
        <time>2015-03-20T10:04:38Z</time>
      </trkpt>
      <trkpt lat="39.3105610" lon="-8.6003100">
        <ele>11.8</ele>
        <time>2015-03-20T10:04:52Z</time>
      </trkpt>
      <trkpt lat="39.3104860" lon="-8.6000210">
        <ele>11.9</ele>
        <time>2015-03-20T10:05:50Z</time>
      </trkpt>
      <trkpt lat="39.3102260" lon="-8.5990390">
        <ele>12.3</ele>
        <time>2015-03-20T10:06:11Z</time>
      </trkpt>
      <trkpt lat="39.3102000" lon="-8.5989410">
        <ele>12.3</ele>
        <time>2015-03-20T10:06:13Z</time>
      </trkpt>
      <trkpt lat="39.3099960" lon="-8.5981660">
        <ele>12.3</ele>
        <time>2015-03-20T10:06:29Z</time>
      </trkpt>
      <trkpt lat="39.3097520" lon="-8.5972500">
        <ele>12.3</ele>
        <time>2015-03-20T10:06:47Z</time>
      </trkpt>
      <trkpt lat="39.3097220" lon="-8.5971490">
        <ele>12.3</ele>
        <time>2015-03-20T10:06:49Z</time>
      </trkpt>
      <trkpt lat="39.3096860" lon="-8.5970450">
        <ele>12.3</ele>
        <time>2015-03-20T10:06:51Z</time>
      </trkpt>
      <trkpt lat="39.3094740" lon="-8.5961920">
        <ele>12.1</ele>
        <time>2015-03-20T10:07:08Z</time>
      </trkpt>
      <trkpt lat="39.3092280" lon="-8.5952320">
        <ele>11.5</ele>
        <time>2015-03-20T10:07:27Z</time>
      </trkpt>
      <trkpt lat="39.3089820" lon="-8.5943390">
        <ele>10.9</ele>
        <time>2015-03-20T10:07:45Z</time>
      </trkpt>
      <trkpt lat="39.3088570" lon="-8.5935590">
        <ele>12.3</ele>
        <time>2015-03-20T10:08:01Z</time>
      </trkpt>
      <trkpt lat="39.3091980" lon="-8.5930830">
        <ele>12.8</ele>
        <time>2015-03-20T10:08:15Z</time>
      </trkpt>
      <trkpt lat="39.3097020" lon="-8.5923490">
        <ele>13.1</ele>
        <time>2015-03-20T10:08:36Z</time>
      </trkpt>
      <trkpt lat="39.3101640" lon="-8.5916650">
        <ele>13.6</ele>
        <time>2015-03-20T10:08:56Z</time>
      </trkpt>
      <trkpt lat="39.3106370" lon="-8.5909800">
        <ele>14.1</ele>
        <time>2015-03-20T10:09:16Z</time>
      </trkpt>
      <trkpt lat="39.3109620" lon="-8.5904930">
        <ele>14.3</ele>
        <time>2015-03-20T10:09:30Z</time>
      </trkpt>
      <trkpt lat="39.3114480" lon="-8.5897510">
        <ele>14.4</ele>
        <time>2015-03-20T10:09:51Z</time>
      </trkpt>
      <trkpt lat="39.3118460" lon="-8.5890810">
        <ele>14.8</ele>
        <time>2015-03-20T10:10:09Z</time>
      </trkpt>
      <trkpt lat="39.3122260" lon="-8.5884540">
        <ele>14.7</ele>
        <time>2015-03-20T10:10:26Z</time>
      </trkpt>
      <trkpt lat="39.3125850" lon="-8.5878720">
        <ele>12.8</ele>
        <time>2015-03-20T10:10:42Z</time>
      </trkpt>
      <trkpt lat="39.3130370" lon="-8.5875850">
        <ele>13.7</ele>
        <time>2015-03-20T10:10:56Z</time>
      </trkpt>
      <trkpt lat="39.3134250" lon="-8.5870370">
        <ele>14.2</ele>
        <time>2015-03-20T10:11:12Z</time>
      </trkpt>
      <trkpt lat="39.3138620" lon="-8.5864060">
        <ele>14.1</ele>
        <time>2015-03-20T10:11:30Z</time>
      </trkpt>
      <trkpt lat="39.3142080" lon="-8.5858570">
        <ele>13.8</ele>
        <time>2015-03-20T10:11:45Z</time>
      </trkpt>
      <trkpt lat="39.3145620" lon="-8.5851880">
        <ele>13.5</ele>
        <time>2015-03-20T10:12:02Z</time>
      </trkpt>
      <trkpt lat="39.3149670" lon="-8.5844160">
        <ele>13.1</ele>
        <time>2015-03-20T10:12:22Z</time>
      </trkpt>
      <trkpt lat="39.3153310" lon="-8.5838460">
        <ele>13.0</ele>
        <time>2015-03-20T10:12:38Z</time>
      </trkpt>
      <trkpt lat="39.3156350" lon="-8.5834410">
        <ele>12.9</ele>
        <time>2015-03-20T10:12:50Z</time>
      </trkpt>
      <trkpt lat="39.3161370" lon="-8.5828560">
        <ele>12.9</ele>
        <time>2015-03-20T10:13:09Z</time>
      </trkpt>
      <trkpt lat="39.3165540" lon="-8.5824490">
        <ele>13.1</ele>
        <time>2015-03-20T10:13:23Z</time>
      </trkpt>
      <trkpt lat="39.3170020" lon="-8.5824890">
        <ele>13.1</ele>
        <time>2015-03-20T10:13:35Z</time>
      </trkpt>
      <trkpt lat="39.3175640" lon="-8.5824780">
        <ele>12.8</ele>
        <time>2015-03-20T10:13:51Z</time>
      </trkpt>
      <trkpt lat="39.3178520" lon="-8.5822740">
        <ele>12.7</ele>
        <time>2015-03-20T10:14:01Z</time>
      </trkpt>
      <trkpt lat="39.3181740" lon="-8.5818220">
        <ele>12.5</ele>
        <time>2015-03-20T10:14:15Z</time>
      </trkpt>
      <trkpt lat="39.3185290" lon="-8.5812710">
        <ele>12.2</ele>
        <time>2015-03-20T10:14:31Z</time>
      </trkpt>
      <trkpt lat="39.3188550" lon="-8.5808260">
        <ele>12.2</ele>
        <time>2015-03-20T10:14:45Z</time>
      </trkpt>
      <trkpt lat="39.3191220" lon="-8.5802650">
        <ele>12.2</ele>
        <time>2015-03-20T10:15:00Z</time>
      </trkpt>
      <trkpt lat="39.3193270" lon="-8.5796050">
        <ele>12.4</ele>
        <time>2015-03-20T10:15:16Z</time>
      </trkpt>
      <trkpt lat="39.3195010" lon="-8.5789120">
        <ele>12.6</ele>
        <time>2015-03-20T10:15:32Z</time>
      </trkpt>
      <trkpt lat="39.3195530" lon="-8.5782760">
        <ele>12.8</ele>
        <time>2015-03-20T10:15:47Z</time>
      </trkpt>
      <trkpt lat="39.3196710" lon="-8.5776970">
        <ele>12.7</ele>
        <time>2015-03-20T10:16:02Z</time>
      </trkpt>
      <trkpt lat="39.3197940" lon="-8.5772160">
        <ele>12.6</ele>
        <time>2015-03-20T10:16:14Z</time>
      </trkpt>
      <trkpt lat="39.3198990" lon="-8.5765380">
        <ele>12.5</ele>
        <time>2015-03-20T10:16:30Z</time>
      </trkpt>
      <trkpt lat="39.3198730" lon="-8.5759060">
        <ele>12.6</ele>
        <time>2015-03-20T10:16:44Z</time>
      </trkpt>
      <trkpt lat="39.3198530" lon="-8.5753500">
        <ele>12.8</ele>
        <time>2015-03-20T10:16:57Z</time>
      </trkpt>
      <trkpt lat="39.3198700" lon="-8.5747390">
        <ele>13.0</ele>
        <time>2015-03-20T10:17:11Z</time>
      </trkpt>
      <trkpt lat="39.3199020" lon="-8.5740620">
        <ele>12.6</ele>
        <time>2015-03-20T10:17:26Z</time>
      </trkpt>
      <trkpt lat="39.3199970" lon="-8.5734010">
        <ele>12.3</ele>
        <time>2015-03-20T10:17:42Z</time>
      </trkpt>
      <trkpt lat="39.3200550" lon="-8.5730310">
        <ele>12.4</ele>
        <time>2015-03-20T10:17:51Z</time>
      </trkpt>
      <trkpt lat="39.3201190" lon="-8.5723320">
        <ele>12.8</ele>
        <time>2015-03-20T10:18:07Z</time>
      </trkpt>
      <trkpt lat="39.3201480" lon="-8.5719040">
        <ele>13.0</ele>
        <time>2015-03-20T10:18:17Z</time>
      </trkpt>
      <trkpt lat="39.3202490" lon="-8.5713950">
        <ele>13.1</ele>
        <time>2015-03-20T10:18:29Z</time>
      </trkpt>
      <trkpt lat="39.3204160" lon="-8.5708430">
        <ele>13.3</ele>
        <time>2015-03-20T10:18:42Z</time>
      </trkpt>
      <trkpt lat="39.3205190" lon="-8.5703600">
        <ele>13.2</ele>
        <time>2015-03-20T10:18:53Z</time>
      </trkpt>
      <trkpt lat="39.3206680" lon="-8.5695980">
        <ele>13.2</ele>
        <time>2015-03-20T10:19:10Z</time>
      </trkpt>
      <trkpt lat="39.3208060" lon="-8.5690390">
        <ele>13.0</ele>
        <time>2015-03-20T10:19:24Z</time>
      </trkpt>
      <trkpt lat="39.3210730" lon="-8.5686540">
        <ele>13.1</ele>
        <time>2015-03-20T10:19:36Z</time>
      </trkpt>
      <trkpt lat="39.3213280" lon="-8.5686740">
        <ele>13.2</ele>
        <time>2015-03-20T10:19:44Z</time>
      </trkpt>
      <trkpt lat="39.3219080" lon="-8.5688500">
        <ele>13.6</ele>
        <time>2015-03-20T10:20:01Z</time>
      </trkpt>
      <trkpt lat="39.3219730" lon="-8.5688030">
        <ele>13.7</ele>
        <time>2015-03-20T10:20:38Z</time>
      </trkpt>
      <trkpt lat="39.3221130" lon="-8.5682840">
        <ele>13.4</ele>
        <time>2015-03-20T10:20:51Z</time>
      </trkpt>
      <trkpt lat="39.3224070" lon="-8.5675570">
        <ele>13.0</ele>
        <time>2015-03-20T10:21:09Z</time>
      </trkpt>
      <trkpt lat="39.3226110" lon="-8.5669330">
        <ele>12.6</ele>
        <time>2015-03-20T10:21:24Z</time>
      </trkpt>
      <trkpt lat="39.3229240" lon="-8.5661110">
        <ele>12.4</ele>
        <time>2015-03-20T10:21:44Z</time>
      </trkpt>
      <trkpt lat="39.3231500" lon="-8.5654280">
        <ele>12.5</ele>
        <time>2015-03-20T10:22:00Z</time>
      </trkpt>
      <trkpt lat="39.3232620" lon="-8.5646850">
        <ele>12.3</ele>
        <time>2015-03-20T10:22:16Z</time>
      </trkpt>
      <trkpt lat="39.3232400" lon="-8.5639290">
        <ele>12.1</ele>
        <time>2015-03-20T10:22:33Z</time>
      </trkpt>
      <trkpt lat="39.3231790" lon="-8.5634070">
        <ele>11.6</ele>
        <time>2015-03-20T10:22:45Z</time>
      </trkpt>
      <trkpt lat="39.3231720" lon="-8.5632720">
        <ele>11.5</ele>
        <time>2015-03-20T10:22:57Z</time>
      </trkpt>
      <trkpt lat="39.3230370" lon="-8.5632110">
        <ele>11.4</ele>
        <time>2015-03-20T10:23:11Z</time>
      </trkpt>
      <trkpt lat="39.3227400" lon="-8.5626290">
        <ele>11.1</ele>
        <time>2015-03-20T10:23:27Z</time>
      </trkpt>
      <trkpt lat="39.3227000" lon="-8.5620620">
        <ele>11.1</ele>
        <time>2015-03-20T10:23:41Z</time>
      </trkpt>
      <trkpt lat="39.3229090" lon="-8.5613220">
        <ele>11.2</ele>
        <time>2015-03-20T10:23:59Z</time>
      </trkpt>
      <trkpt lat="39.3230600" lon="-8.5607050">
        <ele>11.3</ele>
        <time>2015-03-20T10:24:14Z</time>
      </trkpt>
      <trkpt lat="39.3231620" lon="-8.5598250">
        <ele>11.2</ele>
        <time>2015-03-20T10:24:34Z</time>
      </trkpt>
      <trkpt lat="39.3231710" lon="-8.5597420">
        <ele>11.2</ele>
        <time>2015-03-20T10:24:36Z</time>
      </trkpt>
      <trkpt lat="39.3232930" lon="-8.5590670">
        <ele>11.0</ele>
        <time>2015-03-20T10:24:52Z</time>
      </trkpt>
      <trkpt lat="39.3233750" lon="-8.5583020">
        <ele>11.3</ele>
        <time>2015-03-20T10:25:09Z</time>
      </trkpt>
      <trkpt lat="39.3234290" lon="-8.5574740">
        <ele>13.5</ele>
        <time>2015-03-20T10:25:25Z</time>
      </trkpt>
      <trkpt lat="39.3235510" lon="-8.5567590">
        <ele>15.5</ele>
        <time>2015-03-20T10:25:40Z</time>
      </trkpt>
      <trkpt lat="39.3236260" lon="-8.5560350">
        <ele>15.4</ele>
        <time>2015-03-20T10:25:55Z</time>
      </trkpt>
      <trkpt lat="39.3237690" lon="-8.5555470">
        <ele>14.7</ele>
        <time>2015-03-20T10:26:07Z</time>
      </trkpt>
      <trkpt lat="39.3238920" lon="-8.5548700">
        <ele>14.2</ele>
        <time>2015-03-20T10:26:22Z</time>
      </trkpt>
      <trkpt lat="39.3238830" lon="-8.5540630">
        <ele>14.1</ele>
        <time>2015-03-20T10:26:39Z</time>
      </trkpt>
      <trkpt lat="39.3238710" lon="-8.5531670">
        <ele>14.3</ele>
        <time>2015-03-20T10:26:58Z</time>
      </trkpt>
      <trkpt lat="39.3240120" lon="-8.5527620">
        <ele>14.7</ele>
        <time>2015-03-20T10:27:08Z</time>
      </trkpt>
      <trkpt lat="39.3241070" lon="-8.5528160">
        <ele>14.8</ele>
        <time>2015-03-20T10:27:12Z</time>
      </trkpt>
      <trkpt lat="39.3243920" lon="-8.5532930">
        <ele>15.2</ele>
        <time>2015-03-20T10:27:26Z</time>
      </trkpt>
      <trkpt lat="39.3246460" lon="-8.5537780">
        <ele>15.8</ele>
        <time>2015-03-20T10:27:39Z</time>
      </trkpt>
      <trkpt lat="39.3249430" lon="-8.5543200">
        <ele>16.1</ele>
        <time>2015-03-20T10:27:53Z</time>
      </trkpt>
      <trkpt lat="39.3252700" lon="-8.5547020">
        <ele>16.2</ele>
        <time>2015-03-20T10:28:05Z</time>
      </trkpt>
      <trkpt lat="39.3257200" lon="-8.5550960">
        <ele>16.3</ele>
        <time>2015-03-20T10:28:20Z</time>
      </trkpt>
      <trkpt lat="39.3260730" lon="-8.5554290">
        <ele>16.3</ele>
        <time>2015-03-20T10:28:32Z</time>
      </trkpt>
      <trkpt lat="39.3265010" lon="-8.5558630">
        <ele>16.0</ele>
        <time>2015-03-20T10:28:47Z</time>
      </trkpt>
      <trkpt lat="39.3267610" lon="-8.5558870">
        <ele>15.7</ele>
        <time>2015-03-20T10:28:57Z</time>
      </trkpt>
      <trkpt lat="39.3270670" lon="-8.5553540">
        <ele>15.4</ele>
        <time>2015-03-20T10:29:13Z</time>
      </trkpt>
      <trkpt lat="39.3274270" lon="-8.5546300">
        <ele>15.9</ele>
        <time>2015-03-20T10:29:32Z</time>
      </trkpt>
      <trkpt lat="39.3277520" lon="-8.5539870">
        <ele>16.3</ele>
        <time>2015-03-20T10:29:49Z</time>
      </trkpt>
      <trkpt lat="39.3280760" lon="-8.5533620">
        <ele>16.1</ele>
        <time>2015-03-20T10:30:06Z</time>
      </trkpt>
      <trkpt lat="39.3284060" lon="-8.5527080">
        <ele>15.7</ele>
        <time>2015-03-20T10:30:23Z</time>
      </trkpt>
      <trkpt lat="39.3287900" lon="-8.5519680">
        <ele>15.2</ele>
        <time>2015-03-20T10:30:42Z</time>
      </trkpt>
      <trkpt lat="39.3291370" lon="-8.5513300">
        <ele>14.7</ele>
        <time>2015-03-20T10:31:00Z</time>
      </trkpt>
      <trkpt lat="39.3294250" lon="-8.5507950">
        <ele>14.2</ele>
        <time>2015-03-20T10:31:15Z</time>
      </trkpt>
      <trkpt lat="39.3297630" lon="-8.5501580">
        <ele>13.5</ele>
        <time>2015-03-20T10:31:32Z</time>
      </trkpt>
      <trkpt lat="39.3300730" lon="-8.5495730">
        <ele>13.2</ele>
        <time>2015-03-20T10:31:48Z</time>
      </trkpt>
      <trkpt lat="39.3303420" lon="-8.5491860">
        <ele>13.1</ele>
        <time>2015-03-20T10:32:00Z</time>
      </trkpt>
      <trkpt lat="39.3306720" lon="-8.5487570">
        <ele>13.4</ele>
        <time>2015-03-20T10:32:14Z</time>
      </trkpt>
      <trkpt lat="39.3310720" lon="-8.5481950">
        <ele>14.0</ele>
        <time>2015-03-20T10:32:30Z</time>
      </trkpt>
      <trkpt lat="39.3314860" lon="-8.5476390">
        <ele>14.3</ele>
        <time>2015-03-20T10:32:46Z</time>
      </trkpt>
      <trkpt lat="39.3319100" lon="-8.5470460">
        <ele>14.3</ele>
        <time>2015-03-20T10:33:02Z</time>
      </trkpt>
      <trkpt lat="39.3322710" lon="-8.5465500">
        <ele>14.2</ele>
        <time>2015-03-20T10:33:16Z</time>
      </trkpt>
      <trkpt lat="39.3326260" lon="-8.5460680">
        <ele>14.2</ele>
        <time>2015-03-20T10:33:30Z</time>
      </trkpt>
      <trkpt lat="39.3327470" lon="-8.5460960">
        <ele>14.2</ele>
        <time>2015-03-20T10:33:34Z</time>
      </trkpt>
      <trkpt lat="39.3328770" lon="-8.5465510">
        <ele>14.2</ele>
        <time>2015-03-20T10:33:44Z</time>
      </trkpt>
      <trkpt lat="39.3330910" lon="-8.5471380">
        <ele>14.1</ele>
        <time>2015-03-20T10:33:58Z</time>
      </trkpt>
      <trkpt lat="39.3331870" lon="-8.5476230">
        <ele>14.1</ele>
        <time>2015-03-20T10:34:09Z</time>
      </trkpt>
      <trkpt lat="39.3334370" lon="-8.5483090">
        <ele>13.8</ele>
        <time>2015-03-20T10:34:25Z</time>
      </trkpt>
      <trkpt lat="39.3336890" lon="-8.5489810">
        <ele>14.0</ele>
        <time>2015-03-20T10:34:42Z</time>
      </trkpt>
      <trkpt lat="39.3339980" lon="-8.5494200">
        <ele>14.4</ele>
        <time>2015-03-20T10:34:56Z</time>
      </trkpt>
      <trkpt lat="39.3344850" lon="-8.5493240">
        <ele>14.5</ele>
        <time>2015-03-20T10:35:10Z</time>
      </trkpt>
      <trkpt lat="39.3349350" lon="-8.5492430">
        <ele>15.0</ele>
        <time>2015-03-20T10:35:25Z</time>
      </trkpt>
      <trkpt lat="39.3354420" lon="-8.5491760">
        <ele>15.6</ele>
        <time>2015-03-20T10:35:40Z</time>
      </trkpt>
      <trkpt lat="39.3358400" lon="-8.5492430">
        <ele>15.7</ele>
        <time>2015-03-20T10:35:51Z</time>
      </trkpt>
      <trkpt lat="39.3363110" lon="-8.5493520">
        <ele>15.8</ele>
        <time>2015-03-20T10:36:04Z</time>
      </trkpt>
      <trkpt lat="39.3369680" lon="-8.5495390">
        <ele>15.9</ele>
        <time>2015-03-20T10:36:22Z</time>
      </trkpt>
      <trkpt lat="39.3374200" lon="-8.5497080">
        <ele>16.0</ele>
        <time>2015-03-20T10:36:35Z</time>
      </trkpt>
      <trkpt lat="39.3377840" lon="-8.5497750">
        <ele>16.2</ele>
        <time>2015-03-20T10:36:46Z</time>
      </trkpt>
      <trkpt lat="39.3378280" lon="-8.5496130">
        <ele>16.3</ele>
        <time>2015-03-20T10:36:52Z</time>
      </trkpt>
      <trkpt lat="39.3377910" lon="-8.5495280">
        <ele>16.2</ele>
        <time>2015-03-20T10:36:54Z</time>
      </trkpt>
      <trkpt lat="39.3376440" lon="-8.5490420">
        <ele>16.0</ele>
        <time>2015-03-20T10:37:05Z</time>
      </trkpt>
      <trkpt lat="39.3373820" lon="-8.5482590">
        <ele>15.7</ele>
        <time>2015-03-20T10:37:22Z</time>
      </trkpt>
      <trkpt lat="39.3371030" lon="-8.5475300">
        <ele>15.1</ele>
        <time>2015-03-20T10:37:39Z</time>
      </trkpt>
      <trkpt lat="39.3369450" lon="-8.5469820">
        <ele>15.1</ele>
        <time>2015-03-20T10:37:52Z</time>
      </trkpt>
      <trkpt lat="39.3368010" lon="-8.5463170">
        <ele>15.2</ele>
        <time>2015-03-20T10:38:07Z</time>
      </trkpt>
      <trkpt lat="39.3366440" lon="-8.5456730">
        <ele>15.8</ele>
        <time>2015-03-20T10:38:22Z</time>
      </trkpt>
      <trkpt lat="39.3365660" lon="-8.5450640">
        <ele>16.1</ele>
        <time>2015-03-20T10:38:36Z</time>
      </trkpt>
      <trkpt lat="39.3365370" lon="-8.5443660">
        <ele>15.5</ele>
        <time>2015-03-20T10:38:51Z</time>
      </trkpt>
      <trkpt lat="39.3364930" lon="-8.5437070">
        <ele>15.0</ele>
        <time>2015-03-20T10:39:05Z</time>
      </trkpt>
      <trkpt lat="39.3366000" lon="-8.5430280">
        <ele>15.0</ele>
        <time>2015-03-20T10:39:21Z</time>
      </trkpt>
      <trkpt lat="39.3369040" lon="-8.5423670">
        <ele>16.8</ele>
        <time>2015-03-20T10:39:40Z</time>
      </trkpt>
      <trkpt lat="39.3372290" lon="-8.5417950">
        <ele>17.4</ele>
        <time>2015-03-20T10:39:56Z</time>
      </trkpt>
      <trkpt lat="39.3376600" lon="-8.5412030">
        <ele>17.6</ele>
        <time>2015-03-20T10:40:14Z</time>
      </trkpt>
      <trkpt lat="39.3380700" lon="-8.5406940">
        <ele>17.6</ele>
        <time>2015-03-20T10:40:30Z</time>
      </trkpt>
      <trkpt lat="39.3384090" lon="-8.5402900">
        <ele>17.5</ele>
        <time>2015-03-20T10:40:43Z</time>
      </trkpt>
      <trkpt lat="39.3388470" lon="-8.5398030">
        <ele>17.5</ele>
        <time>2015-03-20T10:40:59Z</time>
      </trkpt>
      <trkpt lat="39.3393430" lon="-8.5392660">
        <ele>17.9</ele>
        <time>2015-03-20T10:41:17Z</time>
      </trkpt>
      <trkpt lat="39.3397580" lon="-8.5388430">
        <ele>17.9</ele>
        <time>2015-03-20T10:41:31Z</time>
      </trkpt>
      <trkpt lat="39.3402620" lon="-8.5383710">
        <ele>18.1</ele>
        <time>2015-03-20T10:41:47Z</time>
      </trkpt>
      <trkpt lat="39.3408850" lon="-8.5377740">
        <ele>18.4</ele>
        <time>2015-03-20T10:42:07Z</time>
      </trkpt>
      <trkpt lat="39.3414360" lon="-8.5371750">
        <ele>18.6</ele>
        <time>2015-03-20T10:42:25Z</time>
      </trkpt>
      <trkpt lat="39.3418690" lon="-8.5365890">
        <ele>18.7</ele>
        <time>2015-03-20T10:42:41Z</time>
      </trkpt>
      <trkpt lat="39.3424580" lon="-8.5358160">
        <ele>18.3</ele>
        <time>2015-03-20T10:43:01Z</time>
      </trkpt>
      <trkpt lat="39.3430990" lon="-8.5352270">
        <ele>18.6</ele>
        <time>2015-03-20T10:43:20Z</time>
      </trkpt>
      <trkpt lat="39.3438170" lon="-8.5347900">
        <ele>18.3</ele>
        <time>2015-03-20T10:43:38Z</time>
      </trkpt>
      <trkpt lat="39.3440420" lon="-8.5343040">
        <ele>18.6</ele>
        <time>2015-03-20T10:43:49Z</time>
      </trkpt>
      <trkpt lat="39.3443500" lon="-8.5334700">
        <ele>18.0</ele>
        <time>2015-03-20T10:44:08Z</time>
      </trkpt>
      <trkpt lat="39.3443610" lon="-8.5333910">
        <ele>17.8</ele>
        <time>2015-03-20T10:44:17Z</time>
      </trkpt>
      <trkpt lat="39.3444120" lon="-8.5331490">
        <ele>17.7</ele>
        <time>2015-03-20T10:45:00Z</time>
      </trkpt>
      <trkpt lat="39.3447280" lon="-8.5326300">
        <ele>18.9</ele>
        <time>2015-03-20T10:45:15Z</time>
      </trkpt>
      <trkpt lat="39.3451290" lon="-8.5319060">
        <ele>19.1</ele>
        <time>2015-03-20T10:45:33Z</time>
      </trkpt>
      <trkpt lat="39.3454240" lon="-8.5311820">
        <ele>19.5</ele>
        <time>2015-03-20T10:45:52Z</time>
      </trkpt>
      <trkpt lat="39.3454410" lon="-8.5311040">
        <ele>19.5</ele>
        <time>2015-03-20T10:45:56Z</time>
      </trkpt>
      <trkpt lat="39.3455200" lon="-8.5306640">
        <ele>19.7</ele>
        <time>2015-03-20T10:46:10Z</time>
      </trkpt>
      <trkpt lat="39.3458020" lon="-8.5300580">
        <ele>19.9</ele>
        <time>2015-03-20T10:46:27Z</time>
      </trkpt>
      <trkpt lat="39.3460670" lon="-8.5297210">
        <ele>20.6</ele>
        <time>2015-03-20T10:46:42Z</time>
      </trkpt>
      <trkpt lat="39.3462690" lon="-8.5295430">
        <ele>20.8</ele>
        <time>2015-03-20T10:47:44Z</time>
      </trkpt>
      <trkpt lat="39.3465690" lon="-8.5290780">
        <ele>21.0</ele>
        <time>2015-03-20T10:48:00Z</time>
      </trkpt>
      <trkpt lat="39.3469610" lon="-8.5285480">
        <ele>20.7</ele>
        <time>2015-03-20T10:48:18Z</time>
      </trkpt>
      <trkpt lat="39.3472340" lon="-8.5283180">
        <ele>20.4</ele>
        <time>2015-03-20T10:48:33Z</time>
      </trkpt>
      <trkpt lat="39.3474060" lon="-8.5282250">
        <ele>20.3</ele>
        <time>2015-03-20T11:05:49Z</time>
      </trkpt>
      <trkpt lat="39.3478380" lon="-8.5281540">
        <ele>20.9</ele>
        <time>2015-03-20T11:06:04Z</time>
      </trkpt>
      <trkpt lat="39.3483510" lon="-8.5281430">
        <ele>21.5</ele>
        <time>2015-03-20T11:06:21Z</time>
      </trkpt>
      <trkpt lat="39.3488240" lon="-8.5281310">
        <ele>21.6</ele>
        <time>2015-03-20T11:06:37Z</time>
      </trkpt>
      <trkpt lat="39.3494210" lon="-8.5281090">
        <ele>21.2</ele>
        <time>2015-03-20T11:06:55Z</time>
      </trkpt>
      <trkpt lat="39.3500930" lon="-8.5280960">
        <ele>20.8</ele>
        <time>2015-03-20T11:07:14Z</time>
      </trkpt>
      <trkpt lat="39.3507870" lon="-8.5282480">
        <ele>20.4</ele>
        <time>2015-03-20T11:07:32Z</time>
      </trkpt>
      <trkpt lat="39.3513720" lon="-8.5284080">
        <ele>20.0</ele>
        <time>2015-03-20T11:07:47Z</time>
      </trkpt>
      <trkpt lat="39.3522550" lon="-8.5285310">
        <ele>19.4</ele>
        <time>2015-03-20T11:08:08Z</time>
      </trkpt>
      <trkpt lat="39.3530390" lon="-8.5284000">
        <ele>18.6</ele>
        <time>2015-03-20T11:08:26Z</time>
      </trkpt>
      <trkpt lat="39.3532460" lon="-8.5283260">
        <ele>18.7</ele>
        <time>2015-03-20T11:08:31Z</time>
      </trkpt>
      <trkpt lat="39.3539200" lon="-8.5282610">
        <ele>18.4</ele>
        <time>2015-03-20T11:08:47Z</time>
      </trkpt>
      <trkpt lat="39.3547020" lon="-8.5281130">
        <ele>18.7</ele>
        <time>2015-03-20T11:09:06Z</time>
      </trkpt>
      <trkpt lat="39.3548330" lon="-8.5280650">
        <ele>18.6</ele>
        <time>2015-03-20T11:09:16Z</time>
      </trkpt>
      <trkpt lat="39.3549660" lon="-8.5280180">
        <ele>18.6</ele>
        <time>2015-03-20T11:09:39Z</time>
      </trkpt>
      <trkpt lat="39.3554620" lon="-8.5278200">
        <ele>19.2</ele>
        <time>2015-03-20T11:09:55Z</time>
      </trkpt>
      <trkpt lat="39.3562200" lon="-8.5274980">
        <ele>19.1</ele>
        <time>2015-03-20T11:10:15Z</time>
      </trkpt>
      <trkpt lat="39.3570080" lon="-8.5271680">
        <ele>19.5</ele>
        <time>2015-03-20T11:10:35Z</time>
      </trkpt>
      <trkpt lat="39.3574370" lon="-8.5269900">
        <ele>19.5</ele>
        <time>2015-03-20T11:10:46Z</time>
      </trkpt>
      <trkpt lat="39.3581760" lon="-8.5266820">
        <ele>20.4</ele>
        <time>2015-03-20T11:11:05Z</time>
      </trkpt>
      <trkpt lat="39.3588740" lon="-8.5263880">
        <ele>19.8</ele>
        <time>2015-03-20T11:11:23Z</time>
      </trkpt>
      <trkpt lat="39.3595720" lon="-8.5260970">
        <ele>20.2</ele>
        <time>2015-03-20T11:11:40Z</time>
      </trkpt>
      <trkpt lat="39.3601790" lon="-8.5258470">
        <ele>19.6</ele>
        <time>2015-03-20T11:11:55Z</time>
      </trkpt>
      <trkpt lat="39.3608000" lon="-8.5257020">
        <ele>19.6</ele>
        <time>2015-03-20T11:12:11Z</time>
      </trkpt>
      <trkpt lat="39.3614440" lon="-8.5258390">
        <ele>18.9</ele>
        <time>2015-03-20T11:12:29Z</time>
      </trkpt>
      <trkpt lat="39.3620510" lon="-8.5259750">
        <ele>19.0</ele>
        <time>2015-03-20T11:12:47Z</time>
      </trkpt>
      <trkpt lat="39.3627320" lon="-8.5261180">
        <ele>19.6</ele>
        <time>2015-03-20T11:13:06Z</time>
      </trkpt>
      <trkpt lat="39.3632870" lon="-8.5262380">
        <ele>20.3</ele>
        <time>2015-03-20T11:13:23Z</time>
      </trkpt>
      <trkpt lat="39.3636620" lon="-8.5262980">
        <ele>21.2</ele>
        <time>2015-03-20T11:14:03Z</time>
      </trkpt>
      <trkpt lat="39.3637270" lon="-8.5261360">
        <ele>21.1</ele>
        <time>2015-03-20T11:14:07Z</time>
      </trkpt>
      <trkpt lat="39.3638330" lon="-8.5251320">
        <ele>19.1</ele>
        <time>2015-03-20T11:14:25Z</time>
      </trkpt>
      <trkpt lat="39.3638700" lon="-8.5249790">
        <ele>18.6</ele>
        <time>2015-03-20T11:14:28Z</time>
      </trkpt>
      <trkpt lat="39.3640690" lon="-8.5240140">
        <ele>14.6</ele>
        <time>2015-03-20T11:14:46Z</time>
      </trkpt>
      <trkpt lat="39.3642580" lon="-8.5233260">
        <ele>14.7</ele>
        <time>2015-03-20T11:14:59Z</time>
      </trkpt>
      <trkpt lat="39.3645890" lon="-8.5228230">
        <ele>14.6</ele>
        <time>2015-03-20T11:15:11Z</time>
      </trkpt>
      <trkpt lat="39.3650770" lon="-8.5222220">
        <ele>14.8</ele>
        <time>2015-03-20T11:15:27Z</time>
      </trkpt>
      <trkpt lat="39.3657420" lon="-8.5217570">
        <ele>14.8</ele>
        <time>2015-03-20T11:15:45Z</time>
      </trkpt>
      <trkpt lat="39.3663680" lon="-8.5213220">
        <ele>14.9</ele>
        <time>2015-03-20T11:16:02Z</time>
      </trkpt>
      <trkpt lat="39.3671740" lon="-8.5207010">
        <ele>15.4</ele>
        <time>2015-03-20T11:16:24Z</time>
      </trkpt>
      <trkpt lat="39.3678430" lon="-8.5201830">
        <ele>15.0</ele>
        <time>2015-03-20T11:16:42Z</time>
      </trkpt>
      <trkpt lat="39.3680340" lon="-8.5200430">
        <ele>14.9</ele>
        <time>2015-03-20T11:16:47Z</time>
      </trkpt>
      <trkpt lat="39.3687460" lon="-8.5194500">
        <ele>15.1</ele>
        <time>2015-03-20T11:17:07Z</time>
      </trkpt>
      <trkpt lat="39.3695040" lon="-8.5187950">
        <ele>14.9</ele>
        <time>2015-03-20T11:17:28Z</time>
      </trkpt>
      <trkpt lat="39.3702170" lon="-8.5181910">
        <ele>15.0</ele>
        <time>2015-03-20T11:17:47Z</time>
      </trkpt>
      <trkpt lat="39.3708220" lon="-8.5176750">
        <ele>15.5</ele>
        <time>2015-03-20T11:18:03Z</time>
      </trkpt>
      <trkpt lat="39.3716370" lon="-8.5169620">
        <ele>15.3</ele>
        <time>2015-03-20T11:18:25Z</time>
      </trkpt>
      <trkpt lat="39.3722240" lon="-8.5163760">
        <ele>15.6</ele>
        <time>2015-03-20T11:18:42Z</time>
      </trkpt>
      <trkpt lat="39.3729650" lon="-8.5156030">
        <ele>15.5</ele>
        <time>2015-03-20T11:19:04Z</time>
      </trkpt>
      <trkpt lat="39.3736470" lon="-8.5148910">
        <ele>15.1</ele>
        <time>2015-03-20T11:19:24Z</time>
      </trkpt>
      <trkpt lat="39.3743730" lon="-8.5141470">
        <ele>15.3</ele>
        <time>2015-03-20T11:19:45Z</time>
      </trkpt>
      <trkpt lat="39.3751600" lon="-8.5134010">
        <ele>15.5</ele>
        <time>2015-03-20T11:20:07Z</time>
      </trkpt>
      <trkpt lat="39.3758640" lon="-8.5127230">
        <ele>15.5</ele>
        <time>2015-03-20T11:20:27Z</time>
      </trkpt>
      <trkpt lat="39.3763880" lon="-8.5121810">
        <ele>15.4</ele>
        <time>2015-03-20T11:20:42Z</time>
      </trkpt>
      <trkpt lat="39.3770460" lon="-8.5115320">
        <ele>15.5</ele>
        <time>2015-03-20T11:21:01Z</time>
      </trkpt>
      <trkpt lat="39.3776810" lon="-8.5109260">
        <ele>15.5</ele>
        <time>2015-03-20T11:21:19Z</time>
      </trkpt>
      <trkpt lat="39.3783100" lon="-8.5103170">
        <ele>15.9</ele>
        <time>2015-03-20T11:21:37Z</time>
      </trkpt>
      <trkpt lat="39.3785950" lon="-8.5100480">
        <ele>15.9</ele>
        <time>2015-03-20T11:21:45Z</time>
      </trkpt>
      <trkpt lat="39.3792000" lon="-8.5094670">
        <ele>15.5</ele>
        <time>2015-03-20T11:22:02Z</time>
      </trkpt>
      <trkpt lat="39.3798270" lon="-8.5088310">
        <ele>15.7</ele>
        <time>2015-03-20T11:22:20Z</time>
      </trkpt>
      <trkpt lat="39.3803990" lon="-8.5082430">
        <ele>15.5</ele>
        <time>2015-03-20T11:22:37Z</time>
      </trkpt>
      <trkpt lat="39.3811030" lon="-8.5075980">
        <ele>16.2</ele>
        <time>2015-03-20T11:22:57Z</time>
      </trkpt>
      <trkpt lat="39.3817360" lon="-8.5070530">
        <ele>15.5</ele>
        <time>2015-03-20T11:23:14Z</time>
      </trkpt>
      <trkpt lat="39.3824560" lon="-8.5064340">
        <ele>15.8</ele>
        <time>2015-03-20T11:23:33Z</time>
      </trkpt>
      <trkpt lat="39.3832040" lon="-8.5058310">
        <ele>15.4</ele>
        <time>2015-03-20T11:23:52Z</time>
      </trkpt>
      <trkpt lat="39.3836300" lon="-8.5054370">
        <ele>15.4</ele>
        <time>2015-03-20T11:24:03Z</time>
      </trkpt>
      <trkpt lat="39.3837260" lon="-8.5052970">
        <ele>15.5</ele>
        <time>2015-03-20T11:24:06Z</time>
      </trkpt>
      <trkpt lat="39.3843180" lon="-8.5044740">
        <ele>15.2</ele>
        <time>2015-03-20T11:24:26Z</time>
      </trkpt>
      <trkpt lat="39.3849510" lon="-8.5036050">
        <ele>14.8</ele>
        <time>2015-03-20T11:24:47Z</time>
      </trkpt>
      <trkpt lat="39.3855190" lon="-8.5028180">
        <ele>15.5</ele>
        <time>2015-03-20T11:25:06Z</time>
      </trkpt>
      <trkpt lat="39.3861360" lon="-8.5022560">
        <ele>16.0</ele>
        <time>2015-03-20T11:25:23Z</time>
      </trkpt>
      <trkpt lat="39.3867260" lon="-8.5017510">
        <ele>16.1</ele>
        <time>2015-03-20T11:25:39Z</time>
      </trkpt>
      <trkpt lat="39.3870260" lon="-8.5015290">
        <ele>16.1</ele>
        <time>2015-03-20T11:25:47Z</time>
      </trkpt>
      <trkpt lat="39.3870990" lon="-8.5014710">
        <ele>16.1</ele>
        <time>2015-03-20T11:25:49Z</time>
      </trkpt>
      <trkpt lat="39.3872600" lon="-8.5013660">
        <ele>16.1</ele>
        <time>2015-03-20T11:25:53Z</time>
      </trkpt>
      <trkpt lat="39.3879140" lon="-8.5009150">
        <ele>15.8</ele>
        <time>2015-03-20T11:26:09Z</time>
      </trkpt>
      <trkpt lat="39.3886700" lon="-8.5003840">
        <ele>16.1</ele>
        <time>2015-03-20T11:26:28Z</time>
      </trkpt>
      <trkpt lat="39.3894170" lon="-8.4998700">
        <ele>15.9</ele>
        <time>2015-03-20T11:26:47Z</time>
      </trkpt>
      <trkpt lat="39.3902270" lon="-8.4992320">
        <ele>16.0</ele>
        <time>2015-03-20T11:27:07Z</time>
      </trkpt>
      <trkpt lat="39.3903380" lon="-8.4991250">
        <ele>16.0</ele>
        <time>2015-03-20T11:27:10Z</time>
      </trkpt>
      <trkpt lat="39.3909020" lon="-8.4982970">
        <ele>16.0</ele>
        <time>2015-03-20T11:27:28Z</time>
      </trkpt>
      <trkpt lat="39.3910780" lon="-8.4980180">
        <ele>15.7</ele>
        <time>2015-03-20T11:27:35Z</time>
      </trkpt>
      <trkpt lat="39.3912890" lon="-8.4978180">
        <ele>15.5</ele>
        <time>2015-03-20T11:28:49Z</time>
      </trkpt>
      <trkpt lat="39.3914620" lon="-8.4976740">
        <ele>15.4</ele>
        <time>2015-03-20T11:28:54Z</time>
      </trkpt>
      <trkpt lat="39.3923450" lon="-8.4969150">
        <ele>15.5</ele>
        <time>2015-03-20T11:29:18Z</time>
      </trkpt>
      <trkpt lat="39.3930580" lon="-8.4963050">
        <ele>15.7</ele>
        <time>2015-03-20T11:29:37Z</time>
      </trkpt>
      <trkpt lat="39.3938540" lon="-8.4956180">
        <ele>15.7</ele>
        <time>2015-03-20T11:29:58Z</time>
      </trkpt>
      <trkpt lat="39.3946730" lon="-8.4949070">
        <ele>15.4</ele>
        <time>2015-03-20T11:30:19Z</time>
      </trkpt>
      <trkpt lat="39.3955530" lon="-8.4941560">
        <ele>15.2</ele>
        <time>2015-03-20T11:30:42Z</time>
      </trkpt>
      <trkpt lat="39.3963600" lon="-8.4934630">
        <ele>15.7</ele>
        <time>2015-03-20T11:31:03Z</time>
      </trkpt>
      <trkpt lat="39.3972280" lon="-8.4927390">
        <ele>15.9</ele>
        <time>2015-03-20T11:31:25Z</time>
      </trkpt>
      <trkpt lat="39.3973650" lon="-8.4926720">
        <ele>15.9</ele>
        <time>2015-03-20T11:31:28Z</time>
      </trkpt>
      <trkpt lat="39.3974570" lon="-8.4926480">
        <ele>15.9</ele>
        <time>2015-03-20T11:31:30Z</time>
      </trkpt>
      <trkpt lat="39.3982750" lon="-8.4924660">
        <ele>16.5</ele>
        <time>2015-03-20T11:31:48Z</time>
      </trkpt>
      <trkpt lat="39.3990860" lon="-8.4923080">
        <ele>15.2</ele>
        <time>2015-03-20T11:32:07Z</time>
      </trkpt>
      <trkpt lat="39.3992920" lon="-8.4922530">
        <ele>15.1</ele>
        <time>2015-03-20T11:32:12Z</time>
      </trkpt>
      <trkpt lat="39.3997590" lon="-8.4917220">
        <ele>15.5</ele>
        <time>2015-03-20T11:32:28Z</time>
      </trkpt>
      <trkpt lat="39.3999710" lon="-8.4913950">
        <ele>14.7</ele>
        <time>2015-03-20T11:32:42Z</time>
      </trkpt>
      <trkpt lat="39.4001310" lon="-8.4911590">
        <ele>15.3</ele>
        <time>2015-03-20T11:33:44Z</time>
      </trkpt>
      <trkpt lat="39.4005540" lon="-8.4905320">
        <ele>18.5</ele>
        <time>2015-03-20T11:34:02Z</time>
      </trkpt>
      <trkpt lat="39.4009330" lon="-8.4899640">
        <ele>19.1</ele>
        <time>2015-03-20T11:34:18Z</time>
      </trkpt>
      <trkpt lat="39.4010790" lon="-8.4897450">
        <ele>19.5</ele>
        <time>2015-03-20T11:34:24Z</time>
      </trkpt>
      <trkpt lat="39.4010210" lon="-8.4895400">
        <ele>19.6</ele>
        <time>2015-03-20T11:34:30Z</time>
      </trkpt>
      <trkpt lat="39.4009530" lon="-8.4894860">
        <ele>19.3</ele>
        <time>2015-03-20T11:34:32Z</time>
      </trkpt>
      <trkpt lat="39.4004010" lon="-8.4889000">
        <ele>18.0</ele>
        <time>2015-03-20T11:34:50Z</time>
      </trkpt>
      <trkpt lat="39.4004180" lon="-8.4885520">
        <ele>18.8</ele>
        <time>2015-03-20T11:34:58Z</time>
      </trkpt>
      <trkpt lat="39.4010650" lon="-8.4878410">
        <ele>22.9</ele>
        <time>2015-03-20T11:35:20Z</time>
      </trkpt>
      <trkpt lat="39.4013730" lon="-8.4874030">
        <ele>24.8</ele>
        <time>2015-03-20T11:35:35Z</time>
      </trkpt>
      <trkpt lat="39.4015050" lon="-8.4871490">
        <ele>25.8</ele>
        <time>2015-03-20T11:35:51Z</time>
      </trkpt>
      <trkpt lat="39.4015790" lon="-8.4871100">
        <ele>26.3</ele>
        <time>2015-03-20T11:36:57Z</time>
      </trkpt>
      <trkpt lat="39.4016420" lon="-8.4870410">
        <ele>26.4</ele>
        <time>2015-03-20T11:37:02Z</time>
      </trkpt>
      <trkpt lat="39.4019610" lon="-8.4868460">
        <ele>27.0</ele>
        <time>2015-03-20T11:37:17Z</time>
      </trkpt>
      <trkpt lat="39.4019910" lon="-8.4866630">
        <ele>27.1</ele>
        <time>2015-03-20T12:11:13Z</time>
      </trkpt>
      <trkpt lat="39.4022160" lon="-8.4864010">
        <ele>26.9</ele>
        <time>2015-03-20T12:11:39Z</time>
      </trkpt>
      <trkpt lat="39.4024360" lon="-8.4860590">
        <ele>26.3</ele>
        <time>2015-03-20T12:11:54Z</time>
      </trkpt>
      <trkpt lat="39.4027240" lon="-8.4856690">
        <ele>25.3</ele>
        <time>2015-03-20T12:12:09Z</time>
      </trkpt>
      <trkpt lat="39.4030020" lon="-8.4852790">
        <ele>24.9</ele>
        <time>2015-03-20T12:12:23Z</time>
      </trkpt>
      <trkpt lat="39.4033060" lon="-8.4848660">
        <ele>24.4</ele>
        <time>2015-03-20T12:12:38Z</time>
      </trkpt>
      <trkpt lat="39.4036970" lon="-8.4843510">
        <ele>24.5</ele>
        <time>2015-03-20T12:12:55Z</time>
      </trkpt>
      <trkpt lat="39.4040990" lon="-8.4838400">
        <ele>24.5</ele>
        <time>2015-03-20T12:13:12Z</time>
      </trkpt>
      <trkpt lat="39.4044930" lon="-8.4833520">
        <ele>24.7</ele>
        <time>2015-03-20T12:13:28Z</time>
      </trkpt>
      <trkpt lat="39.4048610" lon="-8.4830140">
        <ele>23.5</ele>
        <time>2015-03-20T12:13:43Z</time>
      </trkpt>
      <trkpt lat="39.4053500" lon="-8.4826810">
        <ele>23.5</ele>
        <time>2015-03-20T12:14:01Z</time>
      </trkpt>
      <trkpt lat="39.4057730" lon="-8.4824160">
        <ele>23.5</ele>
        <time>2015-03-20T12:14:15Z</time>
      </trkpt>
      <trkpt lat="39.4063930" lon="-8.4819480">
        <ele>23.3</ele>
        <time>2015-03-20T12:14:34Z</time>
      </trkpt>
      <trkpt lat="39.4068990" lon="-8.4815720">
        <ele>23.6</ele>
        <time>2015-03-20T12:14:49Z</time>
      </trkpt>
      <trkpt lat="39.4073090" lon="-8.4812360">
        <ele>23.5</ele>
        <time>2015-03-20T12:15:02Z</time>
      </trkpt>
      <trkpt lat="39.4078560" lon="-8.4807530">
        <ele>22.7</ele>
        <time>2015-03-20T12:15:19Z</time>
      </trkpt>
      <trkpt lat="39.4081140" lon="-8.4805390">
        <ele>22.2</ele>
        <time>2015-03-20T12:15:32Z</time>
      </trkpt>
      <trkpt lat="39.4084810" lon="-8.4801790">
        <ele>21.1</ele>
        <time>2015-03-20T12:15:45Z</time>
      </trkpt>
      <trkpt lat="39.4089780" lon="-8.4796880">
        <ele>19.4</ele>
        <time>2015-03-20T12:16:01Z</time>
      </trkpt>
      <trkpt lat="39.4094280" lon="-8.4791190">
        <ele>18.7</ele>
        <time>2015-03-20T12:16:17Z</time>
      </trkpt>
      <trkpt lat="39.4099540" lon="-8.4784080">
        <ele>19.9</ele>
        <time>2015-03-20T12:16:36Z</time>
      </trkpt>
      <trkpt lat="39.4104680" lon="-8.4776330">
        <ele>20.2</ele>
        <time>2015-03-20T12:16:56Z</time>
      </trkpt>
      <trkpt lat="39.4109600" lon="-8.4768910">
        <ele>21.6</ele>
        <time>2015-03-20T12:17:15Z</time>
      </trkpt>
      <trkpt lat="39.4113660" lon="-8.4762400">
        <ele>22.2</ele>
        <time>2015-03-20T12:17:33Z</time>
      </trkpt>
      <trkpt lat="39.4117090" lon="-8.4757040">
        <ele>21.2</ele>
        <time>2015-03-20T12:17:48Z</time>
      </trkpt>
      <trkpt lat="39.4120650" lon="-8.4751980">
        <ele>19.9</ele>
        <time>2015-03-20T12:18:03Z</time>
      </trkpt>
      <trkpt lat="39.4125190" lon="-8.4746360">
        <ele>19.5</ele>
        <time>2015-03-20T12:18:21Z</time>
      </trkpt>
      <trkpt lat="39.4130250" lon="-8.4740190">
        <ele>20.1</ele>
        <time>2015-03-20T12:18:41Z</time>
      </trkpt>
      <trkpt lat="39.4134390" lon="-8.4734700">
        <ele>20.9</ele>
        <time>2015-03-20T12:18:58Z</time>
      </trkpt>
      <trkpt lat="39.4138360" lon="-8.4728930">
        <ele>21.8</ele>
        <time>2015-03-20T12:19:15Z</time>
      </trkpt>
      <trkpt lat="39.4143920" lon="-8.4721170">
        <ele>22.4</ele>
        <time>2015-03-20T12:19:37Z</time>
      </trkpt>
      <trkpt lat="39.4148520" lon="-8.4714660">
        <ele>22.8</ele>
        <time>2015-03-20T12:19:54Z</time>
      </trkpt>
      <trkpt lat="39.4154150" lon="-8.4708010">
        <ele>21.4</ele>
        <time>2015-03-20T12:20:13Z</time>
      </trkpt>
      <trkpt lat="39.4158080" lon="-8.4702800">
        <ele>21.1</ele>
        <time>2015-03-20T12:20:27Z</time>
      </trkpt>
      <trkpt lat="39.4161480" lon="-8.4696240">
        <ele>21.0</ele>
        <time>2015-03-20T12:20:43Z</time>
      </trkpt>
      <trkpt lat="39.4165660" lon="-8.4689570">
        <ele>21.1</ele>
        <time>2015-03-20T12:21:00Z</time>
      </trkpt>
      <trkpt lat="39.4170920" lon="-8.4684190">
        <ele>21.1</ele>
        <time>2015-03-20T12:21:18Z</time>
      </trkpt>
      <trkpt lat="39.4175580" lon="-8.4679490">
        <ele>21.2</ele>
        <time>2015-03-20T12:21:34Z</time>
      </trkpt>
      <trkpt lat="39.4181070" lon="-8.4674700">
        <ele>20.3</ele>
        <time>2015-03-20T12:21:52Z</time>
      </trkpt>
      <trkpt lat="39.4186230" lon="-8.4671430">
        <ele>20.2</ele>
        <time>2015-03-20T12:22:08Z</time>
      </trkpt>
      <trkpt lat="39.4186580" lon="-8.4667950">
        <ele>20.3</ele>
        <time>2015-03-20T12:22:17Z</time>
      </trkpt>
      <trkpt lat="39.4183090" lon="-8.4664620">
        <ele>21.1</ele>
        <time>2015-03-20T12:22:27Z</time>
      </trkpt>
      <trkpt lat="39.4177510" lon="-8.4659370">
        <ele>21.3</ele>
        <time>2015-03-20T12:22:44Z</time>
      </trkpt>
      <trkpt lat="39.4176780" lon="-8.4658470">
        <ele>21.3</ele>
        <time>2015-03-20T12:22:47Z</time>
      </trkpt>
      <trkpt lat="39.4178060" lon="-8.4656720">
        <ele>21.6</ele>
        <time>2015-03-20T12:22:54Z</time>
      </trkpt>
      <trkpt lat="39.4185210" lon="-8.4654580">
        <ele>21.7</ele>
        <time>2015-03-20T12:23:14Z</time>
      </trkpt>
      <trkpt lat="39.4192490" lon="-8.4652410">
        <ele>22.1</ele>
        <time>2015-03-20T12:23:34Z</time>
      </trkpt>
      <trkpt lat="39.4198870" lon="-8.4648150">
        <ele>22.4</ele>
        <time>2015-03-20T12:23:53Z</time>
      </trkpt>
      <trkpt lat="39.4205410" lon="-8.4642100">
        <ele>22.8</ele>
        <time>2015-03-20T12:24:15Z</time>
      </trkpt>
      <trkpt lat="39.4212860" lon="-8.4637570">
        <ele>22.8</ele>
        <time>2015-03-20T12:24:36Z</time>
      </trkpt>
      <trkpt lat="39.4219860" lon="-8.4634060">
        <ele>22.7</ele>
        <time>2015-03-20T12:24:55Z</time>
      </trkpt>
      <trkpt lat="39.4227430" lon="-8.4629130">
        <ele>22.5</ele>
        <time>2015-03-20T12:25:16Z</time>
      </trkpt>
      <trkpt lat="39.4234760" lon="-8.4624480">
        <ele>22.2</ele>
        <time>2015-03-20T12:25:36Z</time>
      </trkpt>
      <trkpt lat="39.4242480" lon="-8.4621810">
        <ele>22.1</ele>
        <time>2015-03-20T12:25:56Z</time>
      </trkpt>
      <trkpt lat="39.4250640" lon="-8.4620250">
        <ele>21.7</ele>
        <time>2015-03-20T12:26:16Z</time>
      </trkpt>
      <trkpt lat="39.4258390" lon="-8.4618910">
        <ele>21.7</ele>
        <time>2015-03-20T12:26:35Z</time>
      </trkpt>
      <trkpt lat="39.4259190" lon="-8.4618770">
        <ele>21.7</ele>
        <time>2015-03-20T12:26:37Z</time>
      </trkpt>
      <trkpt lat="39.4261990" lon="-8.4618360">
        <ele>21.6</ele>
        <time>2015-03-20T12:26:44Z</time>
      </trkpt>
      <trkpt lat="39.4270020" lon="-8.4616130">
        <ele>21.2</ele>
        <time>2015-03-20T12:27:04Z</time>
      </trkpt>
      <trkpt lat="39.4276850" lon="-8.4614060">
        <ele>21.1</ele>
        <time>2015-03-20T12:27:22Z</time>
      </trkpt>
      <trkpt lat="39.4282510" lon="-8.4611290">
        <ele>21.1</ele>
        <time>2015-03-20T12:27:37Z</time>
      </trkpt>
      <trkpt lat="39.4285510" lon="-8.4610080">
        <ele>21.1</ele>
        <time>2015-03-20T12:27:45Z</time>
      </trkpt>
      <trkpt lat="39.4287890" lon="-8.4609460">
        <ele>21.1</ele>
        <time>2015-03-20T12:27:51Z</time>
      </trkpt>
      <trkpt lat="39.4295320" lon="-8.4606690">
        <ele>21.0</ele>
        <time>2015-03-20T12:28:11Z</time>
      </trkpt>
      <trkpt lat="39.4300760" lon="-8.4603830">
        <ele>21.6</ele>
        <time>2015-03-20T12:28:26Z</time>
      </trkpt>
      <trkpt lat="39.4305110" lon="-8.4602150">
        <ele>21.8</ele>
        <time>2015-03-20T12:28:37Z</time>
      </trkpt>
      <trkpt lat="39.4311830" lon="-8.4603440">
        <ele>22.3</ele>
        <time>2015-03-20T12:28:54Z</time>
      </trkpt>
      <trkpt lat="39.4318980" lon="-8.4608000">
        <ele>21.9</ele>
        <time>2015-03-20T12:29:13Z</time>
      </trkpt>
      <trkpt lat="39.4327220" lon="-8.4612980">
        <ele>21.9</ele>
        <time>2015-03-20T12:29:35Z</time>
      </trkpt>
      <trkpt lat="39.4328810" lon="-8.4613020">
        <ele>22.0</ele>
        <time>2015-03-20T12:29:44Z</time>
      </trkpt>
      <trkpt lat="39.4332620" lon="-8.4612640">
        <ele>22.4</ele>
        <time>2015-03-20T12:30:42Z</time>
      </trkpt>
      <trkpt lat="39.4341530" lon="-8.4611090">
        <ele>21.8</ele>
        <time>2015-03-20T12:31:04Z</time>
      </trkpt>
      <trkpt lat="39.4348900" lon="-8.4609100">
        <ele>21.8</ele>
        <time>2015-03-20T12:31:23Z</time>
      </trkpt>
      <trkpt lat="39.4354760" lon="-8.4603270">
        <ele>21.7</ele>
        <time>2015-03-20T12:31:42Z</time>
      </trkpt>
      <trkpt lat="39.4359460" lon="-8.4598210">
        <ele>21.7</ele>
        <time>2015-03-20T12:31:59Z</time>
      </trkpt>
      <trkpt lat="39.4365340" lon="-8.4591980">
        <ele>22.1</ele>
        <time>2015-03-20T12:32:19Z</time>
      </trkpt>
      <trkpt lat="39.4372160" lon="-8.4583520">
        <ele>22.3</ele>
        <time>2015-03-20T12:32:43Z</time>
      </trkpt>
      <trkpt lat="39.4377270" lon="-8.4575980">
        <ele>22.0</ele>
        <time>2015-03-20T12:33:02Z</time>
      </trkpt>
      <trkpt lat="39.4382160" lon="-8.4568470">
        <ele>22.1</ele>
        <time>2015-03-20T12:33:21Z</time>
      </trkpt>
      <trkpt lat="39.4387370" lon="-8.4560510">
        <ele>22.2</ele>
        <time>2015-03-20T12:33:41Z</time>
      </trkpt>
      <trkpt lat="39.4391090" lon="-8.4555100">
        <ele>22.3</ele>
        <time>2015-03-20T12:33:57Z</time>
      </trkpt>
      <trkpt lat="39.4395880" lon="-8.4548360">
        <ele>22.3</ele>
        <time>2015-03-20T12:34:16Z</time>
      </trkpt>
      <trkpt lat="39.4399680" lon="-8.4543520">
        <ele>23.3</ele>
        <time>2015-03-20T12:34:32Z</time>
      </trkpt>
      <trkpt lat="39.4400700" lon="-8.4541610">
        <ele>24.3</ele>
        <time>2015-03-20T12:34:41Z</time>
      </trkpt>
      <trkpt lat="39.4400240" lon="-8.4541620">
        <ele>24.4</ele>
        <time>2015-03-20T12:34:48Z</time>
      </trkpt>
      <trkpt lat="39.4400220" lon="-8.4540850">
        <ele>24.6</ele>
        <time>2015-03-20T12:34:50Z</time>
      </trkpt>
      <trkpt lat="39.4400660" lon="-8.4533090">
        <ele>25.4</ele>
        <time>2015-03-20T12:35:08Z</time>
      </trkpt>
      <trkpt lat="39.4401080" lon="-8.4526340">
        <ele>26.0</ele>
        <time>2015-03-20T12:35:23Z</time>
      </trkpt>
      <trkpt lat="39.4403480" lon="-8.4523380">
        <ele>25.3</ele>
        <time>2015-03-20T12:35:35Z</time>
      </trkpt>
      <trkpt lat="39.4408630" lon="-8.4523420">
        <ele>26.0</ele>
        <time>2015-03-20T12:35:49Z</time>
      </trkpt>
      <trkpt lat="39.4414930" lon="-8.4525450">
        <ele>25.8</ele>
        <time>2015-03-20T12:36:06Z</time>
      </trkpt>
      <trkpt lat="39.4420770" lon="-8.4522170">
        <ele>25.8</ele>
        <time>2015-03-20T12:36:22Z</time>
      </trkpt>
      <trkpt lat="39.4427090" lon="-8.4518420">
        <ele>26.0</ele>
        <time>2015-03-20T12:36:39Z</time>
      </trkpt>
      <trkpt lat="39.4432200" lon="-8.4515490">
        <ele>26.1</ele>
        <time>2015-03-20T12:36:53Z</time>
      </trkpt>
      <trkpt lat="39.4437990" lon="-8.4512070">
        <ele>25.5</ele>
        <time>2015-03-20T12:37:09Z</time>
      </trkpt>
      <trkpt lat="39.4442950" lon="-8.4508920">
        <ele>25.4</ele>
        <time>2015-03-20T12:37:24Z</time>
      </trkpt>
      <trkpt lat="39.4446180" lon="-8.4503290">
        <ele>25.3</ele>
        <time>2015-03-20T12:37:38Z</time>
      </trkpt>
      <trkpt lat="39.4446210" lon="-8.4502630">
        <ele>25.3</ele>
        <time>2015-03-20T12:37:52Z</time>
      </trkpt>
      <trkpt lat="39.4448900" lon="-8.4499310">
        <ele>25.0</ele>
        <time>2015-03-20T12:38:27Z</time>
      </trkpt>
      <trkpt lat="39.4449330" lon="-8.4497950">
        <ele>24.7</ele>
        <time>2015-03-20T12:39:55Z</time>
      </trkpt>
      <trkpt lat="39.4451470" lon="-8.4494430">
        <ele>24.0</ele>
        <time>2015-03-20T12:40:07Z</time>
      </trkpt>
      <trkpt lat="39.4453980" lon="-8.4490050">
        <ele>22.6</ele>
        <time>2015-03-20T12:40:18Z</time>
      </trkpt>
      <trkpt lat="39.4454490" lon="-8.4488940">
        <ele>22.2</ele>
        <time>2015-03-20T12:40:27Z</time>
      </trkpt>
      <trkpt lat="39.4457290" lon="-8.4487880">
        <ele>21.2</ele>
        <time>2015-03-20T12:41:47Z</time>
      </trkpt>
      <trkpt lat="39.4461790" lon="-8.4489080">
        <ele>21.2</ele>
        <time>2015-03-20T12:42:01Z</time>
      </trkpt>
      <trkpt lat="39.4464420" lon="-8.4489880">
        <ele>21.2</ele>
        <time>2015-03-20T12:42:09Z</time>
      </trkpt>
      <trkpt lat="39.4468620" lon="-8.4492380">
        <ele>21.2</ele>
        <time>2015-03-20T12:42:23Z</time>
      </trkpt>
      <trkpt lat="39.4470230" lon="-8.4495470">
        <ele>21.2</ele>
        <time>2015-03-20T12:42:30Z</time>
      </trkpt>
      <trkpt lat="39.4471240" lon="-8.4497130">
        <ele>21.2</ele>
        <time>2015-03-20T12:42:34Z</time>
      </trkpt>
      <trkpt lat="39.4475790" lon="-8.4499590">
        <ele>21.2</ele>
        <time>2015-03-20T12:42:46Z</time>
      </trkpt>
      <trkpt lat="39.4484690" lon="-8.4499410">
        <ele>21.2</ele>
        <time>2015-03-20T12:43:09Z</time>
      </trkpt>
      <trkpt lat="39.4491030" lon="-8.4499260">
        <ele>21.2</ele>
        <time>2015-03-20T12:43:25Z</time>
      </trkpt>
      <trkpt lat="39.4493340" lon="-8.4498580">
        <ele>21.2</ele>
        <time>2015-03-20T12:43:31Z</time>
      </trkpt>
      <trkpt lat="39.4498420" lon="-8.4493840">
        <ele>21.2</ele>
        <time>2015-03-20T12:43:47Z</time>
      </trkpt>
      <trkpt lat="39.4503570" lon="-8.4488540">
        <ele>21.2</ele>
        <time>2015-03-20T12:44:04Z</time>
      </trkpt>
      <trkpt lat="39.4509370" lon="-8.4482390">
        <ele>21.2</ele>
        <time>2015-03-20T12:44:23Z</time>
      </trkpt>
      <trkpt lat="39.4514380" lon="-8.4475980">
        <ele>21.2</ele>
        <time>2015-03-20T12:44:41Z</time>
      </trkpt>
      <trkpt lat="39.4519070" lon="-8.4469130">
        <ele>21.2</ele>
        <time>2015-03-20T12:44:59Z</time>
      </trkpt>
      <trkpt lat="39.4522000" lon="-8.4465780">
        <ele>21.5</ele>
        <time>2015-03-20T12:45:09Z</time>
      </trkpt>
      <trkpt lat="39.4526160" lon="-8.4465440">
        <ele>22.7</ele>
        <time>2015-03-20T12:45:21Z</time>
      </trkpt>
      <trkpt lat="39.4530220" lon="-8.4464130">
        <ele>25.0</ele>
        <time>2015-03-20T12:45:35Z</time>
      </trkpt>
      <trkpt lat="39.4535030" lon="-8.4459930">
        <ele>25.7</ele>
        <time>2015-03-20T12:45:51Z</time>
      </trkpt>
      <trkpt lat="39.4538140" lon="-8.4457050">
        <ele>25.7</ele>
        <time>2015-03-20T12:46:01Z</time>
      </trkpt>
      <trkpt lat="39.4544190" lon="-8.4451240">
        <ele>25.7</ele>
        <time>2015-03-20T12:46:20Z</time>
      </trkpt>
      <trkpt lat="39.4550300" lon="-8.4445140">
        <ele>25.7</ele>
        <time>2015-03-20T12:46:39Z</time>
      </trkpt>
      <trkpt lat="39.4552200" lon="-8.4443250">
        <ele>25.7</ele>
        <time>2015-03-20T12:46:45Z</time>
      </trkpt>
      <trkpt lat="39.4553870" lon="-8.4441650">
        <ele>25.7</ele>
        <time>2015-03-20T12:46:50Z</time>
      </trkpt>
      <trkpt lat="39.4559150" lon="-8.4438680">
        <ele>25.7</ele>
        <time>2015-03-20T12:47:05Z</time>
      </trkpt>
      <trkpt lat="39.4563420" lon="-8.4436070">
        <ele>25.7</ele>
        <time>2015-03-20T12:47:18Z</time>
      </trkpt>
      <trkpt lat="39.4566690" lon="-8.4435340">
        <ele>25.2</ele>
        <time>2015-03-20T12:47:26Z</time>
      </trkpt>
      <trkpt lat="39.4569310" lon="-8.4433980">
        <ele>24.4</ele>
        <time>2015-03-20T12:47:32Z</time>
      </trkpt>
      <trkpt lat="39.4571530" lon="-8.4431840">
        <ele>23.7</ele>
        <time>2015-03-20T12:47:37Z</time>
      </trkpt>
      <trkpt lat="39.4577790" lon="-8.4429940">
        <ele>23.1</ele>
        <time>2015-03-20T12:47:50Z</time>
      </trkpt>
      <trkpt lat="39.4580890" lon="-8.4429800">
        <ele>22.8</ele>
        <time>2015-03-20T12:47:57Z</time>
      </trkpt>
      <trkpt lat="39.4589290" lon="-8.4430060">
        <ele>24.4</ele>
        <time>2015-03-20T12:48:18Z</time>
      </trkpt>
      <trkpt lat="39.4594470" lon="-8.4430430">
        <ele>26.3</ele>
        <time>2015-03-20T12:48:33Z</time>
      </trkpt>
      <trkpt lat="39.4600070" lon="-8.4431230">
        <ele>28.8</ele>
        <time>2015-03-20T12:48:50Z</time>
      </trkpt>
      <trkpt lat="39.4605900" lon="-8.4431630">
        <ele>31.1</ele>
        <time>2015-03-20T12:49:07Z</time>
      </trkpt>
      <trkpt lat="39.4611410" lon="-8.4431020">
        <ele>33.7</ele>
        <time>2015-03-20T12:49:23Z</time>
      </trkpt>
      <trkpt lat="39.4617220" lon="-8.4429700">
        <ele>34.1</ele>
        <time>2015-03-20T12:49:40Z</time>
      </trkpt>
      <trkpt lat="39.4621050" lon="-8.4428520">
        <ele>34.4</ele>
        <time>2015-03-20T12:49:54Z</time>
      </trkpt>
      <trkpt lat="39.4625460" lon="-8.4426220">
        <ele>35.0</ele>
        <time>2015-03-20T12:50:08Z</time>
      </trkpt>
      <trkpt lat="39.4629450" lon="-8.4423550">
        <ele>35.9</ele>
        <time>2015-03-20T12:50:22Z</time>
      </trkpt>
      <trkpt lat="39.4631840" lon="-8.4422300">
        <ele>36.4</ele>
        <time>2015-03-20T12:50:32Z</time>
      </trkpt>
      <trkpt lat="39.4635010" lon="-8.4420480">
        <ele>37.4</ele>
        <time>2015-03-20T12:50:46Z</time>
      </trkpt>
      <trkpt lat="39.4635490" lon="-8.4420390">
        <ele>37.5</ele>
        <time>2015-03-20T12:51:06Z</time>
      </trkpt>
      <trkpt lat="39.4636230" lon="-8.4420700">
        <ele>37.7</ele>
        <time>2015-03-20T12:51:13Z</time>
      </trkpt>
      <trkpt lat="39.4636910" lon="-8.4421250">
        <ele>37.8</ele>
        <time>2015-03-20T12:51:27Z</time>
      </trkpt>
      <trkpt lat="39.4638210" lon="-8.4422610">
        <ele>37.9</ele>
        <time>2015-03-20T12:51:36Z</time>
      </trkpt>
      <trkpt lat="39.4642020" lon="-8.4425230">
        <ele>38.5</ele>
        <time>2015-03-20T12:51:48Z</time>
      </trkpt>
      <trkpt lat="39.4647590" lon="-8.4429950">
        <ele>39.7</ele>
        <time>2015-03-20T12:52:06Z</time>
      </trkpt>
      <trkpt lat="39.4653320" lon="-8.4436900">
        <ele>39.9</ele>
        <time>2015-03-20T12:52:27Z</time>
      </trkpt>
      <trkpt lat="39.4659000" lon="-8.4444100">
        <ele>41.3</ele>
        <time>2015-03-20T12:52:48Z</time>
      </trkpt>
      <trkpt lat="39.4664490" lon="-8.4451550">
        <ele>41.8</ele>
        <time>2015-03-20T12:53:11Z</time>
      </trkpt>
      <trkpt lat="39.4666650" lon="-8.4454730">
        <ele>42.7</ele>
        <time>2015-03-20T12:53:23Z</time>
      </trkpt>
      <trkpt lat="39.4671760" lon="-8.4456720">
        <ele>46.0</ele>
        <time>2015-03-20T12:53:40Z</time>
      </trkpt>
      <trkpt lat="39.4676910" lon="-8.4458720">
        <ele>49.4</ele>
        <time>2015-03-20T12:53:57Z</time>
      </trkpt>
      <trkpt lat="39.4682780" lon="-8.4460750">
        <ele>52.6</ele>
        <time>2015-03-20T12:54:16Z</time>
      </trkpt>
      <trkpt lat="39.4688610" lon="-8.4461510">
        <ele>54.1</ele>
        <time>2015-03-20T12:54:33Z</time>
      </trkpt>
      <trkpt lat="39.4694520" lon="-8.4462390">
        <ele>54.1</ele>
        <time>2015-03-20T12:54:50Z</time>
      </trkpt>
      <trkpt lat="39.4699900" lon="-8.4465070">
        <ele>55.7</ele>
        <time>2015-03-20T12:55:05Z</time>
      </trkpt>
      <trkpt lat="39.4702110" lon="-8.4466840">
        <ele>55.7</ele>
        <time>2015-03-20T12:55:12Z</time>
      </trkpt>
      <trkpt lat="39.4703290" lon="-8.4468420">
        <ele>55.5</ele>
        <time>2015-03-20T12:55:16Z</time>
      </trkpt>
      <trkpt lat="39.4708880" lon="-8.4476720">
        <ele>54.0</ele>
        <time>2015-03-20T12:55:35Z</time>
      </trkpt>
      <trkpt lat="39.4715010" lon="-8.4484870">
        <ele>53.4</ele>
        <time>2015-03-20T12:55:55Z</time>
      </trkpt>
      <trkpt lat="39.4721680" lon="-8.4494140">
        <ele>53.1</ele>
        <time>2015-03-20T12:56:17Z</time>
      </trkpt>
      <trkpt lat="39.4726480" lon="-8.4503090">
        <ele>51.5</ele>
        <time>2015-03-20T12:56:33Z</time>
      </trkpt>
      <trkpt lat="39.4732180" lon="-8.4509700">
        <ele>51.5</ele>
        <time>2015-03-20T12:56:48Z</time>
      </trkpt>
      <trkpt lat="39.4740000" lon="-8.4514420">
        <ele>51.4</ele>
        <time>2015-03-20T12:57:08Z</time>
      </trkpt>
      <trkpt lat="39.4746950" lon="-8.4518200">
        <ele>52.5</ele>
        <time>2015-03-20T12:57:25Z</time>
      </trkpt>
      <trkpt lat="39.4749320" lon="-8.4519300">
        <ele>53.0</ele>
        <time>2015-03-20T12:57:31Z</time>
      </trkpt>
      <trkpt lat="39.4756770" lon="-8.4520470">
        <ele>53.6</ele>
        <time>2015-03-20T12:57:49Z</time>
      </trkpt>
      <trkpt lat="39.4761980" lon="-8.4521100">
        <ele>54.2</ele>
        <time>2015-03-20T12:58:01Z</time>
      </trkpt>
      <trkpt lat="39.4769430" lon="-8.4520980">
        <ele>54.6</ele>
        <time>2015-03-20T12:58:19Z</time>
      </trkpt>
      <trkpt lat="39.4773220" lon="-8.4520390">
        <ele>55.2</ele>
        <time>2015-03-20T12:58:31Z</time>
      </trkpt>
      <trkpt lat="39.4776050" lon="-8.4520330">
        <ele>55.7</ele>
        <time>2015-03-20T12:58:41Z</time>
      </trkpt>
      <trkpt lat="39.4780070" lon="-8.4521510">
        <ele>55.9</ele>
        <time>2015-03-20T12:58:55Z</time>
      </trkpt>
      <trkpt lat="39.4780680" lon="-8.4521580">
        <ele>56.0</ele>
        <time>2015-03-20T13:05:38Z</time>
      </trkpt>
      <trkpt lat="39.4781190" lon="-8.4521350">
        <ele>56.1</ele>
        <time>2015-03-20T13:06:13Z</time>
      </trkpt>
      <trkpt lat="39.4781830" lon="-8.4521050">
        <ele>56.3</ele>
        <time>2015-03-20T13:11:14Z</time>
      </trkpt>
      <trkpt lat="39.4783900" lon="-8.4520460">
        <ele>57.2</ele>
        <time>2015-03-20T13:20:06Z</time>
      </trkpt>
      <trkpt lat="39.4788710" lon="-8.4520490">
        <ele>58.5</ele>
        <time>2015-03-20T13:20:22Z</time>
      </trkpt>
      <trkpt lat="39.4794000" lon="-8.4520550">
        <ele>59.6</ele>
        <time>2015-03-20T13:20:40Z</time>
      </trkpt>
      <trkpt lat="39.4799090" lon="-8.4520240">
        <ele>61.5</ele>
        <time>2015-03-20T13:21:00Z</time>
      </trkpt>
      <trkpt lat="39.4803780" lon="-8.4519250">
        <ele>63.3</ele>
        <time>2015-03-20T13:21:17Z</time>
      </trkpt>
      <trkpt lat="39.4807990" lon="-8.4518110">
        <ele>64.7</ele>
        <time>2015-03-20T13:21:32Z</time>
      </trkpt>
      <trkpt lat="39.4811210" lon="-8.4516670">
        <ele>66.0</ele>
        <time>2015-03-20T13:21:45Z</time>
      </trkpt>
      <trkpt lat="39.4814720" lon="-8.4514980">
        <ele>67.6</ele>
        <time>2015-03-20T13:22:02Z</time>
      </trkpt>
      <trkpt lat="39.4818200" lon="-8.4513220">
        <ele>69.3</ele>
        <time>2015-03-20T13:22:20Z</time>
      </trkpt>
      <trkpt lat="39.4821480" lon="-8.4511040">
        <ele>71.1</ele>
        <time>2015-03-20T13:22:37Z</time>
      </trkpt>
      <trkpt lat="39.4824630" lon="-8.4508750">
        <ele>72.8</ele>
        <time>2015-03-20T13:22:54Z</time>
      </trkpt>
      <trkpt lat="39.4827470" lon="-8.4506660">
        <ele>73.2</ele>
        <time>2015-03-20T13:23:14Z</time>
      </trkpt>
      <trkpt lat="39.4829020" lon="-8.4505370">
        <ele>73.4</ele>
        <time>2015-03-20T13:23:52Z</time>
      </trkpt>
      <trkpt lat="39.4831700" lon="-8.4502250">
        <ele>73.4</ele>
        <time>2015-03-20T13:24:02Z</time>
      </trkpt>
      <trkpt lat="39.4837500" lon="-8.4494920">
        <ele>70.6</ele>
        <time>2015-03-20T13:24:16Z</time>
      </trkpt>
      <trkpt lat="39.4843690" lon="-8.4486860">
        <ele>67.7</ele>
        <time>2015-03-20T13:24:31Z</time>
      </trkpt>
      <trkpt lat="39.4848220" lon="-8.4480680">
        <ele>68.1</ele>
        <time>2015-03-20T13:24:51Z</time>
      </trkpt>
      <trkpt lat="39.4852760" lon="-8.4474860">
        <ele>68.1</ele>
        <time>2015-03-20T13:25:10Z</time>
      </trkpt>
      <trkpt lat="39.4858840" lon="-8.4466910">
        <ele>68.0</ele>
        <time>2015-03-20T13:25:30Z</time>
      </trkpt>
      <trkpt lat="39.4863870" lon="-8.4459940">
        <ele>69.8</ele>
        <time>2015-03-20T13:25:48Z</time>
      </trkpt>
      <trkpt lat="39.4864060" lon="-8.4459400">
        <ele>70.0</ele>
        <time>2015-03-20T13:25:50Z</time>
      </trkpt>
      <trkpt lat="39.4863330" lon="-8.4458000">
        <ele>70.5</ele>
        <time>2015-03-20T13:25:57Z</time>
      </trkpt>
      <trkpt lat="39.4862900" lon="-8.4454160">
        <ele>72.4</ele>
        <time>2015-03-20T13:26:13Z</time>
      </trkpt>
      <trkpt lat="39.4861980" lon="-8.4449580">
        <ele>73.5</ele>
        <time>2015-03-20T13:26:29Z</time>
      </trkpt>
      <trkpt lat="39.4861140" lon="-8.4444730">
        <ele>73.9</ele>
        <time>2015-03-20T13:26:45Z</time>
      </trkpt>
      <trkpt lat="39.4859520" lon="-8.4442080">
        <ele>73.8</ele>
        <time>2015-03-20T13:26:54Z</time>
      </trkpt>
      <trkpt lat="39.4858300" lon="-8.4440550">
        <ele>73.7</ele>
        <time>2015-03-20T13:26:58Z</time>
      </trkpt>
      <trkpt lat="39.4855580" lon="-8.4437980">
        <ele>74.5</ele>
        <time>2015-03-20T13:27:10Z</time>
      </trkpt>
      <trkpt lat="39.4854940" lon="-8.4435470">
        <ele>76.4</ele>
        <time>2015-03-20T13:27:25Z</time>
      </trkpt>
      <trkpt lat="39.4854940" lon="-8.4433390">
        <ele>78.3</ele>
        <time>2015-03-20T13:27:38Z</time>
      </trkpt>
      <trkpt lat="39.4855020" lon="-8.4432530">
        <ele>79.0</ele>
        <time>2015-03-20T13:27:43Z</time>
      </trkpt>
      <trkpt lat="39.4855600" lon="-8.4429420">
        <ele>81.4</ele>
        <time>2015-03-20T13:28:00Z</time>
      </trkpt>
      <trkpt lat="39.4855750" lon="-8.4427640">
        <ele>82.6</ele>
        <time>2015-03-20T13:28:10Z</time>
      </trkpt>
      <trkpt lat="39.4855270" lon="-8.4425450">
        <ele>84.8</ele>
        <time>2015-03-20T13:28:24Z</time>
      </trkpt>
      <trkpt lat="39.4854710" lon="-8.4422980">
        <ele>87.5</ele>
        <time>2015-03-20T13:28:40Z</time>
      </trkpt>
      <trkpt lat="39.4853810" lon="-8.4420320">
        <ele>89.2</ele>
        <time>2015-03-20T13:28:56Z</time>
      </trkpt>
      <trkpt lat="39.4852960" lon="-8.4417290">
        <ele>91.0</ele>
        <time>2015-03-20T13:29:13Z</time>
      </trkpt>
      <trkpt lat="39.4852480" lon="-8.4414230">
        <ele>92.6</ele>
        <time>2015-03-20T13:29:29Z</time>
      </trkpt>
      <trkpt lat="39.4852180" lon="-8.4413190">
        <ele>93.1</ele>
        <time>2015-03-20T13:29:35Z</time>
      </trkpt>
      <trkpt lat="39.4851960" lon="-8.4411830">
        <ele>94.1</ele>
        <time>2015-03-20T13:29:42Z</time>
      </trkpt>
      <trkpt lat="39.4851410" lon="-8.4408680">
        <ele>96.3</ele>
        <time>2015-03-20T13:30:00Z</time>
      </trkpt>
      <trkpt lat="39.4851260" lon="-8.4408010">
        <ele>96.8</ele>
        <time>2015-03-20T13:30:04Z</time>
      </trkpt>
      <trkpt lat="39.4849600" lon="-8.4406090">
        <ele>98.3</ele>
        <time>2015-03-20T13:30:19Z</time>
      </trkpt>
      <trkpt lat="39.4848380" lon="-8.4403010">
        <ele>99.4</ele>
        <time>2015-03-20T13:30:37Z</time>
      </trkpt>
      <trkpt lat="39.4847780" lon="-8.4399030">
        <ele>100.2</ele>
        <time>2015-03-20T13:30:51Z</time>
      </trkpt>
      <trkpt lat="39.4847360" lon="-8.4396100">
        <ele>100.9</ele>
        <time>2015-03-20T13:31:04Z</time>
      </trkpt>
      <trkpt lat="39.4846240" lon="-8.4393510">
        <ele>102.2</ele>
        <time>2015-03-20T13:31:18Z</time>
      </trkpt>
      <trkpt lat="39.4846220" lon="-8.4392150">
        <ele>102.7</ele>
        <time>2015-03-20T13:31:25Z</time>
      </trkpt>
      <trkpt lat="39.4846560" lon="-8.4389130">
        <ele>104.2</ele>
        <time>2015-03-20T13:31:40Z</time>
      </trkpt>
      <trkpt lat="39.4847400" lon="-8.4385800">
        <ele>106.0</ele>
        <time>2015-03-20T13:31:56Z</time>
      </trkpt>
      <trkpt lat="39.4848400" lon="-8.4384090">
        <ele>107.2</ele>
        <time>2015-03-20T13:32:08Z</time>
      </trkpt>
      <trkpt lat="39.4849610" lon="-8.4381940">
        <ele>108.4</ele>
        <time>2015-03-20T13:32:22Z</time>
      </trkpt>
      <trkpt lat="39.4850540" lon="-8.4379600">
        <ele>110.3</ele>
        <time>2015-03-20T13:32:36Z</time>
      </trkpt>
      <trkpt lat="39.4851150" lon="-8.4378370">
        <ele>111.4</ele>
        <time>2015-03-20T13:32:45Z</time>
      </trkpt>
      <trkpt lat="39.4851810" lon="-8.4377120">
        <ele>112.8</ele>
        <time>2015-03-20T13:32:54Z</time>
      </trkpt>
      <trkpt lat="39.4852170" lon="-8.4376640">
        <ele>113.2</ele>
        <time>2015-03-20T13:32:58Z</time>
      </trkpt>
      <trkpt lat="39.4854180" lon="-8.4374560">
        <ele>115.3</ele>
        <time>2015-03-20T13:33:16Z</time>
      </trkpt>
      <trkpt lat="39.4855870" lon="-8.4373140">
        <ele>117.2</ele>
        <time>2015-03-20T13:33:31Z</time>
      </trkpt>
      <trkpt lat="39.4857730" lon="-8.4371930">
        <ele>119.6</ele>
        <time>2015-03-20T13:33:48Z</time>
      </trkpt>
      <trkpt lat="39.4858380" lon="-8.4371450">
        <ele>120.3</ele>
        <time>2015-03-20T13:33:54Z</time>
      </trkpt>
      <trkpt lat="39.4858840" lon="-8.4371020">
        <ele>120.9</ele>
        <time>2015-03-20T13:33:59Z</time>
      </trkpt>
      <trkpt lat="39.4860970" lon="-8.4369090">
        <ele>123.1</ele>
        <time>2015-03-20T13:34:18Z</time>
      </trkpt>
      <trkpt lat="39.4862260" lon="-8.4368290">
        <ele>123.3</ele>
        <time>2015-03-20T13:34:24Z</time>
      </trkpt>
      <trkpt lat="39.4863940" lon="-8.4366290">
        <ele>121.8</ele>
        <time>2015-03-20T13:34:33Z</time>
      </trkpt>
      <trkpt lat="39.4865280" lon="-8.4360570">
        <ele>118.4</ele>
        <time>2015-03-20T13:34:45Z</time>
      </trkpt>
      <trkpt lat="39.4865480" lon="-8.4359200">
        <ele>117.9</ele>
        <time>2015-03-20T13:34:48Z</time>
      </trkpt>
      <trkpt lat="39.4865570" lon="-8.4357960">
        <ele>117.3</ele>
        <time>2015-03-20T13:34:53Z</time>
      </trkpt>
      <trkpt lat="39.4865330" lon="-8.4356020">
        <ele>116.3</ele>
        <time>2015-03-20T13:35:18Z</time>
      </trkpt>
      <trkpt lat="39.4865460" lon="-8.4350650">
        <ele>113.8</ele>
        <time>2015-03-20T13:35:29Z</time>
      </trkpt>
      <trkpt lat="39.4867820" lon="-8.4343920">
        <ele>113.0</ele>
        <time>2015-03-20T13:35:42Z</time>
      </trkpt>
      <trkpt lat="39.4869860" lon="-8.4340810">
        <ele>111.8</ele>
        <time>2015-03-20T13:35:53Z</time>
      </trkpt>
      <trkpt lat="39.4872740" lon="-8.4336340">
        <ele>109.5</ele>
        <time>2015-03-20T13:36:05Z</time>
      </trkpt>
      <trkpt lat="39.4877210" lon="-8.4332330">
        <ele>109.1</ele>
        <time>2015-03-20T13:36:19Z</time>
      </trkpt>
      <trkpt lat="39.4878420" lon="-8.4330180">
        <ele>109.0</ele>
        <time>2015-03-20T13:36:23Z</time>
      </trkpt>
      <trkpt lat="39.4881490" lon="-8.4327640">
        <ele>108.8</ele>
        <time>2015-03-20T13:36:31Z</time>
      </trkpt>
      <trkpt lat="39.4883110" lon="-8.4327570">
        <ele>108.7</ele>
        <time>2015-03-20T13:36:36Z</time>
      </trkpt>
      <trkpt lat="39.4887920" lon="-8.4325630">
        <ele>105.3</ele>
        <time>2015-03-20T13:36:49Z</time>
      </trkpt>
      <trkpt lat="39.4890280" lon="-8.4324250">
        <ele>103.6</ele>
        <time>2015-03-20T13:36:55Z</time>
      </trkpt>
      <trkpt lat="39.4895280" lon="-8.4322130">
        <ele>101.3</ele>
        <time>2015-03-20T13:37:09Z</time>
      </trkpt>
      <trkpt lat="39.4902760" lon="-8.4320390">
        <ele>102.2</ele>
        <time>2015-03-20T13:37:27Z</time>
      </trkpt>
      <trkpt lat="39.4905800" lon="-8.4322270">
        <ele>103.8</ele>
        <time>2015-03-20T13:37:34Z</time>
      </trkpt>
      <trkpt lat="39.4906350" lon="-8.4323460">
        <ele>102.8</ele>
        <time>2015-03-20T13:37:36Z</time>
      </trkpt>
      <trkpt lat="39.4907380" lon="-8.4326880">
        <ele>101.4</ele>
        <time>2015-03-20T13:37:42Z</time>
      </trkpt>
      <trkpt lat="39.4908770" lon="-8.4329510">
        <ele>100.6</ele>
        <time>2015-03-20T13:37:47Z</time>
      </trkpt>
      <trkpt lat="39.4909710" lon="-8.4331060">
        <ele>99.9</ele>
        <time>2015-03-20T13:37:50Z</time>
      </trkpt>
      <trkpt lat="39.4910340" lon="-8.4333750">
        <ele>98.9</ele>
        <time>2015-03-20T13:37:55Z</time>
      </trkpt>
      <trkpt lat="39.4910270" lon="-8.4335210">
        <ele>98.5</ele>
        <time>2015-03-20T13:37:57Z</time>
      </trkpt>
      <trkpt lat="39.4909880" lon="-8.4337120">
        <ele>97.7</ele>
        <time>2015-03-20T13:38:00Z</time>
      </trkpt>
      <trkpt lat="39.4909700" lon="-8.4337830">
        <ele>97.5</ele>
        <time>2015-03-20T13:53:59Z</time>
      </trkpt>
      <trkpt lat="39.4910700" lon="-8.4338540">
        <ele>96.8</ele>
        <time>2015-03-20T13:54:07Z</time>
      </trkpt>
      <trkpt lat="39.4913820" lon="-8.4337430">
        <ele>96.6</ele>
        <time>2015-03-20T13:54:27Z</time>
      </trkpt>
      <trkpt lat="39.4916230" lon="-8.4335540">
        <ele>98.0</ele>
        <time>2015-03-20T13:54:41Z</time>
      </trkpt>
      <trkpt lat="39.4916710" lon="-8.4335080">
        <ele>98.2</ele>
        <time>2015-03-20T13:54:43Z</time>
      </trkpt>
      <trkpt lat="39.4918110" lon="-8.4333910">
        <ele>99.4</ele>
        <time>2015-03-20T13:54:53Z</time>
      </trkpt>
      <trkpt lat="39.4919910" lon="-8.4331480">
        <ele>103.0</ele>
        <time>2015-03-20T13:55:13Z</time>
      </trkpt>
      <trkpt lat="39.4920310" lon="-8.4331010">
        <ele>104.2</ele>
        <time>2015-03-20T13:55:17Z</time>
      </trkpt>
      <trkpt lat="39.4921700" lon="-8.4329280">
        <ele>107.4</ele>
        <time>2015-03-20T13:55:33Z</time>
      </trkpt>
      <trkpt lat="39.4922430" lon="-8.4328300">
        <ele>109.0</ele>
        <time>2015-03-20T13:55:45Z</time>
      </trkpt>
      <trkpt lat="39.4923430" lon="-8.4327380">
        <ele>110.6</ele>
        <time>2015-03-20T13:55:59Z</time>
      </trkpt>
      <trkpt lat="39.4923810" lon="-8.4326970">
        <ele>111.2</ele>
        <time>2015-03-20T13:56:13Z</time>
      </trkpt>
      <trkpt lat="39.4925560" lon="-8.4325310">
        <ele>114.5</ele>
        <time>2015-03-20T13:56:33Z</time>
      </trkpt>
      <trkpt lat="39.4927050" lon="-8.4323690">
        <ele>118.1</ele>
        <time>2015-03-20T13:56:52Z</time>
      </trkpt>
      <trkpt lat="39.4928230" lon="-8.4322080">
        <ele>121.1</ele>
        <time>2015-03-20T13:57:13Z</time>
      </trkpt>
      <trkpt lat="39.4929060" lon="-8.4321130">
        <ele>123.6</ele>
        <time>2015-03-20T13:57:27Z</time>
      </trkpt>
      <trkpt lat="39.4929690" lon="-8.4320390">
        <ele>125.0</ele>
        <time>2015-03-20T13:57:42Z</time>
      </trkpt>
      <trkpt lat="39.4930410" lon="-8.4319490">
        <ele>126.4</ele>
        <time>2015-03-20T13:57:59Z</time>
      </trkpt>
      <trkpt lat="39.4931010" lon="-8.4318710">
        <ele>127.8</ele>
        <time>2015-03-20T13:58:17Z</time>
      </trkpt>
      <trkpt lat="39.4931680" lon="-8.4317940">
        <ele>129.2</ele>
        <time>2015-03-20T13:58:32Z</time>
      </trkpt>
      <trkpt lat="39.4932910" lon="-8.4316880">
        <ele>131.6</ele>
        <time>2015-03-20T13:58:51Z</time>
      </trkpt>
      <trkpt lat="39.4934660" lon="-8.4314930">
        <ele>134.3</ele>
        <time>2015-03-20T13:59:11Z</time>
      </trkpt>
      <trkpt lat="39.4936300" lon="-8.4312780">
        <ele>135.8</ele>
        <time>2015-03-20T13:59:30Z</time>
      </trkpt>
      <trkpt lat="39.4936800" lon="-8.4312210">
        <ele>136.0</ele>
        <time>2015-03-20T13:59:35Z</time>
      </trkpt>
      <trkpt lat="39.4938520" lon="-8.4310380">
        <ele>136.9</ele>
        <time>2015-03-20T13:59:50Z</time>
      </trkpt>
      <trkpt lat="39.4939790" lon="-8.4309460">
        <ele>136.7</ele>
        <time>2015-03-20T14:00:03Z</time>
      </trkpt>
      <trkpt lat="39.4941020" lon="-8.4308270">
        <ele>136.6</ele>
        <time>2015-03-20T14:00:19Z</time>
      </trkpt>
      <trkpt lat="39.4942120" lon="-8.4307470">
        <ele>136.5</ele>
        <time>2015-03-20T14:00:34Z</time>
      </trkpt>
      <trkpt lat="39.4945160" lon="-8.4303350">
        <ele>136.1</ele>
        <time>2015-03-20T14:00:50Z</time>
      </trkpt>
      <trkpt lat="39.4947920" lon="-8.4300110">
        <ele>136.0</ele>
        <time>2015-03-20T14:01:04Z</time>
      </trkpt>
      <trkpt lat="39.4950760" lon="-8.4296650">
        <ele>135.4</ele>
        <time>2015-03-20T14:01:18Z</time>
      </trkpt>
      <trkpt lat="39.4952650" lon="-8.4293700">
        <ele>134.1</ele>
        <time>2015-03-20T14:01:26Z</time>
      </trkpt>
      <trkpt lat="39.4954220" lon="-8.4292300">
        <ele>133.0</ele>
        <time>2015-03-20T14:01:30Z</time>
      </trkpt>
      <trkpt lat="39.4955460" lon="-8.4290900">
        <ele>132.0</ele>
        <time>2015-03-20T14:01:33Z</time>
      </trkpt>
      <trkpt lat="39.4958440" lon="-8.4287320">
        <ele>130.1</ele>
        <time>2015-03-20T14:01:44Z</time>
      </trkpt>
      <trkpt lat="39.4959280" lon="-8.4286300">
        <ele>130.2</ele>
        <time>2015-03-20T14:01:49Z</time>
      </trkpt>
      <trkpt lat="39.4962260" lon="-8.4282680">
        <ele>132.8</ele>
        <time>2015-03-20T14:02:06Z</time>
      </trkpt>
      <trkpt lat="39.4964880" lon="-8.4279360">
        <ele>134.3</ele>
        <time>2015-03-20T14:02:21Z</time>
      </trkpt>
      <trkpt lat="39.4967440" lon="-8.4274150">
        <ele>133.1</ele>
        <time>2015-03-20T14:02:39Z</time>
      </trkpt>
      <trkpt lat="39.4967960" lon="-8.4268970">
        <ele>132.6</ele>
        <time>2015-03-20T14:02:53Z</time>
      </trkpt>
      <trkpt lat="39.4968560" lon="-8.4262540">
        <ele>135.8</ele>
        <time>2015-03-20T14:03:12Z</time>
      </trkpt>
      <trkpt lat="39.4968890" lon="-8.4258820">
        <ele>138.1</ele>
        <time>2015-03-20T14:03:26Z</time>
      </trkpt>
      <trkpt lat="39.4969340" lon="-8.4253660">
        <ele>141.4</ele>
        <time>2015-03-20T14:03:45Z</time>
      </trkpt>
      <trkpt lat="39.4969740" lon="-8.4247900">
        <ele>143.8</ele>
        <time>2015-03-20T14:04:04Z</time>
      </trkpt>
      <trkpt lat="39.4969850" lon="-8.4241760">
        <ele>146.3</ele>
        <time>2015-03-20T14:04:23Z</time>
      </trkpt>
      <trkpt lat="39.4969820" lon="-8.4240800">
        <ele>146.8</ele>
        <time>2015-03-20T14:04:26Z</time>
      </trkpt>
      <trkpt lat="39.4969920" lon="-8.4235980">
        <ele>149.6</ele>
        <time>2015-03-20T14:04:43Z</time>
      </trkpt>
      <trkpt lat="39.4970750" lon="-8.4235060">
        <ele>150.1</ele>
        <time>2015-03-20T14:04:49Z</time>
      </trkpt>
      <trkpt lat="39.4971940" lon="-8.4235130">
        <ele>148.6</ele>
        <time>2015-03-20T14:04:56Z</time>
      </trkpt>
      <trkpt lat="39.4972040" lon="-8.4234250">
        <ele>147.8</ele>
        <time>2015-03-20T14:05:01Z</time>
      </trkpt>
      <trkpt lat="39.4971560" lon="-8.4232120">
        <ele>145.3</ele>
        <time>2015-03-20T14:05:08Z</time>
      </trkpt>
      <trkpt lat="39.4971850" lon="-8.4229500">
        <ele>142.1</ele>
        <time>2015-03-20T14:05:15Z</time>
      </trkpt>
      <trkpt lat="39.4973230" lon="-8.4226780">
        <ele>138.8</ele>
        <time>2015-03-20T14:05:24Z</time>
      </trkpt>
      <trkpt lat="39.4975040" lon="-8.4224830">
        <ele>135.3</ele>
        <time>2015-03-20T14:05:35Z</time>
      </trkpt>
      <trkpt lat="39.4975860" lon="-8.4223690">
        <ele>133.7</ele>
        <time>2015-03-20T14:05:41Z</time>
      </trkpt>
      <trkpt lat="39.4977020" lon="-8.4222550">
        <ele>131.6</ele>
        <time>2015-03-20T14:05:47Z</time>
      </trkpt>
      <trkpt lat="39.4978650" lon="-8.4220610">
        <ele>128.3</ele>
        <time>2015-03-20T14:05:56Z</time>
      </trkpt>
      <trkpt lat="39.4980290" lon="-8.4218630">
        <ele>125.6</ele>
        <time>2015-03-20T14:06:05Z</time>
      </trkpt>
      <trkpt lat="39.4981560" lon="-8.4217010">
        <ele>123.8</ele>
        <time>2015-03-20T14:06:17Z</time>
      </trkpt>
      <trkpt lat="39.4982220" lon="-8.4216190">
        <ele>123.3</ele>
        <time>2015-03-20T14:06:23Z</time>
      </trkpt>
      <trkpt lat="39.4984090" lon="-8.4214120">
        <ele>122.5</ele>
        <time>2015-03-20T14:06:38Z</time>
      </trkpt>
      <trkpt lat="39.4985870" lon="-8.4212020">
        <ele>121.6</ele>
        <time>2015-03-20T14:06:50Z</time>
      </trkpt>
      <trkpt lat="39.4988240" lon="-8.4208850">
        <ele>118.8</ele>
        <time>2015-03-20T14:07:03Z</time>
      </trkpt>
      <trkpt lat="39.4989530" lon="-8.4207410">
        <ele>116.1</ele>
        <time>2015-03-20T14:07:09Z</time>
      </trkpt>
      <trkpt lat="39.4990400" lon="-8.4206510">
        <ele>114.2</ele>
        <time>2015-03-20T14:07:13Z</time>
      </trkpt>
      <trkpt lat="39.4991910" lon="-8.4205110">
        <ele>111.9</ele>
        <time>2015-03-20T14:07:21Z</time>
      </trkpt>
      <trkpt lat="39.4994210" lon="-8.4202260">
        <ele>110.3</ele>
        <time>2015-03-20T14:07:36Z</time>
      </trkpt>
      <trkpt lat="39.4997650" lon="-8.4198340">
        <ele>109.5</ele>
        <time>2015-03-20T14:07:53Z</time>
      </trkpt>
      <trkpt lat="39.4998240" lon="-8.4197800">
        <ele>109.4</ele>
        <time>2015-03-20T14:08:04Z</time>
      </trkpt>
      <trkpt lat="39.4998510" lon="-8.4197210">
        <ele>109.5</ele>
        <time>2015-03-20T14:08:09Z</time>
      </trkpt>
      <trkpt lat="39.4999430" lon="-8.4195890">
        <ele>109.9</ele>
        <time>2015-03-20T14:08:22Z</time>
      </trkpt>
      <trkpt lat="39.4999970" lon="-8.4195350">
        <ele>110.4</ele>
        <time>2015-03-20T14:08:28Z</time>
      </trkpt>
      <trkpt lat="39.5000510" lon="-8.4194700">
        <ele>111.0</ele>
        <time>2015-03-20T14:08:34Z</time>
      </trkpt>
      <trkpt lat="39.5001920" lon="-8.4192960">
        <ele>112.5</ele>
        <time>2015-03-20T14:08:51Z</time>
      </trkpt>
      <trkpt lat="39.5003090" lon="-8.4191390">
        <ele>114.5</ele>
        <time>2015-03-20T14:09:08Z</time>
      </trkpt>
      <trkpt lat="39.5004620" lon="-8.4189610">
        <ele>116.8</ele>
        <time>2015-03-20T14:09:27Z</time>
      </trkpt>
      <trkpt lat="39.5005810" lon="-8.4188150">
        <ele>117.7</ele>
        <time>2015-03-20T14:09:45Z</time>
      </trkpt>
      <trkpt lat="39.5006900" lon="-8.4186660">
        <ele>118.0</ele>
        <time>2015-03-20T14:09:56Z</time>
      </trkpt>
      <trkpt lat="39.5008380" lon="-8.4184040">
        <ele>117.6</ele>
        <time>2015-03-20T14:10:09Z</time>
      </trkpt>
      <trkpt lat="39.5011390" lon="-8.4181400">
        <ele>117.1</ele>
        <time>2015-03-20T14:10:23Z</time>
      </trkpt>
      <trkpt lat="39.5012540" lon="-8.4179840">
        <ele>117.8</ele>
        <time>2015-03-20T14:10:35Z</time>
      </trkpt>
      <trkpt lat="39.5014190" lon="-8.4177450">
        <ele>118.4</ele>
        <time>2015-03-20T14:10:51Z</time>
      </trkpt>
      <trkpt lat="39.5015970" lon="-8.4174760">
        <ele>117.9</ele>
        <time>2015-03-20T14:11:03Z</time>
      </trkpt>
      <trkpt lat="39.5017970" lon="-8.4169790">
        <ele>116.1</ele>
        <time>2015-03-20T14:11:19Z</time>
      </trkpt>
      <trkpt lat="39.5020850" lon="-8.4164970">
        <ele>112.8</ele>
        <time>2015-03-20T14:11:34Z</time>
      </trkpt>
      <trkpt lat="39.5023320" lon="-8.4164980">
        <ele>110.0</ele>
        <time>2015-03-20T14:11:40Z</time>
      </trkpt>
      <trkpt lat="39.5025630" lon="-8.4165260">
        <ele>106.0</ele>
        <time>2015-03-20T14:11:44Z</time>
      </trkpt>
      <trkpt lat="39.5026230" lon="-8.4165290">
        <ele>105.2</ele>
        <time>2015-03-20T14:11:45Z</time>
      </trkpt>
      <trkpt lat="39.5027240" lon="-8.4165110">
        <ele>103.8</ele>
        <time>2015-03-20T14:11:47Z</time>
      </trkpt>
      <trkpt lat="39.5028350" lon="-8.4163160">
        <ele>102.4</ele>
        <time>2015-03-20T14:11:52Z</time>
      </trkpt>
      <trkpt lat="39.5028980" lon="-8.4157450">
        <ele>98.5</ele>
        <time>2015-03-20T14:12:02Z</time>
      </trkpt>
      <trkpt lat="39.5030330" lon="-8.4153400">
        <ele>95.6</ele>
        <time>2015-03-20T14:12:08Z</time>
      </trkpt>
      <trkpt lat="39.5031160" lon="-8.4152180">
        <ele>94.0</ele>
        <time>2015-03-20T14:12:10Z</time>
      </trkpt>
      <trkpt lat="39.5032570" lon="-8.4150850">
        <ele>92.1</ele>
        <time>2015-03-20T14:12:13Z</time>
      </trkpt>
      <trkpt lat="39.5033040" lon="-8.4150690">
        <ele>91.5</ele>
        <time>2015-03-20T14:12:14Z</time>
      </trkpt>
      <trkpt lat="39.5036240" lon="-8.4150680">
        <ele>90.1</ele>
        <time>2015-03-20T14:12:20Z</time>
      </trkpt>
      <trkpt lat="39.5039870" lon="-8.4150100">
        <ele>89.2</ele>
        <time>2015-03-20T14:12:28Z</time>
      </trkpt>
      <trkpt lat="39.5042530" lon="-8.4149730">
        <ele>88.6</ele>
        <time>2015-03-20T14:12:33Z</time>
      </trkpt>
      <trkpt lat="39.5044340" lon="-8.4148270">
        <ele>87.9</ele>
        <time>2015-03-20T14:12:42Z</time>
      </trkpt>
      <trkpt lat="39.5041670" lon="-8.4142470">
        <ele>87.3</ele>
        <time>2015-03-20T14:12:57Z</time>
      </trkpt>
      <trkpt lat="39.5040340" lon="-8.4138540">
        <ele>87.4</ele>
        <time>2015-03-20T14:13:07Z</time>
      </trkpt>
      <trkpt lat="39.5038680" lon="-8.4133540">
        <ele>88.4</ele>
        <time>2015-03-20T14:13:24Z</time>
      </trkpt>
      <trkpt lat="39.5037270" lon="-8.4129500">
        <ele>90.0</ele>
        <time>2015-03-20T14:13:42Z</time>
      </trkpt>
      <trkpt lat="39.5036200" lon="-8.4126210">
        <ele>91.4</ele>
        <time>2015-03-20T14:13:59Z</time>
      </trkpt>
      <trkpt lat="39.5035460" lon="-8.4124250">
        <ele>92.7</ele>
        <time>2015-03-20T14:14:10Z</time>
      </trkpt>
      <trkpt lat="39.5034270" lon="-8.4121540">
        <ele>95.3</ele>
        <time>2015-03-20T14:14:27Z</time>
      </trkpt>
      <trkpt lat="39.5033400" lon="-8.4119340">
        <ele>97.8</ele>
        <time>2015-03-20T14:14:42Z</time>
      </trkpt>
      <trkpt lat="39.5032780" lon="-8.4117820">
        <ele>99.2</ele>
        <time>2015-03-20T14:14:53Z</time>
      </trkpt>
      <trkpt lat="39.5032630" lon="-8.4115560">
        <ele>100.9</ele>
        <time>2015-03-20T14:15:08Z</time>
      </trkpt>
      <trkpt lat="39.5033690" lon="-8.4112460">
        <ele>102.1</ele>
        <time>2015-03-20T14:15:25Z</time>
      </trkpt>
      <trkpt lat="39.5034460" lon="-8.4108670">
        <ele>103.2</ele>
        <time>2015-03-20T14:15:40Z</time>
      </trkpt>
      <trkpt lat="39.5035090" lon="-8.4105750">
        <ele>104.6</ele>
        <time>2015-03-20T14:15:55Z</time>
      </trkpt>
      <trkpt lat="39.5035590" lon="-8.4102820">
        <ele>107.0</ele>
        <time>2015-03-20T14:16:12Z</time>
      </trkpt>
      <trkpt lat="39.5035270" lon="-8.4100280">
        <ele>109.5</ele>
        <time>2015-03-20T14:16:28Z</time>
      </trkpt>
      <trkpt lat="39.5035080" lon="-8.4098890">
        <ele>110.9</ele>
        <time>2015-03-20T14:16:37Z</time>
      </trkpt>
      <trkpt lat="39.5034900" lon="-8.4097390">
        <ele>112.4</ele>
        <time>2015-03-20T14:16:48Z</time>
      </trkpt>
      <trkpt lat="39.5034930" lon="-8.4095040">
        <ele>114.2</ele>
        <time>2015-03-20T14:17:03Z</time>
      </trkpt>
      <trkpt lat="39.5035270" lon="-8.4092670">
        <ele>116.4</ele>
        <time>2015-03-20T14:17:19Z</time>
      </trkpt>
      <trkpt lat="39.5035510" lon="-8.4091220">
        <ele>117.5</ele>
        <time>2015-03-20T14:17:29Z</time>
      </trkpt>
      <trkpt lat="39.5036560" lon="-8.4088370">
        <ele>120.1</ele>
        <time>2015-03-20T14:17:49Z</time>
      </trkpt>
      <trkpt lat="39.5037400" lon="-8.4086700">
        <ele>121.8</ele>
        <time>2015-03-20T14:18:02Z</time>
      </trkpt>
      <trkpt lat="39.5038200" lon="-8.4084240">
        <ele>123.6</ele>
        <time>2015-03-20T14:18:18Z</time>
      </trkpt>
      <trkpt lat="39.5038810" lon="-8.4081900">
        <ele>125.2</ele>
        <time>2015-03-20T14:18:33Z</time>
      </trkpt>
      <trkpt lat="39.5038970" lon="-8.4081120">
        <ele>125.7</ele>
        <time>2015-03-20T14:18:38Z</time>
      </trkpt>
      <trkpt lat="39.5039880" lon="-8.4079100">
        <ele>127.5</ele>
        <time>2015-03-20T14:18:53Z</time>
      </trkpt>
      <trkpt lat="39.5040520" lon="-8.4078260">
        <ele>128.5</ele>
        <time>2015-03-20T14:19:01Z</time>
      </trkpt>
      <trkpt lat="39.5041070" lon="-8.4077040">
        <ele>129.6</ele>
        <time>2015-03-20T14:19:11Z</time>
      </trkpt>
      <trkpt lat="39.5041230" lon="-8.4076290">
        <ele>130.3</ele>
        <time>2015-03-20T14:19:17Z</time>
      </trkpt>
      <trkpt lat="39.5042300" lon="-8.4074560">
        <ele>132.7</ele>
        <time>2015-03-20T14:19:31Z</time>
      </trkpt>
      <trkpt lat="39.5043620" lon="-8.4072600">
        <ele>135.6</ele>
        <time>2015-03-20T14:19:46Z</time>
      </trkpt>
      <trkpt lat="39.5045300" lon="-8.4071220">
        <ele>138.2</ele>
        <time>2015-03-20T14:20:00Z</time>
      </trkpt>
      <trkpt lat="39.5048350" lon="-8.4070730">
        <ele>139.5</ele>
        <time>2015-03-20T14:20:15Z</time>
      </trkpt>
      <trkpt lat="39.5050620" lon="-8.4070630">
        <ele>139.5</ele>
        <time>2015-03-20T14:20:25Z</time>
      </trkpt>
      <trkpt lat="39.5054360" lon="-8.4070530">
        <ele>139.1</ele>
        <time>2015-03-20T14:20:37Z</time>
      </trkpt>
      <trkpt lat="39.5059030" lon="-8.4069750">
        <ele>138.6</ele>
        <time>2015-03-20T14:20:50Z</time>
      </trkpt>
      <trkpt lat="39.5064050" lon="-8.4068760">
        <ele>138.4</ele>
        <time>2015-03-20T14:21:04Z</time>
      </trkpt>
      <trkpt lat="39.5065760" lon="-8.4068360">
        <ele>138.3</ele>
        <time>2015-03-20T14:21:09Z</time>
      </trkpt>
      <trkpt lat="39.5070040" lon="-8.4067240">
        <ele>138.2</ele>
        <time>2015-03-20T14:21:21Z</time>
      </trkpt>
      <trkpt lat="39.5074890" lon="-8.4065360">
        <ele>138.2</ele>
        <time>2015-03-20T14:21:34Z</time>
      </trkpt>
      <trkpt lat="39.5080710" lon="-8.4061930">
        <ele>138.5</ele>
        <time>2015-03-20T14:21:52Z</time>
      </trkpt>
      <trkpt lat="39.5085400" lon="-8.4059030">
        <ele>138.4</ele>
        <time>2015-03-20T14:22:07Z</time>
      </trkpt>
      <trkpt lat="39.5086460" lon="-8.4058670">
        <ele>138.3</ele>
        <time>2015-03-20T14:22:10Z</time>
      </trkpt>
      <trkpt lat="39.5090620" lon="-8.4057760">
        <ele>137.5</ele>
        <time>2015-03-20T14:22:21Z</time>
      </trkpt>
      <trkpt lat="39.5093570" lon="-8.4057790">
        <ele>137.7</ele>
        <time>2015-03-20T14:22:33Z</time>
      </trkpt>
      <trkpt lat="39.5094190" lon="-8.4057640">
        <ele>137.8</ele>
        <time>2015-03-20T14:22:57Z</time>
      </trkpt>
      <trkpt lat="39.5097540" lon="-8.4057610">
        <ele>138.3</ele>
        <time>2015-03-20T14:23:09Z</time>
      </trkpt>
      <trkpt lat="39.5103880" lon="-8.4057660">
        <ele>139.9</ele>
        <time>2015-03-20T14:23:27Z</time>
      </trkpt>
      <trkpt lat="39.5108030" lon="-8.4057460">
        <ele>139.7</ele>
        <time>2015-03-20T14:23:39Z</time>
      </trkpt>
      <trkpt lat="39.5113710" lon="-8.4056530">
        <ele>139.2</ele>
        <time>2015-03-20T14:23:55Z</time>
      </trkpt>
      <trkpt lat="39.5118890" lon="-8.4055030">
        <ele>137.3</ele>
        <time>2015-03-20T14:24:07Z</time>
      </trkpt>
      <trkpt lat="39.5126370" lon="-8.4052090">
        <ele>133.6</ele>
        <time>2015-03-20T14:24:19Z</time>
      </trkpt>
      <trkpt lat="39.5133530" lon="-8.4049600">
        <ele>131.9</ele>
        <time>2015-03-20T14:24:31Z</time>
      </trkpt>
      <trkpt lat="39.5134570" lon="-8.4048970">
        <ele>131.4</ele>
        <time>2015-03-20T14:24:33Z</time>
      </trkpt>
      <trkpt lat="39.5137880" lon="-8.4047560">
        <ele>130.5</ele>
        <time>2015-03-20T14:24:39Z</time>
      </trkpt>
      <trkpt lat="39.5144640" lon="-8.4049750">
        <ele>129.9</ele>
        <time>2015-03-20T14:24:50Z</time>
      </trkpt>
      <trkpt lat="39.5149760" lon="-8.4051650">
        <ele>131.4</ele>
        <time>2015-03-20T14:25:03Z</time>
      </trkpt>
      <trkpt lat="39.5155220" lon="-8.4052900">
        <ele>133.1</ele>
        <time>2015-03-20T14:25:18Z</time>
      </trkpt>
      <trkpt lat="39.5157960" lon="-8.4050740">
        <ele>133.1</ele>
        <time>2015-03-20T14:25:27Z</time>
      </trkpt>
      <trkpt lat="39.5160410" lon="-8.4050090">
        <ele>131.9</ele>
        <time>2015-03-20T14:25:32Z</time>
      </trkpt>
      <trkpt lat="39.5164320" lon="-8.4049770">
        <ele>128.4</ele>
        <time>2015-03-20T14:25:37Z</time>
      </trkpt>
      <trkpt lat="39.5167270" lon="-8.4049560">
        <ele>126.2</ele>
        <time>2015-03-20T14:25:40Z</time>
      </trkpt>
      <trkpt lat="39.5176240" lon="-8.4048660">
        <ele>125.4</ele>
        <time>2015-03-20T14:25:52Z</time>
      </trkpt>
      <trkpt lat="39.5180210" lon="-8.4048560">
        <ele>127.4</ele>
        <time>2015-03-20T14:26:04Z</time>
      </trkpt>
      <trkpt lat="39.5185000" lon="-8.4049880">
        <ele>123.8</ele>
        <time>2015-03-20T14:26:17Z</time>
      </trkpt>
      <trkpt lat="39.5185860" lon="-8.4049740">
        <ele>123.3</ele>
        <time>2015-03-20T14:26:19Z</time>
      </trkpt>
      <trkpt lat="39.5187830" lon="-8.4047640">
        <ele>123.3</ele>
        <time>2015-03-20T14:26:23Z</time>
      </trkpt>
      <trkpt lat="39.5188220" lon="-8.4046740">
        <ele>123.6</ele>
        <time>2015-03-20T14:26:24Z</time>
      </trkpt>
      <trkpt lat="39.5189000" lon="-8.4044810">
        <ele>123.9</ele>
        <time>2015-03-20T14:26:26Z</time>
      </trkpt>
      <trkpt lat="39.5191790" lon="-8.4041100">
        <ele>120.4</ele>
        <time>2015-03-20T14:26:30Z</time>
      </trkpt>
      <trkpt lat="39.5196450" lon="-8.4037880">
        <ele>112.6</ele>
        <time>2015-03-20T14:26:35Z</time>
      </trkpt>
      <trkpt lat="39.5200850" lon="-8.4037490">
        <ele>106.3</ele>
        <time>2015-03-20T14:26:39Z</time>
      </trkpt>
      <trkpt lat="39.5203090" lon="-8.4038180">
        <ele>104.1</ele>
        <time>2015-03-20T14:26:41Z</time>
      </trkpt>
      <trkpt lat="39.5207510" lon="-8.4038460">
        <ele>101.7</ele>
        <time>2015-03-20T14:26:45Z</time>
      </trkpt>
      <trkpt lat="39.5211030" lon="-8.4039320">
        <ele>99.7</ele>
        <time>2015-03-20T14:26:48Z</time>
      </trkpt>
      <trkpt lat="39.5213240" lon="-8.4039970">
        <ele>97.5</ele>
        <time>2015-03-20T14:26:50Z</time>
      </trkpt>
      <trkpt lat="39.5217560" lon="-8.4039480">
        <ele>93.1</ele>
        <time>2015-03-20T14:26:54Z</time>
      </trkpt>
      <trkpt lat="39.5220420" lon="-8.4038700">
        <ele>90.8</ele>
        <time>2015-03-20T14:26:57Z</time>
      </trkpt>
      <trkpt lat="39.5225400" lon="-8.4039550">
        <ele>88.7</ele>
        <time>2015-03-20T14:27:02Z</time>
      </trkpt>
      <trkpt lat="39.5227550" lon="-8.4039740">
        <ele>87.9</ele>
        <time>2015-03-20T14:27:04Z</time>
      </trkpt>
      <trkpt lat="39.5233810" lon="-8.4038350">
        <ele>87.7</ele>
        <time>2015-03-20T14:27:12Z</time>
      </trkpt>
      <trkpt lat="39.5235910" lon="-8.4037260">
        <ele>88.4</ele>
        <time>2015-03-20T14:27:17Z</time>
      </trkpt>
      <trkpt lat="39.5239120" lon="-8.4036130">
        <ele>89.8</ele>
        <time>2015-03-20T14:27:29Z</time>
      </trkpt>
      <trkpt lat="39.5242770" lon="-8.4036250">
        <ele>91.7</ele>
        <time>2015-03-20T14:27:45Z</time>
      </trkpt>
      <trkpt lat="39.5246070" lon="-8.4035960">
        <ele>93.8</ele>
        <time>2015-03-20T14:28:00Z</time>
      </trkpt>
      <trkpt lat="39.5249480" lon="-8.4035030">
        <ele>95.9</ele>
        <time>2015-03-20T14:28:16Z</time>
      </trkpt>
      <trkpt lat="39.5252150" lon="-8.4033890">
        <ele>95.6</ele>
        <time>2015-03-20T14:28:28Z</time>
      </trkpt>
      <trkpt lat="39.5255490" lon="-8.4033300">
        <ele>95.2</ele>
        <time>2015-03-20T14:28:40Z</time>
      </trkpt>
      <trkpt lat="39.5258310" lon="-8.4033020">
        <ele>94.8</ele>
        <time>2015-03-20T14:28:49Z</time>
      </trkpt>
      <trkpt lat="39.5260150" lon="-8.4032250">
        <ele>93.4</ele>
        <time>2015-03-20T14:28:53Z</time>
      </trkpt>
      <trkpt lat="39.5263810" lon="-8.4030470">
        <ele>89.8</ele>
        <time>2015-03-20T14:28:59Z</time>
      </trkpt>
      <trkpt lat="39.5266090" lon="-8.4029510">
        <ele>87.6</ele>
        <time>2015-03-20T14:29:02Z</time>
      </trkpt>
      <trkpt lat="39.5276470" lon="-8.4025030">
        <ele>84.0</ele>
        <time>2015-03-20T14:29:17Z</time>
      </trkpt>
      <trkpt lat="39.5283650" lon="-8.4021140">
        <ele>83.4</ele>
        <time>2015-03-20T14:29:33Z</time>
      </trkpt>
      <trkpt lat="39.5286060" lon="-8.4020130">
        <ele>83.0</ele>
        <time>2015-03-20T14:29:39Z</time>
      </trkpt>
      <trkpt lat="39.5293150" lon="-8.4018180">
        <ele>81.5</ele>
        <time>2015-03-20T14:29:56Z</time>
      </trkpt>
      <trkpt lat="39.5300000" lon="-8.4014860">
        <ele>83.0</ele>
        <time>2015-03-20T14:30:14Z</time>
      </trkpt>
      <trkpt lat="39.5305780" lon="-8.4011590">
        <ele>83.0</ele>
        <time>2015-03-20T14:30:29Z</time>
      </trkpt>
      <trkpt lat="39.5307170" lon="-8.4011110">
        <ele>82.8</ele>
        <time>2015-03-20T14:30:32Z</time>
      </trkpt>
      <trkpt lat="39.5314900" lon="-8.4009420">
        <ele>81.0</ele>
        <time>2015-03-20T14:30:48Z</time>
      </trkpt>
      <trkpt lat="39.5315400" lon="-8.4009330">
        <ele>80.7</ele>
        <time>2015-03-20T14:30:49Z</time>
      </trkpt>
      <trkpt lat="39.5317750" lon="-8.4008180">
        <ele>79.2</ele>
        <time>2015-03-20T14:30:53Z</time>
      </trkpt>
      <trkpt lat="39.5321850" lon="-8.4004170">
        <ele>75.4</ele>
        <time>2015-03-20T14:31:00Z</time>
      </trkpt>
      <trkpt lat="39.5322500" lon="-8.4003560">
        <ele>74.6</ele>
        <time>2015-03-20T14:31:01Z</time>
      </trkpt>
      <trkpt lat="39.5324670" lon="-8.4001960">
        <ele>72.6</ele>
        <time>2015-03-20T14:31:04Z</time>
      </trkpt>
      <trkpt lat="39.5328830" lon="-8.3999480">
        <ele>70.1</ele>
        <time>2015-03-20T14:31:09Z</time>
      </trkpt>
      <trkpt lat="39.5331340" lon="-8.3998350">
        <ele>69.9</ele>
        <time>2015-03-20T14:31:12Z</time>
      </trkpt>
      <trkpt lat="39.5334640" lon="-8.3998140">
        <ele>70.5</ele>
        <time>2015-03-20T14:31:16Z</time>
      </trkpt>
      <trkpt lat="39.5337190" lon="-8.3998820">
        <ele>71.0</ele>
        <time>2015-03-20T14:31:20Z</time>
      </trkpt>
      <trkpt lat="39.5340530" lon="-8.3997750">
        <ele>70.1</ele>
        <time>2015-03-20T14:31:27Z</time>
      </trkpt>
      <trkpt lat="39.5346400" lon="-8.3991560">
        <ele>68.6</ele>
        <time>2015-03-20T14:31:45Z</time>
      </trkpt>
      <trkpt lat="39.5352400" lon="-8.3985390">
        <ele>69.1</ele>
        <time>2015-03-20T14:32:05Z</time>
      </trkpt>
      <trkpt lat="39.5358320" lon="-8.3980490">
        <ele>70.5</ele>
        <time>2015-03-20T14:32:23Z</time>
      </trkpt>
      <trkpt lat="39.5363900" lon="-8.3976720">
        <ele>71.8</ele>
        <time>2015-03-20T14:32:39Z</time>
      </trkpt>
      <trkpt lat="39.5370980" lon="-8.3973050">
        <ele>73.2</ele>
        <time>2015-03-20T14:32:58Z</time>
      </trkpt>
      <trkpt lat="39.5377850" lon="-8.3969910">
        <ele>74.2</ele>
        <time>2015-03-20T14:33:16Z</time>
      </trkpt>
      <trkpt lat="39.5386060" lon="-8.3966140">
        <ele>74.2</ele>
        <time>2015-03-20T14:33:36Z</time>
      </trkpt>
      <trkpt lat="39.5394100" lon="-8.3962490">
        <ele>73.3</ele>
        <time>2015-03-20T14:33:54Z</time>
      </trkpt>
      <trkpt lat="39.5402420" lon="-8.3958600">
        <ele>70.8</ele>
        <time>2015-03-20T14:34:11Z</time>
      </trkpt>
      <trkpt lat="39.5409560" lon="-8.3953840">
        <ele>68.2</ele>
        <time>2015-03-20T14:34:24Z</time>
      </trkpt>
      <trkpt lat="39.5412750" lon="-8.3949850">
        <ele>66.9</ele>
        <time>2015-03-20T14:34:31Z</time>
      </trkpt>
      <trkpt lat="39.5417490" lon="-8.3941600">
        <ele>65.6</ele>
        <time>2015-03-20T14:34:48Z</time>
      </trkpt>
      <trkpt lat="39.5422000" lon="-8.3933640">
        <ele>65.4</ele>
        <time>2015-03-20T14:35:04Z</time>
      </trkpt>
      <trkpt lat="39.5427610" lon="-8.3924290">
        <ele>64.7</ele>
        <time>2015-03-20T14:35:23Z</time>
      </trkpt>
      <trkpt lat="39.5430090" lon="-8.3916400">
        <ele>63.5</ele>
        <time>2015-03-20T14:35:40Z</time>
      </trkpt>
      <trkpt lat="39.5432180" lon="-8.3910260">
        <ele>65.3</ele>
        <time>2015-03-20T14:35:55Z</time>
      </trkpt>
      <trkpt lat="39.5433920" lon="-8.3906110">
        <ele>65.3</ele>
        <time>2015-03-20T14:36:05Z</time>
      </trkpt>
      <trkpt lat="39.5434540" lon="-8.3904680">
        <ele>65.1</ele>
        <time>2015-03-20T14:36:08Z</time>
      </trkpt>
      <trkpt lat="39.5435030" lon="-8.3903620">
        <ele>64.7</ele>
        <time>2015-03-20T14:36:10Z</time>
      </trkpt>
      <trkpt lat="39.5439800" lon="-8.3900660">
        <ele>61.9</ele>
        <time>2015-03-20T14:36:19Z</time>
      </trkpt>
      <trkpt lat="39.5443970" lon="-8.3901120">
        <ele>59.2</ele>
        <time>2015-03-20T14:36:24Z</time>
      </trkpt>
      <trkpt lat="39.5448580" lon="-8.3901870">
        <ele>55.8</ele>
        <time>2015-03-20T14:36:29Z</time>
      </trkpt>
      <trkpt lat="39.5449550" lon="-8.3902060">
        <ele>55.2</ele>
        <time>2015-03-20T14:36:30Z</time>
      </trkpt>
      <trkpt lat="39.5452570" lon="-8.3902810">
        <ele>53.0</ele>
        <time>2015-03-20T14:36:33Z</time>
      </trkpt>
      <trkpt lat="39.5455790" lon="-8.3903750">
        <ele>50.5</ele>
        <time>2015-03-20T14:36:36Z</time>
      </trkpt>
      <trkpt lat="39.5459190" lon="-8.3904670">
        <ele>47.9</ele>
        <time>2015-03-20T14:36:39Z</time>
      </trkpt>
      <trkpt lat="39.5462810" lon="-8.3905600">
        <ele>45.4</ele>
        <time>2015-03-20T14:36:42Z</time>
      </trkpt>
      <trkpt lat="39.5466440" lon="-8.3906220">
        <ele>43.3</ele>
        <time>2015-03-20T14:36:45Z</time>
      </trkpt>
      <trkpt lat="39.5479900" lon="-8.3906900">
        <ele>38.5</ele>
        <time>2015-03-20T14:36:58Z</time>
      </trkpt>
      <trkpt lat="39.5487720" lon="-8.3906160">
        <ele>38.2</ele>
        <time>2015-03-20T14:37:10Z</time>
      </trkpt>
      <trkpt lat="39.5493870" lon="-8.3903000">
        <ele>38.0</ele>
        <time>2015-03-20T14:37:26Z</time>
      </trkpt>
      <trkpt lat="39.5500210" lon="-8.3897900">
        <ele>40.0</ele>
        <time>2015-03-20T14:37:44Z</time>
      </trkpt>
      <trkpt lat="39.5501060" lon="-8.3897640">
        <ele>40.3</ele>
        <time>2015-03-20T14:37:46Z</time>
      </trkpt>
      <trkpt lat="39.5504950" lon="-8.3898150">
        <ele>41.1</ele>
        <time>2015-03-20T14:37:56Z</time>
      </trkpt>
      <trkpt lat="39.5505730" lon="-8.3898550">
        <ele>41.3</ele>
        <time>2015-03-20T14:37:58Z</time>
      </trkpt>
      <trkpt lat="39.5508340" lon="-8.3896810">
        <ele>41.9</ele>
        <time>2015-03-20T14:38:07Z</time>
      </trkpt>
      <trkpt lat="39.5509720" lon="-8.3893140">
        <ele>41.4</ele>
        <time>2015-03-20T14:38:17Z</time>
      </trkpt>
      <trkpt lat="39.5512280" lon="-8.3895170">
        <ele>42.1</ele>
        <time>2015-03-20T14:38:26Z</time>
      </trkpt>
      <trkpt lat="39.5513750" lon="-8.3897740">
        <ele>42.5</ele>
        <time>2015-03-20T14:38:32Z</time>
      </trkpt>
      <trkpt lat="39.5518660" lon="-8.3902020">
        <ele>43.6</ele>
        <time>2015-03-20T14:38:48Z</time>
      </trkpt>
      <trkpt lat="39.5524050" lon="-8.3907080">
        <ele>45.9</ele>
        <time>2015-03-20T14:39:07Z</time>
      </trkpt>
      <trkpt lat="39.5525070" lon="-8.3911210">
        <ele>46.6</ele>
        <time>2015-03-20T14:39:17Z</time>
      </trkpt>
      <trkpt lat="39.5526060" lon="-8.3914760">
        <ele>48.1</ele>
        <time>2015-03-20T14:39:30Z</time>
      </trkpt>
      <trkpt lat="39.5528610" lon="-8.3916470">
        <ele>48.9</ele>
        <time>2015-03-20T14:39:44Z</time>
      </trkpt>
      <trkpt lat="39.5532630" lon="-8.3915630">
        <ele>49.6</ele>
        <time>2015-03-20T14:40:02Z</time>
      </trkpt>
      <trkpt lat="39.5535780" lon="-8.3912630">
        <ele>50.2</ele>
        <time>2015-03-20T14:40:19Z</time>
      </trkpt>
      <trkpt lat="39.5539570" lon="-8.3911930">
        <ele>50.5</ele>
        <time>2015-03-20T14:40:36Z</time>
      </trkpt>
      <trkpt lat="39.5542970" lon="-8.3914920">
        <ele>51.6</ele>
        <time>2015-03-20T14:40:53Z</time>
      </trkpt>
      <trkpt lat="39.5546340" lon="-8.3919040">
        <ele>54.7</ele>
        <time>2015-03-20T14:41:12Z</time>
      </trkpt>
      <trkpt lat="39.5546850" lon="-8.3918780">
        <ele>54.8</ele>
        <time>2015-03-20T14:41:31Z</time>
      </trkpt>
      <trkpt lat="39.5547700" lon="-8.3917830">
        <ele>54.8</ele>
        <time>2015-03-20T14:41:40Z</time>
      </trkpt>
      <trkpt lat="39.5549130" lon="-8.3916660">
        <ele>54.4</ele>
        <time>2015-03-20T14:41:44Z</time>
      </trkpt>
      <trkpt lat="39.5551150" lon="-8.3915120">
        <ele>53.2</ele>
        <time>2015-03-20T14:41:49Z</time>
      </trkpt>
      <trkpt lat="39.5551680" lon="-8.3914750">
        <ele>52.8</ele>
        <time>2015-03-20T14:41:50Z</time>
      </trkpt>
      <trkpt lat="39.5554950" lon="-8.3913710">
        <ele>50.5</ele>
        <time>2015-03-20T14:41:55Z</time>
      </trkpt>
      <trkpt lat="39.5556440" lon="-8.3913480">
        <ele>49.9</ele>
        <time>2015-03-20T14:41:57Z</time>
      </trkpt>
      <trkpt lat="39.5557840" lon="-8.3913470">
        <ele>49.5</ele>
        <time>2015-03-20T14:41:59Z</time>
      </trkpt>
      <trkpt lat="39.5563660" lon="-8.3913700">
        <ele>48.1</ele>
        <time>2015-03-20T14:42:11Z</time>
      </trkpt>
      <trkpt lat="39.5567680" lon="-8.3913690">
        <ele>48.1</ele>
        <time>2015-03-20T14:42:27Z</time>
      </trkpt>
      <trkpt lat="39.5571000" lon="-8.3914070">
        <ele>49.5</ele>
        <time>2015-03-20T14:42:42Z</time>
      </trkpt>
      <trkpt lat="39.5574670" lon="-8.3915290">
        <ele>51.4</ele>
        <time>2015-03-20T14:42:59Z</time>
      </trkpt>
      <trkpt lat="39.5578590" lon="-8.3916730">
        <ele>53.9</ele>
        <time>2015-03-20T14:43:16Z</time>
      </trkpt>
      <trkpt lat="39.5582880" lon="-8.3918850">
        <ele>56.2</ele>
        <time>2015-03-20T14:43:27Z</time>
      </trkpt>
      <trkpt lat="39.5585940" lon="-8.3920290">
        <ele>54.6</ele>
        <time>2015-03-20T14:43:32Z</time>
      </trkpt>
      <trkpt lat="39.5586680" lon="-8.3920670">
        <ele>54.0</ele>
        <time>2015-03-20T14:43:33Z</time>
      </trkpt>
      <trkpt lat="39.5593630" lon="-8.3924460">
        <ele>48.3</ele>
        <time>2015-03-20T14:43:45Z</time>
      </trkpt>
      <trkpt lat="39.5594430" lon="-8.3924820">
        <ele>48.0</ele>
        <time>2015-03-20T14:43:47Z</time>
      </trkpt>
      <trkpt lat="39.5595750" lon="-8.3925420">
        <ele>47.6</ele>
        <time>2015-03-20T14:43:50Z</time>
      </trkpt>
      <trkpt lat="39.5601320" lon="-8.3928600">
        <ele>47.0</ele>
        <time>2015-03-20T14:44:05Z</time>
      </trkpt>
      <trkpt lat="39.5606120" lon="-8.3931100">
        <ele>47.9</ele>
        <time>2015-03-20T14:44:19Z</time>
      </trkpt>
      <trkpt lat="39.5611230" lon="-8.3933940">
        <ele>50.3</ele>
        <time>2015-03-20T14:44:35Z</time>
      </trkpt>
      <trkpt lat="39.5618380" lon="-8.3937850">
        <ele>52.0</ele>
        <time>2015-03-20T14:44:52Z</time>
      </trkpt>
      <trkpt lat="39.5623280" lon="-8.3941130">
        <ele>51.3</ele>
        <time>2015-03-20T14:45:06Z</time>
      </trkpt>
      <trkpt lat="39.5629210" lon="-8.3945160">
        <ele>49.4</ele>
        <time>2015-03-20T14:45:24Z</time>
      </trkpt>
      <trkpt lat="39.5634340" lon="-8.3948870">
        <ele>48.3</ele>
        <time>2015-03-20T14:45:42Z</time>
      </trkpt>
      <trkpt lat="39.5636780" lon="-8.3950490">
        <ele>48.5</ele>
        <time>2015-03-20T14:46:00Z</time>
      </trkpt>
      <trkpt lat="39.5638900" lon="-8.3951950">
        <ele>49.2</ele>
        <time>2015-03-20T14:46:13Z</time>
      </trkpt>
      <trkpt lat="39.5643160" lon="-8.3954650">
        <ele>50.0</ele>
        <time>2015-03-20T14:46:29Z</time>
      </trkpt>
      <trkpt lat="39.5647160" lon="-8.3956440">
        <ele>50.7</ele>
        <time>2015-03-20T14:46:37Z</time>
      </trkpt>
      <trkpt lat="39.5647730" lon="-8.3956680">
        <ele>50.7</ele>
        <time>2015-03-20T14:46:38Z</time>
      </trkpt>
      <trkpt lat="39.5654770" lon="-8.3958370">
        <ele>50.5</ele>
        <time>2015-03-20T14:46:52Z</time>
      </trkpt>
      <trkpt lat="39.5659840" lon="-8.3958900">
        <ele>50.1</ele>
        <time>2015-03-20T14:47:08Z</time>
      </trkpt>
      <trkpt lat="39.5664240" lon="-8.3958650">
        <ele>49.6</ele>
        <time>2015-03-20T14:47:22Z</time>
      </trkpt>
      <trkpt lat="39.5669260" lon="-8.3957390">
        <ele>48.7</ele>
        <time>2015-03-20T14:47:36Z</time>
      </trkpt>
      <trkpt lat="39.5671890" lon="-8.3956660">
        <ele>48.2</ele>
        <time>2015-03-20T14:47:43Z</time>
      </trkpt>
      <trkpt lat="39.5677900" lon="-8.3954730">
        <ele>47.7</ele>
        <time>2015-03-20T14:47:59Z</time>
      </trkpt>
      <trkpt lat="39.5685310" lon="-8.3952250">
        <ele>47.8</ele>
        <time>2015-03-20T14:48:18Z</time>
      </trkpt>
      <trkpt lat="39.5691530" lon="-8.3950770">
        <ele>48.6</ele>
        <time>2015-03-20T14:48:35Z</time>
      </trkpt>
      <trkpt lat="39.5697760" lon="-8.3950600">
        <ele>49.3</ele>
        <time>2015-03-20T14:48:53Z</time>
      </trkpt>
      <trkpt lat="39.5700700" lon="-8.3951570">
        <ele>49.6</ele>
        <time>2015-03-20T14:49:04Z</time>
      </trkpt>
      <trkpt lat="39.5701680" lon="-8.3953420">
        <ele>49.9</ele>
        <time>2015-03-20T14:49:18Z</time>
      </trkpt>
      <trkpt lat="39.5701990" lon="-8.3953880">
        <ele>49.9</ele>
        <time>2015-03-20T14:49:31Z</time>
      </trkpt>
      <trkpt lat="39.5701770" lon="-8.3954700">
        <ele>50.3</ele>
        <time>2015-03-20T15:02:16Z</time>
      </trkpt>
      <trkpt lat="39.5702470" lon="-8.3955590">
        <ele>50.9</ele>
        <time>2015-03-20T15:02:28Z</time>
      </trkpt>
      <trkpt lat="39.5702730" lon="-8.3956170">
        <ele>51.3</ele>
        <time>2015-03-20T15:02:33Z</time>
      </trkpt>
      <trkpt lat="39.5703200" lon="-8.3956510">
        <ele>51.7</ele>
        <time>2015-03-20T15:02:37Z</time>
      </trkpt>
      <trkpt lat="39.5704680" lon="-8.3958090">
        <ele>53.3</ele>
        <time>2015-03-20T15:02:53Z</time>
      </trkpt>
      <trkpt lat="39.5705870" lon="-8.3959470">
        <ele>55.1</ele>
        <time>2015-03-20T15:03:06Z</time>
      </trkpt>
      <trkpt lat="39.5707610" lon="-8.3960970">
        <ele>58.3</ele>
        <time>2015-03-20T15:03:23Z</time>
      </trkpt>
      <trkpt lat="39.5709540" lon="-8.3963100">
        <ele>60.0</ele>
        <time>2015-03-20T15:03:41Z</time>
      </trkpt>
      <trkpt lat="39.5712330" lon="-8.3965780">
        <ele>62.0</ele>
        <time>2015-03-20T15:04:03Z</time>
      </trkpt>
      <trkpt lat="39.5714140" lon="-8.3968070">
        <ele>62.3</ele>
        <time>2015-03-20T15:04:17Z</time>
      </trkpt>
      <trkpt lat="39.5716540" lon="-8.3972710">
        <ele>62.4</ele>
        <time>2015-03-20T15:04:32Z</time>
      </trkpt>
      <trkpt lat="39.5719960" lon="-8.3975840">
        <ele>62.2</ele>
        <time>2015-03-20T15:04:44Z</time>
      </trkpt>
      <trkpt lat="39.5725060" lon="-8.3980450">
        <ele>62.1</ele>
        <time>2015-03-20T15:05:01Z</time>
      </trkpt>
      <trkpt lat="39.5729670" lon="-8.3984650">
        <ele>63.0</ele>
        <time>2015-03-20T15:05:18Z</time>
      </trkpt>
      <trkpt lat="39.5734950" lon="-8.3987460">
        <ele>60.6</ele>
        <time>2015-03-20T15:05:32Z</time>
      </trkpt>
      <trkpt lat="39.5739110" lon="-8.3988080">
        <ele>60.6</ele>
        <time>2015-03-20T15:05:39Z</time>
      </trkpt>
      <trkpt lat="39.5740700" lon="-8.3988440">
        <ele>60.4</ele>
        <time>2015-03-20T15:05:41Z</time>
      </trkpt>
      <trkpt lat="39.5744160" lon="-8.3990630">
        <ele>58.4</ele>
        <time>2015-03-20T15:05:45Z</time>
      </trkpt>
      <trkpt lat="39.5745160" lon="-8.3991320">
        <ele>57.6</ele>
        <time>2015-03-20T15:05:46Z</time>
      </trkpt>
      <trkpt lat="39.5748320" lon="-8.3992350">
        <ele>55.7</ele>
        <time>2015-03-20T15:05:49Z</time>
      </trkpt>
      <trkpt lat="39.5751320" lon="-8.3991780">
        <ele>54.4</ele>
        <time>2015-03-20T15:05:52Z</time>
      </trkpt>
      <trkpt lat="39.5756310" lon="-8.3990910">
        <ele>52.6</ele>
        <time>2015-03-20T15:05:58Z</time>
      </trkpt>
      <trkpt lat="39.5768350" lon="-8.3993620">
        <ele>52.1</ele>
        <time>2015-03-20T15:06:17Z</time>
      </trkpt>
      <trkpt lat="39.5774530" lon="-8.3996050">
        <ele>52.3</ele>
        <time>2015-03-20T15:06:32Z</time>
      </trkpt>
      <trkpt lat="39.5781430" lon="-8.3998510">
        <ele>52.0</ele>
        <time>2015-03-20T15:06:49Z</time>
      </trkpt>
      <trkpt lat="39.5788940" lon="-8.4000770">
        <ele>51.9</ele>
        <time>2015-03-20T15:07:07Z</time>
      </trkpt>
      <trkpt lat="39.5796430" lon="-8.4003750">
        <ele>52.3</ele>
        <time>2015-03-20T15:07:26Z</time>
      </trkpt>
      <trkpt lat="39.5797620" lon="-8.4004210">
        <ele>52.4</ele>
        <time>2015-03-20T15:07:29Z</time>
      </trkpt>
      <trkpt lat="39.5804860" lon="-8.4007070">
        <ele>53.3</ele>
        <time>2015-03-20T15:07:47Z</time>
      </trkpt>
      <trkpt lat="39.5810930" lon="-8.4009110">
        <ele>54.7</ele>
        <time>2015-03-20T15:08:04Z</time>
      </trkpt>
      <trkpt lat="39.5816930" lon="-8.4011070">
        <ele>56.7</ele>
        <time>2015-03-20T15:08:22Z</time>
      </trkpt>
      <trkpt lat="39.5822210" lon="-8.4013510">
        <ele>57.5</ele>
        <time>2015-03-20T15:08:38Z</time>
      </trkpt>
      <trkpt lat="39.5822550" lon="-8.4017010">
        <ele>59.0</ele>
        <time>2015-03-20T15:08:50Z</time>
      </trkpt>
      <trkpt lat="39.5822060" lon="-8.4023940">
        <ele>61.6</ele>
        <time>2015-03-20T15:09:13Z</time>
      </trkpt>
      <trkpt lat="39.5821700" lon="-8.4029090">
        <ele>62.2</ele>
        <time>2015-03-20T15:09:29Z</time>
      </trkpt>
      <trkpt lat="39.5821650" lon="-8.4035430">
        <ele>62.9</ele>
        <time>2015-03-20T15:09:48Z</time>
      </trkpt>
      <trkpt lat="39.5821100" lon="-8.4042210">
        <ele>64.5</ele>
        <time>2015-03-20T15:10:10Z</time>
      </trkpt>
      <trkpt lat="39.5819590" lon="-8.4046450">
        <ele>66.5</ele>
        <time>2015-03-20T15:10:28Z</time>
      </trkpt>
      <trkpt lat="39.5817530" lon="-8.4050590">
        <ele>68.8</ele>
        <time>2015-03-20T15:10:47Z</time>
      </trkpt>
      <trkpt lat="39.5815470" lon="-8.4054800">
        <ele>71.4</ele>
        <time>2015-03-20T15:11:06Z</time>
      </trkpt>
      <trkpt lat="39.5814570" lon="-8.4059190">
        <ele>73.5</ele>
        <time>2015-03-20T15:11:24Z</time>
      </trkpt>
      <trkpt lat="39.5815220" lon="-8.4062820">
        <ele>75.6</ele>
        <time>2015-03-20T15:11:39Z</time>
      </trkpt>
      <trkpt lat="39.5815970" lon="-8.4066760">
        <ele>78.5</ele>
        <time>2015-03-20T15:11:56Z</time>
      </trkpt>
      <trkpt lat="39.5816820" lon="-8.4070960">
        <ele>81.7</ele>
        <time>2015-03-20T15:12:14Z</time>
      </trkpt>
      <trkpt lat="39.5817230" lon="-8.4076370">
        <ele>85.0</ele>
        <time>2015-03-20T15:12:34Z</time>
      </trkpt>
      <trkpt lat="39.5816840" lon="-8.4082870">
        <ele>85.3</ele>
        <time>2015-03-20T15:12:49Z</time>
      </trkpt>
      <trkpt lat="39.5816190" lon="-8.4090400">
        <ele>84.0</ele>
        <time>2015-03-20T15:13:07Z</time>
      </trkpt>
      <trkpt lat="39.5820490" lon="-8.4090840">
        <ele>83.5</ele>
        <time>2015-03-20T15:13:19Z</time>
      </trkpt>
      <trkpt lat="39.5826390" lon="-8.4090580">
        <ele>80.0</ele>
        <time>2015-03-20T15:13:30Z</time>
      </trkpt>
      <trkpt lat="39.5830070" lon="-8.4089180">
        <ele>77.9</ele>
        <time>2015-03-20T15:13:35Z</time>
      </trkpt>
      <trkpt lat="39.5834510" lon="-8.4087290">
        <ele>74.7</ele>
        <time>2015-03-20T15:13:40Z</time>
      </trkpt>
      <trkpt lat="39.5838360" lon="-8.4085520">
        <ele>71.2</ele>
        <time>2015-03-20T15:13:44Z</time>
      </trkpt>
      <trkpt lat="39.5841210" lon="-8.4083690">
        <ele>68.8</ele>
        <time>2015-03-20T15:13:47Z</time>
      </trkpt>
      <trkpt lat="39.5845750" lon="-8.4079970">
        <ele>65.4</ele>
        <time>2015-03-20T15:13:52Z</time>
      </trkpt>
      <trkpt lat="39.5849470" lon="-8.4076870">
        <ele>63.2</ele>
        <time>2015-03-20T15:13:56Z</time>
      </trkpt>
      <trkpt lat="39.5856300" lon="-8.4075260">
        <ele>60.8</ele>
        <time>2015-03-20T15:14:03Z</time>
      </trkpt>
      <trkpt lat="39.5863840" lon="-8.4078880">
        <ele>61.2</ele>
        <time>2015-03-20T15:14:14Z</time>
      </trkpt>
      <trkpt lat="39.5866300" lon="-8.4080440">
        <ele>62.6</ele>
        <time>2015-03-20T15:14:24Z</time>
      </trkpt>
      <trkpt lat="39.5868860" lon="-8.4081960">
        <ele>65.3</ele>
        <time>2015-03-20T15:14:38Z</time>
      </trkpt>
      <trkpt lat="39.5871960" lon="-8.4083760">
        <ele>69.1</ele>
        <time>2015-03-20T15:14:56Z</time>
      </trkpt>
      <trkpt lat="39.5875000" lon="-8.4085610">
        <ele>72.5</ele>
        <time>2015-03-20T15:15:13Z</time>
      </trkpt>
      <trkpt lat="39.5878640" lon="-8.4087630">
        <ele>75.9</ele>
        <time>2015-03-20T15:15:32Z</time>
      </trkpt>
      <trkpt lat="39.5882120" lon="-8.4089020">
        <ele>77.0</ele>
        <time>2015-03-20T15:15:47Z</time>
      </trkpt>
      <trkpt lat="39.5886780" lon="-8.4091200">
        <ele>77.3</ele>
        <time>2015-03-20T15:16:01Z</time>
      </trkpt>
      <trkpt lat="39.5889240" lon="-8.4092830">
        <ele>78.4</ele>
        <time>2015-03-20T15:16:07Z</time>
      </trkpt>
      <trkpt lat="39.5897150" lon="-8.4098500">
        <ele>78.6</ele>
        <time>2015-03-20T15:16:23Z</time>
      </trkpt>
      <trkpt lat="39.5898590" lon="-8.4099410">
        <ele>78.2</ele>
        <time>2015-03-20T15:16:26Z</time>
      </trkpt>
      <trkpt lat="39.5900390" lon="-8.4097520">
        <ele>74.8</ele>
        <time>2015-03-20T15:16:32Z</time>
      </trkpt>
      <trkpt lat="39.5900470" lon="-8.4096600">
        <ele>73.9</ele>
        <time>2015-03-20T15:16:33Z</time>
      </trkpt>
      <trkpt lat="39.5900700" lon="-8.4094610">
        <ele>72.5</ele>
        <time>2015-03-20T15:16:35Z</time>
      </trkpt>
      <trkpt lat="39.5902180" lon="-8.4090570">
        <ele>69.0</ele>
        <time>2015-03-20T15:16:39Z</time>
      </trkpt>
      <trkpt lat="39.5908970" lon="-8.4079430">
        <ele>63.6</ele>
        <time>2015-03-20T15:16:53Z</time>
      </trkpt>
      <trkpt lat="39.5910740" lon="-8.4074100">
        <ele>60.8</ele>
        <time>2015-03-20T15:16:59Z</time>
      </trkpt>
      <trkpt lat="39.5910910" lon="-8.4068560">
        <ele>56.5</ele>
        <time>2015-03-20T15:17:04Z</time>
      </trkpt>
      <trkpt lat="39.5912800" lon="-8.4065280">
        <ele>55.6</ele>
        <time>2015-03-20T15:17:11Z</time>
      </trkpt>
      <trkpt lat="39.5914800" lon="-8.4065470">
        <ele>55.4</ele>
        <time>2015-03-20T15:17:49Z</time>
      </trkpt>
      <trkpt lat="39.5915200" lon="-8.4059520">
        <ele>54.2</ele>
        <time>2015-03-20T15:17:59Z</time>
      </trkpt>
      <trkpt lat="39.5917080" lon="-8.4059430">
        <ele>54.1</ele>
        <time>2015-03-20T15:18:07Z</time>
      </trkpt>
      <trkpt lat="39.5919890" lon="-8.4058140">
        <ele>54.1</ele>
        <time>2015-03-20T15:18:17Z</time>
      </trkpt>
      <trkpt lat="39.5920710" lon="-8.4057930">
        <ele>54.1</ele>
        <time>2015-03-20T15:18:42Z</time>
      </trkpt>
      <trkpt lat="39.5921980" lon="-8.4057650">
        <ele>54.1</ele>
        <time>2015-03-20T15:18:54Z</time>
      </trkpt>
      <trkpt lat="39.5924460" lon="-8.4057600">
        <ele>54.1</ele>
        <time>2015-03-20T15:19:27Z</time>
      </trkpt>
      <trkpt lat="39.5929040" lon="-8.4060800">
        <ele>54.6</ele>
        <time>2015-03-20T15:19:41Z</time>
      </trkpt>
      <trkpt lat="39.5934680" lon="-8.4067300">
        <ele>55.4</ele>
        <time>2015-03-20T15:20:00Z</time>
      </trkpt>
      <trkpt lat="39.5939660" lon="-8.4072450">
        <ele>58.1</ele>
        <time>2015-03-20T15:20:16Z</time>
      </trkpt>
      <trkpt lat="39.5946400" lon="-8.4077140">
        <ele>60.8</ele>
        <time>2015-03-20T15:20:34Z</time>
      </trkpt>
      <trkpt lat="39.5946760" lon="-8.4077490">
        <ele>60.7</ele>
        <time>2015-03-20T15:20:35Z</time>
      </trkpt>
      <trkpt lat="39.5948390" lon="-8.4078500">
        <ele>60.4</ele>
        <time>2015-03-20T15:20:39Z</time>
      </trkpt>
      <trkpt lat="39.5955020" lon="-8.4082680">
        <ele>57.4</ele>
        <time>2015-03-20T15:20:55Z</time>
      </trkpt>
      <trkpt lat="39.5960640" lon="-8.4086300">
        <ele>54.9</ele>
        <time>2015-03-20T15:21:11Z</time>
      </trkpt>
      <trkpt lat="39.5965600" lon="-8.4089350">
        <ele>54.0</ele>
        <time>2015-03-20T15:21:26Z</time>
      </trkpt>
      <trkpt lat="39.5971400" lon="-8.4093570">
        <ele>53.8</ele>
        <time>2015-03-20T15:21:43Z</time>
      </trkpt>
      <trkpt lat="39.5976830" lon="-8.4097040">
        <ele>54.3</ele>
        <time>2015-03-20T15:21:58Z</time>
      </trkpt>
      <trkpt lat="39.5982520" lon="-8.4100610">
        <ele>53.9</ele>
        <time>2015-03-20T15:22:14Z</time>
      </trkpt>
      <trkpt lat="39.5987620" lon="-8.4103920">
        <ele>54.4</ele>
        <time>2015-03-20T15:22:29Z</time>
      </trkpt>
      <trkpt lat="39.5993690" lon="-8.4107870">
        <ele>54.8</ele>
        <time>2015-03-20T15:22:46Z</time>
      </trkpt>
      <trkpt lat="39.5998820" lon="-8.4111200">
        <ele>55.8</ele>
        <time>2015-03-20T15:23:01Z</time>
      </trkpt>
      <trkpt lat="39.6002380" lon="-8.4113560">
        <ele>55.9</ele>
        <time>2015-03-20T15:23:16Z</time>
      </trkpt>
      <trkpt lat="39.6004240" lon="-8.4114030">
        <ele>55.8</ele>
        <time>2015-03-20T15:24:26Z</time>
      </trkpt>
      <trkpt lat="39.6008330" lon="-8.4114830">
        <ele>55.9</ele>
        <time>2015-03-20T15:24:38Z</time>
      </trkpt>
      <trkpt lat="39.6012000" lon="-8.4115240">
        <ele>56.0</ele>
        <time>2015-03-20T15:24:48Z</time>
      </trkpt>
      <trkpt lat="39.6015600" lon="-8.4116880">
        <ele>56.0</ele>
        <time>2015-03-20T15:27:17Z</time>
      </trkpt>
      <trkpt lat="39.6016140" lon="-8.4117700">
        <ele>55.9</ele>
        <time>2015-03-20T15:29:42Z</time>
      </trkpt>
      <trkpt lat="39.6017150" lon="-8.4117850">
        <ele>55.8</ele>
        <time>2015-03-20T15:29:48Z</time>
      </trkpt>
      <trkpt lat="39.6021050" lon="-8.4118320">
        <ele>55.3</ele>
        <time>2015-03-20T15:30:03Z</time>
      </trkpt>
      <trkpt lat="39.6025510" lon="-8.4117410">
        <ele>55.0</ele>
        <time>2015-03-20T15:30:17Z</time>
      </trkpt>
      <trkpt lat="39.6027300" lon="-8.4119940">
        <ele>56.1</ele>
        <time>2015-03-20T15:30:26Z</time>
      </trkpt>
      <trkpt lat="39.6025110" lon="-8.4122450">
        <ele>56.6</ele>
        <time>2015-03-20T15:30:36Z</time>
      </trkpt>
      <trkpt lat="39.6023380" lon="-8.4128160">
        <ele>57.4</ele>
        <time>2015-03-20T15:30:50Z</time>
      </trkpt>
      <trkpt lat="39.6021410" lon="-8.4135230">
        <ele>58.0</ele>
        <time>2015-03-20T15:31:07Z</time>
      </trkpt>
      <trkpt lat="39.6019320" lon="-8.4142880">
        <ele>58.8</ele>
        <time>2015-03-20T15:31:25Z</time>
      </trkpt>
      <trkpt lat="39.6018810" lon="-8.4145550">
        <ele>59.4</ele>
        <time>2015-03-20T15:31:33Z</time>
      </trkpt>
      <trkpt lat="39.6017220" lon="-8.4150630">
        <ele>61.8</ele>
        <time>2015-03-20T15:39:50Z</time>
      </trkpt>
      <trkpt lat="39.6016060" lon="-8.4154930">
        <ele>64.3</ele>
        <time>2015-03-20T15:40:05Z</time>
      </trkpt>
      <trkpt lat="39.6015910" lon="-8.4156440">
        <ele>65.1</ele>
        <time>2015-03-20T15:47:23Z</time>
      </trkpt>
      <trkpt lat="39.6015540" lon="-8.4154780">
        <ele>64.3</ele>
        <time>2015-03-20T15:48:08Z</time>
      </trkpt>
      <trkpt lat="39.6015850" lon="-8.4153470">
        <ele>63.7</ele>
        <time>2015-03-20T15:48:11Z</time>
      </trkpt>
      <trkpt lat="39.6017940" lon="-8.4146080">
        <ele>59.5</ele>
        <time>2015-03-20T15:48:24Z</time>
      </trkpt>
      <trkpt lat="39.6020170" lon="-8.4146400">
        <ele>59.8</ele>
        <time>2015-03-20T15:48:34Z</time>
      </trkpt>
      <trkpt lat="39.6024700" lon="-8.4146270">
        <ele>60.3</ele>
        <time>2015-03-20T15:48:49Z</time>
      </trkpt>
      <trkpt lat="39.6028360" lon="-8.4145960">
        <ele>60.3</ele>
        <time>2015-03-20T15:49:03Z</time>
      </trkpt>
      <trkpt lat="39.6030380" lon="-8.4146100">
        <ele>60.2</ele>
        <time>2015-03-20T15:49:13Z</time>
      </trkpt>
      <trkpt lat="39.6031200" lon="-8.4146080">
        <ele>60.2</ele>
        <time>2015-03-20T15:49:17Z</time>
      </trkpt>
      <trkpt lat="39.6034460" lon="-8.4146650">
        <ele>59.8</ele>
        <time>2015-03-20T15:49:31Z</time>
      </trkpt>
      <trkpt lat="39.6037010" lon="-8.4148080">
        <ele>59.9</ele>
        <time>2015-03-20T15:49:42Z</time>
      </trkpt>
      <trkpt lat="39.6038300" lon="-8.4146630">
        <ele>59.5</ele>
        <time>2015-03-20T15:49:50Z</time>
      </trkpt>
      <trkpt lat="39.6039910" lon="-8.4141700">
        <ele>59.1</ele>
        <time>2015-03-20T15:50:06Z</time>
      </trkpt>
      <trkpt lat="39.6040680" lon="-8.4137550">
        <ele>58.4</ele>
        <time>2015-03-20T15:50:19Z</time>
      </trkpt>
      <trkpt lat="39.6041630" lon="-8.4134510">
        <ele>57.6</ele>
        <time>2015-03-20T15:50:30Z</time>
      </trkpt>
      <trkpt lat="39.6042570" lon="-8.4129280">
        <ele>56.6</ele>
        <time>2015-03-20T15:50:45Z</time>
      </trkpt>
      <trkpt lat="39.6043730" lon="-8.4126160">
        <ele>56.7</ele>
        <time>2015-03-20T15:51:02Z</time>
      </trkpt>
      <trkpt lat="39.6044180" lon="-8.4125690">
        <ele>56.8</ele>
        <time>2015-03-21T07:44:39Z</time>
      </trkpt>
      <trkpt lat="39.6044270" lon="-8.4123420">
        <ele>56.9</ele>
        <time>2015-03-21T07:51:08Z</time>
      </trkpt>
      <trkpt lat="39.6044590" lon="-8.4121500">
        <ele>56.6</ele>
        <time>2015-03-21T07:51:22Z</time>
      </trkpt>
      <trkpt lat="39.6044730" lon="-8.4120910">
        <ele>56.4</ele>
        <time>2015-03-21T07:51:26Z</time>
      </trkpt>
      <trkpt lat="39.6045030" lon="-8.4118090">
        <ele>54.7</ele>
        <time>2015-03-21T07:51:44Z</time>
      </trkpt>
      <trkpt lat="39.6045180" lon="-8.4115950">
        <ele>53.9</ele>
        <time>2015-03-21T07:52:01Z</time>
      </trkpt>
      <trkpt lat="39.6045160" lon="-8.4115320">
        <ele>53.9</ele>
        <time>2015-03-21T07:52:50Z</time>
      </trkpt>
      <trkpt lat="39.6045410" lon="-8.4112620">
        <ele>54.5</ele>
        <time>2015-03-21T07:53:02Z</time>
      </trkpt>
      <trkpt lat="39.6045780" lon="-8.4108260">
        <ele>55.2</ele>
        <time>2015-03-21T07:53:15Z</time>
      </trkpt>
      <trkpt lat="39.6046220" lon="-8.4103930">
        <ele>55.6</ele>
        <time>2015-03-21T07:53:28Z</time>
      </trkpt>
      <trkpt lat="39.6046540" lon="-8.4099850">
        <ele>56.5</ele>
        <time>2015-03-21T07:53:43Z</time>
      </trkpt>
      <trkpt lat="39.6046560" lon="-8.4099060">
        <ele>56.9</ele>
        <time>2015-03-21T07:55:11Z</time>
      </trkpt>
      <trkpt lat="39.6047370" lon="-8.4098550">
        <ele>56.7</ele>
        <time>2015-03-21T07:55:17Z</time>
      </trkpt>
      <trkpt lat="39.6049880" lon="-8.4098760">
        <ele>56.5</ele>
        <time>2015-03-21T07:55:29Z</time>
      </trkpt>
      <trkpt lat="39.6052420" lon="-8.4098910">
        <ele>56.3</ele>
        <time>2015-03-21T07:55:39Z</time>
      </trkpt>
      <trkpt lat="39.6056100" lon="-8.4098880">
        <ele>56.0</ele>
        <time>2015-03-21T07:55:52Z</time>
      </trkpt>
      <trkpt lat="39.6059940" lon="-8.4098230">
        <ele>56.1</ele>
        <time>2015-03-21T07:56:07Z</time>
      </trkpt>
      <trkpt lat="39.6062090" lon="-8.4096730">
        <ele>56.7</ele>
        <time>2015-03-21T07:56:17Z</time>
      </trkpt>
      <trkpt lat="39.6065620" lon="-8.4095050">
        <ele>58.0</ele>
        <time>2015-03-21T07:56:34Z</time>
      </trkpt>
      <trkpt lat="39.6068320" lon="-8.4093470">
        <ele>59.5</ele>
        <time>2015-03-21T07:56:50Z</time>
      </trkpt>
      <trkpt lat="39.6069670" lon="-8.4092590">
        <ele>59.8</ele>
        <time>2015-03-21T07:57:00Z</time>
      </trkpt>
      <trkpt lat="39.6072010" lon="-8.4091420">
        <ele>60.3</ele>
        <time>2015-03-21T07:57:13Z</time>
      </trkpt>
      <trkpt lat="39.6075480" lon="-8.4089130">
        <ele>60.5</ele>
        <time>2015-03-21T07:57:26Z</time>
      </trkpt>
      <trkpt lat="39.6080500" lon="-8.4086630">
        <ele>61.7</ele>
        <time>2015-03-21T07:57:42Z</time>
      </trkpt>
      <trkpt lat="39.6084950" lon="-8.4085140">
        <ele>62.1</ele>
        <time>2015-03-21T07:57:55Z</time>
      </trkpt>
      <trkpt lat="39.6091880" lon="-8.4083560">
        <ele>62.4</ele>
        <time>2015-03-21T07:58:12Z</time>
      </trkpt>
      <trkpt lat="39.6096510" lon="-8.4083500">
        <ele>62.9</ele>
        <time>2015-03-21T07:58:25Z</time>
      </trkpt>
      <trkpt lat="39.6101360" lon="-8.4083400">
        <ele>63.2</ele>
        <time>2015-03-21T07:58:39Z</time>
      </trkpt>
      <trkpt lat="39.6108000" lon="-8.4082450">
        <ele>60.1</ele>
        <time>2015-03-21T07:58:58Z</time>
      </trkpt>
      <trkpt lat="39.6115430" lon="-8.4083180">
        <ele>60.5</ele>
        <time>2015-03-21T07:59:19Z</time>
      </trkpt>
      <trkpt lat="39.6120570" lon="-8.4084220">
        <ele>61.7</ele>
        <time>2015-03-21T07:59:34Z</time>
      </trkpt>
      <trkpt lat="39.6123810" lon="-8.4084350">
        <ele>63.1</ele>
        <time>2015-03-21T07:59:48Z</time>
      </trkpt>
      <trkpt lat="39.6128210" lon="-8.4085170">
        <ele>63.9</ele>
        <time>2015-03-21T08:00:07Z</time>
      </trkpt>
      <trkpt lat="39.6135970" lon="-8.4086730">
        <ele>62.2</ele>
        <time>2015-03-21T08:00:29Z</time>
      </trkpt>
      <trkpt lat="39.6136840" lon="-8.4086890">
        <ele>61.7</ele>
        <time>2015-03-21T08:00:31Z</time>
      </trkpt>
      <trkpt lat="39.6141620" lon="-8.4087900">
        <ele>60.8</ele>
        <time>2015-03-21T08:00:39Z</time>
      </trkpt>
      <trkpt lat="39.6146340" lon="-8.4088810">
        <ele>61.7</ele>
        <time>2015-03-21T08:00:48Z</time>
      </trkpt>
      <trkpt lat="39.6152470" lon="-8.4090850">
        <ele>62.3</ele>
        <time>2015-03-21T08:01:06Z</time>
      </trkpt>
      <trkpt lat="39.6156050" lon="-8.4091570">
        <ele>62.5</ele>
        <time>2015-03-21T08:01:15Z</time>
      </trkpt>
      <trkpt lat="39.6156960" lon="-8.4091510">
        <ele>62.6</ele>
        <time>2015-03-21T08:01:17Z</time>
      </trkpt>
      <trkpt lat="39.6158920" lon="-8.4092290">
        <ele>62.8</ele>
        <time>2015-03-21T08:01:23Z</time>
      </trkpt>
      <trkpt lat="39.6162010" lon="-8.4093010">
        <ele>63.7</ele>
        <time>2015-03-21T08:01:39Z</time>
      </trkpt>
      <trkpt lat="39.6165570" lon="-8.4093130">
        <ele>64.7</ele>
        <time>2015-03-21T08:01:57Z</time>
      </trkpt>
      <trkpt lat="39.6167940" lon="-8.4093440">
        <ele>65.2</ele>
        <time>2015-03-21T08:02:11Z</time>
      </trkpt>
      <trkpt lat="39.6169630" lon="-8.4093210">
        <ele>65.2</ele>
        <time>2015-03-21T08:02:25Z</time>
      </trkpt>
      <trkpt lat="39.6170840" lon="-8.4093080">
        <ele>64.9</ele>
        <time>2015-03-21T08:02:39Z</time>
      </trkpt>
      <trkpt lat="39.6171440" lon="-8.4093130">
        <ele>64.7</ele>
        <time>2015-03-21T08:03:10Z</time>
      </trkpt>
      <trkpt lat="39.6171950" lon="-8.4093230">
        <ele>64.5</ele>
        <time>2015-03-21T08:03:13Z</time>
      </trkpt>
      <trkpt lat="39.6174850" lon="-8.4093370">
        <ele>63.8</ele>
        <time>2015-03-21T08:03:24Z</time>
      </trkpt>
      <trkpt lat="39.6176510" lon="-8.4093580">
        <ele>63.7</ele>
        <time>2015-03-21T08:03:33Z</time>
      </trkpt>
      <trkpt lat="39.6177210" lon="-8.4093470">
        <ele>63.6</ele>
        <time>2015-03-21T08:03:37Z</time>
      </trkpt>
      <trkpt lat="39.6179550" lon="-8.4092380">
        <ele>63.6</ele>
        <time>2015-03-21T08:03:54Z</time>
      </trkpt>
      <trkpt lat="39.6180480" lon="-8.4092280">
        <ele>63.7</ele>
        <time>2015-03-21T08:04:10Z</time>
      </trkpt>
      <trkpt lat="39.6182050" lon="-8.4092130">
        <ele>64.1</ele>
        <time>2015-03-21T08:04:20Z</time>
      </trkpt>
      <trkpt lat="39.6184390" lon="-8.4090560">
        <ele>65.2</ele>
        <time>2015-03-21T08:04:35Z</time>
      </trkpt>
      <trkpt lat="39.6186810" lon="-8.4088850">
        <ele>64.7</ele>
        <time>2015-03-21T08:04:50Z</time>
      </trkpt>
      <trkpt lat="39.6188790" lon="-8.4087760">
        <ele>64.5</ele>
        <time>2015-03-21T08:05:00Z</time>
      </trkpt>
      <trkpt lat="39.6191090" lon="-8.4086270">
        <ele>65.5</ele>
        <time>2015-03-21T08:05:16Z</time>
      </trkpt>
      <trkpt lat="39.6191690" lon="-8.4085660">
        <ele>65.8</ele>
        <time>2015-03-21T08:05:20Z</time>
      </trkpt>
      <trkpt lat="39.6192860" lon="-8.4084180">
        <ele>66.0</ele>
        <time>2015-03-21T08:05:29Z</time>
      </trkpt>
      <trkpt lat="39.6193500" lon="-8.4083280">
        <ele>65.8</ele>
        <time>2015-03-21T08:05:34Z</time>
      </trkpt>
      <trkpt lat="39.6194560" lon="-8.4082380">
        <ele>64.8</ele>
        <time>2015-03-21T08:05:40Z</time>
      </trkpt>
      <trkpt lat="39.6195330" lon="-8.4082040">
        <ele>64.1</ele>
        <time>2015-03-21T08:05:45Z</time>
      </trkpt>
      <trkpt lat="39.6196620" lon="-8.4079400">
        <ele>62.9</ele>
        <time>2015-03-21T08:05:57Z</time>
      </trkpt>
      <trkpt lat="39.6196850" lon="-8.4077600">
        <ele>62.7</ele>
        <time>2015-03-21T08:06:06Z</time>
      </trkpt>
      <trkpt lat="39.6197070" lon="-8.4076530">
        <ele>62.4</ele>
        <time>2015-03-21T08:06:10Z</time>
      </trkpt>
      <trkpt lat="39.6197140" lon="-8.4075920">
        <ele>62.1</ele>
        <time>2015-03-21T08:06:17Z</time>
      </trkpt>
      <trkpt lat="39.6197230" lon="-8.4075120">
        <ele>61.7</ele>
        <time>2015-03-21T08:06:23Z</time>
      </trkpt>
      <trkpt lat="39.6197310" lon="-8.4073090">
        <ele>62.7</ele>
        <time>2015-03-21T08:06:40Z</time>
      </trkpt>
      <trkpt lat="39.6197190" lon="-8.4070410">
        <ele>63.4</ele>
        <time>2015-03-21T08:06:53Z</time>
      </trkpt>
      <trkpt lat="39.6196790" lon="-8.4068240">
        <ele>63.3</ele>
        <time>2015-03-21T08:07:01Z</time>
      </trkpt>
      <trkpt lat="39.6195960" lon="-8.4064920">
        <ele>63.2</ele>
        <time>2015-03-21T08:07:13Z</time>
      </trkpt>
      <trkpt lat="39.6195840" lon="-8.4063260">
        <ele>63.2</ele>
        <time>2015-03-21T08:07:20Z</time>
      </trkpt>
      <trkpt lat="39.6195840" lon="-8.4061420">
        <ele>63.2</ele>
        <time>2015-03-21T08:07:28Z</time>
      </trkpt>
      <trkpt lat="39.6195830" lon="-8.4059070">
        <ele>63.2</ele>
        <time>2015-03-21T08:07:39Z</time>
      </trkpt>
      <trkpt lat="39.6195860" lon="-8.4057000">
        <ele>63.2</ele>
        <time>2015-03-21T08:07:48Z</time>
      </trkpt>
      <trkpt lat="39.6195580" lon="-8.4054340">
        <ele>63.3</ele>
        <time>2015-03-21T08:08:00Z</time>
      </trkpt>
      <trkpt lat="39.6195650" lon="-8.4050470">
        <ele>63.3</ele>
        <time>2015-03-21T08:08:14Z</time>
      </trkpt>
      <trkpt lat="39.6196640" lon="-8.4047470">
        <ele>63.4</ele>
        <time>2015-03-21T08:08:27Z</time>
      </trkpt>
      <trkpt lat="39.6197000" lon="-8.4046490">
        <ele>63.5</ele>
        <time>2015-03-21T08:08:50Z</time>
      </trkpt>
      <trkpt lat="39.6197150" lon="-8.4045810">
        <ele>63.5</ele>
        <time>2015-03-21T08:08:53Z</time>
      </trkpt>
      <trkpt lat="39.6197530" lon="-8.4044860">
        <ele>63.5</ele>
        <time>2015-03-21T08:09:04Z</time>
      </trkpt>
      <trkpt lat="39.6197910" lon="-8.4043570">
        <ele>63.6</ele>
        <time>2015-03-21T08:09:15Z</time>
      </trkpt>
      <trkpt lat="39.6198020" lon="-8.4042420">
        <ele>63.6</ele>
        <time>2015-03-21T08:09:26Z</time>
      </trkpt>
      <trkpt lat="39.6198700" lon="-8.4040630">
        <ele>63.6</ele>
        <time>2015-03-21T08:09:34Z</time>
      </trkpt>
      <trkpt lat="39.6199270" lon="-8.4039090">
        <ele>63.6</ele>
        <time>2015-03-21T08:09:41Z</time>
      </trkpt>
      <trkpt lat="39.6199920" lon="-8.4037370">
        <ele>63.6</ele>
        <time>2015-03-21T08:09:48Z</time>
      </trkpt>
      <trkpt lat="39.6201880" lon="-8.4034840">
        <ele>63.5</ele>
        <time>2015-03-21T08:10:02Z</time>
      </trkpt>
      <trkpt lat="39.6203640" lon="-8.4033010">
        <ele>63.4</ele>
        <time>2015-03-21T08:10:12Z</time>
      </trkpt>
      <trkpt lat="39.6204950" lon="-8.4031340">
        <ele>63.2</ele>
        <time>2015-03-21T08:10:21Z</time>
      </trkpt>
      <trkpt lat="39.6207160" lon="-8.4029970">
        <ele>63.0</ele>
        <time>2015-03-21T08:10:33Z</time>
      </trkpt>
      <trkpt lat="39.6209240" lon="-8.4028800">
        <ele>63.0</ele>
        <time>2015-03-21T08:10:47Z</time>
      </trkpt>
      <trkpt lat="39.6210330" lon="-8.4028400">
        <ele>63.0</ele>
        <time>2015-03-21T08:10:53Z</time>
      </trkpt>
      <trkpt lat="39.6212390" lon="-8.4028450">
        <ele>63.0</ele>
        <time>2015-03-21T08:11:03Z</time>
      </trkpt>
      <trkpt lat="39.6216050" lon="-8.4027480">
        <ele>63.0</ele>
        <time>2015-03-21T08:11:20Z</time>
      </trkpt>
      <trkpt lat="39.6219270" lon="-8.4026850">
        <ele>63.1</ele>
        <time>2015-03-21T08:11:35Z</time>
      </trkpt>
      <trkpt lat="39.6219960" lon="-8.4024720">
        <ele>63.3</ele>
        <time>2015-03-21T08:11:45Z</time>
      </trkpt>
      <trkpt lat="39.6220150" lon="-8.4023720">
        <ele>63.3</ele>
        <time>2015-03-21T08:11:49Z</time>
      </trkpt>
      <trkpt lat="39.6221160" lon="-8.4020760">
        <ele>63.6</ele>
        <time>2015-03-21T08:12:01Z</time>
      </trkpt>
      <trkpt lat="39.6221870" lon="-8.4017360">
        <ele>63.9</ele>
        <time>2015-03-21T08:12:13Z</time>
      </trkpt>
      <trkpt lat="39.6221790" lon="-8.4016070">
        <ele>64.1</ele>
        <time>2015-03-21T08:12:18Z</time>
      </trkpt>
      <trkpt lat="39.6221010" lon="-8.4014740">
        <ele>64.3</ele>
        <time>2015-03-21T08:12:24Z</time>
      </trkpt>
      <trkpt lat="39.6217650" lon="-8.4009160">
        <ele>65.5</ele>
        <time>2015-03-21T08:12:43Z</time>
      </trkpt>
      <trkpt lat="39.6217170" lon="-8.4005930">
        <ele>66.1</ele>
        <time>2015-03-21T08:12:57Z</time>
      </trkpt>
      <trkpt lat="39.6217650" lon="-8.4005020">
        <ele>66.3</ele>
        <time>2015-03-21T08:13:09Z</time>
      </trkpt>
      <trkpt lat="39.6220300" lon="-8.4004920">
        <ele>66.9</ele>
        <time>2015-03-21T08:13:34Z</time>
      </trkpt>
      <trkpt lat="39.6222910" lon="-8.4004470">
        <ele>66.4</ele>
        <time>2015-03-21T08:13:47Z</time>
      </trkpt>
      <trkpt lat="39.6225480" lon="-8.4004050">
        <ele>66.0</ele>
        <time>2015-03-21T08:14:00Z</time>
      </trkpt>
      <trkpt lat="39.6229070" lon="-8.4002840">
        <ele>64.0</ele>
        <time>2015-03-21T08:14:13Z</time>
      </trkpt>
      <trkpt lat="39.6230110" lon="-8.4001830">
        <ele>63.4</ele>
        <time>2015-03-21T08:14:16Z</time>
      </trkpt>
      <trkpt lat="39.6233530" lon="-8.3999630">
        <ele>63.4</ele>
        <time>2015-03-21T08:14:24Z</time>
      </trkpt>
      <trkpt lat="39.6236040" lon="-8.4000710">
        <ele>65.5</ele>
        <time>2015-03-21T08:14:34Z</time>
      </trkpt>
      <trkpt lat="39.6237020" lon="-8.4001970">
        <ele>67.8</ele>
        <time>2015-03-21T08:14:44Z</time>
      </trkpt>
      <trkpt lat="39.6238630" lon="-8.4002750">
        <ele>70.9</ele>
        <time>2015-03-21T08:14:59Z</time>
      </trkpt>
      <trkpt lat="39.6240600" lon="-8.4003640">
        <ele>74.5</ele>
        <time>2015-03-21T08:15:16Z</time>
      </trkpt>
      <trkpt lat="39.6242430" lon="-8.4004570">
        <ele>77.8</ele>
        <time>2015-03-21T08:15:33Z</time>
      </trkpt>
      <trkpt lat="39.6244660" lon="-8.4005690">
        <ele>80.6</ele>
        <time>2015-03-21T08:15:53Z</time>
      </trkpt>
      <trkpt lat="39.6246460" lon="-8.4006870">
        <ele>81.9</ele>
        <time>2015-03-21T08:16:09Z</time>
      </trkpt>
      <trkpt lat="39.6248450" lon="-8.4009760">
        <ele>81.7</ele>
        <time>2015-03-21T08:16:25Z</time>
      </trkpt>
      <trkpt lat="39.6249020" lon="-8.4011500">
        <ele>80.6</ele>
        <time>2015-03-21T08:16:29Z</time>
      </trkpt>
      <trkpt lat="39.6250320" lon="-8.4014520">
        <ele>76.5</ele>
        <time>2015-03-21T08:16:35Z</time>
      </trkpt>
      <trkpt lat="39.6251220" lon="-8.4016030">
        <ele>74.7</ele>
        <time>2015-03-21T08:16:38Z</time>
      </trkpt>
      <trkpt lat="39.6255430" lon="-8.4018240">
        <ele>69.8</ele>
        <time>2015-03-21T08:16:48Z</time>
      </trkpt>
      <trkpt lat="39.6258280" lon="-8.4018660">
        <ele>64.9</ele>
        <time>2015-03-21T08:16:53Z</time>
      </trkpt>
      <trkpt lat="39.6258910" lon="-8.4018570">
        <ele>64.3</ele>
        <time>2015-03-21T08:16:54Z</time>
      </trkpt>
      <trkpt lat="39.6260160" lon="-8.4018450">
        <ele>62.9</ele>
        <time>2015-03-21T08:16:56Z</time>
      </trkpt>
      <trkpt lat="39.6261410" lon="-8.4018500">
        <ele>61.5</ele>
        <time>2015-03-21T08:16:58Z</time>
      </trkpt>
      <trkpt lat="39.6261960" lon="-8.4018540">
        <ele>61.0</ele>
        <time>2015-03-21T08:16:59Z</time>
      </trkpt>
      <trkpt lat="39.6263980" lon="-8.4017930">
        <ele>60.2</ele>
        <time>2015-03-21T08:17:03Z</time>
      </trkpt>
      <trkpt lat="39.6264740" lon="-8.4017190">
        <ele>60.0</ele>
        <time>2015-03-21T08:17:05Z</time>
      </trkpt>
      <trkpt lat="39.6268380" lon="-8.4013780">
        <ele>59.9</ele>
        <time>2015-03-21T08:17:17Z</time>
      </trkpt>
      <trkpt lat="39.6272550" lon="-8.4009070">
        <ele>59.5</ele>
        <time>2015-03-21T08:17:33Z</time>
      </trkpt>
      <trkpt lat="39.6275710" lon="-8.4005560">
        <ele>59.8</ele>
        <time>2015-03-21T08:17:46Z</time>
      </trkpt>
      <trkpt lat="39.6279310" lon="-8.4001570">
        <ele>59.8</ele>
        <time>2015-03-21T08:18:00Z</time>
      </trkpt>
      <trkpt lat="39.6283590" lon="-8.3998650">
        <ele>60.2</ele>
        <time>2015-03-21T08:18:14Z</time>
      </trkpt>
      <trkpt lat="39.6288660" lon="-8.3996810">
        <ele>60.2</ele>
        <time>2015-03-21T08:18:29Z</time>
      </trkpt>
      <trkpt lat="39.6294520" lon="-8.3994560">
        <ele>61.1</ele>
        <time>2015-03-21T08:18:47Z</time>
      </trkpt>
      <trkpt lat="39.6299340" lon="-8.3993840">
        <ele>62.1</ele>
        <time>2015-03-21T08:19:03Z</time>
      </trkpt>
      <trkpt lat="39.6304300" lon="-8.3994530">
        <ele>62.3</ele>
        <time>2015-03-21T08:19:18Z</time>
      </trkpt>
      <trkpt lat="39.6308410" lon="-8.3996120">
        <ele>62.5</ele>
        <time>2015-03-21T08:19:31Z</time>
      </trkpt>
      <trkpt lat="39.6312090" lon="-8.3997580">
        <ele>63.5</ele>
        <time>2015-03-21T08:19:45Z</time>
      </trkpt>
      <trkpt lat="39.6313690" lon="-8.3998470">
        <ele>64.0</ele>
        <time>2015-03-21T08:19:53Z</time>
      </trkpt>
      <trkpt lat="39.6314660" lon="-8.3998040">
        <ele>65.0</ele>
        <time>2015-03-21T08:20:05Z</time>
      </trkpt>
      <trkpt lat="39.6314300" lon="-8.3996730">
        <ele>67.9</ele>
        <time>2015-03-21T08:20:19Z</time>
      </trkpt>
      <trkpt lat="39.6313740" lon="-8.3995380">
        <ele>70.8</ele>
        <time>2015-03-21T08:20:35Z</time>
      </trkpt>
      <trkpt lat="39.6313200" lon="-8.3993960">
        <ele>73.4</ele>
        <time>2015-03-21T08:20:52Z</time>
      </trkpt>
      <trkpt lat="39.6312760" lon="-8.3993060">
        <ele>75.1</ele>
        <time>2015-03-21T08:21:01Z</time>
      </trkpt>
      <trkpt lat="39.6311530" lon="-8.3991940">
        <ele>78.5</ele>
        <time>2015-03-21T08:21:21Z</time>
      </trkpt>
      <trkpt lat="39.6311140" lon="-8.3990880">
        <ele>80.6</ele>
        <time>2015-03-21T08:21:33Z</time>
      </trkpt>
      <trkpt lat="39.6311360" lon="-8.3989680">
        <ele>82.6</ele>
        <time>2015-03-21T08:21:44Z</time>
      </trkpt>
      <trkpt lat="39.6312410" lon="-8.3988630">
        <ele>84.8</ele>
        <time>2015-03-21T08:21:59Z</time>
      </trkpt>
      <trkpt lat="39.6313570" lon="-8.3987410">
        <ele>86.8</ele>
        <time>2015-03-21T08:22:17Z</time>
      </trkpt>
      <trkpt lat="39.6314530" lon="-8.3986690">
        <ele>88.2</ele>
        <time>2015-03-21T08:22:30Z</time>
      </trkpt>
      <trkpt lat="39.6315650" lon="-8.3985540">
        <ele>89.9</ele>
        <time>2015-03-21T08:22:47Z</time>
      </trkpt>
      <trkpt lat="39.6315980" lon="-8.3984970">
        <ele>90.5</ele>
        <time>2015-03-21T08:22:53Z</time>
      </trkpt>
      <trkpt lat="39.6317110" lon="-8.3983160">
        <ele>92.5</ele>
        <time>2015-03-21T08:23:12Z</time>
      </trkpt>
      <trkpt lat="39.6318130" lon="-8.3981710">
        <ele>94.0</ele>
        <time>2015-03-21T08:23:30Z</time>
      </trkpt>
      <trkpt lat="39.6318360" lon="-8.3981200">
        <ele>94.5</ele>
        <time>2015-03-21T08:23:40Z</time>
      </trkpt>
      <trkpt lat="39.6318950" lon="-8.3980320">
        <ele>95.2</ele>
        <time>2015-03-21T08:23:46Z</time>
      </trkpt>
      <trkpt lat="39.6320360" lon="-8.3977870">
        <ele>96.2</ele>
        <time>2015-03-21T08:24:01Z</time>
      </trkpt>
      <trkpt lat="39.6321500" lon="-8.3975150">
        <ele>96.8</ele>
        <time>2015-03-21T08:24:14Z</time>
      </trkpt>
      <trkpt lat="39.6323030" lon="-8.3972610">
        <ele>98.5</ele>
        <time>2015-03-21T08:24:27Z</time>
      </trkpt>
      <trkpt lat="39.6325190" lon="-8.3971290">
        <ele>100.1</ele>
        <time>2015-03-21T08:24:45Z</time>
      </trkpt>
      <trkpt lat="39.6327350" lon="-8.3970080">
        <ele>101.3</ele>
        <time>2015-03-21T08:25:00Z</time>
      </trkpt>
      <trkpt lat="39.6329900" lon="-8.3968750">
        <ele>103.9</ele>
        <time>2015-03-21T08:25:18Z</time>
      </trkpt>
      <trkpt lat="39.6331470" lon="-8.3967360">
        <ele>106.1</ele>
        <time>2015-03-21T08:25:32Z</time>
      </trkpt>
      <trkpt lat="39.6332360" lon="-8.3966450">
        <ele>107.0</ele>
        <time>2015-03-21T08:25:39Z</time>
      </trkpt>
      <trkpt lat="39.6332720" lon="-8.3965600">
        <ele>107.6</ele>
        <time>2015-03-21T08:25:44Z</time>
      </trkpt>
      <trkpt lat="39.6333350" lon="-8.3962880">
        <ele>108.5</ele>
        <time>2015-03-21T08:25:59Z</time>
      </trkpt>
      <trkpt lat="39.6333890" lon="-8.3959670">
        <ele>109.2</ele>
        <time>2015-03-21T08:26:14Z</time>
      </trkpt>
      <trkpt lat="39.6335940" lon="-8.3956920">
        <ele>109.3</ele>
        <time>2015-03-21T08:26:28Z</time>
      </trkpt>
      <trkpt lat="39.6338940" lon="-8.3955540">
        <ele>108.5</ele>
        <time>2015-03-21T08:26:39Z</time>
      </trkpt>
      <trkpt lat="39.6342310" lon="-8.3953690">
        <ele>107.6</ele>
        <time>2015-03-21T08:26:57Z</time>
      </trkpt>
      <trkpt lat="39.6344980" lon="-8.3952710">
        <ele>107.7</ele>
        <time>2015-03-21T08:27:12Z</time>
      </trkpt>
      <trkpt lat="39.6346550" lon="-8.3951850">
        <ele>108.4</ele>
        <time>2015-03-21T08:27:22Z</time>
      </trkpt>
      <trkpt lat="39.6346980" lon="-8.3951650">
        <ele>108.7</ele>
        <time>2015-03-21T08:27:25Z</time>
      </trkpt>
      <trkpt lat="39.6348050" lon="-8.3951050">
        <ele>109.8</ele>
        <time>2015-03-21T08:27:33Z</time>
      </trkpt>
      <trkpt lat="39.6348550" lon="-8.3950810">
        <ele>110.3</ele>
        <time>2015-03-21T08:27:37Z</time>
      </trkpt>
      <trkpt lat="39.6349910" lon="-8.3949850">
        <ele>111.7</ele>
        <time>2015-03-21T08:27:47Z</time>
      </trkpt>
      <trkpt lat="39.6352320" lon="-8.3947910">
        <ele>113.4</ele>
        <time>2015-03-21T08:28:05Z</time>
      </trkpt>
      <trkpt lat="39.6354110" lon="-8.3945900">
        <ele>115.3</ele>
        <time>2015-03-21T08:28:21Z</time>
      </trkpt>
      <trkpt lat="39.6354830" lon="-8.3942430">
        <ele>117.3</ele>
        <time>2015-03-21T08:28:40Z</time>
      </trkpt>
      <trkpt lat="39.6356860" lon="-8.3940650">
        <ele>118.4</ele>
        <time>2015-03-21T08:28:54Z</time>
      </trkpt>
      <trkpt lat="39.6359440" lon="-8.3938950">
        <ele>118.0</ele>
        <time>2015-03-21T08:29:06Z</time>
      </trkpt>
      <trkpt lat="39.6362310" lon="-8.3935350">
        <ele>116.8</ele>
        <time>2015-03-21T08:29:22Z</time>
      </trkpt>
      <trkpt lat="39.6365920" lon="-8.3932370">
        <ele>114.3</ele>
        <time>2015-03-21T08:29:34Z</time>
      </trkpt>
      <trkpt lat="39.6369270" lon="-8.3931980">
        <ele>113.7</ele>
        <time>2015-03-21T08:29:49Z</time>
      </trkpt>
      <trkpt lat="39.6373110" lon="-8.3931440">
        <ele>113.5</ele>
        <time>2015-03-21T08:30:05Z</time>
      </trkpt>
      <trkpt lat="39.6376370" lon="-8.3933140">
        <ele>113.3</ele>
        <time>2015-03-21T08:30:18Z</time>
      </trkpt>
      <trkpt lat="39.6379480" lon="-8.3934620">
        <ele>112.9</ele>
        <time>2015-03-21T08:30:30Z</time>
      </trkpt>
      <trkpt lat="39.6380620" lon="-8.3935550">
        <ele>113.6</ele>
        <time>2015-03-21T08:30:36Z</time>
      </trkpt>
      <trkpt lat="39.6381880" lon="-8.3937050">
        <ele>114.3</ele>
        <time>2015-03-21T08:30:44Z</time>
      </trkpt>
      <trkpt lat="39.6383730" lon="-8.3936000">
        <ele>115.0</ele>
        <time>2015-03-21T08:30:54Z</time>
      </trkpt>
      <trkpt lat="39.6385700" lon="-8.3934870">
        <ele>116.0</ele>
        <time>2015-03-21T08:31:05Z</time>
      </trkpt>
      <trkpt lat="39.6386580" lon="-8.3935490">
        <ele>116.4</ele>
        <time>2015-03-21T08:31:10Z</time>
      </trkpt>
      <trkpt lat="39.6390490" lon="-8.3936790">
        <ele>118.1</ele>
        <time>2015-03-21T08:31:28Z</time>
      </trkpt>
      <trkpt lat="39.6393440" lon="-8.3938230">
        <ele>119.6</ele>
        <time>2015-03-21T08:31:43Z</time>
      </trkpt>
      <trkpt lat="39.6395890" lon="-8.3939740">
        <ele>121.9</ele>
        <time>2015-03-21T08:31:58Z</time>
      </trkpt>
      <trkpt lat="39.6397290" lon="-8.3944080">
        <ele>124.2</ele>
        <time>2015-03-21T08:32:21Z</time>
      </trkpt>
      <trkpt lat="39.6398820" lon="-8.3946560">
        <ele>124.3</ele>
        <time>2015-03-21T08:32:37Z</time>
      </trkpt>
      <trkpt lat="39.6401770" lon="-8.3946040">
        <ele>123.5</ele>
        <time>2015-03-21T08:32:49Z</time>
      </trkpt>
      <trkpt lat="39.6402500" lon="-8.3945980">
        <ele>123.3</ele>
        <time>2015-03-21T08:32:51Z</time>
      </trkpt>
      <trkpt lat="39.6406700" lon="-8.3945860">
        <ele>123.3</ele>
        <time>2015-03-21T08:33:04Z</time>
      </trkpt>
      <trkpt lat="39.6410120" lon="-8.3946430">
        <ele>124.3</ele>
        <time>2015-03-21T08:33:19Z</time>
      </trkpt>
      <trkpt lat="39.6413560" lon="-8.3946900">
        <ele>125.5</ele>
        <time>2015-03-21T08:33:34Z</time>
      </trkpt>
      <trkpt lat="39.6417410" lon="-8.3947080">
        <ele>127.1</ele>
        <time>2015-03-21T08:33:51Z</time>
      </trkpt>
      <trkpt lat="39.6420770" lon="-8.3946380">
        <ele>129.0</ele>
        <time>2015-03-21T08:34:06Z</time>
      </trkpt>
      <trkpt lat="39.6424050" lon="-8.3946120">
        <ele>131.1</ele>
        <time>2015-03-21T08:34:22Z</time>
      </trkpt>
      <trkpt lat="39.6426730" lon="-8.3945880">
        <ele>132.6</ele>
        <time>2015-03-21T08:34:38Z</time>
      </trkpt>
      <trkpt lat="39.6429800" lon="-8.3946050">
        <ele>134.0</ele>
        <time>2015-03-21T08:34:56Z</time>
      </trkpt>
      <trkpt lat="39.6432740" lon="-8.3945780">
        <ele>134.0</ele>
        <time>2015-03-21T08:35:13Z</time>
      </trkpt>
      <trkpt lat="39.6436950" lon="-8.3945600">
        <ele>133.6</ele>
        <time>2015-03-21T08:35:28Z</time>
      </trkpt>
      <trkpt lat="39.6440770" lon="-8.3944910">
        <ele>134.5</ele>
        <time>2015-03-21T08:35:44Z</time>
      </trkpt>
      <trkpt lat="39.6444010" lon="-8.3944540">
        <ele>136.0</ele>
        <time>2015-03-21T08:36:02Z</time>
      </trkpt>
      <trkpt lat="39.6447260" lon="-8.3944240">
        <ele>138.2</ele>
        <time>2015-03-21T08:36:20Z</time>
      </trkpt>
      <trkpt lat="39.6450180" lon="-8.3943470">
        <ele>139.3</ele>
        <time>2015-03-21T08:36:37Z</time>
      </trkpt>
      <trkpt lat="39.6453190" lon="-8.3942800">
        <ele>139.3</ele>
        <time>2015-03-21T08:36:53Z</time>
      </trkpt>
      <trkpt lat="39.6456590" lon="-8.3942640">
        <ele>139.5</ele>
        <time>2015-03-21T08:37:10Z</time>
      </trkpt>
      <trkpt lat="39.6460360" lon="-8.3943370">
        <ele>139.2</ele>
        <time>2015-03-21T08:37:26Z</time>
      </trkpt>
      <trkpt lat="39.6464680" lon="-8.3943700">
        <ele>138.8</ele>
        <time>2015-03-21T08:37:41Z</time>
      </trkpt>
      <trkpt lat="39.6468740" lon="-8.3943540">
        <ele>138.0</ele>
        <time>2015-03-21T08:37:57Z</time>
      </trkpt>
      <trkpt lat="39.6474500" lon="-8.3943450">
        <ele>137.4</ele>
        <time>2015-03-21T08:38:14Z</time>
      </trkpt>
      <trkpt lat="39.6478580" lon="-8.3943490">
        <ele>137.6</ele>
        <time>2015-03-21T08:38:29Z</time>
      </trkpt>
      <trkpt lat="39.6481500" lon="-8.3943010">
        <ele>140.0</ele>
        <time>2015-03-21T08:38:39Z</time>
      </trkpt>
      <trkpt lat="39.6484200" lon="-8.3938310">
        <ele>137.2</ele>
        <time>2015-03-21T08:38:47Z</time>
      </trkpt>
      <trkpt lat="39.6486700" lon="-8.3934250">
        <ele>134.5</ele>
        <time>2015-03-21T08:38:52Z</time>
      </trkpt>
      <trkpt lat="39.6489510" lon="-8.3929460">
        <ele>131.4</ele>
        <time>2015-03-21T08:38:57Z</time>
      </trkpt>
      <trkpt lat="39.6492570" lon="-8.3924300">
        <ele>128.5</ele>
        <time>2015-03-21T08:39:02Z</time>
      </trkpt>
      <trkpt lat="39.6495770" lon="-8.3916650">
        <ele>128.7</ele>
        <time>2015-03-21T08:39:11Z</time>
      </trkpt>
      <trkpt lat="39.6497640" lon="-8.3911500">
        <ele>130.6</ele>
        <time>2015-03-21T08:39:22Z</time>
      </trkpt>
      <trkpt lat="39.6499380" lon="-8.3907030">
        <ele>130.7</ele>
        <time>2015-03-21T08:39:30Z</time>
      </trkpt>
      <trkpt lat="39.6500680" lon="-8.3899750">
        <ele>130.9</ele>
        <time>2015-03-21T08:39:43Z</time>
      </trkpt>
      <trkpt lat="39.6500800" lon="-8.3898450">
        <ele>130.9</ele>
        <time>2015-03-21T08:39:47Z</time>
      </trkpt>
      <trkpt lat="39.6502090" lon="-8.3893060">
        <ele>132.0</ele>
        <time>2015-03-21T08:40:06Z</time>
      </trkpt>
      <trkpt lat="39.6505230" lon="-8.3887900">
        <ele>134.2</ele>
        <time>2015-03-21T08:40:28Z</time>
      </trkpt>
      <trkpt lat="39.6507050" lon="-8.3883480">
        <ele>136.9</ele>
        <time>2015-03-21T08:40:47Z</time>
      </trkpt>
      <trkpt lat="39.6508600" lon="-8.3880060">
        <ele>139.3</ele>
        <time>2015-03-21T08:41:04Z</time>
      </trkpt>
      <trkpt lat="39.6509890" lon="-8.3877000">
        <ele>141.3</ele>
        <time>2015-03-21T08:41:20Z</time>
      </trkpt>
      <trkpt lat="39.6511170" lon="-8.3873810">
        <ele>143.2</ele>
        <time>2015-03-21T08:41:37Z</time>
      </trkpt>
      <trkpt lat="39.6512840" lon="-8.3870000">
        <ele>145.8</ele>
        <time>2015-03-21T08:41:58Z</time>
      </trkpt>
      <trkpt lat="39.6514100" lon="-8.3867150">
        <ele>147.8</ele>
        <time>2015-03-21T08:42:14Z</time>
      </trkpt>
      <trkpt lat="39.6515570" lon="-8.3864380">
        <ele>150.0</ele>
        <time>2015-03-21T08:42:30Z</time>
      </trkpt>
      <trkpt lat="39.6516420" lon="-8.3860850">
        <ele>151.9</ele>
        <time>2015-03-21T08:42:47Z</time>
      </trkpt>
      <trkpt lat="39.6517040" lon="-8.3857030">
        <ele>153.5</ele>
        <time>2015-03-21T08:43:04Z</time>
      </trkpt>
      <trkpt lat="39.6517850" lon="-8.3852530">
        <ele>155.1</ele>
        <time>2015-03-21T08:43:23Z</time>
      </trkpt>
      <trkpt lat="39.6518140" lon="-8.3847500">
        <ele>156.7</ele>
        <time>2015-03-21T08:43:42Z</time>
      </trkpt>
      <trkpt lat="39.6516820" lon="-8.3844050">
        <ele>157.9</ele>
        <time>2015-03-21T08:43:59Z</time>
      </trkpt>
      <trkpt lat="39.6517080" lon="-8.3842700">
        <ele>158.3</ele>
        <time>2015-03-21T08:57:11Z</time>
      </trkpt>
      <trkpt lat="39.6517250" lon="-8.3839410">
        <ele>159.2</ele>
        <time>2015-03-21T08:57:26Z</time>
      </trkpt>
      <trkpt lat="39.6519010" lon="-8.3835020">
        <ele>159.0</ele>
        <time>2015-03-21T08:57:41Z</time>
      </trkpt>
      <trkpt lat="39.6520440" lon="-8.3831430">
        <ele>160.1</ele>
        <time>2015-03-21T08:57:53Z</time>
      </trkpt>
      <trkpt lat="39.6522030" lon="-8.3831060">
        <ele>160.9</ele>
        <time>2015-03-21T08:58:01Z</time>
      </trkpt>
      <trkpt lat="39.6525460" lon="-8.3828310">
        <ele>162.4</ele>
        <time>2015-03-21T08:58:20Z</time>
      </trkpt>
      <trkpt lat="39.6528300" lon="-8.3826240">
        <ele>164.3</ele>
        <time>2015-03-21T08:58:38Z</time>
      </trkpt>
      <trkpt lat="39.6531850" lon="-8.3825650">
        <ele>164.2</ele>
        <time>2015-03-21T08:58:55Z</time>
      </trkpt>
      <trkpt lat="39.6532780" lon="-8.3826130">
        <ele>163.9</ele>
        <time>2015-03-21T08:58:58Z</time>
      </trkpt>
      <trkpt lat="39.6534090" lon="-8.3827640">
        <ele>163.2</ele>
        <time>2015-03-21T08:59:02Z</time>
      </trkpt>
      <trkpt lat="39.6534390" lon="-8.3828140">
        <ele>163.2</ele>
        <time>2015-03-21T08:59:03Z</time>
      </trkpt>
      <trkpt lat="39.6538970" lon="-8.3836000">
        <ele>161.9</ele>
        <time>2015-03-21T08:59:17Z</time>
      </trkpt>
      <trkpt lat="39.6539780" lon="-8.3837180">
        <ele>162.1</ele>
        <time>2015-03-21T08:59:19Z</time>
      </trkpt>
      <trkpt lat="39.6544910" lon="-8.3839920">
        <ele>163.0</ele>
        <time>2015-03-21T08:59:30Z</time>
      </trkpt>
      <trkpt lat="39.6547800" lon="-8.3839730">
        <ele>163.9</ele>
        <time>2015-03-21T08:59:40Z</time>
      </trkpt>
      <trkpt lat="39.6553080" lon="-8.3839550">
        <ele>167.4</ele>
        <time>2015-03-21T09:00:00Z</time>
      </trkpt>
      <trkpt lat="39.6558190" lon="-8.3838290">
        <ele>169.5</ele>
        <time>2015-03-21T09:00:20Z</time>
      </trkpt>
      <trkpt lat="39.6561800" lon="-8.3834560">
        <ele>171.1</ele>
        <time>2015-03-21T09:00:38Z</time>
      </trkpt>
      <trkpt lat="39.6565240" lon="-8.3832690">
        <ele>172.6</ele>
        <time>2015-03-21T09:00:55Z</time>
      </trkpt>
      <trkpt lat="39.6569180" lon="-8.3832280">
        <ele>174.8</ele>
        <time>2015-03-21T09:01:14Z</time>
      </trkpt>
      <trkpt lat="39.6573060" lon="-8.3832490">
        <ele>177.4</ele>
        <time>2015-03-21T09:01:34Z</time>
      </trkpt>
      <trkpt lat="39.6575630" lon="-8.3832880">
        <ele>180.3</ele>
        <time>2015-03-21T09:01:50Z</time>
      </trkpt>
      <trkpt lat="39.6578620" lon="-8.3833420">
        <ele>183.7</ele>
        <time>2015-03-21T09:02:08Z</time>
      </trkpt>
      <trkpt lat="39.6581450" lon="-8.3835110">
        <ele>185.7</ele>
        <time>2015-03-21T09:02:26Z</time>
      </trkpt>
      <trkpt lat="39.6584310" lon="-8.3836360">
        <ele>187.3</ele>
        <time>2015-03-21T09:02:43Z</time>
      </trkpt>
      <trkpt lat="39.6587280" lon="-8.3836030">
        <ele>189.0</ele>
        <time>2015-03-21T09:03:00Z</time>
      </trkpt>
      <trkpt lat="39.6590690" lon="-8.3834740">
        <ele>191.3</ele>
        <time>2015-03-21T09:03:18Z</time>
      </trkpt>
      <trkpt lat="39.6595050" lon="-8.3832400">
        <ele>192.4</ele>
        <time>2015-03-21T09:03:37Z</time>
      </trkpt>
      <trkpt lat="39.6599370" lon="-8.3829760">
        <ele>192.5</ele>
        <time>2015-03-21T09:03:56Z</time>
      </trkpt>
      <trkpt lat="39.6604450" lon="-8.3826450">
        <ele>192.4</ele>
        <time>2015-03-21T09:04:17Z</time>
      </trkpt>
      <trkpt lat="39.6607690" lon="-8.3822500">
        <ele>192.7</ele>
        <time>2015-03-21T09:04:34Z</time>
      </trkpt>
      <trkpt lat="39.6609810" lon="-8.3819050">
        <ele>192.8</ele>
        <time>2015-03-21T09:04:48Z</time>
      </trkpt>
      <trkpt lat="39.6612170" lon="-8.3814350">
        <ele>192.1</ele>
        <time>2015-03-21T09:05:02Z</time>
      </trkpt>
      <trkpt lat="39.6616040" lon="-8.3807700">
        <ele>190.6</ele>
        <time>2015-03-21T09:05:19Z</time>
      </trkpt>
      <trkpt lat="39.6617640" lon="-8.3800920">
        <ele>189.1</ele>
        <time>2015-03-21T09:05:34Z</time>
      </trkpt>
      <trkpt lat="39.6620460" lon="-8.3794590">
        <ele>190.3</ele>
        <time>2015-03-21T09:05:50Z</time>
      </trkpt>
      <trkpt lat="39.6623800" lon="-8.3787950">
        <ele>193.2</ele>
        <time>2015-03-21T09:06:08Z</time>
      </trkpt>
      <trkpt lat="39.6626740" lon="-8.3779930">
        <ele>193.5</ele>
        <time>2015-03-21T09:06:26Z</time>
      </trkpt>
      <trkpt lat="39.6629510" lon="-8.3771090">
        <ele>194.1</ele>
        <time>2015-03-21T09:06:45Z</time>
      </trkpt>
      <trkpt lat="39.6634170" lon="-8.3766080">
        <ele>197.1</ele>
        <time>2015-03-21T09:07:02Z</time>
      </trkpt>
      <trkpt lat="39.6637090" lon="-8.3762630">
        <ele>199.0</ele>
        <time>2015-03-21T09:07:17Z</time>
      </trkpt>
      <trkpt lat="39.6640130" lon="-8.3759500">
        <ele>199.8</ele>
        <time>2015-03-21T09:07:33Z</time>
      </trkpt>
      <trkpt lat="39.6644370" lon="-8.3755730">
        <ele>200.9</ele>
        <time>2015-03-21T09:07:52Z</time>
      </trkpt>
      <trkpt lat="39.6649350" lon="-8.3750170">
        <ele>200.5</ele>
        <time>2015-03-21T09:08:09Z</time>
      </trkpt>
      <trkpt lat="39.6654110" lon="-8.3747140">
        <ele>199.5</ele>
        <time>2015-03-21T09:08:20Z</time>
      </trkpt>
      <trkpt lat="39.6660080" lon="-8.3747420">
        <ele>199.5</ele>
        <time>2015-03-21T09:08:36Z</time>
      </trkpt>
      <trkpt lat="39.6665190" lon="-8.3746040">
        <ele>200.1</ele>
        <time>2015-03-21T09:08:52Z</time>
      </trkpt>
      <trkpt lat="39.6670210" lon="-8.3743860">
        <ele>199.7</ele>
        <time>2015-03-21T09:09:05Z</time>
      </trkpt>
      <trkpt lat="39.6673470" lon="-8.3743360">
        <ele>198.2</ele>
        <time>2015-03-21T09:09:10Z</time>
      </trkpt>
      <trkpt lat="39.6674250" lon="-8.3743360">
        <ele>197.7</ele>
        <time>2015-03-21T09:09:11Z</time>
      </trkpt>
      <trkpt lat="39.6677340" lon="-8.3744660">
        <ele>195.5</ele>
        <time>2015-03-21T09:09:15Z</time>
      </trkpt>
      <trkpt lat="39.6678960" lon="-8.3745860">
        <ele>193.9</ele>
        <time>2015-03-21T09:09:17Z</time>
      </trkpt>
      <trkpt lat="39.6683560" lon="-8.3745670">
        <ele>189.6</ele>
        <time>2015-03-21T09:09:24Z</time>
      </trkpt>
      <trkpt lat="39.6683850" lon="-8.3744060">
        <ele>188.3</ele>
        <time>2015-03-21T09:09:26Z</time>
      </trkpt>
      <trkpt lat="39.6684800" lon="-8.3739660">
        <ele>184.1</ele>
        <time>2015-03-21T09:09:31Z</time>
      </trkpt>
      <trkpt lat="39.6687260" lon="-8.3738870">
        <ele>180.7</ele>
        <time>2015-03-21T09:09:34Z</time>
      </trkpt>
      <trkpt lat="39.6689330" lon="-8.3739730">
        <ele>177.8</ele>
        <time>2015-03-21T09:09:36Z</time>
      </trkpt>
      <trkpt lat="39.6693650" lon="-8.3742630">
        <ele>172.8</ele>
        <time>2015-03-21T09:09:40Z</time>
      </trkpt>
      <trkpt lat="39.6695890" lon="-8.3744180">
        <ele>171.6</ele>
        <time>2015-03-21T09:09:43Z</time>
      </trkpt>
      <trkpt lat="39.6697090" lon="-8.3744850">
        <ele>171.6</ele>
        <time>2015-03-21T09:09:47Z</time>
      </trkpt>
      <trkpt lat="39.6698110" lon="-8.3745880">
        <ele>172.5</ele>
        <time>2015-03-21T09:09:56Z</time>
      </trkpt>
      <trkpt lat="39.6699740" lon="-8.3746710">
        <ele>175.7</ele>
        <time>2015-03-21T09:10:09Z</time>
      </trkpt>
      <trkpt lat="39.6701340" lon="-8.3747800">
        <ele>179.1</ele>
        <time>2015-03-21T09:10:23Z</time>
      </trkpt>
      <trkpt lat="39.6702910" lon="-8.3748820">
        <ele>182.3</ele>
        <time>2015-03-21T09:10:37Z</time>
      </trkpt>
      <trkpt lat="39.6704720" lon="-8.3750000">
        <ele>185.4</ele>
        <time>2015-03-21T09:10:53Z</time>
      </trkpt>
      <trkpt lat="39.6705470" lon="-8.3750190">
        <ele>186.5</ele>
        <time>2015-03-21T09:10:59Z</time>
      </trkpt>
      <trkpt lat="39.6706260" lon="-8.3750690">
        <ele>187.7</ele>
        <time>2015-03-21T09:11:06Z</time>
      </trkpt>
      <trkpt lat="39.6708390" lon="-8.3751430">
        <ele>190.9</ele>
        <time>2015-03-21T09:11:23Z</time>
      </trkpt>
      <trkpt lat="39.6710500" lon="-8.3752060">
        <ele>193.6</ele>
        <time>2015-03-21T09:11:40Z</time>
      </trkpt>
      <trkpt lat="39.6711370" lon="-8.3752280">
        <ele>194.8</ele>
        <time>2015-03-21T09:11:47Z</time>
      </trkpt>
      <trkpt lat="39.6713880" lon="-8.3752860">
        <ele>197.9</ele>
        <time>2015-03-21T09:12:06Z</time>
      </trkpt>
      <trkpt lat="39.6715890" lon="-8.3753420">
        <ele>200.7</ele>
        <time>2015-03-21T09:12:22Z</time>
      </trkpt>
      <trkpt lat="39.6718610" lon="-8.3754350">
        <ele>203.6</ele>
        <time>2015-03-21T09:12:41Z</time>
      </trkpt>
      <trkpt lat="39.6721230" lon="-8.3755260">
        <ele>205.6</ele>
        <time>2015-03-21T09:12:58Z</time>
      </trkpt>
      <trkpt lat="39.6725070" lon="-8.3756960">
        <ele>207.2</ele>
        <time>2015-03-21T09:13:20Z</time>
      </trkpt>
      <trkpt lat="39.6728800" lon="-8.3758960">
        <ele>209.6</ele>
        <time>2015-03-21T09:13:42Z</time>
      </trkpt>
      <trkpt lat="39.6731350" lon="-8.3760960">
        <ele>211.3</ele>
        <time>2015-03-21T09:13:57Z</time>
      </trkpt>
      <trkpt lat="39.6735390" lon="-8.3763770">
        <ele>211.3</ele>
        <time>2015-03-21T09:14:12Z</time>
      </trkpt>
      <trkpt lat="39.6740090" lon="-8.3765960">
        <ele>211.0</ele>
        <time>2015-03-21T09:14:29Z</time>
      </trkpt>
      <trkpt lat="39.6744410" lon="-8.3768240">
        <ele>212.5</ele>
        <time>2015-03-21T09:14:49Z</time>
      </trkpt>
      <trkpt lat="39.6744860" lon="-8.3768920">
        <ele>212.4</ele>
        <time>2015-03-21T09:14:51Z</time>
      </trkpt>
      <trkpt lat="39.6746580" lon="-8.3769550">
        <ele>210.1</ele>
        <time>2015-03-21T09:14:55Z</time>
      </trkpt>
      <trkpt lat="39.6747150" lon="-8.3769530">
        <ele>209.8</ele>
        <time>2015-03-21T09:14:56Z</time>
      </trkpt>
      <trkpt lat="39.6753960" lon="-8.3769650">
        <ele>207.0</ele>
        <time>2015-03-21T09:15:06Z</time>
      </trkpt>
      <trkpt lat="39.6761730" lon="-8.3770600">
        <ele>207.6</ele>
        <time>2015-03-21T09:15:20Z</time>
      </trkpt>
      <trkpt lat="39.6764690" lon="-8.3771400">
        <ele>208.4</ele>
        <time>2015-03-21T09:15:30Z</time>
      </trkpt>
      <trkpt lat="39.6767190" lon="-8.3772520">
        <ele>208.2</ele>
        <time>2015-03-21T09:15:38Z</time>
      </trkpt>
      <trkpt lat="39.6769340" lon="-8.3773140">
        <ele>207.0</ele>
        <time>2015-03-21T09:15:42Z</time>
      </trkpt>
      <trkpt lat="39.6771340" lon="-8.3771660">
        <ele>206.2</ele>
        <time>2015-03-21T09:15:48Z</time>
      </trkpt>
      <trkpt lat="39.6772710" lon="-8.3765820">
        <ele>207.7</ele>
        <time>2015-03-21T09:16:04Z</time>
      </trkpt>
      <trkpt lat="39.6774040" lon="-8.3760410">
        <ele>210.6</ele>
        <time>2015-03-21T09:16:23Z</time>
      </trkpt>
      <trkpt lat="39.6776260" lon="-8.3755340">
        <ele>212.5</ele>
        <time>2015-03-21T09:16:41Z</time>
      </trkpt>
      <trkpt lat="39.6778450" lon="-8.3752320">
        <ele>213.9</ele>
        <time>2015-03-21T09:16:55Z</time>
      </trkpt>
      <trkpt lat="39.6781560" lon="-8.3752290">
        <ele>214.1</ele>
        <time>2015-03-21T09:17:08Z</time>
      </trkpt>
      <trkpt lat="39.6785040" lon="-8.3748060">
        <ele>214.0</ele>
        <time>2015-03-21T09:17:22Z</time>
      </trkpt>
      <trkpt lat="39.6785590" lon="-8.3747250">
        <ele>213.9</ele>
        <time>2015-03-21T09:17:24Z</time>
      </trkpt>
      <trkpt lat="39.6787810" lon="-8.3746220">
        <ele>213.2</ele>
        <time>2015-03-21T09:17:29Z</time>
      </trkpt>
      <trkpt lat="39.6789960" lon="-8.3746070">
        <ele>211.8</ele>
        <time>2015-03-21T09:17:33Z</time>
      </trkpt>
      <trkpt lat="39.6793160" lon="-8.3746310">
        <ele>208.8</ele>
        <time>2015-03-21T09:17:39Z</time>
      </trkpt>
      <trkpt lat="39.6795440" lon="-8.3746510">
        <ele>206.7</ele>
        <time>2015-03-21T09:17:42Z</time>
      </trkpt>
      <trkpt lat="39.6798430" lon="-8.3746760">
        <ele>202.6</ele>
        <time>2015-03-21T09:17:45Z</time>
      </trkpt>
      <trkpt lat="39.6801660" lon="-8.3747350">
        <ele>197.6</ele>
        <time>2015-03-21T09:17:48Z</time>
      </trkpt>
      <trkpt lat="39.6804850" lon="-8.3748470">
        <ele>193.2</ele>
        <time>2015-03-21T09:17:51Z</time>
      </trkpt>
      <trkpt lat="39.6805870" lon="-8.3748690">
        <ele>192.3</ele>
        <time>2015-03-21T09:17:52Z</time>
      </trkpt>
      <trkpt lat="39.6809110" lon="-8.3748320">
        <ele>188.5</ele>
        <time>2015-03-21T09:17:55Z</time>
      </trkpt>
      <trkpt lat="39.6810280" lon="-8.3747660">
        <ele>187.2</ele>
        <time>2015-03-21T09:17:56Z</time>
      </trkpt>
      <trkpt lat="39.6816450" lon="-8.3746050">
        <ele>183.8</ele>
        <time>2015-03-21T09:18:02Z</time>
      </trkpt>
      <trkpt lat="39.6821340" lon="-8.3747070">
        <ele>182.7</ele>
        <time>2015-03-21T09:18:07Z</time>
      </trkpt>
      <trkpt lat="39.6825300" lon="-8.3747300">
        <ele>180.3</ele>
        <time>2015-03-21T09:18:11Z</time>
      </trkpt>
      <trkpt lat="39.6828820" lon="-8.3745570">
        <ele>176.1</ele>
        <time>2015-03-21T09:18:16Z</time>
      </trkpt>
      <trkpt lat="39.6831810" lon="-8.3742320">
        <ele>171.9</ele>
        <time>2015-03-21T09:18:20Z</time>
      </trkpt>
      <trkpt lat="39.6833640" lon="-8.3740760">
        <ele>168.8</ele>
        <time>2015-03-21T09:18:22Z</time>
      </trkpt>
      <trkpt lat="39.6837030" lon="-8.3739210">
        <ele>163.0</ele>
        <time>2015-03-21T09:18:25Z</time>
      </trkpt>
      <trkpt lat="39.6840940" lon="-8.3738090">
        <ele>156.6</ele>
        <time>2015-03-21T09:18:28Z</time>
      </trkpt>
      <trkpt lat="39.6844950" lon="-8.3736930">
        <ele>151.4</ele>
        <time>2015-03-21T09:18:31Z</time>
      </trkpt>
      <trkpt lat="39.6850630" lon="-8.3735620">
        <ele>148.2</ele>
        <time>2015-03-21T09:18:36Z</time>
      </trkpt>
      <trkpt lat="39.6853550" lon="-8.3733840">
        <ele>151.9</ele>
        <time>2015-03-21T09:18:42Z</time>
      </trkpt>
      <trkpt lat="39.6855060" lon="-8.3732100">
        <ele>153.8</ele>
        <time>2015-03-21T09:18:55Z</time>
      </trkpt>
      <trkpt lat="39.6857320" lon="-8.3730470">
        <ele>155.9</ele>
        <time>2015-03-21T09:19:11Z</time>
      </trkpt>
      <trkpt lat="39.6859640" lon="-8.3730850">
        <ele>157.2</ele>
        <time>2015-03-21T09:19:26Z</time>
      </trkpt>
      <trkpt lat="39.6861990" lon="-8.3730290">
        <ele>158.2</ele>
        <time>2015-03-21T09:19:39Z</time>
      </trkpt>
      <trkpt lat="39.6865350" lon="-8.3729520">
        <ele>158.9</ele>
        <time>2015-03-21T09:19:55Z</time>
      </trkpt>
      <trkpt lat="39.6867370" lon="-8.3729130">
        <ele>159.1</ele>
        <time>2015-03-21T09:20:07Z</time>
      </trkpt>
      <trkpt lat="39.6867260" lon="-8.3728140">
        <ele>159.3</ele>
        <time>2015-03-21T09:20:13Z</time>
      </trkpt>
      <trkpt lat="39.6866450" lon="-8.3724700">
        <ele>164.0</ele>
        <time>2015-03-21T09:20:29Z</time>
      </trkpt>
      <trkpt lat="39.6866000" lon="-8.3720200">
        <ele>166.5</ele>
        <time>2015-03-21T09:20:48Z</time>
      </trkpt>
      <trkpt lat="39.6865600" lon="-8.3718900">
        <ele>167.5</ele>
        <time>2015-03-21T09:20:54Z</time>
      </trkpt>
      <trkpt lat="39.6866490" lon="-8.3718130">
        <ele>168.4</ele>
        <time>2015-03-21T09:21:01Z</time>
      </trkpt>
      <trkpt lat="39.6869910" lon="-8.3717670">
        <ele>169.0</ele>
        <time>2015-03-21T09:21:18Z</time>
      </trkpt>
      <trkpt lat="39.6872840" lon="-8.3716530">
        <ele>166.3</ele>
        <time>2015-03-21T09:21:25Z</time>
      </trkpt>
      <trkpt lat="39.6874970" lon="-8.3715660">
        <ele>163.4</ele>
        <time>2015-03-21T09:21:28Z</time>
      </trkpt>
      <trkpt lat="39.6875800" lon="-8.3715300">
        <ele>162.1</ele>
        <time>2015-03-21T09:21:29Z</time>
      </trkpt>
      <trkpt lat="39.6878600" lon="-8.3712830">
        <ele>157.5</ele>
        <time>2015-03-21T09:21:33Z</time>
      </trkpt>
      <trkpt lat="39.6880600" lon="-8.3710100">
        <ele>155.1</ele>
        <time>2015-03-21T09:21:36Z</time>
      </trkpt>
      <trkpt lat="39.6883210" lon="-8.3706820">
        <ele>153.9</ele>
        <time>2015-03-21T09:21:40Z</time>
      </trkpt>
      <trkpt lat="39.6884620" lon="-8.3701790">
        <ele>153.1</ele>
        <time>2015-03-21T09:21:45Z</time>
      </trkpt>
      <trkpt lat="39.6885060" lon="-8.3688850">
        <ele>151.5</ele>
        <time>2015-03-21T09:21:59Z</time>
      </trkpt>
      <trkpt lat="39.6885460" lon="-8.3686340">
        <ele>152.3</ele>
        <time>2015-03-21T09:22:04Z</time>
      </trkpt>
      <trkpt lat="39.6887790" lon="-8.3680700">
        <ele>152.3</ele>
        <time>2015-03-21T09:22:14Z</time>
      </trkpt>
      <trkpt lat="39.6888380" lon="-8.3675860">
        <ele>151.8</ele>
        <time>2015-03-21T09:22:22Z</time>
      </trkpt>
      <trkpt lat="39.6888490" lon="-8.3674920">
        <ele>152.4</ele>
        <time>2015-03-21T09:22:25Z</time>
      </trkpt>
      <trkpt lat="39.6889080" lon="-8.3670270">
        <ele>156.9</ele>
        <time>2015-03-21T09:22:43Z</time>
      </trkpt>
      <trkpt lat="39.6890030" lon="-8.3666080">
        <ele>159.5</ele>
        <time>2015-03-21T09:23:00Z</time>
      </trkpt>
      <trkpt lat="39.6892820" lon="-8.3661220">
        <ele>158.9</ele>
        <time>2015-03-21T09:23:15Z</time>
      </trkpt>
      <trkpt lat="39.6895330" lon="-8.3659220">
        <ele>155.9</ele>
        <time>2015-03-21T09:23:19Z</time>
      </trkpt>
      <trkpt lat="39.6902810" lon="-8.3653290">
        <ele>154.7</ele>
        <time>2015-03-21T09:23:32Z</time>
      </trkpt>
      <trkpt lat="39.6907090" lon="-8.3651350">
        <ele>155.7</ele>
        <time>2015-03-21T09:23:42Z</time>
      </trkpt>
      <trkpt lat="39.6910060" lon="-8.3647260">
        <ele>156.8</ele>
        <time>2015-03-21T09:23:55Z</time>
      </trkpt>
      <trkpt lat="39.6911550" lon="-8.3644180">
        <ele>159.8</ele>
        <time>2015-03-21T09:24:11Z</time>
      </trkpt>
      <trkpt lat="39.6911090" lon="-8.3641870">
        <ele>162.0</ele>
        <time>2015-03-21T09:24:24Z</time>
      </trkpt>
      <trkpt lat="39.6909710" lon="-8.3638630">
        <ele>165.1</ele>
        <time>2015-03-21T09:24:43Z</time>
      </trkpt>
      <trkpt lat="39.6908820" lon="-8.3635460">
        <ele>167.3</ele>
        <time>2015-03-21T09:25:01Z</time>
      </trkpt>
      <trkpt lat="39.6907430" lon="-8.3632020">
        <ele>169.6</ele>
        <time>2015-03-21T09:25:20Z</time>
      </trkpt>
      <trkpt lat="39.6906380" lon="-8.3628270">
        <ele>171.2</ele>
        <time>2015-03-21T09:25:40Z</time>
      </trkpt>
      <trkpt lat="39.6905440" lon="-8.3624540">
        <ele>173.0</ele>
        <time>2015-03-21T09:25:59Z</time>
      </trkpt>
      <trkpt lat="39.6904540" lon="-8.3620820">
        <ele>174.4</ele>
        <time>2015-03-21T09:26:17Z</time>
      </trkpt>
      <trkpt lat="39.6903890" lon="-8.3616940">
        <ele>174.7</ele>
        <time>2015-03-21T09:26:34Z</time>
      </trkpt>
      <trkpt lat="39.6903680" lon="-8.3614380">
        <ele>173.9</ele>
        <time>2015-03-21T09:26:40Z</time>
      </trkpt>
      <trkpt lat="39.6905110" lon="-8.3611270">
        <ele>173.4</ele>
        <time>2015-03-21T09:26:45Z</time>
      </trkpt>
      <trkpt lat="39.6907380" lon="-8.3610410">
        <ele>173.2</ele>
        <time>2015-03-21T09:26:48Z</time>
      </trkpt>
      <trkpt lat="39.6909540" lon="-8.3609820">
        <ele>172.3</ele>
        <time>2015-03-21T09:26:51Z</time>
      </trkpt>
      <trkpt lat="39.6914950" lon="-8.3610030">
        <ele>169.5</ele>
        <time>2015-03-21T09:26:58Z</time>
      </trkpt>
      <trkpt lat="39.6917670" lon="-8.3610010">
        <ele>168.9</ele>
        <time>2015-03-21T09:27:01Z</time>
      </trkpt>
      <trkpt lat="39.6920930" lon="-8.3608340">
        <ele>168.2</ele>
        <time>2015-03-21T09:27:05Z</time>
      </trkpt>
      <trkpt lat="39.6926500" lon="-8.3603830">
        <ele>162.6</ele>
        <time>2015-03-21T09:27:15Z</time>
      </trkpt>
      <trkpt lat="39.6927280" lon="-8.3603500">
        <ele>162.5</ele>
        <time>2015-03-21T09:27:17Z</time>
      </trkpt>
      <trkpt lat="39.6929640" lon="-8.3602860">
        <ele>163.2</ele>
        <time>2015-03-21T09:27:28Z</time>
      </trkpt>
      <trkpt lat="39.6930080" lon="-8.3601370">
        <ele>165.0</ele>
        <time>2015-03-21T09:27:36Z</time>
      </trkpt>
      <trkpt lat="39.6930990" lon="-8.3602020">
        <ele>165.7</ele>
        <time>2015-03-21T09:27:47Z</time>
      </trkpt>
      <trkpt lat="39.6933730" lon="-8.3602500">
        <ele>166.6</ele>
        <time>2015-03-21T09:28:04Z</time>
      </trkpt>
      <trkpt lat="39.6938090" lon="-8.3602520">
        <ele>165.6</ele>
        <time>2015-03-21T09:28:21Z</time>
      </trkpt>
      <trkpt lat="39.6939070" lon="-8.3602070">
        <ele>165.3</ele>
        <time>2015-03-21T09:28:24Z</time>
      </trkpt>
      <trkpt lat="39.6940020" lon="-8.3601070">
        <ele>165.6</ele>
        <time>2015-03-21T09:28:27Z</time>
      </trkpt>
      <trkpt lat="39.6940300" lon="-8.3600080">
        <ele>165.9</ele>
        <time>2015-03-21T09:28:29Z</time>
      </trkpt>
      <trkpt lat="39.6940770" lon="-8.3598290">
        <ele>166.6</ele>
        <time>2015-03-21T09:28:33Z</time>
      </trkpt>
      <trkpt lat="39.6944230" lon="-8.3597280">
        <ele>164.3</ele>
        <time>2015-03-21T09:28:45Z</time>
      </trkpt>
      <trkpt lat="39.6950560" lon="-8.3595170">
        <ele>160.7</ele>
        <time>2015-03-21T09:28:58Z</time>
      </trkpt>
      <trkpt lat="39.6954620" lon="-8.3593800">
        <ele>160.1</ele>
        <time>2015-03-21T09:29:09Z</time>
      </trkpt>
      <trkpt lat="39.6957160" lon="-8.3592890">
        <ele>159.9</ele>
        <time>2015-03-21T09:29:22Z</time>
      </trkpt>
      <trkpt lat="39.6957700" lon="-8.3592410">
        <ele>159.9</ele>
        <time>2015-03-21T09:29:26Z</time>
      </trkpt>
      <trkpt lat="39.6957820" lon="-8.3591710">
        <ele>159.9</ele>
        <time>2015-03-21T09:29:34Z</time>
      </trkpt>
      <trkpt lat="39.6958770" lon="-8.3591020">
        <ele>159.8</ele>
        <time>2015-03-21T09:29:40Z</time>
      </trkpt>
      <trkpt lat="39.6961820" lon="-8.3591080">
        <ele>159.6</ele>
        <time>2015-03-21T09:29:54Z</time>
      </trkpt>
      <trkpt lat="39.6964690" lon="-8.3591430">
        <ele>159.3</ele>
        <time>2015-03-21T09:30:03Z</time>
      </trkpt>
      <trkpt lat="39.6971310" lon="-8.3589680">
        <ele>159.4</ele>
        <time>2015-03-21T09:30:16Z</time>
      </trkpt>
      <trkpt lat="39.6973280" lon="-8.3591520">
        <ele>160.4</ele>
        <time>2015-03-21T09:30:25Z</time>
      </trkpt>
      <trkpt lat="39.6977980" lon="-8.3589750">
        <ele>162.4</ele>
        <time>2015-03-21T09:30:40Z</time>
      </trkpt>
      <trkpt lat="39.6983650" lon="-8.3589860">
        <ele>165.7</ele>
        <time>2015-03-21T09:30:56Z</time>
      </trkpt>
      <trkpt lat="39.6988670" lon="-8.3590540">
        <ele>169.3</ele>
        <time>2015-03-21T09:31:12Z</time>
      </trkpt>
      <trkpt lat="39.6991540" lon="-8.3590950">
        <ele>172.3</ele>
        <time>2015-03-21T09:31:25Z</time>
      </trkpt>
      <trkpt lat="39.6992840" lon="-8.3588010">
        <ele>174.1</ele>
        <time>2015-03-21T09:31:41Z</time>
      </trkpt>
      <trkpt lat="39.6993090" lon="-8.3585030">
        <ele>176.2</ele>
        <time>2015-03-21T09:31:57Z</time>
      </trkpt>
      <trkpt lat="39.6993370" lon="-8.3582290">
        <ele>177.9</ele>
        <time>2015-03-21T09:32:11Z</time>
      </trkpt>
      <trkpt lat="39.6993430" lon="-8.3578640">
        <ele>179.2</ele>
        <time>2015-03-21T09:32:28Z</time>
      </trkpt>
      <trkpt lat="39.6993500" lon="-8.3574220">
        <ele>179.8</ele>
        <time>2015-03-21T09:32:44Z</time>
      </trkpt>
      <trkpt lat="39.6993670" lon="-8.3570290">
        <ele>180.0</ele>
        <time>2015-03-21T09:32:59Z</time>
      </trkpt>
      <trkpt lat="39.6993810" lon="-8.3566810">
        <ele>180.2</ele>
        <time>2015-03-21T09:33:13Z</time>
      </trkpt>
      <trkpt lat="39.6995050" lon="-8.3563770">
        <ele>181.0</ele>
        <time>2015-03-21T09:33:29Z</time>
      </trkpt>
      <trkpt lat="39.6995590" lon="-8.3563380">
        <ele>181.3</ele>
        <time>2015-03-21T09:33:40Z</time>
      </trkpt>
      <trkpt lat="39.6996680" lon="-8.3562730">
        <ele>185.0</ele>
        <time>2015-03-21T09:33:55Z</time>
      </trkpt>
      <trkpt lat="39.6997610" lon="-8.3563030">
        <ele>186.4</ele>
        <time>2015-03-21T09:34:11Z</time>
      </trkpt>
      <trkpt lat="39.6997990" lon="-8.3563980">
        <ele>187.8</ele>
        <time>2015-03-21T09:34:26Z</time>
      </trkpt>
      <trkpt lat="39.6997810" lon="-8.3565150">
        <ele>189.3</ele>
        <time>2015-03-21T09:34:42Z</time>
      </trkpt>
      <trkpt lat="39.6997660" lon="-8.3566240">
        <ele>190.7</ele>
        <time>2015-03-21T09:34:51Z</time>
      </trkpt>
      <trkpt lat="39.6998560" lon="-8.3567480">
        <ele>192.8</ele>
        <time>2015-03-21T09:35:07Z</time>
      </trkpt>
      <trkpt lat="39.6999500" lon="-8.3568260">
        <ele>194.4</ele>
        <time>2015-03-21T09:35:23Z</time>
      </trkpt>
      <trkpt lat="39.7000510" lon="-8.3569490">
        <ele>196.1</ele>
        <time>2015-03-21T09:35:36Z</time>
      </trkpt>
      <trkpt lat="39.7001000" lon="-8.3569560">
        <ele>196.6</ele>
        <time>2015-03-21T09:35:41Z</time>
      </trkpt>
      <trkpt lat="39.7001570" lon="-8.3568430">
        <ele>197.8</ele>
        <time>2015-03-21T09:35:56Z</time>
      </trkpt>
      <trkpt lat="39.7001750" lon="-8.3566860">
        <ele>199.5</ele>
        <time>2015-03-21T09:36:09Z</time>
      </trkpt>
      <trkpt lat="39.7002640" lon="-8.3564980">
        <ele>202.3</ele>
        <time>2015-03-21T09:36:28Z</time>
      </trkpt>
      <trkpt lat="39.7003160" lon="-8.3563190">
        <ele>204.6</ele>
        <time>2015-03-21T09:36:46Z</time>
      </trkpt>
      <trkpt lat="39.7003740" lon="-8.3561710">
        <ele>206.6</ele>
        <time>2015-03-21T09:37:02Z</time>
      </trkpt>
      <trkpt lat="39.7004300" lon="-8.3560190">
        <ele>208.8</ele>
        <time>2015-03-21T09:37:20Z</time>
      </trkpt>
      <trkpt lat="39.7004770" lon="-8.3558720">
        <ele>210.7</ele>
        <time>2015-03-21T09:37:39Z</time>
      </trkpt>
      <trkpt lat="39.7006300" lon="-8.3558430">
        <ele>213.2</ele>
        <time>2015-03-21T09:37:59Z</time>
      </trkpt>
      <trkpt lat="39.7007510" lon="-8.3558580">
        <ele>215.2</ele>
        <time>2015-03-21T09:38:14Z</time>
      </trkpt>
      <trkpt lat="39.7008820" lon="-8.3557250">
        <ele>216.6</ele>
        <time>2015-03-21T09:38:35Z</time>
      </trkpt>
      <trkpt lat="39.7008740" lon="-8.3556550">
        <ele>216.9</ele>
        <time>2015-03-21T09:38:42Z</time>
      </trkpt>
      <trkpt lat="39.7008510" lon="-8.3555940">
        <ele>217.3</ele>
        <time>2015-03-21T09:38:48Z</time>
      </trkpt>
      <trkpt lat="39.7006870" lon="-8.3553880">
        <ele>217.8</ele>
        <time>2015-03-21T09:39:07Z</time>
      </trkpt>
      <trkpt lat="39.7005170" lon="-8.3550910">
        <ele>218.4</ele>
        <time>2015-03-21T09:39:30Z</time>
      </trkpt>
      <trkpt lat="39.7004260" lon="-8.3549130">
        <ele>219.8</ele>
        <time>2015-03-21T09:39:48Z</time>
      </trkpt>
      <trkpt lat="39.7003340" lon="-8.3547720">
        <ele>221.6</ele>
        <time>2015-03-21T09:40:05Z</time>
      </trkpt>
      <trkpt lat="39.7002210" lon="-8.3546080">
        <ele>222.7</ele>
        <time>2015-03-21T09:40:21Z</time>
      </trkpt>
      <trkpt lat="39.7001590" lon="-8.3544700">
        <ele>223.1</ele>
        <time>2015-03-21T09:40:32Z</time>
      </trkpt>
      <trkpt lat="39.7001010" lon="-8.3541970">
        <ele>223.7</ele>
        <time>2015-03-21T09:40:45Z</time>
      </trkpt>
      <trkpt lat="39.6999660" lon="-8.3538760">
        <ele>225.0</ele>
        <time>2015-03-21T09:41:05Z</time>
      </trkpt>
      <trkpt lat="39.6999670" lon="-8.3535340">
        <ele>227.2</ele>
        <time>2015-03-21T09:41:24Z</time>
      </trkpt>
      <trkpt lat="39.7000250" lon="-8.3534160">
        <ele>228.8</ele>
        <time>2015-03-21T09:41:32Z</time>
      </trkpt>
      <trkpt lat="39.7001040" lon="-8.3533760">
        <ele>230.4</ele>
        <time>2015-03-21T09:41:45Z</time>
      </trkpt>
      <trkpt lat="39.7002500" lon="-8.3533850">
        <ele>233.3</ele>
        <time>2015-03-21T09:42:02Z</time>
      </trkpt>
      <trkpt lat="39.7003200" lon="-8.3534000">
        <ele>234.5</ele>
        <time>2015-03-21T09:42:16Z</time>
      </trkpt>
      <trkpt lat="39.7004370" lon="-8.3533880">
        <ele>236.7</ele>
        <time>2015-03-21T09:42:31Z</time>
      </trkpt>
      <trkpt lat="39.7005750" lon="-8.3534080">
        <ele>239.0</ele>
        <time>2015-03-21T09:42:47Z</time>
      </trkpt>
      <trkpt lat="39.7007000" lon="-8.3534170">
        <ele>240.8</ele>
        <time>2015-03-21T09:43:01Z</time>
      </trkpt>
      <trkpt lat="39.7008450" lon="-8.3534170">
        <ele>242.9</ele>
        <time>2015-03-21T09:43:15Z</time>
      </trkpt>
      <trkpt lat="39.7009920" lon="-8.3534330">
        <ele>245.1</ele>
        <time>2015-03-21T09:43:30Z</time>
      </trkpt>
      <trkpt lat="39.7011360" lon="-8.3534370">
        <ele>247.1</ele>
        <time>2015-03-21T09:43:47Z</time>
      </trkpt>
      <trkpt lat="39.7012770" lon="-8.3534300">
        <ele>249.0</ele>
        <time>2015-03-21T09:44:02Z</time>
      </trkpt>
      <trkpt lat="39.7014320" lon="-8.3533890">
        <ele>251.0</ele>
        <time>2015-03-21T09:44:18Z</time>
      </trkpt>
      <trkpt lat="39.7015450" lon="-8.3533670">
        <ele>252.1</ele>
        <time>2015-03-21T09:44:33Z</time>
      </trkpt>
      <trkpt lat="39.7016920" lon="-8.3533340">
        <ele>254.0</ele>
        <time>2015-03-21T09:44:45Z</time>
      </trkpt>
      <trkpt lat="39.7018470" lon="-8.3533000">
        <ele>256.0</ele>
        <time>2015-03-21T09:44:57Z</time>
      </trkpt>
      <trkpt lat="39.7019720" lon="-8.3532680">
        <ele>258.0</ele>
        <time>2015-03-21T09:45:07Z</time>
      </trkpt>
      <trkpt lat="39.7021710" lon="-8.3532660">
        <ele>260.2</ele>
        <time>2015-03-21T09:45:23Z</time>
      </trkpt>
      <trkpt lat="39.7024260" lon="-8.3532730">
        <ele>262.0</ele>
        <time>2015-03-21T09:45:39Z</time>
      </trkpt>
      <trkpt lat="39.7024990" lon="-8.3535700">
        <ele>263.2</ele>
        <time>2015-03-21T09:45:49Z</time>
      </trkpt>
      <trkpt lat="39.7025070" lon="-8.3536530">
        <ele>263.2</ele>
        <time>2015-03-21T09:45:51Z</time>
      </trkpt>
      <trkpt lat="39.7026390" lon="-8.3542160">
        <ele>259.8</ele>
        <time>2015-03-21T09:46:05Z</time>
      </trkpt>
      <trkpt lat="39.7029170" lon="-8.3547370">
        <ele>255.0</ele>
        <time>2015-03-21T09:46:19Z</time>
      </trkpt>
      <trkpt lat="39.7031510" lon="-8.3548420">
        <ele>254.8</ele>
        <time>2015-03-21T09:46:32Z</time>
      </trkpt>
      <trkpt lat="39.7034010" lon="-8.3548210">
        <ele>256.7</ele>
        <time>2015-03-21T09:46:46Z</time>
      </trkpt>
      <trkpt lat="39.7037280" lon="-8.3548380">
        <ele>257.4</ele>
        <time>2015-03-21T09:47:01Z</time>
      </trkpt>
      <trkpt lat="39.7037970" lon="-8.3548880">
        <ele>256.1</ele>
        <time>2015-03-21T09:47:03Z</time>
      </trkpt>
      <trkpt lat="39.7039630" lon="-8.3549380">
        <ele>255.5</ele>
        <time>2015-03-21T09:47:07Z</time>
      </trkpt>
      <trkpt lat="39.7042520" lon="-8.3550430">
        <ele>253.3</ele>
        <time>2015-03-21T09:47:14Z</time>
      </trkpt>
      <trkpt lat="39.7043750" lon="-8.3552240">
        <ele>250.5</ele>
        <time>2015-03-21T09:47:17Z</time>
      </trkpt>
      <trkpt lat="39.7044710" lon="-8.3553130">
        <ele>248.3</ele>
        <time>2015-03-21T09:47:19Z</time>
      </trkpt>
      <trkpt lat="39.7046680" lon="-8.3553310">
        <ele>247.2</ele>
        <time>2015-03-21T09:47:22Z</time>
      </trkpt>
      <trkpt lat="39.7055860" lon="-8.3554390">
        <ele>243.4</ele>
        <time>2015-03-21T09:47:37Z</time>
      </trkpt>
      <trkpt lat="39.7056730" lon="-8.3554680">
        <ele>243.5</ele>
        <time>2015-03-21T09:47:39Z</time>
      </trkpt>
      <trkpt lat="39.7061070" lon="-8.3555850">
        <ele>245.4</ele>
        <time>2015-03-21T09:47:49Z</time>
      </trkpt>
      <trkpt lat="39.7067790" lon="-8.3555770">
        <ele>249.3</ele>
        <time>2015-03-21T09:48:06Z</time>
      </trkpt>
      <trkpt lat="39.7071620" lon="-8.3560070">
        <ele>248.4</ele>
        <time>2015-03-21T09:48:18Z</time>
      </trkpt>
      <trkpt lat="39.7072000" lon="-8.3560430">
        <ele>248.3</ele>
        <time>2015-03-21T09:48:19Z</time>
      </trkpt>
      <trkpt lat="39.7078630" lon="-8.3562270">
        <ele>247.4</ele>
        <time>2015-03-21T09:48:35Z</time>
      </trkpt>
      <trkpt lat="39.7084360" lon="-8.3562290">
        <ele>246.9</ele>
        <time>2015-03-21T09:48:49Z</time>
      </trkpt>
      <trkpt lat="39.7086520" lon="-8.3562810">
        <ele>244.4</ele>
        <time>2015-03-21T09:48:52Z</time>
      </trkpt>
      <trkpt lat="39.7092420" lon="-8.3565540">
        <ele>241.6</ele>
        <time>2015-03-21T09:49:01Z</time>
      </trkpt>
      <trkpt lat="39.7095610" lon="-8.3566260">
        <ele>242.0</ele>
        <time>2015-03-21T09:49:09Z</time>
      </trkpt>
      <trkpt lat="39.7099240" lon="-8.3569090">
        <ele>237.0</ele>
        <time>2015-03-21T09:49:15Z</time>
      </trkpt>
      <trkpt lat="39.7101430" lon="-8.3569650">
        <ele>235.0</ele>
        <time>2015-03-21T09:49:18Z</time>
      </trkpt>
      <trkpt lat="39.7102760" lon="-8.3570000">
        <ele>234.2</ele>
        <time>2015-03-21T09:49:20Z</time>
      </trkpt>
      <trkpt lat="39.7104450" lon="-8.3570600">
        <ele>231.5</ele>
        <time>2015-03-21T09:49:23Z</time>
      </trkpt>
      <trkpt lat="39.7107730" lon="-8.3570870">
        <ele>230.9</ele>
        <time>2015-03-21T09:49:31Z</time>
      </trkpt>
      <trkpt lat="39.7113530" lon="-8.3572850">
        <ele>230.3</ele>
        <time>2015-03-21T09:49:46Z</time>
      </trkpt>
      <trkpt lat="39.7118450" lon="-8.3575610">
        <ele>228.5</ele>
        <time>2015-03-21T09:49:58Z</time>
      </trkpt>
      <trkpt lat="39.7119800" lon="-8.3576440">
        <ele>227.5</ele>
        <time>2015-03-21T09:50:00Z</time>
      </trkpt>
      <trkpt lat="39.7124140" lon="-8.3578790">
        <ele>225.5</ele>
        <time>2015-03-21T09:50:06Z</time>
      </trkpt>
      <trkpt lat="39.7131760" lon="-8.3580660">
        <ele>224.0</ele>
        <time>2015-03-21T09:50:17Z</time>
      </trkpt>
      <trkpt lat="39.7139890" lon="-8.3580880">
        <ele>220.9</ele>
        <time>2015-03-21T09:50:30Z</time>
      </trkpt>
      <trkpt lat="39.7144340" lon="-8.3581640">
        <ele>218.9</ele>
        <time>2015-03-21T09:50:36Z</time>
      </trkpt>
      <trkpt lat="39.7151060" lon="-8.3581160">
        <ele>220.5</ele>
        <time>2015-03-21T09:50:48Z</time>
      </trkpt>
      <trkpt lat="39.7151750" lon="-8.3581200">
        <ele>220.8</ele>
        <time>2015-03-21T09:50:50Z</time>
      </trkpt>
      <trkpt lat="39.7158240" lon="-8.3581900">
        <ele>221.0</ele>
        <time>2015-03-21T09:51:07Z</time>
      </trkpt>
      <trkpt lat="39.7159180" lon="-8.3582150">
        <ele>220.8</ele>
        <time>2015-03-21T09:51:09Z</time>
      </trkpt>
      <trkpt lat="39.7160150" lon="-8.3582480">
        <ele>220.5</ele>
        <time>2015-03-21T09:51:11Z</time>
      </trkpt>
      <trkpt lat="39.7168160" lon="-8.3585600">
        <ele>218.1</ele>
        <time>2015-03-21T09:51:28Z</time>
      </trkpt>
      <trkpt lat="39.7175740" lon="-8.3589320">
        <ele>215.2</ele>
        <time>2015-03-21T09:51:41Z</time>
      </trkpt>
      <trkpt lat="39.7182660" lon="-8.3593080">
        <ele>213.4</ele>
        <time>2015-03-21T09:51:53Z</time>
      </trkpt>
      <trkpt lat="39.7188680" lon="-8.3592970">
        <ele>215.9</ele>
        <time>2015-03-21T09:52:08Z</time>
      </trkpt>
      <trkpt lat="39.7193820" lon="-8.3592530">
        <ele>217.3</ele>
        <time>2015-03-21T09:52:23Z</time>
      </trkpt>
      <trkpt lat="39.7199940" lon="-8.3593270">
        <ele>219.6</ele>
        <time>2015-03-21T09:52:41Z</time>
      </trkpt>
      <trkpt lat="39.7202670" lon="-8.3593700">
        <ele>219.5</ele>
        <time>2015-03-21T09:52:48Z</time>
      </trkpt>
      <trkpt lat="39.7204580" lon="-8.3594600">
        <ele>218.3</ele>
        <time>2015-03-21T09:52:52Z</time>
      </trkpt>
      <trkpt lat="39.7206600" lon="-8.3596460">
        <ele>216.7</ele>
        <time>2015-03-21T09:52:56Z</time>
      </trkpt>
      <trkpt lat="39.7210560" lon="-8.3598040">
        <ele>216.0</ele>
        <time>2015-03-21T09:53:03Z</time>
      </trkpt>
      <trkpt lat="39.7214830" lon="-8.3597470">
        <ele>217.7</ele>
        <time>2015-03-21T09:53:14Z</time>
      </trkpt>
      <trkpt lat="39.7218940" lon="-8.3600530">
        <ele>218.5</ele>
        <time>2015-03-21T09:53:26Z</time>
      </trkpt>
      <trkpt lat="39.7221830" lon="-8.3602740">
        <ele>217.6</ele>
        <time>2015-03-21T09:53:34Z</time>
      </trkpt>
      <trkpt lat="39.7228960" lon="-8.3605310">
        <ele>215.5</ele>
        <time>2015-03-21T09:53:49Z</time>
      </trkpt>
      <trkpt lat="39.7237620" lon="-8.3608360">
        <ele>214.1</ele>
        <time>2015-03-21T09:54:06Z</time>
      </trkpt>
      <trkpt lat="39.7244530" lon="-8.3609530">
        <ele>214.6</ele>
        <time>2015-03-21T09:54:23Z</time>
      </trkpt>
      <trkpt lat="39.7251050" lon="-8.3610640">
        <ele>215.2</ele>
        <time>2015-03-21T09:54:40Z</time>
      </trkpt>
      <trkpt lat="39.7253100" lon="-8.3611060">
        <ele>215.0</ele>
        <time>2015-03-21T09:54:45Z</time>
      </trkpt>
      <trkpt lat="39.7255140" lon="-8.3611900">
        <ele>215.2</ele>
        <time>2015-03-21T09:54:50Z</time>
      </trkpt>
      <trkpt lat="39.7262490" lon="-8.3615070">
        <ele>213.8</ele>
        <time>2015-03-21T09:55:08Z</time>
      </trkpt>
      <trkpt lat="39.7264820" lon="-8.3615490">
        <ele>213.9</ele>
        <time>2015-03-21T09:55:14Z</time>
      </trkpt>
      <trkpt lat="39.7271300" lon="-8.3615830">
        <ele>216.6</ele>
        <time>2015-03-21T09:55:29Z</time>
      </trkpt>
      <trkpt lat="39.7278700" lon="-8.3619530">
        <ele>215.1</ele>
        <time>2015-03-21T09:55:48Z</time>
      </trkpt>
      <trkpt lat="39.7279960" lon="-8.3619850">
        <ele>215.3</ele>
        <time>2015-03-21T09:55:51Z</time>
      </trkpt>
      <trkpt lat="39.7282430" lon="-8.3619560">
        <ele>216.1</ele>
        <time>2015-03-21T09:55:57Z</time>
      </trkpt>
      <trkpt lat="39.7289840" lon="-8.3619300">
        <ele>218.0</ele>
        <time>2015-03-21T09:56:16Z</time>
      </trkpt>
      <trkpt lat="39.7296420" lon="-8.3618780">
        <ele>217.4</ele>
        <time>2015-03-21T09:56:34Z</time>
      </trkpt>
      <trkpt lat="39.7297220" lon="-8.3618960">
        <ele>217.1</ele>
        <time>2015-03-21T09:56:36Z</time>
      </trkpt>
      <trkpt lat="39.7299300" lon="-8.3619510">
        <ele>217.2</ele>
        <time>2015-03-21T09:56:40Z</time>
      </trkpt>
      <trkpt lat="39.7303670" lon="-8.3618490">
        <ele>218.3</ele>
        <time>2015-03-21T09:56:51Z</time>
      </trkpt>
      <trkpt lat="39.7308330" lon="-8.3617390">
        <ele>220.3</ele>
        <time>2015-03-21T09:57:09Z</time>
      </trkpt>
      <trkpt lat="39.7313320" lon="-8.3614980">
        <ele>225.8</ele>
        <time>2015-03-21T09:57:30Z</time>
      </trkpt>
      <trkpt lat="39.7316890" lon="-8.3612940">
        <ele>228.7</ele>
        <time>2015-03-21T09:57:46Z</time>
      </trkpt>
      <trkpt lat="39.7320350" lon="-8.3610610">
        <ele>231.7</ele>
        <time>2015-03-21T09:58:03Z</time>
      </trkpt>
      <trkpt lat="39.7323040" lon="-8.3608240">
        <ele>233.6</ele>
        <time>2015-03-21T09:58:20Z</time>
      </trkpt>
      <trkpt lat="39.7325650" lon="-8.3605920">
        <ele>235.8</ele>
        <time>2015-03-21T09:58:36Z</time>
      </trkpt>
      <trkpt lat="39.7328370" lon="-8.3602700">
        <ele>238.4</ele>
        <time>2015-03-21T09:58:54Z</time>
      </trkpt>
      <trkpt lat="39.7330580" lon="-8.3599400">
        <ele>240.6</ele>
        <time>2015-03-21T09:59:12Z</time>
      </trkpt>
      <trkpt lat="39.7332810" lon="-8.3595370">
        <ele>243.1</ele>
        <time>2015-03-21T09:59:30Z</time>
      </trkpt>
      <trkpt lat="39.7334500" lon="-8.3592160">
        <ele>244.6</ele>
        <time>2015-03-21T09:59:45Z</time>
      </trkpt>
      <trkpt lat="39.7336750" lon="-8.3589220">
        <ele>246.7</ele>
        <time>2015-03-21T10:00:01Z</time>
      </trkpt>
      <trkpt lat="39.7339260" lon="-8.3587020">
        <ele>247.5</ele>
        <time>2015-03-21T10:00:13Z</time>
      </trkpt>
      <trkpt lat="39.7340940" lon="-8.3587540">
        <ele>246.9</ele>
        <time>2015-03-21T10:00:17Z</time>
      </trkpt>
      <trkpt lat="39.7341360" lon="-8.3588330">
        <ele>246.6</ele>
        <time>2015-03-21T10:00:19Z</time>
      </trkpt>
      <trkpt lat="39.7341750" lon="-8.3590160">
        <ele>245.9</ele>
        <time>2015-03-21T10:00:26Z</time>
      </trkpt>
      <trkpt lat="39.7342060" lon="-8.3594200">
        <ele>245.4</ele>
        <time>2015-03-21T10:00:45Z</time>
      </trkpt>
      <trkpt lat="39.7341510" lon="-8.3596500">
        <ele>245.4</ele>
        <time>2015-03-21T10:00:58Z</time>
      </trkpt>
      <trkpt lat="39.7341490" lon="-8.3597280">
        <ele>245.6</ele>
        <time>2015-03-21T10:01:02Z</time>
      </trkpt>
      <trkpt lat="39.7341160" lon="-8.3598550">
        <ele>246.2</ele>
        <time>2015-03-21T10:01:09Z</time>
      </trkpt>
      <trkpt lat="39.7341650" lon="-8.3601640">
        <ele>247.9</ele>
        <time>2015-03-21T10:01:25Z</time>
      </trkpt>
      <trkpt lat="39.7344520" lon="-8.3603940">
        <ele>250.5</ele>
        <time>2015-03-21T10:01:37Z</time>
      </trkpt>
      <trkpt lat="39.7348420" lon="-8.3604550">
        <ele>251.4</ele>
        <time>2015-03-21T10:01:49Z</time>
      </trkpt>
      <trkpt lat="39.7350640" lon="-8.3604480">
        <ele>251.7</ele>
        <time>2015-03-21T10:02:00Z</time>
      </trkpt>
      <trkpt lat="39.7353550" lon="-8.3604280">
        <ele>251.9</ele>
        <time>2015-03-21T10:02:13Z</time>
      </trkpt>
      <trkpt lat="39.7356280" lon="-8.3605300">
        <ele>252.2</ele>
        <time>2015-03-21T10:02:24Z</time>
      </trkpt>
      <trkpt lat="39.7361260" lon="-8.3606910">
        <ele>252.6</ele>
        <time>2015-03-21T10:02:39Z</time>
      </trkpt>
      <trkpt lat="39.7364440" lon="-8.3606580">
        <ele>252.8</ele>
        <time>2015-03-21T10:02:51Z</time>
      </trkpt>
      <trkpt lat="39.7367400" lon="-8.3606990">
        <ele>253.1</ele>
        <time>2015-03-21T10:03:04Z</time>
      </trkpt>
      <trkpt lat="39.7370240" lon="-8.3606860">
        <ele>253.3</ele>
        <time>2015-03-21T10:03:17Z</time>
      </trkpt>
      <trkpt lat="39.7373390" lon="-8.3607610">
        <ele>253.7</ele>
        <time>2015-03-21T10:03:31Z</time>
      </trkpt>
      <trkpt lat="39.7376850" lon="-8.3608240">
        <ele>255.3</ele>
        <time>2015-03-21T10:03:46Z</time>
      </trkpt>
      <trkpt lat="39.7380700" lon="-8.3607620">
        <ele>256.0</ele>
        <time>2015-03-21T10:03:59Z</time>
      </trkpt>
      <trkpt lat="39.7381320" lon="-8.3607580">
        <ele>256.1</ele>
        <time>2015-03-21T10:04:01Z</time>
      </trkpt>
      <trkpt lat="39.7385210" lon="-8.3607960">
        <ele>256.6</ele>
        <time>2015-03-21T10:04:16Z</time>
      </trkpt>
      <trkpt lat="39.7387070" lon="-8.3608210">
        <ele>257.0</ele>
        <time>2015-03-21T10:04:26Z</time>
      </trkpt>
      <trkpt lat="39.7388530" lon="-8.3608540">
        <ele>257.7</ele>
        <time>2015-03-21T10:04:35Z</time>
      </trkpt>
      <trkpt lat="39.7389220" lon="-8.3608800">
        <ele>258.3</ele>
        <time>2015-03-21T10:04:39Z</time>
      </trkpt>
      <trkpt lat="39.7392090" lon="-8.3609490">
        <ele>260.3</ele>
        <time>2015-03-21T10:04:53Z</time>
      </trkpt>
      <trkpt lat="39.7394890" lon="-8.3609970">
        <ele>261.1</ele>
        <time>2015-03-21T10:05:05Z</time>
      </trkpt>
      <trkpt lat="39.7399000" lon="-8.3611360">
        <ele>261.6</ele>
        <time>2015-03-21T10:05:18Z</time>
      </trkpt>
      <trkpt lat="39.7402170" lon="-8.3611600">
        <ele>261.8</ele>
        <time>2015-03-21T10:05:29Z</time>
      </trkpt>
      <trkpt lat="39.7403040" lon="-8.3611690">
        <ele>261.9</ele>
        <time>2015-03-21T10:05:33Z</time>
      </trkpt>
      <trkpt lat="39.7406670" lon="-8.3612120">
        <ele>262.3</ele>
        <time>2015-03-21T10:05:48Z</time>
      </trkpt>
      <trkpt lat="39.7409610" lon="-8.3612510">
        <ele>262.8</ele>
        <time>2015-03-21T10:06:01Z</time>
      </trkpt>
      <trkpt lat="39.7412460" lon="-8.3613100">
        <ele>264.6</ele>
        <time>2015-03-21T10:06:16Z</time>
      </trkpt>
      <trkpt lat="39.7415690" lon="-8.3613210">
        <ele>267.5</ele>
        <time>2015-03-21T10:06:35Z</time>
      </trkpt>
      <trkpt lat="39.7417760" lon="-8.3613110">
        <ele>269.7</ele>
        <time>2015-03-21T10:06:49Z</time>
      </trkpt>
      <trkpt lat="39.7420080" lon="-8.3613360">
        <ele>272.3</ele>
        <time>2015-03-21T10:07:04Z</time>
      </trkpt>
      <trkpt lat="39.7421870" lon="-8.3613130">
        <ele>274.4</ele>
        <time>2015-03-21T10:07:16Z</time>
      </trkpt>
      <trkpt lat="39.7424750" lon="-8.3612730">
        <ele>276.0</ele>
        <time>2015-03-21T10:07:30Z</time>
      </trkpt>
      <trkpt lat="39.7427670" lon="-8.3613470">
        <ele>276.5</ele>
        <time>2015-03-21T10:07:44Z</time>
      </trkpt>
      <trkpt lat="39.7430120" lon="-8.3614430">
        <ele>277.0</ele>
        <time>2015-03-21T10:07:57Z</time>
      </trkpt>
      <trkpt lat="39.7431040" lon="-8.3614740">
        <ele>277.2</ele>
        <time>2015-03-21T10:08:02Z</time>
      </trkpt>
      <trkpt lat="39.7433770" lon="-8.3614870">
        <ele>279.0</ele>
        <time>2015-03-21T10:08:17Z</time>
      </trkpt>
      <trkpt lat="39.7436470" lon="-8.3614650">
        <ele>281.0</ele>
        <time>2015-03-21T10:08:32Z</time>
      </trkpt>
      <trkpt lat="39.7438770" lon="-8.3613610">
        <ele>283.0</ele>
        <time>2015-03-21T10:08:47Z</time>
      </trkpt>
      <trkpt lat="39.7441730" lon="-8.3611980">
        <ele>284.2</ele>
        <time>2015-03-21T10:09:02Z</time>
      </trkpt>
      <trkpt lat="39.7444680" lon="-8.3611840">
        <ele>285.6</ele>
        <time>2015-03-21T10:09:17Z</time>
      </trkpt>
      <trkpt lat="39.7447100" lon="-8.3611750">
        <ele>287.1</ele>
        <time>2015-03-21T10:09:32Z</time>
      </trkpt>
      <trkpt lat="39.7448530" lon="-8.3609770">
        <ele>289.2</ele>
        <time>2015-03-21T10:09:47Z</time>
      </trkpt>
      <trkpt lat="39.7450650" lon="-8.3607530">
        <ele>292.3</ele>
        <time>2015-03-21T10:10:02Z</time>
      </trkpt>
      <trkpt lat="39.7453080" lon="-8.3607910">
        <ele>293.4</ele>
        <time>2015-03-21T10:10:15Z</time>
      </trkpt>
      <trkpt lat="39.7454860" lon="-8.3610860">
        <ele>293.6</ele>
        <time>2015-03-21T10:10:23Z</time>
      </trkpt>
      <trkpt lat="39.7456300" lon="-8.3612830">
        <ele>293.2</ele>
        <time>2015-03-21T10:10:29Z</time>
      </trkpt>
      <trkpt lat="39.7458070" lon="-8.3615030">
        <ele>292.1</ele>
        <time>2015-03-21T10:10:38Z</time>
      </trkpt>
      <trkpt lat="39.7460040" lon="-8.3616570">
        <ele>290.3</ele>
        <time>2015-03-21T10:10:48Z</time>
      </trkpt>
      <trkpt lat="39.7461070" lon="-8.3617310">
        <ele>289.4</ele>
        <time>2015-03-21T10:10:51Z</time>
      </trkpt>
      <trkpt lat="39.7462880" lon="-8.3620140">
        <ele>287.2</ele>
        <time>2015-03-21T10:10:57Z</time>
      </trkpt>
      <trkpt lat="39.7464320" lon="-8.3623780">
        <ele>285.3</ele>
        <time>2015-03-21T10:11:03Z</time>
      </trkpt>
      <trkpt lat="39.7464660" lon="-8.3625150">
        <ele>284.9</ele>
        <time>2015-03-21T10:11:05Z</time>
      </trkpt>
      <trkpt lat="39.7464700" lon="-8.3631290">
        <ele>282.4</ele>
        <time>2015-03-21T10:11:17Z</time>
      </trkpt>
      <trkpt lat="39.7465200" lon="-8.3634390">
        <ele>280.3</ele>
        <time>2015-03-21T10:11:34Z</time>
      </trkpt>
      <trkpt lat="39.7465960" lon="-8.3637750">
        <ele>277.5</ele>
        <time>2015-03-21T10:11:39Z</time>
      </trkpt>
      <trkpt lat="39.7466280" lon="-8.3640010">
        <ele>275.5</ele>
        <time>2015-03-21T10:11:42Z</time>
      </trkpt>
      <trkpt lat="39.7466320" lon="-8.3641610">
        <ele>274.1</ele>
        <time>2015-03-21T10:11:44Z</time>
      </trkpt>
      <trkpt lat="39.7465720" lon="-8.3645480">
        <ele>273.8</ele>
        <time>2015-03-21T10:11:53Z</time>
      </trkpt>
      <trkpt lat="39.7464600" lon="-8.3650000">
        <ele>271.3</ele>
        <time>2015-03-21T10:12:09Z</time>
      </trkpt>
      <trkpt lat="39.7463160" lon="-8.3655350">
        <ele>266.8</ele>
        <time>2015-03-21T10:12:22Z</time>
      </trkpt>
      <trkpt lat="39.7462870" lon="-8.3658840">
        <ele>263.0</ele>
        <time>2015-03-21T10:12:28Z</time>
      </trkpt>
      <trkpt lat="39.7462690" lon="-8.3659690">
        <ele>261.9</ele>
        <time>2015-03-21T10:12:30Z</time>
      </trkpt>
      <trkpt lat="39.7462270" lon="-8.3664120">
        <ele>256.7</ele>
        <time>2015-03-21T10:12:38Z</time>
      </trkpt>
      <trkpt lat="39.7462100" lon="-8.3665930">
        <ele>255.0</ele>
        <time>2015-03-21T10:12:41Z</time>
      </trkpt>
      <trkpt lat="39.7462210" lon="-8.3668130">
        <ele>253.1</ele>
        <time>2015-03-21T10:12:45Z</time>
      </trkpt>
      <trkpt lat="39.7462370" lon="-8.3672340">
        <ele>247.8</ele>
        <time>2015-03-21T10:12:54Z</time>
      </trkpt>
      <trkpt lat="39.7462640" lon="-8.3676970">
        <ele>242.4</ele>
        <time>2015-03-21T10:13:03Z</time>
      </trkpt>
      <trkpt lat="39.7462740" lon="-8.3681040">
        <ele>237.9</ele>
        <time>2015-03-21T10:13:13Z</time>
      </trkpt>
      <trkpt lat="39.7462970" lon="-8.3684750">
        <ele>232.5</ele>
        <time>2015-03-21T10:13:21Z</time>
      </trkpt>
      <trkpt lat="39.7462970" lon="-8.3686850">
        <ele>229.3</ele>
        <time>2015-03-21T10:13:25Z</time>
      </trkpt>
      <trkpt lat="39.7462600" lon="-8.3689540">
        <ele>225.5</ele>
        <time>2015-03-21T10:13:31Z</time>
      </trkpt>
      <trkpt lat="39.7463000" lon="-8.3691780">
        <ele>223.2</ele>
        <time>2015-03-21T10:13:36Z</time>
      </trkpt>
      <trkpt lat="39.7466440" lon="-8.3692670">
        <ele>221.7</ele>
        <time>2015-03-21T10:13:46Z</time>
      </trkpt>
      <trkpt lat="39.7468530" lon="-8.3691990">
        <ele>221.7</ele>
        <time>2015-03-21T10:13:53Z</time>
      </trkpt>
      <trkpt lat="39.7471970" lon="-8.3690980">
        <ele>221.9</ele>
        <time>2015-03-21T10:14:08Z</time>
      </trkpt>
      <trkpt lat="39.7475170" lon="-8.3689790">
        <ele>222.7</ele>
        <time>2015-03-21T10:14:22Z</time>
      </trkpt>
      <trkpt lat="39.7478770" lon="-8.3689200">
        <ele>222.6</ele>
        <time>2015-03-21T10:14:34Z</time>
      </trkpt>
      <trkpt lat="39.7482750" lon="-8.3689860">
        <ele>221.4</ele>
        <time>2015-03-21T10:14:47Z</time>
      </trkpt>
      <trkpt lat="39.7486850" lon="-8.3689050">
        <ele>221.6</ele>
        <time>2015-03-21T10:15:02Z</time>
      </trkpt>
      <trkpt lat="39.7488100" lon="-8.3688650">
        <ele>221.4</ele>
        <time>2015-03-21T10:15:07Z</time>
      </trkpt>
      <trkpt lat="39.7489120" lon="-8.3688520">
        <ele>221.0</ele>
        <time>2015-03-21T10:15:23Z</time>
      </trkpt>
      <trkpt lat="39.7492400" lon="-8.3687980">
        <ele>221.2</ele>
        <time>2015-03-21T10:15:37Z</time>
      </trkpt>
      <trkpt lat="39.7495500" lon="-8.3687860">
        <ele>222.1</ele>
        <time>2015-03-21T10:15:52Z</time>
      </trkpt>
      <trkpt lat="39.7498260" lon="-8.3686900">
        <ele>222.3</ele>
        <time>2015-03-21T10:16:06Z</time>
      </trkpt>
      <trkpt lat="39.7500620" lon="-8.3686750">
        <ele>222.2</ele>
        <time>2015-03-21T10:16:19Z</time>
      </trkpt>
      <trkpt lat="39.7501760" lon="-8.3687330">
        <ele>221.9</ele>
        <time>2015-03-21T10:17:49Z</time>
      </trkpt>
      <trkpt lat="39.7504650" lon="-8.3690260">
        <ele>219.3</ele>
        <time>2015-03-21T10:18:01Z</time>
      </trkpt>
      <trkpt lat="39.7506740" lon="-8.3692420">
        <ele>217.1</ele>
        <time>2015-03-21T10:18:10Z</time>
      </trkpt>
      <trkpt lat="39.7509900" lon="-8.3693610">
        <ele>215.9</ele>
        <time>2015-03-21T10:18:25Z</time>
      </trkpt>
      <trkpt lat="39.7511220" lon="-8.3694980">
        <ele>215.8</ele>
        <time>2015-03-21T10:18:31Z</time>
      </trkpt>
      <trkpt lat="39.7514840" lon="-8.3699030">
        <ele>213.6</ele>
        <time>2015-03-21T10:18:44Z</time>
      </trkpt>
      <trkpt lat="39.7516940" lon="-8.3701710">
        <ele>211.8</ele>
        <time>2015-03-21T10:18:53Z</time>
      </trkpt>
      <trkpt lat="39.7517810" lon="-8.3701870">
        <ele>211.3</ele>
        <time>2015-03-21T10:18:57Z</time>
      </trkpt>
      <trkpt lat="39.7524330" lon="-8.3700370">
        <ele>209.5</ele>
        <time>2015-03-21T10:19:14Z</time>
      </trkpt>
      <trkpt lat="39.7530840" lon="-8.3697370">
        <ele>209.5</ele>
        <time>2015-03-21T10:19:30Z</time>
      </trkpt>
      <trkpt lat="39.7538060" lon="-8.3693870">
        <ele>209.4</ele>
        <time>2015-03-21T10:19:50Z</time>
      </trkpt>
      <trkpt lat="39.7541730" lon="-8.3692550">
        <ele>209.4</ele>
        <time>2015-03-21T10:20:00Z</time>
      </trkpt>
      <trkpt lat="39.7543270" lon="-8.3694010">
        <ele>208.9</ele>
        <time>2015-03-21T10:20:05Z</time>
      </trkpt>
      <trkpt lat="39.7549130" lon="-8.3704770">
        <ele>205.9</ele>
        <time>2015-03-21T10:20:27Z</time>
      </trkpt>
      <trkpt lat="39.7555060" lon="-8.3715140">
        <ele>204.6</ele>
        <time>2015-03-21T10:20:44Z</time>
      </trkpt>
      <trkpt lat="39.7555740" lon="-8.3716080">
        <ele>204.6</ele>
        <time>2015-03-21T10:20:46Z</time>
      </trkpt>
      <trkpt lat="39.7556440" lon="-8.3716860">
        <ele>204.6</ele>
        <time>2015-03-21T10:20:48Z</time>
      </trkpt>
      <trkpt lat="39.7562120" lon="-8.3718750">
        <ele>205.2</ele>
        <time>2015-03-21T10:21:02Z</time>
      </trkpt>
      <trkpt lat="39.7568590" lon="-8.3720160">
        <ele>204.5</ele>
        <time>2015-03-21T10:21:18Z</time>
      </trkpt>
      <trkpt lat="39.7576330" lon="-8.3721870">
        <ele>203.1</ele>
        <time>2015-03-21T10:21:34Z</time>
      </trkpt>
      <trkpt lat="39.7581670" lon="-8.3723130">
        <ele>202.8</ele>
        <time>2015-03-21T10:21:47Z</time>
      </trkpt>
      <trkpt lat="39.7588200" lon="-8.3724660">
        <ele>202.8</ele>
        <time>2015-03-21T10:22:02Z</time>
      </trkpt>
      <trkpt lat="39.7596130" lon="-8.3726620">
        <ele>201.4</ele>
        <time>2015-03-21T10:22:20Z</time>
      </trkpt>
      <trkpt lat="39.7604450" lon="-8.3728570">
        <ele>201.6</ele>
        <time>2015-03-21T10:22:39Z</time>
      </trkpt>
      <trkpt lat="39.7612300" lon="-8.3730120">
        <ele>203.6</ele>
        <time>2015-03-21T10:22:59Z</time>
      </trkpt>
      <trkpt lat="39.7618030" lon="-8.3731050">
        <ele>205.9</ele>
        <time>2015-03-21T10:23:15Z</time>
      </trkpt>
      <trkpt lat="39.7625010" lon="-8.3732180">
        <ele>208.6</ele>
        <time>2015-03-21T10:23:34Z</time>
      </trkpt>
      <trkpt lat="39.7631890" lon="-8.3733300">
        <ele>211.4</ele>
        <time>2015-03-21T10:23:53Z</time>
      </trkpt>
      <trkpt lat="39.7638040" lon="-8.3734330">
        <ele>213.1</ele>
        <time>2015-03-21T10:24:12Z</time>
      </trkpt>
      <trkpt lat="39.7644700" lon="-8.3735400">
        <ele>214.7</ele>
        <time>2015-03-21T10:24:33Z</time>
      </trkpt>
      <trkpt lat="39.7648500" lon="-8.3736040">
        <ele>215.9</ele>
        <time>2015-03-21T10:25:24Z</time>
      </trkpt>
      <trkpt lat="39.7653840" lon="-8.3736830">
        <ele>215.9</ele>
        <time>2015-03-21T10:25:38Z</time>
      </trkpt>
      <trkpt lat="39.7662550" lon="-8.3738310">
        <ele>215.3</ele>
        <time>2015-03-21T10:25:59Z</time>
      </trkpt>
      <trkpt lat="39.7666800" lon="-8.3739020">
        <ele>216.7</ele>
        <time>2015-03-21T10:26:11Z</time>
      </trkpt>
      <trkpt lat="39.7672970" lon="-8.3739930">
        <ele>219.4</ele>
        <time>2015-03-21T10:26:29Z</time>
      </trkpt>
      <trkpt lat="39.7680340" lon="-8.3741140">
        <ele>221.8</ele>
        <time>2015-03-21T10:26:50Z</time>
      </trkpt>
      <trkpt lat="39.7688610" lon="-8.3742500">
        <ele>223.8</ele>
        <time>2015-03-21T10:27:13Z</time>
      </trkpt>
      <trkpt lat="39.7695030" lon="-8.3744730">
        <ele>223.3</ele>
        <time>2015-03-21T10:27:30Z</time>
      </trkpt>
      <trkpt lat="39.7697110" lon="-8.3745720">
        <ele>223.3</ele>
        <time>2015-03-21T10:27:35Z</time>
      </trkpt>
      <trkpt lat="39.7704880" lon="-8.3749450">
        <ele>221.6</ele>
        <time>2015-03-21T10:27:54Z</time>
      </trkpt>
      <trkpt lat="39.7714030" lon="-8.3754660">
        <ele>221.5</ele>
        <time>2015-03-21T10:28:17Z</time>
      </trkpt>
      <trkpt lat="39.7719780" lon="-8.3761340">
        <ele>222.1</ele>
        <time>2015-03-21T10:28:35Z</time>
      </trkpt>
      <trkpt lat="39.7724280" lon="-8.3766200">
        <ele>222.6</ele>
        <time>2015-03-21T10:28:49Z</time>
      </trkpt>
      <trkpt lat="39.7731550" lon="-8.3773360">
        <ele>222.2</ele>
        <time>2015-03-21T10:29:10Z</time>
      </trkpt>
      <trkpt lat="39.7737810" lon="-8.3776800">
        <ele>222.3</ele>
        <time>2015-03-21T10:29:26Z</time>
      </trkpt>
      <trkpt lat="39.7745500" lon="-8.3780500">
        <ele>223.3</ele>
        <time>2015-03-21T10:29:47Z</time>
      </trkpt>
      <trkpt lat="39.7752180" lon="-8.3783860">
        <ele>225.1</ele>
        <time>2015-03-21T10:30:07Z</time>
      </trkpt>
      <trkpt lat="39.7758930" lon="-8.3787030">
        <ele>227.1</ele>
        <time>2015-03-21T10:30:27Z</time>
      </trkpt>
      <trkpt lat="39.7763720" lon="-8.3789330">
        <ele>229.0</ele>
        <time>2015-03-21T10:30:44Z</time>
      </trkpt>
      <trkpt lat="39.7768200" lon="-8.3791710">
        <ele>231.5</ele>
        <time>2015-03-21T10:31:04Z</time>
      </trkpt>
      <trkpt lat="39.7772760" lon="-8.3794840">
        <ele>234.1</ele>
        <time>2015-03-21T10:31:25Z</time>
      </trkpt>
      <trkpt lat="39.7777530" lon="-8.3798210">
        <ele>236.8</ele>
        <time>2015-03-21T10:31:45Z</time>
      </trkpt>
      <trkpt lat="39.7782290" lon="-8.3801740">
        <ele>236.9</ele>
        <time>2015-03-21T10:32:01Z</time>
      </trkpt>
      <trkpt lat="39.7788230" lon="-8.3805970">
        <ele>236.2</ele>
        <time>2015-03-21T10:32:19Z</time>
      </trkpt>
      <trkpt lat="39.7794280" lon="-8.3810310">
        <ele>236.8</ele>
        <time>2015-03-21T10:32:38Z</time>
      </trkpt>
      <trkpt lat="39.7800510" lon="-8.3814620">
        <ele>238.0</ele>
        <time>2015-03-21T10:32:57Z</time>
      </trkpt>
      <trkpt lat="39.7806500" lon="-8.3818810">
        <ele>240.3</ele>
        <time>2015-03-21T10:33:17Z</time>
      </trkpt>
      <trkpt lat="39.7810400" lon="-8.3820850">
        <ele>241.6</ele>
        <time>2015-03-21T10:33:32Z</time>
      </trkpt>
      <trkpt lat="39.7813860" lon="-8.3817560">
        <ele>241.9</ele>
        <time>2015-03-21T10:33:44Z</time>
      </trkpt>
      <trkpt lat="39.7818570" lon="-8.3812520">
        <ele>243.2</ele>
        <time>2015-03-21T10:34:02Z</time>
      </trkpt>
      <trkpt lat="39.7822710" lon="-8.3809360">
        <ele>243.7</ele>
        <time>2015-03-21T10:34:18Z</time>
      </trkpt>
      <trkpt lat="39.7826970" lon="-8.3805460">
        <ele>245.2</ele>
        <time>2015-03-21T10:34:39Z</time>
      </trkpt>
      <trkpt lat="39.7828890" lon="-8.3801650">
        <ele>246.5</ele>
        <time>2015-03-21T10:34:55Z</time>
      </trkpt>
      <trkpt lat="39.7831030" lon="-8.3797630">
        <ele>248.5</ele>
        <time>2015-03-21T10:35:13Z</time>
      </trkpt>
      <trkpt lat="39.7830660" lon="-8.3794270">
        <ele>250.1</ele>
        <time>2015-03-21T10:35:27Z</time>
      </trkpt>
      <trkpt lat="39.7829560" lon="-8.3790360">
        <ele>252.9</ele>
        <time>2015-03-21T10:35:45Z</time>
      </trkpt>
      <trkpt lat="39.7829340" lon="-8.3786750">
        <ele>255.2</ele>
        <time>2015-03-21T10:36:01Z</time>
      </trkpt>
      <trkpt lat="39.7828590" lon="-8.3782900">
        <ele>256.6</ele>
        <time>2015-03-21T10:36:17Z</time>
      </trkpt>
      <trkpt lat="39.7829040" lon="-8.3778880">
        <ele>256.7</ele>
        <time>2015-03-21T10:36:30Z</time>
      </trkpt>
      <trkpt lat="39.7830870" lon="-8.3774300">
        <ele>257.6</ele>
        <time>2015-03-21T10:36:47Z</time>
      </trkpt>
      <trkpt lat="39.7832880" lon="-8.3770310">
        <ele>259.5</ele>
        <time>2015-03-21T10:37:03Z</time>
      </trkpt>
      <trkpt lat="39.7834760" lon="-8.3764050">
        <ele>260.3</ele>
        <time>2015-03-21T10:37:21Z</time>
      </trkpt>
      <trkpt lat="39.7837170" lon="-8.3756060">
        <ele>260.1</ele>
        <time>2015-03-21T10:37:38Z</time>
      </trkpt>
      <trkpt lat="39.7838950" lon="-8.3751030">
        <ele>259.3</ele>
        <time>2015-03-21T10:37:46Z</time>
      </trkpt>
      <trkpt lat="39.7839380" lon="-8.3748840">
        <ele>258.3</ele>
        <time>2015-03-21T10:37:49Z</time>
      </trkpt>
      <trkpt lat="39.7840400" lon="-8.3747420">
        <ele>257.6</ele>
        <time>2015-03-21T10:37:57Z</time>
      </trkpt>
      <trkpt lat="39.7841240" lon="-8.3747040">
        <ele>257.8</ele>
        <time>2015-03-21T10:48:08Z</time>
      </trkpt>
      <trkpt lat="39.7843480" lon="-8.3746850">
        <ele>258.2</ele>
        <time>2015-03-21T10:48:21Z</time>
      </trkpt>
      <trkpt lat="39.7844120" lon="-8.3746630">
        <ele>258.5</ele>
        <time>2015-03-21T10:48:25Z</time>
      </trkpt>
      <trkpt lat="39.7847780" lon="-8.3746480">
        <ele>259.8</ele>
        <time>2015-03-21T10:48:43Z</time>
      </trkpt>
      <trkpt lat="39.7851390" lon="-8.3746910">
        <ele>261.8</ele>
        <time>2015-03-21T10:49:02Z</time>
      </trkpt>
      <trkpt lat="39.7854840" lon="-8.3746770">
        <ele>262.6</ele>
        <time>2015-03-21T10:49:20Z</time>
      </trkpt>
      <trkpt lat="39.7858190" lon="-8.3746590">
        <ele>264.0</ele>
        <time>2015-03-21T10:49:38Z</time>
      </trkpt>
      <trkpt lat="39.7860650" lon="-8.3747780">
        <ele>265.5</ele>
        <time>2015-03-21T10:49:55Z</time>
      </trkpt>
      <trkpt lat="39.7862620" lon="-8.3749650">
        <ele>267.4</ele>
        <time>2015-03-21T10:50:12Z</time>
      </trkpt>
      <trkpt lat="39.7864820" lon="-8.3750190">
        <ele>269.4</ele>
        <time>2015-03-21T10:50:28Z</time>
      </trkpt>
      <trkpt lat="39.7866950" lon="-8.3750670">
        <ele>271.3</ele>
        <time>2015-03-21T10:50:44Z</time>
      </trkpt>
      <trkpt lat="39.7869740" lon="-8.3750470">
        <ele>272.8</ele>
        <time>2015-03-21T10:51:03Z</time>
      </trkpt>
      <trkpt lat="39.7870320" lon="-8.3750400">
        <ele>273.0</ele>
        <time>2015-03-21T10:51:07Z</time>
      </trkpt>
      <trkpt lat="39.7871310" lon="-8.3750300">
        <ele>273.4</ele>
        <time>2015-03-21T10:51:14Z</time>
      </trkpt>
      <trkpt lat="39.7874260" lon="-8.3750280">
        <ele>275.0</ele>
        <time>2015-03-21T10:51:34Z</time>
      </trkpt>
      <trkpt lat="39.7876810" lon="-8.3750390">
        <ele>276.3</ele>
        <time>2015-03-21T10:51:51Z</time>
      </trkpt>
      <trkpt lat="39.7879500" lon="-8.3751180">
        <ele>277.5</ele>
        <time>2015-03-21T10:52:09Z</time>
      </trkpt>
      <trkpt lat="39.7881230" lon="-8.3749250">
        <ele>277.8</ele>
        <time>2015-03-21T10:52:24Z</time>
      </trkpt>
      <trkpt lat="39.7883000" lon="-8.3745830">
        <ele>277.7</ele>
        <time>2015-03-21T10:52:38Z</time>
      </trkpt>
      <trkpt lat="39.7885160" lon="-8.3748130">
        <ele>279.3</ele>
        <time>2015-03-21T10:52:50Z</time>
      </trkpt>
      <trkpt lat="39.7889100" lon="-8.3749090">
        <ele>280.2</ele>
        <time>2015-03-21T10:53:09Z</time>
      </trkpt>
      <trkpt lat="39.7893210" lon="-8.3749780">
        <ele>280.2</ele>
        <time>2015-03-21T10:53:27Z</time>
      </trkpt>
      <trkpt lat="39.7896040" lon="-8.3752240">
        <ele>280.9</ele>
        <time>2015-03-21T10:53:43Z</time>
      </trkpt>
      <trkpt lat="39.7898630" lon="-8.3755040">
        <ele>282.1</ele>
        <time>2015-03-21T10:54:00Z</time>
      </trkpt>
      <trkpt lat="39.7902250" lon="-8.3757400">
        <ele>283.4</ele>
        <time>2015-03-21T10:54:19Z</time>
      </trkpt>
      <trkpt lat="39.7907220" lon="-8.3757460">
        <ele>283.9</ele>
        <time>2015-03-21T10:54:37Z</time>
      </trkpt>
      <trkpt lat="39.7914680" lon="-8.3755190">
        <ele>283.1</ele>
        <time>2015-03-21T10:54:56Z</time>
      </trkpt>
      <trkpt lat="39.7919960" lon="-8.3755670">
        <ele>284.2</ele>
        <time>2015-03-21T10:55:12Z</time>
      </trkpt>
      <trkpt lat="39.7923930" lon="-8.3758330">
        <ele>285.7</ele>
        <time>2015-03-21T10:55:30Z</time>
      </trkpt>
      <trkpt lat="39.7928380" lon="-8.3760990">
        <ele>287.9</ele>
        <time>2015-03-21T10:55:50Z</time>
      </trkpt>
      <trkpt lat="39.7932530" lon="-8.3761980">
        <ele>290.0</ele>
        <time>2015-03-21T10:56:07Z</time>
      </trkpt>
      <trkpt lat="39.7937420" lon="-8.3762500">
        <ele>291.8</ele>
        <time>2015-03-21T10:56:26Z</time>
      </trkpt>
      <trkpt lat="39.7941710" lon="-8.3762210">
        <ele>293.1</ele>
        <time>2015-03-21T10:56:42Z</time>
      </trkpt>
      <trkpt lat="39.7947140" lon="-8.3762920">
        <ele>294.4</ele>
        <time>2015-03-21T10:57:01Z</time>
      </trkpt>
      <trkpt lat="39.7952390" lon="-8.3762660">
        <ele>294.3</ele>
        <time>2015-03-21T10:57:20Z</time>
      </trkpt>
      <trkpt lat="39.7958140" lon="-8.3762160">
        <ele>293.3</ele>
        <time>2015-03-21T10:57:38Z</time>
      </trkpt>
      <trkpt lat="39.7961800" lon="-8.3760300">
        <ele>292.1</ele>
        <time>2015-03-21T10:57:48Z</time>
      </trkpt>
      <trkpt lat="39.7962680" lon="-8.3759990">
        <ele>291.6</ele>
        <time>2015-03-21T10:57:50Z</time>
      </trkpt>
      <trkpt lat="39.7964300" lon="-8.3758650">
        <ele>290.8</ele>
        <time>2015-03-21T10:57:54Z</time>
      </trkpt>
      <trkpt lat="39.7967000" lon="-8.3757540">
        <ele>289.0</ele>
        <time>2015-03-21T10:58:02Z</time>
      </trkpt>
      <trkpt lat="39.7968840" lon="-8.3756570">
        <ele>287.9</ele>
        <time>2015-03-21T10:58:06Z</time>
      </trkpt>
      <trkpt lat="39.7971040" lon="-8.3753910">
        <ele>286.9</ele>
        <time>2015-03-21T10:58:12Z</time>
      </trkpt>
      <trkpt lat="39.7972000" lon="-8.3751360">
        <ele>286.0</ele>
        <time>2015-03-21T10:58:17Z</time>
      </trkpt>
      <trkpt lat="39.7972260" lon="-8.3749940">
        <ele>285.5</ele>
        <time>2015-03-21T10:58:20Z</time>
      </trkpt>
      <trkpt lat="39.7974580" lon="-8.3748630">
        <ele>283.6</ele>
        <time>2015-03-21T10:58:26Z</time>
      </trkpt>
      <trkpt lat="39.7975650" lon="-8.3748880">
        <ele>282.7</ele>
        <time>2015-03-21T10:58:28Z</time>
      </trkpt>
      <trkpt lat="39.7978080" lon="-8.3748290">
        <ele>281.2</ele>
        <time>2015-03-21T10:58:32Z</time>
      </trkpt>
      <trkpt lat="39.7981400" lon="-8.3744000">
        <ele>279.9</ele>
        <time>2015-03-21T10:58:39Z</time>
      </trkpt>
      <trkpt lat="39.7983130" lon="-8.3743640">
        <ele>279.9</ele>
        <time>2015-03-21T10:58:42Z</time>
      </trkpt>
      <trkpt lat="39.7989090" lon="-8.3742960">
        <ele>281.4</ele>
        <time>2015-03-21T10:58:58Z</time>
      </trkpt>
      <trkpt lat="39.7992130" lon="-8.3737790">
        <ele>280.9</ele>
        <time>2015-03-21T10:59:12Z</time>
      </trkpt>
      <trkpt lat="39.7994940" lon="-8.3732120">
        <ele>281.0</ele>
        <time>2015-03-21T10:59:27Z</time>
      </trkpt>
      <trkpt lat="39.7997940" lon="-8.3726500">
        <ele>281.4</ele>
        <time>2015-03-21T10:59:43Z</time>
      </trkpt>
      <trkpt lat="39.8000960" lon="-8.3722570">
        <ele>282.2</ele>
        <time>2015-03-21T10:59:57Z</time>
      </trkpt>
      <trkpt lat="39.8004710" lon="-8.3722920">
        <ele>283.5</ele>
        <time>2015-03-21T11:00:12Z</time>
      </trkpt>
      <trkpt lat="39.8007980" lon="-8.3725040">
        <ele>284.0</ele>
        <time>2015-03-21T11:00:27Z</time>
      </trkpt>
      <trkpt lat="39.8010410" lon="-8.3727730">
        <ele>284.7</ele>
        <time>2015-03-21T11:00:40Z</time>
      </trkpt>
      <trkpt lat="39.8012990" lon="-8.3730320">
        <ele>285.2</ele>
        <time>2015-03-21T11:00:54Z</time>
      </trkpt>
      <trkpt lat="39.8017090" lon="-8.3731860">
        <ele>286.3</ele>
        <time>2015-03-21T11:01:11Z</time>
      </trkpt>
      <trkpt lat="39.8020210" lon="-8.3734150">
        <ele>287.1</ele>
        <time>2015-03-21T11:01:26Z</time>
      </trkpt>
      <trkpt lat="39.8023870" lon="-8.3735100">
        <ele>287.9</ele>
        <time>2015-03-21T11:01:41Z</time>
      </trkpt>
      <trkpt lat="39.8027310" lon="-8.3736680">
        <ele>289.2</ele>
        <time>2015-03-21T11:01:57Z</time>
      </trkpt>
      <trkpt lat="39.8030570" lon="-8.3738100">
        <ele>290.1</ele>
        <time>2015-03-21T11:02:12Z</time>
      </trkpt>
      <trkpt lat="39.8031520" lon="-8.3737310">
        <ele>290.2</ele>
        <time>2015-03-21T11:02:17Z</time>
      </trkpt>
      <trkpt lat="39.8035290" lon="-8.3736310">
        <ele>290.7</ele>
        <time>2015-03-21T11:02:32Z</time>
      </trkpt>
      <trkpt lat="39.8040500" lon="-8.3736910">
        <ele>292.0</ele>
        <time>2015-03-21T11:02:53Z</time>
      </trkpt>
      <trkpt lat="39.8045760" lon="-8.3738050">
        <ele>292.4</ele>
        <time>2015-03-21T11:03:11Z</time>
      </trkpt>
      <trkpt lat="39.8049760" lon="-8.3739840">
        <ele>292.3</ele>
        <time>2015-03-21T11:03:24Z</time>
      </trkpt>
      <trkpt lat="39.8056470" lon="-8.3741230">
        <ele>292.9</ele>
        <time>2015-03-21T11:03:43Z</time>
      </trkpt>
      <trkpt lat="39.8061360" lon="-8.3742400">
        <ele>293.6</ele>
        <time>2015-03-21T11:03:58Z</time>
      </trkpt>
      <trkpt lat="39.8066370" lon="-8.3743310">
        <ele>294.3</ele>
        <time>2015-03-21T11:04:13Z</time>
      </trkpt>
      <trkpt lat="39.8070950" lon="-8.3743220">
        <ele>295.7</ele>
        <time>2015-03-21T11:04:28Z</time>
      </trkpt>
      <trkpt lat="39.8074290" lon="-8.3741240">
        <ele>297.7</ele>
        <time>2015-03-21T11:04:43Z</time>
      </trkpt>
      <trkpt lat="39.8077270" lon="-8.3739860">
        <ele>299.6</ele>
        <time>2015-03-21T11:04:59Z</time>
      </trkpt>
      <trkpt lat="39.8080390" lon="-8.3740000">
        <ele>300.9</ele>
        <time>2015-03-21T11:05:15Z</time>
      </trkpt>
      <trkpt lat="39.8084090" lon="-8.3739850">
        <ele>302.1</ele>
        <time>2015-03-21T11:05:31Z</time>
      </trkpt>
      <trkpt lat="39.8088200" lon="-8.3739640">
        <ele>304.3</ele>
        <time>2015-03-21T11:05:49Z</time>
      </trkpt>
      <trkpt lat="39.8092050" lon="-8.3738070">
        <ele>306.4</ele>
        <time>2015-03-21T11:06:06Z</time>
      </trkpt>
      <trkpt lat="39.8096620" lon="-8.3735930">
        <ele>308.3</ele>
        <time>2015-03-21T11:06:26Z</time>
      </trkpt>
      <trkpt lat="39.8100400" lon="-8.3735040">
        <ele>309.9</ele>
        <time>2015-03-21T11:06:41Z</time>
      </trkpt>
      <trkpt lat="39.8105230" lon="-8.3735630">
        <ele>310.8</ele>
        <time>2015-03-21T11:07:00Z</time>
      </trkpt>
      <trkpt lat="39.8110210" lon="-8.3736960">
        <ele>311.3</ele>
        <time>2015-03-21T11:07:20Z</time>
      </trkpt>
      <trkpt lat="39.8114400" lon="-8.3738560">
        <ele>313.0</ele>
        <time>2015-03-21T11:07:37Z</time>
      </trkpt>
      <trkpt lat="39.8118690" lon="-8.3737550">
        <ele>315.3</ele>
        <time>2015-03-21T11:07:55Z</time>
      </trkpt>
      <trkpt lat="39.8122110" lon="-8.3736360">
        <ele>317.0</ele>
        <time>2015-03-21T11:08:11Z</time>
      </trkpt>
      <trkpt lat="39.8126460" lon="-8.3735680">
        <ele>319.6</ele>
        <time>2015-03-21T11:08:32Z</time>
      </trkpt>
      <trkpt lat="39.8128890" lon="-8.3735460">
        <ele>321.6</ele>
        <time>2015-03-21T11:08:46Z</time>
      </trkpt>
      <trkpt lat="39.8132000" lon="-8.3735520">
        <ele>323.8</ele>
        <time>2015-03-21T11:09:03Z</time>
      </trkpt>
      <trkpt lat="39.8135000" lon="-8.3735250">
        <ele>324.9</ele>
        <time>2015-03-21T11:09:18Z</time>
      </trkpt>
      <trkpt lat="39.8137070" lon="-8.3735380">
        <ele>324.5</ele>
        <time>2015-03-21T11:09:25Z</time>
      </trkpt>
      <trkpt lat="39.8141450" lon="-8.3735570">
        <ele>321.8</ele>
        <time>2015-03-21T11:09:33Z</time>
      </trkpt>
      <trkpt lat="39.8148330" lon="-8.3735470">
        <ele>321.1</ele>
        <time>2015-03-21T11:09:44Z</time>
      </trkpt>
      <trkpt lat="39.8150480" lon="-8.3735820">
        <ele>321.6</ele>
        <time>2015-03-21T11:09:49Z</time>
      </trkpt>
      <trkpt lat="39.8157280" lon="-8.3737090">
        <ele>323.0</ele>
        <time>2015-03-21T11:10:08Z</time>
      </trkpt>
      <trkpt lat="39.8159840" lon="-8.3737400">
        <ele>323.4</ele>
        <time>2015-03-21T11:11:00Z</time>
      </trkpt>
      <trkpt lat="39.8159040" lon="-8.3738690">
        <ele>322.4</ele>
        <time>2015-03-21T11:11:04Z</time>
      </trkpt>
      <trkpt lat="39.8158340" lon="-8.3743860">
        <ele>319.1</ele>
        <time>2015-03-21T11:11:12Z</time>
      </trkpt>
      <trkpt lat="39.8157770" lon="-8.3746380">
        <ele>317.8</ele>
        <time>2015-03-21T11:11:15Z</time>
      </trkpt>
      <trkpt lat="39.8157170" lon="-8.3749150">
        <ele>316.3</ele>
        <time>2015-03-21T11:11:18Z</time>
      </trkpt>
      <trkpt lat="39.8155470" lon="-8.3753810">
        <ele>312.5</ele>
        <time>2015-03-21T11:11:23Z</time>
      </trkpt>
      <trkpt lat="39.8154710" lon="-8.3755860">
        <ele>311.2</ele>
        <time>2015-03-21T11:11:25Z</time>
      </trkpt>
      <trkpt lat="39.8154120" lon="-8.3757450">
        <ele>310.1</ele>
        <time>2015-03-21T11:11:27Z</time>
      </trkpt>
      <trkpt lat="39.8153690" lon="-8.3764740">
        <ele>307.5</ele>
        <time>2015-03-21T11:11:36Z</time>
      </trkpt>
      <trkpt lat="39.8153400" lon="-8.3774180">
        <ele>303.3</ele>
        <time>2015-03-21T11:11:48Z</time>
      </trkpt>
      <trkpt lat="39.8153410" lon="-8.3775640">
        <ele>302.7</ele>
        <time>2015-03-21T11:11:50Z</time>
      </trkpt>
      <trkpt lat="39.8153570" lon="-8.3777040">
        <ele>302.1</ele>
        <time>2015-03-21T11:11:52Z</time>
      </trkpt>
      <trkpt lat="39.8155220" lon="-8.3778730">
        <ele>301.0</ele>
        <time>2015-03-21T11:11:59Z</time>
      </trkpt>
      <trkpt lat="39.8162750" lon="-8.3778550">
        <ele>301.8</ele>
        <time>2015-03-21T11:12:20Z</time>
      </trkpt>
      <trkpt lat="39.8166310" lon="-8.3776330">
        <ele>303.2</ele>
        <time>2015-03-21T11:12:33Z</time>
      </trkpt>
      <trkpt lat="39.8166600" lon="-8.3771160">
        <ele>305.3</ele>
        <time>2015-03-21T11:12:49Z</time>
      </trkpt>
      <trkpt lat="39.8167250" lon="-8.3766340">
        <ele>307.3</ele>
        <time>2015-03-21T11:13:05Z</time>
      </trkpt>
      <trkpt lat="39.8167590" lon="-8.3761550">
        <ele>308.5</ele>
        <time>2015-03-21T11:13:21Z</time>
      </trkpt>
      <trkpt lat="39.8168130" lon="-8.3755600">
        <ele>311.6</ele>
        <time>2015-03-21T11:13:41Z</time>
      </trkpt>
      <trkpt lat="39.8168640" lon="-8.3749860">
        <ele>315.4</ele>
        <time>2015-03-21T11:14:00Z</time>
      </trkpt>
      <trkpt lat="39.8170030" lon="-8.3746000">
        <ele>318.3</ele>
        <time>2015-03-21T11:14:15Z</time>
      </trkpt>
      <trkpt lat="39.8172720" lon="-8.3743460">
        <ele>320.3</ele>
        <time>2015-03-21T11:14:28Z</time>
      </trkpt>
      <trkpt lat="39.8176140" lon="-8.3744140">
        <ele>321.8</ele>
        <time>2015-03-21T11:14:42Z</time>
      </trkpt>
      <trkpt lat="39.8180770" lon="-8.3745170">
        <ele>323.3</ele>
        <time>2015-03-21T11:15:02Z</time>
      </trkpt>
      <trkpt lat="39.8185550" lon="-8.3746720">
        <ele>324.7</ele>
        <time>2015-03-21T11:15:22Z</time>
      </trkpt>
      <trkpt lat="39.8189000" lon="-8.3748770">
        <ele>324.3</ele>
        <time>2015-03-21T11:15:37Z</time>
      </trkpt>
      <trkpt lat="39.8193680" lon="-8.3749840">
        <ele>323.2</ele>
        <time>2015-03-21T11:15:53Z</time>
      </trkpt>
      <trkpt lat="39.8197260" lon="-8.3750880">
        <ele>323.0</ele>
        <time>2015-03-21T11:16:03Z</time>
      </trkpt>
      <trkpt lat="39.8202430" lon="-8.3752540">
        <ele>321.8</ele>
        <time>2015-03-21T11:16:17Z</time>
      </trkpt>
      <trkpt lat="39.8207320" lon="-8.3755990">
        <ele>322.3</ele>
        <time>2015-03-21T11:16:32Z</time>
      </trkpt>
      <trkpt lat="39.8213480" lon="-8.3760430">
        <ele>324.4</ele>
        <time>2015-03-21T11:16:49Z</time>
      </trkpt>
      <trkpt lat="39.8217940" lon="-8.3764300">
        <ele>325.6</ele>
        <time>2015-03-21T11:17:01Z</time>
      </trkpt>
      <trkpt lat="39.8224500" lon="-8.3773280">
        <ele>325.5</ele>
        <time>2015-03-21T11:17:24Z</time>
      </trkpt>
      <trkpt lat="39.8226310" lon="-8.3775240">
        <ele>325.8</ele>
        <time>2015-03-21T11:17:30Z</time>
      </trkpt>
      <trkpt lat="39.8227370" lon="-8.3777020">
        <ele>325.2</ele>
        <time>2015-03-21T11:17:35Z</time>
      </trkpt>
      <trkpt lat="39.8231660" lon="-8.3783800">
        <ele>322.4</ele>
        <time>2015-03-21T11:17:51Z</time>
      </trkpt>
      <trkpt lat="39.8235970" lon="-8.3790980">
        <ele>319.8</ele>
        <time>2015-03-21T11:18:06Z</time>
      </trkpt>
      <trkpt lat="39.8241930" lon="-8.3798830">
        <ele>319.0</ele>
        <time>2015-03-21T11:18:24Z</time>
      </trkpt>
      <trkpt lat="39.8247680" lon="-8.3805450">
        <ele>319.7</ele>
        <time>2015-03-21T11:18:40Z</time>
      </trkpt>
      <trkpt lat="39.8252070" lon="-8.3810590">
        <ele>320.8</ele>
        <time>2015-03-21T11:18:56Z</time>
      </trkpt>
      <trkpt lat="39.8251850" lon="-8.3811380">
        <ele>320.4</ele>
        <time>2015-03-21T11:19:24Z</time>
      </trkpt>
      <trkpt lat="39.8251250" lon="-8.3812660">
        <ele>319.2</ele>
        <time>2015-03-21T11:19:52Z</time>
      </trkpt>
      <trkpt lat="39.8250750" lon="-8.3812830">
        <ele>318.7</ele>
        <time>2015-03-21T11:48:30Z</time>
      </trkpt>
      <trkpt lat="39.8250340" lon="-8.3813510">
        <ele>318.1</ele>
        <time>2015-03-21T11:48:32Z</time>
      </trkpt>
      <trkpt lat="39.8248240" lon="-8.3817210">
        <ele>314.5</ele>
        <time>2015-03-21T11:48:41Z</time>
      </trkpt>
      <trkpt lat="39.8246980" lon="-8.3819660">
        <ele>312.3</ele>
        <time>2015-03-21T11:48:47Z</time>
      </trkpt>
      <trkpt lat="39.8247070" lon="-8.3820540">
        <ele>311.5</ele>
        <time>2015-03-21T11:48:58Z</time>
      </trkpt>
      <trkpt lat="39.8246650" lon="-8.3821140">
        <ele>310.4</ele>
        <time>2015-03-21T11:51:23Z</time>
      </trkpt>
      <trkpt lat="39.8247630" lon="-8.3822440">
        <ele>310.6</ele>
        <time>2015-03-21T11:51:35Z</time>
      </trkpt>
      <trkpt lat="39.8250850" lon="-8.3825160">
        <ele>310.7</ele>
        <time>2015-03-21T11:51:52Z</time>
      </trkpt>
      <trkpt lat="39.8254700" lon="-8.3828300">
        <ele>309.8</ele>
        <time>2015-03-21T11:52:08Z</time>
      </trkpt>
      <trkpt lat="39.8257320" lon="-8.3830360">
        <ele>309.3</ele>
        <time>2015-03-21T11:52:16Z</time>
      </trkpt>
      <trkpt lat="39.8262480" lon="-8.3834800">
        <ele>308.0</ele>
        <time>2015-03-21T11:52:33Z</time>
      </trkpt>
      <trkpt lat="39.8267120" lon="-8.3837990">
        <ele>307.7</ele>
        <time>2015-03-21T11:52:48Z</time>
      </trkpt>
      <trkpt lat="39.8270920" lon="-8.3839220">
        <ele>306.7</ele>
        <time>2015-03-21T11:53:01Z</time>
      </trkpt>
      <trkpt lat="39.8273390" lon="-8.3839400">
        <ele>308.8</ele>
        <time>2015-03-21T11:53:15Z</time>
      </trkpt>
      <trkpt lat="39.8275710" lon="-8.3839100">
        <ele>311.9</ele>
        <time>2015-03-21T11:53:31Z</time>
      </trkpt>
      <trkpt lat="39.8278000" lon="-8.3839310">
        <ele>314.9</ele>
        <time>2015-03-21T11:53:47Z</time>
      </trkpt>
      <trkpt lat="39.8280340" lon="-8.3839090">
        <ele>318.0</ele>
        <time>2015-03-21T11:54:05Z</time>
      </trkpt>
      <trkpt lat="39.8281200" lon="-8.3838570">
        <ele>319.0</ele>
        <time>2015-03-21T11:54:12Z</time>
      </trkpt>
      <trkpt lat="39.8283170" lon="-8.3838210">
        <ele>321.4</ele>
        <time>2015-03-21T11:54:28Z</time>
      </trkpt>
      <trkpt lat="39.8285360" lon="-8.3837980">
        <ele>323.3</ele>
        <time>2015-03-21T11:54:44Z</time>
      </trkpt>
      <trkpt lat="39.8287620" lon="-8.3837210">
        <ele>324.6</ele>
        <time>2015-03-21T11:55:00Z</time>
      </trkpt>
      <trkpt lat="39.8290300" lon="-8.3836650">
        <ele>325.0</ele>
        <time>2015-03-21T11:55:15Z</time>
      </trkpt>
      <trkpt lat="39.8293910" lon="-8.3835410">
        <ele>325.7</ele>
        <time>2015-03-21T11:55:32Z</time>
      </trkpt>
      <trkpt lat="39.8298150" lon="-8.3834180">
        <ele>326.9</ele>
        <time>2015-03-21T11:55:53Z</time>
      </trkpt>
      <trkpt lat="39.8301340" lon="-8.3834230">
        <ele>327.7</ele>
        <time>2015-03-21T11:56:09Z</time>
      </trkpt>
      <trkpt lat="39.8305260" lon="-8.3834270">
        <ele>327.9</ele>
        <time>2015-03-21T11:56:28Z</time>
      </trkpt>
      <trkpt lat="39.8309090" lon="-8.3834090">
        <ele>329.1</ele>
        <time>2015-03-21T11:56:46Z</time>
      </trkpt>
      <trkpt lat="39.8312120" lon="-8.3835080">
        <ele>330.4</ele>
        <time>2015-03-21T11:56:59Z</time>
      </trkpt>
      <trkpt lat="39.8313190" lon="-8.3835940">
        <ele>331.0</ele>
        <time>2015-03-21T11:57:02Z</time>
      </trkpt>
      <trkpt lat="39.8318420" lon="-8.3837450">
        <ele>332.8</ele>
        <time>2015-03-21T11:57:10Z</time>
      </trkpt>
      <trkpt lat="39.8319930" lon="-8.3837760">
        <ele>332.9</ele>
        <time>2015-03-21T11:57:12Z</time>
      </trkpt>
      <trkpt lat="39.8322900" lon="-8.3837460">
        <ele>332.9</ele>
        <time>2015-03-21T11:57:16Z</time>
      </trkpt>
      <trkpt lat="39.8324390" lon="-8.3836930">
        <ele>332.9</ele>
        <time>2015-03-21T11:57:18Z</time>
      </trkpt>
      <trkpt lat="39.8329000" lon="-8.3839750">
        <ele>332.6</ele>
        <time>2015-03-21T11:57:25Z</time>
      </trkpt>
      <trkpt lat="39.8331030" lon="-8.3843750">
        <ele>331.8</ele>
        <time>2015-03-21T11:57:30Z</time>
      </trkpt>
      <trkpt lat="39.8333470" lon="-8.3846750">
        <ele>331.2</ele>
        <time>2015-03-21T11:57:35Z</time>
      </trkpt>
      <trkpt lat="39.8337750" lon="-8.3849540">
        <ele>329.2</ele>
        <time>2015-03-21T11:57:41Z</time>
      </trkpt>
      <trkpt lat="39.8341630" lon="-8.3852590">
        <ele>327.7</ele>
        <time>2015-03-21T11:57:46Z</time>
      </trkpt>
      <trkpt lat="39.8350230" lon="-8.3859350">
        <ele>323.8</ele>
        <time>2015-03-21T11:57:59Z</time>
      </trkpt>
      <trkpt lat="39.8354410" lon="-8.3861940">
        <ele>322.8</ele>
        <time>2015-03-21T11:58:11Z</time>
      </trkpt>
      <trkpt lat="39.8359030" lon="-8.3865230">
        <ele>322.3</ele>
        <time>2015-03-21T11:58:28Z</time>
      </trkpt>
      <trkpt lat="39.8362930" lon="-8.3866950">
        <ele>322.3</ele>
        <time>2015-03-21T11:58:45Z</time>
      </trkpt>
      <trkpt lat="39.8366400" lon="-8.3868450">
        <ele>322.5</ele>
        <time>2015-03-21T11:59:03Z</time>
      </trkpt>
      <trkpt lat="39.8370230" lon="-8.3869530">
        <ele>323.8</ele>
        <time>2015-03-21T11:59:22Z</time>
      </trkpt>
      <trkpt lat="39.8374080" lon="-8.3869930">
        <ele>326.6</ele>
        <time>2015-03-21T11:59:37Z</time>
      </trkpt>
      <trkpt lat="39.8380030" lon="-8.3872320">
        <ele>331.1</ele>
        <time>2015-03-21T11:59:54Z</time>
      </trkpt>
      <trkpt lat="39.8383090" lon="-8.3875840">
        <ele>333.3</ele>
        <time>2015-03-21T12:00:10Z</time>
      </trkpt>
      <trkpt lat="39.8386210" lon="-8.3880110">
        <ele>335.0</ele>
        <time>2015-03-21T12:00:29Z</time>
      </trkpt>
      <trkpt lat="39.8388050" lon="-8.3884810">
        <ele>336.3</ele>
        <time>2015-03-21T12:00:47Z</time>
      </trkpt>
      <trkpt lat="39.8389480" lon="-8.3889600">
        <ele>337.1</ele>
        <time>2015-03-21T12:01:04Z</time>
      </trkpt>
      <trkpt lat="39.8391620" lon="-8.3895380">
        <ele>338.3</ele>
        <time>2015-03-21T12:01:24Z</time>
      </trkpt>
      <trkpt lat="39.8394470" lon="-8.3899490">
        <ele>339.3</ele>
        <time>2015-03-21T12:01:41Z</time>
      </trkpt>
      <trkpt lat="39.8397760" lon="-8.3903760">
        <ele>340.7</ele>
        <time>2015-03-21T12:02:00Z</time>
      </trkpt>
      <trkpt lat="39.8400120" lon="-8.3907210">
        <ele>341.9</ele>
        <time>2015-03-21T12:02:15Z</time>
      </trkpt>
      <trkpt lat="39.8402910" lon="-8.3910290">
        <ele>342.9</ele>
        <time>2015-03-21T12:02:30Z</time>
      </trkpt>
      <trkpt lat="39.8405580" lon="-8.3913380">
        <ele>344.8</ele>
        <time>2015-03-21T12:02:47Z</time>
      </trkpt>
      <trkpt lat="39.8408580" lon="-8.3915980">
        <ele>346.6</ele>
        <time>2015-03-21T12:03:05Z</time>
      </trkpt>
      <trkpt lat="39.8411580" lon="-8.3918890">
        <ele>348.6</ele>
        <time>2015-03-21T12:03:24Z</time>
      </trkpt>
      <trkpt lat="39.8413790" lon="-8.3921370">
        <ele>350.6</ele>
        <time>2015-03-21T12:03:40Z</time>
      </trkpt>
      <trkpt lat="39.8416230" lon="-8.3923880">
        <ele>352.8</ele>
        <time>2015-03-21T12:03:58Z</time>
      </trkpt>
      <trkpt lat="39.8418120" lon="-8.3926140">
        <ele>354.8</ele>
        <time>2015-03-21T12:04:14Z</time>
      </trkpt>
      <trkpt lat="39.8418490" lon="-8.3926730">
        <ele>355.3</ele>
        <time>2015-03-21T12:04:18Z</time>
      </trkpt>
      <trkpt lat="39.8421040" lon="-8.3928450">
        <ele>358.1</ele>
        <time>2015-03-21T12:04:37Z</time>
      </trkpt>
      <trkpt lat="39.8423720" lon="-8.3929210">
        <ele>360.9</ele>
        <time>2015-03-21T12:04:55Z</time>
      </trkpt>
      <trkpt lat="39.8426700" lon="-8.3928390">
        <ele>363.1</ele>
        <time>2015-03-21T12:05:13Z</time>
      </trkpt>
      <trkpt lat="39.8430380" lon="-8.3927420">
        <ele>365.2</ele>
        <time>2015-03-21T12:05:34Z</time>
      </trkpt>
      <trkpt lat="39.8432650" lon="-8.3929690">
        <ele>367.0</ele>
        <time>2015-03-21T12:05:52Z</time>
      </trkpt>
      <trkpt lat="39.8434320" lon="-8.3931780">
        <ele>368.4</ele>
        <time>2015-03-21T12:06:06Z</time>
      </trkpt>
      <trkpt lat="39.8436450" lon="-8.3934380">
        <ele>370.3</ele>
        <time>2015-03-21T12:06:24Z</time>
      </trkpt>
      <trkpt lat="39.8439040" lon="-8.3936560">
        <ele>373.5</ele>
        <time>2015-03-21T12:06:44Z</time>
      </trkpt>
      <trkpt lat="39.8441750" lon="-8.3937470">
        <ele>376.3</ele>
        <time>2015-03-21T12:07:03Z</time>
      </trkpt>
      <trkpt lat="39.8444280" lon="-8.3939250">
        <ele>379.2</ele>
        <time>2015-03-21T12:07:23Z</time>
      </trkpt>
      <trkpt lat="39.8446770" lon="-8.3940190">
        <ele>382.1</ele>
        <time>2015-03-21T12:07:41Z</time>
      </trkpt>
      <trkpt lat="39.8449110" lon="-8.3941530">
        <ele>385.0</ele>
        <time>2015-03-21T12:07:59Z</time>
      </trkpt>
      <trkpt lat="39.8451330" lon="-8.3942790">
        <ele>387.2</ele>
        <time>2015-03-21T12:08:16Z</time>
      </trkpt>
      <trkpt lat="39.8453500" lon="-8.3943580">
        <ele>389.2</ele>
        <time>2015-03-21T12:08:32Z</time>
      </trkpt>
      <trkpt lat="39.8456000" lon="-8.3944390">
        <ele>392.4</ele>
        <time>2015-03-21T12:08:49Z</time>
      </trkpt>
      <trkpt lat="39.8457120" lon="-8.3944850">
        <ele>394.0</ele>
        <time>2015-03-21T12:08:57Z</time>
      </trkpt>
      <trkpt lat="39.8459770" lon="-8.3945720">
        <ele>397.8</ele>
        <time>2015-03-21T12:09:16Z</time>
      </trkpt>
      <trkpt lat="39.8462910" lon="-8.3947740">
        <ele>401.8</ele>
        <time>2015-03-21T12:09:37Z</time>
      </trkpt>
      <trkpt lat="39.8465200" lon="-8.3949670">
        <ele>403.7</ele>
        <time>2015-03-21T12:09:53Z</time>
      </trkpt>
      <trkpt lat="39.8467230" lon="-8.3951210">
        <ele>403.7</ele>
        <time>2015-03-21T12:10:07Z</time>
      </trkpt>
      <trkpt lat="39.8468840" lon="-8.3953310">
        <ele>404.2</ele>
        <time>2015-03-21T12:10:23Z</time>
      </trkpt>
      <trkpt lat="39.8469990" lon="-8.3957050">
        <ele>405.9</ele>
        <time>2015-03-21T12:10:44Z</time>
      </trkpt>
      <trkpt lat="39.8470880" lon="-8.3960410">
        <ele>407.5</ele>
        <time>2015-03-21T12:11:01Z</time>
      </trkpt>
      <trkpt lat="39.8472710" lon="-8.3963810">
        <ele>410.2</ele>
        <time>2015-03-21T12:11:20Z</time>
      </trkpt>
      <trkpt lat="39.8474480" lon="-8.3967040">
        <ele>412.6</ele>
        <time>2015-03-21T12:11:40Z</time>
      </trkpt>
      <trkpt lat="39.8475590" lon="-8.3970450">
        <ele>415.9</ele>
        <time>2015-03-21T12:11:59Z</time>
      </trkpt>
      <trkpt lat="39.8476900" lon="-8.3972480">
        <ele>419.1</ele>
        <time>2015-03-21T12:12:14Z</time>
      </trkpt>
      <trkpt lat="39.8478670" lon="-8.3973540">
        <ele>422.5</ele>
        <time>2015-03-21T12:12:28Z</time>
      </trkpt>
      <trkpt lat="39.8480330" lon="-8.3974950">
        <ele>425.4</ele>
        <time>2015-03-21T12:12:43Z</time>
      </trkpt>
      <trkpt lat="39.8481380" lon="-8.3975280">
        <ele>426.8</ele>
        <time>2015-03-21T12:12:51Z</time>
      </trkpt>
      <trkpt lat="39.8483240" lon="-8.3977050">
        <ele>430.6</ele>
        <time>2015-03-21T12:13:08Z</time>
      </trkpt>
      <trkpt lat="39.8483460" lon="-8.3978210">
        <ele>432.0</ele>
        <time>2015-03-21T12:13:15Z</time>
      </trkpt>
      <trkpt lat="39.8483000" lon="-8.3981640">
        <ele>434.6</ele>
        <time>2015-03-21T12:13:32Z</time>
      </trkpt>
      <trkpt lat="39.8482610" lon="-8.3982830">
        <ele>435.6</ele>
        <time>2015-03-21T12:13:38Z</time>
      </trkpt>
      <trkpt lat="39.8481620" lon="-8.3986160">
        <ele>438.1</ele>
        <time>2015-03-21T12:13:55Z</time>
      </trkpt>
      <trkpt lat="39.8479820" lon="-8.3988810">
        <ele>440.8</ele>
        <time>2015-03-21T12:14:12Z</time>
      </trkpt>
      <trkpt lat="39.8477700" lon="-8.3991130">
        <ele>443.3</ele>
        <time>2015-03-21T12:14:30Z</time>
      </trkpt>
      <trkpt lat="39.8476240" lon="-8.3993810">
        <ele>445.2</ele>
        <time>2015-03-21T12:14:45Z</time>
      </trkpt>
      <trkpt lat="39.8476760" lon="-8.3996620">
        <ele>447.2</ele>
        <time>2015-03-21T12:14:58Z</time>
      </trkpt>
      <trkpt lat="39.8479640" lon="-8.3998850">
        <ele>447.0</ele>
        <time>2015-03-21T12:15:15Z</time>
      </trkpt>
      <trkpt lat="39.8481950" lon="-8.4000380">
        <ele>447.7</ele>
        <time>2015-03-21T12:15:28Z</time>
      </trkpt>
      <trkpt lat="39.8484380" lon="-8.4001790">
        <ele>447.8</ele>
        <time>2015-03-21T12:15:42Z</time>
      </trkpt>
      <trkpt lat="39.8487300" lon="-8.4003320">
        <ele>448.5</ele>
        <time>2015-03-21T12:15:57Z</time>
      </trkpt>
      <trkpt lat="39.8489520" lon="-8.4005260">
        <ele>450.3</ele>
        <time>2015-03-21T12:16:12Z</time>
      </trkpt>
      <trkpt lat="39.8490240" lon="-8.4008890">
        <ele>453.0</ele>
        <time>2015-03-21T12:16:31Z</time>
      </trkpt>
      <trkpt lat="39.8490160" lon="-8.4011830">
        <ele>454.8</ele>
        <time>2015-03-21T12:16:45Z</time>
      </trkpt>
      <trkpt lat="39.8489390" lon="-8.4015100">
        <ele>455.9</ele>
        <time>2015-03-21T12:17:01Z</time>
      </trkpt>
      <trkpt lat="39.8489490" lon="-8.4016820">
        <ele>456.5</ele>
        <time>2015-03-21T12:17:08Z</time>
      </trkpt>
      <trkpt lat="39.8489560" lon="-8.4018820">
        <ele>457.0</ele>
        <time>2015-03-21T12:17:17Z</time>
      </trkpt>
      <trkpt lat="39.8490440" lon="-8.4021410">
        <ele>457.7</ele>
        <time>2015-03-21T12:17:29Z</time>
      </trkpt>
      <trkpt lat="39.8491270" lon="-8.4021780">
        <ele>457.9</ele>
        <time>2015-03-21T12:17:34Z</time>
      </trkpt>
      <trkpt lat="39.8494610" lon="-8.4020720">
        <ele>458.9</ele>
        <time>2015-03-21T12:17:52Z</time>
      </trkpt>
      <trkpt lat="39.8497250" lon="-8.4019430">
        <ele>459.8</ele>
        <time>2015-03-21T12:18:07Z</time>
      </trkpt>
      <trkpt lat="39.8499980" lon="-8.4018320">
        <ele>460.2</ele>
        <time>2015-03-21T12:18:22Z</time>
      </trkpt>
      <trkpt lat="39.8503200" lon="-8.4018240">
        <ele>460.9</ele>
        <time>2015-03-21T12:18:39Z</time>
      </trkpt>
      <trkpt lat="39.8506080" lon="-8.4017290">
        <ele>461.9</ele>
        <time>2015-03-21T12:18:55Z</time>
      </trkpt>
      <trkpt lat="39.8508620" lon="-8.4017390">
        <ele>463.3</ele>
        <time>2015-03-21T12:19:11Z</time>
      </trkpt>
      <trkpt lat="39.8510100" lon="-8.4019400">
        <ele>465.0</ele>
        <time>2015-03-21T12:19:25Z</time>
      </trkpt>
      <trkpt lat="39.8511740" lon="-8.4022490">
        <ele>467.8</ele>
        <time>2015-03-21T12:19:44Z</time>
      </trkpt>
      <trkpt lat="39.8512930" lon="-8.4025120">
        <ele>470.0</ele>
        <time>2015-03-21T12:20:00Z</time>
      </trkpt>
      <trkpt lat="39.8514460" lon="-8.4027330">
        <ele>472.0</ele>
        <time>2015-03-21T12:20:15Z</time>
      </trkpt>
      <trkpt lat="39.8516080" lon="-8.4029590">
        <ele>474.2</ele>
        <time>2015-03-21T12:20:31Z</time>
      </trkpt>
      <trkpt lat="39.8518800" lon="-8.4032230">
        <ele>474.5</ele>
        <time>2015-03-21T12:20:47Z</time>
      </trkpt>
      <trkpt lat="39.8520850" lon="-8.4034100">
        <ele>473.9</ele>
        <time>2015-03-21T12:20:54Z</time>
      </trkpt>
      <trkpt lat="39.8525270" lon="-8.4036140">
        <ele>470.9</ele>
        <time>2015-03-21T12:21:02Z</time>
      </trkpt>
      <trkpt lat="39.8527950" lon="-8.4038370">
        <ele>467.3</ele>
        <time>2015-03-21T12:21:06Z</time>
      </trkpt>
      <trkpt lat="39.8532170" lon="-8.4041680">
        <ele>461.3</ele>
        <time>2015-03-21T12:21:11Z</time>
      </trkpt>
      <trkpt lat="39.8535370" lon="-8.4043110">
        <ele>457.7</ele>
        <time>2015-03-21T12:21:14Z</time>
      </trkpt>
      <trkpt lat="39.8541730" lon="-8.4046820">
        <ele>453.4</ele>
        <time>2015-03-21T12:21:20Z</time>
      </trkpt>
      <trkpt lat="39.8551210" lon="-8.4054240">
        <ele>449.3</ele>
        <time>2015-03-21T12:21:32Z</time>
      </trkpt>
      <trkpt lat="39.8556950" lon="-8.4059040">
        <ele>448.0</ele>
        <time>2015-03-21T12:21:42Z</time>
      </trkpt>
      <trkpt lat="39.8558580" lon="-8.4061310">
        <ele>448.0</ele>
        <time>2015-03-21T12:21:47Z</time>
      </trkpt>
      <trkpt lat="39.8559670" lon="-8.4065060">
        <ele>448.1</ele>
        <time>2015-03-21T12:21:58Z</time>
      </trkpt>
      <trkpt lat="39.8559850" lon="-8.4065840">
        <ele>448.2</ele>
        <time>2015-03-21T12:22:34Z</time>
      </trkpt>
      <trkpt lat="39.8560340" lon="-8.4068460">
        <ele>448.8</ele>
        <time>2015-03-21T12:22:43Z</time>
      </trkpt>
      <trkpt lat="39.8560840" lon="-8.4074250">
        <ele>450.9</ele>
        <time>2015-03-21T12:23:01Z</time>
      </trkpt>
      <trkpt lat="39.8561300" lon="-8.4081360">
        <ele>452.3</ele>
        <time>2015-03-21T12:23:22Z</time>
      </trkpt>
      <trkpt lat="39.8562340" lon="-8.4088820">
        <ele>450.8</ele>
        <time>2015-03-21T12:23:36Z</time>
      </trkpt>
      <trkpt lat="39.8562940" lon="-8.4093750">
        <ele>448.1</ele>
        <time>2015-03-21T12:23:42Z</time>
      </trkpt>
      <trkpt lat="39.8564200" lon="-8.4097480">
        <ele>445.9</ele>
        <time>2015-03-21T12:23:46Z</time>
      </trkpt>
      <trkpt lat="39.8568530" lon="-8.4104660">
        <ele>441.0</ele>
        <time>2015-03-21T12:23:54Z</time>
      </trkpt>
      <trkpt lat="39.8571640" lon="-8.4109680">
        <ele>437.2</ele>
        <time>2015-03-21T12:23:59Z</time>
      </trkpt>
      <trkpt lat="39.8573670" lon="-8.4112970">
        <ele>434.2</ele>
        <time>2015-03-21T12:24:02Z</time>
      </trkpt>
      <trkpt lat="39.8574950" lon="-8.4115010">
        <ele>432.3</ele>
        <time>2015-03-21T12:24:04Z</time>
      </trkpt>
      <trkpt lat="39.8576520" lon="-8.4119520">
        <ele>428.2</ele>
        <time>2015-03-21T12:24:08Z</time>
      </trkpt>
      <trkpt lat="39.8577260" lon="-8.4123660">
        <ele>424.5</ele>
        <time>2015-03-21T12:24:11Z</time>
      </trkpt>
      <trkpt lat="39.8578260" lon="-8.4128000">
        <ele>420.1</ele>
        <time>2015-03-21T12:24:14Z</time>
      </trkpt>
      <trkpt lat="39.8579070" lon="-8.4131010">
        <ele>418.0</ele>
        <time>2015-03-21T12:24:16Z</time>
      </trkpt>
      <trkpt lat="39.8580380" lon="-8.4135790">
        <ele>413.0</ele>
        <time>2015-03-21T12:24:19Z</time>
      </trkpt>
      <trkpt lat="39.8581630" lon="-8.4140130">
        <ele>407.9</ele>
        <time>2015-03-21T12:24:22Z</time>
      </trkpt>
      <trkpt lat="39.8583180" lon="-8.4144530">
        <ele>403.8</ele>
        <time>2015-03-21T12:24:26Z</time>
      </trkpt>
      <trkpt lat="39.8584360" lon="-8.4147830">
        <ele>399.7</ele>
        <time>2015-03-21T12:24:31Z</time>
      </trkpt>
      <trkpt lat="39.8585110" lon="-8.4149890">
        <ele>397.6</ele>
        <time>2015-03-21T12:24:37Z</time>
      </trkpt>
      <trkpt lat="39.8585750" lon="-8.4151540">
        <ele>396.1</ele>
        <time>2015-03-21T12:24:40Z</time>
      </trkpt>
      <trkpt lat="39.8587590" lon="-8.4156370">
        <ele>391.8</ele>
        <time>2015-03-21T12:24:46Z</time>
      </trkpt>
      <trkpt lat="39.8588230" lon="-8.4158080">
        <ele>390.5</ele>
        <time>2015-03-21T12:24:48Z</time>
      </trkpt>
      <trkpt lat="39.8590050" lon="-8.4161170">
        <ele>387.5</ele>
        <time>2015-03-21T12:24:52Z</time>
      </trkpt>
      <trkpt lat="39.8592230" lon="-8.4163060">
        <ele>384.9</ele>
        <time>2015-03-21T12:24:56Z</time>
      </trkpt>
      <trkpt lat="39.8594390" lon="-8.4161710">
        <ele>381.8</ele>
        <time>2015-03-21T12:25:04Z</time>
      </trkpt>
      <trkpt lat="39.8594450" lon="-8.4159330">
        <ele>380.7</ele>
        <time>2015-03-21T12:25:08Z</time>
      </trkpt>
      <trkpt lat="39.8594590" lon="-8.4157930">
        <ele>380.2</ele>
        <time>2015-03-21T12:25:10Z</time>
      </trkpt>
      <trkpt lat="39.8595800" lon="-8.4155240">
        <ele>378.9</ele>
        <time>2015-03-21T12:25:14Z</time>
      </trkpt>
      <trkpt lat="39.8598110" lon="-8.4155280">
        <ele>377.7</ele>
        <time>2015-03-21T12:25:18Z</time>
      </trkpt>
      <trkpt lat="39.8606530" lon="-8.4159810">
        <ele>375.1</ele>
        <time>2015-03-21T12:25:31Z</time>
      </trkpt>
      <trkpt lat="39.8610960" lon="-8.4160440">
        <ele>375.3</ele>
        <time>2015-03-21T12:25:41Z</time>
      </trkpt>
      <trkpt lat="39.8614590" lon="-8.4160540">
        <ele>374.9</ele>
        <time>2015-03-21T12:25:49Z</time>
      </trkpt>
      <trkpt lat="39.8616490" lon="-8.4161190">
        <ele>374.1</ele>
        <time>2015-03-21T12:25:53Z</time>
      </trkpt>
      <trkpt lat="39.8617530" lon="-8.4161900">
        <ele>373.4</ele>
        <time>2015-03-21T12:25:55Z</time>
      </trkpt>
      <trkpt lat="39.8620070" lon="-8.4163990">
        <ele>370.6</ele>
        <time>2015-03-21T12:25:59Z</time>
      </trkpt>
      <trkpt lat="39.8621600" lon="-8.4165040">
        <ele>369.1</ele>
        <time>2015-03-21T12:26:01Z</time>
      </trkpt>
      <trkpt lat="39.8623640" lon="-8.4166270">
        <ele>367.0</ele>
        <time>2015-03-21T12:26:04Z</time>
      </trkpt>
      <trkpt lat="39.8625600" lon="-8.4168310">
        <ele>364.2</ele>
        <time>2015-03-21T12:26:08Z</time>
      </trkpt>
      <trkpt lat="39.8625990" lon="-8.4168960">
        <ele>363.5</ele>
        <time>2015-03-21T12:26:09Z</time>
      </trkpt>
      <trkpt lat="39.8627580" lon="-8.4171610">
        <ele>359.9</ele>
        <time>2015-03-21T12:26:13Z</time>
      </trkpt>
      <trkpt lat="39.8628400" lon="-8.4172910">
        <ele>358.1</ele>
        <time>2015-03-21T12:26:15Z</time>
      </trkpt>
      <trkpt lat="39.8631370" lon="-8.4174840">
        <ele>353.3</ele>
        <time>2015-03-21T12:26:20Z</time>
      </trkpt>
      <trkpt lat="39.8632770" lon="-8.4175140">
        <ele>351.7</ele>
        <time>2015-03-21T12:26:22Z</time>
      </trkpt>
      <trkpt lat="39.8635620" lon="-8.4177040">
        <ele>349.0</ele>
        <time>2015-03-21T12:26:26Z</time>
      </trkpt>
      <trkpt lat="39.8638930" lon="-8.4179260">
        <ele>346.7</ele>
        <time>2015-03-21T12:26:30Z</time>
      </trkpt>
      <trkpt lat="39.8646300" lon="-8.4182400">
        <ele>343.6</ele>
        <time>2015-03-21T12:26:38Z</time>
      </trkpt>
      <trkpt lat="39.8655500" lon="-8.4186800">
        <ele>342.5</ele>
        <time>2015-03-21T12:26:50Z</time>
      </trkpt>
      <trkpt lat="39.8658820" lon="-8.4188980">
        <ele>342.9</ele>
        <time>2015-03-21T12:26:56Z</time>
      </trkpt>
      <trkpt lat="39.8664310" lon="-8.4193690">
        <ele>342.9</ele>
        <time>2015-03-21T12:27:11Z</time>
      </trkpt>
      <trkpt lat="39.8666470" lon="-8.4196130">
        <ele>342.4</ele>
        <time>2015-03-21T12:27:17Z</time>
      </trkpt>
      <trkpt lat="39.8667660" lon="-8.4197200">
        <ele>342.7</ele>
        <time>2015-03-21T12:27:20Z</time>
      </trkpt>
      <trkpt lat="39.8672730" lon="-8.4198600">
        <ele>343.1</ele>
        <time>2015-03-21T12:27:33Z</time>
      </trkpt>
      <trkpt lat="39.8678040" lon="-8.4200020">
        <ele>343.0</ele>
        <time>2015-03-21T12:27:46Z</time>
      </trkpt>
      <trkpt lat="39.8685880" lon="-8.4202790">
        <ele>342.3</ele>
        <time>2015-03-21T12:28:05Z</time>
      </trkpt>
      <trkpt lat="39.8690230" lon="-8.4204640">
        <ele>341.2</ele>
        <time>2015-03-21T12:28:18Z</time>
      </trkpt>
      <trkpt lat="39.8695080" lon="-8.4210220">
        <ele>335.6</ele>
        <time>2015-03-21T12:28:29Z</time>
      </trkpt>
      <trkpt lat="39.8696050" lon="-8.4211500">
        <ele>334.3</ele>
        <time>2015-03-21T12:28:31Z</time>
      </trkpt>
      <trkpt lat="39.8696410" lon="-8.4211990">
        <ele>333.8</ele>
        <time>2015-03-21T12:28:32Z</time>
      </trkpt>
      <trkpt lat="39.8698890" lon="-8.4213490">
        <ele>331.6</ele>
        <time>2015-03-21T12:28:38Z</time>
      </trkpt>
      <trkpt lat="39.8702120" lon="-8.4213520">
        <ele>330.4</ele>
        <time>2015-03-21T12:28:44Z</time>
      </trkpt>
      <trkpt lat="39.8710360" lon="-8.4214210">
        <ele>329.4</ele>
        <time>2015-03-21T12:29:00Z</time>
      </trkpt>
      <trkpt lat="39.8712160" lon="-8.4213640">
        <ele>328.8</ele>
        <time>2015-03-21T12:29:04Z</time>
      </trkpt>
      <trkpt lat="39.8713610" lon="-8.4213640">
        <ele>328.2</ele>
        <time>2015-03-21T12:29:07Z</time>
      </trkpt>
      <trkpt lat="39.8715900" lon="-8.4214370">
        <ele>327.3</ele>
        <time>2015-03-21T12:29:11Z</time>
      </trkpt>
      <trkpt lat="39.8718760" lon="-8.4214570">
        <ele>326.3</ele>
        <time>2015-03-21T12:29:15Z</time>
      </trkpt>
      <trkpt lat="39.8727130" lon="-8.4213060">
        <ele>323.9</ele>
        <time>2015-03-21T12:29:27Z</time>
      </trkpt>
      <trkpt lat="39.8736000" lon="-8.4213160">
        <ele>323.7</ele>
        <time>2015-03-21T12:29:39Z</time>
      </trkpt>
      <trkpt lat="39.8742560" lon="-8.4212680">
        <ele>324.2</ele>
        <time>2015-03-21T12:29:52Z</time>
      </trkpt>
      <trkpt lat="39.8747330" lon="-8.4212790">
        <ele>326.2</ele>
        <time>2015-03-21T12:30:07Z</time>
      </trkpt>
      <trkpt lat="39.8750290" lon="-8.4212720">
        <ele>325.1</ele>
        <time>2015-03-21T12:30:14Z</time>
      </trkpt>
      <trkpt lat="39.8751990" lon="-8.4212690">
        <ele>324.5</ele>
        <time>2015-03-21T12:30:17Z</time>
      </trkpt>
      <trkpt lat="39.8759150" lon="-8.4214170">
        <ele>324.2</ele>
        <time>2015-03-21T12:30:31Z</time>
      </trkpt>
      <trkpt lat="39.8765370" lon="-8.4214640">
        <ele>324.6</ele>
        <time>2015-03-21T12:30:46Z</time>
      </trkpt>
      <trkpt lat="39.8768140" lon="-8.4214180">
        <ele>325.1</ele>
        <time>2015-03-21T12:30:57Z</time>
      </trkpt>
      <trkpt lat="39.8770810" lon="-8.4213740">
        <ele>325.6</ele>
        <time>2015-03-21T12:31:10Z</time>
      </trkpt>
      <trkpt lat="39.8771630" lon="-8.4213820">
        <ele>325.8</ele>
        <time>2015-03-21T12:31:36Z</time>
      </trkpt>
      <trkpt lat="39.8773680" lon="-8.4213870">
        <ele>326.5</ele>
        <time>2015-03-21T12:31:48Z</time>
      </trkpt>
      <trkpt lat="39.8775180" lon="-8.4213450">
        <ele>327.2</ele>
        <time>2015-03-21T12:31:59Z</time>
      </trkpt>
      <trkpt lat="39.8777400" lon="-8.4213520">
        <ele>328.0</ele>
        <time>2015-03-21T12:32:13Z</time>
      </trkpt>
      <trkpt lat="39.8778700" lon="-8.4213780">
        <ele>328.5</ele>
        <time>2015-03-21T12:32:21Z</time>
      </trkpt>
      <trkpt lat="39.8780900" lon="-8.4214080">
        <ele>328.9</ele>
        <time>2015-03-21T12:32:34Z</time>
      </trkpt>
      <trkpt lat="39.8784110" lon="-8.4214010">
        <ele>329.0</ele>
        <time>2015-03-21T12:32:48Z</time>
      </trkpt>
      <trkpt lat="39.8787910" lon="-8.4214410">
        <ele>329.2</ele>
        <time>2015-03-21T12:33:03Z</time>
      </trkpt>
      <trkpt lat="39.8790640" lon="-8.4214650">
        <ele>329.6</ele>
        <time>2015-03-21T12:33:17Z</time>
      </trkpt>
      <trkpt lat="39.8791410" lon="-8.4214750">
        <ele>329.7</ele>
        <time>2015-03-21T12:33:40Z</time>
      </trkpt>
      <trkpt lat="39.8794350" lon="-8.4215400">
        <ele>330.5</ele>
        <time>2015-03-21T12:33:54Z</time>
      </trkpt>
      <trkpt lat="39.8797000" lon="-8.4215420">
        <ele>331.3</ele>
        <time>2015-03-21T12:34:07Z</time>
      </trkpt>
      <trkpt lat="39.8798270" lon="-8.4215570">
        <ele>331.9</ele>
        <time>2015-03-21T12:34:13Z</time>
      </trkpt>
      <trkpt lat="39.8799490" lon="-8.4215660">
        <ele>332.5</ele>
        <time>2015-03-21T12:34:21Z</time>
      </trkpt>
      <trkpt lat="39.8802550" lon="-8.4216550">
        <ele>334.3</ele>
        <time>2015-03-21T12:34:36Z</time>
      </trkpt>
      <trkpt lat="39.8806160" lon="-8.4217330">
        <ele>335.9</ele>
        <time>2015-03-21T12:34:52Z</time>
      </trkpt>
      <trkpt lat="39.8811630" lon="-8.4217950">
        <ele>336.9</ele>
        <time>2015-03-21T12:35:15Z</time>
      </trkpt>
      <trkpt lat="39.8817630" lon="-8.4218430">
        <ele>336.6</ele>
        <time>2015-03-21T12:35:38Z</time>
      </trkpt>
      <trkpt lat="39.8819710" lon="-8.4221300">
        <ele>335.9</ele>
        <time>2015-03-21T12:35:49Z</time>
      </trkpt>
      <trkpt lat="39.8822270" lon="-8.4221300">
        <ele>336.2</ele>
        <time>2015-03-21T12:36:02Z</time>
      </trkpt>
      <trkpt lat="39.8825000" lon="-8.4220920">
        <ele>336.8</ele>
        <time>2015-03-21T12:36:15Z</time>
      </trkpt>
      <trkpt lat="39.8828290" lon="-8.4220960">
        <ele>337.2</ele>
        <time>2015-03-21T12:36:29Z</time>
      </trkpt>
      <trkpt lat="39.8831840" lon="-8.4221850">
        <ele>336.5</ele>
        <time>2015-03-21T12:36:43Z</time>
      </trkpt>
      <trkpt lat="39.8835470" lon="-8.4224510">
        <ele>334.0</ele>
        <time>2015-03-21T12:36:58Z</time>
      </trkpt>
      <trkpt lat="39.8837190" lon="-8.4226030">
        <ele>331.2</ele>
        <time>2015-03-21T12:37:06Z</time>
      </trkpt>
      <trkpt lat="39.8840470" lon="-8.4227600">
        <ele>328.4</ele>
        <time>2015-03-21T12:37:18Z</time>
      </trkpt>
      <trkpt lat="39.8842900" lon="-8.4228300">
        <ele>327.4</ele>
        <time>2015-03-21T12:37:47Z</time>
      </trkpt>
      <trkpt lat="39.8846040" lon="-8.4229010">
        <ele>326.2</ele>
        <time>2015-03-21T12:37:58Z</time>
      </trkpt>
      <trkpt lat="39.8848830" lon="-8.4231120">
        <ele>325.5</ele>
        <time>2015-03-21T12:38:10Z</time>
      </trkpt>
      <trkpt lat="39.8850960" lon="-8.4231750">
        <ele>324.8</ele>
        <time>2015-03-21T12:38:17Z</time>
      </trkpt>
      <trkpt lat="39.8853590" lon="-8.4235840">
        <ele>321.8</ele>
        <time>2015-03-21T12:38:29Z</time>
      </trkpt>
      <trkpt lat="39.8855810" lon="-8.4239850">
        <ele>320.7</ele>
        <time>2015-03-21T12:38:40Z</time>
      </trkpt>
      <trkpt lat="39.8856320" lon="-8.4238970">
        <ele>321.2</ele>
        <time>2015-03-21T12:38:50Z</time>
      </trkpt>
      <trkpt lat="39.8856870" lon="-8.4238650">
        <ele>321.7</ele>
        <time>2015-03-21T12:38:56Z</time>
      </trkpt>
      <trkpt lat="39.8858140" lon="-8.4238070">
        <ele>323.1</ele>
        <time>2015-03-21T12:39:09Z</time>
      </trkpt>
      <trkpt lat="39.8860240" lon="-8.4237330">
        <ele>325.1</ele>
        <time>2015-03-21T12:39:21Z</time>
      </trkpt>
      <trkpt lat="39.8862700" lon="-8.4235950">
        <ele>326.9</ele>
        <time>2015-03-21T12:39:35Z</time>
      </trkpt>
      <trkpt lat="39.8862930" lon="-8.4233290">
        <ele>328.9</ele>
        <time>2015-03-21T12:39:48Z</time>
      </trkpt>
      <trkpt lat="39.8863330" lon="-8.4231930">
        <ele>329.8</ele>
        <time>2015-03-21T12:39:55Z</time>
      </trkpt>
      <trkpt lat="39.8865120" lon="-8.4228160">
        <ele>331.0</ele>
        <time>2015-03-21T12:40:12Z</time>
      </trkpt>
      <trkpt lat="39.8866060" lon="-8.4227260">
        <ele>331.0</ele>
        <time>2015-03-21T12:40:18Z</time>
      </trkpt>
      <trkpt lat="39.8866360" lon="-8.4225230">
        <ele>330.8</ele>
        <time>2015-03-21T12:40:23Z</time>
      </trkpt>
      <trkpt lat="39.8866450" lon="-8.4221570">
        <ele>330.7</ele>
        <time>2015-03-21T12:40:35Z</time>
      </trkpt>
      <trkpt lat="39.8868850" lon="-8.4218280">
        <ele>330.8</ele>
        <time>2015-03-21T12:40:46Z</time>
      </trkpt>
      <trkpt lat="39.8871780" lon="-8.4216410">
        <ele>332.0</ele>
        <time>2015-03-21T12:41:01Z</time>
      </trkpt>
      <trkpt lat="39.8873040" lon="-8.4215800">
        <ele>332.8</ele>
        <time>2015-03-21T12:41:08Z</time>
      </trkpt>
      <trkpt lat="39.8874850" lon="-8.4212540">
        <ele>334.2</ele>
        <time>2015-03-21T12:41:22Z</time>
      </trkpt>
      <trkpt lat="39.8877010" lon="-8.4209390">
        <ele>336.0</ele>
        <time>2015-03-21T12:41:38Z</time>
      </trkpt>
      <trkpt lat="39.8878500" lon="-8.4207620">
        <ele>336.8</ele>
        <time>2015-03-21T12:41:50Z</time>
      </trkpt>
      <trkpt lat="39.8879310" lon="-8.4207130">
        <ele>336.9</ele>
        <time>2015-03-21T12:41:55Z</time>
      </trkpt>
      <trkpt lat="39.8881580" lon="-8.4204080">
        <ele>337.5</ele>
        <time>2015-03-21T12:42:08Z</time>
      </trkpt>
      <trkpt lat="39.8883250" lon="-8.4202430">
        <ele>338.8</ele>
        <time>2015-03-21T12:42:20Z</time>
      </trkpt>
      <trkpt lat="39.8883780" lon="-8.4202120">
        <ele>339.3</ele>
        <time>2015-03-21T12:42:23Z</time>
      </trkpt>
      <trkpt lat="39.8884290" lon="-8.4201450">
        <ele>339.9</ele>
        <time>2015-03-21T12:42:27Z</time>
      </trkpt>
      <trkpt lat="39.8885450" lon="-8.4199810">
        <ele>341.2</ele>
        <time>2015-03-21T12:42:36Z</time>
      </trkpt>
      <trkpt lat="39.8886480" lon="-8.4199070">
        <ele>342.0</ele>
        <time>2015-03-21T12:42:43Z</time>
      </trkpt>
      <trkpt lat="39.8888630" lon="-8.4196690">
        <ele>344.4</ele>
        <time>2015-03-21T12:43:00Z</time>
      </trkpt>
      <trkpt lat="39.8889660" lon="-8.4195330">
        <ele>346.0</ele>
        <time>2015-03-21T12:43:10Z</time>
      </trkpt>
      <trkpt lat="39.8891500" lon="-8.4194760">
        <ele>347.6</ele>
        <time>2015-03-21T12:43:24Z</time>
      </trkpt>
      <trkpt lat="39.8894820" lon="-8.4196200">
        <ele>349.2</ele>
        <time>2015-03-21T12:43:42Z</time>
      </trkpt>
      <trkpt lat="39.8897350" lon="-8.4197160">
        <ele>350.1</ele>
        <time>2015-03-21T12:43:55Z</time>
      </trkpt>
      <trkpt lat="39.8899900" lon="-8.4196860">
        <ele>350.9</ele>
        <time>2015-03-21T12:44:07Z</time>
      </trkpt>
      <trkpt lat="39.8900430" lon="-8.4197660">
        <ele>350.8</ele>
        <time>2015-03-21T12:44:11Z</time>
      </trkpt>
      <trkpt lat="39.8901580" lon="-8.4202690">
        <ele>350.0</ele>
        <time>2015-03-21T12:44:30Z</time>
      </trkpt>
      <trkpt lat="39.8903730" lon="-8.4206060">
        <ele>348.4</ele>
        <time>2015-03-21T12:44:44Z</time>
      </trkpt>
      <trkpt lat="39.8905980" lon="-8.4208600">
        <ele>344.7</ele>
        <time>2015-03-21T12:44:55Z</time>
      </trkpt>
      <trkpt lat="39.8907350" lon="-8.4208720">
        <ele>342.2</ele>
        <time>2015-03-21T12:45:01Z</time>
      </trkpt>
      <trkpt lat="39.8907870" lon="-8.4208670">
        <ele>340.9</ele>
        <time>2015-03-21T12:45:16Z</time>
      </trkpt>
      <trkpt lat="39.8909750" lon="-8.4209500">
        <ele>336.5</ele>
        <time>2015-03-21T12:46:04Z</time>
      </trkpt>
      <trkpt lat="39.8911570" lon="-8.4212050">
        <ele>332.0</ele>
        <time>2015-03-21T12:46:11Z</time>
      </trkpt>
      <trkpt lat="39.8912250" lon="-8.4213320">
        <ele>330.2</ele>
        <time>2015-03-21T12:46:14Z</time>
      </trkpt>
      <trkpt lat="39.8914170" lon="-8.4215310">
        <ele>326.4</ele>
        <time>2015-03-21T12:46:19Z</time>
      </trkpt>
      <trkpt lat="39.8915620" lon="-8.4216350">
        <ele>323.5</ele>
        <time>2015-03-21T12:46:22Z</time>
      </trkpt>
      <trkpt lat="39.8916620" lon="-8.4217000">
        <ele>321.5</ele>
        <time>2015-03-21T12:46:24Z</time>
      </trkpt>
      <trkpt lat="39.8918570" lon="-8.4220090">
        <ele>316.5</ele>
        <time>2015-03-21T12:46:30Z</time>
      </trkpt>
      <trkpt lat="39.8918910" lon="-8.4223490">
        <ele>312.4</ele>
        <time>2015-03-21T12:46:36Z</time>
      </trkpt>
      <trkpt lat="39.8918640" lon="-8.4224780">
        <ele>311.0</ele>
        <time>2015-03-21T12:46:38Z</time>
      </trkpt>
      <trkpt lat="39.8918440" lon="-8.4226160">
        <ele>309.8</ele>
        <time>2015-03-21T12:46:40Z</time>
      </trkpt>
      <trkpt lat="39.8918200" lon="-8.4230790">
        <ele>306.1</ele>
        <time>2015-03-21T12:46:46Z</time>
      </trkpt>
      <trkpt lat="39.8918050" lon="-8.4232790">
        <ele>304.3</ele>
        <time>2015-03-21T12:46:50Z</time>
      </trkpt>
      <trkpt lat="39.8918260" lon="-8.4234080">
        <ele>302.8</ele>
        <time>2015-03-21T12:46:53Z</time>
      </trkpt>
      <trkpt lat="39.8919640" lon="-8.4235730">
        <ele>300.0</ele>
        <time>2015-03-21T12:46:57Z</time>
      </trkpt>
      <trkpt lat="39.8922350" lon="-8.4237450">
        <ele>296.3</ele>
        <time>2015-03-21T12:47:02Z</time>
      </trkpt>
      <trkpt lat="39.8924330" lon="-8.4237440">
        <ele>293.9</ele>
        <time>2015-03-21T12:47:05Z</time>
      </trkpt>
      <trkpt lat="39.8925610" lon="-8.4237230">
        <ele>292.8</ele>
        <time>2015-03-21T12:47:07Z</time>
      </trkpt>
      <trkpt lat="39.8927490" lon="-8.4238010">
        <ele>291.4</ele>
        <time>2015-03-21T12:47:11Z</time>
      </trkpt>
      <trkpt lat="39.8927900" lon="-8.4239150">
        <ele>290.8</ele>
        <time>2015-03-21T12:47:13Z</time>
      </trkpt>
      <trkpt lat="39.8928510" lon="-8.4241130">
        <ele>289.9</ele>
        <time>2015-03-21T12:47:16Z</time>
      </trkpt>
      <trkpt lat="39.8930060" lon="-8.4242330">
        <ele>289.0</ele>
        <time>2015-03-21T12:47:21Z</time>
      </trkpt>
      <trkpt lat="39.8934520" lon="-8.4241300">
        <ele>290.1</ele>
        <time>2015-03-21T12:47:35Z</time>
      </trkpt>
      <trkpt lat="39.8936870" lon="-8.4242410">
        <ele>289.6</ele>
        <time>2015-03-21T12:47:41Z</time>
      </trkpt>
      <trkpt lat="39.8937540" lon="-8.4243110">
        <ele>288.9</ele>
        <time>2015-03-21T12:47:43Z</time>
      </trkpt>
      <trkpt lat="39.8937950" lon="-8.4244300">
        <ele>287.7</ele>
        <time>2015-03-21T12:47:45Z</time>
      </trkpt>
      <trkpt lat="39.8938020" lon="-8.4244970">
        <ele>287.1</ele>
        <time>2015-03-21T12:47:46Z</time>
      </trkpt>
      <trkpt lat="39.8938110" lon="-8.4246420">
        <ele>285.9</ele>
        <time>2015-03-21T12:47:48Z</time>
      </trkpt>
      <trkpt lat="39.8938740" lon="-8.4250180">
        <ele>282.6</ele>
        <time>2015-03-21T12:47:53Z</time>
      </trkpt>
      <trkpt lat="39.8939140" lon="-8.4253180">
        <ele>280.6</ele>
        <time>2015-03-21T12:47:57Z</time>
      </trkpt>
      <trkpt lat="39.8939130" lon="-8.4255680">
        <ele>278.9</ele>
        <time>2015-03-21T12:48:02Z</time>
      </trkpt>
      <trkpt lat="39.8940540" lon="-8.4256680">
        <ele>276.8</ele>
        <time>2015-03-21T12:48:07Z</time>
      </trkpt>
      <trkpt lat="39.8945560" lon="-8.4256430">
        <ele>272.7</ele>
        <time>2015-03-21T12:48:15Z</time>
      </trkpt>
      <trkpt lat="39.8947780" lon="-8.4257400">
        <ele>271.3</ele>
        <time>2015-03-21T12:48:19Z</time>
      </trkpt>
      <trkpt lat="39.8949660" lon="-8.4258890">
        <ele>269.6</ele>
        <time>2015-03-21T12:48:22Z</time>
      </trkpt>
      <trkpt lat="39.8952210" lon="-8.4259670">
        <ele>267.2</ele>
        <time>2015-03-21T12:48:26Z</time>
      </trkpt>
      <trkpt lat="39.8953180" lon="-8.4259670">
        <ele>266.3</ele>
        <time>2015-03-21T12:48:28Z</time>
      </trkpt>
      <trkpt lat="39.8955630" lon="-8.4259110">
        <ele>266.0</ele>
        <time>2015-03-21T12:48:37Z</time>
      </trkpt>
      <trkpt lat="39.8956730" lon="-8.4259170">
        <ele>266.6</ele>
        <time>2015-03-21T12:48:44Z</time>
      </trkpt>
      <trkpt lat="39.8957640" lon="-8.4259270">
        <ele>267.7</ele>
        <time>2015-03-21T12:48:51Z</time>
      </trkpt>
      <trkpt lat="39.8958680" lon="-8.4259570">
        <ele>268.9</ele>
        <time>2015-03-21T12:48:58Z</time>
      </trkpt>
      <trkpt lat="39.8960430" lon="-8.4259970">
        <ele>271.0</ele>
        <time>2015-03-21T12:49:11Z</time>
      </trkpt>
      <trkpt lat="39.8961230" lon="-8.4260030">
        <ele>272.1</ele>
        <time>2015-03-21T12:49:17Z</time>
      </trkpt>
      <trkpt lat="39.8963550" lon="-8.4259930">
        <ele>274.7</ele>
        <time>2015-03-21T12:49:35Z</time>
      </trkpt>
      <trkpt lat="39.8964110" lon="-8.4259730">
        <ele>275.5</ele>
        <time>2015-03-21T12:49:40Z</time>
      </trkpt>
      <trkpt lat="39.8965890" lon="-8.4259250">
        <ele>277.6</ele>
        <time>2015-03-21T12:49:56Z</time>
      </trkpt>
      <trkpt lat="39.8966850" lon="-8.4259180">
        <ele>278.4</ele>
        <time>2015-03-21T12:50:03Z</time>
      </trkpt>
      <trkpt lat="39.8967900" lon="-8.4259100">
        <ele>279.3</ele>
        <time>2015-03-21T12:50:10Z</time>
      </trkpt>
      <trkpt lat="39.8969240" lon="-8.4258980">
        <ele>280.4</ele>
        <time>2015-03-21T12:50:20Z</time>
      </trkpt>
      <trkpt lat="39.8971300" lon="-8.4259220">
        <ele>282.2</ele>
        <time>2015-03-21T12:50:35Z</time>
      </trkpt>
      <trkpt lat="39.8973690" lon="-8.4259940">
        <ele>284.1</ele>
        <time>2015-03-21T12:50:52Z</time>
      </trkpt>
      <trkpt lat="39.8975640" lon="-8.4260270">
        <ele>285.5</ele>
        <time>2015-03-21T12:51:06Z</time>
      </trkpt>
      <trkpt lat="39.8977980" lon="-8.4260780">
        <ele>287.1</ele>
        <time>2015-03-21T12:51:22Z</time>
      </trkpt>
      <trkpt lat="39.8980840" lon="-8.4259960">
        <ele>289.3</ele>
        <time>2015-03-21T12:51:40Z</time>
      </trkpt>
      <trkpt lat="39.8982880" lon="-8.4260520">
        <ele>289.5</ele>
        <time>2015-03-21T12:51:53Z</time>
      </trkpt>
      <trkpt lat="39.8985680" lon="-8.4262330">
        <ele>289.3</ele>
        <time>2015-03-21T12:52:07Z</time>
      </trkpt>
      <trkpt lat="39.8989250" lon="-8.4263310">
        <ele>288.7</ele>
        <time>2015-03-21T12:52:22Z</time>
      </trkpt>
      <trkpt lat="39.8992430" lon="-8.4261700">
        <ele>287.0</ele>
        <time>2015-03-21T12:52:33Z</time>
      </trkpt>
      <trkpt lat="39.8997330" lon="-8.4262420">
        <ele>283.5</ele>
        <time>2015-03-21T12:52:41Z</time>
      </trkpt>
      <trkpt lat="39.9000070" lon="-8.4264250">
        <ele>281.5</ele>
        <time>2015-03-21T12:52:45Z</time>
      </trkpt>
      <trkpt lat="39.9003090" lon="-8.4264880">
        <ele>278.2</ele>
        <time>2015-03-21T12:52:49Z</time>
      </trkpt>
      <trkpt lat="39.9006110" lon="-8.4265210">
        <ele>276.0</ele>
        <time>2015-03-21T12:52:52Z</time>
      </trkpt>
      <trkpt lat="39.9009600" lon="-8.4265940">
        <ele>273.7</ele>
        <time>2015-03-21T12:52:55Z</time>
      </trkpt>
      <trkpt lat="39.9013180" lon="-8.4266110">
        <ele>270.1</ele>
        <time>2015-03-21T12:52:58Z</time>
      </trkpt>
      <trkpt lat="39.9015120" lon="-8.4266250">
        <ele>267.8</ele>
        <time>2015-03-21T12:53:00Z</time>
      </trkpt>
      <trkpt lat="39.9018210" lon="-8.4268160">
        <ele>264.3</ele>
        <time>2015-03-21T12:53:04Z</time>
      </trkpt>
      <trkpt lat="39.9020210" lon="-8.4270280">
        <ele>262.5</ele>
        <time>2015-03-21T12:53:07Z</time>
      </trkpt>
      <trkpt lat="39.9021750" lon="-8.4270410">
        <ele>261.9</ele>
        <time>2015-03-21T12:53:09Z</time>
      </trkpt>
      <trkpt lat="39.9024850" lon="-8.4271000">
        <ele>261.5</ele>
        <time>2015-03-21T12:53:14Z</time>
      </trkpt>
      <trkpt lat="39.9025610" lon="-8.4271490">
        <ele>261.5</ele>
        <time>2015-03-21T12:53:16Z</time>
      </trkpt>
      <trkpt lat="39.9028840" lon="-8.4273690">
        <ele>261.7</ele>
        <time>2015-03-21T12:53:27Z</time>
      </trkpt>
      <trkpt lat="39.9029790" lon="-8.4274050">
        <ele>261.8</ele>
        <time>2015-03-21T12:53:30Z</time>
      </trkpt>
      <trkpt lat="39.9030890" lon="-8.4278110">
        <ele>259.9</ele>
        <time>2015-03-21T12:53:41Z</time>
      </trkpt>
      <trkpt lat="39.9030580" lon="-8.4282330">
        <ele>259.7</ele>
        <time>2015-03-21T12:53:53Z</time>
      </trkpt>
      <trkpt lat="39.9030130" lon="-8.4284440">
        <ele>260.4</ele>
        <time>2015-03-21T12:54:03Z</time>
      </trkpt>
      <trkpt lat="39.9029950" lon="-8.4285090">
        <ele>260.6</ele>
        <time>2015-03-21T12:54:07Z</time>
      </trkpt>
      <trkpt lat="39.9029170" lon="-8.4287630">
        <ele>261.7</ele>
        <time>2015-03-21T12:54:21Z</time>
      </trkpt>
      <trkpt lat="39.9027550" lon="-8.4290050">
        <ele>263.3</ele>
        <time>2015-03-21T12:54:35Z</time>
      </trkpt>
      <trkpt lat="39.9026680" lon="-8.4291990">
        <ele>264.1</ele>
        <time>2015-03-21T12:54:49Z</time>
      </trkpt>
      <trkpt lat="39.9025990" lon="-8.4294430">
        <ele>264.8</ele>
        <time>2015-03-21T12:55:05Z</time>
      </trkpt>
      <trkpt lat="39.9025860" lon="-8.4295640">
        <ele>265.0</ele>
        <time>2015-03-21T12:55:11Z</time>
      </trkpt>
      <trkpt lat="39.9024530" lon="-8.4299030">
        <ele>265.3</ele>
        <time>2015-03-21T12:55:24Z</time>
      </trkpt>
      <trkpt lat="39.9022720" lon="-8.4304310">
        <ele>265.5</ele>
        <time>2015-03-21T12:55:42Z</time>
      </trkpt>
      <trkpt lat="39.9020290" lon="-8.4307440">
        <ele>264.2</ele>
        <time>2015-03-21T12:55:55Z</time>
      </trkpt>
      <trkpt lat="39.9020770" lon="-8.4308870">
        <ele>263.0</ele>
        <time>2015-03-21T12:56:00Z</time>
      </trkpt>
      <trkpt lat="39.9023400" lon="-8.4311320">
        <ele>259.4</ele>
        <time>2015-03-21T12:56:06Z</time>
      </trkpt>
      <trkpt lat="39.9026290" lon="-8.4313410">
        <ele>256.0</ele>
        <time>2015-03-21T12:56:10Z</time>
      </trkpt>
      <trkpt lat="39.9033220" lon="-8.4317540">
        <ele>252.4</ele>
        <time>2015-03-21T12:56:20Z</time>
      </trkpt>
      <trkpt lat="39.9034720" lon="-8.4318640">
        <ele>251.0</ele>
        <time>2015-03-21T12:56:23Z</time>
      </trkpt>
      <trkpt lat="39.9038280" lon="-8.4320130">
        <ele>246.4</ele>
        <time>2015-03-21T12:56:32Z</time>
      </trkpt>
      <trkpt lat="39.9040500" lon="-8.4320350">
        <ele>243.3</ele>
        <time>2015-03-21T12:56:37Z</time>
      </trkpt>
      <trkpt lat="39.9043120" lon="-8.4323260">
        <ele>239.5</ele>
        <time>2015-03-21T12:56:44Z</time>
      </trkpt>
      <trkpt lat="39.9043360" lon="-8.4324150">
        <ele>239.0</ele>
        <time>2015-03-21T12:56:45Z</time>
      </trkpt>
      <trkpt lat="39.9044480" lon="-8.4328360">
        <ele>236.3</ele>
        <time>2015-03-21T12:56:49Z</time>
      </trkpt>
      <trkpt lat="39.9045470" lon="-8.4331640">
        <ele>233.9</ele>
        <time>2015-03-21T12:56:52Z</time>
      </trkpt>
      <trkpt lat="39.9047650" lon="-8.4334700">
        <ele>230.8</ele>
        <time>2015-03-21T12:56:57Z</time>
      </trkpt>
      <trkpt lat="39.9050490" lon="-8.4336240">
        <ele>228.9</ele>
        <time>2015-03-21T12:57:03Z</time>
      </trkpt>
      <trkpt lat="39.9052640" lon="-8.4338540">
        <ele>227.2</ele>
        <time>2015-03-21T12:57:08Z</time>
      </trkpt>
      <trkpt lat="39.9054500" lon="-8.4339860">
        <ele>226.1</ele>
        <time>2015-03-21T12:57:11Z</time>
      </trkpt>
      <trkpt lat="39.9065750" lon="-8.4343180">
        <ele>221.9</ele>
        <time>2015-03-21T12:57:26Z</time>
      </trkpt>
      <trkpt lat="39.9067420" lon="-8.4343520">
        <ele>221.6</ele>
        <time>2015-03-21T12:57:29Z</time>
      </trkpt>
      <trkpt lat="39.9068270" lon="-8.4343660">
        <ele>221.5</ele>
        <time>2015-03-21T12:57:31Z</time>
      </trkpt>
      <trkpt lat="39.9071150" lon="-8.4343950">
        <ele>220.9</ele>
        <time>2015-03-21T12:57:43Z</time>
      </trkpt>
      <trkpt lat="39.9076150" lon="-8.4343010">
        <ele>221.6</ele>
        <time>2015-03-21T12:57:53Z</time>
      </trkpt>
      <trkpt lat="39.9076750" lon="-8.4342880">
        <ele>221.7</ele>
        <time>2015-03-21T12:57:54Z</time>
      </trkpt>
      <trkpt lat="39.9079120" lon="-8.4342690">
        <ele>221.6</ele>
        <time>2015-03-21T12:57:58Z</time>
      </trkpt>
      <trkpt lat="39.9081330" lon="-8.4343860">
        <ele>221.1</ele>
        <time>2015-03-21T12:58:02Z</time>
      </trkpt>
      <trkpt lat="39.9089130" lon="-8.4349340">
        <ele>217.7</ele>
        <time>2015-03-21T12:58:15Z</time>
      </trkpt>
      <trkpt lat="39.9090350" lon="-8.4350210">
        <ele>216.9</ele>
        <time>2015-03-21T12:58:17Z</time>
      </trkpt>
      <trkpt lat="39.9092520" lon="-8.4352810">
        <ele>215.4</ele>
        <time>2015-03-21T12:58:21Z</time>
      </trkpt>
      <trkpt lat="39.9095910" lon="-8.4353620">
        <ele>214.6</ele>
        <time>2015-03-21T12:58:27Z</time>
      </trkpt>
      <trkpt lat="39.9097050" lon="-8.4353890">
        <ele>214.3</ele>
        <time>2015-03-21T12:58:29Z</time>
      </trkpt>
      <trkpt lat="39.9098840" lon="-8.4354260">
        <ele>213.8</ele>
        <time>2015-03-21T12:58:33Z</time>
      </trkpt>
      <trkpt lat="39.9102530" lon="-8.4354640">
        <ele>212.4</ele>
        <time>2015-03-21T12:58:43Z</time>
      </trkpt>
      <trkpt lat="39.9103530" lon="-8.4354370">
        <ele>212.4</ele>
        <time>2015-03-21T12:58:47Z</time>
      </trkpt>
      <trkpt lat="39.9107760" lon="-8.4354040">
        <ele>210.9</ele>
        <time>2015-03-21T12:59:00Z</time>
      </trkpt>
      <trkpt lat="39.9109070" lon="-8.4354170">
        <ele>209.4</ele>
        <time>2015-03-21T12:59:04Z</time>
      </trkpt>
      <trkpt lat="39.9111550" lon="-8.4354070">
        <ele>207.7</ele>
        <time>2015-03-21T12:59:11Z</time>
      </trkpt>
      <trkpt lat="39.9112190" lon="-8.4355040">
        <ele>206.9</ele>
        <time>2015-03-21T12:59:16Z</time>
      </trkpt>
      <trkpt lat="39.9112370" lon="-8.4357900">
        <ele>206.7</ele>
        <time>2015-03-21T12:59:29Z</time>
      </trkpt>
      <trkpt lat="39.9112580" lon="-8.4358510">
        <ele>206.6</ele>
        <time>2015-03-21T12:59:51Z</time>
      </trkpt>
      <trkpt lat="39.9115280" lon="-8.4358610">
        <ele>205.4</ele>
        <time>2015-03-21T13:00:23Z</time>
      </trkpt>
      <trkpt lat="39.9118870" lon="-8.4358050">
        <ele>203.7</ele>
        <time>2015-03-21T13:21:41Z</time>
      </trkpt>
      <trkpt lat="39.9122540" lon="-8.4356310">
        <ele>202.0</ele>
        <time>2015-03-21T13:21:51Z</time>
      </trkpt>
      <trkpt lat="39.9126560" lon="-8.4354330">
        <ele>199.7</ele>
        <time>2015-03-21T13:22:00Z</time>
      </trkpt>
      <trkpt lat="39.9127730" lon="-8.4353690">
        <ele>198.9</ele>
        <time>2015-03-21T13:22:04Z</time>
      </trkpt>
      <trkpt lat="39.9128100" lon="-8.4353150">
        <ele>198.7</ele>
        <time>2015-03-21T13:22:40Z</time>
      </trkpt>
      <trkpt lat="39.9131570" lon="-8.4353490">
        <ele>197.1</ele>
        <time>2015-03-21T13:22:51Z</time>
      </trkpt>
      <trkpt lat="39.9138270" lon="-8.4355840">
        <ele>193.6</ele>
        <time>2015-03-21T13:23:09Z</time>
      </trkpt>
      <trkpt lat="39.9142840" lon="-8.4356990">
        <ele>192.2</ele>
        <time>2015-03-21T13:23:22Z</time>
      </trkpt>
      <trkpt lat="39.9145850" lon="-8.4358640">
        <ele>191.8</ele>
        <time>2015-03-21T13:23:33Z</time>
      </trkpt>
      <trkpt lat="39.9149560" lon="-8.4359050">
        <ele>190.8</ele>
        <time>2015-03-21T13:23:46Z</time>
      </trkpt>
      <trkpt lat="39.9150110" lon="-8.4359230">
        <ele>190.8</ele>
        <time>2015-03-21T13:23:49Z</time>
      </trkpt>
      <trkpt lat="39.9153220" lon="-8.4359630">
        <ele>191.2</ele>
        <time>2015-03-21T13:23:59Z</time>
      </trkpt>
      <trkpt lat="39.9158040" lon="-8.4360280">
        <ele>192.6</ele>
        <time>2015-03-21T13:24:14Z</time>
      </trkpt>
      <trkpt lat="39.9163970" lon="-8.4361830">
        <ele>194.3</ele>
        <time>2015-03-21T13:24:32Z</time>
      </trkpt>
      <trkpt lat="39.9169830" lon="-8.4363290">
        <ele>195.7</ele>
        <time>2015-03-21T13:24:50Z</time>
      </trkpt>
      <trkpt lat="39.9173860" lon="-8.4365020">
        <ele>197.3</ele>
        <time>2015-03-21T13:25:06Z</time>
      </trkpt>
      <trkpt lat="39.9176710" lon="-8.4366580">
        <ele>199.1</ele>
        <time>2015-03-21T13:25:19Z</time>
      </trkpt>
      <trkpt lat="39.9179430" lon="-8.4368560">
        <ele>201.2</ele>
        <time>2015-03-21T13:25:34Z</time>
      </trkpt>
      <trkpt lat="39.9183060" lon="-8.4370630">
        <ele>203.9</ele>
        <time>2015-03-21T13:25:54Z</time>
      </trkpt>
      <trkpt lat="39.9184990" lon="-8.4371300">
        <ele>205.3</ele>
        <time>2015-03-21T13:26:04Z</time>
      </trkpt>
      <trkpt lat="39.9188260" lon="-8.4371630">
        <ele>208.1</ele>
        <time>2015-03-21T13:26:21Z</time>
      </trkpt>
      <trkpt lat="39.9191790" lon="-8.4371890">
        <ele>211.3</ele>
        <time>2015-03-21T13:26:39Z</time>
      </trkpt>
      <trkpt lat="39.9195010" lon="-8.4372100">
        <ele>214.4</ele>
        <time>2015-03-21T13:26:56Z</time>
      </trkpt>
      <trkpt lat="39.9198350" lon="-8.4372360">
        <ele>217.8</ele>
        <time>2015-03-21T13:27:15Z</time>
      </trkpt>
      <trkpt lat="39.9201470" lon="-8.4372780">
        <ele>220.4</ele>
        <time>2015-03-21T13:27:33Z</time>
      </trkpt>
      <trkpt lat="39.9203600" lon="-8.4372790">
        <ele>221.9</ele>
        <time>2015-03-21T13:27:46Z</time>
      </trkpt>
      <trkpt lat="39.9206720" lon="-8.4373220">
        <ele>223.1</ele>
        <time>2015-03-21T13:28:04Z</time>
      </trkpt>
      <trkpt lat="39.9209520" lon="-8.4373420">
        <ele>222.8</ele>
        <time>2015-03-21T13:28:20Z</time>
      </trkpt>
      <trkpt lat="39.9211500" lon="-8.4373900">
        <ele>223.2</ele>
        <time>2015-03-21T13:29:53Z</time>
      </trkpt>
      <trkpt lat="39.9213370" lon="-8.4373910">
        <ele>224.1</ele>
        <time>2015-03-21T13:30:11Z</time>
      </trkpt>
      <trkpt lat="39.9216250" lon="-8.4375080">
        <ele>225.0</ele>
        <time>2015-03-21T13:30:29Z</time>
      </trkpt>
      <trkpt lat="39.9217270" lon="-8.4378590">
        <ele>225.3</ele>
        <time>2015-03-21T13:30:46Z</time>
      </trkpt>
      <trkpt lat="39.9216490" lon="-8.4382080">
        <ele>224.4</ele>
        <time>2015-03-21T13:30:57Z</time>
      </trkpt>
      <trkpt lat="39.9218430" lon="-8.4384300">
        <ele>221.6</ele>
        <time>2015-03-21T13:31:02Z</time>
      </trkpt>
      <trkpt lat="39.9222410" lon="-8.4386850">
        <ele>217.3</ele>
        <time>2015-03-21T13:31:08Z</time>
      </trkpt>
      <trkpt lat="39.9224910" lon="-8.4388080">
        <ele>215.6</ele>
        <time>2015-03-21T13:31:11Z</time>
      </trkpt>
      <trkpt lat="39.9227450" lon="-8.4388340">
        <ele>214.8</ele>
        <time>2015-03-21T13:31:14Z</time>
      </trkpt>
      <trkpt lat="39.9228950" lon="-8.4387870">
        <ele>214.6</ele>
        <time>2015-03-21T13:31:16Z</time>
      </trkpt>
      <trkpt lat="39.9235670" lon="-8.4385260">
        <ele>217.5</ele>
        <time>2015-03-21T13:31:29Z</time>
      </trkpt>
      <trkpt lat="39.9238080" lon="-8.4384410">
        <ele>219.5</ele>
        <time>2015-03-21T13:31:40Z</time>
      </trkpt>
      <trkpt lat="39.9240520" lon="-8.4381990">
        <ele>222.1</ele>
        <time>2015-03-21T13:31:55Z</time>
      </trkpt>
      <trkpt lat="39.9243320" lon="-8.4378540">
        <ele>224.4</ele>
        <time>2015-03-21T13:32:14Z</time>
      </trkpt>
      <trkpt lat="39.9247000" lon="-8.4375160">
        <ele>227.7</ele>
        <time>2015-03-21T13:32:36Z</time>
      </trkpt>
      <trkpt lat="39.9249930" lon="-8.4373220">
        <ele>228.3</ele>
        <time>2015-03-21T13:32:51Z</time>
      </trkpt>
      <trkpt lat="39.9254110" lon="-8.4370630">
        <ele>227.2</ele>
        <time>2015-03-21T13:33:07Z</time>
      </trkpt>
      <trkpt lat="39.9257670" lon="-8.4368650">
        <ele>226.1</ele>
        <time>2015-03-21T13:33:21Z</time>
      </trkpt>
      <trkpt lat="39.9261160" lon="-8.4367410">
        <ele>226.8</ele>
        <time>2015-03-21T13:33:35Z</time>
      </trkpt>
      <trkpt lat="39.9263940" lon="-8.4366090">
        <ele>227.8</ele>
        <time>2015-03-21T13:33:48Z</time>
      </trkpt>
      <trkpt lat="39.9267120" lon="-8.4364650">
        <ele>229.4</ele>
        <time>2015-03-21T13:34:02Z</time>
      </trkpt>
      <trkpt lat="39.9270690" lon="-8.4362520">
        <ele>230.7</ele>
        <time>2015-03-21T13:34:15Z</time>
      </trkpt>
      <trkpt lat="39.9274880" lon="-8.4360570">
        <ele>231.2</ele>
        <time>2015-03-21T13:34:32Z</time>
      </trkpt>
      <trkpt lat="39.9279030" lon="-8.4358420">
        <ele>231.5</ele>
        <time>2015-03-21T13:34:45Z</time>
      </trkpt>
      <trkpt lat="39.9282150" lon="-8.4354260">
        <ele>230.6</ele>
        <time>2015-03-21T13:34:59Z</time>
      </trkpt>
      <trkpt lat="39.9283120" lon="-8.4351600">
        <ele>229.6</ele>
        <time>2015-03-21T13:35:05Z</time>
      </trkpt>
      <trkpt lat="39.9286170" lon="-8.4344030">
        <ele>226.0</ele>
        <time>2015-03-21T13:35:17Z</time>
      </trkpt>
      <trkpt lat="39.9289000" lon="-8.4337700">
        <ele>222.0</ele>
        <time>2015-03-21T13:35:25Z</time>
      </trkpt>
      <trkpt lat="39.9292060" lon="-8.4336250">
        <ele>219.6</ele>
        <time>2015-03-21T13:35:32Z</time>
      </trkpt>
      <trkpt lat="39.9292880" lon="-8.4336370">
        <ele>219.5</ele>
        <time>2015-03-21T13:35:34Z</time>
      </trkpt>
      <trkpt lat="39.9296990" lon="-8.4338870">
        <ele>219.6</ele>
        <time>2015-03-21T13:35:48Z</time>
      </trkpt>
      <trkpt lat="39.9299890" lon="-8.4340370">
        <ele>221.3</ele>
        <time>2015-03-21T13:36:03Z</time>
      </trkpt>
      <trkpt lat="39.9300390" lon="-8.4340700">
        <ele>221.6</ele>
        <time>2015-03-21T13:36:28Z</time>
      </trkpt>
      <trkpt lat="39.9300960" lon="-8.4341300">
        <ele>222.1</ele>
        <time>2015-03-21T13:36:51Z</time>
      </trkpt>
      <trkpt lat="39.9302370" lon="-8.4342650">
        <ele>223.4</ele>
        <time>2015-03-21T13:37:09Z</time>
      </trkpt>
      <trkpt lat="39.9303610" lon="-8.4343730">
        <ele>224.6</ele>
        <time>2015-03-21T13:37:26Z</time>
      </trkpt>
      <trkpt lat="39.9304760" lon="-8.4344360">
        <ele>225.3</ele>
        <time>2015-03-21T13:37:52Z</time>
      </trkpt>
      <trkpt lat="39.9306940" lon="-8.4345000">
        <ele>226.5</ele>
        <time>2015-03-21T13:38:10Z</time>
      </trkpt>
      <trkpt lat="39.9308720" lon="-8.4344910">
        <ele>226.9</ele>
        <time>2015-03-21T13:38:28Z</time>
      </trkpt>
      <trkpt lat="39.9312120" lon="-8.4342950">
        <ele>226.2</ele>
        <time>2015-03-21T13:38:41Z</time>
      </trkpt>
      <trkpt lat="39.9314320" lon="-8.4339870">
        <ele>225.4</ele>
        <time>2015-03-21T13:38:50Z</time>
      </trkpt>
      <trkpt lat="39.9314600" lon="-8.4336100">
        <ele>223.6</ele>
        <time>2015-03-21T13:38:57Z</time>
      </trkpt>
      <trkpt lat="39.9313930" lon="-8.4333530">
        <ele>222.0</ele>
        <time>2015-03-21T13:39:01Z</time>
      </trkpt>
      <trkpt lat="39.9314610" lon="-8.4329810">
        <ele>219.5</ele>
        <time>2015-03-21T13:39:09Z</time>
      </trkpt>
      <trkpt lat="39.9317080" lon="-8.4327260">
        <ele>216.9</ele>
        <time>2015-03-21T13:39:17Z</time>
      </trkpt>
      <trkpt lat="39.9318790" lon="-8.4326710">
        <ele>215.9</ele>
        <time>2015-03-21T13:39:21Z</time>
      </trkpt>
      <trkpt lat="39.9323940" lon="-8.4324840">
        <ele>212.4</ele>
        <time>2015-03-21T13:39:33Z</time>
      </trkpt>
      <trkpt lat="39.9327070" lon="-8.4323520">
        <ele>210.7</ele>
        <time>2015-03-21T13:39:42Z</time>
      </trkpt>
      <trkpt lat="39.9327940" lon="-8.4323270">
        <ele>210.5</ele>
        <time>2015-03-21T13:39:44Z</time>
      </trkpt>
      <trkpt lat="39.9331080" lon="-8.4324820">
        <ele>212.0</ele>
        <time>2015-03-21T13:39:54Z</time>
      </trkpt>
      <trkpt lat="39.9334240" lon="-8.4323430">
        <ele>213.1</ele>
        <time>2015-03-21T13:40:05Z</time>
      </trkpt>
      <trkpt lat="39.9337440" lon="-8.4320850">
        <ele>213.6</ele>
        <time>2015-03-21T13:40:17Z</time>
      </trkpt>
      <trkpt lat="39.9341940" lon="-8.4318570">
        <ele>214.0</ele>
        <time>2015-03-21T13:40:31Z</time>
      </trkpt>
      <trkpt lat="39.9345520" lon="-8.4315270">
        <ele>214.2</ele>
        <time>2015-03-21T13:40:43Z</time>
      </trkpt>
      <trkpt lat="39.9346900" lon="-8.4311150">
        <ele>215.2</ele>
        <time>2015-03-21T13:40:57Z</time>
      </trkpt>
      <trkpt lat="39.9348030" lon="-8.4309130">
        <ele>215.9</ele>
        <time>2015-03-21T13:41:05Z</time>
      </trkpt>
      <trkpt lat="39.9348940" lon="-8.4309550">
        <ele>216.6</ele>
        <time>2015-03-21T13:41:11Z</time>
      </trkpt>
      <trkpt lat="39.9351010" lon="-8.4311620">
        <ele>219.2</ele>
        <time>2015-03-21T13:41:29Z</time>
      </trkpt>
      <trkpt lat="39.9353000" lon="-8.4313530">
        <ele>222.1</ele>
        <time>2015-03-21T13:41:45Z</time>
      </trkpt>
      <trkpt lat="39.9354980" lon="-8.4315210">
        <ele>224.4</ele>
        <time>2015-03-21T13:42:01Z</time>
      </trkpt>
      <trkpt lat="39.9356890" lon="-8.4316170">
        <ele>226.0</ele>
        <time>2015-03-21T13:42:15Z</time>
      </trkpt>
      <trkpt lat="39.9359610" lon="-8.4317050">
        <ele>228.1</ele>
        <time>2015-03-21T13:42:33Z</time>
      </trkpt>
      <trkpt lat="39.9361670" lon="-8.4318070">
        <ele>230.2</ele>
        <time>2015-03-21T13:42:48Z</time>
      </trkpt>
      <trkpt lat="39.9363490" lon="-8.4319190">
        <ele>232.2</ele>
        <time>2015-03-21T13:43:02Z</time>
      </trkpt>
      <trkpt lat="39.9365530" lon="-8.4320610">
        <ele>234.2</ele>
        <time>2015-03-21T13:43:18Z</time>
      </trkpt>
      <trkpt lat="39.9366680" lon="-8.4321800">
        <ele>235.5</ele>
        <time>2015-03-21T13:43:29Z</time>
      </trkpt>
      <trkpt lat="39.9367100" lon="-8.4322200">
        <ele>235.9</ele>
        <time>2015-03-21T13:43:33Z</time>
      </trkpt>
      <trkpt lat="39.9369140" lon="-8.4324120">
        <ele>237.8</ele>
        <time>2015-03-21T13:43:51Z</time>
      </trkpt>
      <trkpt lat="39.9372090" lon="-8.4325880">
        <ele>239.2</ele>
        <time>2015-03-21T13:44:12Z</time>
      </trkpt>
      <trkpt lat="39.9375190" lon="-8.4326290">
        <ele>239.6</ele>
        <time>2015-03-21T13:44:30Z</time>
      </trkpt>
      <trkpt lat="39.9378160" lon="-8.4327120">
        <ele>239.6</ele>
        <time>2015-03-21T13:44:45Z</time>
      </trkpt>
      <trkpt lat="39.9380750" lon="-8.4328340">
        <ele>239.5</ele>
        <time>2015-03-21T13:44:53Z</time>
      </trkpt>
      <trkpt lat="39.9385830" lon="-8.4330190">
        <ele>241.1</ele>
        <time>2015-03-21T13:45:05Z</time>
      </trkpt>
      <trkpt lat="39.9386560" lon="-8.4330410">
        <ele>241.6</ele>
        <time>2015-03-21T13:45:09Z</time>
      </trkpt>
      <trkpt lat="39.9389320" lon="-8.4331270">
        <ele>243.7</ele>
        <time>2015-03-21T13:45:24Z</time>
      </trkpt>
      <trkpt lat="39.9391390" lon="-8.4333820">
        <ele>246.9</ele>
        <time>2015-03-21T13:45:40Z</time>
      </trkpt>
      <trkpt lat="39.9392960" lon="-8.4336990">
        <ele>249.4</ele>
        <time>2015-03-21T13:45:57Z</time>
      </trkpt>
      <trkpt lat="39.9394870" lon="-8.4340340">
        <ele>251.2</ele>
        <time>2015-03-21T13:46:16Z</time>
      </trkpt>
      <trkpt lat="39.9395270" lon="-8.4342740">
        <ele>250.9</ele>
        <time>2015-03-21T13:46:22Z</time>
      </trkpt>
      <trkpt lat="39.9396140" lon="-8.4347130">
        <ele>249.8</ele>
        <time>2015-03-21T13:46:27Z</time>
      </trkpt>
      <trkpt lat="39.9396280" lon="-8.4348050">
        <ele>249.7</ele>
        <time>2015-03-21T13:46:28Z</time>
      </trkpt>
      <trkpt lat="39.9396550" lon="-8.4352410">
        <ele>250.6</ele>
        <time>2015-03-21T13:46:37Z</time>
      </trkpt>
      <trkpt lat="39.9396650" lon="-8.4357110">
        <ele>252.7</ele>
        <time>2015-03-21T13:46:57Z</time>
      </trkpt>
      <trkpt lat="39.9397070" lon="-8.4362050">
        <ele>253.5</ele>
        <time>2015-03-21T13:47:11Z</time>
      </trkpt>
      <trkpt lat="39.9397280" lon="-8.4362710">
        <ele>253.8</ele>
        <time>2015-03-21T13:47:13Z</time>
      </trkpt>
      <trkpt lat="39.9397310" lon="-8.4366520">
        <ele>254.9</ele>
        <time>2015-03-21T13:47:30Z</time>
      </trkpt>
      <trkpt lat="39.9396750" lon="-8.4368770">
        <ele>254.9</ele>
        <time>2015-03-21T13:47:38Z</time>
      </trkpt>
      <trkpt lat="39.9399100" lon="-8.4370350">
        <ele>255.2</ele>
        <time>2015-03-21T13:47:49Z</time>
      </trkpt>
      <trkpt lat="39.9402500" lon="-8.4372890">
        <ele>255.2</ele>
        <time>2015-03-21T13:48:04Z</time>
      </trkpt>
      <trkpt lat="39.9405810" lon="-8.4377600">
        <ele>253.6</ele>
        <time>2015-03-21T13:48:18Z</time>
      </trkpt>
      <trkpt lat="39.9409090" lon="-8.4382860">
        <ele>254.0</ele>
        <time>2015-03-21T13:48:35Z</time>
      </trkpt>
      <trkpt lat="39.9412260" lon="-8.4387210">
        <ele>256.1</ele>
        <time>2015-03-21T13:48:53Z</time>
      </trkpt>
      <trkpt lat="39.9415480" lon="-8.4389270">
        <ele>259.2</ele>
        <time>2015-03-21T13:49:10Z</time>
      </trkpt>
      <trkpt lat="39.9419700" lon="-8.4391730">
        <ele>261.0</ele>
        <time>2015-03-21T13:49:31Z</time>
      </trkpt>
      <trkpt lat="39.9423930" lon="-8.4392840">
        <ele>261.8</ele>
        <time>2015-03-21T13:49:43Z</time>
      </trkpt>
      <trkpt lat="39.9424940" lon="-8.4393160">
        <ele>261.9</ele>
        <time>2015-03-21T13:49:45Z</time>
      </trkpt>
      <trkpt lat="39.9426310" lon="-8.4394790">
        <ele>262.3</ele>
        <time>2015-03-21T13:49:49Z</time>
      </trkpt>
      <trkpt lat="39.9426940" lon="-8.4398320">
        <ele>262.6</ele>
        <time>2015-03-21T13:49:58Z</time>
      </trkpt>
      <trkpt lat="39.9429620" lon="-8.4402880">
        <ele>262.1</ele>
        <time>2015-03-21T13:50:14Z</time>
      </trkpt>
      <trkpt lat="39.9431200" lon="-8.4405660">
        <ele>261.4</ele>
        <time>2015-03-21T13:50:22Z</time>
      </trkpt>
      <trkpt lat="39.9432150" lon="-8.4407670">
        <ele>260.6</ele>
        <time>2015-03-21T13:50:26Z</time>
      </trkpt>
      <trkpt lat="39.9433340" lon="-8.4410460">
        <ele>259.3</ele>
        <time>2015-03-21T13:50:31Z</time>
      </trkpt>
      <trkpt lat="39.9434610" lon="-8.4414820">
        <ele>257.4</ele>
        <time>2015-03-21T13:50:37Z</time>
      </trkpt>
      <trkpt lat="39.9435130" lon="-8.4416610">
        <ele>257.5</ele>
        <time>2015-03-21T13:50:39Z</time>
      </trkpt>
      <trkpt lat="39.9438340" lon="-8.4421150">
        <ele>260.4</ele>
        <time>2015-03-21T13:50:47Z</time>
      </trkpt>
      <trkpt lat="39.9440780" lon="-8.4422600">
        <ele>262.5</ele>
        <time>2015-03-21T13:51:00Z</time>
      </trkpt>
      <trkpt lat="39.9443920" lon="-8.4424230">
        <ele>264.2</ele>
        <time>2015-03-21T13:51:17Z</time>
      </trkpt>
      <trkpt lat="39.9445810" lon="-8.4426800">
        <ele>264.9</ele>
        <time>2015-03-21T13:51:32Z</time>
      </trkpt>
      <trkpt lat="39.9446230" lon="-8.4431030">
        <ele>265.3</ele>
        <time>2015-03-21T13:51:48Z</time>
      </trkpt>
      <trkpt lat="39.9448070" lon="-8.4435820">
        <ele>265.0</ele>
        <time>2015-03-21T13:52:04Z</time>
      </trkpt>
      <trkpt lat="39.9449310" lon="-8.4438260">
        <ele>264.9</ele>
        <time>2015-03-21T13:52:11Z</time>
      </trkpt>
      <trkpt lat="39.9449430" lon="-8.4439420">
        <ele>264.9</ele>
        <time>2015-03-21T13:52:13Z</time>
      </trkpt>
      <trkpt lat="39.9449250" lon="-8.4441170">
        <ele>265.0</ele>
        <time>2015-03-21T13:52:16Z</time>
      </trkpt>
      <trkpt lat="39.9448670" lon="-8.4446560">
        <ele>265.8</ele>
        <time>2015-03-21T13:52:29Z</time>
      </trkpt>
      <trkpt lat="39.9448670" lon="-8.4447700">
        <ele>266.1</ele>
        <time>2015-03-21T13:52:33Z</time>
      </trkpt>
      <trkpt lat="39.9447500" lon="-8.4450670">
        <ele>266.4</ele>
        <time>2015-03-21T13:52:46Z</time>
      </trkpt>
      <trkpt lat="39.9445490" lon="-8.4452570">
        <ele>265.9</ele>
        <time>2015-03-21T13:52:56Z</time>
      </trkpt>
      <trkpt lat="39.9446190" lon="-8.4454050">
        <ele>265.6</ele>
        <time>2015-03-21T13:53:01Z</time>
      </trkpt>
      <trkpt lat="39.9448510" lon="-8.4459390">
        <ele>264.7</ele>
        <time>2015-03-21T13:53:14Z</time>
      </trkpt>
      <trkpt lat="39.9451430" lon="-8.4463160">
        <ele>264.9</ele>
        <time>2015-03-21T13:53:25Z</time>
      </trkpt>
      <trkpt lat="39.9453020" lon="-8.4466590">
        <ele>265.9</ele>
        <time>2015-03-21T13:53:36Z</time>
      </trkpt>
      <trkpt lat="39.9453070" lon="-8.4467700">
        <ele>266.2</ele>
        <time>2015-03-21T13:53:40Z</time>
      </trkpt>
      <trkpt lat="39.9453250" lon="-8.4472400">
        <ele>268.0</ele>
        <time>2015-03-21T13:53:57Z</time>
      </trkpt>
      <trkpt lat="39.9453370" lon="-8.4475270">
        <ele>269.3</ele>
        <time>2015-03-21T13:54:10Z</time>
      </trkpt>
      <trkpt lat="39.9454010" lon="-8.4476590">
        <ele>270.1</ele>
        <time>2015-03-21T13:54:18Z</time>
      </trkpt>
      <trkpt lat="39.9455140" lon="-8.4477740">
        <ele>271.3</ele>
        <time>2015-03-21T13:54:26Z</time>
      </trkpt>
      <trkpt lat="39.9459160" lon="-8.4478980">
        <ele>271.8</ele>
        <time>2015-03-21T13:54:42Z</time>
      </trkpt>
      <trkpt lat="39.9463180" lon="-8.4480700">
        <ele>272.1</ele>
        <time>2015-03-21T13:54:58Z</time>
      </trkpt>
      <trkpt lat="39.9466850" lon="-8.4482820">
        <ele>272.4</ele>
        <time>2015-03-21T13:55:12Z</time>
      </trkpt>
      <trkpt lat="39.9467260" lon="-8.4484130">
        <ele>272.6</ele>
        <time>2015-03-21T13:55:43Z</time>
      </trkpt>
      <trkpt lat="39.9467070" lon="-8.4484830">
        <ele>272.8</ele>
        <time>2015-03-21T13:55:46Z</time>
      </trkpt>
      <trkpt lat="39.9466990" lon="-8.4485510">
        <ele>273.0</ele>
        <time>2015-03-21T13:55:49Z</time>
      </trkpt>
      <trkpt lat="39.9467130" lon="-8.4486230">
        <ele>273.3</ele>
        <time>2015-03-21T13:55:53Z</time>
      </trkpt>
      <trkpt lat="39.9469140" lon="-8.4487910">
        <ele>274.2</ele>
        <time>2015-03-21T13:56:09Z</time>
      </trkpt>
      <trkpt lat="39.9471430" lon="-8.4489750">
        <ele>275.1</ele>
        <time>2015-03-21T13:56:24Z</time>
      </trkpt>
      <trkpt lat="39.9473180" lon="-8.4491020">
        <ele>275.5</ele>
        <time>2015-03-21T13:56:30Z</time>
      </trkpt>
      <trkpt lat="39.9474040" lon="-8.4491280">
        <ele>275.4</ele>
        <time>2015-03-21T13:56:32Z</time>
      </trkpt>
      <trkpt lat="39.9475750" lon="-8.4492530">
        <ele>275.0</ele>
        <time>2015-03-21T13:56:36Z</time>
      </trkpt>
      <trkpt lat="39.9477780" lon="-8.4494740">
        <ele>273.6</ele>
        <time>2015-03-21T13:56:41Z</time>
      </trkpt>
      <trkpt lat="39.9479430" lon="-8.4496730">
        <ele>271.9</ele>
        <time>2015-03-21T13:56:45Z</time>
      </trkpt>
      <trkpt lat="39.9480370" lon="-8.4497640">
        <ele>270.8</ele>
        <time>2015-03-21T13:56:47Z</time>
      </trkpt>
      <trkpt lat="39.9483140" lon="-8.4499470">
        <ele>267.3</ele>
        <time>2015-03-21T13:56:53Z</time>
      </trkpt>
      <trkpt lat="39.9484380" lon="-8.4500380">
        <ele>265.5</ele>
        <time>2015-03-21T13:56:57Z</time>
      </trkpt>
      <trkpt lat="39.9486850" lon="-8.4501500">
        <ele>262.4</ele>
        <time>2015-03-21T13:57:05Z</time>
      </trkpt>
      <trkpt lat="39.9487440" lon="-8.4501970">
        <ele>261.6</ele>
        <time>2015-03-21T13:57:12Z</time>
      </trkpt>
      <trkpt lat="39.9488130" lon="-8.4502590">
        <ele>260.8</ele>
        <time>2015-03-21T13:57:27Z</time>
      </trkpt>
      <trkpt lat="39.9489020" lon="-8.4503420">
        <ele>260.2</ele>
        <time>2015-03-21T13:57:41Z</time>
      </trkpt>
      <trkpt lat="39.9490070" lon="-8.4504290">
        <ele>260.5</ele>
        <time>2015-03-21T13:57:57Z</time>
      </trkpt>
      <trkpt lat="39.9491190" lon="-8.4505240">
        <ele>261.6</ele>
        <time>2015-03-21T13:58:12Z</time>
      </trkpt>
      <trkpt lat="39.9492490" lon="-8.4506480">
        <ele>263.3</ele>
        <time>2015-03-21T13:58:28Z</time>
      </trkpt>
      <trkpt lat="39.9493340" lon="-8.4507030">
        <ele>264.4</ele>
        <time>2015-03-21T13:58:36Z</time>
      </trkpt>
      <trkpt lat="39.9494970" lon="-8.4507890">
        <ele>266.0</ele>
        <time>2015-03-21T13:58:52Z</time>
      </trkpt>
      <trkpt lat="39.9496420" lon="-8.4508150">
        <ele>267.3</ele>
        <time>2015-03-21T13:59:08Z</time>
      </trkpt>
      <trkpt lat="39.9497660" lon="-8.4508360">
        <ele>268.5</ele>
        <time>2015-03-21T13:59:23Z</time>
      </trkpt>
      <trkpt lat="39.9498940" lon="-8.4508670">
        <ele>269.9</ele>
        <time>2015-03-21T13:59:39Z</time>
      </trkpt>
      <trkpt lat="39.9500280" lon="-8.4509200">
        <ele>271.3</ele>
        <time>2015-03-21T13:59:54Z</time>
      </trkpt>
      <trkpt lat="39.9502070" lon="-8.4509690">
        <ele>273.3</ele>
        <time>2015-03-21T14:00:12Z</time>
      </trkpt>
      <trkpt lat="39.9503520" lon="-8.4510010">
        <ele>274.9</ele>
        <time>2015-03-21T14:00:29Z</time>
      </trkpt>
      <trkpt lat="39.9505250" lon="-8.4510120">
        <ele>276.4</ele>
        <time>2015-03-21T14:00:48Z</time>
      </trkpt>
      <trkpt lat="39.9505830" lon="-8.4510050">
        <ele>276.8</ele>
        <time>2015-03-21T14:01:04Z</time>
      </trkpt>
      <trkpt lat="39.9507780" lon="-8.4510660">
        <ele>278.3</ele>
        <time>2015-03-21T14:01:18Z</time>
      </trkpt>
      <trkpt lat="39.9510870" lon="-8.4511030">
        <ele>279.7</ele>
        <time>2015-03-21T14:01:36Z</time>
      </trkpt>
      <trkpt lat="39.9513290" lon="-8.4511730">
        <ele>280.5</ele>
        <time>2015-03-21T14:01:50Z</time>
      </trkpt>
      <trkpt lat="39.9515790" lon="-8.4512590">
        <ele>281.2</ele>
        <time>2015-03-21T14:02:04Z</time>
      </trkpt>
      <trkpt lat="39.9518060" lon="-8.4514450">
        <ele>281.8</ele>
        <time>2015-03-21T14:02:17Z</time>
      </trkpt>
      <trkpt lat="39.9520950" lon="-8.4517600">
        <ele>282.1</ele>
        <time>2015-03-21T14:02:28Z</time>
      </trkpt>
      <trkpt lat="39.9521780" lon="-8.4518040">
        <ele>282.1</ele>
        <time>2015-03-21T14:02:30Z</time>
      </trkpt>
      <trkpt lat="39.9523160" lon="-8.4519850">
        <ele>281.9</ele>
        <time>2015-03-21T14:02:34Z</time>
      </trkpt>
      <trkpt lat="39.9525980" lon="-8.4527540">
        <ele>280.6</ele>
        <time>2015-03-21T14:02:46Z</time>
      </trkpt>
      <trkpt lat="39.9528260" lon="-8.4532330">
        <ele>278.8</ele>
        <time>2015-03-21T14:02:54Z</time>
      </trkpt>
      <trkpt lat="39.9529050" lon="-8.4533760">
        <ele>277.9</ele>
        <time>2015-03-21T14:02:58Z</time>
      </trkpt>
      <trkpt lat="39.9529120" lon="-8.4539330">
        <ele>275.3</ele>
        <time>2015-03-21T14:03:11Z</time>
      </trkpt>
      <trkpt lat="39.9529030" lon="-8.4546310">
        <ele>274.9</ele>
        <time>2015-03-21T14:03:19Z</time>
      </trkpt>
      <trkpt lat="39.9528440" lon="-8.4553680">
        <ele>275.1</ele>
        <time>2015-03-21T14:03:27Z</time>
      </trkpt>
      <trkpt lat="39.9529330" lon="-8.4556790">
        <ele>275.3</ele>
        <time>2015-03-21T14:03:32Z</time>
      </trkpt>
      <trkpt lat="39.9530140" lon="-8.4557920">
        <ele>275.0</ele>
        <time>2015-03-21T14:03:34Z</time>
      </trkpt>
      <trkpt lat="39.9531000" lon="-8.4560380">
        <ele>274.3</ele>
        <time>2015-03-21T14:03:38Z</time>
      </trkpt>
      <trkpt lat="39.9532660" lon="-8.4563560">
        <ele>273.7</ele>
        <time>2015-03-21T14:03:49Z</time>
      </trkpt>
      <trkpt lat="39.9533420" lon="-8.4563970">
        <ele>273.6</ele>
        <time>2015-03-21T14:03:53Z</time>
      </trkpt>
      <trkpt lat="39.9535590" lon="-8.4567700">
        <ele>273.1</ele>
        <time>2015-03-21T14:04:12Z</time>
      </trkpt>
      <trkpt lat="39.9537460" lon="-8.4571260">
        <ele>272.5</ele>
        <time>2015-03-21T14:04:28Z</time>
      </trkpt>
      <trkpt lat="39.9538360" lon="-8.4574810">
        <ele>272.0</ele>
        <time>2015-03-21T14:04:36Z</time>
      </trkpt>
      <trkpt lat="39.9538760" lon="-8.4576060">
        <ele>271.7</ele>
        <time>2015-03-21T14:04:38Z</time>
      </trkpt>
      <trkpt lat="39.9539240" lon="-8.4577230">
        <ele>271.5</ele>
        <time>2015-03-21T14:04:40Z</time>
      </trkpt>
      <trkpt lat="39.9539660" lon="-8.4578970">
        <ele>270.5</ele>
        <time>2015-03-21T14:04:43Z</time>
      </trkpt>
      <trkpt lat="39.9540130" lon="-8.4581700">
        <ele>268.8</ele>
        <time>2015-03-21T14:04:48Z</time>
      </trkpt>
      <trkpt lat="39.9541070" lon="-8.4584390">
        <ele>266.9</ele>
        <time>2015-03-21T14:04:53Z</time>
      </trkpt>
      <trkpt lat="39.9543270" lon="-8.4584470">
        <ele>266.4</ele>
        <time>2015-03-21T14:05:01Z</time>
      </trkpt>
      <trkpt lat="39.9547250" lon="-8.4584110">
        <ele>265.9</ele>
        <time>2015-03-21T14:05:14Z</time>
      </trkpt>
      <trkpt lat="39.9550160" lon="-8.4586150">
        <ele>265.5</ele>
        <time>2015-03-21T14:05:23Z</time>
      </trkpt>
      <trkpt lat="39.9552190" lon="-8.4581920">
        <ele>265.6</ele>
        <time>2015-03-21T14:05:32Z</time>
      </trkpt>
      <trkpt lat="39.9552230" lon="-8.4582750">
        <ele>265.6</ele>
        <time>2015-03-21T14:05:38Z</time>
      </trkpt>
      <trkpt lat="39.9551950" lon="-8.4584310">
        <ele>264.7</ele>
        <time>2015-03-21T14:05:43Z</time>
      </trkpt>
      <trkpt lat="39.9552540" lon="-8.4586930">
        <ele>263.2</ele>
        <time>2015-03-21T14:05:49Z</time>
      </trkpt>
      <trkpt lat="39.9553520" lon="-8.4587960">
        <ele>261.7</ele>
        <time>2015-03-21T14:05:53Z</time>
      </trkpt>
      <trkpt lat="39.9555040" lon="-8.4586550">
        <ele>258.9</ele>
        <time>2015-03-21T14:05:59Z</time>
      </trkpt>
      <trkpt lat="39.9556380" lon="-8.4586040">
        <ele>257.9</ele>
        <time>2015-03-21T14:06:02Z</time>
      </trkpt>
      <trkpt lat="39.9560740" lon="-8.4585510">
        <ele>256.7</ele>
        <time>2015-03-21T14:06:11Z</time>
      </trkpt>
      <trkpt lat="39.9564910" lon="-8.4584990">
        <ele>256.6</ele>
        <time>2015-03-21T14:06:22Z</time>
      </trkpt>
      <trkpt lat="39.9568300" lon="-8.4585610">
        <ele>256.5</ele>
        <time>2015-03-21T14:06:35Z</time>
      </trkpt>
      <trkpt lat="39.9571290" lon="-8.4586560">
        <ele>256.8</ele>
        <time>2015-03-21T14:06:48Z</time>
      </trkpt>
      <trkpt lat="39.9573570" lon="-8.4587770">
        <ele>257.2</ele>
        <time>2015-03-21T14:07:00Z</time>
      </trkpt>
      <trkpt lat="39.9575020" lon="-8.4588690">
        <ele>257.6</ele>
        <time>2015-03-21T14:07:12Z</time>
      </trkpt>
      <trkpt lat="39.9575730" lon="-8.4588720">
        <ele>258.0</ele>
        <time>2015-03-21T14:07:40Z</time>
      </trkpt>
      <trkpt lat="39.9577710" lon="-8.4588590">
        <ele>258.5</ele>
        <time>2015-03-21T14:07:51Z</time>
      </trkpt>
      <trkpt lat="39.9580430" lon="-8.4589080">
        <ele>259.1</ele>
        <time>2015-03-21T14:08:05Z</time>
      </trkpt>
      <trkpt lat="39.9581570" lon="-8.4590120">
        <ele>259.4</ele>
        <time>2015-03-21T14:08:13Z</time>
      </trkpt>
      <trkpt lat="39.9582430" lon="-8.4590840">
        <ele>260.0</ele>
        <time>2015-03-21T14:08:26Z</time>
      </trkpt>
      <trkpt lat="39.9583180" lon="-8.4591490">
        <ele>260.8</ele>
        <time>2015-03-21T14:08:37Z</time>
      </trkpt>
      <trkpt lat="39.9583680" lon="-8.4591790">
        <ele>261.4</ele>
        <time>2015-03-21T14:08:50Z</time>
      </trkpt>
      <trkpt lat="39.9584590" lon="-8.4591910">
        <ele>262.2</ele>
        <time>2015-03-21T14:09:12Z</time>
      </trkpt>
      <trkpt lat="39.9585620" lon="-8.4592120">
        <ele>263.1</ele>
        <time>2015-03-21T14:09:27Z</time>
      </trkpt>
      <trkpt lat="39.9586680" lon="-8.4592760">
        <ele>263.7</ele>
        <time>2015-03-21T14:09:43Z</time>
      </trkpt>
      <trkpt lat="39.9587240" lon="-8.4593030">
        <ele>263.9</ele>
        <time>2015-03-21T14:09:57Z</time>
      </trkpt>
      <trkpt lat="39.9588740" lon="-8.4593430">
        <ele>264.1</ele>
        <time>2015-03-21T14:10:14Z</time>
      </trkpt>
      <trkpt lat="39.9590170" lon="-8.4593480">
        <ele>264.2</ele>
        <time>2015-03-21T14:10:24Z</time>
      </trkpt>
      <trkpt lat="39.9591190" lon="-8.4594000">
        <ele>264.4</ele>
        <time>2015-03-21T14:10:34Z</time>
      </trkpt>
      <trkpt lat="39.9591920" lon="-8.4594160">
        <ele>264.4</ele>
        <time>2015-03-21T14:10:43Z</time>
      </trkpt>
      <trkpt lat="39.9593340" lon="-8.4594270">
        <ele>264.5</ele>
        <time>2015-03-21T14:10:57Z</time>
      </trkpt>
      <trkpt lat="39.9594340" lon="-8.4594500">
        <ele>264.5</ele>
        <time>2015-03-21T14:11:10Z</time>
      </trkpt>
      <trkpt lat="39.9595770" lon="-8.4594750">
        <ele>264.6</ele>
        <time>2015-03-21T14:11:18Z</time>
      </trkpt>
      <trkpt lat="39.9596420" lon="-8.4594840">
        <ele>264.6</ele>
        <time>2015-03-21T14:11:22Z</time>
      </trkpt>
      <trkpt lat="39.9598610" lon="-8.4595240">
        <ele>264.7</ele>
        <time>2015-03-21T14:11:33Z</time>
      </trkpt>
      <trkpt lat="39.9601250" lon="-8.4594300">
        <ele>264.8</ele>
        <time>2015-03-21T14:11:44Z</time>
      </trkpt>
      <trkpt lat="39.9603680" lon="-8.4593660">
        <ele>265.2</ele>
        <time>2015-03-21T14:11:57Z</time>
      </trkpt>
      <trkpt lat="39.9604150" lon="-8.4593540">
        <ele>265.3</ele>
        <time>2015-03-21T14:12:01Z</time>
      </trkpt>
      <trkpt lat="39.9604820" lon="-8.4593670">
        <ele>265.4</ele>
        <time>2015-03-21T14:12:14Z</time>
      </trkpt>
      <trkpt lat="39.9607750" lon="-8.4592350">
        <ele>264.7</ele>
        <time>2015-03-21T14:12:28Z</time>
      </trkpt>
      <trkpt lat="39.9608430" lon="-8.4591870">
        <ele>264.4</ele>
        <time>2015-03-21T14:13:01Z</time>
      </trkpt>
      <trkpt lat="39.9609280" lon="-8.4591050">
        <ele>264.0</ele>
        <time>2015-03-21T14:13:13Z</time>
      </trkpt>
      <trkpt lat="39.9613400" lon="-8.4588650">
        <ele>260.8</ele>
        <time>2015-03-21T14:13:29Z</time>
      </trkpt>
      <trkpt lat="39.9614480" lon="-8.4588390">
        <ele>259.4</ele>
        <time>2015-03-21T14:13:33Z</time>
      </trkpt>
      <trkpt lat="39.9616380" lon="-8.4586300">
        <ele>257.4</ele>
        <time>2015-03-21T14:13:40Z</time>
      </trkpt>
      <trkpt lat="39.9616900" lon="-8.4585570">
        <ele>256.9</ele>
        <time>2015-03-21T14:13:42Z</time>
      </trkpt>
      <trkpt lat="39.9617440" lon="-8.4584710">
        <ele>256.4</ele>
        <time>2015-03-21T14:13:44Z</time>
      </trkpt>
      <trkpt lat="39.9619890" lon="-8.4582030">
        <ele>253.8</ele>
        <time>2015-03-21T14:13:54Z</time>
      </trkpt>
      <trkpt lat="39.9620480" lon="-8.4582220">
        <ele>253.3</ele>
        <time>2015-03-21T14:13:56Z</time>
      </trkpt>
      <trkpt lat="39.9621220" lon="-8.4582450">
        <ele>252.8</ele>
        <time>2015-03-21T14:13:58Z</time>
      </trkpt>
      <trkpt lat="39.9625530" lon="-8.4586050">
        <ele>252.5</ele>
        <time>2015-03-21T14:14:11Z</time>
      </trkpt>
      <trkpt lat="39.9628350" lon="-8.4588650">
        <ele>253.2</ele>
        <time>2015-03-21T14:14:27Z</time>
      </trkpt>
      <trkpt lat="39.9628860" lon="-8.4589060">
        <ele>253.4</ele>
        <time>2015-03-21T14:14:30Z</time>
      </trkpt>
      <trkpt lat="39.9632750" lon="-8.4591540">
        <ele>254.5</ele>
        <time>2015-03-21T14:14:47Z</time>
      </trkpt>
      <trkpt lat="39.9636350" lon="-8.4594520">
        <ele>254.9</ele>
        <time>2015-03-21T14:15:03Z</time>
      </trkpt>
      <trkpt lat="39.9639300" lon="-8.4597220">
        <ele>255.3</ele>
        <time>2015-03-21T14:15:18Z</time>
      </trkpt>
      <trkpt lat="39.9640170" lon="-8.4597870">
        <ele>255.8</ele>
        <time>2015-03-21T14:15:23Z</time>
      </trkpt>
      <trkpt lat="39.9642870" lon="-8.4595230">
        <ele>256.8</ele>
        <time>2015-03-21T14:15:36Z</time>
      </trkpt>
      <trkpt lat="39.9645290" lon="-8.4592480">
        <ele>257.4</ele>
        <time>2015-03-21T14:15:53Z</time>
      </trkpt>
      <trkpt lat="39.9647610" lon="-8.4588310">
        <ele>257.9</ele>
        <time>2015-03-21T14:16:07Z</time>
      </trkpt>
      <trkpt lat="39.9650500" lon="-8.4582480">
        <ele>257.6</ele>
        <time>2015-03-21T14:16:22Z</time>
      </trkpt>
      <trkpt lat="39.9651370" lon="-8.4580570">
        <ele>257.1</ele>
        <time>2015-03-21T14:16:26Z</time>
      </trkpt>
      <trkpt lat="39.9652750" lon="-8.4578860">
        <ele>256.5</ele>
        <time>2015-03-21T14:16:31Z</time>
      </trkpt>
      <trkpt lat="39.9659290" lon="-8.4572160">
        <ele>255.3</ele>
        <time>2015-03-21T14:16:52Z</time>
      </trkpt>
      <trkpt lat="39.9665090" lon="-8.4566380">
        <ele>254.9</ele>
        <time>2015-03-21T14:17:10Z</time>
      </trkpt>
      <trkpt lat="39.9665770" lon="-8.4565620">
        <ele>254.8</ele>
        <time>2015-03-21T14:17:13Z</time>
      </trkpt>
      <trkpt lat="39.9666990" lon="-8.4566310">
        <ele>255.2</ele>
        <time>2015-03-21T14:17:20Z</time>
      </trkpt>
      <trkpt lat="39.9669340" lon="-8.4569700">
        <ele>256.5</ele>
        <time>2015-03-21T14:17:40Z</time>
      </trkpt>
      <trkpt lat="39.9671530" lon="-8.4569730">
        <ele>258.1</ele>
        <time>2015-03-21T14:17:55Z</time>
      </trkpt>
      <trkpt lat="39.9673840" lon="-8.4569460">
        <ele>260.2</ele>
        <time>2015-03-21T14:18:12Z</time>
      </trkpt>
      <trkpt lat="39.9676320" lon="-8.4569370">
        <ele>262.5</ele>
        <time>2015-03-21T14:18:30Z</time>
      </trkpt>
      <trkpt lat="39.9678880" lon="-8.4569400">
        <ele>265.1</ele>
        <time>2015-03-21T14:18:48Z</time>
      </trkpt>
      <trkpt lat="39.9681390" lon="-8.4569790">
        <ele>267.4</ele>
        <time>2015-03-21T14:19:06Z</time>
      </trkpt>
      <trkpt lat="39.9684270" lon="-8.4569830">
        <ele>269.5</ele>
        <time>2015-03-21T14:19:24Z</time>
      </trkpt>
      <trkpt lat="39.9686460" lon="-8.4569780">
        <ele>270.9</ele>
        <time>2015-03-21T14:19:38Z</time>
      </trkpt>
      <trkpt lat="39.9689240" lon="-8.4569630">
        <ele>273.5</ele>
        <time>2015-03-21T14:19:56Z</time>
      </trkpt>
      <trkpt lat="39.9691670" lon="-8.4568840">
        <ele>275.7</ele>
        <time>2015-03-21T14:20:13Z</time>
      </trkpt>
      <trkpt lat="39.9693170" lon="-8.4567880">
        <ele>277.9</ele>
        <time>2015-03-21T14:20:26Z</time>
      </trkpt>
      <trkpt lat="39.9693690" lon="-8.4567600">
        <ele>278.9</ele>
        <time>2015-03-21T14:20:32Z</time>
      </trkpt>
      <trkpt lat="39.9694290" lon="-8.4567770">
        <ele>279.9</ele>
        <time>2015-03-21T14:20:38Z</time>
      </trkpt>
      <trkpt lat="39.9695770" lon="-8.4567870">
        <ele>282.4</ele>
        <time>2015-03-21T14:20:54Z</time>
      </trkpt>
      <trkpt lat="39.9697320" lon="-8.4568120">
        <ele>285.4</ele>
        <time>2015-03-21T14:21:09Z</time>
      </trkpt>
      <trkpt lat="39.9698270" lon="-8.4568460">
        <ele>287.3</ele>
        <time>2015-03-21T14:21:26Z</time>
      </trkpt>
      <trkpt lat="39.9699440" lon="-8.4568960">
        <ele>290.2</ele>
        <time>2015-03-21T14:21:41Z</time>
      </trkpt>
      <trkpt lat="39.9700630" lon="-8.4569750">
        <ele>292.8</ele>
        <time>2015-03-21T14:21:57Z</time>
      </trkpt>
      <trkpt lat="39.9702110" lon="-8.4570570">
        <ele>295.1</ele>
        <time>2015-03-21T14:22:15Z</time>
      </trkpt>
      <trkpt lat="39.9703590" lon="-8.4571290">
        <ele>296.8</ele>
        <time>2015-03-21T14:22:33Z</time>
      </trkpt>
      <trkpt lat="39.9705060" lon="-8.4571580">
        <ele>297.9</ele>
        <time>2015-03-21T14:22:47Z</time>
      </trkpt>
      <trkpt lat="39.9707850" lon="-8.4571370">
        <ele>298.9</ele>
        <time>2015-03-21T14:23:03Z</time>
      </trkpt>
      <trkpt lat="39.9710970" lon="-8.4571800">
        <ele>299.0</ele>
        <time>2015-03-21T14:23:19Z</time>
      </trkpt>
      <trkpt lat="39.9713030" lon="-8.4572820">
        <ele>298.4</ele>
        <time>2015-03-21T14:23:26Z</time>
      </trkpt>
      <trkpt lat="39.9713640" lon="-8.4573590">
        <ele>298.1</ele>
        <time>2015-03-21T14:23:28Z</time>
      </trkpt>
      <trkpt lat="39.9714060" lon="-8.4574600">
        <ele>297.9</ele>
        <time>2015-03-21T14:23:30Z</time>
      </trkpt>
      <trkpt lat="39.9716120" lon="-8.4580840">
        <ele>296.7</ele>
        <time>2015-03-21T14:23:40Z</time>
      </trkpt>
      <trkpt lat="39.9717890" lon="-8.4582630">
        <ele>296.8</ele>
        <time>2015-03-21T14:23:46Z</time>
      </trkpt>
      <trkpt lat="39.9721170" lon="-8.4582260">
        <ele>296.9</ele>
        <time>2015-03-21T14:24:00Z</time>
      </trkpt>
      <trkpt lat="39.9724540" lon="-8.4584620">
        <ele>295.7</ele>
        <time>2015-03-21T14:24:12Z</time>
      </trkpt>
      <trkpt lat="39.9727320" lon="-8.4589850">
        <ele>292.5</ele>
        <time>2015-03-21T14:24:19Z</time>
      </trkpt>
      <trkpt lat="39.9728190" lon="-8.4591640">
        <ele>291.6</ele>
        <time>2015-03-21T14:24:21Z</time>
      </trkpt>
      <trkpt lat="39.9728970" lon="-8.4593460">
        <ele>290.7</ele>
        <time>2015-03-21T14:24:23Z</time>
      </trkpt>
      <trkpt lat="39.9729670" lon="-8.4595390">
        <ele>289.6</ele>
        <time>2015-03-21T14:24:26Z</time>
      </trkpt>
      <trkpt lat="39.9730880" lon="-8.4595170">
        <ele>288.0</ele>
        <time>2015-03-21T14:24:31Z</time>
      </trkpt>
      <trkpt lat="39.9734340" lon="-8.4591310">
        <ele>287.1</ele>
        <time>2015-03-21T14:24:47Z</time>
      </trkpt>
      <trkpt lat="39.9739190" lon="-8.4589380">
        <ele>291.0</ele>
        <time>2015-03-21T14:25:02Z</time>
      </trkpt>
      <trkpt lat="39.9744950" lon="-8.4587480">
        <ele>293.3</ele>
        <time>2015-03-21T14:25:17Z</time>
      </trkpt>
      <trkpt lat="39.9749650" lon="-8.4586180">
        <ele>289.3</ele>
        <time>2015-03-21T14:25:32Z</time>
      </trkpt>
      <trkpt lat="39.9752810" lon="-8.4584300">
        <ele>286.8</ele>
        <time>2015-03-21T14:25:46Z</time>
      </trkpt>
      <trkpt lat="39.9753820" lon="-8.4583390">
        <ele>286.4</ele>
        <time>2015-03-21T14:26:03Z</time>
      </trkpt>
      <trkpt lat="39.9756180" lon="-8.4581250">
        <ele>286.8</ele>
        <time>2015-03-21T14:26:50Z</time>
      </trkpt>
      <trkpt lat="39.9758450" lon="-8.4579070">
        <ele>288.3</ele>
        <time>2015-03-21T14:27:04Z</time>
      </trkpt>
      <trkpt lat="39.9761350" lon="-8.4575840">
        <ele>290.6</ele>
        <time>2015-03-21T14:27:22Z</time>
      </trkpt>
      <trkpt lat="39.9763650" lon="-8.4571930">
        <ele>292.5</ele>
        <time>2015-03-21T14:27:40Z</time>
      </trkpt>
      <trkpt lat="39.9765400" lon="-8.4568320">
        <ele>292.9</ele>
        <time>2015-03-21T14:27:56Z</time>
      </trkpt>
      <trkpt lat="39.9767520" lon="-8.4564950">
        <ele>292.4</ele>
        <time>2015-03-21T14:28:09Z</time>
      </trkpt>
      <trkpt lat="39.9772990" lon="-8.4560110">
        <ele>292.1</ele>
        <time>2015-03-21T14:28:22Z</time>
      </trkpt>
      <trkpt lat="39.9775260" lon="-8.4558760">
        <ele>293.8</ele>
        <time>2015-03-21T14:28:30Z</time>
      </trkpt>
      <trkpt lat="39.9778020" lon="-8.4557780">
        <ele>293.9</ele>
        <time>2015-03-21T14:28:42Z</time>
      </trkpt>
      <trkpt lat="39.9781780" lon="-8.4554410">
        <ele>294.3</ele>
        <time>2015-03-21T14:28:56Z</time>
      </trkpt>
      <trkpt lat="39.9784690" lon="-8.4551930">
        <ele>294.2</ele>
        <time>2015-03-21T14:29:03Z</time>
      </trkpt>
      <trkpt lat="39.9784970" lon="-8.4550600">
        <ele>293.8</ele>
        <time>2015-03-21T14:29:07Z</time>
      </trkpt>
      <trkpt lat="39.9785640" lon="-8.4550400">
        <ele>293.5</ele>
        <time>2015-03-21T15:05:01Z</time>
      </trkpt>
      <trkpt lat="39.9788210" lon="-8.4550260">
        <ele>292.9</ele>
        <time>2015-03-21T15:05:15Z</time>
      </trkpt>
      <trkpt lat="39.9791340" lon="-8.4550280">
        <ele>292.6</ele>
        <time>2015-03-21T15:05:29Z</time>
      </trkpt>
      <trkpt lat="39.9794620" lon="-8.4549420">
        <ele>291.7</ele>
        <time>2015-03-21T15:05:40Z</time>
      </trkpt>
      <trkpt lat="39.9798190" lon="-8.4548690">
        <ele>289.9</ele>
        <time>2015-03-21T15:05:51Z</time>
      </trkpt>
      <trkpt lat="39.9802140" lon="-8.4548920">
        <ele>288.8</ele>
        <time>2015-03-21T15:06:03Z</time>
      </trkpt>
      <trkpt lat="39.9806750" lon="-8.4548400">
        <ele>287.9</ele>
        <time>2015-03-21T15:06:17Z</time>
      </trkpt>
      <trkpt lat="39.9809930" lon="-8.4546370">
        <ele>285.3</ele>
        <time>2015-03-21T15:06:33Z</time>
      </trkpt>
      <trkpt lat="39.9810910" lon="-8.4545850">
        <ele>284.7</ele>
        <time>2015-03-21T15:06:54Z</time>
      </trkpt>
      <trkpt lat="39.9814790" lon="-8.4545870">
        <ele>278.3</ele>
        <time>2015-03-21T15:07:08Z</time>
      </trkpt>
      <trkpt lat="39.9817300" lon="-8.4545670">
        <ele>273.6</ele>
        <time>2015-03-21T15:07:15Z</time>
      </trkpt>
      <trkpt lat="39.9819500" lon="-8.4548360">
        <ele>272.5</ele>
        <time>2015-03-21T15:07:22Z</time>
      </trkpt>
      <trkpt lat="39.9820320" lon="-8.4553280">
        <ele>273.4</ele>
        <time>2015-03-21T15:07:29Z</time>
      </trkpt>
      <trkpt lat="39.9820970" lon="-8.4553660">
        <ele>273.6</ele>
        <time>2015-03-21T15:07:38Z</time>
      </trkpt>
      <trkpt lat="39.9821480" lon="-8.4552210">
        <ele>274.0</ele>
        <time>2015-03-21T15:08:10Z</time>
      </trkpt>
      <trkpt lat="39.9821960" lon="-8.4550070">
        <ele>272.8</ele>
        <time>2015-03-21T15:08:16Z</time>
      </trkpt>
      <trkpt lat="39.9822460" lon="-8.4548420">
        <ele>271.5</ele>
        <time>2015-03-21T15:08:20Z</time>
      </trkpt>
      <trkpt lat="39.9823300" lon="-8.4546600">
        <ele>270.1</ele>
        <time>2015-03-21T15:08:25Z</time>
      </trkpt>
      <trkpt lat="39.9823040" lon="-8.4543800">
        <ele>268.5</ele>
        <time>2015-03-21T15:08:32Z</time>
      </trkpt>
      <trkpt lat="39.9822340" lon="-8.4541260">
        <ele>266.8</ele>
        <time>2015-03-21T15:08:38Z</time>
      </trkpt>
      <trkpt lat="39.9821530" lon="-8.4539960">
        <ele>265.7</ele>
        <time>2015-03-21T15:08:47Z</time>
      </trkpt>
      <trkpt lat="39.9821120" lon="-8.4538990">
        <ele>265.0</ele>
        <time>2015-03-21T15:09:10Z</time>
      </trkpt>
      <trkpt lat="39.9820210" lon="-8.4537300">
        <ele>263.8</ele>
        <time>2015-03-21T15:09:15Z</time>
      </trkpt>
      <trkpt lat="39.9819130" lon="-8.4535630">
        <ele>262.6</ele>
        <time>2015-03-21T15:09:20Z</time>
      </trkpt>
      <trkpt lat="39.9818040" lon="-8.4533600">
        <ele>260.7</ele>
        <time>2015-03-21T15:09:25Z</time>
      </trkpt>
      <trkpt lat="39.9817070" lon="-8.4530840">
        <ele>259.3</ele>
        <time>2015-03-21T15:09:31Z</time>
      </trkpt>
      <trkpt lat="39.9816810" lon="-8.4530070">
        <ele>258.7</ele>
        <time>2015-03-21T15:09:35Z</time>
      </trkpt>
      <trkpt lat="39.9818200" lon="-8.4529880">
        <ele>254.1</ele>
        <time>2015-03-21T15:09:44Z</time>
      </trkpt>
      <trkpt lat="39.9819130" lon="-8.4529770">
        <ele>251.4</ele>
        <time>2015-03-21T15:09:48Z</time>
      </trkpt>
      <trkpt lat="39.9820860" lon="-8.4528540">
        <ele>249.0</ele>
        <time>2015-03-21T15:09:56Z</time>
      </trkpt>
      <trkpt lat="39.9822290" lon="-8.4526530">
        <ele>246.5</ele>
        <time>2015-03-21T15:10:03Z</time>
      </trkpt>
      <trkpt lat="39.9822800" lon="-8.4524290">
        <ele>244.1</ele>
        <time>2015-03-21T15:10:08Z</time>
      </trkpt>
      <trkpt lat="39.9824140" lon="-8.4522930">
        <ele>244.8</ele>
        <time>2015-03-21T15:10:14Z</time>
      </trkpt>
      <trkpt lat="39.9826010" lon="-8.4520760">
        <ele>245.4</ele>
        <time>2015-03-21T15:10:25Z</time>
      </trkpt>
      <trkpt lat="39.9826980" lon="-8.4518200">
        <ele>245.3</ele>
        <time>2015-03-21T15:10:38Z</time>
      </trkpt>
      <trkpt lat="39.9827510" lon="-8.4517230">
        <ele>245.3</ele>
        <time>2015-03-21T15:10:44Z</time>
      </trkpt>
      <trkpt lat="39.9829350" lon="-8.4515260">
        <ele>246.2</ele>
        <time>2015-03-21T15:11:01Z</time>
      </trkpt>
      <trkpt lat="39.9831120" lon="-8.4513570">
        <ele>248.0</ele>
        <time>2015-03-21T15:11:17Z</time>
      </trkpt>
      <trkpt lat="39.9832830" lon="-8.4511600">
        <ele>248.8</ele>
        <time>2015-03-21T15:11:34Z</time>
      </trkpt>
      <trkpt lat="39.9835100" lon="-8.4509550">
        <ele>249.9</ele>
        <time>2015-03-21T15:11:51Z</time>
      </trkpt>
      <trkpt lat="39.9837680" lon="-8.4508740">
        <ele>252.7</ele>
        <time>2015-03-21T15:12:09Z</time>
      </trkpt>
      <trkpt lat="39.9838670" lon="-8.4506100">
        <ele>253.0</ele>
        <time>2015-03-21T15:12:23Z</time>
      </trkpt>
      <trkpt lat="39.9838380" lon="-8.4502630">
        <ele>251.1</ele>
        <time>2015-03-21T15:12:32Z</time>
      </trkpt>
      <trkpt lat="39.9838200" lon="-8.4501980">
        <ele>250.7</ele>
        <time>2015-03-21T15:12:59Z</time>
      </trkpt>
      <trkpt lat="39.9838400" lon="-8.4497900">
        <ele>247.8</ele>
        <time>2015-03-21T15:13:09Z</time>
      </trkpt>
      <trkpt lat="39.9838480" lon="-8.4496480">
        <ele>247.1</ele>
        <time>2015-03-21T15:13:11Z</time>
      </trkpt>
      <trkpt lat="39.9839100" lon="-8.4492040">
        <ele>244.6</ele>
        <time>2015-03-21T15:13:17Z</time>
      </trkpt>
      <trkpt lat="39.9840730" lon="-8.4489500">
        <ele>242.6</ele>
        <time>2015-03-21T15:13:23Z</time>
      </trkpt>
      <trkpt lat="39.9841310" lon="-8.4489290">
        <ele>242.1</ele>
        <time>2015-03-21T15:13:24Z</time>
      </trkpt>
      <trkpt lat="39.9844820" lon="-8.4488180">
        <ele>239.2</ele>
        <time>2015-03-21T15:13:29Z</time>
      </trkpt>
      <trkpt lat="39.9846290" lon="-8.4487470">
        <ele>237.9</ele>
        <time>2015-03-21T15:13:31Z</time>
      </trkpt>
      <trkpt lat="39.9847950" lon="-8.4485950">
        <ele>235.9</ele>
        <time>2015-03-21T15:13:34Z</time>
      </trkpt>
      <trkpt lat="39.9848380" lon="-8.4485290">
        <ele>235.2</ele>
        <time>2015-03-21T15:13:35Z</time>
      </trkpt>
      <trkpt lat="39.9849420" lon="-8.4483400">
        <ele>233.1</ele>
        <time>2015-03-21T15:13:38Z</time>
      </trkpt>
      <trkpt lat="39.9850000" lon="-8.4481860">
        <ele>231.1</ele>
        <time>2015-03-21T15:13:41Z</time>
      </trkpt>
      <trkpt lat="39.9849850" lon="-8.4479410">
        <ele>228.1</ele>
        <time>2015-03-21T15:13:46Z</time>
      </trkpt>
      <trkpt lat="39.9850630" lon="-8.4478260">
        <ele>227.2</ele>
        <time>2015-03-21T15:13:50Z</time>
      </trkpt>
      <trkpt lat="39.9856790" lon="-8.4474580">
        <ele>223.9</ele>
        <time>2015-03-21T15:14:08Z</time>
      </trkpt>
      <trkpt lat="39.9858580" lon="-8.4473540">
        <ele>222.7</ele>
        <time>2015-03-21T15:14:12Z</time>
      </trkpt>
      <trkpt lat="39.9859560" lon="-8.4471850">
        <ele>222.2</ele>
        <time>2015-03-21T15:14:16Z</time>
      </trkpt>
      <trkpt lat="39.9860540" lon="-8.4464740">
        <ele>220.4</ele>
        <time>2015-03-21T15:14:31Z</time>
      </trkpt>
      <trkpt lat="39.9860970" lon="-8.4464040">
        <ele>220.3</ele>
        <time>2015-03-21T15:14:36Z</time>
      </trkpt>
      <trkpt lat="39.9862160" lon="-8.4464340">
        <ele>220.1</ele>
        <time>2015-03-21T15:14:47Z</time>
      </trkpt>
      <trkpt lat="39.9862800" lon="-8.4464540">
        <ele>220.1</ele>
        <time>2015-03-21T15:15:00Z</time>
      </trkpt>
      <trkpt lat="39.9863720" lon="-8.4464710">
        <ele>220.0</ele>
        <time>2015-03-21T15:15:13Z</time>
      </trkpt>
      <trkpt lat="39.9864830" lon="-8.4464070">
        <ele>220.2</ele>
        <time>2015-03-21T15:15:29Z</time>
      </trkpt>
      <trkpt lat="39.9866890" lon="-8.4463210">
        <ele>221.0</ele>
        <time>2015-03-21T15:15:40Z</time>
      </trkpt>
      <trkpt lat="39.9870770" lon="-8.4462400">
        <ele>221.7</ele>
        <time>2015-03-21T15:15:59Z</time>
      </trkpt>
      <trkpt lat="39.9872320" lon="-8.4461400">
        <ele>221.0</ele>
        <time>2015-03-21T15:16:05Z</time>
      </trkpt>
      <trkpt lat="39.9875480" lon="-8.4456310">
        <ele>218.7</ele>
        <time>2015-03-21T15:16:18Z</time>
      </trkpt>
      <trkpt lat="39.9877900" lon="-8.4453420">
        <ele>219.9</ele>
        <time>2015-03-21T15:16:31Z</time>
      </trkpt>
      <trkpt lat="39.9878420" lon="-8.4452960">
        <ele>220.6</ele>
        <time>2015-03-21T15:16:35Z</time>
      </trkpt>
      <trkpt lat="39.9879520" lon="-8.4452230">
        <ele>222.5</ele>
        <time>2015-03-21T15:16:44Z</time>
      </trkpt>
      <trkpt lat="39.9880130" lon="-8.4451910">
        <ele>223.4</ele>
        <time>2015-03-21T15:16:54Z</time>
      </trkpt>
      <trkpt lat="39.9880950" lon="-8.4451560">
        <ele>224.3</ele>
        <time>2015-03-21T15:17:09Z</time>
      </trkpt>
      <trkpt lat="39.9882640" lon="-8.4449540">
        <ele>225.1</ele>
        <time>2015-03-21T15:17:27Z</time>
      </trkpt>
      <trkpt lat="39.9885550" lon="-8.4447990">
        <ele>224.3</ele>
        <time>2015-03-21T15:17:39Z</time>
      </trkpt>
      <trkpt lat="39.9889380" lon="-8.4446210">
        <ele>223.0</ele>
        <time>2015-03-21T15:17:53Z</time>
      </trkpt>
      <trkpt lat="39.9893010" lon="-8.4444920">
        <ele>221.5</ele>
        <time>2015-03-21T15:18:04Z</time>
      </trkpt>
      <trkpt lat="39.9895920" lon="-8.4443880">
        <ele>220.1</ele>
        <time>2015-03-21T15:18:13Z</time>
      </trkpt>
      <trkpt lat="39.9897200" lon="-8.4443540">
        <ele>219.0</ele>
        <time>2015-03-21T15:18:16Z</time>
      </trkpt>
      <trkpt lat="39.9898000" lon="-8.4443070">
        <ele>218.2</ele>
        <time>2015-03-21T15:18:18Z</time>
      </trkpt>
      <trkpt lat="39.9901670" lon="-8.4442510">
        <ele>216.6</ele>
        <time>2015-03-21T15:18:30Z</time>
      </trkpt>
      <trkpt lat="39.9905100" lon="-8.4440550">
        <ele>216.7</ele>
        <time>2015-03-21T15:18:46Z</time>
      </trkpt>
      <trkpt lat="39.9908220" lon="-8.4437650">
        <ele>217.2</ele>
        <time>2015-03-21T15:19:02Z</time>
      </trkpt>
      <trkpt lat="39.9909990" lon="-8.4436150">
        <ele>217.2</ele>
        <time>2015-03-21T15:19:14Z</time>
      </trkpt>
      <trkpt lat="39.9912880" lon="-8.4434370">
        <ele>217.8</ele>
        <time>2015-03-21T15:19:30Z</time>
      </trkpt>
      <trkpt lat="39.9914760" lon="-8.4432630">
        <ele>218.8</ele>
        <time>2015-03-21T15:19:45Z</time>
      </trkpt>
      <trkpt lat="39.9916900" lon="-8.4430940">
        <ele>219.9</ele>
        <time>2015-03-21T15:20:00Z</time>
      </trkpt>
      <trkpt lat="39.9918680" lon="-8.4429590">
        <ele>221.2</ele>
        <time>2015-03-21T15:20:13Z</time>
      </trkpt>
      <trkpt lat="39.9919300" lon="-8.4428940">
        <ele>221.8</ele>
        <time>2015-03-21T15:20:19Z</time>
      </trkpt>
      <trkpt lat="39.9920030" lon="-8.4428270">
        <ele>222.4</ele>
        <time>2015-03-21T15:20:26Z</time>
      </trkpt>
      <trkpt lat="39.9921740" lon="-8.4426480">
        <ele>223.5</ele>
        <time>2015-03-21T15:20:40Z</time>
      </trkpt>
      <trkpt lat="39.9924030" lon="-8.4424320">
        <ele>224.1</ele>
        <time>2015-03-21T15:20:53Z</time>
      </trkpt>
      <trkpt lat="39.9925170" lon="-8.4423580">
        <ele>225.0</ele>
        <time>2015-03-21T15:21:06Z</time>
      </trkpt>
      <trkpt lat="39.9926130" lon="-8.4422290">
        <ele>226.6</ele>
        <time>2015-03-21T15:21:22Z</time>
      </trkpt>
      <trkpt lat="39.9927650" lon="-8.4421840">
        <ele>229.0</ele>
        <time>2015-03-21T15:21:37Z</time>
      </trkpt>
      <trkpt lat="39.9929160" lon="-8.4421540">
        <ele>231.5</ele>
        <time>2015-03-21T15:21:54Z</time>
      </trkpt>
      <trkpt lat="39.9930550" lon="-8.4420900">
        <ele>234.2</ele>
        <time>2015-03-21T15:22:13Z</time>
      </trkpt>
      <trkpt lat="39.9932070" lon="-8.4420250">
        <ele>237.1</ele>
        <time>2015-03-21T15:22:32Z</time>
      </trkpt>
      <trkpt lat="39.9933170" lon="-8.4420050">
        <ele>238.9</ele>
        <time>2015-03-21T15:22:48Z</time>
      </trkpt>
      <trkpt lat="39.9933950" lon="-8.4419820">
        <ele>240.1</ele>
        <time>2015-03-21T15:23:30Z</time>
      </trkpt>
      <trkpt lat="39.9935840" lon="-8.4419780">
        <ele>242.7</ele>
        <time>2015-03-21T15:23:47Z</time>
      </trkpt>
      <trkpt lat="39.9937430" lon="-8.4419300">
        <ele>244.6</ele>
        <time>2015-03-21T15:24:02Z</time>
      </trkpt>
      <trkpt lat="39.9938260" lon="-8.4418720">
        <ele>245.5</ele>
        <time>2015-03-21T15:24:17Z</time>
      </trkpt>
      <trkpt lat="39.9939180" lon="-8.4417070">
        <ele>247.0</ele>
        <time>2015-03-21T15:24:29Z</time>
      </trkpt>
      <trkpt lat="39.9940400" lon="-8.4414400">
        <ele>249.1</ele>
        <time>2015-03-21T15:24:46Z</time>
      </trkpt>
      <trkpt lat="39.9940560" lon="-8.4413670">
        <ele>249.5</ele>
        <time>2015-03-21T15:24:50Z</time>
      </trkpt>
      <trkpt lat="39.9942030" lon="-8.4411450">
        <ele>250.4</ele>
        <time>2015-03-21T15:25:05Z</time>
      </trkpt>
      <trkpt lat="39.9944230" lon="-8.4409850">
        <ele>249.9</ele>
        <time>2015-03-21T15:25:12Z</time>
      </trkpt>
      <trkpt lat="39.9946630" lon="-8.4407760">
        <ele>249.5</ele>
        <time>2015-03-21T15:25:23Z</time>
      </trkpt>
      <trkpt lat="39.9947330" lon="-8.4407190">
        <ele>249.8</ele>
        <time>2015-03-21T15:25:28Z</time>
      </trkpt>
      <trkpt lat="39.9949030" lon="-8.4405500">
        <ele>251.0</ele>
        <time>2015-03-21T15:25:42Z</time>
      </trkpt>
      <trkpt lat="39.9949740" lon="-8.4404700">
        <ele>251.7</ele>
        <time>2015-03-21T15:25:49Z</time>
      </trkpt>
      <trkpt lat="39.9950040" lon="-8.4404150">
        <ele>252.1</ele>
        <time>2015-03-21T15:25:53Z</time>
      </trkpt>
      <trkpt lat="39.9950590" lon="-8.4403420">
        <ele>252.8</ele>
        <time>2015-03-21T15:25:59Z</time>
      </trkpt>
      <trkpt lat="39.9951100" lon="-8.4402630">
        <ele>253.5</ele>
        <time>2015-03-21T15:26:05Z</time>
      </trkpt>
      <trkpt lat="39.9952880" lon="-8.4400630">
        <ele>255.3</ele>
        <time>2015-03-21T15:26:21Z</time>
      </trkpt>
      <trkpt lat="39.9954170" lon="-8.4398490">
        <ele>257.3</ele>
        <time>2015-03-21T15:26:36Z</time>
      </trkpt>
      <trkpt lat="39.9955640" lon="-8.4396400">
        <ele>259.9</ele>
        <time>2015-03-21T15:26:52Z</time>
      </trkpt>
      <trkpt lat="39.9956380" lon="-8.4393360">
        <ele>260.6</ele>
        <time>2015-03-21T15:27:09Z</time>
      </trkpt>
      <trkpt lat="39.9957010" lon="-8.4391170">
        <ele>260.0</ele>
        <time>2015-03-21T15:27:15Z</time>
      </trkpt>
      <trkpt lat="39.9958310" lon="-8.4389610">
        <ele>259.5</ele>
        <time>2015-03-21T15:27:19Z</time>
      </trkpt>
      <trkpt lat="39.9961210" lon="-8.4389120">
        <ele>257.8</ele>
        <time>2015-03-21T15:27:27Z</time>
      </trkpt>
      <trkpt lat="39.9961320" lon="-8.4392740">
        <ele>255.8</ele>
        <time>2015-03-21T15:27:34Z</time>
      </trkpt>
      <trkpt lat="39.9962050" lon="-8.4395990">
        <ele>253.6</ele>
        <time>2015-03-21T15:27:38Z</time>
      </trkpt>
      <trkpt lat="39.9964190" lon="-8.4401720">
        <ele>249.2</ele>
        <time>2015-03-21T15:27:44Z</time>
      </trkpt>
      <trkpt lat="39.9965880" lon="-8.4406380">
        <ele>244.3</ele>
        <time>2015-03-21T15:27:48Z</time>
      </trkpt>
      <trkpt lat="39.9967670" lon="-8.4411480">
        <ele>241.2</ele>
        <time>2015-03-21T15:27:52Z</time>
      </trkpt>
      <trkpt lat="39.9969560" lon="-8.4416720">
        <ele>237.3</ele>
        <time>2015-03-21T15:27:56Z</time>
      </trkpt>
      <trkpt lat="39.9970740" lon="-8.4420010">
        <ele>234.8</ele>
        <time>2015-03-21T15:27:59Z</time>
      </trkpt>
      <trkpt lat="39.9971400" lon="-8.4421670">
        <ele>233.5</ele>
        <time>2015-03-21T15:28:02Z</time>
      </trkpt>
      <trkpt lat="39.9972470" lon="-8.4421470">
        <ele>232.2</ele>
        <time>2015-03-21T15:28:07Z</time>
      </trkpt>
      <trkpt lat="39.9974460" lon="-8.4418200">
        <ele>230.5</ele>
        <time>2015-03-21T15:28:16Z</time>
      </trkpt>
      <trkpt lat="39.9974730" lon="-8.4417700">
        <ele>230.3</ele>
        <time>2015-03-21T15:28:17Z</time>
      </trkpt>
      <trkpt lat="39.9977500" lon="-8.4415770">
        <ele>230.2</ele>
        <time>2015-03-21T15:28:23Z</time>
      </trkpt>
      <trkpt lat="39.9980200" lon="-8.4414780">
        <ele>231.0</ele>
        <time>2015-03-21T15:28:35Z</time>
      </trkpt>
      <trkpt lat="39.9982360" lon="-8.4413870">
        <ele>232.8</ele>
        <time>2015-03-21T15:28:48Z</time>
      </trkpt>
      <trkpt lat="39.9984670" lon="-8.4414060">
        <ele>235.1</ele>
        <time>2015-03-21T15:29:05Z</time>
      </trkpt>
      <trkpt lat="39.9986870" lon="-8.4413820">
        <ele>237.7</ele>
        <time>2015-03-21T15:29:21Z</time>
      </trkpt>
      <trkpt lat="39.9988880" lon="-8.4414110">
        <ele>238.3</ele>
        <time>2015-03-21T15:29:35Z</time>
      </trkpt>
      <trkpt lat="39.9990460" lon="-8.4417090">
        <ele>237.6</ele>
        <time>2015-03-21T15:29:48Z</time>
      </trkpt>
      <trkpt lat="39.9991820" lon="-8.4418190">
        <ele>236.5</ele>
        <time>2015-03-21T15:29:53Z</time>
      </trkpt>
      <trkpt lat="39.9993640" lon="-8.4417620">
        <ele>235.1</ele>
        <time>2015-03-21T15:29:58Z</time>
      </trkpt>
      <trkpt lat="39.9994410" lon="-8.4417350">
        <ele>234.6</ele>
        <time>2015-03-21T15:30:00Z</time>
      </trkpt>
      <trkpt lat="39.9995230" lon="-8.4416950">
        <ele>233.8</ele>
        <time>2015-03-21T15:30:02Z</time>
      </trkpt>
      <trkpt lat="39.9997260" lon="-8.4418240">
        <ele>233.1</ele>
        <time>2015-03-21T15:30:10Z</time>
      </trkpt>
      <trkpt lat="40.0000510" lon="-8.4419100">
        <ele>233.6</ele>
        <time>2015-03-21T15:30:24Z</time>
      </trkpt>
      <trkpt lat="40.0002390" lon="-8.4416360">
        <ele>234.2</ele>
        <time>2015-03-21T15:30:38Z</time>
      </trkpt>
      <trkpt lat="40.0003350" lon="-8.4414390">
        <ele>234.6</ele>
        <time>2015-03-21T15:30:47Z</time>
      </trkpt>
      <trkpt lat="40.0004250" lon="-8.4414900">
        <ele>234.5</ele>
        <time>2015-03-21T15:30:51Z</time>
      </trkpt>
      <trkpt lat="40.0005590" lon="-8.4416640">
        <ele>233.7</ele>
        <time>2015-03-21T15:30:56Z</time>
      </trkpt>
      <trkpt lat="40.0006360" lon="-8.4417240">
        <ele>232.9</ele>
        <time>2015-03-21T15:30:58Z</time>
      </trkpt>
      <trkpt lat="40.0008770" lon="-8.4418930">
        <ele>231.3</ele>
        <time>2015-03-21T15:31:05Z</time>
      </trkpt>
      <trkpt lat="40.0010340" lon="-8.4421990">
        <ele>230.5</ele>
        <time>2015-03-21T15:31:16Z</time>
      </trkpt>
      <trkpt lat="40.0012940" lon="-8.4423550">
        <ele>231.8</ele>
        <time>2015-03-21T15:31:33Z</time>
      </trkpt>
      <trkpt lat="40.0013760" lon="-8.4423070">
        <ele>232.6</ele>
        <time>2015-03-21T15:31:39Z</time>
      </trkpt>
      <trkpt lat="40.0013910" lon="-8.4421680">
        <ele>233.5</ele>
        <time>2015-03-21T15:31:46Z</time>
      </trkpt>
      <trkpt lat="40.0013840" lon="-8.4420360">
        <ele>234.1</ele>
        <time>2015-03-21T15:31:52Z</time>
      </trkpt>
      <trkpt lat="40.0015450" lon="-8.4418930">
        <ele>235.9</ele>
        <time>2015-03-21T15:32:06Z</time>
      </trkpt>
      <trkpt lat="40.0016950" lon="-8.4418020">
        <ele>237.6</ele>
        <time>2015-03-21T15:32:18Z</time>
      </trkpt>
      <trkpt lat="40.0017590" lon="-8.4417610">
        <ele>238.5</ele>
        <time>2015-03-21T15:32:24Z</time>
      </trkpt>
      <trkpt lat="40.0019730" lon="-8.4416520">
        <ele>241.1</ele>
        <time>2015-03-21T15:33:02Z</time>
      </trkpt>
      <trkpt lat="40.0020040" lon="-8.4415410">
        <ele>242.0</ele>
        <time>2015-03-21T15:33:18Z</time>
      </trkpt>
      <trkpt lat="40.0021270" lon="-8.4411900">
        <ele>243.5</ele>
        <time>2015-03-21T15:33:35Z</time>
      </trkpt>
      <trkpt lat="40.0023520" lon="-8.4408300">
        <ele>244.6</ele>
        <time>2015-03-21T15:33:53Z</time>
      </trkpt>
      <trkpt lat="40.0024860" lon="-8.4407210">
        <ele>244.7</ele>
        <time>2015-03-21T15:34:04Z</time>
      </trkpt>
      <trkpt lat="40.0026210" lon="-8.4406050">
        <ele>244.7</ele>
        <time>2015-03-21T15:34:20Z</time>
      </trkpt>
      <trkpt lat="40.0028280" lon="-8.4403660">
        <ele>244.3</ele>
        <time>2015-03-21T15:34:31Z</time>
      </trkpt>
      <trkpt lat="40.0031630" lon="-8.4401840">
        <ele>243.1</ele>
        <time>2015-03-21T15:34:42Z</time>
      </trkpt>
      <trkpt lat="40.0032960" lon="-8.4401410">
        <ele>242.4</ele>
        <time>2015-03-21T15:34:45Z</time>
      </trkpt>
      <trkpt lat="40.0034460" lon="-8.4400030">
        <ele>241.2</ele>
        <time>2015-03-21T15:34:50Z</time>
      </trkpt>
      <trkpt lat="40.0034990" lon="-8.4400190">
        <ele>240.7</ele>
        <time>2015-03-21T15:34:58Z</time>
      </trkpt>
      <trkpt lat="40.0037240" lon="-8.4404900">
        <ele>239.7</ele>
        <time>2015-03-21T15:35:35Z</time>
      </trkpt>
      <trkpt lat="40.0037470" lon="-8.4405970">
        <ele>239.6</ele>
        <time>2015-03-21T15:35:37Z</time>
      </trkpt>
      <trkpt lat="40.0037910" lon="-8.4407580">
        <ele>239.4</ele>
        <time>2015-03-21T15:35:40Z</time>
      </trkpt>
      <trkpt lat="40.0039740" lon="-8.4410970">
        <ele>238.8</ele>
        <time>2015-03-21T15:35:47Z</time>
      </trkpt>
      <trkpt lat="40.0042340" lon="-8.4413310">
        <ele>237.3</ele>
        <time>2015-03-21T15:35:53Z</time>
      </trkpt>
      <trkpt lat="40.0044380" lon="-8.4416430">
        <ele>234.1</ele>
        <time>2015-03-21T15:35:58Z</time>
      </trkpt>
      <trkpt lat="40.0045510" lon="-8.4419450">
        <ele>231.3</ele>
        <time>2015-03-21T15:36:02Z</time>
      </trkpt>
      <trkpt lat="40.0046080" lon="-8.4421610">
        <ele>229.5</ele>
        <time>2015-03-21T15:36:05Z</time>
      </trkpt>
      <trkpt lat="40.0046330" lon="-8.4423870">
        <ele>227.5</ele>
        <time>2015-03-21T15:37:53Z</time>
      </trkpt>
      <trkpt lat="40.0046680" lon="-8.4425570">
        <ele>226.0</ele>
        <time>2015-03-21T15:37:56Z</time>
      </trkpt>
      <trkpt lat="40.0046820" lon="-8.4426250">
        <ele>225.3</ele>
        <time>2015-03-21T15:37:57Z</time>
      </trkpt>
      <trkpt lat="40.0046920" lon="-8.4430590">
        <ele>220.2</ele>
        <time>2015-03-21T15:38:02Z</time>
      </trkpt>
      <trkpt lat="40.0046910" lon="-8.4432510">
        <ele>218.0</ele>
        <time>2015-03-21T15:38:04Z</time>
      </trkpt>
      <trkpt lat="40.0047150" lon="-8.4437470">
        <ele>213.1</ele>
        <time>2015-03-21T15:38:09Z</time>
      </trkpt>
      <trkpt lat="40.0047430" lon="-8.4439230">
        <ele>211.4</ele>
        <time>2015-03-21T15:38:11Z</time>
      </trkpt>
      <trkpt lat="40.0049890" lon="-8.4448370">
        <ele>202.8</ele>
        <time>2015-03-21T15:38:24Z</time>
      </trkpt>
      <trkpt lat="40.0050130" lon="-8.4449640">
        <ele>202.3</ele>
        <time>2015-03-21T15:38:26Z</time>
      </trkpt>
      <trkpt lat="40.0051000" lon="-8.4460640">
        <ele>201.7</ele>
        <time>2015-03-21T15:38:45Z</time>
      </trkpt>
      <trkpt lat="40.0052790" lon="-8.4469060">
        <ele>201.3</ele>
        <time>2015-03-21T15:39:01Z</time>
      </trkpt>
      <trkpt lat="40.0055950" lon="-8.4475220">
        <ele>200.7</ele>
        <time>2015-03-21T15:39:15Z</time>
      </trkpt>
      <trkpt lat="40.0058800" lon="-8.4479650">
        <ele>200.4</ele>
        <time>2015-03-21T15:39:25Z</time>
      </trkpt>
      <trkpt lat="40.0061160" lon="-8.4484680">
        <ele>199.7</ele>
        <time>2015-03-21T15:39:35Z</time>
      </trkpt>
      <trkpt lat="40.0066600" lon="-8.4490620">
        <ele>197.8</ele>
        <time>2015-03-21T15:39:49Z</time>
      </trkpt>
      <trkpt lat="40.0068330" lon="-8.4495830">
        <ele>196.2</ele>
        <time>2015-03-21T15:39:56Z</time>
      </trkpt>
      <trkpt lat="40.0069550" lon="-8.4502080">
        <ele>195.5</ele>
        <time>2015-03-21T15:40:07Z</time>
      </trkpt>
      <trkpt lat="40.0071020" lon="-8.4510640">
        <ele>195.6</ele>
        <time>2015-03-21T15:40:24Z</time>
      </trkpt>
      <trkpt lat="40.0072670" lon="-8.4511710">
        <ele>196.5</ele>
        <time>2015-03-21T15:40:29Z</time>
      </trkpt>
      <trkpt lat="40.0073840" lon="-8.4512130">
        <ele>197.1</ele>
        <time>2015-03-21T15:40:32Z</time>
      </trkpt>
      <trkpt lat="40.0079700" lon="-8.4511930">
        <ele>197.6</ele>
        <time>2015-03-21T15:40:47Z</time>
      </trkpt>
      <trkpt lat="40.0085850" lon="-8.4513110">
        <ele>197.2</ele>
        <time>2015-03-21T15:41:03Z</time>
      </trkpt>
      <trkpt lat="40.0092210" lon="-8.4515490">
        <ele>197.3</ele>
        <time>2015-03-21T15:41:19Z</time>
      </trkpt>
      <trkpt lat="40.0099020" lon="-8.4519150">
        <ele>197.6</ele>
        <time>2015-03-21T15:41:37Z</time>
      </trkpt>
      <trkpt lat="40.0106400" lon="-8.4524420">
        <ele>198.4</ele>
        <time>2015-03-21T15:41:57Z</time>
      </trkpt>
      <trkpt lat="40.0113580" lon="-8.4528440">
        <ele>198.5</ele>
        <time>2015-03-21T15:42:16Z</time>
      </trkpt>
      <trkpt lat="40.0117510" lon="-8.4529380">
        <ele>198.3</ele>
        <time>2015-03-21T15:42:26Z</time>
      </trkpt>
      <trkpt lat="40.0118910" lon="-8.4528070">
        <ele>198.1</ele>
        <time>2015-03-21T15:42:31Z</time>
      </trkpt>
      <trkpt lat="40.0123690" lon="-8.4521530">
        <ele>196.8</ele>
        <time>2015-03-21T15:42:47Z</time>
      </trkpt>
      <trkpt lat="40.0128250" lon="-8.4515160">
        <ele>195.6</ele>
        <time>2015-03-21T15:43:03Z</time>
      </trkpt>
      <trkpt lat="40.0128750" lon="-8.4514410">
        <ele>195.3</ele>
        <time>2015-03-21T15:43:05Z</time>
      </trkpt>
      <trkpt lat="40.0129750" lon="-8.4512450">
        <ele>194.2</ele>
        <time>2015-03-21T15:43:09Z</time>
      </trkpt>
      <trkpt lat="40.0130570" lon="-8.4509660">
        <ele>192.6</ele>
        <time>2015-03-21T15:43:13Z</time>
      </trkpt>
      <trkpt lat="40.0130760" lon="-8.4508970">
        <ele>192.2</ele>
        <time>2015-03-21T15:43:14Z</time>
      </trkpt>
      <trkpt lat="40.0132840" lon="-8.4506830">
        <ele>190.2</ele>
        <time>2015-03-21T15:43:19Z</time>
      </trkpt>
      <trkpt lat="40.0138980" lon="-8.4506210">
        <ele>187.8</ele>
        <time>2015-03-21T15:43:30Z</time>
      </trkpt>
      <trkpt lat="40.0144950" lon="-8.4504130">
        <ele>187.2</ele>
        <time>2015-03-21T15:43:45Z</time>
      </trkpt>
      <trkpt lat="40.0146290" lon="-8.4502990">
        <ele>187.0</ele>
        <time>2015-03-21T15:43:52Z</time>
      </trkpt>
      <trkpt lat="40.0147990" lon="-8.4499610">
        <ele>186.7</ele>
        <time>2015-03-21T15:43:59Z</time>
      </trkpt>
      <trkpt lat="40.0148330" lon="-8.4497920">
        <ele>186.5</ele>
        <time>2015-03-21T15:44:02Z</time>
      </trkpt>
      <trkpt lat="40.0148390" lon="-8.4495260">
        <ele>186.2</ele>
        <time>2015-03-21T15:44:07Z</time>
      </trkpt>
      <trkpt lat="40.0148110" lon="-8.4489810">
        <ele>185.9</ele>
        <time>2015-03-21T15:44:17Z</time>
      </trkpt>
      <trkpt lat="40.0147930" lon="-8.4485410">
        <ele>186.1</ele>
        <time>2015-03-21T15:44:25Z</time>
      </trkpt>
      <trkpt lat="40.0147420" lon="-8.4481690">
        <ele>186.6</ele>
        <time>2015-03-21T15:44:32Z</time>
      </trkpt>
      <trkpt lat="40.0147530" lon="-8.4475520">
        <ele>186.5</ele>
        <time>2015-03-21T15:44:44Z</time>
      </trkpt>
      <trkpt lat="40.0151410" lon="-8.4475260">
        <ele>186.4</ele>
        <time>2015-03-21T15:44:55Z</time>
      </trkpt>
      <trkpt lat="40.0153670" lon="-8.4475100">
        <ele>186.1</ele>
        <time>2015-03-21T15:45:00Z</time>
      </trkpt>
      <trkpt lat="40.0154960" lon="-8.4474940">
        <ele>185.8</ele>
        <time>2015-03-21T15:45:03Z</time>
      </trkpt>
      <trkpt lat="40.0156700" lon="-8.4474940">
        <ele>185.5</ele>
        <time>2015-03-21T15:45:07Z</time>
      </trkpt>
      <trkpt lat="40.0159890" lon="-8.4474650">
        <ele>185.3</ele>
        <time>2015-03-21T15:45:15Z</time>
      </trkpt>
      <trkpt lat="40.0165930" lon="-8.4473500">
        <ele>184.4</ele>
        <time>2015-03-21T15:45:31Z</time>
      </trkpt>
      <trkpt lat="40.0171330" lon="-8.4472320">
        <ele>184.2</ele>
        <time>2015-03-21T15:45:45Z</time>
      </trkpt>
      <trkpt lat="40.0176350" lon="-8.4470800">
        <ele>184.3</ele>
        <time>2015-03-21T15:46:00Z</time>
      </trkpt>
      <trkpt lat="40.0177340" lon="-8.4467140">
        <ele>185.2</ele>
        <time>2015-03-21T15:46:09Z</time>
      </trkpt>
      <trkpt lat="40.0177980" lon="-8.4465280">
        <ele>186.0</ele>
        <time>2015-03-21T15:46:15Z</time>
      </trkpt>
      <trkpt lat="40.0179410" lon="-8.4459500">
        <ele>187.6</ele>
        <time>2015-03-21T15:46:31Z</time>
      </trkpt>
      <trkpt lat="40.0179470" lon="-8.4457130">
        <ele>187.8</ele>
        <time>2015-03-21T15:46:37Z</time>
      </trkpt>
      <trkpt lat="40.0180020" lon="-8.4455450">
        <ele>187.4</ele>
        <time>2015-03-21T15:46:40Z</time>
      </trkpt>
      <trkpt lat="40.0180270" lon="-8.4454880">
        <ele>187.0</ele>
        <time>2015-03-21T15:46:41Z</time>
      </trkpt>
      <trkpt lat="40.0182310" lon="-8.4452100">
        <ele>184.6</ele>
        <time>2015-03-21T15:46:46Z</time>
      </trkpt>
      <trkpt lat="40.0182750" lon="-8.4451480">
        <ele>184.0</ele>
        <time>2015-03-21T15:46:47Z</time>
      </trkpt>
      <trkpt lat="40.0186060" lon="-8.4443680">
        <ele>182.9</ele>
        <time>2015-03-21T15:47:00Z</time>
      </trkpt>
      <trkpt lat="40.0186640" lon="-8.4442280">
        <ele>182.7</ele>
        <time>2015-03-21T15:47:03Z</time>
      </trkpt>
      <trkpt lat="40.0187970" lon="-8.4441230">
        <ele>182.2</ele>
        <time>2015-03-21T15:47:07Z</time>
      </trkpt>
      <trkpt lat="40.0193000" lon="-8.4442960">
        <ele>181.3</ele>
        <time>2015-03-21T15:47:20Z</time>
      </trkpt>
      <trkpt lat="40.0197780" lon="-8.4444840">
        <ele>180.5</ele>
        <time>2015-03-21T15:47:31Z</time>
      </trkpt>
      <trkpt lat="40.0200830" lon="-8.4445170">
        <ele>180.4</ele>
        <time>2015-03-21T15:47:38Z</time>
      </trkpt>
      <trkpt lat="40.0205650" lon="-8.4445220">
        <ele>180.4</ele>
        <time>2015-03-21T15:47:49Z</time>
      </trkpt>
      <trkpt lat="40.0213090" lon="-8.4445360">
        <ele>179.8</ele>
        <time>2015-03-21T15:48:06Z</time>
      </trkpt>
      <trkpt lat="40.0218440" lon="-8.4445530">
        <ele>178.7</ele>
        <time>2015-03-21T15:48:18Z</time>
      </trkpt>
      <trkpt lat="40.0221060" lon="-8.4445560">
        <ele>178.5</ele>
        <time>2015-03-21T15:48:24Z</time>
      </trkpt>
      <trkpt lat="40.0221940" lon="-8.4445730">
        <ele>178.4</ele>
        <time>2015-03-21T15:48:26Z</time>
      </trkpt>
      <trkpt lat="40.0227790" lon="-8.4445770">
        <ele>177.7</ele>
        <time>2015-03-21T15:48:40Z</time>
      </trkpt>
      <trkpt lat="40.0234970" lon="-8.4445810">
        <ele>176.9</ele>
        <time>2015-03-21T15:48:57Z</time>
      </trkpt>
      <trkpt lat="40.0241680" lon="-8.4446050">
        <ele>176.7</ele>
        <time>2015-03-21T15:49:13Z</time>
      </trkpt>
      <trkpt lat="40.0248670" lon="-8.4446290">
        <ele>176.8</ele>
        <time>2015-03-21T15:49:30Z</time>
      </trkpt>
      <trkpt lat="40.0254850" lon="-8.4446290">
        <ele>176.8</ele>
        <time>2015-03-21T15:49:45Z</time>
      </trkpt>
      <trkpt lat="40.0256920" lon="-8.4446320">
        <ele>176.6</ele>
        <time>2015-03-21T15:49:50Z</time>
      </trkpt>
      <trkpt lat="40.0263280" lon="-8.4446180">
        <ele>176.7</ele>
        <time>2015-03-21T15:50:05Z</time>
      </trkpt>
      <trkpt lat="40.0269800" lon="-8.4446100">
        <ele>176.1</ele>
        <time>2015-03-21T15:50:20Z</time>
      </trkpt>
      <trkpt lat="40.0274470" lon="-8.4445850">
        <ele>176.5</ele>
        <time>2015-03-21T15:50:33Z</time>
      </trkpt>
      <trkpt lat="40.0276900" lon="-8.4445780">
        <ele>176.7</ele>
        <time>2015-03-21T15:50:39Z</time>
      </trkpt>
      <trkpt lat="40.0279070" lon="-8.4449040">
        <ele>175.7</ele>
        <time>2015-03-21T15:50:47Z</time>
      </trkpt>
      <trkpt lat="40.0279520" lon="-8.4461190">
        <ele>174.5</ele>
        <time>2015-03-21T15:51:06Z</time>
      </trkpt>
      <trkpt lat="40.0279460" lon="-8.4469040">
        <ele>174.4</ele>
        <time>2015-03-21T15:51:19Z</time>
      </trkpt>
      <trkpt lat="40.0279690" lon="-8.4470930">
        <ele>174.5</ele>
        <time>2015-03-21T15:51:22Z</time>
      </trkpt>
      <trkpt lat="40.0280420" lon="-8.4473090">
        <ele>174.6</ele>
        <time>2015-03-21T15:51:26Z</time>
      </trkpt>
      <trkpt lat="40.0281640" lon="-8.4475540">
        <ele>174.6</ele>
        <time>2015-03-21T15:51:31Z</time>
      </trkpt>
      <trkpt lat="40.0281790" lon="-8.4478910">
        <ele>174.7</ele>
        <time>2015-03-21T15:51:37Z</time>
      </trkpt>
      <trkpt lat="40.0281450" lon="-8.4483680">
        <ele>174.9</ele>
        <time>2015-03-21T15:51:46Z</time>
      </trkpt>
      <trkpt lat="40.0281670" lon="-8.4490920">
        <ele>175.2</ele>
        <time>2015-03-21T15:51:58Z</time>
      </trkpt>
      <trkpt lat="40.0284920" lon="-8.4500570">
        <ele>177.0</ele>
        <time>2015-03-21T15:52:16Z</time>
      </trkpt>
      <trkpt lat="40.0285840" lon="-8.4502560">
        <ele>177.9</ele>
        <time>2015-03-21T15:52:20Z</time>
      </trkpt>
      <trkpt lat="40.0286330" lon="-8.4507220">
        <ele>180.8</ele>
        <time>2015-03-21T15:52:32Z</time>
      </trkpt>
      <trkpt lat="40.0286600" lon="-8.4511060">
        <ele>182.7</ele>
        <time>2015-03-21T15:52:46Z</time>
      </trkpt>
      <trkpt lat="40.0287370" lon="-8.4515270">
        <ele>184.1</ele>
        <time>2015-03-21T15:53:03Z</time>
      </trkpt>
      <trkpt lat="40.0288340" lon="-8.4519180">
        <ele>184.7</ele>
        <time>2015-03-21T15:53:19Z</time>
      </trkpt>
      <trkpt lat="40.0289790" lon="-8.4522970">
        <ele>185.0</ele>
        <time>2015-03-21T15:53:35Z</time>
      </trkpt>
      <trkpt lat="40.0291200" lon="-8.4528170">
        <ele>185.7</ele>
        <time>2015-03-21T15:53:50Z</time>
      </trkpt>
      <trkpt lat="40.0291210" lon="-8.4535670">
        <ele>186.4</ele>
        <time>2015-03-21T15:54:05Z</time>
      </trkpt>
      <trkpt lat="40.0291250" lon="-8.4546190">
        <ele>185.4</ele>
        <time>2015-03-21T15:54:23Z</time>
      </trkpt>
      <trkpt lat="40.0291360" lon="-8.4548860">
        <ele>185.0</ele>
        <time>2015-03-21T15:54:32Z</time>
      </trkpt>
      <trkpt lat="40.0292580" lon="-8.4549090">
        <ele>184.3</ele>
        <time>2015-03-21T15:54:41Z</time>
      </trkpt>
      <trkpt lat="40.0293000" lon="-8.4549750">
        <ele>184.1</ele>
        <time>2015-03-21T15:54:49Z</time>
      </trkpt>
      <trkpt lat="40.0296560" lon="-8.4549010">
        <ele>183.1</ele>
        <time>2015-03-21T15:55:45Z</time>
      </trkpt>
      <trkpt lat="40.0299940" lon="-8.4548810">
        <ele>182.2</ele>
        <time>2015-03-21T15:55:58Z</time>
      </trkpt>
      <trkpt lat="40.0302310" lon="-8.4548390">
        <ele>181.5</ele>
        <time>2015-03-21T15:56:51Z</time>
      </trkpt>
      <trkpt lat="40.0308920" lon="-8.4548880">
        <ele>180.0</ele>
        <time>2015-03-21T15:57:08Z</time>
      </trkpt>
      <trkpt lat="40.0310710" lon="-8.4548890">
        <ele>179.7</ele>
        <time>2015-03-21T15:57:12Z</time>
      </trkpt>
      <trkpt lat="40.0314540" lon="-8.4547920">
        <ele>178.7</ele>
        <time>2015-03-21T15:57:20Z</time>
      </trkpt>
      <trkpt lat="40.0316930" lon="-8.4548770">
        <ele>178.4</ele>
        <time>2015-03-21T15:57:25Z</time>
      </trkpt>
      <trkpt lat="40.0320540" lon="-8.4548060">
        <ele>176.3</ele>
        <time>2015-03-21T15:57:35Z</time>
      </trkpt>
      <trkpt lat="40.0320580" lon="-8.4547430">
        <ele>176.0</ele>
        <time>2015-03-21T15:57:36Z</time>
      </trkpt>
      <trkpt lat="40.0322300" lon="-8.4540000">
        <ele>174.9</ele>
        <time>2015-03-21T15:57:51Z</time>
      </trkpt>
      <trkpt lat="40.0324470" lon="-8.4532490">
        <ele>173.8</ele>
        <time>2015-03-21T15:58:07Z</time>
      </trkpt>
      <trkpt lat="40.0324710" lon="-8.4531520">
        <ele>173.7</ele>
        <time>2015-03-21T15:58:09Z</time>
      </trkpt>
      <trkpt lat="40.0327510" lon="-8.4522320">
        <ele>172.4</ele>
        <time>2015-03-21T15:58:28Z</time>
      </trkpt>
      <trkpt lat="40.0329860" lon="-8.4513390">
        <ele>170.8</ele>
        <time>2015-03-21T15:58:45Z</time>
      </trkpt>
      <trkpt lat="40.0331280" lon="-8.4506230">
        <ele>169.9</ele>
        <time>2015-03-21T15:58:58Z</time>
      </trkpt>
      <trkpt lat="40.0332780" lon="-8.4495040">
        <ele>169.4</ele>
        <time>2015-03-21T15:59:19Z</time>
      </trkpt>
      <trkpt lat="40.0334370" lon="-8.4487270">
        <ele>169.0</ele>
        <time>2015-03-21T15:59:34Z</time>
      </trkpt>
      <trkpt lat="40.0336860" lon="-8.4476660">
        <ele>168.1</ele>
        <time>2015-03-21T15:59:55Z</time>
      </trkpt>
      <trkpt lat="40.0337160" lon="-8.4468770">
        <ele>168.2</ele>
        <time>2015-03-21T16:00:10Z</time>
      </trkpt>
      <trkpt lat="40.0336270" lon="-8.4458240">
        <ele>169.1</ele>
        <time>2015-03-21T16:00:30Z</time>
      </trkpt>
      <trkpt lat="40.0336420" lon="-8.4448510">
        <ele>169.8</ele>
        <time>2015-03-21T16:00:48Z</time>
      </trkpt>
      <trkpt lat="40.0339030" lon="-8.4447470">
        <ele>169.8</ele>
        <time>2015-03-21T16:00:55Z</time>
      </trkpt>
      <trkpt lat="40.0346000" lon="-8.4449780">
        <ele>169.0</ele>
        <time>2015-03-21T16:01:11Z</time>
      </trkpt>
      <trkpt lat="40.0351240" lon="-8.4451440">
        <ele>167.8</ele>
        <time>2015-03-21T16:01:23Z</time>
      </trkpt>
      <trkpt lat="40.0357850" lon="-8.4453980">
        <ele>167.6</ele>
        <time>2015-03-21T16:01:38Z</time>
      </trkpt>
      <trkpt lat="40.0359990" lon="-8.4454620">
        <ele>167.6</ele>
        <time>2015-03-21T16:01:43Z</time>
      </trkpt>
      <trkpt lat="40.0361240" lon="-8.4454860">
        <ele>167.5</ele>
        <time>2015-03-21T16:01:46Z</time>
      </trkpt>
      <trkpt lat="40.0368810" lon="-8.4457960">
        <ele>166.4</ele>
        <time>2015-03-21T16:02:04Z</time>
      </trkpt>
      <trkpt lat="40.0376320" lon="-8.4460810">
        <ele>166.0</ele>
        <time>2015-03-21T16:02:21Z</time>
      </trkpt>
      <trkpt lat="40.0377230" lon="-8.4460940">
        <ele>166.0</ele>
        <time>2015-03-21T16:02:23Z</time>
      </trkpt>
      <trkpt lat="40.0385890" lon="-8.4463600">
        <ele>166.1</ele>
        <time>2015-03-21T16:02:43Z</time>
      </trkpt>
      <trkpt lat="40.0393280" lon="-8.4466460">
        <ele>165.4</ele>
        <time>2015-03-21T16:02:59Z</time>
      </trkpt>
      <trkpt lat="40.0401220" lon="-8.4469430">
        <ele>165.0</ele>
        <time>2015-03-21T16:03:16Z</time>
      </trkpt>
      <trkpt lat="40.0409870" lon="-8.4471220">
        <ele>164.2</ele>
        <time>2015-03-21T16:03:34Z</time>
      </trkpt>
      <trkpt lat="40.0417650" lon="-8.4472390">
        <ele>163.7</ele>
        <time>2015-03-21T16:03:50Z</time>
      </trkpt>
      <trkpt lat="40.0419400" lon="-8.4472050">
        <ele>163.6</ele>
        <time>2015-03-21T16:03:54Z</time>
      </trkpt>
      <trkpt lat="40.0421100" lon="-8.4472750">
        <ele>163.3</ele>
        <time>2015-03-21T16:03:58Z</time>
      </trkpt>
      <trkpt lat="40.0423810" lon="-8.4472000">
        <ele>162.9</ele>
        <time>2015-03-21T16:04:06Z</time>
      </trkpt>
      <trkpt lat="40.0424570" lon="-8.4470790">
        <ele>162.8</ele>
        <time>2015-03-21T16:04:09Z</time>
      </trkpt>
      <trkpt lat="40.0425490" lon="-8.4468900">
        <ele>162.7</ele>
        <time>2015-03-21T16:04:13Z</time>
      </trkpt>
      <trkpt lat="40.0426810" lon="-8.4467450">
        <ele>162.7</ele>
        <time>2015-03-21T16:04:17Z</time>
      </trkpt>
      <trkpt lat="40.0433780" lon="-8.4465980">
        <ele>162.4</ele>
        <time>2015-03-21T16:04:33Z</time>
      </trkpt>
      <trkpt lat="40.0440560" lon="-8.4467780">
        <ele>162.2</ele>
        <time>2015-03-21T16:04:49Z</time>
      </trkpt>
      <trkpt lat="40.0444690" lon="-8.4470950">
        <ele>162.0</ele>
        <time>2015-03-21T16:05:00Z</time>
      </trkpt>
      <trkpt lat="40.0447200" lon="-8.4473390">
        <ele>161.8</ele>
        <time>2015-03-21T16:05:07Z</time>
      </trkpt>
      <trkpt lat="40.0451550" lon="-8.4479080">
        <ele>161.4</ele>
        <time>2015-03-21T16:05:21Z</time>
      </trkpt>
      <trkpt lat="40.0455580" lon="-8.4483670">
        <ele>161.0</ele>
        <time>2015-03-21T16:05:34Z</time>
      </trkpt>
      <trkpt lat="40.0457000" lon="-8.4484250">
        <ele>160.7</ele>
        <time>2015-03-21T16:05:37Z</time>
      </trkpt>
      <trkpt lat="40.0459050" lon="-8.4484130">
        <ele>160.5</ele>
        <time>2015-03-21T16:05:41Z</time>
      </trkpt>
      <trkpt lat="40.0460000" lon="-8.4483670">
        <ele>160.5</ele>
        <time>2015-03-21T16:05:43Z</time>
      </trkpt>
      <trkpt lat="40.0460880" lon="-8.4483110">
        <ele>160.4</ele>
        <time>2015-03-21T16:05:45Z</time>
      </trkpt>
      <trkpt lat="40.0464640" lon="-8.4479450">
        <ele>159.9</ele>
        <time>2015-03-21T16:05:56Z</time>
      </trkpt>
      <trkpt lat="40.0468100" lon="-8.4475890">
        <ele>159.6</ele>
        <time>2015-03-21T16:06:06Z</time>
      </trkpt>
      <trkpt lat="40.0469300" lon="-8.4474130">
        <ele>159.6</ele>
        <time>2015-03-21T16:06:10Z</time>
      </trkpt>
      <trkpt lat="40.0471150" lon="-8.4472460">
        <ele>159.6</ele>
        <time>2015-03-21T16:06:15Z</time>
      </trkpt>
      <trkpt lat="40.0472790" lon="-8.4471650">
        <ele>159.5</ele>
        <time>2015-03-21T16:06:19Z</time>
      </trkpt>
      <trkpt lat="40.0475290" lon="-8.4470810">
        <ele>159.3</ele>
        <time>2015-03-21T16:06:25Z</time>
      </trkpt>
      <trkpt lat="40.0477060" lon="-8.4470550">
        <ele>159.2</ele>
        <time>2015-03-21T16:06:29Z</time>
      </trkpt>
      <trkpt lat="40.0478350" lon="-8.4470810">
        <ele>159.1</ele>
        <time>2015-03-21T16:06:32Z</time>
      </trkpt>
      <trkpt lat="40.0485760" lon="-8.4472160">
        <ele>161.2</ele>
        <time>2015-03-21T16:06:49Z</time>
      </trkpt>
      <trkpt lat="40.0486610" lon="-8.4472230">
        <ele>161.9</ele>
        <time>2015-03-21T16:06:51Z</time>
      </trkpt>
      <trkpt lat="40.0488330" lon="-8.4472250">
        <ele>162.8</ele>
        <time>2015-03-21T16:06:55Z</time>
      </trkpt>
      <trkpt lat="40.0489150" lon="-8.4472110">
        <ele>163.0</ele>
        <time>2015-03-21T16:06:57Z</time>
      </trkpt>
      <trkpt lat="40.0492860" lon="-8.4473160">
        <ele>163.2</ele>
        <time>2015-03-21T16:07:09Z</time>
      </trkpt>
      <trkpt lat="40.0495180" lon="-8.4473920">
        <ele>162.7</ele>
        <time>2015-03-21T16:07:23Z</time>
      </trkpt>
      <trkpt lat="40.0498420" lon="-8.4472380">
        <ele>160.3</ele>
        <time>2015-03-21T16:07:37Z</time>
      </trkpt>
      <trkpt lat="40.0499780" lon="-8.4471150">
        <ele>159.3</ele>
        <time>2015-03-21T16:07:41Z</time>
      </trkpt>
      <trkpt lat="40.0502840" lon="-8.4467790">
        <ele>158.6</ele>
        <time>2015-03-21T16:07:48Z</time>
      </trkpt>
      <trkpt lat="40.0503350" lon="-8.4467220">
        <ele>158.6</ele>
        <time>2015-03-21T16:07:49Z</time>
      </trkpt>
      <trkpt lat="40.0504380" lon="-8.4466130">
        <ele>158.6</ele>
        <time>2015-03-21T16:07:51Z</time>
      </trkpt>
      <trkpt lat="40.0506500" lon="-8.4465000">
        <ele>158.5</ele>
        <time>2015-03-21T16:07:55Z</time>
      </trkpt>
      <trkpt lat="40.0512850" lon="-8.4463320">
        <ele>157.9</ele>
        <time>2015-03-21T16:08:11Z</time>
      </trkpt>
      <trkpt lat="40.0519370" lon="-8.4461210">
        <ele>157.0</ele>
        <time>2015-03-21T16:08:28Z</time>
      </trkpt>
      <trkpt lat="40.0525530" lon="-8.4459040">
        <ele>158.0</ele>
        <time>2015-03-21T16:08:43Z</time>
      </trkpt>
      <trkpt lat="40.0530870" lon="-8.4458680">
        <ele>158.5</ele>
        <time>2015-03-21T16:08:55Z</time>
      </trkpt>
      <trkpt lat="40.0534260" lon="-8.4458640">
        <ele>159.5</ele>
        <time>2015-03-21T16:09:09Z</time>
      </trkpt>
      <trkpt lat="40.0535040" lon="-8.4458560">
        <ele>159.8</ele>
        <time>2015-03-21T16:09:13Z</time>
      </trkpt>
      <trkpt lat="40.0535810" lon="-8.4459210">
        <ele>160.5</ele>
        <time>2015-03-21T16:11:05Z</time>
      </trkpt>
      <trkpt lat="40.0538350" lon="-8.4460060">
        <ele>162.0</ele>
        <time>2015-03-21T16:11:18Z</time>
      </trkpt>
      <trkpt lat="40.0542020" lon="-8.4461140">
        <ele>163.7</ele>
        <time>2015-03-21T16:11:33Z</time>
      </trkpt>
      <trkpt lat="40.0545060" lon="-8.4460360">
        <ele>165.5</ele>
        <time>2015-03-21T16:11:47Z</time>
      </trkpt>
      <trkpt lat="40.0547010" lon="-8.4460120">
        <ele>166.3</ele>
        <time>2015-03-21T16:11:57Z</time>
      </trkpt>
      <trkpt lat="40.0548220" lon="-8.4462480">
        <ele>167.8</ele>
        <time>2015-03-21T16:12:08Z</time>
      </trkpt>
      <trkpt lat="40.0548860" lon="-8.4462110">
        <ele>168.0</ele>
        <time>2015-03-21T16:12:12Z</time>
      </trkpt>
      <trkpt lat="40.0553080" lon="-8.4461750">
        <ele>168.8</ele>
        <time>2015-03-21T16:12:29Z</time>
      </trkpt>
      <trkpt lat="40.0555530" lon="-8.4461240">
        <ele>170.1</ele>
        <time>2015-03-21T16:12:40Z</time>
      </trkpt>
      <trkpt lat="40.0556160" lon="-8.4461290">
        <ele>170.0</ele>
        <time>2015-03-21T16:12:52Z</time>
      </trkpt>
      <trkpt lat="40.0559170" lon="-8.4464380">
        <ele>169.0</ele>
        <time>2015-03-21T16:13:21Z</time>
      </trkpt>
      <trkpt lat="40.0562170" lon="-8.4470540">
        <ele>167.5</ele>
        <time>2015-03-21T16:13:36Z</time>
      </trkpt>
      <trkpt lat="40.0563010" lon="-8.4472450">
        <ele>166.5</ele>
        <time>2015-03-21T16:13:40Z</time>
      </trkpt>
      <trkpt lat="40.0564590" lon="-8.4478160">
        <ele>164.2</ele>
        <time>2015-03-21T16:13:48Z</time>
      </trkpt>
      <trkpt lat="40.0565960" lon="-8.4482050">
        <ele>162.9</ele>
        <time>2015-03-21T16:13:53Z</time>
      </trkpt>
      <trkpt lat="40.0568360" lon="-8.4488880">
        <ele>158.3</ele>
        <time>2015-03-21T16:14:01Z</time>
      </trkpt>
      <trkpt lat="40.0568690" lon="-8.4489720">
        <ele>157.3</ele>
        <time>2015-03-21T16:14:02Z</time>
      </trkpt>
      <trkpt lat="40.0569540" lon="-8.4494480">
        <ele>153.8</ele>
        <time>2015-03-21T16:14:07Z</time>
      </trkpt>
      <trkpt lat="40.0570950" lon="-8.4498060">
        <ele>152.5</ele>
        <time>2015-03-21T16:14:11Z</time>
      </trkpt>
      <trkpt lat="40.0572060" lon="-8.4499400">
        <ele>152.1</ele>
        <time>2015-03-21T16:14:13Z</time>
      </trkpt>
      <trkpt lat="40.0575260" lon="-8.4501460">
        <ele>151.5</ele>
        <time>2015-03-21T16:14:18Z</time>
      </trkpt>
      <trkpt lat="40.0576850" lon="-8.4504910">
        <ele>152.0</ele>
        <time>2015-03-21T16:14:24Z</time>
      </trkpt>
      <trkpt lat="40.0576720" lon="-8.4506050">
        <ele>152.3</ele>
        <time>2015-03-21T16:14:26Z</time>
      </trkpt>
      <trkpt lat="40.0577630" lon="-8.4508220">
        <ele>153.1</ele>
        <time>2015-03-21T16:14:31Z</time>
      </trkpt>
      <trkpt lat="40.0579590" lon="-8.4511450">
        <ele>154.0</ele>
        <time>2015-03-21T16:14:44Z</time>
      </trkpt>
      <trkpt lat="40.0580540" lon="-8.4515720">
        <ele>155.5</ele>
        <time>2015-03-21T16:15:02Z</time>
      </trkpt>
      <trkpt lat="40.0581400" lon="-8.4519130">
        <ele>156.4</ele>
        <time>2015-03-21T16:15:18Z</time>
      </trkpt>
      <trkpt lat="40.0582850" lon="-8.4522780">
        <ele>157.4</ele>
        <time>2015-03-21T16:15:36Z</time>
      </trkpt>
      <trkpt lat="40.0584860" lon="-8.4526080">
        <ele>159.0</ele>
        <time>2015-03-21T16:15:52Z</time>
      </trkpt>
      <trkpt lat="40.0588050" lon="-8.4529590">
        <ele>161.1</ele>
        <time>2015-03-21T16:16:08Z</time>
      </trkpt>
      <trkpt lat="40.0591010" lon="-8.4532420">
        <ele>162.9</ele>
        <time>2015-03-21T16:16:22Z</time>
      </trkpt>
      <trkpt lat="40.0592820" lon="-8.4534470">
        <ele>164.1</ele>
        <time>2015-03-21T16:16:34Z</time>
      </trkpt>
      <trkpt lat="40.0594390" lon="-8.4537690">
        <ele>164.7</ele>
        <time>2015-03-21T16:16:51Z</time>
      </trkpt>
      <trkpt lat="40.0596300" lon="-8.4541300">
        <ele>164.7</ele>
        <time>2015-03-21T16:17:08Z</time>
      </trkpt>
      <trkpt lat="40.0596860" lon="-8.4541690">
        <ele>164.7</ele>
        <time>2015-03-21T16:17:47Z</time>
      </trkpt>
      <trkpt lat="40.0597820" lon="-8.4542700">
        <ele>164.4</ele>
        <time>2015-03-21T16:17:52Z</time>
      </trkpt>
      <trkpt lat="40.0598920" lon="-8.4543290">
        <ele>163.8</ele>
        <time>2015-03-21T16:17:55Z</time>
      </trkpt>
      <trkpt lat="40.0602910" lon="-8.4544720">
        <ele>163.3</ele>
        <time>2015-03-21T16:18:09Z</time>
      </trkpt>
      <trkpt lat="40.0606440" lon="-8.4547490">
        <ele>166.0</ele>
        <time>2015-03-21T16:18:24Z</time>
      </trkpt>
      <trkpt lat="40.0609750" lon="-8.4551660">
        <ele>165.6</ele>
        <time>2015-03-21T16:18:39Z</time>
      </trkpt>
      <trkpt lat="40.0612340" lon="-8.4557480">
        <ele>165.7</ele>
        <time>2015-03-21T16:18:56Z</time>
      </trkpt>
      <trkpt lat="40.0612730" lon="-8.4558010">
        <ele>165.8</ele>
        <time>2015-03-21T16:18:58Z</time>
      </trkpt>
      <trkpt lat="40.0616790" lon="-8.4564080">
        <ele>166.7</ele>
        <time>2015-03-21T16:19:18Z</time>
      </trkpt>
      <trkpt lat="40.0620510" lon="-8.4565520">
        <ele>166.4</ele>
        <time>2015-03-21T16:19:29Z</time>
      </trkpt>
      <trkpt lat="40.0626740" lon="-8.4565250">
        <ele>165.4</ele>
        <time>2015-03-21T16:19:45Z</time>
      </trkpt>
      <trkpt lat="40.0629690" lon="-8.4566070">
        <ele>163.6</ele>
        <time>2015-03-21T16:19:52Z</time>
      </trkpt>
      <trkpt lat="40.0632740" lon="-8.4568360">
        <ele>163.3</ele>
        <time>2015-03-21T16:19:59Z</time>
      </trkpt>
      <trkpt lat="40.0635660" lon="-8.4571630">
        <ele>161.8</ele>
        <time>2015-03-21T16:20:06Z</time>
      </trkpt>
      <trkpt lat="40.0640320" lon="-8.4574350">
        <ele>161.4</ele>
        <time>2015-03-21T16:20:18Z</time>
      </trkpt>
      <trkpt lat="40.0647290" lon="-8.4579530">
        <ele>162.7</ele>
        <time>2015-03-21T16:20:37Z</time>
      </trkpt>
      <trkpt lat="40.0653220" lon="-8.4586100">
        <ele>160.6</ele>
        <time>2015-03-21T16:20:52Z</time>
      </trkpt>
      <trkpt lat="40.0659990" lon="-8.4589980">
        <ele>158.5</ele>
        <time>2015-03-21T16:21:04Z</time>
      </trkpt>
      <trkpt lat="40.0667780" lon="-8.4595980">
        <ele>157.0</ele>
        <time>2015-03-21T16:21:19Z</time>
      </trkpt>
      <trkpt lat="40.0674030" lon="-8.4601460">
        <ele>156.9</ele>
        <time>2015-03-21T16:21:34Z</time>
      </trkpt>
      <trkpt lat="40.0681090" lon="-8.4607450">
        <ele>156.0</ele>
        <time>2015-03-21T16:21:51Z</time>
      </trkpt>
      <trkpt lat="40.0681960" lon="-8.4608470">
        <ele>155.4</ele>
        <time>2015-03-21T16:21:59Z</time>
      </trkpt>
      <trkpt lat="40.0682750" lon="-8.4608870">
        <ele>155.1</ele>
        <time>2015-03-21T16:22:24Z</time>
      </trkpt>
      <trkpt lat="40.0686970" lon="-8.4612820">
        <ele>154.4</ele>
        <time>2015-03-21T16:22:37Z</time>
      </trkpt>
      <trkpt lat="40.0692580" lon="-8.4622610">
        <ele>152.2</ele>
        <time>2015-03-21T16:22:57Z</time>
      </trkpt>
      <trkpt lat="40.0694910" lon="-8.4628950">
        <ele>150.6</ele>
        <time>2015-03-21T16:23:09Z</time>
      </trkpt>
      <trkpt lat="40.0695610" lon="-8.4633040">
        <ele>149.6</ele>
        <time>2015-03-21T16:23:16Z</time>
      </trkpt>
      <trkpt lat="40.0697340" lon="-8.4636990">
        <ele>146.1</ele>
        <time>2015-03-21T16:23:22Z</time>
      </trkpt>
      <trkpt lat="40.0699710" lon="-8.4642770">
        <ele>142.9</ele>
        <time>2015-03-21T16:23:28Z</time>
      </trkpt>
      <trkpt lat="40.0705860" lon="-8.4654210">
        <ele>139.6</ele>
        <time>2015-03-21T16:23:41Z</time>
      </trkpt>
      <trkpt lat="40.0712090" lon="-8.4664920">
        <ele>139.0</ele>
        <time>2015-03-21T16:23:56Z</time>
      </trkpt>
      <trkpt lat="40.0717070" lon="-8.4672290">
        <ele>139.0</ele>
        <time>2015-03-21T16:24:12Z</time>
      </trkpt>
      <trkpt lat="40.0718070" lon="-8.4673330">
        <ele>139.1</ele>
        <time>2015-03-21T16:24:41Z</time>
      </trkpt>
      <trkpt lat="40.0717600" lon="-8.4674720">
        <ele>138.6</ele>
        <time>2015-03-21T16:26:34Z</time>
      </trkpt>
      <trkpt lat="40.0717370" lon="-8.4676510">
        <ele>138.2</ele>
        <time>2015-03-21T16:26:37Z</time>
      </trkpt>
      <trkpt lat="40.0714410" lon="-8.4684390">
        <ele>137.4</ele>
        <time>2015-03-21T16:26:52Z</time>
      </trkpt>
      <trkpt lat="40.0713350" lon="-8.4691060">
        <ele>137.4</ele>
        <time>2015-03-21T16:27:06Z</time>
      </trkpt>
      <trkpt lat="40.0712280" lon="-8.4697000">
        <ele>137.4</ele>
        <time>2015-03-21T16:27:19Z</time>
      </trkpt>
      <trkpt lat="40.0713550" lon="-8.4701960">
        <ele>137.4</ele>
        <time>2015-03-21T16:27:30Z</time>
      </trkpt>
      <trkpt lat="40.0715620" lon="-8.4705920">
        <ele>137.2</ele>
        <time>2015-03-21T16:27:39Z</time>
      </trkpt>
      <trkpt lat="40.0716180" lon="-8.4708370">
        <ele>137.1</ele>
        <time>2015-03-21T16:27:44Z</time>
      </trkpt>
      <trkpt lat="40.0716330" lon="-8.4710470">
        <ele>137.0</ele>
        <time>2015-03-21T16:27:48Z</time>
      </trkpt>
      <trkpt lat="40.0716330" lon="-8.4712620">
        <ele>137.0</ele>
        <time>2015-03-21T16:27:52Z</time>
      </trkpt>
      <trkpt lat="40.0716470" lon="-8.4714070">
        <ele>137.0</ele>
        <time>2015-03-21T16:27:55Z</time>
      </trkpt>
      <trkpt lat="40.0716620" lon="-8.4716190">
        <ele>137.0</ele>
        <time>2015-03-21T16:27:59Z</time>
      </trkpt>
      <trkpt lat="40.0716910" lon="-8.4717730">
        <ele>136.9</ele>
        <time>2015-03-21T16:28:02Z</time>
      </trkpt>
      <trkpt lat="40.0717750" lon="-8.4720310">
        <ele>136.7</ele>
        <time>2015-03-21T16:28:07Z</time>
      </trkpt>
      <trkpt lat="40.0718830" lon="-8.4722330">
        <ele>136.6</ele>
        <time>2015-03-21T16:28:12Z</time>
      </trkpt>
      <trkpt lat="40.0721730" lon="-8.4725330">
        <ele>136.4</ele>
        <time>2015-03-21T16:28:23Z</time>
      </trkpt>
      <trkpt lat="40.0723360" lon="-8.4730360">
        <ele>136.6</ele>
        <time>2015-03-21T16:28:35Z</time>
      </trkpt>
      <trkpt lat="40.0725290" lon="-8.4733020">
        <ele>137.0</ele>
        <time>2015-03-21T16:28:45Z</time>
      </trkpt>
      <trkpt lat="40.0727420" lon="-8.4733900">
        <ele>137.7</ele>
        <time>2015-03-21T16:28:51Z</time>
      </trkpt>
      <trkpt lat="40.0729230" lon="-8.4735770">
        <ele>137.8</ele>
        <time>2015-03-21T16:29:00Z</time>
      </trkpt>
      <trkpt lat="40.0730310" lon="-8.4736790">
        <ele>137.7</ele>
        <time>2015-03-21T16:29:06Z</time>
      </trkpt>
      <trkpt lat="40.0731520" lon="-8.4737300">
        <ele>137.5</ele>
        <time>2015-03-21T16:29:11Z</time>
      </trkpt>
      <trkpt lat="40.0735010" lon="-8.4740720">
        <ele>137.2</ele>
        <time>2015-03-21T16:29:24Z</time>
      </trkpt>
      <trkpt lat="40.0738430" lon="-8.4743300">
        <ele>137.0</ele>
        <time>2015-03-21T16:29:37Z</time>
      </trkpt>
      <trkpt lat="40.0741990" lon="-8.4743630">
        <ele>137.7</ele>
        <time>2015-03-21T16:29:48Z</time>
      </trkpt>
      <trkpt lat="40.0745490" lon="-8.4745470">
        <ele>138.3</ele>
        <time>2015-03-21T16:30:00Z</time>
      </trkpt>
      <trkpt lat="40.0748090" lon="-8.4746950">
        <ele>138.5</ele>
        <time>2015-03-21T16:30:09Z</time>
      </trkpt>
      <trkpt lat="40.0749980" lon="-8.4747760">
        <ele>138.7</ele>
        <time>2015-03-21T16:30:18Z</time>
      </trkpt>
      <trkpt lat="40.0751130" lon="-8.4748440">
        <ele>138.7</ele>
        <time>2015-03-21T16:30:28Z</time>
      </trkpt>
      <trkpt lat="40.0751880" lon="-8.4748970">
        <ele>138.8</ele>
        <time>2015-03-21T16:30:50Z</time>
      </trkpt>
      <trkpt lat="40.0754530" lon="-8.4750860">
        <ele>138.3</ele>
        <time>2015-03-21T16:31:01Z</time>
      </trkpt>
      <trkpt lat="40.0757170" lon="-8.4752190">
        <ele>137.8</ele>
        <time>2015-03-21T16:31:11Z</time>
      </trkpt>
      <trkpt lat="40.0759170" lon="-8.4752330">
        <ele>137.7</ele>
        <time>2015-03-21T16:31:19Z</time>
      </trkpt>
      <trkpt lat="40.0759630" lon="-8.4752140">
        <ele>137.8</ele>
        <time>2015-03-21T16:31:23Z</time>
      </trkpt>
      <trkpt lat="40.0760520" lon="-8.4753620">
        <ele>138.0</ele>
        <time>2015-03-21T16:31:30Z</time>
      </trkpt>
      <trkpt lat="40.0761910" lon="-8.4755580">
        <ele>137.8</ele>
        <time>2015-03-21T16:31:37Z</time>
      </trkpt>
      <trkpt lat="40.0765240" lon="-8.4754650">
        <ele>137.5</ele>
        <time>2015-03-21T16:31:49Z</time>
      </trkpt>
      <trkpt lat="40.0767350" lon="-8.4754430">
        <ele>138.2</ele>
        <time>2015-03-21T16:32:00Z</time>
      </trkpt>
      <trkpt lat="40.0769870" lon="-8.4754670">
        <ele>139.3</ele>
        <time>2015-03-21T16:32:11Z</time>
      </trkpt>
      <trkpt lat="40.0773170" lon="-8.4757330">
        <ele>140.4</ele>
        <time>2015-03-21T16:32:26Z</time>
      </trkpt>
      <trkpt lat="40.0775820" lon="-8.4761710">
        <ele>141.4</ele>
        <time>2015-03-21T16:32:42Z</time>
      </trkpt>
      <trkpt lat="40.0776580" lon="-8.4766150">
        <ele>141.8</ele>
        <time>2015-03-21T16:32:54Z</time>
      </trkpt>
      <trkpt lat="40.0779680" lon="-8.4768970">
        <ele>141.0</ele>
        <time>2015-03-21T16:33:06Z</time>
      </trkpt>
      <trkpt lat="40.0784240" lon="-8.4771290">
        <ele>139.7</ele>
        <time>2015-03-21T16:33:20Z</time>
      </trkpt>
      <trkpt lat="40.0786910" lon="-8.4774390">
        <ele>141.6</ele>
        <time>2015-03-21T16:33:31Z</time>
      </trkpt>
      <trkpt lat="40.0786500" lon="-8.4776840">
        <ele>146.4</ele>
        <time>2015-03-21T16:33:39Z</time>
      </trkpt>
      <trkpt lat="40.0784060" lon="-8.4778080">
        <ele>151.6</ele>
        <time>2015-03-21T16:33:52Z</time>
      </trkpt>
      <trkpt lat="40.0783640" lon="-8.4778790">
        <ele>152.7</ele>
        <time>2015-03-21T16:33:57Z</time>
      </trkpt>
      <trkpt lat="40.0783540" lon="-8.4779760">
        <ele>153.9</ele>
        <time>2015-03-21T16:34:03Z</time>
      </trkpt>
      <trkpt lat="40.0783920" lon="-8.4780620">
        <ele>155.3</ele>
        <time>2015-03-21T16:34:09Z</time>
      </trkpt>
      <trkpt lat="40.0784850" lon="-8.4782660">
        <ele>156.9</ele>
        <time>2015-03-21T16:34:23Z</time>
      </trkpt>
      <trkpt lat="40.0785400" lon="-8.4783220">
        <ele>156.9</ele>
        <time>2015-03-21T16:34:28Z</time>
      </trkpt>
      <trkpt lat="40.0787680" lon="-8.4785380">
        <ele>156.6</ele>
        <time>2015-03-21T16:34:45Z</time>
      </trkpt>
      <trkpt lat="40.0790900" lon="-8.4787580">
        <ele>156.8</ele>
        <time>2015-03-21T16:35:00Z</time>
      </trkpt>
      <trkpt lat="40.0794580" lon="-8.4789840">
        <ele>157.8</ele>
        <time>2015-03-21T16:35:17Z</time>
      </trkpt>
      <trkpt lat="40.0798380" lon="-8.4791980">
        <ele>155.8</ele>
        <time>2015-03-21T16:35:32Z</time>
      </trkpt>
      <trkpt lat="40.0799170" lon="-8.4792270">
        <ele>155.1</ele>
        <time>2015-03-21T16:35:34Z</time>
      </trkpt>
      <trkpt lat="40.0800010" lon="-8.4792620">
        <ele>154.2</ele>
        <time>2015-03-21T16:35:36Z</time>
      </trkpt>
      <trkpt lat="40.0802480" lon="-8.4793330">
        <ele>152.0</ele>
        <time>2015-03-21T16:35:41Z</time>
      </trkpt>
      <trkpt lat="40.0803660" lon="-8.4793890">
        <ele>151.3</ele>
        <time>2015-03-21T16:35:43Z</time>
      </trkpt>
      <trkpt lat="40.0809550" lon="-8.4799670">
        <ele>147.7</ele>
        <time>2015-03-21T16:35:54Z</time>
      </trkpt>
      <trkpt lat="40.0813720" lon="-8.4807880">
        <ele>145.7</ele>
        <time>2015-03-21T16:36:05Z</time>
      </trkpt>
      <trkpt lat="40.0814640" lon="-8.4809490">
        <ele>145.6</ele>
        <time>2015-03-21T16:36:08Z</time>
      </trkpt>
      <trkpt lat="40.0816120" lon="-8.4813310">
        <ele>146.5</ele>
        <time>2015-03-21T16:36:19Z</time>
      </trkpt>
      <trkpt lat="40.0816870" lon="-8.4815930">
        <ele>147.7</ele>
        <time>2015-03-21T16:36:32Z</time>
      </trkpt>
      <trkpt lat="40.0818010" lon="-8.4818740">
        <ele>148.5</ele>
        <time>2015-03-21T16:36:47Z</time>
      </trkpt>
      <trkpt lat="40.0818200" lon="-8.4819370">
        <ele>148.4</ele>
        <time>2015-03-21T16:37:10Z</time>
      </trkpt>
      <trkpt lat="40.0818640" lon="-8.4819930">
        <ele>148.1</ele>
        <time>2015-03-21T16:37:12Z</time>
      </trkpt>
      <trkpt lat="40.0819150" lon="-8.4820770">
        <ele>147.4</ele>
        <time>2015-03-21T16:37:14Z</time>
      </trkpt>
      <trkpt lat="40.0820910" lon="-8.4823490">
        <ele>144.4</ele>
        <time>2015-03-21T16:37:19Z</time>
      </trkpt>
      <trkpt lat="40.0822770" lon="-8.4826030">
        <ele>141.5</ele>
        <time>2015-03-21T16:37:23Z</time>
      </trkpt>
      <trkpt lat="40.0824180" lon="-8.4828600">
        <ele>138.7</ele>
        <time>2015-03-21T16:37:26Z</time>
      </trkpt>
      <trkpt lat="40.0826850" lon="-8.4834990">
        <ele>136.1</ele>
        <time>2015-03-21T16:37:34Z</time>
      </trkpt>
      <trkpt lat="40.0828690" lon="-8.4837350">
        <ele>135.9</ele>
        <time>2015-03-21T16:37:39Z</time>
      </trkpt>
      <trkpt lat="40.0829360" lon="-8.4838380">
        <ele>135.9</ele>
        <time>2015-03-21T16:37:41Z</time>
      </trkpt>
      <trkpt lat="40.0830920" lon="-8.4841390">
        <ele>135.9</ele>
        <time>2015-03-21T16:37:47Z</time>
      </trkpt>
      <trkpt lat="40.0834100" lon="-8.4844460">
        <ele>135.9</ele>
        <time>2015-03-21T16:38:00Z</time>
      </trkpt>
      <trkpt lat="40.0837640" lon="-8.4843060">
        <ele>135.4</ele>
        <time>2015-03-21T16:38:11Z</time>
      </trkpt>
      <trkpt lat="40.0841750" lon="-8.4838810">
        <ele>133.8</ele>
        <time>2015-03-21T16:38:26Z</time>
      </trkpt>
      <trkpt lat="40.0842360" lon="-8.4837500">
        <ele>133.8</ele>
        <time>2015-03-21T16:38:33Z</time>
      </trkpt>
      <trkpt lat="40.0842880" lon="-8.4836900">
        <ele>134.0</ele>
        <time>2015-03-21T16:38:37Z</time>
      </trkpt>
      <trkpt lat="40.0844630" lon="-8.4834500">
        <ele>135.9</ele>
        <time>2015-03-21T16:38:54Z</time>
      </trkpt>
      <trkpt lat="40.0845440" lon="-8.4833400">
        <ele>137.6</ele>
        <time>2015-03-21T16:39:05Z</time>
      </trkpt>
      <trkpt lat="40.0846050" lon="-8.4833360">
        <ele>138.6</ele>
        <time>2015-03-21T16:39:11Z</time>
      </trkpt>
      <trkpt lat="40.0848300" lon="-8.4833410">
        <ele>141.9</ele>
        <time>2015-03-21T16:39:29Z</time>
      </trkpt>
      <trkpt lat="40.0850060" lon="-8.4833430">
        <ele>143.8</ele>
        <time>2015-03-21T16:39:42Z</time>
      </trkpt>
      <trkpt lat="40.0850560" lon="-8.4833420">
        <ele>144.2</ele>
        <time>2015-03-21T16:39:46Z</time>
      </trkpt>
      <trkpt lat="40.0852670" lon="-8.4833700">
        <ele>146.4</ele>
        <time>2015-03-21T16:40:02Z</time>
      </trkpt>
      <trkpt lat="40.0854590" lon="-8.4833810">
        <ele>148.6</ele>
        <time>2015-03-21T16:40:17Z</time>
      </trkpt>
      <trkpt lat="40.0855210" lon="-8.4834040">
        <ele>149.2</ele>
        <time>2015-03-21T16:40:22Z</time>
      </trkpt>
      <trkpt lat="40.0857570" lon="-8.4834920">
        <ele>151.6</ele>
        <time>2015-03-21T16:40:40Z</time>
      </trkpt>
      <trkpt lat="40.0859320" lon="-8.4836940">
        <ele>154.2</ele>
        <time>2015-03-21T16:40:58Z</time>
      </trkpt>
      <trkpt lat="40.0859900" lon="-8.4837660">
        <ele>154.7</ele>
        <time>2015-03-21T16:41:04Z</time>
      </trkpt>
      <trkpt lat="40.0861320" lon="-8.4840200">
        <ele>156.5</ele>
        <time>2015-03-21T16:41:18Z</time>
      </trkpt>
      <trkpt lat="40.0863220" lon="-8.4844190">
        <ele>157.2</ele>
        <time>2015-03-21T16:41:36Z</time>
      </trkpt>
      <trkpt lat="40.0865000" lon="-8.4846860">
        <ele>157.4</ele>
        <time>2015-03-21T16:41:51Z</time>
      </trkpt>
      <trkpt lat="40.0866510" lon="-8.4849790">
        <ele>158.3</ele>
        <time>2015-03-21T16:42:08Z</time>
      </trkpt>
      <trkpt lat="40.0866860" lon="-8.4850420">
        <ele>158.7</ele>
        <time>2015-03-21T16:42:12Z</time>
      </trkpt>
      <trkpt lat="40.0869140" lon="-8.4853270">
        <ele>160.3</ele>
        <time>2015-03-21T16:42:32Z</time>
      </trkpt>
      <trkpt lat="40.0871110" lon="-8.4855500">
        <ele>161.8</ele>
        <time>2015-03-21T16:42:49Z</time>
      </trkpt>
      <trkpt lat="40.0872300" lon="-8.4857280">
        <ele>163.3</ele>
        <time>2015-03-21T16:43:01Z</time>
      </trkpt>
      <trkpt lat="40.0872890" lon="-8.4857860">
        <ele>163.7</ele>
        <time>2015-03-21T16:43:06Z</time>
      </trkpt>
      <trkpt lat="40.0875030" lon="-8.4859800">
        <ele>165.4</ele>
        <time>2015-03-21T16:43:21Z</time>
      </trkpt>
      <trkpt lat="40.0877260" lon="-8.4861470">
        <ele>166.7</ele>
        <time>2015-03-21T16:43:37Z</time>
      </trkpt>
      <trkpt lat="40.0880100" lon="-8.4862730">
        <ele>168.9</ele>
        <time>2015-03-21T16:43:53Z</time>
      </trkpt>
      <trkpt lat="40.0883480" lon="-8.4864250">
        <ele>170.0</ele>
        <time>2015-03-21T16:44:07Z</time>
      </trkpt>
      <trkpt lat="40.0886060" lon="-8.4865960">
        <ele>170.2</ele>
        <time>2015-03-21T16:44:18Z</time>
      </trkpt>
      <trkpt lat="40.0888800" lon="-8.4867490">
        <ele>170.4</ele>
        <time>2015-03-21T16:44:29Z</time>
      </trkpt>
      <trkpt lat="40.0892360" lon="-8.4869470">
        <ele>170.5</ele>
        <time>2015-03-21T16:44:43Z</time>
      </trkpt>
      <trkpt lat="40.0895550" lon="-8.4871500">
        <ele>170.3</ele>
        <time>2015-03-21T16:44:55Z</time>
      </trkpt>
      <trkpt lat="40.0898110" lon="-8.4873020">
        <ele>170.0</ele>
        <time>2015-03-21T16:45:06Z</time>
      </trkpt>
      <trkpt lat="40.0900230" lon="-8.4873430">
        <ele>169.6</ele>
        <time>2015-03-21T16:45:12Z</time>
      </trkpt>
      <trkpt lat="40.0902340" lon="-8.4873790">
        <ele>168.9</ele>
        <time>2015-03-21T16:45:16Z</time>
      </trkpt>
      <trkpt lat="40.0904420" lon="-8.4874600">
        <ele>168.2</ele>
        <time>2015-03-21T16:45:20Z</time>
      </trkpt>
      <trkpt lat="40.0906310" lon="-8.4875860">
        <ele>167.5</ele>
        <time>2015-03-21T16:45:24Z</time>
      </trkpt>
      <trkpt lat="40.0907730" lon="-8.4876360">
        <ele>167.2</ele>
        <time>2015-03-21T16:45:27Z</time>
      </trkpt>
      <trkpt lat="40.0911330" lon="-8.4879170">
        <ele>167.7</ele>
        <time>2015-03-21T16:45:40Z</time>
      </trkpt>
      <trkpt lat="40.0911980" lon="-8.4880780">
        <ele>168.2</ele>
        <time>2015-03-21T16:45:45Z</time>
      </trkpt>
      <trkpt lat="40.0913480" lon="-8.4885280">
        <ele>170.1</ele>
        <time>2015-03-21T16:45:57Z</time>
      </trkpt>
      <trkpt lat="40.0913820" lon="-8.4886450">
        <ele>169.8</ele>
        <time>2015-03-21T16:46:05Z</time>
      </trkpt>
      <trkpt lat="40.0916020" lon="-8.4888640">
        <ele>166.9</ele>
        <time>2015-03-21T16:46:11Z</time>
      </trkpt>
      <trkpt lat="40.0916780" lon="-8.4889570">
        <ele>166.0</ele>
        <time>2015-03-21T16:46:13Z</time>
      </trkpt>
      <trkpt lat="40.0917610" lon="-8.4890690">
        <ele>165.2</ele>
        <time>2015-03-21T16:46:15Z</time>
      </trkpt>
      <trkpt lat="40.0920370" lon="-8.4894720">
        <ele>162.9</ele>
        <time>2015-03-21T16:46:21Z</time>
      </trkpt>
      <trkpt lat="40.0921020" lon="-8.4896120">
        <ele>162.4</ele>
        <time>2015-03-21T16:46:23Z</time>
      </trkpt>
      <trkpt lat="40.0925150" lon="-8.4898000">
        <ele>159.8</ele>
        <time>2015-03-21T16:46:31Z</time>
      </trkpt>
      <trkpt lat="40.0926340" lon="-8.4898490">
        <ele>159.3</ele>
        <time>2015-03-21T16:46:33Z</time>
      </trkpt>
      <trkpt lat="40.0928850" lon="-8.4900320">
        <ele>157.7</ele>
        <time>2015-03-21T16:46:37Z</time>
      </trkpt>
      <trkpt lat="40.0932680" lon="-8.4906400">
        <ele>154.6</ele>
        <time>2015-03-21T16:46:45Z</time>
      </trkpt>
      <trkpt lat="40.0936410" lon="-8.4909970">
        <ele>151.6</ele>
        <time>2015-03-21T16:46:52Z</time>
      </trkpt>
      <trkpt lat="40.0937040" lon="-8.4910440">
        <ele>150.6</ele>
        <time>2015-03-21T16:46:53Z</time>
      </trkpt>
      <trkpt lat="40.0940780" lon="-8.4910400">
        <ele>146.5</ele>
        <time>2015-03-21T16:46:59Z</time>
      </trkpt>
      <trkpt lat="40.0942720" lon="-8.4910670">
        <ele>144.7</ele>
        <time>2015-03-21T16:47:03Z</time>
      </trkpt>
      <trkpt lat="40.0944870" lon="-8.4911470">
        <ele>143.2</ele>
        <time>2015-03-21T16:47:08Z</time>
      </trkpt>
      <trkpt lat="40.0945920" lon="-8.4911490">
        <ele>142.5</ele>
        <time>2015-03-21T16:47:10Z</time>
      </trkpt>
      <trkpt lat="40.0947050" lon="-8.4911670">
        <ele>141.7</ele>
        <time>2015-03-21T16:47:12Z</time>
      </trkpt>
      <trkpt lat="40.0949640" lon="-8.4913340">
        <ele>139.1</ele>
        <time>2015-03-21T16:47:17Z</time>
      </trkpt>
      <trkpt lat="40.0950430" lon="-8.4914450">
        <ele>138.2</ele>
        <time>2015-03-21T16:47:19Z</time>
      </trkpt>
      <trkpt lat="40.0951400" lon="-8.4915990">
        <ele>136.8</ele>
        <time>2015-03-21T16:47:22Z</time>
      </trkpt>
      <trkpt lat="40.0954020" lon="-8.4918990">
        <ele>133.8</ele>
        <time>2015-03-21T16:47:28Z</time>
      </trkpt>
      <trkpt lat="40.0956380" lon="-8.4919800">
        <ele>130.9</ele>
        <time>2015-03-21T16:47:32Z</time>
      </trkpt>
      <trkpt lat="40.0957680" lon="-8.4921290">
        <ele>128.4</ele>
        <time>2015-03-21T16:47:35Z</time>
      </trkpt>
      <trkpt lat="40.0959290" lon="-8.4924690">
        <ele>123.4</ele>
        <time>2015-03-21T16:47:40Z</time>
      </trkpt>
      <trkpt lat="40.0960950" lon="-8.4929730">
        <ele>115.6</ele>
        <time>2015-03-21T16:47:49Z</time>
      </trkpt>
      <trkpt lat="40.0963070" lon="-8.4929200">
        <ele>113.5</ele>
        <time>2015-03-21T16:47:54Z</time>
      </trkpt>
      <trkpt lat="40.0964160" lon="-8.4928910">
        <ele>112.5</ele>
        <time>2015-03-21T16:47:57Z</time>
      </trkpt>
      <trkpt lat="40.0967870" lon="-8.4927830">
        <ele>107.8</ele>
        <time>2015-03-21T16:48:04Z</time>
      </trkpt>
      <trkpt lat="40.0971960" lon="-8.4925910">
        <ele>102.6</ele>
        <time>2015-03-21T16:48:10Z</time>
      </trkpt>
      <trkpt lat="40.0974790" lon="-8.4925080">
        <ele>102.5</ele>
        <time>2015-03-21T16:48:14Z</time>
      </trkpt>
      <trkpt lat="40.0976070" lon="-8.4924540">
        <ele>102.8</ele>
        <time>2015-03-21T16:48:16Z</time>
      </trkpt>
      <trkpt lat="40.0977590" lon="-8.4922570">
        <ele>103.1</ele>
        <time>2015-03-21T16:48:20Z</time>
      </trkpt>
      <trkpt lat="40.0978260" lon="-8.4920740">
        <ele>103.2</ele>
        <time>2015-03-21T16:48:23Z</time>
      </trkpt>
      <trkpt lat="40.0977880" lon="-8.4918720">
        <ele>103.4</ele>
        <time>2015-03-21T16:48:27Z</time>
      </trkpt>
      <trkpt lat="40.0977010" lon="-8.4917540">
        <ele>103.5</ele>
        <time>2015-03-21T16:48:31Z</time>
      </trkpt>
      <trkpt lat="40.0976230" lon="-8.4915770">
        <ele>103.5</ele>
        <time>2015-03-21T16:48:39Z</time>
      </trkpt>
      <trkpt lat="40.0976690" lon="-8.4914470">
        <ele>103.2</ele>
        <time>2015-03-21T16:48:46Z</time>
      </trkpt>
      <trkpt lat="40.0978690" lon="-8.4913520">
        <ele>103.0</ele>
        <time>2015-03-21T16:48:50Z</time>
      </trkpt>
      <trkpt lat="40.0980350" lon="-8.4914610">
        <ele>101.3</ele>
        <time>2015-03-21T16:49:02Z</time>
      </trkpt>
      <trkpt lat="40.0981080" lon="-8.4915950">
        <ele>100.3</ele>
        <time>2015-03-21T16:49:17Z</time>
      </trkpt>
      <trkpt lat="40.0981850" lon="-8.4917120">
        <ele>99.6</ele>
        <time>2015-03-21T16:49:30Z</time>
      </trkpt>
      <trkpt lat="40.0982420" lon="-8.4918170">
        <ele>99.3</ele>
        <time>2015-03-21T16:49:38Z</time>
      </trkpt>
      <trkpt lat="40.0983290" lon="-8.4920060">
        <ele>99.1</ele>
        <time>2015-03-21T16:49:53Z</time>
      </trkpt>
      <trkpt lat="40.0984450" lon="-8.4922080">
        <ele>99.6</ele>
        <time>2015-03-21T16:50:11Z</time>
      </trkpt>
      <trkpt lat="40.0984740" lon="-8.4922600">
        <ele>99.8</ele>
        <time>2015-03-21T16:50:16Z</time>
      </trkpt>
      <trkpt lat="40.0985260" lon="-8.4924130">
        <ele>100.1</ele>
        <time>2015-03-21T16:50:28Z</time>
      </trkpt>
      <trkpt lat="40.0985960" lon="-8.4924370">
        <ele>100.3</ele>
        <time>2015-03-21T16:50:36Z</time>
      </trkpt>
      <trkpt lat="40.0985990" lon="-8.4923090">
        <ele>101.0</ele>
        <time>2015-03-21T16:50:44Z</time>
      </trkpt>
      <trkpt lat="40.0985770" lon="-8.4922280">
        <ele>101.5</ele>
        <time>2015-03-21T16:50:50Z</time>
      </trkpt>
      <trkpt lat="40.0985760" lon="-8.4919570">
        <ele>103.1</ele>
        <time>2015-03-21T16:51:08Z</time>
      </trkpt>
      <trkpt lat="40.0985400" lon="-8.4917700">
        <ele>104.4</ele>
        <time>2015-03-21T16:51:20Z</time>
      </trkpt>
      <trkpt lat="40.0985290" lon="-8.4916980">
        <ele>104.9</ele>
        <time>2015-03-21T16:51:59Z</time>
      </trkpt>
      <trkpt lat="40.0984970" lon="-8.4916230">
        <ele>105.5</ele>
        <time>2015-03-21T16:52:04Z</time>
      </trkpt>
      <trkpt lat="40.0982690" lon="-8.4912210">
        <ele>109.3</ele>
        <time>2015-03-21T16:52:18Z</time>
      </trkpt>
      <trkpt lat="40.0980890" lon="-8.4907540">
        <ele>113.8</ele>
        <time>2015-03-21T16:52:30Z</time>
      </trkpt>
      <trkpt lat="40.0980220" lon="-8.4904510">
        <ele>115.0</ele>
        <time>2015-03-21T16:52:40Z</time>
      </trkpt>
      <trkpt lat="40.0979990" lon="-8.4902970">
        <ele>114.5</ele>
        <time>2015-03-21T16:52:45Z</time>
      </trkpt>
      <trkpt lat="40.0981500" lon="-8.4898770">
        <ele>115.6</ele>
        <time>2015-03-21T16:53:02Z</time>
      </trkpt>
      <trkpt lat="40.0982230" lon="-8.4894680">
        <ele>116.4</ele>
        <time>2015-03-21T16:53:16Z</time>
      </trkpt>
      <trkpt lat="40.0984400" lon="-8.4892690">
        <ele>116.0</ele>
        <time>2015-03-21T16:53:28Z</time>
      </trkpt>
      <trkpt lat="40.0988110" lon="-8.4891910">
        <ele>114.9</ele>
        <time>2015-03-21T16:53:41Z</time>
      </trkpt>
      <trkpt lat="40.0989580" lon="-8.4891660">
        <ele>114.6</ele>
        <time>2015-03-21T16:53:45Z</time>
      </trkpt>
      <trkpt lat="40.0991760" lon="-8.4892990">
        <ele>114.3</ele>
        <time>2015-03-21T16:53:51Z</time>
      </trkpt>
      <trkpt lat="40.0996050" lon="-8.4900220">
        <ele>111.9</ele>
        <time>2015-03-21T16:54:08Z</time>
      </trkpt>
      <trkpt lat="40.0998220" lon="-8.4901840">
        <ele>110.6</ele>
        <time>2015-03-21T16:54:13Z</time>
      </trkpt>
      <trkpt lat="40.1003760" lon="-8.4905410">
        <ele>108.3</ele>
        <time>2015-03-21T16:54:23Z</time>
      </trkpt>
      <trkpt lat="40.1006450" lon="-8.4908330">
        <ele>109.1</ele>
        <time>2015-03-21T16:54:28Z</time>
      </trkpt>
      <trkpt lat="40.1009500" lon="-8.4908190">
        <ele>110.5</ele>
        <time>2015-03-21T16:54:35Z</time>
      </trkpt>
      <trkpt lat="40.1011200" lon="-8.4905420">
        <ele>111.6</ele>
        <time>2015-03-21T16:54:46Z</time>
      </trkpt>
      <trkpt lat="40.1013830" lon="-8.4901180">
        <ele>113.8</ele>
        <time>2015-03-21T16:55:02Z</time>
      </trkpt>
      <trkpt lat="40.1016550" lon="-8.4897060">
        <ele>115.5</ele>
        <time>2015-03-21T16:55:18Z</time>
      </trkpt>
      <trkpt lat="40.1019970" lon="-8.4892210">
        <ele>117.2</ele>
        <time>2015-03-21T16:55:37Z</time>
      </trkpt>
      <trkpt lat="40.1022740" lon="-8.4889600">
        <ele>117.9</ele>
        <time>2015-03-21T16:55:52Z</time>
      </trkpt>
      <trkpt lat="40.1023560" lon="-8.4886100">
        <ele>119.0</ele>
        <time>2015-03-21T16:56:06Z</time>
      </trkpt>
      <trkpt lat="40.1026070" lon="-8.4882290">
        <ele>120.1</ele>
        <time>2015-03-21T16:56:22Z</time>
      </trkpt>
      <trkpt lat="40.1029270" lon="-8.4877680">
        <ele>121.9</ele>
        <time>2015-03-21T16:56:42Z</time>
      </trkpt>
      <trkpt lat="40.1032560" lon="-8.4876220">
        <ele>122.8</ele>
        <time>2015-03-21T16:56:57Z</time>
      </trkpt>
      <trkpt lat="40.1033620" lon="-8.4873670">
        <ele>123.7</ele>
        <time>2015-03-21T17:10:46Z</time>
      </trkpt>
      <trkpt lat="40.1035790" lon="-8.4867580">
        <ele>124.2</ele>
        <time>2015-03-21T17:11:02Z</time>
      </trkpt>
      <trkpt lat="40.1037220" lon="-8.4863180">
        <ele>125.5</ele>
        <time>2015-03-21T17:11:13Z</time>
      </trkpt>
      <trkpt lat="40.1039790" lon="-8.4859660">
        <ele>125.0</ele>
        <time>2015-03-21T17:11:22Z</time>
      </trkpt>
      <trkpt lat="40.1042650" lon="-8.4856200">
        <ele>123.5</ele>
        <time>2015-03-21T17:11:30Z</time>
      </trkpt>
      <trkpt lat="40.1045320" lon="-8.4846890">
        <ele>120.3</ele>
        <time>2015-03-21T17:11:42Z</time>
      </trkpt>
      <trkpt lat="40.1047320" lon="-8.4837210">
        <ele>119.2</ele>
        <time>2015-03-21T17:11:55Z</time>
      </trkpt>
      <trkpt lat="40.1047930" lon="-8.4834120">
        <ele>119.0</ele>
        <time>2015-03-21T17:12:00Z</time>
      </trkpt>
      <trkpt lat="40.1049280" lon="-8.4823140">
        <ele>117.5</ele>
        <time>2015-03-21T17:12:18Z</time>
      </trkpt>
      <trkpt lat="40.1050590" lon="-8.4812750">
        <ele>116.0</ele>
        <time>2015-03-21T17:12:35Z</time>
      </trkpt>
      <trkpt lat="40.1050710" lon="-8.4812160">
        <ele>116.0</ele>
        <time>2015-03-21T17:12:36Z</time>
      </trkpt>
      <trkpt lat="40.1052110" lon="-8.4810630">
        <ele>116.7</ele>
        <time>2015-03-21T17:12:41Z</time>
      </trkpt>
      <trkpt lat="40.1056250" lon="-8.4811850">
        <ele>118.6</ele>
        <time>2015-03-21T17:12:57Z</time>
      </trkpt>
      <trkpt lat="40.1060800" lon="-8.4813010">
        <ele>119.5</ele>
        <time>2015-03-21T17:13:15Z</time>
      </trkpt>
      <trkpt lat="40.1064160" lon="-8.4813790">
        <ele>120.2</ele>
        <time>2015-03-21T17:13:26Z</time>
      </trkpt>
      <trkpt lat="40.1064920" lon="-8.4811750">
        <ele>119.9</ele>
        <time>2015-03-21T17:13:31Z</time>
      </trkpt>
      <trkpt lat="40.1065040" lon="-8.4806750">
        <ele>119.0</ele>
        <time>2015-03-21T17:13:39Z</time>
      </trkpt>
      <trkpt lat="40.1068680" lon="-8.4798840">
        <ele>118.6</ele>
        <time>2015-03-21T17:13:55Z</time>
      </trkpt>
      <trkpt lat="40.1074520" lon="-8.4793990">
        <ele>116.4</ele>
        <time>2015-03-21T17:14:11Z</time>
      </trkpt>
      <trkpt lat="40.1076500" lon="-8.4792460">
        <ele>115.1</ele>
        <time>2015-03-21T17:14:15Z</time>
      </trkpt>
      <trkpt lat="40.1078940" lon="-8.4790550">
        <ele>113.5</ele>
        <time>2015-03-21T17:14:20Z</time>
      </trkpt>
      <trkpt lat="40.1080980" lon="-8.4788460">
        <ele>112.5</ele>
        <time>2015-03-21T17:14:24Z</time>
      </trkpt>
      <trkpt lat="40.1082170" lon="-8.4787450">
        <ele>111.9</ele>
        <time>2015-03-21T17:14:26Z</time>
      </trkpt>
      <trkpt lat="40.1087090" lon="-8.4785270">
        <ele>109.4</ele>
        <time>2015-03-21T17:14:33Z</time>
      </trkpt>
      <trkpt lat="40.1089410" lon="-8.4783220">
        <ele>108.5</ele>
        <time>2015-03-21T17:14:38Z</time>
      </trkpt>
      <trkpt lat="40.1097400" lon="-8.4780280">
        <ele>108.1</ele>
        <time>2015-03-21T17:14:56Z</time>
      </trkpt>
      <trkpt lat="40.1106120" lon="-8.4777010">
        <ele>108.2</ele>
        <time>2015-03-21T17:15:17Z</time>
      </trkpt>
      <trkpt lat="40.1114230" lon="-8.4774300">
        <ele>108.7</ele>
        <time>2015-03-21T17:15:36Z</time>
      </trkpt>
      <trkpt lat="40.1123760" lon="-8.4770910">
        <ele>108.7</ele>
        <time>2015-03-21T17:15:58Z</time>
      </trkpt>
      <trkpt lat="40.1130330" lon="-8.4767690">
        <ele>108.9</ele>
        <time>2015-03-21T17:16:13Z</time>
      </trkpt>
      <trkpt lat="40.1132390" lon="-8.4765250">
        <ele>108.8</ele>
        <time>2015-03-21T17:16:19Z</time>
      </trkpt>
      <trkpt lat="40.1134130" lon="-8.4763900">
        <ele>108.2</ele>
        <time>2015-03-21T17:16:23Z</time>
      </trkpt>
      <trkpt lat="40.1140890" lon="-8.4760910">
        <ele>106.5</ele>
        <time>2015-03-21T17:16:38Z</time>
      </trkpt>
      <trkpt lat="40.1141820" lon="-8.4759880">
        <ele>106.1</ele>
        <time>2015-03-21T17:16:41Z</time>
      </trkpt>
      <trkpt lat="40.1148700" lon="-8.4751640">
        <ele>104.3</ele>
        <time>2015-03-21T17:17:00Z</time>
      </trkpt>
      <trkpt lat="40.1149600" lon="-8.4750820">
        <ele>104.3</ele>
        <time>2015-03-21T17:17:02Z</time>
      </trkpt>
      <trkpt lat="40.1151000" lon="-8.4749960">
        <ele>104.4</ele>
        <time>2015-03-21T17:17:05Z</time>
      </trkpt>
      <trkpt lat="40.1159360" lon="-8.4746460">
        <ele>105.5</ele>
        <time>2015-03-21T17:17:23Z</time>
      </trkpt>
      <trkpt lat="40.1167140" lon="-8.4740760">
        <ele>105.8</ele>
        <time>2015-03-21T17:17:41Z</time>
      </trkpt>
      <trkpt lat="40.1173510" lon="-8.4737780">
        <ele>106.2</ele>
        <time>2015-03-21T17:17:55Z</time>
      </trkpt>
      <trkpt lat="40.1175480" lon="-8.4738060">
        <ele>106.3</ele>
        <time>2015-03-21T17:17:59Z</time>
      </trkpt>
      <trkpt lat="40.1182490" lon="-8.4742400">
        <ele>114.1</ele>
        <time>2015-03-21T17:18:16Z</time>
      </trkpt>
      <trkpt lat="40.1185310" lon="-8.4744330">
        <ele>119.9</ele>
        <time>2015-03-21T17:18:30Z</time>
      </trkpt>
      <trkpt lat="40.1188430" lon="-8.4746610">
        <ele>121.9</ele>
        <time>2015-03-21T17:18:47Z</time>
      </trkpt>
      <trkpt lat="40.1191450" lon="-8.4749220">
        <ele>119.2</ele>
        <time>2015-03-21T17:19:03Z</time>
      </trkpt>
      <trkpt lat="40.1193020" lon="-8.4750690">
        <ele>118.3</ele>
        <time>2015-03-21T17:19:13Z</time>
      </trkpt>
      <trkpt lat="40.1193450" lon="-8.4751060">
        <ele>118.0</ele>
        <time>2015-03-21T17:19:50Z</time>
      </trkpt>
      <trkpt lat="40.1197230" lon="-8.4753720">
        <ele>116.3</ele>
        <time>2015-03-21T17:20:03Z</time>
      </trkpt>
      <trkpt lat="40.1203890" lon="-8.4759850">
        <ele>111.5</ele>
        <time>2015-03-21T17:20:19Z</time>
      </trkpt>
      <trkpt lat="40.1211620" lon="-8.4764000">
        <ele>107.5</ele>
        <time>2015-03-21T17:20:38Z</time>
      </trkpt>
      <trkpt lat="40.1220320" lon="-8.4769460">
        <ele>106.0</ele>
        <time>2015-03-21T17:20:59Z</time>
      </trkpt>
      <trkpt lat="40.1222280" lon="-8.4771560">
        <ele>105.6</ele>
        <time>2015-03-21T17:21:04Z</time>
      </trkpt>
      <trkpt lat="40.1222960" lon="-8.4772550">
        <ele>105.4</ele>
        <time>2015-03-21T17:21:06Z</time>
      </trkpt>
      <trkpt lat="40.1229340" lon="-8.4776830">
        <ele>105.0</ele>
        <time>2015-03-21T17:21:19Z</time>
      </trkpt>
      <trkpt lat="40.1234170" lon="-8.4777290">
        <ele>104.0</ele>
        <time>2015-03-21T17:21:26Z</time>
      </trkpt>
      <trkpt lat="40.1244230" lon="-8.4780000">
        <ele>97.3</ele>
        <time>2015-03-21T17:21:40Z</time>
      </trkpt>
      <trkpt lat="40.1246340" lon="-8.4780050">
        <ele>95.7</ele>
        <time>2015-03-21T17:21:43Z</time>
      </trkpt>
      <trkpt lat="40.1253380" lon="-8.4778650">
        <ele>91.3</ele>
        <time>2015-03-21T17:21:53Z</time>
      </trkpt>
      <trkpt lat="40.1254630" lon="-8.4778360">
        <ele>91.1</ele>
        <time>2015-03-21T17:21:55Z</time>
      </trkpt>
      <trkpt lat="40.1256620" lon="-8.4778120">
        <ele>90.8</ele>
        <time>2015-03-21T17:21:58Z</time>
      </trkpt>
      <trkpt lat="40.1259990" lon="-8.4775610">
        <ele>89.2</ele>
        <time>2015-03-21T17:22:04Z</time>
      </trkpt>
      <trkpt lat="40.1261770" lon="-8.4773820">
        <ele>88.2</ele>
        <time>2015-03-21T17:22:11Z</time>
      </trkpt>
      <trkpt lat="40.1262980" lon="-8.4773740">
        <ele>87.2</ele>
        <time>2015-03-21T17:22:37Z</time>
      </trkpt>
      <trkpt lat="40.1264080" lon="-8.4774130">
        <ele>86.1</ele>
        <time>2015-03-21T17:22:40Z</time>
      </trkpt>
      <trkpt lat="40.1265580" lon="-8.4774720">
        <ele>84.5</ele>
        <time>2015-03-21T17:22:43Z</time>
      </trkpt>
      <trkpt lat="40.1268220" lon="-8.4773950">
        <ele>80.6</ele>
        <time>2015-03-21T17:22:51Z</time>
      </trkpt>
      <trkpt lat="40.1269160" lon="-8.4768790">
        <ele>76.0</ele>
        <time>2015-03-21T17:22:59Z</time>
      </trkpt>
      <trkpt lat="40.1269670" lon="-8.4767280">
        <ele>75.0</ele>
        <time>2015-03-21T17:23:01Z</time>
      </trkpt>
      <trkpt lat="40.1270390" lon="-8.4763370">
        <ele>73.7</ele>
        <time>2015-03-21T17:23:05Z</time>
      </trkpt>
      <trkpt lat="40.1270310" lon="-8.4758400">
        <ele>72.1</ele>
        <time>2015-03-21T17:23:09Z</time>
      </trkpt>
      <trkpt lat="40.1270180" lon="-8.4756970">
        <ele>71.1</ele>
        <time>2015-03-21T17:23:10Z</time>
      </trkpt>
      <trkpt lat="40.1270430" lon="-8.4754660">
        <ele>70.2</ele>
        <time>2015-03-21T17:23:12Z</time>
      </trkpt>
      <trkpt lat="40.1272190" lon="-8.4752250">
        <ele>69.3</ele>
        <time>2015-03-21T17:23:15Z</time>
      </trkpt>
      <trkpt lat="40.1276420" lon="-8.4745810">
        <ele>70.7</ele>
        <time>2015-03-21T17:23:25Z</time>
      </trkpt>
      <trkpt lat="40.1277320" lon="-8.4743240">
        <ele>72.8</ele>
        <time>2015-03-21T17:23:35Z</time>
      </trkpt>
      <trkpt lat="40.1278380" lon="-8.4739500">
        <ele>76.3</ele>
        <time>2015-03-21T17:23:52Z</time>
      </trkpt>
      <trkpt lat="40.1279250" lon="-8.4735750">
        <ele>78.3</ele>
        <time>2015-03-21T17:24:09Z</time>
      </trkpt>
      <trkpt lat="40.1280310" lon="-8.4731350">
        <ele>80.1</ele>
        <time>2015-03-21T17:24:28Z</time>
      </trkpt>
      <trkpt lat="40.1280940" lon="-8.4728290">
        <ele>81.0</ele>
        <time>2015-03-21T17:24:41Z</time>
      </trkpt>
      <trkpt lat="40.1281380" lon="-8.4727510">
        <ele>81.3</ele>
        <time>2015-03-21T17:24:45Z</time>
      </trkpt>
      <trkpt lat="40.1282760" lon="-8.4722780">
        <ele>83.0</ele>
        <time>2015-03-21T17:25:06Z</time>
      </trkpt>
      <trkpt lat="40.1284530" lon="-8.4718710">
        <ele>84.5</ele>
        <time>2015-03-21T17:25:23Z</time>
      </trkpt>
      <trkpt lat="40.1286000" lon="-8.4715180">
        <ele>85.7</ele>
        <time>2015-03-21T17:25:37Z</time>
      </trkpt>
      <trkpt lat="40.1287300" lon="-8.4710150">
        <ele>87.0</ele>
        <time>2015-03-21T17:25:57Z</time>
      </trkpt>
      <trkpt lat="40.1289840" lon="-8.4708840">
        <ele>88.7</ele>
        <time>2015-03-21T17:26:12Z</time>
      </trkpt>
      <trkpt lat="40.1292890" lon="-8.4709130">
        <ele>90.8</ele>
        <time>2015-03-21T17:26:29Z</time>
      </trkpt>
      <trkpt lat="40.1295690" lon="-8.4709440">
        <ele>91.8</ele>
        <time>2015-03-21T17:26:41Z</time>
      </trkpt>
      <trkpt lat="40.1299210" lon="-8.4712220">
        <ele>91.7</ele>
        <time>2015-03-21T17:26:56Z</time>
      </trkpt>
      <trkpt lat="40.1302490" lon="-8.4714720">
        <ele>91.8</ele>
        <time>2015-03-21T17:27:13Z</time>
      </trkpt>
      <trkpt lat="40.1304130" lon="-8.4717030">
        <ele>92.8</ele>
        <time>2015-03-21T17:27:27Z</time>
      </trkpt>
      <trkpt lat="40.1305980" lon="-8.4718060">
        <ele>95.0</ele>
        <time>2015-03-21T17:27:43Z</time>
      </trkpt>
      <trkpt lat="40.1307400" lon="-8.4717140">
        <ele>96.6</ele>
        <time>2015-03-21T17:27:56Z</time>
      </trkpt>
      <trkpt lat="40.1308260" lon="-8.4717520">
        <ele>97.1</ele>
        <time>2015-03-21T17:28:02Z</time>
      </trkpt>
      <trkpt lat="40.1308820" lon="-8.4717510">
        <ele>97.4</ele>
        <time>2015-03-21T17:28:06Z</time>
      </trkpt>
      <trkpt lat="40.1309990" lon="-8.4717350">
        <ele>98.1</ele>
        <time>2015-03-21T17:28:15Z</time>
      </trkpt>
      <trkpt lat="40.1312070" lon="-8.4718240">
        <ele>100.1</ele>
        <time>2015-03-21T17:28:29Z</time>
      </trkpt>
      <trkpt lat="40.1314680" lon="-8.4720110">
        <ele>101.4</ele>
        <time>2015-03-21T17:28:43Z</time>
      </trkpt>
      <trkpt lat="40.1318340" lon="-8.4720530">
        <ele>102.0</ele>
        <time>2015-03-21T17:28:59Z</time>
      </trkpt>
      <trkpt lat="40.1322440" lon="-8.4720950">
        <ele>102.7</ele>
        <time>2015-03-21T17:29:14Z</time>
      </trkpt>
      <trkpt lat="40.1327230" lon="-8.4720750">
        <ele>103.5</ele>
        <time>2015-03-21T17:29:28Z</time>
      </trkpt>
      <trkpt lat="40.1332210" lon="-8.4720300">
        <ele>103.9</ele>
        <time>2015-03-21T17:29:42Z</time>
      </trkpt>
      <trkpt lat="40.1335630" lon="-8.4720110">
        <ele>104.4</ele>
        <time>2015-03-21T17:29:53Z</time>
      </trkpt>
      <trkpt lat="40.1335670" lon="-8.4722330">
        <ele>103.8</ele>
        <time>2015-03-21T17:29:59Z</time>
      </trkpt>
      <trkpt lat="40.1335060" lon="-8.4725150">
        <ele>103.3</ele>
        <time>2015-03-21T17:30:04Z</time>
      </trkpt>
      <trkpt lat="40.1334140" lon="-8.4728890">
        <ele>102.8</ele>
        <time>2015-03-21T17:30:10Z</time>
      </trkpt>
      <trkpt lat="40.1335140" lon="-8.4733450">
        <ele>102.3</ele>
        <time>2015-03-21T17:30:17Z</time>
      </trkpt>
      <trkpt lat="40.1339940" lon="-8.4739840">
        <ele>102.3</ele>
        <time>2015-03-21T17:30:33Z</time>
      </trkpt>
      <trkpt lat="40.1341620" lon="-8.4739120">
        <ele>102.5</ele>
        <time>2015-03-21T17:30:38Z</time>
      </trkpt>
      <trkpt lat="40.1342720" lon="-8.4737270">
        <ele>102.8</ele>
        <time>2015-03-21T17:30:43Z</time>
      </trkpt>
      <trkpt lat="40.1342830" lon="-8.4733990">
        <ele>103.6</ele>
        <time>2015-03-21T17:30:49Z</time>
      </trkpt>
      <trkpt lat="40.1342980" lon="-8.4729670">
        <ele>103.9</ele>
        <time>2015-03-21T17:30:57Z</time>
      </trkpt>
      <trkpt lat="40.1343700" lon="-8.4727720">
        <ele>103.9</ele>
        <time>2015-03-21T17:31:01Z</time>
      </trkpt>
      <trkpt lat="40.1348090" lon="-8.4720840">
        <ele>103.9</ele>
        <time>2015-03-21T17:31:18Z</time>
      </trkpt>
      <trkpt lat="40.1349870" lon="-8.4718510">
        <ele>103.9</ele>
        <time>2015-03-21T17:31:24Z</time>
      </trkpt>
      <trkpt lat="40.1355560" lon="-8.4714410">
        <ele>103.9</ele>
        <time>2015-03-21T17:31:40Z</time>
      </trkpt>
      <trkpt lat="40.1361850" lon="-8.4710110">
        <ele>104.1</ele>
        <time>2015-03-21T17:31:57Z</time>
      </trkpt>
      <trkpt lat="40.1366870" lon="-8.4704730">
        <ele>105.1</ele>
        <time>2015-03-21T17:32:13Z</time>
      </trkpt>
      <trkpt lat="40.1370470" lon="-8.4700570">
        <ele>105.7</ele>
        <time>2015-03-21T17:32:25Z</time>
      </trkpt>
      <trkpt lat="40.1372030" lon="-8.4699430">
        <ele>105.3</ele>
        <time>2015-03-21T17:32:29Z</time>
      </trkpt>
      <trkpt lat="40.1372920" lon="-8.4699070">
        <ele>105.4</ele>
        <time>2015-03-21T17:32:31Z</time>
      </trkpt>
      <trkpt lat="40.1373900" lon="-8.4698940">
        <ele>105.3</ele>
        <time>2015-03-21T17:32:33Z</time>
      </trkpt>
      <trkpt lat="40.1374840" lon="-8.4698780">
        <ele>105.2</ele>
        <time>2015-03-21T17:32:35Z</time>
      </trkpt>
      <trkpt lat="40.1380460" lon="-8.4696070">
        <ele>105.1</ele>
        <time>2015-03-21T17:32:47Z</time>
      </trkpt>
      <trkpt lat="40.1381980" lon="-8.4695190">
        <ele>105.1</ele>
        <time>2015-03-21T17:32:51Z</time>
      </trkpt>
      <trkpt lat="40.1385330" lon="-8.4694530">
        <ele>104.9</ele>
        <time>2015-03-21T17:36:47Z</time>
      </trkpt>
      <trkpt lat="40.1386340" lon="-8.4693320">
        <ele>105.1</ele>
        <time>2015-03-21T17:39:04Z</time>
      </trkpt>
      <trkpt lat="40.1390010" lon="-8.4690160">
        <ele>104.8</ele>
        <time>2015-03-21T17:39:19Z</time>
      </trkpt>
      <trkpt lat="40.1393760" lon="-8.4687430">
        <ele>104.0</ele>
        <time>2015-03-21T17:39:32Z</time>
      </trkpt>
      <trkpt lat="40.1396600" lon="-8.4684600">
        <ele>102.9</ele>
        <time>2015-03-21T17:39:43Z</time>
      </trkpt>
      <trkpt lat="40.1398730" lon="-8.4682830">
        <ele>102.0</ele>
        <time>2015-03-21T17:50:05Z</time>
      </trkpt>
      <trkpt lat="40.1401910" lon="-8.4681770">
        <ele>101.2</ele>
        <time>2015-03-21T17:50:15Z</time>
      </trkpt>
      <trkpt lat="40.1403220" lon="-8.4681290">
        <ele>101.2</ele>
        <time>2015-03-21T17:50:19Z</time>
      </trkpt>
      <trkpt lat="40.1403880" lon="-8.4678900">
        <ele>102.5</ele>
        <time>2015-03-21T17:50:27Z</time>
      </trkpt>
      <trkpt lat="40.1404240" lon="-8.4675270">
        <ele>104.1</ele>
        <time>2015-03-21T17:50:43Z</time>
      </trkpt>
      <trkpt lat="40.1404930" lon="-8.4671700">
        <ele>106.2</ele>
        <time>2015-03-21T17:50:59Z</time>
      </trkpt>
      <trkpt lat="40.1404970" lon="-8.4668360">
        <ele>108.3</ele>
        <time>2015-03-21T17:51:16Z</time>
      </trkpt>
      <trkpt lat="40.1405180" lon="-8.4665020">
        <ele>110.6</ele>
        <time>2015-03-21T17:51:35Z</time>
      </trkpt>
      <trkpt lat="40.1405180" lon="-8.4661740">
        <ele>113.1</ele>
        <time>2015-03-21T17:51:54Z</time>
      </trkpt>
      <trkpt lat="40.1404280" lon="-8.4658880">
        <ele>115.6</ele>
        <time>2015-03-21T17:52:12Z</time>
      </trkpt>
      <trkpt lat="40.1402530" lon="-8.4655800">
        <ele>118.3</ele>
        <time>2015-03-21T17:52:32Z</time>
      </trkpt>
      <trkpt lat="40.1400510" lon="-8.4652300">
        <ele>119.9</ele>
        <time>2015-03-21T17:52:47Z</time>
      </trkpt>
      <trkpt lat="40.1400560" lon="-8.4650490">
        <ele>120.5</ele>
        <time>2015-03-21T17:52:55Z</time>
      </trkpt>
      <trkpt lat="40.1401660" lon="-8.4647220">
        <ele>121.8</ele>
        <time>2015-03-21T17:53:12Z</time>
      </trkpt>
      <trkpt lat="40.1403310" lon="-8.4643170">
        <ele>123.5</ele>
        <time>2015-03-21T17:53:31Z</time>
      </trkpt>
      <trkpt lat="40.1404030" lon="-8.4638640">
        <ele>123.9</ele>
        <time>2015-03-21T17:53:47Z</time>
      </trkpt>
      <trkpt lat="40.1404130" lon="-8.4633050">
        <ele>122.7</ele>
        <time>2015-03-21T17:53:58Z</time>
      </trkpt>
      <trkpt lat="40.1403800" lon="-8.4621330">
        <ele>120.2</ele>
        <time>2015-03-21T17:54:18Z</time>
      </trkpt>
      <trkpt lat="40.1403770" lon="-8.4608400">
        <ele>117.2</ele>
        <time>2015-03-21T17:54:37Z</time>
      </trkpt>
      <trkpt lat="40.1403790" lon="-8.4602970">
        <ele>117.6</ele>
        <time>2015-03-21T17:54:45Z</time>
      </trkpt>
      <trkpt lat="40.1402900" lon="-8.4595560">
        <ele>118.4</ele>
        <time>2015-03-21T17:55:01Z</time>
      </trkpt>
      <trkpt lat="40.1403530" lon="-8.4588480">
        <ele>118.6</ele>
        <time>2015-03-21T17:55:17Z</time>
      </trkpt>
      <trkpt lat="40.1406280" lon="-8.4576710">
        <ele>119.0</ele>
        <time>2015-03-21T17:55:43Z</time>
      </trkpt>
      <trkpt lat="40.1408320" lon="-8.4570020">
        <ele>119.3</ele>
        <time>2015-03-21T17:55:59Z</time>
      </trkpt>
      <trkpt lat="40.1407930" lon="-8.4564680">
        <ele>120.7</ele>
        <time>2015-03-21T17:56:11Z</time>
      </trkpt>
      <trkpt lat="40.1407150" lon="-8.4558940">
        <ele>123.1</ele>
        <time>2015-03-21T17:56:26Z</time>
      </trkpt>
      <trkpt lat="40.1407210" lon="-8.4554780">
        <ele>124.9</ele>
        <time>2015-03-21T17:56:42Z</time>
      </trkpt>
      <trkpt lat="40.1407900" lon="-8.4551040">
        <ele>126.2</ele>
        <time>2015-03-21T17:57:00Z</time>
      </trkpt>
      <trkpt lat="40.1409270" lon="-8.4548630">
        <ele>127.0</ele>
        <time>2015-03-21T17:57:15Z</time>
      </trkpt>
      <trkpt lat="40.1409840" lon="-8.4548830">
        <ele>126.9</ele>
        <time>2015-03-21T17:57:19Z</time>
      </trkpt>
      <trkpt lat="40.1410720" lon="-8.4549760">
        <ele>126.9</ele>
        <time>2015-03-21T17:57:27Z</time>
      </trkpt>
      <trkpt lat="40.1412620" lon="-8.4549830">
        <ele>126.7</ele>
        <time>2015-03-21T17:57:41Z</time>
      </trkpt>
      <trkpt lat="40.1414750" lon="-8.4547760">
        <ele>127.4</ele>
        <time>2015-03-21T17:57:55Z</time>
      </trkpt>
      <trkpt lat="40.1416080" lon="-8.4546190">
        <ele>128.0</ele>
        <time>2015-03-21T17:57:59Z</time>
      </trkpt>
      <trkpt lat="40.1416840" lon="-8.4544330">
        <ele>128.4</ele>
        <time>2015-03-21T17:58:02Z</time>
      </trkpt>
      <trkpt lat="40.1418270" lon="-8.4540780">
        <ele>129.1</ele>
        <time>2015-03-21T17:58:08Z</time>
      </trkpt>
      <trkpt lat="40.1418580" lon="-8.4538670">
        <ele>130.5</ele>
        <time>2015-03-21T17:58:12Z</time>
      </trkpt>
      <trkpt lat="40.1418240" lon="-8.4533010">
        <ele>133.2</ele>
        <time>2015-03-21T17:58:28Z</time>
      </trkpt>
      <trkpt lat="40.1417990" lon="-8.4530580">
        <ele>134.3</ele>
        <time>2015-03-21T17:58:35Z</time>
      </trkpt>
      <trkpt lat="40.1418700" lon="-8.4529780">
        <ele>134.9</ele>
        <time>2015-03-21T17:58:39Z</time>
      </trkpt>
      <trkpt lat="40.1421730" lon="-8.4528160">
        <ele>135.8</ele>
        <time>2015-03-21T17:58:54Z</time>
      </trkpt>
      <trkpt lat="40.1424480" lon="-8.4526680">
        <ele>136.9</ele>
        <time>2015-03-21T17:59:09Z</time>
      </trkpt>
      <trkpt lat="40.1427760" lon="-8.4524730">
        <ele>139.3</ele>
        <time>2015-03-21T17:59:26Z</time>
      </trkpt>
      <trkpt lat="40.1429900" lon="-8.4522780">
        <ele>140.5</ele>
        <time>2015-03-21T17:59:40Z</time>
      </trkpt>
      <trkpt lat="40.1431720" lon="-8.4520440">
        <ele>142.0</ele>
        <time>2015-03-21T17:59:55Z</time>
      </trkpt>
      <trkpt lat="40.1433370" lon="-8.4518470">
        <ele>143.7</ele>
        <time>2015-03-21T18:00:09Z</time>
      </trkpt>
      <trkpt lat="40.1434980" lon="-8.4517020">
        <ele>145.8</ele>
        <time>2015-03-21T18:00:22Z</time>
      </trkpt>
      <trkpt lat="40.1435380" lon="-8.4516720">
        <ele>146.3</ele>
        <time>2015-03-21T18:00:25Z</time>
      </trkpt>
      <trkpt lat="40.1437610" lon="-8.4516090">
        <ele>148.7</ele>
        <time>2015-03-21T18:00:39Z</time>
      </trkpt>
      <trkpt lat="40.1438580" lon="-8.4515900">
        <ele>149.5</ele>
        <time>2015-03-21T18:00:44Z</time>
      </trkpt>
      <trkpt lat="40.1441260" lon="-8.4515420">
        <ele>150.7</ele>
        <time>2015-03-21T18:00:57Z</time>
      </trkpt>
      <trkpt lat="40.1443080" lon="-8.4515640">
        <ele>150.9</ele>
        <time>2015-03-21T18:01:05Z</time>
      </trkpt>
      <trkpt lat="40.1443830" lon="-8.4515630">
        <ele>151.0</ele>
        <time>2015-03-21T18:01:09Z</time>
      </trkpt>
      <trkpt lat="40.1447440" lon="-8.4516970">
        <ele>151.4</ele>
        <time>2015-03-21T18:01:25Z</time>
      </trkpt>
      <trkpt lat="40.1450760" lon="-8.4516230">
        <ele>151.7</ele>
        <time>2015-03-21T18:01:40Z</time>
      </trkpt>
      <trkpt lat="40.1455120" lon="-8.4515240">
        <ele>152.2</ele>
        <time>2015-03-21T18:01:58Z</time>
      </trkpt>
      <trkpt lat="40.1458110" lon="-8.4513690">
        <ele>153.0</ele>
        <time>2015-03-21T18:02:12Z</time>
      </trkpt>
      <trkpt lat="40.1462020" lon="-8.4512920">
        <ele>153.8</ele>
        <time>2015-03-21T18:02:29Z</time>
      </trkpt>
      <trkpt lat="40.1466170" lon="-8.4512980">
        <ele>155.0</ele>
        <time>2015-03-21T18:02:47Z</time>
      </trkpt>
      <trkpt lat="40.1467570" lon="-8.4512690">
        <ele>155.5</ele>
        <time>2015-03-21T18:02:55Z</time>
      </trkpt>
      <trkpt lat="40.1469890" lon="-8.4511970">
        <ele>156.9</ele>
        <time>2015-03-21T18:03:11Z</time>
      </trkpt>
      <trkpt lat="40.1471830" lon="-8.4510660">
        <ele>159.3</ele>
        <time>2015-03-21T18:03:26Z</time>
      </trkpt>
      <trkpt lat="40.1473330" lon="-8.4508810">
        <ele>161.1</ele>
        <time>2015-03-21T18:03:39Z</time>
      </trkpt>
      <trkpt lat="40.1474840" lon="-8.4506120">
        <ele>163.1</ele>
        <time>2015-03-21T18:03:56Z</time>
      </trkpt>
      <trkpt lat="40.1476090" lon="-8.4503790">
        <ele>165.2</ele>
        <time>2015-03-21T18:04:12Z</time>
      </trkpt>
      <trkpt lat="40.1476870" lon="-8.4502140">
        <ele>166.4</ele>
        <time>2015-03-21T18:04:24Z</time>
      </trkpt>
      <trkpt lat="40.1478070" lon="-8.4499870">
        <ele>167.0</ele>
        <time>2015-03-21T18:04:38Z</time>
      </trkpt>
      <trkpt lat="40.1479210" lon="-8.4496640">
        <ele>167.3</ele>
        <time>2015-03-21T18:04:51Z</time>
      </trkpt>
      <trkpt lat="40.1482120" lon="-8.4494850">
        <ele>167.4</ele>
        <time>2015-03-21T18:05:03Z</time>
      </trkpt>
      <trkpt lat="40.1484700" lon="-8.4492480">
        <ele>167.4</ele>
        <time>2015-03-21T18:05:16Z</time>
      </trkpt>
      <trkpt lat="40.1485840" lon="-8.4491710">
        <ele>167.4</ele>
        <time>2015-03-21T18:05:21Z</time>
      </trkpt>
      <trkpt lat="40.1487150" lon="-8.4491330">
        <ele>167.4</ele>
        <time>2015-03-21T18:05:27Z</time>
      </trkpt>
      <trkpt lat="40.1490420" lon="-8.4489740">
        <ele>167.4</ele>
        <time>2015-03-21T18:05:42Z</time>
      </trkpt>
      <trkpt lat="40.1493770" lon="-8.4488800">
        <ele>167.4</ele>
        <time>2015-03-21T18:05:56Z</time>
      </trkpt>
      <trkpt lat="40.1495280" lon="-8.4488130">
        <ele>167.4</ele>
        <time>2015-03-21T18:06:02Z</time>
      </trkpt>
      <trkpt lat="40.1496170" lon="-8.4487670">
        <ele>167.4</ele>
        <time>2015-03-21T18:06:06Z</time>
      </trkpt>
      <trkpt lat="40.1499990" lon="-8.4486230">
        <ele>167.5</ele>
        <time>2015-03-21T18:06:21Z</time>
      </trkpt>
      <trkpt lat="40.1504470" lon="-8.4484990">
        <ele>168.7</ele>
        <time>2015-03-21T18:06:38Z</time>
      </trkpt>
      <trkpt lat="40.1507730" lon="-8.4484140">
        <ele>169.5</ele>
        <time>2015-03-21T18:06:51Z</time>
      </trkpt>
      <trkpt lat="40.1508610" lon="-8.4483760">
        <ele>169.7</ele>
        <time>2015-03-21T18:06:55Z</time>
      </trkpt>
      <trkpt lat="40.1511700" lon="-8.4482950">
        <ele>171.3</ele>
        <time>2015-03-21T18:07:10Z</time>
      </trkpt>
      <trkpt lat="40.1513510" lon="-8.4482590">
        <ele>172.7</ele>
        <time>2015-03-21T18:07:21Z</time>
      </trkpt>
      <trkpt lat="40.1514410" lon="-8.4482390">
        <ele>173.6</ele>
        <time>2015-03-21T18:07:28Z</time>
      </trkpt>
      <trkpt lat="40.1514960" lon="-8.4482050">
        <ele>174.3</ele>
        <time>2015-03-21T18:07:32Z</time>
      </trkpt>
      <trkpt lat="40.1515920" lon="-8.4480650">
        <ele>175.9</ele>
        <time>2015-03-21T18:07:43Z</time>
      </trkpt>
      <trkpt lat="40.1517660" lon="-8.4478510">
        <ele>178.0</ele>
        <time>2015-03-21T18:08:00Z</time>
      </trkpt>
      <trkpt lat="40.1518660" lon="-8.4477650">
        <ele>178.7</ele>
        <time>2015-03-21T18:08:10Z</time>
      </trkpt>
      <trkpt lat="40.1519870" lon="-8.4476630">
        <ele>179.4</ele>
        <time>2015-03-21T18:08:22Z</time>
      </trkpt>
      <trkpt lat="40.1520990" lon="-8.4475360">
        <ele>180.1</ele>
        <time>2015-03-21T18:08:34Z</time>
      </trkpt>
      <trkpt lat="40.1521640" lon="-8.4475520">
        <ele>180.5</ele>
        <time>2015-03-21T18:08:39Z</time>
      </trkpt>
      <trkpt lat="40.1524080" lon="-8.4476560">
        <ele>179.1</ele>
        <time>2015-03-21T18:08:53Z</time>
      </trkpt>
      <trkpt lat="40.1527850" lon="-8.4475940">
        <ele>178.6</ele>
        <time>2015-03-21T18:09:04Z</time>
      </trkpt>
      <trkpt lat="40.1530200" lon="-8.4475700">
        <ele>178.1</ele>
        <time>2015-03-21T18:09:10Z</time>
      </trkpt>
      <trkpt lat="40.1531070" lon="-8.4475530">
        <ele>177.7</ele>
        <time>2015-03-21T18:09:12Z</time>
      </trkpt>
      <trkpt lat="40.1532450" lon="-8.4475150">
        <ele>176.7</ele>
        <time>2015-03-21T18:09:15Z</time>
      </trkpt>
      <trkpt lat="40.1540210" lon="-8.4475120">
        <ele>170.3</ele>
        <time>2015-03-21T18:09:31Z</time>
      </trkpt>
      <trkpt lat="40.1542980" lon="-8.4476000">
        <ele>171.1</ele>
        <time>2015-03-21T18:09:41Z</time>
      </trkpt>
      <trkpt lat="40.1546370" lon="-8.4477110">
        <ele>173.9</ele>
        <time>2015-03-21T18:09:55Z</time>
      </trkpt>
      <trkpt lat="40.1549570" lon="-8.4476810">
        <ele>177.4</ele>
        <time>2015-03-21T18:10:09Z</time>
      </trkpt>
      <trkpt lat="40.1553400" lon="-8.4476540">
        <ele>178.9</ele>
        <time>2015-03-21T18:10:22Z</time>
      </trkpt>
      <trkpt lat="40.1554190" lon="-8.4476530">
        <ele>178.7</ele>
        <time>2015-03-21T18:10:24Z</time>
      </trkpt>
      <trkpt lat="40.1561050" lon="-8.4475730">
        <ele>173.5</ele>
        <time>2015-03-21T18:10:40Z</time>
      </trkpt>
      <trkpt lat="40.1564320" lon="-8.4475000">
        <ele>171.1</ele>
        <time>2015-03-21T18:10:51Z</time>
      </trkpt>
      <trkpt lat="40.1566800" lon="-8.4476470">
        <ele>170.1</ele>
        <time>2015-03-21T18:11:01Z</time>
      </trkpt>
      <trkpt lat="40.1568390" lon="-8.4478130">
        <ele>169.0</ele>
        <time>2015-03-21T18:11:06Z</time>
      </trkpt>
      <trkpt lat="40.1569190" lon="-8.4479530">
        <ele>167.7</ele>
        <time>2015-03-21T18:11:09Z</time>
      </trkpt>
      <trkpt lat="40.1571920" lon="-8.4481160">
        <ele>165.0</ele>
        <time>2015-03-21T18:11:15Z</time>
      </trkpt>
      <trkpt lat="40.1574780" lon="-8.4481190">
        <ele>163.5</ele>
        <time>2015-03-21T18:11:19Z</time>
      </trkpt>
      <trkpt lat="40.1577550" lon="-8.4481950">
        <ele>163.0</ele>
        <time>2015-03-21T18:11:23Z</time>
      </trkpt>
      <trkpt lat="40.1579640" lon="-8.4482280">
        <ele>163.0</ele>
        <time>2015-03-21T18:11:27Z</time>
      </trkpt>
      <trkpt lat="40.1581950" lon="-8.4482950">
        <ele>162.7</ele>
        <time>2015-03-21T18:11:33Z</time>
      </trkpt>
      <trkpt lat="40.1583860" lon="-8.4483370">
        <ele>162.1</ele>
        <time>2015-03-21T18:11:38Z</time>
      </trkpt>
      <trkpt lat="40.1586760" lon="-8.4483330">
        <ele>160.3</ele>
        <time>2015-03-21T18:11:44Z</time>
      </trkpt>
      <trkpt lat="40.1588250" lon="-8.4482770">
        <ele>158.6</ele>
        <time>2015-03-21T18:11:47Z</time>
      </trkpt>
      <trkpt lat="40.1589110" lon="-8.4482260">
        <ele>157.3</ele>
        <time>2015-03-21T18:11:49Z</time>
      </trkpt>
      <trkpt lat="40.1591000" lon="-8.4481790">
        <ele>154.9</ele>
        <time>2015-03-21T18:11:53Z</time>
      </trkpt>
      <trkpt lat="40.1597480" lon="-8.4479640">
        <ele>147.7</ele>
        <time>2015-03-21T18:12:04Z</time>
      </trkpt>
      <trkpt lat="40.1601580" lon="-8.4477500">
        <ele>143.2</ele>
        <time>2015-03-21T18:12:10Z</time>
      </trkpt>
      <trkpt lat="40.1604830" lon="-8.4475370">
        <ele>139.7</ele>
        <time>2015-03-21T18:12:14Z</time>
      </trkpt>
      <trkpt lat="40.1607640" lon="-8.4473370">
        <ele>135.8</ele>
        <time>2015-03-21T18:12:17Z</time>
      </trkpt>
      <trkpt lat="40.1609680" lon="-8.4471900">
        <ele>132.9</ele>
        <time>2015-03-21T18:12:19Z</time>
      </trkpt>
      <trkpt lat="40.1611880" lon="-8.4470470">
        <ele>130.5</ele>
        <time>2015-03-21T18:12:21Z</time>
      </trkpt>
      <trkpt lat="40.1615360" lon="-8.4468660">
        <ele>128.3</ele>
        <time>2015-03-21T18:12:24Z</time>
      </trkpt>
      <trkpt lat="40.1618940" lon="-8.4466740">
        <ele>126.2</ele>
        <time>2015-03-21T18:12:28Z</time>
      </trkpt>
      <trkpt lat="40.1620980" lon="-8.4465580">
        <ele>125.2</ele>
        <time>2015-03-21T18:12:34Z</time>
      </trkpt>
      <trkpt lat="40.1622490" lon="-8.4468430">
        <ele>125.1</ele>
        <time>2015-03-21T18:12:43Z</time>
      </trkpt>
      <trkpt lat="40.1626510" lon="-8.4476950">
        <ele>125.5</ele>
        <time>2015-03-21T18:13:02Z</time>
      </trkpt>
      <trkpt lat="40.1629960" lon="-8.4484110">
        <ele>127.4</ele>
        <time>2015-03-21T18:13:20Z</time>
      </trkpt>
      <trkpt lat="40.1633240" lon="-8.4489330">
        <ele>129.5</ele>
        <time>2015-03-21T18:13:39Z</time>
      </trkpt>
      <trkpt lat="40.1634740" lon="-8.4494640">
        <ele>130.7</ele>
        <time>2015-03-21T18:13:57Z</time>
      </trkpt>
      <trkpt lat="40.1634930" lon="-8.4500370">
        <ele>131.1</ele>
        <time>2015-03-21T18:14:16Z</time>
      </trkpt>
      <trkpt lat="40.1635300" lon="-8.4504990">
        <ele>132.3</ele>
        <time>2015-03-21T18:14:34Z</time>
      </trkpt>
      <trkpt lat="40.1635530" lon="-8.4507020">
        <ele>132.8</ele>
        <time>2015-03-21T18:14:45Z</time>
      </trkpt>
      <trkpt lat="40.1635610" lon="-8.4507990">
        <ele>133.1</ele>
        <time>2015-03-21T18:14:50Z</time>
      </trkpt>
      <trkpt lat="40.1636330" lon="-8.4510590">
        <ele>133.5</ele>
        <time>2015-03-21T18:15:06Z</time>
      </trkpt>
      <trkpt lat="40.1636790" lon="-8.4510580">
        <ele>133.6</ele>
        <time>2015-03-21T18:15:10Z</time>
      </trkpt>
      <trkpt lat="40.1637290" lon="-8.4510310">
        <ele>133.9</ele>
        <time>2015-03-21T18:15:15Z</time>
      </trkpt>
      <trkpt lat="40.1637320" lon="-8.4511730">
        <ele>134.7</ele>
        <time>2015-03-21T18:15:26Z</time>
      </trkpt>
      <trkpt lat="40.1638020" lon="-8.4512930">
        <ele>135.5</ele>
        <time>2015-03-21T18:15:37Z</time>
      </trkpt>
      <trkpt lat="40.1640330" lon="-8.4513430">
        <ele>137.2</ele>
        <time>2015-03-21T18:15:54Z</time>
      </trkpt>
      <trkpt lat="40.1642330" lon="-8.4512520">
        <ele>138.0</ele>
        <time>2015-03-21T18:16:09Z</time>
      </trkpt>
      <trkpt lat="40.1643850" lon="-8.4513060">
        <ele>139.0</ele>
        <time>2015-03-21T18:16:18Z</time>
      </trkpt>
      <trkpt lat="40.1644780" lon="-8.4512980">
        <ele>139.7</ele>
        <time>2015-03-21T18:16:24Z</time>
      </trkpt>
      <trkpt lat="40.1647540" lon="-8.4512480">
        <ele>140.0</ele>
        <time>2015-03-21T18:16:38Z</time>
      </trkpt>
      <trkpt lat="40.1650560" lon="-8.4512140">
        <ele>138.8</ele>
        <time>2015-03-21T18:16:44Z</time>
      </trkpt>
      <trkpt lat="40.1653160" lon="-8.4511850">
        <ele>137.6</ele>
        <time>2015-03-21T18:16:47Z</time>
      </trkpt>
      <trkpt lat="40.1656670" lon="-8.4509350">
        <ele>138.4</ele>
        <time>2015-03-21T18:16:52Z</time>
      </trkpt>
      <trkpt lat="40.1657610" lon="-8.4508310">
        <ele>139.2</ele>
        <time>2015-03-21T18:16:54Z</time>
      </trkpt>
      <trkpt lat="40.1659260" lon="-8.4507550">
        <ele>140.4</ele>
        <time>2015-03-21T18:16:58Z</time>
      </trkpt>
      <trkpt lat="40.1661570" lon="-8.4507720">
        <ele>142.4</ele>
        <time>2015-03-21T18:17:13Z</time>
      </trkpt>
      <trkpt lat="40.1663880" lon="-8.4507540">
        <ele>143.7</ele>
        <time>2015-03-21T18:17:28Z</time>
      </trkpt>
      <trkpt lat="40.1665610" lon="-8.4507880">
        <ele>144.5</ele>
        <time>2015-03-21T18:17:39Z</time>
      </trkpt>
      <trkpt lat="40.1668360" lon="-8.4509080">
        <ele>146.9</ele>
        <time>2015-03-21T18:17:57Z</time>
      </trkpt>
      <trkpt lat="40.1670740" lon="-8.4510050">
        <ele>149.9</ele>
        <time>2015-03-21T18:18:13Z</time>
      </trkpt>
      <trkpt lat="40.1672890" lon="-8.4510760">
        <ele>153.6</ele>
        <time>2015-03-21T18:18:28Z</time>
      </trkpt>
      <trkpt lat="40.1675270" lon="-8.4510640">
        <ele>155.5</ele>
        <time>2015-03-21T18:18:45Z</time>
      </trkpt>
      <trkpt lat="40.1676050" lon="-8.4510200">
        <ele>156.3</ele>
        <time>2015-03-21T18:18:51Z</time>
      </trkpt>
      <trkpt lat="40.1677290" lon="-8.4509420">
        <ele>158.1</ele>
        <time>2015-03-21T18:19:02Z</time>
      </trkpt>
      <trkpt lat="40.1678650" lon="-8.4508460">
        <ele>160.6</ele>
        <time>2015-03-21T18:19:16Z</time>
      </trkpt>
      <trkpt lat="40.1679330" lon="-8.4508010">
        <ele>161.7</ele>
        <time>2015-03-21T18:19:22Z</time>
      </trkpt>
      <trkpt lat="40.1680150" lon="-8.4507590">
        <ele>162.6</ele>
        <time>2015-03-21T18:19:29Z</time>
      </trkpt>
      <trkpt lat="40.1681690" lon="-8.4506650">
        <ele>163.8</ele>
        <time>2015-03-21T18:19:44Z</time>
      </trkpt>
      <trkpt lat="40.1683880" lon="-8.4505790">
        <ele>165.2</ele>
        <time>2015-03-21T18:20:04Z</time>
      </trkpt>
      <trkpt lat="40.1685540" lon="-8.4505650">
        <ele>166.7</ele>
        <time>2015-03-21T18:20:18Z</time>
      </trkpt>
      <trkpt lat="40.1687650" lon="-8.4504610">
        <ele>168.7</ele>
        <time>2015-03-21T18:20:35Z</time>
      </trkpt>
      <trkpt lat="40.1689270" lon="-8.4503140">
        <ele>169.8</ele>
        <time>2015-03-21T18:20:49Z</time>
      </trkpt>
      <trkpt lat="40.1690470" lon="-8.4501550">
        <ele>170.9</ele>
        <time>2015-03-21T18:21:01Z</time>
      </trkpt>
      <trkpt lat="40.1692680" lon="-8.4500200">
        <ele>172.1</ele>
        <time>2015-03-21T18:21:19Z</time>
      </trkpt>
      <trkpt lat="40.1694070" lon="-8.4500520">
        <ele>173.0</ele>
        <time>2015-03-21T18:21:35Z</time>
      </trkpt>
      <trkpt lat="40.1696560" lon="-8.4500880">
        <ele>174.5</ele>
        <time>2015-03-21T18:21:50Z</time>
      </trkpt>
      <trkpt lat="40.1700370" lon="-8.4501510">
        <ele>176.5</ele>
        <time>2015-03-21T18:22:12Z</time>
      </trkpt>
      <trkpt lat="40.1703970" lon="-8.4500310">
        <ele>177.5</ele>
        <time>2015-03-21T18:22:31Z</time>
      </trkpt>
      <trkpt lat="40.1706520" lon="-8.4499050">
        <ele>177.7</ele>
        <time>2015-03-21T18:22:44Z</time>
      </trkpt>
      <trkpt lat="40.1709550" lon="-8.4498610">
        <ele>178.2</ele>
        <time>2015-03-21T18:22:58Z</time>
      </trkpt>
      <trkpt lat="40.1712460" lon="-8.4498080">
        <ele>179.0</ele>
        <time>2015-03-21T18:23:12Z</time>
      </trkpt>
      <trkpt lat="40.1715070" lon="-8.4496910">
        <ele>179.8</ele>
        <time>2015-03-21T18:23:29Z</time>
      </trkpt>
      <trkpt lat="40.1717520" lon="-8.4495860">
        <ele>180.3</ele>
        <time>2015-03-21T18:23:46Z</time>
      </trkpt>
      <trkpt lat="40.1720010" lon="-8.4494090">
        <ele>182.6</ele>
        <time>2015-03-21T18:24:03Z</time>
      </trkpt>
      <trkpt lat="40.1721010" lon="-8.4493670">
        <ele>182.9</ele>
        <time>2015-03-21T18:24:14Z</time>
      </trkpt>
      <trkpt lat="40.1722160" lon="-8.4493460">
        <ele>183.3</ele>
        <time>2015-03-21T18:24:40Z</time>
      </trkpt>
      <trkpt lat="40.1725770" lon="-8.4493010">
        <ele>184.5</ele>
        <time>2015-03-21T18:24:55Z</time>
      </trkpt>
      <trkpt lat="40.1729680" lon="-8.4492530">
        <ele>186.4</ele>
        <time>2015-03-21T18:25:12Z</time>
      </trkpt>
      <trkpt lat="40.1733330" lon="-8.4491630">
        <ele>188.4</ele>
        <time>2015-03-21T18:25:28Z</time>
      </trkpt>
      <trkpt lat="40.1736510" lon="-8.4494180">
        <ele>187.0</ele>
        <time>2015-03-21T18:25:39Z</time>
      </trkpt>
      <trkpt lat="40.1739470" lon="-8.4498540">
        <ele>184.9</ele>
        <time>2015-03-21T18:25:47Z</time>
      </trkpt>
      <trkpt lat="40.1743600" lon="-8.4499190">
        <ele>181.7</ele>
        <time>2015-03-21T18:25:55Z</time>
      </trkpt>
      <trkpt lat="40.1745070" lon="-8.4497790">
        <ele>181.2</ele>
        <time>2015-03-21T18:25:58Z</time>
      </trkpt>
      <trkpt lat="40.1748390" lon="-8.4496890">
        <ele>180.1</ele>
        <time>2015-03-21T18:26:03Z</time>
      </trkpt>
      <trkpt lat="40.1753500" lon="-8.4496900">
        <ele>178.8</ele>
        <time>2015-03-21T18:26:10Z</time>
      </trkpt>
      <trkpt lat="40.1757790" lon="-8.4498490">
        <ele>177.4</ele>
        <time>2015-03-21T18:26:16Z</time>
      </trkpt>
      <trkpt lat="40.1761500" lon="-8.4498490">
        <ele>176.4</ele>
        <time>2015-03-21T18:26:21Z</time>
      </trkpt>
      <trkpt lat="40.1762680" lon="-8.4498940">
        <ele>176.6</ele>
        <time>2015-03-21T18:26:24Z</time>
      </trkpt>
      <trkpt lat="40.1761940" lon="-8.4500960">
        <ele>174.0</ele>
        <time>2015-03-21T18:26:28Z</time>
      </trkpt>
      <trkpt lat="40.1759640" lon="-8.4503550">
        <ele>170.9</ele>
        <time>2015-03-21T18:26:33Z</time>
      </trkpt>
      <trkpt lat="40.1758380" lon="-8.4505120">
        <ele>169.8</ele>
        <time>2015-03-21T18:26:38Z</time>
      </trkpt>
      <trkpt lat="40.1758590" lon="-8.4506120">
        <ele>169.6</ele>
        <time>2015-03-21T18:26:43Z</time>
      </trkpt>
      <trkpt lat="40.1760060" lon="-8.4508710">
        <ele>168.0</ele>
        <time>2015-03-21T18:26:56Z</time>
      </trkpt>
      <trkpt lat="40.1760620" lon="-8.4508640">
        <ele>168.0</ele>
        <time>2015-03-21T18:27:00Z</time>
      </trkpt>
      <trkpt lat="40.1762340" lon="-8.4506950">
        <ele>170.4</ele>
        <time>2015-03-21T18:27:14Z</time>
      </trkpt>
      <trkpt lat="40.1764370" lon="-8.4505400">
        <ele>172.5</ele>
        <time>2015-03-21T18:27:30Z</time>
      </trkpt>
      <trkpt lat="40.1766870" lon="-8.4503520">
        <ele>174.8</ele>
        <time>2015-03-21T18:27:48Z</time>
      </trkpt>
      <trkpt lat="40.1768880" lon="-8.4502650">
        <ele>176.4</ele>
        <time>2015-03-21T18:28:00Z</time>
      </trkpt>
      <trkpt lat="40.1769740" lon="-8.4505790">
        <ele>177.7</ele>
        <time>2015-03-21T18:28:14Z</time>
      </trkpt>
      <trkpt lat="40.1770910" lon="-8.4508530">
        <ele>178.1</ele>
        <time>2015-03-21T18:28:29Z</time>
      </trkpt>
      <trkpt lat="40.1771990" lon="-8.4508760">
        <ele>178.3</ele>
        <time>2015-03-21T18:28:37Z</time>
      </trkpt>
      <trkpt lat="40.1775250" lon="-8.4511940">
        <ele>179.1</ele>
        <time>2015-03-21T18:28:53Z</time>
      </trkpt>
      <trkpt lat="40.1776070" lon="-8.4512420">
        <ele>179.2</ele>
        <time>2015-03-21T18:28:56Z</time>
      </trkpt>
      <trkpt lat="40.1776100" lon="-8.4514540">
        <ele>181.3</ele>
        <time>2015-03-21T18:29:04Z</time>
      </trkpt>
      <trkpt lat="40.1776580" lon="-8.4517140">
        <ele>185.3</ele>
        <time>2015-03-21T18:29:20Z</time>
      </trkpt>
      <trkpt lat="40.1778240" lon="-8.4518910">
        <ele>188.4</ele>
        <time>2015-03-21T18:29:36Z</time>
      </trkpt>
      <trkpt lat="40.1780710" lon="-8.4520580">
        <ele>191.8</ele>
        <time>2015-03-21T18:29:56Z</time>
      </trkpt>
      <trkpt lat="40.1783090" lon="-8.4520830">
        <ele>194.4</ele>
        <time>2015-03-21T18:30:12Z</time>
      </trkpt>
      <trkpt lat="40.1785250" lon="-8.4520630">
        <ele>196.1</ele>
        <time>2015-03-21T18:30:28Z</time>
      </trkpt>
      <trkpt lat="40.1787850" lon="-8.4520830">
        <ele>197.5</ele>
        <time>2015-03-21T18:30:46Z</time>
      </trkpt>
      <trkpt lat="40.1791070" lon="-8.4520480">
        <ele>199.2</ele>
        <time>2015-03-21T18:31:06Z</time>
      </trkpt>
      <trkpt lat="40.1793600" lon="-8.4520120">
        <ele>200.3</ele>
        <time>2015-03-21T18:31:23Z</time>
      </trkpt>
      <trkpt lat="40.1796270" lon="-8.4519200">
        <ele>201.4</ele>
        <time>2015-03-21T18:31:40Z</time>
      </trkpt>
      <trkpt lat="40.1797440" lon="-8.4518890">
        <ele>202.0</ele>
        <time>2015-03-21T18:31:48Z</time>
      </trkpt>
      <trkpt lat="40.1800010" lon="-8.4518920">
        <ele>202.3</ele>
        <time>2015-03-21T18:32:00Z</time>
      </trkpt>
      <trkpt lat="40.1800590" lon="-8.4519490">
        <ele>202.1</ele>
        <time>2015-03-21T18:32:02Z</time>
      </trkpt>
      <trkpt lat="40.1802510" lon="-8.4521470">
        <ele>200.7</ele>
        <time>2015-03-21T18:32:08Z</time>
      </trkpt>
      <trkpt lat="40.1805240" lon="-8.4520210">
        <ele>199.8</ele>
        <time>2015-03-21T18:32:17Z</time>
      </trkpt>
      <trkpt lat="40.1807720" lon="-8.4518760">
        <ele>200.1</ele>
        <time>2015-03-21T18:32:29Z</time>
      </trkpt>
      <trkpt lat="40.1810790" lon="-8.4518270">
        <ele>199.8</ele>
        <time>2015-03-21T18:32:41Z</time>
      </trkpt>
      <trkpt lat="40.1812660" lon="-8.4518040">
        <ele>199.0</ele>
        <time>2015-03-21T18:32:48Z</time>
      </trkpt>
      <trkpt lat="40.1814130" lon="-8.4517320">
        <ele>198.5</ele>
        <time>2015-03-21T18:32:56Z</time>
      </trkpt>
      <trkpt lat="40.1815160" lon="-8.4516290">
        <ele>198.0</ele>
        <time>2015-03-21T18:33:02Z</time>
      </trkpt>
      <trkpt lat="40.1817120" lon="-8.4514440">
        <ele>195.9</ele>
        <time>2015-03-21T18:34:37Z</time>
      </trkpt>
      <trkpt lat="40.1819080" lon="-8.4515200">
        <ele>192.9</ele>
        <time>2015-03-21T18:34:41Z</time>
      </trkpt>
      <trkpt lat="40.1820960" lon="-8.4514160">
        <ele>189.8</ele>
        <time>2015-03-21T18:34:44Z</time>
      </trkpt>
      <trkpt lat="40.1823050" lon="-8.4512320">
        <ele>186.7</ele>
        <time>2015-03-21T18:34:47Z</time>
      </trkpt>
      <trkpt lat="40.1825940" lon="-8.4510470">
        <ele>182.9</ele>
        <time>2015-03-21T18:34:51Z</time>
      </trkpt>
      <trkpt lat="40.1826450" lon="-8.4510140">
        <ele>181.8</ele>
        <time>2015-03-21T18:34:52Z</time>
      </trkpt>
      <trkpt lat="40.1827470" lon="-8.4508820">
        <ele>179.1</ele>
        <time>2015-03-21T18:34:56Z</time>
      </trkpt>
      <trkpt lat="40.1828430" lon="-8.4506100">
        <ele>177.4</ele>
        <time>2015-03-21T18:35:05Z</time>
      </trkpt>
      <trkpt lat="40.1828580" lon="-8.4505540">
        <ele>176.8</ele>
        <time>2015-03-21T18:35:06Z</time>
      </trkpt>
      <trkpt lat="40.1827170" lon="-8.4502210">
        <ele>172.1</ele>
        <time>2015-03-21T18:35:13Z</time>
      </trkpt>
      <trkpt lat="40.1826630" lon="-8.4502200">
        <ele>171.1</ele>
        <time>2015-03-21T18:35:14Z</time>
      </trkpt>
      <trkpt lat="40.1825760" lon="-8.4502190">
        <ele>169.8</ele>
        <time>2015-03-21T18:35:16Z</time>
      </trkpt>
      <trkpt lat="40.1825190" lon="-8.4500420">
        <ele>167.4</ele>
        <time>2015-03-21T18:35:20Z</time>
      </trkpt>
      <trkpt lat="40.1825330" lon="-8.4495940">
        <ele>162.7</ele>
        <time>2015-03-21T18:35:25Z</time>
      </trkpt>
      <trkpt lat="40.1825420" lon="-8.4495030">
        <ele>162.0</ele>
        <time>2015-03-21T18:35:26Z</time>
      </trkpt>
      <trkpt lat="40.1826370" lon="-8.4490120">
        <ele>159.2</ele>
        <time>2015-03-21T18:35:31Z</time>
      </trkpt>
      <trkpt lat="40.1827530" lon="-8.4486960">
        <ele>157.1</ele>
        <time>2015-03-21T18:35:38Z</time>
      </trkpt>
      <trkpt lat="40.1830670" lon="-8.4486960">
        <ele>152.8</ele>
        <time>2015-03-21T18:35:44Z</time>
      </trkpt>
      <trkpt lat="40.1835010" lon="-8.4487420">
        <ele>147.3</ele>
        <time>2015-03-21T18:35:49Z</time>
      </trkpt>
      <trkpt lat="40.1838130" lon="-8.4487640">
        <ele>142.4</ele>
        <time>2015-03-21T18:35:52Z</time>
      </trkpt>
      <trkpt lat="40.1841630" lon="-8.4487940">
        <ele>136.4</ele>
        <time>2015-03-21T18:35:55Z</time>
      </trkpt>
      <trkpt lat="40.1845280" lon="-8.4488150">
        <ele>132.3</ele>
        <time>2015-03-21T18:35:58Z</time>
      </trkpt>
      <trkpt lat="40.1849120" lon="-8.4488440">
        <ele>128.8</ele>
        <time>2015-03-21T18:36:01Z</time>
      </trkpt>
      <trkpt lat="40.1859050" lon="-8.4490650">
        <ele>121.1</ele>
        <time>2015-03-21T18:36:11Z</time>
      </trkpt>
      <trkpt lat="40.1860600" lon="-8.4491070">
        <ele>120.5</ele>
        <time>2015-03-21T18:36:13Z</time>
      </trkpt>
      <trkpt lat="40.1864000" lon="-8.4490280">
        <ele>120.0</ele>
        <time>2015-03-21T18:36:18Z</time>
      </trkpt>
      <trkpt lat="40.1867770" lon="-8.4487050">
        <ele>120.7</ele>
        <time>2015-03-21T18:36:26Z</time>
      </trkpt>
      <trkpt lat="40.1872960" lon="-8.4486960">
        <ele>119.6</ele>
        <time>2015-03-21T18:36:35Z</time>
      </trkpt>
      <trkpt lat="40.1873610" lon="-8.4487420">
        <ele>119.4</ele>
        <time>2015-03-21T18:36:36Z</time>
      </trkpt>
      <trkpt lat="40.1878330" lon="-8.4490400">
        <ele>117.7</ele>
        <time>2015-03-21T18:36:42Z</time>
      </trkpt>
      <trkpt lat="40.1882000" lon="-8.4492520">
        <ele>115.8</ele>
        <time>2015-03-21T18:36:46Z</time>
      </trkpt>
      <trkpt lat="40.1885170" lon="-8.4493580">
        <ele>114.0</ele>
        <time>2015-03-21T18:36:49Z</time>
      </trkpt>
      <trkpt lat="40.1890790" lon="-8.4493470">
        <ele>110.4</ele>
        <time>2015-03-21T18:36:54Z</time>
      </trkpt>
      <trkpt lat="40.1895400" lon="-8.4492790">
        <ele>107.3</ele>
        <time>2015-03-21T18:36:58Z</time>
      </trkpt>
      <trkpt lat="40.1898910" lon="-8.4492380">
        <ele>104.9</ele>
        <time>2015-03-21T18:37:01Z</time>
      </trkpt>
      <trkpt lat="40.1903780" lon="-8.4491840">
        <ele>102.2</ele>
        <time>2015-03-21T18:37:05Z</time>
      </trkpt>
      <trkpt lat="40.1907390" lon="-8.4491240">
        <ele>100.0</ele>
        <time>2015-03-21T18:37:08Z</time>
      </trkpt>
      <trkpt lat="40.1912090" lon="-8.4490000">
        <ele>96.8</ele>
        <time>2015-03-21T18:37:12Z</time>
      </trkpt>
      <trkpt lat="40.1919510" lon="-8.4487670">
        <ele>92.1</ele>
        <time>2015-03-21T18:37:19Z</time>
      </trkpt>
      <trkpt lat="40.1925830" lon="-8.4485020">
        <ele>89.8</ele>
        <time>2015-03-21T18:37:26Z</time>
      </trkpt>
      <trkpt lat="40.1926680" lon="-8.4484620">
        <ele>89.5</ele>
        <time>2015-03-21T18:37:27Z</time>
      </trkpt>
      <trkpt lat="40.1930780" lon="-8.4484980">
        <ele>87.5</ele>
        <time>2015-03-21T18:37:32Z</time>
      </trkpt>
      <trkpt lat="40.1936150" lon="-8.4488480">
        <ele>84.8</ele>
        <time>2015-03-21T18:37:39Z</time>
      </trkpt>
      <trkpt lat="40.1938650" lon="-8.4490300">
        <ele>82.6</ele>
        <time>2015-03-21T18:37:42Z</time>
      </trkpt>
      <trkpt lat="40.1944250" lon="-8.4492250">
        <ele>79.0</ele>
        <time>2015-03-21T18:37:49Z</time>
      </trkpt>
      <trkpt lat="40.1948360" lon="-8.4494240">
        <ele>77.8</ele>
        <time>2015-03-21T18:37:55Z</time>
      </trkpt>
      <trkpt lat="40.1952950" lon="-8.4492620">
        <ele>77.8</ele>
        <time>2015-03-21T18:38:03Z</time>
      </trkpt>
      <trkpt lat="40.1953130" lon="-8.4491260">
        <ele>79.2</ele>
        <time>2015-03-21T18:38:06Z</time>
      </trkpt>
      <trkpt lat="40.1953130" lon="-8.4490570">
        <ele>79.5</ele>
        <time>2015-03-21T18:38:08Z</time>
      </trkpt>
      <trkpt lat="40.1953330" lon="-8.4486700">
        <ele>81.7</ele>
        <time>2015-03-21T18:38:23Z</time>
      </trkpt>
      <trkpt lat="40.1953550" lon="-8.4482990">
        <ele>83.5</ele>
        <time>2015-03-21T18:38:39Z</time>
      </trkpt>
      <trkpt lat="40.1953920" lon="-8.4478380">
        <ele>86.1</ele>
        <time>2015-03-21T18:38:58Z</time>
      </trkpt>
      <trkpt lat="40.1954380" lon="-8.4475010">
        <ele>88.2</ele>
        <time>2015-03-21T18:39:14Z</time>
      </trkpt>
      <trkpt lat="40.1956150" lon="-8.4472290">
        <ele>92.8</ele>
        <time>2015-03-21T18:39:31Z</time>
      </trkpt>
      <trkpt lat="40.1958550" lon="-8.4469570">
        <ele>98.6</ele>
        <time>2015-03-21T18:39:51Z</time>
      </trkpt>
      <trkpt lat="40.1960720" lon="-8.4467030">
        <ele>102.4</ele>
        <time>2015-03-21T18:40:09Z</time>
      </trkpt>
      <trkpt lat="40.1963460" lon="-8.4464340">
        <ele>100.0</ele>
        <time>2015-03-21T18:40:30Z</time>
      </trkpt>
      <trkpt lat="40.1965980" lon="-8.4461840">
        <ele>97.5</ele>
        <time>2015-03-21T18:40:48Z</time>
      </trkpt>
      <trkpt lat="40.1968440" lon="-8.4458910">
        <ele>93.5</ele>
        <time>2015-03-21T18:40:58Z</time>
      </trkpt>
      <trkpt lat="40.1972240" lon="-8.4454460">
        <ele>89.3</ele>
        <time>2015-03-21T18:41:06Z</time>
      </trkpt>
      <trkpt lat="40.1975350" lon="-8.4451000">
        <ele>88.9</ele>
        <time>2015-03-21T18:41:12Z</time>
      </trkpt>
      <trkpt lat="40.1978800" lon="-8.4445130">
        <ele>95.5</ele>
        <time>2015-03-21T18:41:25Z</time>
      </trkpt>
      <trkpt lat="40.1980540" lon="-8.4441660">
        <ele>98.9</ele>
        <time>2015-03-21T18:41:42Z</time>
      </trkpt>
      <trkpt lat="40.1982730" lon="-8.4438000">
        <ele>102.6</ele>
        <time>2015-03-21T18:42:01Z</time>
      </trkpt>
      <trkpt lat="40.1984340" lon="-8.4434710">
        <ele>106.6</ele>
        <time>2015-03-21T18:42:17Z</time>
      </trkpt>
      <trkpt lat="40.1986660" lon="-8.4430410">
        <ele>107.5</ele>
        <time>2015-03-21T18:42:39Z</time>
      </trkpt>
      <trkpt lat="40.1988620" lon="-8.4426570">
        <ele>108.1</ele>
        <time>2015-03-21T18:42:58Z</time>
      </trkpt>
      <trkpt lat="40.1989350" lon="-8.4422810">
        <ele>108.8</ele>
        <time>2015-03-21T18:43:14Z</time>
      </trkpt>
      <trkpt lat="40.1989520" lon="-8.4418230">
        <ele>109.3</ele>
        <time>2015-03-21T18:43:33Z</time>
      </trkpt>
      <trkpt lat="40.1989710" lon="-8.4414000">
        <ele>109.6</ele>
        <time>2015-03-21T18:43:51Z</time>
      </trkpt>
      <trkpt lat="40.1991800" lon="-8.4410580">
        <ele>109.1</ele>
        <time>2015-03-21T18:44:06Z</time>
      </trkpt>
      <trkpt lat="40.1996500" lon="-8.4405880">
        <ele>107.2</ele>
        <time>2015-03-21T18:44:20Z</time>
      </trkpt>
      <trkpt lat="40.1998770" lon="-8.4399580">
        <ele>105.8</ele>
        <time>2015-03-21T18:44:29Z</time>
      </trkpt>
      <trkpt lat="40.2001330" lon="-8.4395040">
        <ele>105.6</ele>
        <time>2015-03-21T18:44:36Z</time>
      </trkpt>
      <trkpt lat="40.2001250" lon="-8.4389370">
        <ele>102.7</ele>
        <time>2015-03-21T18:44:41Z</time>
      </trkpt>
      <trkpt lat="40.2001250" lon="-8.4384150">
        <ele>99.0</ele>
        <time>2015-03-21T18:44:45Z</time>
      </trkpt>
      <trkpt lat="40.2001270" lon="-8.4382920">
        <ele>98.4</ele>
        <time>2015-03-21T18:44:46Z</time>
      </trkpt>
      <trkpt lat="40.2003440" lon="-8.4377800">
        <ele>95.1</ele>
        <time>2015-03-21T18:44:52Z</time>
      </trkpt>
      <trkpt lat="40.2004420" lon="-8.4375730">
        <ele>94.0</ele>
        <time>2015-03-21T18:44:56Z</time>
      </trkpt>
      <trkpt lat="40.2004950" lon="-8.4374880">
        <ele>93.5</ele>
        <time>2015-03-21T18:46:00Z</time>
      </trkpt>
      <trkpt lat="40.2006250" lon="-8.4375000">
        <ele>89.0</ele>
        <time>2015-03-21T18:46:12Z</time>
      </trkpt>
      <trkpt lat="40.2007260" lon="-8.4374240">
        <ele>86.7</ele>
        <time>2015-03-21T18:46:22Z</time>
      </trkpt>
      <trkpt lat="40.2008500" lon="-8.4373650">
        <ele>84.2</ele>
        <time>2015-03-21T18:46:50Z</time>
      </trkpt>
      <trkpt lat="40.2012070" lon="-8.4371470">
        <ele>78.3</ele>
        <time>2015-03-21T18:47:00Z</time>
      </trkpt>
      <trkpt lat="40.2012800" lon="-8.4370870">
        <ele>77.3</ele>
        <time>2015-03-21T18:47:04Z</time>
      </trkpt>
      <trkpt lat="40.2016760" lon="-8.4368390">
        <ele>71.6</ele>
        <time>2015-03-21T18:47:15Z</time>
      </trkpt>
      <trkpt lat="40.2020010" lon="-8.4367900">
        <ele>66.2</ele>
        <time>2015-03-21T18:47:20Z</time>
      </trkpt>
      <trkpt lat="40.2021360" lon="-8.4367710">
        <ele>65.5</ele>
        <time>2015-03-21T18:47:22Z</time>
      </trkpt>
      <trkpt lat="40.2023400" lon="-8.4366870">
        <ele>64.4</ele>
        <time>2015-03-21T18:47:28Z</time>
      </trkpt>
      <trkpt lat="40.2023910" lon="-8.4366900">
        <ele>64.2</ele>
        <time>2015-03-21T18:47:37Z</time>
      </trkpt>
      <trkpt lat="40.2025100" lon="-8.4366770">
        <ele>63.7</ele>
        <time>2015-03-21T18:48:29Z</time>
      </trkpt>
      <trkpt lat="40.2026430" lon="-8.4367250">
        <ele>63.1</ele>
        <time>2015-03-21T18:48:32Z</time>
      </trkpt>
      <trkpt lat="40.2028940" lon="-8.4368040">
        <ele>61.1</ele>
        <time>2015-03-21T18:48:37Z</time>
      </trkpt>
      <trkpt lat="40.2029420" lon="-8.4368200">
        <ele>60.6</ele>
        <time>2015-03-21T18:48:38Z</time>
      </trkpt>
      <trkpt lat="40.2030520" lon="-8.4366950">
        <ele>59.3</ele>
        <time>2015-03-21T18:48:45Z</time>
      </trkpt>
      <trkpt lat="40.2028480" lon="-8.4364990">
        <ele>56.9</ele>
        <time>2015-03-21T18:48:51Z</time>
      </trkpt>
      <trkpt lat="40.2027640" lon="-8.4364230">
        <ele>55.7</ele>
        <time>2015-03-21T18:48:54Z</time>
      </trkpt>
      <trkpt lat="40.2025830" lon="-8.4361860">
        <ele>52.7</ele>
        <time>2015-03-21T18:48:59Z</time>
      </trkpt>
      <trkpt lat="40.2025370" lon="-8.4361410">
        <ele>52.1</ele>
        <time>2015-03-21T18:49:00Z</time>
      </trkpt>
      <trkpt lat="40.2023880" lon="-8.4360100">
        <ele>50.5</ele>
        <time>2015-03-21T18:49:04Z</time>
      </trkpt>
      <trkpt lat="40.2024750" lon="-8.4358880">
        <ele>47.5</ele>
        <time>2015-03-21T18:49:08Z</time>
      </trkpt>
      <trkpt lat="40.2027040" lon="-8.4357950">
        <ele>43.8</ele>
        <time>2015-03-21T18:49:12Z</time>
      </trkpt>
      <trkpt lat="40.2029150" lon="-8.4356500">
        <ele>40.9</ele>
        <time>2015-03-21T18:49:17Z</time>
      </trkpt>
      <trkpt lat="40.2030770" lon="-8.4352700">
        <ele>34.2</ele>
        <time>2015-03-21T18:49:27Z</time>
      </trkpt>
      <trkpt lat="40.2031310" lon="-8.4351000">
        <ele>30.6</ele>
        <time>2015-03-21T18:49:30Z</time>
      </trkpt>
      <trkpt lat="40.2032040" lon="-8.4345870">
        <ele>26.5</ele>
        <time>2015-03-21T18:49:42Z</time>
      </trkpt>
      <trkpt lat="40.2032220" lon="-8.4343270">
        <ele>25.2</ele>
        <time>2015-03-21T18:49:51Z</time>
      </trkpt>
      <trkpt lat="40.2032520" lon="-8.4342160">
        <ele>24.7</ele>
        <time>2015-03-21T18:50:09Z</time>
      </trkpt>
      <trkpt lat="40.2033670" lon="-8.4338480">
        <ele>23.5</ele>
        <time>2015-03-21T18:50:17Z</time>
      </trkpt>
      <trkpt lat="40.2037200" lon="-8.4329810">
        <ele>21.9</ele>
        <time>2015-03-21T18:50:37Z</time>
      </trkpt>
      <trkpt lat="40.2040020" lon="-8.4324260">
        <ele>22.6</ele>
        <time>2015-03-21T18:50:51Z</time>
      </trkpt>
      <trkpt lat="40.2041200" lon="-8.4320650">
        <ele>23.0</ele>
        <time>2015-03-21T18:51:01Z</time>
      </trkpt>
      <trkpt lat="40.2045280" lon="-8.4318250">
        <ele>23.2</ele>
        <time>2015-03-21T18:51:15Z</time>
      </trkpt>
      <trkpt lat="40.2048270" lon="-8.4314930">
        <ele>22.3</ele>
        <time>2015-03-21T18:51:28Z</time>
      </trkpt>
      <trkpt lat="40.2052550" lon="-8.4310850">
        <ele>15.6</ele>
        <time>2015-03-21T18:51:47Z</time>
      </trkpt>
      <trkpt lat="40.2052920" lon="-8.4310500">
        <ele>15.6</ele>
        <time>2015-03-21T18:51:58Z</time>
      </trkpt>
      <trkpt lat="40.2053830" lon="-8.4309990">
        <ele>15.6</ele>
        <time>2015-03-21T18:52:45Z</time>
      </trkpt>
      <trkpt lat="40.2056980" lon="-8.4306960">
        <ele>15.6</ele>
        <time>2015-03-21T18:53:01Z</time>
      </trkpt>
      <trkpt lat="40.2061120" lon="-8.4303110">
        <ele>15.5</ele>
        <time>2015-03-21T18:53:18Z</time>
      </trkpt>
      <trkpt lat="40.2066490" lon="-8.4298190">
        <ele>18.6</ele>
        <time>2015-03-21T18:53:37Z</time>
      </trkpt>
      <trkpt lat="40.2067790" lon="-8.4294670">
        <ele>23.6</ele>
        <time>2015-03-21T18:53:49Z</time>
      </trkpt>
      <trkpt lat="40.2067680" lon="-8.4293810">
        <ele>24.0</ele>
        <time>2015-03-21T18:53:52Z</time>
      </trkpt>
      <trkpt lat="40.2067170" lon="-8.4293090">
        <ele>24.7</ele>
        <time>2015-03-21T18:54:06Z</time>
      </trkpt>
      <trkpt lat="40.2067720" lon="-8.4292760">
        <ele>24.6</ele>
        <time>2015-03-21T18:55:21Z</time>
      </trkpt>
      <trkpt lat="40.2068600" lon="-8.4291380">
        <ele>25.6</ele>
        <time>2015-03-21T18:55:28Z</time>
      </trkpt>
      <trkpt lat="40.2070680" lon="-8.4293620">
        <ele>26.2</ele>
        <time>2015-03-21T18:55:40Z</time>
      </trkpt>
      <trkpt lat="40.2072960" lon="-8.4292870">
        <ele>28.5</ele>
        <time>2015-03-21T18:55:53Z</time>
      </trkpt>
      <trkpt lat="40.2075180" lon="-8.4292360">
        <ele>30.6</ele>
        <time>2015-03-21T18:56:07Z</time>
      </trkpt>
      <trkpt lat="40.2075960" lon="-8.4292340">
        <ele>31.1</ele>
        <time>2015-03-21T18:56:12Z</time>
      </trkpt>
      <trkpt lat="40.2078510" lon="-8.4291440">
        <ele>33.1</ele>
        <time>2015-03-21T18:56:27Z</time>
      </trkpt>
      <trkpt lat="40.2081410" lon="-8.4290720">
        <ele>34.8</ele>
        <time>2015-03-21T18:56:41Z</time>
      </trkpt>
      <trkpt lat="40.2083690" lon="-8.4289820">
        <ele>35.9</ele>
        <time>2015-03-21T18:56:53Z</time>
      </trkpt>
      <trkpt lat="40.2087210" lon="-8.4289840">
        <ele>37.6</ele>
        <time>2015-03-21T18:57:07Z</time>
      </trkpt>
      <trkpt lat="40.2089540" lon="-8.4289420">
        <ele>38.9</ele>
        <time>2015-03-21T18:57:17Z</time>
      </trkpt>
      <trkpt lat="40.2092710" lon="-8.4289290">
        <ele>40.9</ele>
        <time>2015-03-21T18:57:32Z</time>
      </trkpt>
      <trkpt lat="40.2094170" lon="-8.4289710">
        <ele>42.5</ele>
        <time>2015-03-21T18:57:45Z</time>
      </trkpt>
      <trkpt lat="40.2094590" lon="-8.4291480">
        <ele>42.4</ele>
        <time>2015-03-21T18:58:47Z</time>
      </trkpt>
      <trkpt lat="40.2095140" lon="-8.4292160">
        <ele>41.9</ele>
        <time>2015-03-21T19:03:27Z</time>
      </trkpt>
      <trkpt lat="40.2095630" lon="-8.4292060">
        <ele>41.6</ele>
        <time>2015-03-21T19:03:34Z</time>
      </trkpt>
      <trkpt lat="40.2097390" lon="-8.4291840">
        <ele>40.5</ele>
        <time>2015-03-21T19:03:49Z</time>
      </trkpt>
      <trkpt lat="40.2099350" lon="-8.4291280">
        <ele>39.2</ele>
        <time>2015-03-21T19:04:04Z</time>
      </trkpt>
      <trkpt lat="40.2102030" lon="-8.4291250">
        <ele>37.3</ele>
        <time>2015-03-21T19:04:25Z</time>
      </trkpt>
      <trkpt lat="40.2104270" lon="-8.4291090">
        <ele>35.3</ele>
        <time>2015-03-21T19:04:44Z</time>
      </trkpt>
      <trkpt lat="40.2106220" lon="-8.4290670">
        <ele>33.2</ele>
        <time>2015-03-21T19:05:01Z</time>
      </trkpt>
      <trkpt lat="40.2108470" lon="-8.4291310">
        <ele>31.5</ele>
        <time>2015-03-21T19:05:16Z</time>
      </trkpt>
      <trkpt lat="40.2110840" lon="-8.4291480">
        <ele>31.1</ele>
        <time>2015-03-21T19:05:36Z</time>
      </trkpt>
      <trkpt lat="40.2112230" lon="-8.4291650">
        <ele>31.3</ele>
        <time>2015-03-21T19:05:49Z</time>
      </trkpt>
      <trkpt lat="40.2114490" lon="-8.4291820">
        <ele>32.1</ele>
        <time>2015-03-21T19:06:11Z</time>
      </trkpt>
      <trkpt lat="40.2114990" lon="-8.4290550">
        <ele>33.0</ele>
        <time>2015-03-21T19:10:00Z</time>
      </trkpt>
      <trkpt lat="40.2115450" lon="-8.4285960">
        <ele>35.2</ele>
        <time>2015-03-21T19:10:16Z</time>
      </trkpt>
      <trkpt lat="40.2115650" lon="-8.4280090">
        <ele>37.1</ele>
        <time>2015-03-21T19:10:36Z</time>
      </trkpt>
      <trkpt lat="40.2116800" lon="-8.4274010">
        <ele>37.7</ele>
        <time>2015-03-21T19:12:11Z</time>
      </trkpt>
      <trkpt lat="40.2116550" lon="-8.4270100">
        <ele>39.0</ele>
        <time>2015-03-21T19:13:29Z</time>
      </trkpt>
      <trkpt lat="40.2116970" lon="-8.4264530">
        <ele>43.6</ele>
        <time>2015-03-21T19:13:48Z</time>
      </trkpt>
      <trkpt lat="40.2117160" lon="-8.4259970">
        <ele>49.7</ele>
        <time>2015-03-21T19:14:04Z</time>
      </trkpt>
      <trkpt lat="40.2116810" lon="-8.4255150">
        <ele>54.1</ele>
        <time>2015-03-21T19:14:21Z</time>
      </trkpt>
      <trkpt lat="40.2116000" lon="-8.4251420">
        <ele>56.7</ele>
        <time>2015-03-21T19:14:36Z</time>
      </trkpt>
      <trkpt lat="40.2115580" lon="-8.4249740">
        <ele>57.6</ele>
        <time>2015-03-21T19:14:50Z</time>
      </trkpt>
      <trkpt lat="40.2114770" lon="-8.4247660">
        <ele>59.1</ele>
        <time>2015-03-21T19:15:03Z</time>
      </trkpt>
      <trkpt lat="40.2113320" lon="-8.4242940">
        <ele>63.0</ele>
        <time>2015-03-21T19:15:22Z</time>
      </trkpt>
      <trkpt lat="40.2112840" lon="-8.4239560">
        <ele>62.9</ele>
        <time>2015-03-21T19:15:38Z</time>
      </trkpt>
      <trkpt lat="40.2112710" lon="-8.4238610">
        <ele>63.0</ele>
        <time>2015-03-21T19:15:43Z</time>
      </trkpt>
      <trkpt lat="40.2112490" lon="-8.4237620">
        <ele>63.0</ele>
        <time>2015-03-21T19:15:49Z</time>
      </trkpt>
      <trkpt lat="40.2112250" lon="-8.4236340">
        <ele>63.2</ele>
        <time>2015-03-21T19:15:55Z</time>
      </trkpt>
      <trkpt lat="40.2111070" lon="-8.4233220">
        <ele>63.9</ele>
        <time>2015-03-21T19:16:09Z</time>
      </trkpt>
      <trkpt lat="40.2110360" lon="-8.4231770">
        <ele>64.3</ele>
        <time>2015-03-21T19:16:16Z</time>
      </trkpt>
      <trkpt lat="40.2108910" lon="-8.4229280">
        <ele>65.0</ele>
        <time>2015-03-21T19:16:29Z</time>
      </trkpt>
      <trkpt lat="40.2107380" lon="-8.4226690">
        <ele>65.7</ele>
        <time>2015-03-21T19:16:44Z</time>
      </trkpt>
      <trkpt lat="40.2106030" lon="-8.4224220">
        <ele>67.5</ele>
        <time>2015-03-21T19:16:57Z</time>
      </trkpt>
      <trkpt lat="40.2104150" lon="-8.4221360">
        <ele>69.7</ele>
        <time>2015-03-21T19:17:12Z</time>
      </trkpt>
      <trkpt lat="40.2102840" lon="-8.4219270">
        <ele>70.9</ele>
        <time>2015-03-21T19:17:23Z</time>
      </trkpt>
      <trkpt lat="40.2100980" lon="-8.4216410">
        <ele>71.6</ele>
        <time>2015-03-21T19:17:38Z</time>
      </trkpt>
      <trkpt lat="40.2099320" lon="-8.4213860">
        <ele>70.8</ele>
        <time>2015-03-21T19:17:51Z</time>
      </trkpt>
      <trkpt lat="40.2097920" lon="-8.4211250">
        <ele>70.6</ele>
        <time>2015-03-21T19:18:06Z</time>
      </trkpt>
      <trkpt lat="40.2096540" lon="-8.4209200">
        <ele>70.5</ele>
        <time>2015-03-21T19:18:17Z</time>
      </trkpt>
      <trkpt lat="40.2095950" lon="-8.4208370">
        <ele>70.6</ele>
        <time>2015-03-21T19:18:22Z</time>
      </trkpt>
      <trkpt lat="40.2095350" lon="-8.4207020">
        <ele>70.6</ele>
        <time>2015-03-21T19:18:30Z</time>
      </trkpt>
      <trkpt lat="40.2093880" lon="-8.4204020">
        <ele>70.4</ele>
        <time>2015-03-21T19:18:43Z</time>
      </trkpt>
      <trkpt lat="40.2093360" lon="-8.4203250">
        <ele>70.3</ele>
        <time>2015-03-21T19:18:47Z</time>
      </trkpt>
      <trkpt lat="40.2092910" lon="-8.4202690">
        <ele>70.5</ele>
        <time>2015-03-21T19:18:51Z</time>
      </trkpt>
      <trkpt lat="40.2091960" lon="-8.4198630">
        <ele>71.2</ele>
        <time>2015-03-21T19:19:00Z</time>
      </trkpt>
      <trkpt lat="40.2091910" lon="-8.4195230">
        <ele>72.4</ele>
        <time>2015-03-21T19:19:13Z</time>
      </trkpt>
      <trkpt lat="40.2092240" lon="-8.4193550">
        <ele>73.0</ele>
        <time>2015-03-21T19:19:18Z</time>
      </trkpt>
      <trkpt lat="40.2095110" lon="-8.4192180">
        <ele>74.1</ele>
        <time>2015-03-21T19:19:31Z</time>
      </trkpt>
      <trkpt lat="40.2097500" lon="-8.4191530">
        <ele>76.1</ele>
        <time>2015-03-21T19:19:40Z</time>
      </trkpt>
      <trkpt lat="40.2098050" lon="-8.4190920">
        <ele>76.4</ele>
        <time>2015-03-21T19:19:44Z</time>
      </trkpt>
      <trkpt lat="40.2099230" lon="-8.4187790">
        <ele>78.4</ele>
        <time>2015-03-21T19:19:59Z</time>
      </trkpt>
      <trkpt lat="40.2100380" lon="-8.4184580">
        <ele>80.3</ele>
        <time>2015-03-21T19:20:15Z</time>
      </trkpt>
      <trkpt lat="40.2101220" lon="-8.4182360">
        <ele>82.0</ele>
        <time>2015-03-21T19:20:27Z</time>
      </trkpt>
      <trkpt lat="40.2101750" lon="-8.4181060">
        <ele>83.0</ele>
        <time>2015-03-21T19:20:34Z</time>
      </trkpt>
      <trkpt lat="40.2102600" lon="-8.4178620">
        <ele>84.7</ele>
        <time>2015-03-21T19:20:48Z</time>
      </trkpt>
      <trkpt lat="40.2103600" lon="-8.4175690">
        <ele>87.1</ele>
        <time>2015-03-21T19:21:04Z</time>
      </trkpt>
      <trkpt lat="40.2104790" lon="-8.4172790">
        <ele>89.6</ele>
        <time>2015-03-21T19:21:20Z</time>
      </trkpt>
      <trkpt lat="40.2105270" lon="-8.4171320">
        <ele>90.5</ele>
        <time>2015-03-21T19:21:28Z</time>
      </trkpt>
      <trkpt lat="40.2105570" lon="-8.4170000">
        <ele>91.3</ele>
        <time>2015-03-21T19:21:35Z</time>
      </trkpt>
      <trkpt lat="40.2106680" lon="-8.4167100">
        <ele>93.0</ele>
        <time>2015-03-21T19:21:50Z</time>
      </trkpt>
      <trkpt lat="40.2107120" lon="-8.4166080">
        <ele>93.6</ele>
        <time>2015-03-21T19:21:56Z</time>
      </trkpt>
      <trkpt lat="40.2108060" lon="-8.4163140">
        <ele>95.2</ele>
        <time>2015-03-21T19:22:13Z</time>
      </trkpt>
      <trkpt lat="40.2108970" lon="-8.4160590">
        <ele>96.5</ele>
        <time>2015-03-21T19:22:27Z</time>
      </trkpt>
      <trkpt lat="40.2109790" lon="-8.4157900">
        <ele>98.0</ele>
        <time>2015-03-21T19:22:42Z</time>
      </trkpt>
      <trkpt lat="40.2110810" lon="-8.4154930">
        <ele>99.8</ele>
        <time>2015-03-21T19:22:59Z</time>
      </trkpt>
      <trkpt lat="40.2111350" lon="-8.4153470">
        <ele>100.8</ele>
        <time>2015-03-21T19:23:07Z</time>
      </trkpt>
      <trkpt lat="40.2111510" lon="-8.4152730">
        <ele>101.2</ele>
        <time>2015-03-21T19:23:12Z</time>
      </trkpt>
      <trkpt lat="40.2111630" lon="-8.4151920">
        <ele>102.0</ele>
        <time>2015-03-21T19:23:18Z</time>
      </trkpt>
      <trkpt lat="40.2112260" lon="-8.4150540">
        <ele>102.9</ele>
        <time>2015-03-21T19:23:25Z</time>
      </trkpt>
      <trkpt lat="40.2113460" lon="-8.4147620">
        <ele>104.9</ele>
        <time>2015-03-21T19:23:39Z</time>
      </trkpt>
      <trkpt lat="40.2113950" lon="-8.4145930">
        <ele>106.1</ele>
        <time>2015-03-21T19:23:48Z</time>
      </trkpt>
      <trkpt lat="40.2114650" lon="-8.4143710">
        <ele>108.0</ele>
        <time>2015-03-21T19:24:01Z</time>
      </trkpt>
      <trkpt lat="40.2113560" lon="-8.4142170">
        <ele>110.8</ele>
        <time>2015-03-21T19:24:13Z</time>
      </trkpt>
      <trkpt lat="40.2112900" lon="-8.4141860">
        <ele>111.7</ele>
        <time>2015-03-21T19:24:21Z</time>
      </trkpt>
      <trkpt lat="40.2111320" lon="-8.4140610">
        <ele>113.8</ele>
        <time>2015-03-21T19:24:33Z</time>
      </trkpt>
      <trkpt lat="40.2110020" lon="-8.4140280">
        <ele>115.0</ele>
        <time>2015-03-21T19:24:46Z</time>
      </trkpt>
      <trkpt lat="40.2111380" lon="-8.4140640">
        <ele>113.9</ele>
        <time>2015-03-22T08:40:17Z</time>
      </trkpt>
      <trkpt lat="40.2113410" lon="-8.4142160">
        <ele>111.5</ele>
        <time>2015-03-22T08:40:26Z</time>
      </trkpt>
      <trkpt lat="40.2114130" lon="-8.4142540">
        <ele>110.6</ele>
        <time>2015-03-22T08:40:30Z</time>
      </trkpt>
      <trkpt lat="40.2114240" lon="-8.4143320">
        <ele>109.9</ele>
        <time>2015-03-22T08:40:33Z</time>
      </trkpt>
      <trkpt lat="40.2114100" lon="-8.4143910">
        <ele>109.3</ele>
        <time>2015-03-22T08:41:02Z</time>
      </trkpt>
      <trkpt lat="40.2113480" lon="-8.4148060">
        <ele>104.6</ele>
        <time>2015-03-22T08:41:28Z</time>
      </trkpt>
      <trkpt lat="40.2112310" lon="-8.4151390">
        <ele>102.5</ele>
        <time>2015-03-22T08:41:33Z</time>
      </trkpt>
      <trkpt lat="40.2110940" lon="-8.4155270">
        <ele>100.0</ele>
        <time>2015-03-22T08:41:38Z</time>
      </trkpt>
      <trkpt lat="40.2109240" lon="-8.4160160">
        <ele>97.0</ele>
        <time>2015-03-22T08:41:43Z</time>
      </trkpt>
      <trkpt lat="40.2107660" lon="-8.4164470">
        <ele>94.6</ele>
        <time>2015-03-22T08:41:47Z</time>
      </trkpt>
      <trkpt lat="40.2105810" lon="-8.4169400">
        <ele>91.7</ele>
        <time>2015-03-22T08:41:51Z</time>
      </trkpt>
      <trkpt lat="40.2103970" lon="-8.4174660">
        <ele>88.0</ele>
        <time>2015-03-22T08:41:55Z</time>
      </trkpt>
      <trkpt lat="40.2102670" lon="-8.4178500">
        <ele>84.8</ele>
        <time>2015-03-22T08:41:58Z</time>
      </trkpt>
      <trkpt lat="40.2101330" lon="-8.4182520">
        <ele>81.9</ele>
        <time>2015-03-22T08:42:01Z</time>
      </trkpt>
      <trkpt lat="40.2099550" lon="-8.4187570">
        <ele>78.6</ele>
        <time>2015-03-22T08:42:05Z</time>
      </trkpt>
      <trkpt lat="40.2099180" lon="-8.4188670">
        <ele>77.8</ele>
        <time>2015-03-22T08:42:06Z</time>
      </trkpt>
      <trkpt lat="40.2098570" lon="-8.4192520">
        <ele>76.0</ele>
        <time>2015-03-22T08:42:10Z</time>
      </trkpt>
      <trkpt lat="40.2099140" lon="-8.4200080">
        <ele>73.8</ele>
        <time>2015-03-22T08:42:24Z</time>
      </trkpt>
      <trkpt lat="40.2100240" lon="-8.4204320">
        <ele>73.3</ele>
        <time>2015-03-22T08:42:34Z</time>
      </trkpt>
      <trkpt lat="40.2101480" lon="-8.4206850">
        <ele>72.6</ele>
        <time>2015-03-22T08:42:40Z</time>
      </trkpt>
      <trkpt lat="40.2099820" lon="-8.4210320">
        <ele>70.9</ele>
        <time>2015-03-22T08:42:50Z</time>
      </trkpt>
      <trkpt lat="40.2097420" lon="-8.4212640">
        <ele>74.8</ele>
        <time>2015-03-22T08:43:04Z</time>
      </trkpt>
      <trkpt lat="40.2095750" lon="-8.4214940">
        <ele>78.3</ele>
        <time>2015-03-22T08:43:19Z</time>
      </trkpt>
      <trkpt lat="40.2096540" lon="-8.4217700">
        <ele>78.5</ele>
        <time>2015-03-22T08:43:33Z</time>
      </trkpt>
      <trkpt lat="40.2098480" lon="-8.4221010">
        <ele>78.7</ele>
        <time>2015-03-22T08:43:52Z</time>
      </trkpt>
      <trkpt lat="40.2100340" lon="-8.4223900">
        <ele>79.1</ele>
        <time>2015-03-22T08:44:11Z</time>
      </trkpt>
      <trkpt lat="40.2102340" lon="-8.4226940">
        <ele>79.6</ele>
        <time>2015-03-22T08:44:31Z</time>
      </trkpt>
      <trkpt lat="40.2104050" lon="-8.4229410">
        <ele>80.1</ele>
        <time>2015-03-22T08:44:47Z</time>
      </trkpt>
      <trkpt lat="40.2105370" lon="-8.4231820">
        <ele>80.8</ele>
        <time>2015-03-22T08:45:02Z</time>
      </trkpt>
      <trkpt lat="40.2106430" lon="-8.4234860">
        <ele>81.5</ele>
        <time>2015-03-22T08:45:17Z</time>
      </trkpt>
      <trkpt lat="40.2107000" lon="-8.4238380">
        <ele>82.7</ele>
        <time>2015-03-22T08:45:35Z</time>
      </trkpt>
      <trkpt lat="40.2106970" lon="-8.4240830">
        <ele>83.5</ele>
        <time>2015-03-22T08:45:48Z</time>
      </trkpt>
      <trkpt lat="40.2106960" lon="-8.4244420">
        <ele>84.3</ele>
        <time>2015-03-22T08:46:05Z</time>
      </trkpt>
      <trkpt lat="40.2106520" lon="-8.4248050">
        <ele>85.1</ele>
        <time>2015-03-22T08:46:23Z</time>
      </trkpt>
      <trkpt lat="40.2105490" lon="-8.4251310">
        <ele>85.6</ele>
        <time>2015-03-22T08:46:40Z</time>
      </trkpt>
      <trkpt lat="40.2104240" lon="-8.4253420">
        <ele>87.5</ele>
        <time>2015-03-22T08:46:54Z</time>
      </trkpt>
      <trkpt lat="40.2101470" lon="-8.4252660">
        <ele>92.6</ele>
        <time>2015-03-22T08:47:15Z</time>
      </trkpt>
      <trkpt lat="40.2100490" lon="-8.4252650">
        <ele>93.8</ele>
        <time>2015-03-22T08:47:22Z</time>
      </trkpt>
      <trkpt lat="40.2098890" lon="-8.4252290">
        <ele>95.8</ele>
        <time>2015-03-22T08:47:33Z</time>
      </trkpt>
      <trkpt lat="40.2097650" lon="-8.4252010">
        <ele>96.5</ele>
        <time>2015-03-22T08:47:41Z</time>
      </trkpt>
      <trkpt lat="40.2092620" lon="-8.4250510">
        <ele>98.0</ele>
        <time>2015-03-22T08:47:56Z</time>
      </trkpt>
      <trkpt lat="40.2088470" lon="-8.4249250">
        <ele>99.8</ele>
        <time>2015-03-22T08:48:10Z</time>
      </trkpt>
      <trkpt lat="40.2087390" lon="-8.4249220">
        <ele>99.4</ele>
        <time>2015-03-22T08:48:14Z</time>
      </trkpt>
      <trkpt lat="40.2086670" lon="-8.4249260">
        <ele>99.1</ele>
        <time>2015-03-22T08:48:19Z</time>
      </trkpt>
      <trkpt lat="40.2086230" lon="-8.4249090">
        <ele>98.9</ele>
        <time>2015-03-22T08:48:22Z</time>
      </trkpt>
      <trkpt lat="40.2084060" lon="-8.4249170">
        <ele>98.7</ele>
        <time>2015-03-22T08:48:37Z</time>
      </trkpt>
      <trkpt lat="40.2081860" lon="-8.4249530">
        <ele>99.5</ele>
        <time>2015-03-22T08:48:53Z</time>
      </trkpt>
      <trkpt lat="40.2080930" lon="-8.4249150">
        <ele>100.4</ele>
        <time>2015-03-22T08:49:00Z</time>
      </trkpt>
      <trkpt lat="40.2080260" lon="-8.4249060">
        <ele>101.1</ele>
        <time>2015-03-22T08:49:05Z</time>
      </trkpt>
      <trkpt lat="40.2078670" lon="-8.4250810">
        <ele>102.8</ele>
        <time>2015-03-22T08:49:19Z</time>
      </trkpt>
      <trkpt lat="40.2078500" lon="-8.4254110">
        <ele>103.2</ele>
        <time>2015-03-22T08:49:32Z</time>
      </trkpt>
      <trkpt lat="40.2077860" lon="-8.4256090">
        <ele>103.4</ele>
        <time>2015-03-22T08:49:40Z</time>
      </trkpt>
      <trkpt lat="40.2077510" lon="-8.4256800">
        <ele>103.5</ele>
        <time>2015-03-22T08:49:46Z</time>
      </trkpt>
      <trkpt lat="40.2074830" lon="-8.4258880">
        <ele>101.5</ele>
        <time>2015-03-22T08:49:57Z</time>
      </trkpt>
      <trkpt lat="40.2069900" lon="-8.4259920">
        <ele>97.7</ele>
        <time>2015-03-22T08:50:14Z</time>
      </trkpt>
      <trkpt lat="40.2069460" lon="-8.4260370">
        <ele>97.3</ele>
        <time>2015-03-22T08:50:25Z</time>
      </trkpt>
      <trkpt lat="40.2070130" lon="-8.4260770">
        <ele>96.7</ele>
        <time>2015-03-22T08:52:07Z</time>
      </trkpt>
      <trkpt lat="40.2070930" lon="-8.4261010">
        <ele>97.5</ele>
        <time>2015-03-22T08:52:27Z</time>
      </trkpt>
      <trkpt lat="40.2071810" lon="-8.4261370">
        <ele>98.3</ele>
        <time>2015-03-22T08:52:50Z</time>
      </trkpt>
      <trkpt lat="40.2074280" lon="-8.4262520">
        <ele>100.4</ele>
        <time>2015-03-22T08:53:11Z</time>
      </trkpt>
      <trkpt lat="40.2074790" lon="-8.4262350">
        <ele>100.9</ele>
        <time>2015-03-22T08:53:50Z</time>
      </trkpt>
      <trkpt lat="40.2076630" lon="-8.4259870">
        <ele>103.1</ele>
        <time>2015-03-22T08:54:03Z</time>
      </trkpt>
      <trkpt lat="40.2077850" lon="-8.4256650">
        <ele>103.4</ele>
        <time>2015-03-22T08:54:15Z</time>
      </trkpt>
      <trkpt lat="40.2078360" lon="-8.4255070">
        <ele>103.3</ele>
        <time>2015-03-22T08:54:20Z</time>
      </trkpt>
      <trkpt lat="40.2079030" lon="-8.4250040">
        <ele>102.9</ele>
        <time>2015-03-22T08:54:34Z</time>
      </trkpt>
      <trkpt lat="40.2079270" lon="-8.4248540">
        <ele>102.8</ele>
        <time>2015-03-22T08:54:38Z</time>
      </trkpt>
      <trkpt lat="40.2083210" lon="-8.4248860">
        <ele>98.7</ele>
        <time>2015-03-22T08:54:52Z</time>
      </trkpt>
      <trkpt lat="40.2085670" lon="-8.4249500">
        <ele>98.9</ele>
        <time>2015-03-22T08:54:59Z</time>
      </trkpt>
      <trkpt lat="40.2086310" lon="-8.4249710">
        <ele>99.0</ele>
        <time>2015-03-22T08:55:01Z</time>
      </trkpt>
      <trkpt lat="40.2087710" lon="-8.4251540">
        <ele>98.1</ele>
        <time>2015-03-22T08:55:48Z</time>
      </trkpt>
      <trkpt lat="40.2087120" lon="-8.4253580">
        <ele>96.8</ele>
        <time>2015-03-22T08:55:52Z</time>
      </trkpt>
      <trkpt lat="40.2086680" lon="-8.4255630">
        <ele>95.6</ele>
        <time>2015-03-22T08:55:56Z</time>
      </trkpt>
      <trkpt lat="40.2086600" lon="-8.4257130">
        <ele>94.3</ele>
        <time>2015-03-22T08:56:02Z</time>
      </trkpt>
      <trkpt lat="40.2088000" lon="-8.4257650">
        <ele>92.3</ele>
        <time>2015-03-22T08:56:07Z</time>
      </trkpt>
      <trkpt lat="40.2088850" lon="-8.4258000">
        <ele>91.4</ele>
        <time>2015-03-22T08:56:16Z</time>
      </trkpt>
      <trkpt lat="40.2088840" lon="-8.4260970">
        <ele>88.4</ele>
        <time>2015-03-22T08:56:24Z</time>
      </trkpt>
      <trkpt lat="40.2088700" lon="-8.4263700">
        <ele>84.8</ele>
        <time>2015-03-22T08:56:31Z</time>
      </trkpt>
      <trkpt lat="40.2088390" lon="-8.4265090">
        <ele>83.0</ele>
        <time>2015-03-22T08:56:42Z</time>
      </trkpt>
      <trkpt lat="40.2088250" lon="-8.4265960">
        <ele>81.8</ele>
        <time>2015-03-22T08:57:05Z</time>
      </trkpt>
      <trkpt lat="40.2088680" lon="-8.4267180">
        <ele>79.3</ele>
        <time>2015-03-22T08:57:09Z</time>
      </trkpt>
      <trkpt lat="40.2089330" lon="-8.4269240">
        <ele>76.9</ele>
        <time>2015-03-22T08:57:15Z</time>
      </trkpt>
      <trkpt lat="40.2089370" lon="-8.4272360">
        <ele>72.7</ele>
        <time>2015-03-22T08:57:22Z</time>
      </trkpt>
      <trkpt lat="40.2089710" lon="-8.4274950">
        <ele>68.8</ele>
        <time>2015-03-22T08:57:33Z</time>
      </trkpt>
      <trkpt lat="40.2088760" lon="-8.4275570">
        <ele>67.7</ele>
        <time>2015-03-22T08:58:56Z</time>
      </trkpt>
      <trkpt lat="40.2086560" lon="-8.4278200">
        <ele>62.1</ele>
        <time>2015-03-22T08:59:07Z</time>
      </trkpt>
      <trkpt lat="40.2083060" lon="-8.4281530">
        <ele>55.3</ele>
        <time>2015-03-22T08:59:19Z</time>
      </trkpt>
      <trkpt lat="40.2081110" lon="-8.4282890">
        <ele>51.3</ele>
        <time>2015-03-22T08:59:24Z</time>
      </trkpt>
      <trkpt lat="40.2079870" lon="-8.4283560">
        <ele>49.5</ele>
        <time>2015-03-22T08:59:27Z</time>
      </trkpt>
      <trkpt lat="40.2077980" lon="-8.4284270">
        <ele>46.7</ele>
        <time>2015-03-22T08:59:32Z</time>
      </trkpt>
      <trkpt lat="40.2075340" lon="-8.4285130">
        <ele>42.0</ele>
        <time>2015-03-22T08:59:39Z</time>
      </trkpt>
      <trkpt lat="40.2074420" lon="-8.4285930">
        <ele>42.0</ele>
        <time>2015-03-22T08:59:42Z</time>
      </trkpt>
      <trkpt lat="40.2074040" lon="-8.4286710">
        <ele>42.0</ele>
        <time>2015-03-22T08:59:46Z</time>
      </trkpt>
      <trkpt lat="40.2074930" lon="-8.4286310">
        <ele>42.0</ele>
        <time>2015-03-22T08:59:50Z</time>
      </trkpt>
      <trkpt lat="40.2078440" lon="-8.4285970">
        <ele>44.5</ele>
        <time>2015-03-22T09:00:00Z</time>
      </trkpt>
      <trkpt lat="40.2079840" lon="-8.4285900">
        <ele>43.1</ele>
        <time>2015-03-22T09:00:03Z</time>
      </trkpt>
      <trkpt lat="40.2083340" lon="-8.4285610">
        <ele>43.5</ele>
        <time>2015-03-22T09:00:10Z</time>
      </trkpt>
      <trkpt lat="40.2084280" lon="-8.4285490">
        <ele>44.1</ele>
        <time>2015-03-22T09:00:12Z</time>
      </trkpt>
      <trkpt lat="40.2086020" lon="-8.4284840">
        <ele>45.5</ele>
        <time>2015-03-22T09:00:16Z</time>
      </trkpt>
      <trkpt lat="40.2087380" lon="-8.4286110">
        <ele>44.0</ele>
        <time>2015-03-22T09:00:25Z</time>
      </trkpt>
      <trkpt lat="40.2087630" lon="-8.4287030">
        <ele>43.9</ele>
        <time>2015-03-22T09:00:26Z</time>
      </trkpt>
      <trkpt lat="40.2088840" lon="-8.4288160">
        <ele>42.8</ele>
        <time>2015-03-22T09:00:31Z</time>
      </trkpt>
      <trkpt lat="40.2088760" lon="-8.4289980">
        <ele>39.4</ele>
        <time>2015-03-22T09:00:37Z</time>
      </trkpt>
      <trkpt lat="40.2086480" lon="-8.4291060">
        <ele>37.0</ele>
        <time>2015-03-22T09:04:20Z</time>
      </trkpt>
      <trkpt lat="40.2082530" lon="-8.4291850">
        <ele>35.3</ele>
        <time>2015-03-22T09:04:35Z</time>
      </trkpt>
      <trkpt lat="40.2077980" lon="-8.4292570">
        <ele>32.7</ele>
        <time>2015-03-22T09:04:52Z</time>
      </trkpt>
      <trkpt lat="40.2076460" lon="-8.4292390">
        <ele>31.3</ele>
        <time>2015-03-22T09:04:58Z</time>
      </trkpt>
      <trkpt lat="40.2075920" lon="-8.4293590">
        <ele>30.0</ele>
        <time>2015-03-22T09:05:05Z</time>
      </trkpt>
      <trkpt lat="40.2076510" lon="-8.4294060">
        <ele>30.1</ele>
        <time>2015-03-22T09:05:18Z</time>
      </trkpt>
      <trkpt lat="40.2077610" lon="-8.4293780">
        <ele>30.5</ele>
        <time>2015-03-22T09:05:31Z</time>
      </trkpt>
      <trkpt lat="40.2079950" lon="-8.4294950">
        <ele>30.1</ele>
        <time>2015-03-22T09:05:40Z</time>
      </trkpt>
      <trkpt lat="40.2082310" lon="-8.4294280">
        <ele>31.3</ele>
        <time>2015-03-22T09:05:51Z</time>
      </trkpt>
      <trkpt lat="40.2083350" lon="-8.4293900">
        <ele>32.5</ele>
        <time>2015-03-22T09:05:56Z</time>
      </trkpt>
      <trkpt lat="40.2084620" lon="-8.4293880">
        <ele>33.0</ele>
        <time>2015-03-22T09:06:01Z</time>
      </trkpt>
      <trkpt lat="40.2089270" lon="-8.4293640">
        <ele>33.5</ele>
        <time>2015-03-22T09:06:36Z</time>
      </trkpt>
      <trkpt lat="40.2092700" lon="-8.4293970">
        <ele>33.8</ele>
        <time>2015-03-22T09:06:51Z</time>
      </trkpt>
      <trkpt lat="40.2094260" lon="-8.4294990">
        <ele>33.3</ele>
        <time>2015-03-22T09:07:38Z</time>
      </trkpt>
      <trkpt lat="40.2096080" lon="-8.4295740">
        <ele>32.2</ele>
        <time>2015-03-22T09:07:45Z</time>
      </trkpt>
      <trkpt lat="40.2096520" lon="-8.4296210">
        <ele>31.9</ele>
        <time>2015-03-22T09:07:47Z</time>
      </trkpt>
      <trkpt lat="40.2099460" lon="-8.4297190">
        <ele>30.8</ele>
        <time>2015-03-22T09:07:59Z</time>
      </trkpt>
      <trkpt lat="40.2100570" lon="-8.4297680">
        <ele>29.0</ele>
        <time>2015-03-22T09:08:03Z</time>
      </trkpt>
      <trkpt lat="40.2103330" lon="-8.4299900">
        <ele>27.7</ele>
        <time>2015-03-22T09:08:15Z</time>
      </trkpt>
      <trkpt lat="40.2104320" lon="-8.4300580">
        <ele>27.3</ele>
        <time>2015-03-22T09:08:19Z</time>
      </trkpt>
      <trkpt lat="40.2105310" lon="-8.4297540">
        <ele>27.9</ele>
        <time>2015-03-22T09:08:39Z</time>
      </trkpt>
      <trkpt lat="40.2106730" lon="-8.4292910">
        <ele>30.0</ele>
        <time>2015-03-22T09:08:52Z</time>
      </trkpt>
      <trkpt lat="40.2107590" lon="-8.4291960">
        <ele>30.8</ele>
        <time>2015-03-22T09:09:08Z</time>
      </trkpt>
      <trkpt lat="40.2109270" lon="-8.4291420">
        <ele>31.4</ele>
        <time>2015-03-22T09:09:22Z</time>
      </trkpt>
      <trkpt lat="40.2109420" lon="-8.4290600">
        <ele>31.3</ele>
        <time>2015-03-22T09:09:43Z</time>
      </trkpt>
      <trkpt lat="40.2110330" lon="-8.4290540">
        <ele>31.2</ele>
        <time>2015-03-22T09:09:47Z</time>
      </trkpt>
      <trkpt lat="40.2113540" lon="-8.4292070">
        <ele>31.8</ele>
        <time>2015-03-22T09:10:02Z</time>
      </trkpt>
      <trkpt lat="40.2116410" lon="-8.4295100">
        <ele>32.1</ele>
        <time>2015-03-22T09:10:15Z</time>
      </trkpt>
      <trkpt lat="40.2120040" lon="-8.4298410">
        <ele>30.6</ele>
        <time>2015-03-22T09:10:32Z</time>
      </trkpt>
      <trkpt lat="40.2123390" lon="-8.4300820">
        <ele>36.1</ele>
        <time>2015-03-22T09:10:46Z</time>
      </trkpt>
      <trkpt lat="40.2127480" lon="-8.4304840">
        <ele>37.5</ele>
        <time>2015-03-22T09:11:01Z</time>
      </trkpt>
      <trkpt lat="40.2130580" lon="-8.4307900">
        <ele>37.1</ele>
        <time>2015-03-22T09:11:15Z</time>
      </trkpt>
      <trkpt lat="40.2131750" lon="-8.4308740">
        <ele>36.7</ele>
        <time>2015-03-22T09:11:20Z</time>
      </trkpt>
      <trkpt lat="40.2132760" lon="-8.4310090">
        <ele>36.3</ele>
        <time>2015-03-22T09:11:26Z</time>
      </trkpt>
      <trkpt lat="40.2135960" lon="-8.4312890">
        <ele>35.4</ele>
        <time>2015-03-22T09:11:40Z</time>
      </trkpt>
      <trkpt lat="40.2139650" lon="-8.4315840">
        <ele>34.4</ele>
        <time>2015-03-22T09:11:57Z</time>
      </trkpt>
      <trkpt lat="40.2140170" lon="-8.4316590">
        <ele>34.1</ele>
        <time>2015-03-22T09:12:01Z</time>
      </trkpt>
      <trkpt lat="40.2140130" lon="-8.4317840">
        <ele>33.0</ele>
        <time>2015-03-22T09:12:05Z</time>
      </trkpt>
      <trkpt lat="40.2138700" lon="-8.4321930">
        <ele>29.6</ele>
        <time>2015-03-22T09:12:17Z</time>
      </trkpt>
      <trkpt lat="40.2137010" lon="-8.4323550">
        <ele>27.7</ele>
        <time>2015-03-22T09:12:24Z</time>
      </trkpt>
      <trkpt lat="40.2136680" lon="-8.4324760">
        <ele>27.5</ele>
        <time>2015-03-22T09:12:33Z</time>
      </trkpt>
      <trkpt lat="40.2134840" lon="-8.4328320">
        <ele>26.9</ele>
        <time>2015-03-22T09:12:46Z</time>
      </trkpt>
      <trkpt lat="40.2134440" lon="-8.4329220">
        <ele>26.9</ele>
        <time>2015-03-22T09:12:49Z</time>
      </trkpt>
      <trkpt lat="40.2133300" lon="-8.4333190">
        <ele>26.8</ele>
        <time>2015-03-22T09:13:01Z</time>
      </trkpt>
      <trkpt lat="40.2134030" lon="-8.4334280">
        <ele>27.1</ele>
        <time>2015-03-22T09:13:05Z</time>
      </trkpt>
      <trkpt lat="40.2137790" lon="-8.4338140">
        <ele>28.5</ele>
        <time>2015-03-22T09:13:20Z</time>
      </trkpt>
      <trkpt lat="40.2142860" lon="-8.4343730">
        <ele>29.0</ele>
        <time>2015-03-22T09:13:38Z</time>
      </trkpt>
      <trkpt lat="40.2148070" lon="-8.4348830">
        <ele>28.6</ele>
        <time>2015-03-22T09:13:55Z</time>
      </trkpt>
      <trkpt lat="40.2154420" lon="-8.4354980">
        <ele>28.5</ele>
        <time>2015-03-22T09:14:16Z</time>
      </trkpt>
      <trkpt lat="40.2157390" lon="-8.4358110">
        <ele>28.3</ele>
        <time>2015-03-22T09:14:27Z</time>
      </trkpt>
      <trkpt lat="40.2160910" lon="-8.4361810">
        <ele>26.6</ele>
        <time>2015-03-22T09:14:39Z</time>
      </trkpt>
      <trkpt lat="40.2164480" lon="-8.4365150">
        <ele>25.6</ele>
        <time>2015-03-22T09:14:54Z</time>
      </trkpt>
      <trkpt lat="40.2164020" lon="-8.4365980">
        <ele>25.4</ele>
        <time>2015-03-22T09:15:00Z</time>
      </trkpt>
      <trkpt lat="40.2164110" lon="-8.4367480">
        <ele>25.1</ele>
        <time>2015-03-22T09:15:07Z</time>
      </trkpt>
      <trkpt lat="40.2165030" lon="-8.4368440">
        <ele>25.0</ele>
        <time>2015-03-22T09:15:12Z</time>
      </trkpt>
      <trkpt lat="40.2166110" lon="-8.4369790">
        <ele>24.8</ele>
        <time>2015-03-22T09:15:17Z</time>
      </trkpt>
      <trkpt lat="40.2166910" lon="-8.4369830">
        <ele>24.7</ele>
        <time>2015-03-22T09:15:20Z</time>
      </trkpt>
      <trkpt lat="40.2170380" lon="-8.4373320">
        <ele>24.3</ele>
        <time>2015-03-22T09:15:33Z</time>
      </trkpt>
      <trkpt lat="40.2173420" lon="-8.4376880">
        <ele>22.5</ele>
        <time>2015-03-22T09:15:45Z</time>
      </trkpt>
      <trkpt lat="40.2175470" lon="-8.4378820">
        <ele>21.5</ele>
        <time>2015-03-22T09:15:54Z</time>
      </trkpt>
      <trkpt lat="40.2175460" lon="-8.4380240">
        <ele>21.0</ele>
        <time>2015-03-22T09:16:05Z</time>
      </trkpt>
      <trkpt lat="40.2174880" lon="-8.4382030">
        <ele>20.2</ele>
        <time>2015-03-22T09:16:09Z</time>
      </trkpt>
      <trkpt lat="40.2172670" lon="-8.4389150">
        <ele>17.8</ele>
        <time>2015-03-22T09:16:20Z</time>
      </trkpt>
      <trkpt lat="40.2171760" lon="-8.4393450">
        <ele>17.5</ele>
        <time>2015-03-22T09:16:32Z</time>
      </trkpt>
      <trkpt lat="40.2175820" lon="-8.4395600">
        <ele>17.0</ele>
        <time>2015-03-22T09:28:24Z</time>
      </trkpt>
      <trkpt lat="40.2181930" lon="-8.4398070">
        <ele>17.3</ele>
        <time>2015-03-22T09:28:41Z</time>
      </trkpt>
      <trkpt lat="40.2189810" lon="-8.4401570">
        <ele>16.6</ele>
        <time>2015-03-22T09:29:02Z</time>
      </trkpt>
      <trkpt lat="40.2193070" lon="-8.4403200">
        <ele>15.6</ele>
        <time>2015-03-22T09:29:10Z</time>
      </trkpt>
      <trkpt lat="40.2200010" lon="-8.4408420">
        <ele>13.9</ele>
        <time>2015-03-22T09:29:25Z</time>
      </trkpt>
      <trkpt lat="40.2201530" lon="-8.4409600">
        <ele>13.7</ele>
        <time>2015-03-22T09:29:28Z</time>
      </trkpt>
      <trkpt lat="40.2206450" lon="-8.4412690">
        <ele>13.5</ele>
        <time>2015-03-22T09:29:39Z</time>
      </trkpt>
      <trkpt lat="40.2213430" lon="-8.4414420">
        <ele>13.0</ele>
        <time>2015-03-22T09:29:56Z</time>
      </trkpt>
      <trkpt lat="40.2220300" lon="-8.4416170">
        <ele>12.7</ele>
        <time>2015-03-22T09:30:13Z</time>
      </trkpt>
      <trkpt lat="40.2227460" lon="-8.4419330">
        <ele>14.1</ele>
        <time>2015-03-22T09:30:31Z</time>
      </trkpt>
      <trkpt lat="40.2229440" lon="-8.4420260">
        <ele>14.7</ele>
        <time>2015-03-22T09:30:37Z</time>
      </trkpt>
      <trkpt lat="40.2236290" lon="-8.4421840">
        <ele>15.8</ele>
        <time>2015-03-22T09:30:58Z</time>
      </trkpt>
      <trkpt lat="40.2241000" lon="-8.4420190">
        <ele>16.7</ele>
        <time>2015-03-22T09:31:11Z</time>
      </trkpt>
      <trkpt lat="40.2243640" lon="-8.4423120">
        <ele>16.4</ele>
        <time>2015-03-22T09:31:20Z</time>
      </trkpt>
      <trkpt lat="40.2244980" lon="-8.4424360">
        <ele>16.1</ele>
        <time>2015-03-22T09:31:24Z</time>
      </trkpt>
      <trkpt lat="40.2245750" lon="-8.4424910">
        <ele>16.0</ele>
        <time>2015-03-22T09:31:26Z</time>
      </trkpt>
      <trkpt lat="40.2254140" lon="-8.4428140">
        <ele>14.2</ele>
        <time>2015-03-22T09:31:46Z</time>
      </trkpt>
      <trkpt lat="40.2259240" lon="-8.4431830">
        <ele>14.3</ele>
        <time>2015-03-22T09:31:59Z</time>
      </trkpt>
      <trkpt lat="40.2261720" lon="-8.4434940">
        <ele>14.4</ele>
        <time>2015-03-22T09:32:07Z</time>
      </trkpt>
      <trkpt lat="40.2262810" lon="-8.4438070">
        <ele>14.6</ele>
        <time>2015-03-22T09:32:13Z</time>
      </trkpt>
      <trkpt lat="40.2264580" lon="-8.4439660">
        <ele>14.2</ele>
        <time>2015-03-22T09:32:18Z</time>
      </trkpt>
      <trkpt lat="40.2272510" lon="-8.4442440">
        <ele>12.5</ele>
        <time>2015-03-22T09:32:37Z</time>
      </trkpt>
      <trkpt lat="40.2280130" lon="-8.4446850">
        <ele>11.8</ele>
        <time>2015-03-22T09:32:57Z</time>
      </trkpt>
      <trkpt lat="40.2289210" lon="-8.4453120">
        <ele>17.4</ele>
        <time>2015-03-22T09:33:21Z</time>
      </trkpt>
      <trkpt lat="40.2297240" lon="-8.4459670">
        <ele>16.1</ele>
        <time>2015-03-22T09:33:43Z</time>
      </trkpt>
      <trkpt lat="40.2305170" lon="-8.4465750">
        <ele>16.0</ele>
        <time>2015-03-22T09:34:04Z</time>
      </trkpt>
      <trkpt lat="40.2310200" lon="-8.4469490">
        <ele>15.1</ele>
        <time>2015-03-22T09:34:18Z</time>
      </trkpt>
      <trkpt lat="40.2318670" lon="-8.4476030">
        <ele>14.7</ele>
        <time>2015-03-22T09:34:41Z</time>
      </trkpt>
      <trkpt lat="40.2326330" lon="-8.4481620">
        <ele>14.2</ele>
        <time>2015-03-22T09:35:01Z</time>
      </trkpt>
      <trkpt lat="40.2333920" lon="-8.4486860">
        <ele>13.4</ele>
        <time>2015-03-22T09:35:21Z</time>
      </trkpt>
      <trkpt lat="40.2343140" lon="-8.4490130">
        <ele>13.1</ele>
        <time>2015-03-22T09:35:43Z</time>
      </trkpt>
      <trkpt lat="40.2350620" lon="-8.4492540">
        <ele>12.9</ele>
        <time>2015-03-22T09:36:01Z</time>
      </trkpt>
      <trkpt lat="40.2358920" lon="-8.4496700">
        <ele>12.4</ele>
        <time>2015-03-22T09:36:21Z</time>
      </trkpt>
      <trkpt lat="40.2366400" lon="-8.4500280">
        <ele>11.6</ele>
        <time>2015-03-22T09:36:39Z</time>
      </trkpt>
      <trkpt lat="40.2374580" lon="-8.4504330">
        <ele>11.0</ele>
        <time>2015-03-22T09:36:59Z</time>
      </trkpt>
      <trkpt lat="40.2382960" lon="-8.4509350">
        <ele>11.4</ele>
        <time>2015-03-22T09:37:20Z</time>
      </trkpt>
      <trkpt lat="40.2389550" lon="-8.4513520">
        <ele>11.8</ele>
        <time>2015-03-22T09:37:37Z</time>
      </trkpt>
      <trkpt lat="40.2395500" lon="-8.4517340">
        <ele>11.0</ele>
        <time>2015-03-22T09:37:52Z</time>
      </trkpt>
      <trkpt lat="40.2403540" lon="-8.4520500">
        <ele>11.1</ele>
        <time>2015-03-22T09:38:11Z</time>
      </trkpt>
      <trkpt lat="40.2412790" lon="-8.4520660">
        <ele>12.3</ele>
        <time>2015-03-22T09:38:32Z</time>
      </trkpt>
      <trkpt lat="40.2421670" lon="-8.4520800">
        <ele>12.8</ele>
        <time>2015-03-22T09:38:52Z</time>
      </trkpt>
      <trkpt lat="40.2428850" lon="-8.4520910">
        <ele>12.9</ele>
        <time>2015-03-22T09:39:08Z</time>
      </trkpt>
      <trkpt lat="40.2437080" lon="-8.4521090">
        <ele>12.5</ele>
        <time>2015-03-22T09:39:26Z</time>
      </trkpt>
      <trkpt lat="40.2446430" lon="-8.4521350">
        <ele>12.4</ele>
        <time>2015-03-22T09:39:47Z</time>
      </trkpt>
      <trkpt lat="40.2454460" lon="-8.4521930">
        <ele>12.7</ele>
        <time>2015-03-22T09:40:05Z</time>
      </trkpt>
      <trkpt lat="40.2462440" lon="-8.4522470">
        <ele>12.9</ele>
        <time>2015-03-22T09:40:23Z</time>
      </trkpt>
      <trkpt lat="40.2471340" lon="-8.4520940">
        <ele>13.0</ele>
        <time>2015-03-22T09:40:44Z</time>
      </trkpt>
      <trkpt lat="40.2474430" lon="-8.4520310">
        <ele>11.6</ele>
        <time>2015-03-22T09:40:52Z</time>
      </trkpt>
      <trkpt lat="40.2481660" lon="-8.4520010">
        <ele>10.8</ele>
        <time>2015-03-22T09:41:09Z</time>
      </trkpt>
      <trkpt lat="40.2484370" lon="-8.4521910">
        <ele>10.8</ele>
        <time>2015-03-22T09:41:16Z</time>
      </trkpt>
      <trkpt lat="40.2487580" lon="-8.4529170">
        <ele>10.7</ele>
        <time>2015-03-22T09:41:31Z</time>
      </trkpt>
      <trkpt lat="40.2489710" lon="-8.4538150">
        <ele>10.7</ele>
        <time>2015-03-22T09:41:48Z</time>
      </trkpt>
      <trkpt lat="40.2491200" lon="-8.4542320">
        <ele>10.8</ele>
        <time>2015-03-22T09:41:57Z</time>
      </trkpt>
      <trkpt lat="40.2492550" lon="-8.4542250">
        <ele>11.2</ele>
        <time>2015-03-22T09:42:01Z</time>
      </trkpt>
      <trkpt lat="40.2499000" lon="-8.4540290">
        <ele>13.3</ele>
        <time>2015-03-22T09:42:17Z</time>
      </trkpt>
      <trkpt lat="40.2505360" lon="-8.4537120">
        <ele>14.9</ele>
        <time>2015-03-22T09:42:35Z</time>
      </trkpt>
      <trkpt lat="40.2508310" lon="-8.4533350">
        <ele>15.3</ele>
        <time>2015-03-22T09:42:49Z</time>
      </trkpt>
      <trkpt lat="40.2508550" lon="-8.4532500">
        <ele>15.5</ele>
        <time>2015-03-22T09:43:00Z</time>
      </trkpt>
      <trkpt lat="40.2509510" lon="-8.4529080">
        <ele>16.1</ele>
        <time>2015-03-22T09:43:11Z</time>
      </trkpt>
      <trkpt lat="40.2510150" lon="-8.4527300">
        <ele>16.4</ele>
        <time>2015-03-22T09:43:17Z</time>
      </trkpt>
      <trkpt lat="40.2512030" lon="-8.4528310">
        <ele>15.7</ele>
        <time>2015-03-22T09:43:24Z</time>
      </trkpt>
      <trkpt lat="40.2514130" lon="-8.4525840">
        <ele>15.9</ele>
        <time>2015-03-22T09:43:34Z</time>
      </trkpt>
      <trkpt lat="40.2516980" lon="-8.4522020">
        <ele>16.5</ele>
        <time>2015-03-22T09:43:46Z</time>
      </trkpt>
      <trkpt lat="40.2518960" lon="-8.4520750">
        <ele>17.0</ele>
        <time>2015-03-22T09:43:51Z</time>
      </trkpt>
      <trkpt lat="40.2520130" lon="-8.4519800">
        <ele>17.3</ele>
        <time>2015-03-22T09:43:54Z</time>
      </trkpt>
      <trkpt lat="40.2520780" lon="-8.4519270">
        <ele>17.4</ele>
        <time>2015-03-22T09:43:56Z</time>
      </trkpt>
      <trkpt lat="40.2526500" lon="-8.4514670">
        <ele>15.9</ele>
        <time>2015-03-22T09:44:12Z</time>
      </trkpt>
      <trkpt lat="40.2531340" lon="-8.4508530">
        <ele>15.2</ele>
        <time>2015-03-22T09:44:30Z</time>
      </trkpt>
      <trkpt lat="40.2534640" lon="-8.4509140">
        <ele>14.0</ele>
        <time>2015-03-22T09:44:39Z</time>
      </trkpt>
      <trkpt lat="40.2542500" lon="-8.4512390">
        <ele>12.5</ele>
        <time>2015-03-22T09:44:59Z</time>
      </trkpt>
      <trkpt lat="40.2548500" lon="-8.4515390">
        <ele>12.2</ele>
        <time>2015-03-22T09:45:14Z</time>
      </trkpt>
      <trkpt lat="40.2555790" lon="-8.4519280">
        <ele>12.7</ele>
        <time>2015-03-22T09:45:33Z</time>
      </trkpt>
      <trkpt lat="40.2561550" lon="-8.4520220">
        <ele>13.4</ele>
        <time>2015-03-22T09:45:48Z</time>
      </trkpt>
      <trkpt lat="40.2566290" lon="-8.4520180">
        <ele>13.1</ele>
        <time>2015-03-22T09:45:59Z</time>
      </trkpt>
      <trkpt lat="40.2573890" lon="-8.4520230">
        <ele>12.8</ele>
        <time>2015-03-22T09:46:18Z</time>
      </trkpt>
      <trkpt lat="40.2579230" lon="-8.4518630">
        <ele>12.8</ele>
        <time>2015-03-22T09:46:33Z</time>
      </trkpt>
      <trkpt lat="40.2584220" lon="-8.4514420">
        <ele>12.9</ele>
        <time>2015-03-22T09:46:48Z</time>
      </trkpt>
      <trkpt lat="40.2587720" lon="-8.4508010">
        <ele>13.0</ele>
        <time>2015-03-22T09:47:04Z</time>
      </trkpt>
      <trkpt lat="40.2590550" lon="-8.4500420">
        <ele>13.3</ele>
        <time>2015-03-22T09:47:21Z</time>
      </trkpt>
      <trkpt lat="40.2594130" lon="-8.4494000">
        <ele>13.8</ele>
        <time>2015-03-22T09:47:37Z</time>
      </trkpt>
      <trkpt lat="40.2600480" lon="-8.4491140">
        <ele>14.3</ele>
        <time>2015-03-22T09:47:54Z</time>
      </trkpt>
      <trkpt lat="40.2606090" lon="-8.4485640">
        <ele>14.7</ele>
        <time>2015-03-22T09:48:13Z</time>
      </trkpt>
      <trkpt lat="40.2608800" lon="-8.4479010">
        <ele>15.1</ele>
        <time>2015-03-22T09:48:29Z</time>
      </trkpt>
      <trkpt lat="40.2611190" lon="-8.4472190">
        <ele>15.3</ele>
        <time>2015-03-22T09:48:44Z</time>
      </trkpt>
      <trkpt lat="40.2614760" lon="-8.4463910">
        <ele>15.3</ele>
        <time>2015-03-22T09:49:03Z</time>
      </trkpt>
      <trkpt lat="40.2619970" lon="-8.4460340">
        <ele>15.4</ele>
        <time>2015-03-22T09:49:18Z</time>
      </trkpt>
      <trkpt lat="40.2626790" lon="-8.4457790">
        <ele>15.4</ele>
        <time>2015-03-22T09:49:36Z</time>
      </trkpt>
      <trkpt lat="40.2633260" lon="-8.4454590">
        <ele>15.4</ele>
        <time>2015-03-22T09:49:54Z</time>
      </trkpt>
      <trkpt lat="40.2638820" lon="-8.4452580">
        <ele>15.8</ele>
        <time>2015-03-22T09:50:09Z</time>
      </trkpt>
      <trkpt lat="40.2645490" lon="-8.4449670">
        <ele>16.1</ele>
        <time>2015-03-22T09:50:27Z</time>
      </trkpt>
      <trkpt lat="40.2651390" lon="-8.4447250">
        <ele>16.2</ele>
        <time>2015-03-22T09:50:43Z</time>
      </trkpt>
      <trkpt lat="40.2656270" lon="-8.4445820">
        <ele>16.7</ele>
        <time>2015-03-22T09:50:56Z</time>
      </trkpt>
      <trkpt lat="40.2660710" lon="-8.4444870">
        <ele>17.1</ele>
        <time>2015-03-22T09:51:08Z</time>
      </trkpt>
      <trkpt lat="40.2665520" lon="-8.4447070">
        <ele>18.7</ele>
        <time>2015-03-22T09:51:23Z</time>
      </trkpt>
      <trkpt lat="40.2670460" lon="-8.4449390">
        <ele>19.7</ele>
        <time>2015-03-22T09:51:39Z</time>
      </trkpt>
      <trkpt lat="40.2673000" lon="-8.4447670">
        <ele>19.6</ele>
        <time>2015-03-22T09:51:50Z</time>
      </trkpt>
      <trkpt lat="40.2672270" lon="-8.4443010">
        <ele>19.0</ele>
        <time>2015-03-22T09:52:02Z</time>
      </trkpt>
      <trkpt lat="40.2674720" lon="-8.4441710">
        <ele>19.3</ele>
        <time>2015-03-22T09:52:11Z</time>
      </trkpt>
      <trkpt lat="40.2678040" lon="-8.4443890">
        <ele>19.9</ele>
        <time>2015-03-22T09:52:23Z</time>
      </trkpt>
      <trkpt lat="40.2682310" lon="-8.4444870">
        <ele>20.6</ele>
        <time>2015-03-22T09:52:38Z</time>
      </trkpt>
      <trkpt lat="40.2683190" lon="-8.4444930">
        <ele>20.7</ele>
        <time>2015-03-22T09:52:42Z</time>
      </trkpt>
      <trkpt lat="40.2683460" lon="-8.4445750">
        <ele>20.9</ele>
        <time>2015-03-22T09:52:46Z</time>
      </trkpt>
      <trkpt lat="40.2685250" lon="-8.4448730">
        <ele>22.0</ele>
        <time>2015-03-22T09:52:58Z</time>
      </trkpt>
      <trkpt lat="40.2689960" lon="-8.4451710">
        <ele>23.9</ele>
        <time>2015-03-22T09:53:18Z</time>
      </trkpt>
      <trkpt lat="40.2693780" lon="-8.4453930">
        <ele>25.6</ele>
        <time>2015-03-22T09:53:36Z</time>
      </trkpt>
      <trkpt lat="40.2697330" lon="-8.4455760">
        <ele>27.7</ele>
        <time>2015-03-22T09:53:54Z</time>
      </trkpt>
      <trkpt lat="40.2700960" lon="-8.4458740">
        <ele>30.7</ele>
        <time>2015-03-22T09:54:15Z</time>
      </trkpt>
      <trkpt lat="40.2702950" lon="-8.4460450">
        <ele>33.1</ele>
        <time>2015-03-22T09:54:28Z</time>
      </trkpt>
      <trkpt lat="40.2704710" lon="-8.4464870">
        <ele>36.6</ele>
        <time>2015-03-22T09:54:47Z</time>
      </trkpt>
      <trkpt lat="40.2705570" lon="-8.4469170">
        <ele>39.4</ele>
        <time>2015-03-22T09:55:05Z</time>
      </trkpt>
      <trkpt lat="40.2705640" lon="-8.4473990">
        <ele>42.9</ele>
        <time>2015-03-22T09:55:25Z</time>
      </trkpt>
      <trkpt lat="40.2705670" lon="-8.4478650">
        <ele>45.4</ele>
        <time>2015-03-22T09:55:44Z</time>
      </trkpt>
      <trkpt lat="40.2705700" lon="-8.4483580">
        <ele>47.9</ele>
        <time>2015-03-22T09:56:04Z</time>
      </trkpt>
      <trkpt lat="40.2706530" lon="-8.4487910">
        <ele>50.0</ele>
        <time>2015-03-22T09:56:22Z</time>
      </trkpt>
      <trkpt lat="40.2708950" lon="-8.4490710">
        <ele>52.5</ele>
        <time>2015-03-22T09:56:40Z</time>
      </trkpt>
      <trkpt lat="40.2710100" lon="-8.4491260">
        <ele>53.4</ele>
        <time>2015-03-22T09:57:24Z</time>
      </trkpt>
      <trkpt lat="40.2712390" lon="-8.4491920">
        <ele>55.1</ele>
        <time>2015-03-22T09:57:40Z</time>
      </trkpt>
      <trkpt lat="40.2715730" lon="-8.4493430">
        <ele>57.5</ele>
        <time>2015-03-22T09:57:56Z</time>
      </trkpt>
      <trkpt lat="40.2718760" lon="-8.4494610">
        <ele>59.8</ele>
        <time>2015-03-22T09:58:13Z</time>
      </trkpt>
      <trkpt lat="40.2721790" lon="-8.4496110">
        <ele>62.2</ele>
        <time>2015-03-22T09:58:31Z</time>
      </trkpt>
      <trkpt lat="40.2724400" lon="-8.4498490">
        <ele>64.4</ele>
        <time>2015-03-22T09:58:49Z</time>
      </trkpt>
      <trkpt lat="40.2727040" lon="-8.4501880">
        <ele>67.3</ele>
        <time>2015-03-22T09:59:10Z</time>
      </trkpt>
      <trkpt lat="40.2728810" lon="-8.4505000">
        <ele>69.8</ele>
        <time>2015-03-22T09:59:27Z</time>
      </trkpt>
      <trkpt lat="40.2730610" lon="-8.4508590">
        <ele>72.5</ele>
        <time>2015-03-22T09:59:46Z</time>
      </trkpt>
      <trkpt lat="40.2732550" lon="-8.4512280">
        <ele>75.7</ele>
        <time>2015-03-22T10:00:06Z</time>
      </trkpt>
      <trkpt lat="40.2734440" lon="-8.4515850">
        <ele>78.6</ele>
        <time>2015-03-22T10:00:25Z</time>
      </trkpt>
      <trkpt lat="40.2736300" lon="-8.4519210">
        <ele>81.3</ele>
        <time>2015-03-22T10:00:44Z</time>
      </trkpt>
      <trkpt lat="40.2738570" lon="-8.4522350">
        <ele>84.2</ele>
        <time>2015-03-22T10:01:03Z</time>
      </trkpt>
      <trkpt lat="40.2739390" lon="-8.4523170">
        <ele>84.6</ele>
        <time>2015-03-22T10:01:09Z</time>
      </trkpt>
      <trkpt lat="40.2739840" lon="-8.4523210">
        <ele>84.8</ele>
        <time>2015-03-22T10:01:42Z</time>
      </trkpt>
      <trkpt lat="40.2740110" lon="-8.4523690">
        <ele>85.0</ele>
        <time>2015-03-22T10:01:46Z</time>
      </trkpt>
      <trkpt lat="40.2741810" lon="-8.4525990">
        <ele>86.5</ele>
        <time>2015-03-22T10:02:00Z</time>
      </trkpt>
      <trkpt lat="40.2744140" lon="-8.4528130">
        <ele>87.4</ele>
        <time>2015-03-22T10:02:15Z</time>
      </trkpt>
      <trkpt lat="40.2746680" lon="-8.4530970">
        <ele>88.4</ele>
        <time>2015-03-22T10:02:31Z</time>
      </trkpt>
      <trkpt lat="40.2748550" lon="-8.4534910">
        <ele>90.2</ele>
        <time>2015-03-22T10:02:47Z</time>
      </trkpt>
      <trkpt lat="40.2750540" lon="-8.4538750">
        <ele>92.5</ele>
        <time>2015-03-22T10:03:04Z</time>
      </trkpt>
      <trkpt lat="40.2753050" lon="-8.4541220">
        <ele>94.9</ele>
        <time>2015-03-22T10:03:19Z</time>
      </trkpt>
      <trkpt lat="40.2756040" lon="-8.4542690">
        <ele>95.9</ele>
        <time>2015-03-22T10:03:34Z</time>
      </trkpt>
      <trkpt lat="40.2759500" lon="-8.4543760">
        <ele>96.3</ele>
        <time>2015-03-22T10:03:51Z</time>
      </trkpt>
      <trkpt lat="40.2762940" lon="-8.4544510">
        <ele>96.9</ele>
        <time>2015-03-22T10:04:07Z</time>
      </trkpt>
      <trkpt lat="40.2766660" lon="-8.4544470">
        <ele>96.5</ele>
        <time>2015-03-22T10:04:22Z</time>
      </trkpt>
      <trkpt lat="40.2771380" lon="-8.4544260">
        <ele>95.7</ele>
        <time>2015-03-22T10:04:40Z</time>
      </trkpt>
      <trkpt lat="40.2776040" lon="-8.4543670">
        <ele>96.4</ele>
        <time>2015-03-22T10:04:58Z</time>
      </trkpt>
      <trkpt lat="40.2781360" lon="-8.4543100">
        <ele>99.4</ele>
        <time>2015-03-22T10:05:19Z</time>
      </trkpt>
      <trkpt lat="40.2786290" lon="-8.4542950">
        <ele>102.0</ele>
        <time>2015-03-22T10:05:39Z</time>
      </trkpt>
      <trkpt lat="40.2791610" lon="-8.4542350">
        <ele>101.8</ele>
        <time>2015-03-22T10:05:59Z</time>
      </trkpt>
      <trkpt lat="40.2794730" lon="-8.4541740">
        <ele>100.6</ele>
        <time>2015-03-22T10:06:08Z</time>
      </trkpt>
      <trkpt lat="40.2795380" lon="-8.4542330">
        <ele>100.3</ele>
        <time>2015-03-22T10:06:17Z</time>
      </trkpt>
      <trkpt lat="40.2796120" lon="-8.4541940">
        <ele>100.0</ele>
        <time>2015-03-22T10:06:44Z</time>
      </trkpt>
      <trkpt lat="40.2799730" lon="-8.4541100">
        <ele>98.3</ele>
        <time>2015-03-22T10:06:55Z</time>
      </trkpt>
      <trkpt lat="40.2803510" lon="-8.4540090">
        <ele>95.3</ele>
        <time>2015-03-22T10:07:03Z</time>
      </trkpt>
      <trkpt lat="40.2812680" lon="-8.4537920">
        <ele>93.5</ele>
        <time>2015-03-22T10:07:22Z</time>
      </trkpt>
      <trkpt lat="40.2814610" lon="-8.4536850">
        <ele>93.2</ele>
        <time>2015-03-22T10:07:27Z</time>
      </trkpt>
      <trkpt lat="40.2815820" lon="-8.4535270">
        <ele>92.9</ele>
        <time>2015-03-22T10:07:31Z</time>
      </trkpt>
      <trkpt lat="40.2817470" lon="-8.4530250">
        <ele>92.5</ele>
        <time>2015-03-22T10:07:40Z</time>
      </trkpt>
      <trkpt lat="40.2819480" lon="-8.4523890">
        <ele>92.3</ele>
        <time>2015-03-22T10:07:56Z</time>
      </trkpt>
      <trkpt lat="40.2823480" lon="-8.4519340">
        <ele>91.4</ele>
        <time>2015-03-22T10:08:12Z</time>
      </trkpt>
      <trkpt lat="40.2830080" lon="-8.4517870">
        <ele>89.9</ele>
        <time>2015-03-22T10:08:26Z</time>
      </trkpt>
      <trkpt lat="40.2836030" lon="-8.4516180">
        <ele>89.0</ele>
        <time>2015-03-22T10:08:42Z</time>
      </trkpt>
      <trkpt lat="40.2840490" lon="-8.4514470">
        <ele>89.5</ele>
        <time>2015-03-22T10:08:55Z</time>
      </trkpt>
      <trkpt lat="40.2847480" lon="-8.4511960">
        <ele>90.9</ele>
        <time>2015-03-22T10:09:14Z</time>
      </trkpt>
      <trkpt lat="40.2853730" lon="-8.4509720">
        <ele>93.6</ele>
        <time>2015-03-22T10:09:32Z</time>
      </trkpt>
      <trkpt lat="40.2859760" lon="-8.4505340">
        <ele>94.8</ele>
        <time>2015-03-22T10:09:51Z</time>
      </trkpt>
      <trkpt lat="40.2865600" lon="-8.4500360">
        <ele>95.7</ele>
        <time>2015-03-22T10:10:09Z</time>
      </trkpt>
      <trkpt lat="40.2866350" lon="-8.4499850">
        <ele>95.7</ele>
        <time>2015-03-22T10:10:11Z</time>
      </trkpt>
      <trkpt lat="40.2867090" lon="-8.4499270">
        <ele>95.6</ele>
        <time>2015-03-22T10:10:13Z</time>
      </trkpt>
      <trkpt lat="40.2873460" lon="-8.4494800">
        <ele>94.5</ele>
        <time>2015-03-22T10:10:30Z</time>
      </trkpt>
      <trkpt lat="40.2879970" lon="-8.4489350">
        <ele>93.9</ele>
        <time>2015-03-22T10:10:48Z</time>
      </trkpt>
      <trkpt lat="40.2881260" lon="-8.4487990">
        <ele>93.9</ele>
        <time>2015-03-22T10:10:52Z</time>
      </trkpt>
      <trkpt lat="40.2882850" lon="-8.4486350">
        <ele>93.9</ele>
        <time>2015-03-22T10:10:57Z</time>
      </trkpt>
      <trkpt lat="40.2886590" lon="-8.4482550">
        <ele>94.0</ele>
        <time>2015-03-22T10:11:09Z</time>
      </trkpt>
      <trkpt lat="40.2892060" lon="-8.4476860">
        <ele>93.8</ele>
        <time>2015-03-22T10:11:25Z</time>
      </trkpt>
      <trkpt lat="40.2893370" lon="-8.4475460">
        <ele>93.9</ele>
        <time>2015-03-22T10:11:29Z</time>
      </trkpt>
      <trkpt lat="40.2895590" lon="-8.4473890">
        <ele>94.4</ele>
        <time>2015-03-22T10:11:35Z</time>
      </trkpt>
      <trkpt lat="40.2899900" lon="-8.4473530">
        <ele>94.9</ele>
        <time>2015-03-22T10:11:46Z</time>
      </trkpt>
      <trkpt lat="40.2905050" lon="-8.4474330">
        <ele>96.5</ele>
        <time>2015-03-22T10:12:02Z</time>
      </trkpt>
      <trkpt lat="40.2909370" lon="-8.4475020">
        <ele>98.1</ele>
        <time>2015-03-22T10:12:19Z</time>
      </trkpt>
      <trkpt lat="40.2913380" lon="-8.4475320">
        <ele>99.3</ele>
        <time>2015-03-22T10:12:35Z</time>
      </trkpt>
      <trkpt lat="40.2918410" lon="-8.4475150">
        <ele>98.1</ele>
        <time>2015-03-22T10:12:50Z</time>
      </trkpt>
      <trkpt lat="40.2920790" lon="-8.4474700">
        <ele>96.9</ele>
        <time>2015-03-22T10:12:55Z</time>
      </trkpt>
      <trkpt lat="40.2930990" lon="-8.4473030">
        <ele>92.3</ele>
        <time>2015-03-22T10:13:15Z</time>
      </trkpt>
      <trkpt lat="40.2937670" lon="-8.4471690">
        <ele>93.0</ele>
        <time>2015-03-22T10:13:31Z</time>
      </trkpt>
      <trkpt lat="40.2945480" lon="-8.4470410">
        <ele>95.5</ele>
        <time>2015-03-22T10:13:53Z</time>
      </trkpt>
      <trkpt lat="40.2950670" lon="-8.4469340">
        <ele>99.4</ele>
        <time>2015-03-22T10:14:13Z</time>
      </trkpt>
      <trkpt lat="40.2954580" lon="-8.4468720">
        <ele>102.8</ele>
        <time>2015-03-22T10:14:30Z</time>
      </trkpt>
      <trkpt lat="40.2958960" lon="-8.4467900">
        <ele>105.8</ele>
        <time>2015-03-22T10:14:51Z</time>
      </trkpt>
      <trkpt lat="40.2963120" lon="-8.4466970">
        <ele>109.0</ele>
        <time>2015-03-22T10:15:11Z</time>
      </trkpt>
      <trkpt lat="40.2965970" lon="-8.4466380">
        <ele>111.7</ele>
        <time>2015-03-22T10:15:25Z</time>
      </trkpt>
      <trkpt lat="40.2969850" lon="-8.4465580">
        <ele>114.7</ele>
        <time>2015-03-22T10:15:44Z</time>
      </trkpt>
      <trkpt lat="40.2973730" lon="-8.4464740">
        <ele>116.3</ele>
        <time>2015-03-22T10:16:03Z</time>
      </trkpt>
      <trkpt lat="40.2977450" lon="-8.4464030">
        <ele>116.8</ele>
        <time>2015-03-22T10:16:21Z</time>
      </trkpt>
      <trkpt lat="40.2981410" lon="-8.4463950">
        <ele>117.3</ele>
        <time>2015-03-22T10:16:40Z</time>
      </trkpt>
      <trkpt lat="40.2984530" lon="-8.4464090">
        <ele>117.8</ele>
        <time>2015-03-22T10:16:54Z</time>
      </trkpt>
      <trkpt lat="40.2988580" lon="-8.4464810">
        <ele>118.6</ele>
        <time>2015-03-22T10:17:13Z</time>
      </trkpt>
      <trkpt lat="40.2992920" lon="-8.4465800">
        <ele>120.2</ele>
        <time>2015-03-22T10:17:33Z</time>
      </trkpt>
      <trkpt lat="40.2996420" lon="-8.4466450">
        <ele>122.5</ele>
        <time>2015-03-22T10:17:50Z</time>
      </trkpt>
      <trkpt lat="40.3000520" lon="-8.4467570">
        <ele>124.1</ele>
        <time>2015-03-22T10:18:09Z</time>
      </trkpt>
      <trkpt lat="40.3004010" lon="-8.4468420">
        <ele>125.8</ele>
        <time>2015-03-22T10:18:26Z</time>
      </trkpt>
      <trkpt lat="40.3007930" lon="-8.4469450">
        <ele>126.9</ele>
        <time>2015-03-22T10:18:44Z</time>
      </trkpt>
      <trkpt lat="40.3012160" lon="-8.4470430">
        <ele>127.7</ele>
        <time>2015-03-22T10:19:04Z</time>
      </trkpt>
      <trkpt lat="40.3016290" lon="-8.4471410">
        <ele>131.6</ele>
        <time>2015-03-22T10:19:23Z</time>
      </trkpt>
      <trkpt lat="40.3019820" lon="-8.4472330">
        <ele>133.0</ele>
        <time>2015-03-22T10:19:40Z</time>
      </trkpt>
      <trkpt lat="40.3023740" lon="-8.4473770">
        <ele>134.8</ele>
        <time>2015-03-22T10:19:59Z</time>
      </trkpt>
      <trkpt lat="40.3026600" lon="-8.4475020">
        <ele>136.0</ele>
        <time>2015-03-22T10:20:14Z</time>
      </trkpt>
      <trkpt lat="40.3030230" lon="-8.4476620">
        <ele>137.6</ele>
        <time>2015-03-22T10:20:32Z</time>
      </trkpt>
      <trkpt lat="40.3033940" lon="-8.4478380">
        <ele>139.3</ele>
        <time>2015-03-22T10:20:50Z</time>
      </trkpt>
      <trkpt lat="40.3037330" lon="-8.4479830">
        <ele>140.7</ele>
        <time>2015-03-22T10:21:07Z</time>
      </trkpt>
      <trkpt lat="40.3040420" lon="-8.4481110">
        <ele>141.9</ele>
        <time>2015-03-22T10:21:22Z</time>
      </trkpt>
      <trkpt lat="40.3044380" lon="-8.4482450">
        <ele>142.7</ele>
        <time>2015-03-22T10:21:40Z</time>
      </trkpt>
      <trkpt lat="40.3048580" lon="-8.4483500">
        <ele>143.0</ele>
        <time>2015-03-22T10:21:57Z</time>
      </trkpt>
      <trkpt lat="40.3051170" lon="-8.4484150">
        <ele>143.1</ele>
        <time>2015-03-22T10:22:09Z</time>
      </trkpt>
      <trkpt lat="40.3054140" lon="-8.4485470">
        <ele>143.2</ele>
        <time>2015-03-22T10:23:43Z</time>
      </trkpt>
      <trkpt lat="40.3054700" lon="-8.4486430">
        <ele>143.4</ele>
        <time>2015-03-22T10:33:59Z</time>
      </trkpt>
      <trkpt lat="40.3056040" lon="-8.4488470">
        <ele>143.5</ele>
        <time>2015-03-22T10:34:21Z</time>
      </trkpt>
      <trkpt lat="40.3058440" lon="-8.4491660">
        <ele>143.9</ele>
        <time>2015-03-22T10:34:34Z</time>
      </trkpt>
      <trkpt lat="40.3060740" lon="-8.4495710">
        <ele>144.0</ele>
        <time>2015-03-22T10:34:48Z</time>
      </trkpt>
      <trkpt lat="40.3063330" lon="-8.4500320">
        <ele>143.8</ele>
        <time>2015-03-22T10:35:00Z</time>
      </trkpt>
      <trkpt lat="40.3063820" lon="-8.4501790">
        <ele>143.6</ele>
        <time>2015-03-22T10:35:03Z</time>
      </trkpt>
      <trkpt lat="40.3064330" lon="-8.4504500">
        <ele>142.7</ele>
        <time>2015-03-22T10:35:08Z</time>
      </trkpt>
      <trkpt lat="40.3065400" lon="-8.4506620">
        <ele>142.1</ele>
        <time>2015-03-22T10:35:13Z</time>
      </trkpt>
      <trkpt lat="40.3071550" lon="-8.4512520">
        <ele>140.2</ele>
        <time>2015-03-22T10:35:32Z</time>
      </trkpt>
      <trkpt lat="40.3078080" lon="-8.4519140">
        <ele>141.0</ele>
        <time>2015-03-22T10:35:51Z</time>
      </trkpt>
      <trkpt lat="40.3079500" lon="-8.4520400">
        <ele>141.0</ele>
        <time>2015-03-22T10:35:55Z</time>
      </trkpt>
      <trkpt lat="40.3084120" lon="-8.4526740">
        <ele>141.8</ele>
        <time>2015-03-22T10:36:12Z</time>
      </trkpt>
      <trkpt lat="40.3087250" lon="-8.4531990">
        <ele>141.8</ele>
        <time>2015-03-22T10:36:26Z</time>
      </trkpt>
      <trkpt lat="40.3089240" lon="-8.4537190">
        <ele>142.6</ele>
        <time>2015-03-22T10:36:40Z</time>
      </trkpt>
      <trkpt lat="40.3091550" lon="-8.4541490">
        <ele>143.3</ele>
        <time>2015-03-22T10:36:52Z</time>
      </trkpt>
      <trkpt lat="40.3093860" lon="-8.4545930">
        <ele>144.1</ele>
        <time>2015-03-22T10:37:04Z</time>
      </trkpt>
      <trkpt lat="40.3096440" lon="-8.4549580">
        <ele>144.5</ele>
        <time>2015-03-22T10:37:16Z</time>
      </trkpt>
      <trkpt lat="40.3099690" lon="-8.4551780">
        <ele>145.1</ele>
        <time>2015-03-22T10:37:28Z</time>
      </trkpt>
      <trkpt lat="40.3100540" lon="-8.4552490">
        <ele>145.3</ele>
        <time>2015-03-22T10:37:32Z</time>
      </trkpt>
      <trkpt lat="40.3102940" lon="-8.4555360">
        <ele>145.7</ele>
        <time>2015-03-22T10:37:44Z</time>
      </trkpt>
      <trkpt lat="40.3105800" lon="-8.4558980">
        <ele>144.9</ele>
        <time>2015-03-22T10:37:58Z</time>
      </trkpt>
      <trkpt lat="40.3108800" lon="-8.4563320">
        <ele>143.8</ele>
        <time>2015-03-22T10:38:13Z</time>
      </trkpt>
      <trkpt lat="40.3111990" lon="-8.4567420">
        <ele>143.2</ele>
        <time>2015-03-22T10:38:27Z</time>
      </trkpt>
      <trkpt lat="40.3114080" lon="-8.4570120">
        <ele>143.5</ele>
        <time>2015-03-22T10:38:38Z</time>
      </trkpt>
      <trkpt lat="40.3116140" lon="-8.4573030">
        <ele>144.2</ele>
        <time>2015-03-22T10:38:50Z</time>
      </trkpt>
      <trkpt lat="40.3118170" lon="-8.4576040">
        <ele>144.5</ele>
        <time>2015-03-22T10:39:02Z</time>
      </trkpt>
      <trkpt lat="40.3120410" lon="-8.4578260">
        <ele>144.5</ele>
        <time>2015-03-22T10:39:14Z</time>
      </trkpt>
      <trkpt lat="40.3122730" lon="-8.4580530">
        <ele>144.6</ele>
        <time>2015-03-22T10:39:27Z</time>
      </trkpt>
      <trkpt lat="40.3124790" lon="-8.4582650">
        <ele>144.7</ele>
        <time>2015-03-22T10:39:39Z</time>
      </trkpt>
      <trkpt lat="40.3126150" lon="-8.4584860">
        <ele>145.0</ele>
        <time>2015-03-22T10:39:51Z</time>
      </trkpt>
      <trkpt lat="40.3126960" lon="-8.4585910">
        <ele>145.2</ele>
        <time>2015-03-22T10:39:57Z</time>
      </trkpt>
      <trkpt lat="40.3127740" lon="-8.4586660">
        <ele>145.4</ele>
        <time>2015-03-22T10:40:02Z</time>
      </trkpt>
      <trkpt lat="40.3128820" lon="-8.4587610">
        <ele>145.6</ele>
        <time>2015-03-22T10:40:08Z</time>
      </trkpt>
      <trkpt lat="40.3131390" lon="-8.4590120">
        <ele>146.0</ele>
        <time>2015-03-22T10:40:19Z</time>
      </trkpt>
      <trkpt lat="40.3134710" lon="-8.4594290">
        <ele>145.5</ele>
        <time>2015-03-22T10:40:32Z</time>
      </trkpt>
      <trkpt lat="40.3138590" lon="-8.4598790">
        <ele>145.2</ele>
        <time>2015-03-22T10:40:47Z</time>
      </trkpt>
      <trkpt lat="40.3141980" lon="-8.4602350">
        <ele>144.4</ele>
        <time>2015-03-22T10:40:58Z</time>
      </trkpt>
      <trkpt lat="40.3144960" lon="-8.4606620">
        <ele>143.5</ele>
        <time>2015-03-22T10:41:10Z</time>
      </trkpt>
      <trkpt lat="40.3148080" lon="-8.4609260">
        <ele>142.8</ele>
        <time>2015-03-22T10:41:21Z</time>
      </trkpt>
      <trkpt lat="40.3151000" lon="-8.4612950">
        <ele>142.3</ele>
        <time>2015-03-22T10:41:32Z</time>
      </trkpt>
      <trkpt lat="40.3155050" lon="-8.4616410">
        <ele>141.8</ele>
        <time>2015-03-22T10:41:45Z</time>
      </trkpt>
      <trkpt lat="40.3156450" lon="-8.4616110">
        <ele>141.4</ele>
        <time>2015-03-22T10:41:49Z</time>
      </trkpt>
      <trkpt lat="40.3157700" lon="-8.4616120">
        <ele>140.9</ele>
        <time>2015-03-22T10:41:53Z</time>
      </trkpt>
      <trkpt lat="40.3160230" lon="-8.4616890">
        <ele>138.0</ele>
        <time>2015-03-22T10:42:01Z</time>
      </trkpt>
      <trkpt lat="40.3161700" lon="-8.4618480">
        <ele>135.4</ele>
        <time>2015-03-22T10:42:07Z</time>
      </trkpt>
      <trkpt lat="40.3162750" lon="-8.4619820">
        <ele>133.6</ele>
        <time>2015-03-22T10:42:11Z</time>
      </trkpt>
      <trkpt lat="40.3163900" lon="-8.4620810">
        <ele>132.2</ele>
        <time>2015-03-22T10:42:14Z</time>
      </trkpt>
      <trkpt lat="40.3167570" lon="-8.4626080">
        <ele>129.8</ele>
        <time>2015-03-22T10:42:27Z</time>
      </trkpt>
      <trkpt lat="40.3170870" lon="-8.4629510">
        <ele>128.8</ele>
        <time>2015-03-22T10:42:40Z</time>
      </trkpt>
      <trkpt lat="40.3174490" lon="-8.4633940">
        <ele>127.5</ele>
        <time>2015-03-22T10:42:53Z</time>
      </trkpt>
      <trkpt lat="40.3177470" lon="-8.4635250">
        <ele>126.3</ele>
        <time>2015-03-22T10:43:03Z</time>
      </trkpt>
      <trkpt lat="40.3179870" lon="-8.4636880">
        <ele>126.0</ele>
        <time>2015-03-22T10:43:12Z</time>
      </trkpt>
      <trkpt lat="40.3180880" lon="-8.4638300">
        <ele>125.8</ele>
        <time>2015-03-22T10:43:16Z</time>
      </trkpt>
      <trkpt lat="40.3181380" lon="-8.4639220">
        <ele>125.6</ele>
        <time>2015-03-22T10:43:18Z</time>
      </trkpt>
      <trkpt lat="40.3182750" lon="-8.4640820">
        <ele>125.1</ele>
        <time>2015-03-22T10:43:22Z</time>
      </trkpt>
      <trkpt lat="40.3184210" lon="-8.4642470">
        <ele>124.0</ele>
        <time>2015-03-22T10:43:26Z</time>
      </trkpt>
      <trkpt lat="40.3184830" lon="-8.4643590">
        <ele>123.3</ele>
        <time>2015-03-22T10:43:28Z</time>
      </trkpt>
      <trkpt lat="40.3188100" lon="-8.4646370">
        <ele>121.2</ele>
        <time>2015-03-22T10:43:39Z</time>
      </trkpt>
      <trkpt lat="40.3190500" lon="-8.4647920">
        <ele>120.7</ele>
        <time>2015-03-22T10:43:46Z</time>
      </trkpt>
      <trkpt lat="40.3191810" lon="-8.4648430">
        <ele>120.3</ele>
        <time>2015-03-22T10:43:49Z</time>
      </trkpt>
      <trkpt lat="40.3193440" lon="-8.4649390">
        <ele>119.7</ele>
        <time>2015-03-22T10:43:53Z</time>
      </trkpt>
      <trkpt lat="40.3198170" lon="-8.4655290">
        <ele>118.6</ele>
        <time>2015-03-22T10:44:10Z</time>
      </trkpt>
      <trkpt lat="40.3200620" lon="-8.4659470">
        <ele>117.5</ele>
        <time>2015-03-22T10:44:23Z</time>
      </trkpt>
      <trkpt lat="40.3203840" lon="-8.4664480">
        <ele>116.3</ele>
        <time>2015-03-22T10:44:36Z</time>
      </trkpt>
      <trkpt lat="40.3205440" lon="-8.4667240">
        <ele>116.0</ele>
        <time>2015-03-22T10:44:42Z</time>
      </trkpt>
      <trkpt lat="40.3206230" lon="-8.4668750">
        <ele>115.4</ele>
        <time>2015-03-22T10:44:45Z</time>
      </trkpt>
      <trkpt lat="40.3207850" lon="-8.4671800">
        <ele>114.5</ele>
        <time>2015-03-22T10:44:51Z</time>
      </trkpt>
      <trkpt lat="40.3208570" lon="-8.4673460">
        <ele>114.3</ele>
        <time>2015-03-22T10:44:54Z</time>
      </trkpt>
      <trkpt lat="40.3209790" lon="-8.4676320">
        <ele>113.3</ele>
        <time>2015-03-22T10:45:01Z</time>
      </trkpt>
      <trkpt lat="40.3211790" lon="-8.4679600">
        <ele>112.0</ele>
        <time>2015-03-22T10:45:08Z</time>
      </trkpt>
      <trkpt lat="40.3213900" lon="-8.4682780">
        <ele>110.4</ele>
        <time>2015-03-22T10:45:15Z</time>
      </trkpt>
      <trkpt lat="40.3214500" lon="-8.4683800">
        <ele>109.7</ele>
        <time>2015-03-22T10:45:17Z</time>
      </trkpt>
      <trkpt lat="40.3218120" lon="-8.4687470">
        <ele>105.7</ele>
        <time>2015-03-22T10:45:29Z</time>
      </trkpt>
      <trkpt lat="40.3220750" lon="-8.4687940">
        <ele>104.7</ele>
        <time>2015-03-22T10:45:41Z</time>
      </trkpt>
      <trkpt lat="40.3223790" lon="-8.4689290">
        <ele>103.3</ele>
        <time>2015-03-22T10:45:54Z</time>
      </trkpt>
      <trkpt lat="40.3226820" lon="-8.4691500">
        <ele>102.1</ele>
        <time>2015-03-22T10:46:04Z</time>
      </trkpt>
      <trkpt lat="40.3231850" lon="-8.4695390">
        <ele>99.5</ele>
        <time>2015-03-22T10:46:20Z</time>
      </trkpt>
      <trkpt lat="40.3234350" lon="-8.4699290">
        <ele>98.1</ele>
        <time>2015-03-22T10:46:32Z</time>
      </trkpt>
      <trkpt lat="40.3235990" lon="-8.4702100">
        <ele>97.9</ele>
        <time>2015-03-22T10:46:40Z</time>
      </trkpt>
      <trkpt lat="40.3237020" lon="-8.4701700">
        <ele>97.9</ele>
        <time>2015-03-22T10:46:45Z</time>
      </trkpt>
      <trkpt lat="40.3240500" lon="-8.4695960">
        <ele>98.4</ele>
        <time>2015-03-22T10:47:00Z</time>
      </trkpt>
      <trkpt lat="40.3244660" lon="-8.4688930">
        <ele>99.5</ele>
        <time>2015-03-22T10:47:17Z</time>
      </trkpt>
      <trkpt lat="40.3249550" lon="-8.4681220">
        <ele>98.2</ele>
        <time>2015-03-22T10:47:34Z</time>
      </trkpt>
      <trkpt lat="40.3253150" lon="-8.4676440">
        <ele>96.1</ele>
        <time>2015-03-22T10:47:42Z</time>
      </trkpt>
      <trkpt lat="40.3258080" lon="-8.4672270">
        <ele>94.3</ele>
        <time>2015-03-22T10:47:50Z</time>
      </trkpt>
      <trkpt lat="40.3264210" lon="-8.4670280">
        <ele>94.3</ele>
        <time>2015-03-22T10:48:02Z</time>
      </trkpt>
      <trkpt lat="40.3269940" lon="-8.4670920">
        <ele>95.2</ele>
        <time>2015-03-22T10:48:17Z</time>
      </trkpt>
      <trkpt lat="40.3275650" lon="-8.4671680">
        <ele>94.4</ele>
        <time>2015-03-22T10:48:32Z</time>
      </trkpt>
      <trkpt lat="40.3280770" lon="-8.4672340">
        <ele>93.5</ele>
        <time>2015-03-22T10:48:45Z</time>
      </trkpt>
      <trkpt lat="40.3287730" lon="-8.4672940">
        <ele>91.8</ele>
        <time>2015-03-22T10:49:01Z</time>
      </trkpt>
      <trkpt lat="40.3295580" lon="-8.4673100">
        <ele>91.4</ele>
        <time>2015-03-22T10:49:19Z</time>
      </trkpt>
      <trkpt lat="40.3297360" lon="-8.4673200">
        <ele>91.0</ele>
        <time>2015-03-22T10:49:23Z</time>
      </trkpt>
      <trkpt lat="40.3305660" lon="-8.4673550">
        <ele>88.5</ele>
        <time>2015-03-22T10:49:40Z</time>
      </trkpt>
      <trkpt lat="40.3312210" lon="-8.4672020">
        <ele>85.5</ele>
        <time>2015-03-22T10:49:50Z</time>
      </trkpt>
      <trkpt lat="40.3319280" lon="-8.4669200">
        <ele>84.0</ele>
        <time>2015-03-22T10:50:03Z</time>
      </trkpt>
      <trkpt lat="40.3325500" lon="-8.4666810">
        <ele>84.9</ele>
        <time>2015-03-22T10:50:20Z</time>
      </trkpt>
      <trkpt lat="40.3330860" lon="-8.4664420">
        <ele>87.2</ele>
        <time>2015-03-22T10:50:36Z</time>
      </trkpt>
      <trkpt lat="40.3336130" lon="-8.4661180">
        <ele>89.3</ele>
        <time>2015-03-22T10:50:53Z</time>
      </trkpt>
      <trkpt lat="40.3340410" lon="-8.4657760">
        <ele>91.1</ele>
        <time>2015-03-22T10:51:08Z</time>
      </trkpt>
      <trkpt lat="40.3344190" lon="-8.4652440">
        <ele>91.6</ele>
        <time>2015-03-22T10:51:21Z</time>
      </trkpt>
      <trkpt lat="40.3348130" lon="-8.4647990">
        <ele>90.7</ele>
        <time>2015-03-22T10:51:35Z</time>
      </trkpt>
      <trkpt lat="40.3350730" lon="-8.4647250">
        <ele>90.3</ele>
        <time>2015-03-22T10:51:45Z</time>
      </trkpt>
      <trkpt lat="40.3352900" lon="-8.4646820">
        <ele>90.3</ele>
        <time>2015-03-22T10:51:57Z</time>
      </trkpt>
      <trkpt lat="40.3355540" lon="-8.4645450">
        <ele>91.4</ele>
        <time>2015-03-22T10:52:13Z</time>
      </trkpt>
      <trkpt lat="40.3357160" lon="-8.4643930">
        <ele>92.2</ele>
        <time>2015-03-22T10:52:29Z</time>
      </trkpt>
      <trkpt lat="40.3360080" lon="-8.4642110">
        <ele>92.4</ele>
        <time>2015-03-22T10:53:10Z</time>
      </trkpt>
      <trkpt lat="40.3363260" lon="-8.4640850">
        <ele>91.8</ele>
        <time>2015-03-22T10:53:19Z</time>
      </trkpt>
      <trkpt lat="40.3366710" lon="-8.4636560">
        <ele>90.1</ele>
        <time>2015-03-22T10:53:32Z</time>
      </trkpt>
      <trkpt lat="40.3367860" lon="-8.4634640">
        <ele>88.7</ele>
        <time>2015-03-22T10:53:36Z</time>
      </trkpt>
      <trkpt lat="40.3369540" lon="-8.4631190">
        <ele>86.6</ele>
        <time>2015-03-22T10:53:41Z</time>
      </trkpt>
      <trkpt lat="40.3371300" lon="-8.4629030">
        <ele>85.0</ele>
        <time>2015-03-22T10:53:47Z</time>
      </trkpt>
      <trkpt lat="40.3375880" lon="-8.4628980">
        <ele>82.5</ele>
        <time>2015-03-22T10:53:55Z</time>
      </trkpt>
      <trkpt lat="40.3376640" lon="-8.4628900">
        <ele>82.2</ele>
        <time>2015-03-22T10:53:56Z</time>
      </trkpt>
      <trkpt lat="40.3380430" lon="-8.4627050">
        <ele>80.0</ele>
        <time>2015-03-22T10:54:01Z</time>
      </trkpt>
      <trkpt lat="40.3383270" lon="-8.4624640">
        <ele>78.4</ele>
        <time>2015-03-22T10:54:05Z</time>
      </trkpt>
      <trkpt lat="40.3388040" lon="-8.4620890">
        <ele>76.3</ele>
        <time>2015-03-22T10:54:11Z</time>
      </trkpt>
      <trkpt lat="40.3395510" lon="-8.4616180">
        <ele>75.3</ele>
        <time>2015-03-22T10:54:23Z</time>
      </trkpt>
      <trkpt lat="40.3397100" lon="-8.4615540">
        <ele>75.1</ele>
        <time>2015-03-22T10:54:28Z</time>
      </trkpt>
      <trkpt lat="40.3400140" lon="-8.4617380">
        <ele>74.1</ele>
        <time>2015-03-22T10:54:42Z</time>
      </trkpt>
      <trkpt lat="40.3404690" lon="-8.4621490">
        <ele>71.7</ele>
        <time>2015-03-22T10:54:59Z</time>
      </trkpt>
      <trkpt lat="40.3410190" lon="-8.4626450">
        <ele>68.6</ele>
        <time>2015-03-22T10:55:10Z</time>
      </trkpt>
      <trkpt lat="40.3415340" lon="-8.4631100">
        <ele>66.1</ele>
        <time>2015-03-22T10:55:18Z</time>
      </trkpt>
      <trkpt lat="40.3416690" lon="-8.4632220">
        <ele>66.0</ele>
        <time>2015-03-22T10:55:20Z</time>
      </trkpt>
      <trkpt lat="40.3419950" lon="-8.4633200">
        <ele>65.5</ele>
        <time>2015-03-22T10:55:24Z</time>
      </trkpt>
      <trkpt lat="40.3420840" lon="-8.4633090">
        <ele>65.3</ele>
        <time>2015-03-22T10:55:25Z</time>
      </trkpt>
      <trkpt lat="40.3428540" lon="-8.4631950">
        <ele>65.4</ele>
        <time>2015-03-22T10:55:37Z</time>
      </trkpt>
      <trkpt lat="40.3434450" lon="-8.4632750">
        <ele>66.8</ele>
        <time>2015-03-22T10:55:53Z</time>
      </trkpt>
      <trkpt lat="40.3436230" lon="-8.4632980">
        <ele>67.6</ele>
        <time>2015-03-22T10:55:58Z</time>
      </trkpt>
      <trkpt lat="40.3439830" lon="-8.4632740">
        <ele>69.4</ele>
        <time>2015-03-22T10:56:11Z</time>
      </trkpt>
      <trkpt lat="40.3444420" lon="-8.4632720">
        <ele>71.0</ele>
        <time>2015-03-22T10:56:30Z</time>
      </trkpt>
      <trkpt lat="40.3448630" lon="-8.4633090">
        <ele>72.3</ele>
        <time>2015-03-22T10:56:47Z</time>
      </trkpt>
      <trkpt lat="40.3453640" lon="-8.4633090">
        <ele>73.6</ele>
        <time>2015-03-22T10:57:07Z</time>
      </trkpt>
      <trkpt lat="40.3458570" lon="-8.4632200">
        <ele>74.6</ele>
        <time>2015-03-22T10:57:27Z</time>
      </trkpt>
      <trkpt lat="40.3462270" lon="-8.4631940">
        <ele>76.9</ele>
        <time>2015-03-22T10:57:43Z</time>
      </trkpt>
      <trkpt lat="40.3466330" lon="-8.4632500">
        <ele>79.2</ele>
        <time>2015-03-22T10:58:00Z</time>
      </trkpt>
      <trkpt lat="40.3471070" lon="-8.4632680">
        <ele>81.5</ele>
        <time>2015-03-22T10:58:18Z</time>
      </trkpt>
      <trkpt lat="40.3477300" lon="-8.4633480">
        <ele>83.4</ele>
        <time>2015-03-22T10:58:40Z</time>
      </trkpt>
      <trkpt lat="40.3477820" lon="-8.4633700">
        <ele>83.7</ele>
        <time>2015-03-22T10:58:42Z</time>
      </trkpt>
      <trkpt lat="40.3482690" lon="-8.4635830">
        <ele>85.4</ele>
        <time>2015-03-22T10:58:59Z</time>
      </trkpt>
      <trkpt lat="40.3485630" lon="-8.4637110">
        <ele>85.5</ele>
        <time>2015-03-22T10:59:07Z</time>
      </trkpt>
      <trkpt lat="40.3490860" lon="-8.4636790">
        <ele>86.3</ele>
        <time>2015-03-22T10:59:22Z</time>
      </trkpt>
      <trkpt lat="40.3497830" lon="-8.4636890">
        <ele>85.1</ele>
        <time>2015-03-22T10:59:36Z</time>
      </trkpt>
      <trkpt lat="40.3507980" lon="-8.4637130">
        <ele>81.0</ele>
        <time>2015-03-22T10:59:49Z</time>
      </trkpt>
      <trkpt lat="40.3516290" lon="-8.4635740">
        <ele>84.0</ele>
        <time>2015-03-22T11:00:03Z</time>
      </trkpt>
      <trkpt lat="40.3519630" lon="-8.4635310">
        <ele>86.2</ele>
        <time>2015-03-22T11:00:16Z</time>
      </trkpt>
      <trkpt lat="40.3522730" lon="-8.4635120">
        <ele>89.3</ele>
        <time>2015-03-22T11:00:31Z</time>
      </trkpt>
      <trkpt lat="40.3527090" lon="-8.4635230">
        <ele>91.8</ele>
        <time>2015-03-22T11:00:50Z</time>
      </trkpt>
      <trkpt lat="40.3531660" lon="-8.4636270">
        <ele>93.8</ele>
        <time>2015-03-22T11:01:06Z</time>
      </trkpt>
      <trkpt lat="40.3537830" lon="-8.4637580">
        <ele>93.7</ele>
        <time>2015-03-22T11:01:22Z</time>
      </trkpt>
      <trkpt lat="40.3540150" lon="-8.4638060">
        <ele>91.7</ele>
        <time>2015-03-22T11:01:28Z</time>
      </trkpt>
      <trkpt lat="40.3545070" lon="-8.4636840">
        <ele>89.5</ele>
        <time>2015-03-22T11:01:42Z</time>
      </trkpt>
      <trkpt lat="40.3548690" lon="-8.4633580">
        <ele>89.4</ele>
        <time>2015-03-22T11:01:56Z</time>
      </trkpt>
      <trkpt lat="40.3550990" lon="-8.4627610">
        <ele>88.7</ele>
        <time>2015-03-22T11:02:11Z</time>
      </trkpt>
      <trkpt lat="40.3555230" lon="-8.4623190">
        <ele>89.9</ele>
        <time>2015-03-22T11:02:26Z</time>
      </trkpt>
      <trkpt lat="40.3559090" lon="-8.4622160">
        <ele>91.5</ele>
        <time>2015-03-22T11:02:40Z</time>
      </trkpt>
      <trkpt lat="40.3562420" lon="-8.4622350">
        <ele>93.3</ele>
        <time>2015-03-22T11:02:57Z</time>
      </trkpt>
      <trkpt lat="40.3564530" lon="-8.4622500">
        <ele>93.7</ele>
        <time>2015-03-22T11:03:09Z</time>
      </trkpt>
      <trkpt lat="40.3567110" lon="-8.4621460">
        <ele>94.1</ele>
        <time>2015-03-22T11:03:24Z</time>
      </trkpt>
      <trkpt lat="40.3567290" lon="-8.4620400">
        <ele>94.2</ele>
        <time>2015-03-22T11:03:30Z</time>
      </trkpt>
      <trkpt lat="40.3565280" lon="-8.4616540">
        <ele>93.6</ele>
        <time>2015-03-22T11:03:45Z</time>
      </trkpt>
      <trkpt lat="40.3563990" lon="-8.4613240">
        <ele>92.4</ele>
        <time>2015-03-22T11:03:51Z</time>
      </trkpt>
      <trkpt lat="40.3563770" lon="-8.4609130">
        <ele>91.1</ele>
        <time>2015-03-22T11:03:56Z</time>
      </trkpt>
      <trkpt lat="40.3565230" lon="-8.4602470">
        <ele>88.9</ele>
        <time>2015-03-22T11:04:03Z</time>
      </trkpt>
      <trkpt lat="40.3567110" lon="-8.4595100">
        <ele>86.1</ele>
        <time>2015-03-22T11:04:11Z</time>
      </trkpt>
      <trkpt lat="40.3568540" lon="-8.4588640">
        <ele>83.8</ele>
        <time>2015-03-22T11:04:17Z</time>
      </trkpt>
      <trkpt lat="40.3570910" lon="-8.4581230">
        <ele>81.1</ele>
        <time>2015-03-22T11:04:24Z</time>
      </trkpt>
      <trkpt lat="40.3571300" lon="-8.4580340">
        <ele>80.6</ele>
        <time>2015-03-22T11:04:25Z</time>
      </trkpt>
      <trkpt lat="40.3573010" lon="-8.4577680">
        <ele>79.2</ele>
        <time>2015-03-22T11:04:32Z</time>
      </trkpt>
      <trkpt lat="40.3573860" lon="-8.4577370">
        <ele>78.7</ele>
        <time>2015-03-22T11:06:33Z</time>
      </trkpt>
      <trkpt lat="40.3574430" lon="-8.4576780">
        <ele>78.3</ele>
        <time>2015-03-22T11:06:36Z</time>
      </trkpt>
      <trkpt lat="40.3576750" lon="-8.4574030">
        <ele>76.0</ele>
        <time>2015-03-22T11:06:46Z</time>
      </trkpt>
      <trkpt lat="40.3577820" lon="-8.4571750">
        <ele>74.4</ele>
        <time>2015-03-22T11:06:51Z</time>
      </trkpt>
      <trkpt lat="40.3579060" lon="-8.4567830">
        <ele>72.1</ele>
        <time>2015-03-22T11:06:59Z</time>
      </trkpt>
      <trkpt lat="40.3581380" lon="-8.4567270">
        <ele>71.1</ele>
        <time>2015-03-22T11:07:06Z</time>
      </trkpt>
      <trkpt lat="40.3584490" lon="-8.4567020">
        <ele>70.3</ele>
        <time>2015-03-22T11:07:15Z</time>
      </trkpt>
      <trkpt lat="40.3585530" lon="-8.4567290">
        <ele>70.1</ele>
        <time>2015-03-22T11:07:18Z</time>
      </trkpt>
      <trkpt lat="40.3586860" lon="-8.4565310">
        <ele>70.0</ele>
        <time>2015-03-22T11:07:27Z</time>
      </trkpt>
      <trkpt lat="40.3588900" lon="-8.4566060">
        <ele>70.2</ele>
        <time>2015-03-22T11:07:36Z</time>
      </trkpt>
      <trkpt lat="40.3591850" lon="-8.4566420">
        <ele>70.3</ele>
        <time>2015-03-22T11:07:48Z</time>
      </trkpt>
      <trkpt lat="40.3594440" lon="-8.4566500">
        <ele>69.9</ele>
        <time>2015-03-22T11:07:58Z</time>
      </trkpt>
      <trkpt lat="40.3594940" lon="-8.4566730">
        <ele>69.7</ele>
        <time>2015-03-22T11:08:00Z</time>
      </trkpt>
      <trkpt lat="40.3597850" lon="-8.4567490">
        <ele>68.5</ele>
        <time>2015-03-22T11:08:11Z</time>
      </trkpt>
      <trkpt lat="40.3598490" lon="-8.4567630">
        <ele>68.2</ele>
        <time>2015-03-22T11:08:13Z</time>
      </trkpt>
      <trkpt lat="40.3599580" lon="-8.4568310">
        <ele>67.1</ele>
        <time>2015-03-22T11:08:17Z</time>
      </trkpt>
      <trkpt lat="40.3600680" lon="-8.4566980">
        <ele>65.5</ele>
        <time>2015-03-22T11:08:29Z</time>
      </trkpt>
      <trkpt lat="40.3601420" lon="-8.4562920">
        <ele>62.9</ele>
        <time>2015-03-22T11:08:43Z</time>
      </trkpt>
      <trkpt lat="40.3603120" lon="-8.4561780">
        <ele>61.5</ele>
        <time>2015-03-22T11:08:51Z</time>
      </trkpt>
      <trkpt lat="40.3603750" lon="-8.4561600">
        <ele>61.2</ele>
        <time>2015-03-22T11:08:53Z</time>
      </trkpt>
      <trkpt lat="40.3604150" lon="-8.4561230">
        <ele>61.1</ele>
        <time>2015-03-22T11:08:55Z</time>
      </trkpt>
      <trkpt lat="40.3604610" lon="-8.4559760">
        <ele>60.8</ele>
        <time>2015-03-22T11:08:59Z</time>
      </trkpt>
      <trkpt lat="40.3606750" lon="-8.4555530">
        <ele>58.5</ele>
        <time>2015-03-22T11:09:13Z</time>
      </trkpt>
      <trkpt lat="40.3607190" lon="-8.4554680">
        <ele>58.1</ele>
        <time>2015-03-22T11:09:16Z</time>
      </trkpt>
      <trkpt lat="40.3608740" lon="-8.4554410">
        <ele>57.3</ele>
        <time>2015-03-22T11:09:23Z</time>
      </trkpt>
      <trkpt lat="40.3612230" lon="-8.4554760">
        <ele>57.1</ele>
        <time>2015-03-22T11:09:36Z</time>
      </trkpt>
      <trkpt lat="40.3617560" lon="-8.4555880">
        <ele>56.2</ele>
        <time>2015-03-22T11:09:53Z</time>
      </trkpt>
      <trkpt lat="40.3620810" lon="-8.4557170">
        <ele>55.9</ele>
        <time>2015-03-22T11:10:05Z</time>
      </trkpt>
      <trkpt lat="40.3623030" lon="-8.4560230">
        <ele>56.4</ele>
        <time>2015-03-22T11:10:17Z</time>
      </trkpt>
      <trkpt lat="40.3623570" lon="-8.4562080">
        <ele>57.3</ele>
        <time>2015-03-22T11:10:25Z</time>
      </trkpt>
      <trkpt lat="40.3622970" lon="-8.4565580">
        <ele>58.9</ele>
        <time>2015-03-22T11:10:41Z</time>
      </trkpt>
      <trkpt lat="40.3623890" lon="-8.4567810">
        <ele>59.8</ele>
        <time>2015-03-22T11:10:55Z</time>
      </trkpt>
      <trkpt lat="40.3625830" lon="-8.4568400">
        <ele>61.3</ele>
        <time>2015-03-22T11:11:09Z</time>
      </trkpt>
      <trkpt lat="40.3626580" lon="-8.4568720">
        <ele>62.1</ele>
        <time>2015-03-22T11:11:14Z</time>
      </trkpt>
      <trkpt lat="40.3628820" lon="-8.4569850">
        <ele>63.6</ele>
        <time>2015-03-22T11:11:28Z</time>
      </trkpt>
      <trkpt lat="40.3631080" lon="-8.4571820">
        <ele>64.2</ele>
        <time>2015-03-22T11:11:42Z</time>
      </trkpt>
      <trkpt lat="40.3633900" lon="-8.4573440">
        <ele>64.4</ele>
        <time>2015-03-22T11:11:54Z</time>
      </trkpt>
      <trkpt lat="40.3637320" lon="-8.4575330">
        <ele>64.6</ele>
        <time>2015-03-22T11:12:07Z</time>
      </trkpt>
      <trkpt lat="40.3641050" lon="-8.4577170">
        <ele>64.9</ele>
        <time>2015-03-22T11:12:23Z</time>
      </trkpt>
      <trkpt lat="40.3644480" lon="-8.4579840">
        <ele>65.2</ele>
        <time>2015-03-22T11:12:40Z</time>
      </trkpt>
      <trkpt lat="40.3648910" lon="-8.4583170">
        <ele>64.6</ele>
        <time>2015-03-22T11:12:58Z</time>
      </trkpt>
      <trkpt lat="40.3649790" lon="-8.4584070">
        <ele>64.3</ele>
        <time>2015-03-22T11:13:01Z</time>
      </trkpt>
      <trkpt lat="40.3650840" lon="-8.4585060">
        <ele>63.9</ele>
        <time>2015-03-22T11:13:04Z</time>
      </trkpt>
      <trkpt lat="40.3653440" lon="-8.4588120">
        <ele>62.4</ele>
        <time>2015-03-22T11:13:11Z</time>
      </trkpt>
      <trkpt lat="40.3655000" lon="-8.4588810">
        <ele>61.2</ele>
        <time>2015-03-22T11:13:19Z</time>
      </trkpt>
      <trkpt lat="40.3656180" lon="-8.4579370">
        <ele>57.9</ele>
        <time>2015-03-22T11:13:36Z</time>
      </trkpt>
      <trkpt lat="40.3658650" lon="-8.4570740">
        <ele>55.7</ele>
        <time>2015-03-22T11:13:50Z</time>
      </trkpt>
      <trkpt lat="40.3659100" lon="-8.4569630">
        <ele>55.5</ele>
        <time>2015-03-22T11:13:52Z</time>
      </trkpt>
      <trkpt lat="40.3661010" lon="-8.4567460">
        <ele>54.6</ele>
        <time>2015-03-22T11:13:59Z</time>
      </trkpt>
      <trkpt lat="40.3663060" lon="-8.4566650">
        <ele>53.8</ele>
        <time>2015-03-22T11:14:05Z</time>
      </trkpt>
      <trkpt lat="40.3666230" lon="-8.4565760">
        <ele>52.0</ele>
        <time>2015-03-22T11:14:14Z</time>
      </trkpt>
      <trkpt lat="40.3667020" lon="-8.4564560">
        <ele>51.2</ele>
        <time>2015-03-22T11:14:25Z</time>
      </trkpt>
      <trkpt lat="40.3667170" lon="-8.4561710">
        <ele>50.4</ele>
        <time>2015-03-22T11:14:34Z</time>
      </trkpt>
      <trkpt lat="40.3667780" lon="-8.4555570">
        <ele>50.5</ele>
        <time>2015-03-22T11:14:49Z</time>
      </trkpt>
      <trkpt lat="40.3668270" lon="-8.4548990">
        <ele>51.3</ele>
        <time>2015-03-22T11:15:04Z</time>
      </trkpt>
      <trkpt lat="40.3668420" lon="-8.4544380">
        <ele>52.0</ele>
        <time>2015-03-22T11:15:15Z</time>
      </trkpt>
      <trkpt lat="40.3672280" lon="-8.4543500">
        <ele>52.4</ele>
        <time>2015-03-22T11:15:27Z</time>
      </trkpt>
      <trkpt lat="40.3677120" lon="-8.4545160">
        <ele>52.3</ele>
        <time>2015-03-22T11:15:42Z</time>
      </trkpt>
      <trkpt lat="40.3681200" lon="-8.4544200">
        <ele>52.3</ele>
        <time>2015-03-22T11:15:55Z</time>
      </trkpt>
      <trkpt lat="40.3687190" lon="-8.4541480">
        <ele>54.2</ele>
        <time>2015-03-22T11:16:15Z</time>
      </trkpt>
      <trkpt lat="40.3691920" lon="-8.4537910">
        <ele>54.9</ele>
        <time>2015-03-22T11:16:32Z</time>
      </trkpt>
      <trkpt lat="40.3695950" lon="-8.4534030">
        <ele>56.2</ele>
        <time>2015-03-22T11:16:47Z</time>
      </trkpt>
      <trkpt lat="40.3696860" lon="-8.4533150">
        <ele>56.4</ele>
        <time>2015-03-22T11:16:56Z</time>
      </trkpt>
      <trkpt lat="40.3698720" lon="-8.4532690">
        <ele>56.9</ele>
        <time>2015-03-22T11:17:11Z</time>
      </trkpt>
      <trkpt lat="40.3700620" lon="-8.4532940">
        <ele>57.5</ele>
        <time>2015-03-22T11:17:15Z</time>
      </trkpt>
      <trkpt lat="40.3706730" lon="-8.4532810">
        <ele>54.7</ele>
        <time>2015-03-22T11:17:28Z</time>
      </trkpt>
      <trkpt lat="40.3711190" lon="-8.4532820">
        <ele>53.3</ele>
        <time>2015-03-22T11:17:39Z</time>
      </trkpt>
      <trkpt lat="40.3717920" lon="-8.4532940">
        <ele>51.6</ele>
        <time>2015-03-22T11:17:56Z</time>
      </trkpt>
      <trkpt lat="40.3723940" lon="-8.4532800">
        <ele>52.0</ele>
        <time>2015-03-22T11:18:12Z</time>
      </trkpt>
      <trkpt lat="40.3729960" lon="-8.4530720">
        <ele>52.1</ele>
        <time>2015-03-22T11:18:29Z</time>
      </trkpt>
      <trkpt lat="40.3735780" lon="-8.4528510">
        <ele>52.4</ele>
        <time>2015-03-22T11:18:44Z</time>
      </trkpt>
      <trkpt lat="40.3741860" lon="-8.4526560">
        <ele>52.9</ele>
        <time>2015-03-22T11:19:00Z</time>
      </trkpt>
      <trkpt lat="40.3744570" lon="-8.4526040">
        <ele>53.5</ele>
        <time>2015-03-22T11:19:07Z</time>
      </trkpt>
      <trkpt lat="40.3750140" lon="-8.4525080">
        <ele>54.2</ele>
        <time>2015-03-22T11:19:22Z</time>
      </trkpt>
      <trkpt lat="40.3754950" lon="-8.4523760">
        <ele>54.7</ele>
        <time>2015-03-22T11:19:36Z</time>
      </trkpt>
      <trkpt lat="40.3759790" lon="-8.4522150">
        <ele>54.1</ele>
        <time>2015-03-22T11:19:50Z</time>
      </trkpt>
      <trkpt lat="40.3765400" lon="-8.4520280">
        <ele>53.3</ele>
        <time>2015-03-22T11:20:05Z</time>
      </trkpt>
      <trkpt lat="40.3769750" lon="-8.4519410">
        <ele>53.1</ele>
        <time>2015-03-22T11:20:18Z</time>
      </trkpt>
      <trkpt lat="40.3773690" lon="-8.4518500">
        <ele>52.7</ele>
        <time>2015-03-22T11:20:30Z</time>
      </trkpt>
      <trkpt lat="40.3778310" lon="-8.4517320">
        <ele>52.5</ele>
        <time>2015-03-22T11:20:45Z</time>
      </trkpt>
      <trkpt lat="40.3780090" lon="-8.4515970">
        <ele>52.3</ele>
        <time>2015-03-22T11:50:51Z</time>
      </trkpt>
      <trkpt lat="40.3781340" lon="-8.4515320">
        <ele>52.2</ele>
        <time>2015-03-22T11:51:37Z</time>
      </trkpt>
      <trkpt lat="40.3781810" lon="-8.4515100">
        <ele>52.0</ele>
        <time>2015-03-22T11:51:40Z</time>
      </trkpt>
      <trkpt lat="40.3782400" lon="-8.4514600">
        <ele>51.8</ele>
        <time>2015-03-22T11:51:44Z</time>
      </trkpt>
      <trkpt lat="40.3785800" lon="-8.4512900">
        <ele>50.9</ele>
        <time>2015-03-22T11:51:58Z</time>
      </trkpt>
      <trkpt lat="40.3788860" lon="-8.4510810">
        <ele>50.4</ele>
        <time>2015-03-22T11:52:11Z</time>
      </trkpt>
      <trkpt lat="40.3794100" lon="-8.4507650">
        <ele>49.7</ele>
        <time>2015-03-22T11:52:28Z</time>
      </trkpt>
      <trkpt lat="40.3799460" lon="-8.4504790">
        <ele>48.7</ele>
        <time>2015-03-22T11:52:43Z</time>
      </trkpt>
      <trkpt lat="40.3806320" lon="-8.4500740">
        <ele>51.6</ele>
        <time>2015-03-22T11:53:04Z</time>
      </trkpt>
      <trkpt lat="40.3808500" lon="-8.4499620">
        <ele>51.5</ele>
        <time>2015-03-22T11:53:59Z</time>
      </trkpt>
      <trkpt lat="40.3807610" lon="-8.4498610">
        <ele>51.6</ele>
        <time>2015-03-22T11:54:05Z</time>
      </trkpt>
      <trkpt lat="40.3807380" lon="-8.4496760">
        <ele>51.7</ele>
        <time>2015-03-22T11:54:10Z</time>
      </trkpt>
      <trkpt lat="40.3807060" lon="-8.4495220">
        <ele>51.8</ele>
        <time>2015-03-22T11:54:21Z</time>
      </trkpt>
      <trkpt lat="40.3807670" lon="-8.4491980">
        <ele>51.4</ele>
        <time>2015-03-22T11:54:31Z</time>
      </trkpt>
      <trkpt lat="40.3810170" lon="-8.4493200">
        <ele>50.9</ele>
        <time>2015-03-22T11:54:39Z</time>
      </trkpt>
      <trkpt lat="40.3814900" lon="-8.4494730">
        <ele>50.0</ele>
        <time>2015-03-22T11:54:53Z</time>
      </trkpt>
      <trkpt lat="40.3816470" lon="-8.4494840">
        <ele>49.9</ele>
        <time>2015-03-22T11:55:01Z</time>
      </trkpt>
      <trkpt lat="40.3817170" lon="-8.4494700">
        <ele>49.9</ele>
        <time>2015-03-22T11:55:16Z</time>
      </trkpt>
      <trkpt lat="40.3820570" lon="-8.4495750">
        <ele>49.6</ele>
        <time>2015-03-22T11:55:49Z</time>
      </trkpt>
      <trkpt lat="40.3827050" lon="-8.4497460">
        <ele>51.0</ele>
        <time>2015-03-22T11:56:07Z</time>
      </trkpt>
      <trkpt lat="40.3834470" lon="-8.4499230">
        <ele>52.0</ele>
        <time>2015-03-22T11:56:26Z</time>
      </trkpt>
      <trkpt lat="40.3837260" lon="-8.4499870">
        <ele>52.2</ele>
        <time>2015-03-22T11:56:38Z</time>
      </trkpt>
      <trkpt lat="40.3840250" lon="-8.4500620">
        <ele>52.3</ele>
        <time>2015-03-22T11:56:49Z</time>
      </trkpt>
      <trkpt lat="40.3847150" lon="-8.4502350">
        <ele>52.7</ele>
        <time>2015-03-22T11:57:07Z</time>
      </trkpt>
      <trkpt lat="40.3854190" lon="-8.4504060">
        <ele>52.9</ele>
        <time>2015-03-22T11:57:24Z</time>
      </trkpt>
      <trkpt lat="40.3857140" lon="-8.4504470">
        <ele>52.8</ele>
        <time>2015-03-22T11:57:31Z</time>
      </trkpt>
      <trkpt lat="40.3862160" lon="-8.4504950">
        <ele>52.6</ele>
        <time>2015-03-22T11:57:45Z</time>
      </trkpt>
      <trkpt lat="40.3865840" lon="-8.4505180">
        <ele>52.3</ele>
        <time>2015-03-22T11:57:57Z</time>
      </trkpt>
      <trkpt lat="40.3868600" lon="-8.4504910">
        <ele>52.1</ele>
        <time>2015-03-22T11:58:05Z</time>
      </trkpt>
      <trkpt lat="40.3873550" lon="-8.4505290">
        <ele>50.3</ele>
        <time>2015-03-22T11:58:18Z</time>
      </trkpt>
      <trkpt lat="40.3880510" lon="-8.4505420">
        <ele>47.6</ele>
        <time>2015-03-22T11:58:35Z</time>
      </trkpt>
      <trkpt lat="40.3886750" lon="-8.4504310">
        <ele>47.2</ele>
        <time>2015-03-22T11:58:51Z</time>
      </trkpt>
      <trkpt lat="40.3891580" lon="-8.4504930">
        <ele>47.0</ele>
        <time>2015-03-22T11:59:04Z</time>
      </trkpt>
      <trkpt lat="40.3897850" lon="-8.4506150">
        <ele>46.3</ele>
        <time>2015-03-22T11:59:20Z</time>
      </trkpt>
      <trkpt lat="40.3901170" lon="-8.4505880">
        <ele>46.0</ele>
        <time>2015-03-22T11:59:29Z</time>
      </trkpt>
      <trkpt lat="40.3902960" lon="-8.4501840">
        <ele>46.5</ele>
        <time>2015-03-22T11:59:40Z</time>
      </trkpt>
      <trkpt lat="40.3904050" lon="-8.4499120">
        <ele>46.9</ele>
        <time>2015-03-22T11:59:46Z</time>
      </trkpt>
      <trkpt lat="40.3907560" lon="-8.4494070">
        <ele>47.2</ele>
        <time>2015-03-22T11:59:59Z</time>
      </trkpt>
      <trkpt lat="40.3908740" lon="-8.4492710">
        <ele>47.4</ele>
        <time>2015-03-22T12:00:43Z</time>
      </trkpt>
      <trkpt lat="40.3913800" lon="-8.4488320">
        <ele>49.8</ele>
        <time>2015-03-22T12:01:03Z</time>
      </trkpt>
      <trkpt lat="40.3916310" lon="-8.4487430">
        <ele>51.4</ele>
        <time>2015-03-22T12:01:16Z</time>
      </trkpt>
      <trkpt lat="40.3918130" lon="-8.4485260">
        <ele>54.1</ele>
        <time>2015-03-22T12:01:32Z</time>
      </trkpt>
      <trkpt lat="40.3918930" lon="-8.4482680">
        <ele>55.5</ele>
        <time>2015-03-22T12:01:46Z</time>
      </trkpt>
      <trkpt lat="40.3919720" lon="-8.4480510">
        <ele>56.0</ele>
        <time>2015-03-22T12:01:57Z</time>
      </trkpt>
      <trkpt lat="40.3920960" lon="-8.4477580">
        <ele>56.2</ele>
        <time>2015-03-22T12:02:12Z</time>
      </trkpt>
      <trkpt lat="40.3923050" lon="-8.4472620">
        <ele>55.6</ele>
        <time>2015-03-22T12:02:29Z</time>
      </trkpt>
      <trkpt lat="40.3924770" lon="-8.4468430">
        <ele>55.2</ele>
        <time>2015-03-22T12:02:40Z</time>
      </trkpt>
      <trkpt lat="40.3928270" lon="-8.4461770">
        <ele>54.7</ele>
        <time>2015-03-22T12:02:57Z</time>
      </trkpt>
      <trkpt lat="40.3932780" lon="-8.4455380">
        <ele>54.0</ele>
        <time>2015-03-22T12:03:16Z</time>
      </trkpt>
      <trkpt lat="40.3936000" lon="-8.4448590">
        <ele>54.3</ele>
        <time>2015-03-22T12:03:34Z</time>
      </trkpt>
      <trkpt lat="40.3937870" lon="-8.4443300">
        <ele>54.9</ele>
        <time>2015-03-22T12:03:51Z</time>
      </trkpt>
      <trkpt lat="40.3940470" lon="-8.4442090">
        <ele>55.8</ele>
        <time>2015-03-22T12:04:03Z</time>
      </trkpt>
      <trkpt lat="40.3944990" lon="-8.4441760">
        <ele>56.9</ele>
        <time>2015-03-22T12:04:20Z</time>
      </trkpt>
      <trkpt lat="40.3945410" lon="-8.4441500">
        <ele>56.9</ele>
        <time>2015-03-22T12:04:22Z</time>
      </trkpt>
      <trkpt lat="40.3949160" lon="-8.4438430">
        <ele>58.7</ele>
        <time>2015-03-22T12:04:37Z</time>
      </trkpt>
      <trkpt lat="40.3950280" lon="-8.4437510">
        <ele>58.9</ele>
        <time>2015-03-22T12:04:42Z</time>
      </trkpt>
      <trkpt lat="40.3952880" lon="-8.4435130">
        <ele>59.3</ele>
        <time>2015-03-22T12:04:55Z</time>
      </trkpt>
      <trkpt lat="40.3955340" lon="-8.4430620">
        <ele>59.9</ele>
        <time>2015-03-22T12:05:14Z</time>
      </trkpt>
      <trkpt lat="40.3956270" lon="-8.4426760">
        <ele>60.9</ele>
        <time>2015-03-22T12:05:29Z</time>
      </trkpt>
      <trkpt lat="40.3957560" lon="-8.4424030">
        <ele>62.0</ele>
        <time>2015-03-22T12:05:42Z</time>
      </trkpt>
      <trkpt lat="40.3960070" lon="-8.4424270">
        <ele>63.9</ele>
        <time>2015-03-22T12:05:56Z</time>
      </trkpt>
      <trkpt lat="40.3962940" lon="-8.4424970">
        <ele>65.0</ele>
        <time>2015-03-22T12:06:12Z</time>
      </trkpt>
      <trkpt lat="40.3965600" lon="-8.4426590">
        <ele>65.0</ele>
        <time>2015-03-22T12:06:24Z</time>
      </trkpt>
      <trkpt lat="40.3966330" lon="-8.4427690">
        <ele>64.7</ele>
        <time>2015-03-22T12:06:27Z</time>
      </trkpt>
      <trkpt lat="40.3968430" lon="-8.4430430">
        <ele>63.5</ele>
        <time>2015-03-22T12:06:32Z</time>
      </trkpt>
      <trkpt lat="40.3971370" lon="-8.4431570">
        <ele>63.0</ele>
        <time>2015-03-22T12:06:38Z</time>
      </trkpt>
      <trkpt lat="40.3972050" lon="-8.4431390">
        <ele>63.2</ele>
        <time>2015-03-22T12:06:41Z</time>
      </trkpt>
      <trkpt lat="40.3975430" lon="-8.4428910">
        <ele>64.3</ele>
        <time>2015-03-22T12:06:56Z</time>
      </trkpt>
      <trkpt lat="40.3977670" lon="-8.4426300">
        <ele>63.8</ele>
        <time>2015-03-22T12:07:05Z</time>
      </trkpt>
      <trkpt lat="40.3979950" lon="-8.4426480">
        <ele>63.4</ele>
        <time>2015-03-22T12:07:16Z</time>
      </trkpt>
      <trkpt lat="40.3982260" lon="-8.4428320">
        <ele>63.8</ele>
        <time>2015-03-22T12:07:32Z</time>
      </trkpt>
      <trkpt lat="40.3984390" lon="-8.4429540">
        <ele>64.9</ele>
        <time>2015-03-22T12:07:48Z</time>
      </trkpt>
      <trkpt lat="40.3985030" lon="-8.4430030">
        <ele>65.2</ele>
        <time>2015-03-22T12:08:14Z</time>
      </trkpt>
      <trkpt lat="40.3985840" lon="-8.4430460">
        <ele>65.3</ele>
        <time>2015-03-22T12:08:18Z</time>
      </trkpt>
      <trkpt lat="40.3989010" lon="-8.4433530">
        <ele>66.0</ele>
        <time>2015-03-22T12:08:33Z</time>
      </trkpt>
      <trkpt lat="40.3992860" lon="-8.4434150">
        <ele>66.6</ele>
        <time>2015-03-22T12:08:46Z</time>
      </trkpt>
      <trkpt lat="40.3994900" lon="-8.4435650">
        <ele>67.4</ele>
        <time>2015-03-22T12:08:58Z</time>
      </trkpt>
      <trkpt lat="40.3996840" lon="-8.4439130">
        <ele>68.6</ele>
        <time>2015-03-22T12:09:11Z</time>
      </trkpt>
      <trkpt lat="40.3997670" lon="-8.4440180">
        <ele>68.4</ele>
        <time>2015-03-22T12:09:14Z</time>
      </trkpt>
      <trkpt lat="40.4000040" lon="-8.4440180">
        <ele>67.4</ele>
        <time>2015-03-22T12:09:19Z</time>
      </trkpt>
      <trkpt lat="40.4002870" lon="-8.4440660">
        <ele>65.9</ele>
        <time>2015-03-22T12:09:29Z</time>
      </trkpt>
      <trkpt lat="40.4004370" lon="-8.4443410">
        <ele>65.9</ele>
        <time>2015-03-22T12:09:41Z</time>
      </trkpt>
      <trkpt lat="40.4005040" lon="-8.4445130">
        <ele>66.2</ele>
        <time>2015-03-22T12:09:48Z</time>
      </trkpt>
      <trkpt lat="40.4007800" lon="-8.4447510">
        <ele>68.0</ele>
        <time>2015-03-22T12:10:04Z</time>
      </trkpt>
      <trkpt lat="40.4011130" lon="-8.4448190">
        <ele>69.2</ele>
        <time>2015-03-22T12:10:18Z</time>
      </trkpt>
      <trkpt lat="40.4012130" lon="-8.4449550">
        <ele>69.5</ele>
        <time>2015-03-22T12:10:23Z</time>
      </trkpt>
      <trkpt lat="40.4012890" lon="-8.4451760">
        <ele>68.5</ele>
        <time>2015-03-22T12:10:28Z</time>
      </trkpt>
      <trkpt lat="40.4016150" lon="-8.4457040">
        <ele>60.2</ele>
        <time>2015-03-22T12:10:40Z</time>
      </trkpt>
      <trkpt lat="40.4016460" lon="-8.4458100">
        <ele>58.7</ele>
        <time>2015-03-22T12:10:42Z</time>
      </trkpt>
      <trkpt lat="40.4017040" lon="-8.4459660">
        <ele>58.0</ele>
        <time>2015-03-22T12:10:45Z</time>
      </trkpt>
      <trkpt lat="40.4018400" lon="-8.4462730">
        <ele>57.5</ele>
        <time>2015-03-22T12:10:51Z</time>
      </trkpt>
      <trkpt lat="40.4022910" lon="-8.4471460">
        <ele>55.6</ele>
        <time>2015-03-22T12:11:10Z</time>
      </trkpt>
      <trkpt lat="40.4024470" lon="-8.4475020">
        <ele>55.4</ele>
        <time>2015-03-22T12:11:21Z</time>
      </trkpt>
      <trkpt lat="40.4025160" lon="-8.4479490">
        <ele>55.3</ele>
        <time>2015-03-22T12:11:33Z</time>
      </trkpt>
      <trkpt lat="40.4025730" lon="-8.4481090">
        <ele>55.1</ele>
        <time>2015-03-22T12:11:38Z</time>
      </trkpt>
      <trkpt lat="40.4025730" lon="-8.4482010">
        <ele>54.8</ele>
        <time>2015-03-22T12:11:40Z</time>
      </trkpt>
      <trkpt lat="40.4027270" lon="-8.4482360">
        <ele>54.8</ele>
        <time>2015-03-22T12:11:45Z</time>
      </trkpt>
      <trkpt lat="40.4028300" lon="-8.4481670">
        <ele>54.7</ele>
        <time>2015-03-22T12:11:47Z</time>
      </trkpt>
      <trkpt lat="40.4030260" lon="-8.4480960">
        <ele>54.4</ele>
        <time>2015-03-22T12:11:50Z</time>
      </trkpt>
      <trkpt lat="40.4032530" lon="-8.4481030">
        <ele>54.2</ele>
        <time>2015-03-22T12:11:53Z</time>
      </trkpt>
      <trkpt lat="40.4035680" lon="-8.4478230">
        <ele>52.6</ele>
        <time>2015-03-22T12:11:59Z</time>
      </trkpt>
      <trkpt lat="40.4035820" lon="-8.4477400">
        <ele>52.3</ele>
        <time>2015-03-22T12:12:00Z</time>
      </trkpt>
      <trkpt lat="40.4036650" lon="-8.4469720">
        <ele>52.9</ele>
        <time>2015-03-22T12:12:13Z</time>
      </trkpt>
      <trkpt lat="40.4039260" lon="-8.4462360">
        <ele>55.1</ele>
        <time>2015-03-22T12:12:29Z</time>
      </trkpt>
      <trkpt lat="40.4042490" lon="-8.4460710">
        <ele>52.0</ele>
        <time>2015-03-22T12:12:37Z</time>
      </trkpt>
      <trkpt lat="40.4050950" lon="-8.4460870">
        <ele>47.9</ele>
        <time>2015-03-22T12:12:56Z</time>
      </trkpt>
      <trkpt lat="40.4053810" lon="-8.4460620">
        <ele>46.8</ele>
        <time>2015-03-22T12:13:03Z</time>
      </trkpt>
      <trkpt lat="40.4055910" lon="-8.4458480">
        <ele>46.7</ele>
        <time>2015-03-22T12:13:10Z</time>
      </trkpt>
      <trkpt lat="40.4059880" lon="-8.4453750">
        <ele>47.3</ele>
        <time>2015-03-22T12:13:25Z</time>
      </trkpt>
      <trkpt lat="40.4063120" lon="-8.4454290">
        <ele>47.7</ele>
        <time>2015-03-22T12:13:34Z</time>
      </trkpt>
      <trkpt lat="40.4069140" lon="-8.4457040">
        <ele>49.2</ele>
        <time>2015-03-22T12:13:52Z</time>
      </trkpt>
      <trkpt lat="40.4074220" lon="-8.4457550">
        <ele>50.7</ele>
        <time>2015-03-22T12:14:07Z</time>
      </trkpt>
      <trkpt lat="40.4081130" lon="-8.4457430">
        <ele>57.5</ele>
        <time>2015-03-22T12:14:27Z</time>
      </trkpt>
      <trkpt lat="40.4086060" lon="-8.4455510">
        <ele>56.7</ele>
        <time>2015-03-22T12:14:42Z</time>
      </trkpt>
      <trkpt lat="40.4092410" lon="-8.4452970">
        <ele>56.9</ele>
        <time>2015-03-22T12:15:03Z</time>
      </trkpt>
      <trkpt lat="40.4096010" lon="-8.4451490">
        <ele>58.5</ele>
        <time>2015-03-22T12:15:18Z</time>
      </trkpt>
      <trkpt lat="40.4101220" lon="-8.4449760">
        <ele>59.2</ele>
        <time>2015-03-22T12:15:40Z</time>
      </trkpt>
      <trkpt lat="40.4105990" lon="-8.4448320">
        <ele>60.0</ele>
        <time>2015-03-22T12:16:00Z</time>
      </trkpt>
      <trkpt lat="40.4110160" lon="-8.4446660">
        <ele>64.0</ele>
        <time>2015-03-22T12:16:18Z</time>
      </trkpt>
      <trkpt lat="40.4115020" lon="-8.4445560">
        <ele>64.6</ele>
        <time>2015-03-22T12:16:38Z</time>
      </trkpt>
      <trkpt lat="40.4119570" lon="-8.4444380">
        <ele>65.6</ele>
        <time>2015-03-22T12:16:57Z</time>
      </trkpt>
      <trkpt lat="40.4123050" lon="-8.4443420">
        <ele>65.4</ele>
        <time>2015-03-22T12:17:12Z</time>
      </trkpt>
      <trkpt lat="40.4126860" lon="-8.4442680">
        <ele>66.0</ele>
        <time>2015-03-22T12:17:27Z</time>
      </trkpt>
      <trkpt lat="40.4129690" lon="-8.4442450">
        <ele>66.4</ele>
        <time>2015-03-22T12:17:39Z</time>
      </trkpt>
      <trkpt lat="40.4133530" lon="-8.4442840">
        <ele>66.8</ele>
        <time>2015-03-22T12:17:55Z</time>
      </trkpt>
      <trkpt lat="40.4136860" lon="-8.4443230">
        <ele>68.2</ele>
        <time>2015-03-22T12:18:08Z</time>
      </trkpt>
      <trkpt lat="40.4140420" lon="-8.4445620">
        <ele>69.1</ele>
        <time>2015-03-22T12:18:24Z</time>
      </trkpt>
      <trkpt lat="40.4143420" lon="-8.4448330">
        <ele>69.8</ele>
        <time>2015-03-22T12:18:38Z</time>
      </trkpt>
      <trkpt lat="40.4144320" lon="-8.4446930">
        <ele>69.4</ele>
        <time>2015-03-22T12:18:42Z</time>
      </trkpt>
      <trkpt lat="40.4145600" lon="-8.4439760">
        <ele>67.6</ele>
        <time>2015-03-22T12:18:53Z</time>
      </trkpt>
      <trkpt lat="40.4148280" lon="-8.4436220">
        <ele>66.3</ele>
        <time>2015-03-22T12:19:00Z</time>
      </trkpt>
      <trkpt lat="40.4157660" lon="-8.4433270">
        <ele>62.0</ele>
        <time>2015-03-22T12:19:18Z</time>
      </trkpt>
      <trkpt lat="40.4165220" lon="-8.4432060">
        <ele>60.7</ele>
        <time>2015-03-22T12:19:33Z</time>
      </trkpt>
      <trkpt lat="40.4173000" lon="-8.4429420">
        <ele>58.2</ele>
        <time>2015-03-22T12:19:51Z</time>
      </trkpt>
      <trkpt lat="40.4179190" lon="-8.4426280">
        <ele>57.2</ele>
        <time>2015-03-22T12:20:08Z</time>
      </trkpt>
      <trkpt lat="40.4184360" lon="-8.4424620">
        <ele>56.9</ele>
        <time>2015-03-22T12:20:22Z</time>
      </trkpt>
      <trkpt lat="40.4187640" lon="-8.4423560">
        <ele>57.0</ele>
        <time>2015-03-22T12:20:31Z</time>
      </trkpt>
      <trkpt lat="40.4192640" lon="-8.4418570">
        <ele>57.8</ele>
        <time>2015-03-22T12:20:49Z</time>
      </trkpt>
      <trkpt lat="40.4194900" lon="-8.4413840">
        <ele>60.1</ele>
        <time>2015-03-22T12:21:04Z</time>
      </trkpt>
      <trkpt lat="40.4197940" lon="-8.4408180">
        <ele>62.9</ele>
        <time>2015-03-22T12:21:26Z</time>
      </trkpt>
      <trkpt lat="40.4200870" lon="-8.4404690">
        <ele>65.4</ele>
        <time>2015-03-22T12:21:43Z</time>
      </trkpt>
      <trkpt lat="40.4204210" lon="-8.4400720">
        <ele>68.2</ele>
        <time>2015-03-22T12:22:03Z</time>
      </trkpt>
      <trkpt lat="40.4206940" lon="-8.4397670">
        <ele>69.6</ele>
        <time>2015-03-22T12:22:19Z</time>
      </trkpt>
      <trkpt lat="40.4210240" lon="-8.4394120">
        <ele>71.1</ele>
        <time>2015-03-22T12:22:37Z</time>
      </trkpt>
      <trkpt lat="40.4214590" lon="-8.4392980">
        <ele>71.5</ele>
        <time>2015-03-22T12:22:54Z</time>
      </trkpt>
      <trkpt lat="40.4219210" lon="-8.4392160">
        <ele>72.6</ele>
        <time>2015-03-22T12:23:14Z</time>
      </trkpt>
      <trkpt lat="40.4222020" lon="-8.4391570">
        <ele>74.3</ele>
        <time>2015-03-22T12:23:40Z</time>
      </trkpt>
      <trkpt lat="40.4227680" lon="-8.4390360">
        <ele>77.5</ele>
        <time>2015-03-22T12:24:03Z</time>
      </trkpt>
      <trkpt lat="40.4231990" lon="-8.4389350">
        <ele>79.0</ele>
        <time>2015-03-22T12:24:17Z</time>
      </trkpt>
      <trkpt lat="40.4237380" lon="-8.4386430">
        <ele>81.4</ele>
        <time>2015-03-22T12:24:33Z</time>
      </trkpt>
      <trkpt lat="40.4243560" lon="-8.4383330">
        <ele>84.2</ele>
        <time>2015-03-22T12:24:51Z</time>
      </trkpt>
      <trkpt lat="40.4248700" lon="-8.4379810">
        <ele>85.3</ele>
        <time>2015-03-22T12:25:07Z</time>
      </trkpt>
      <trkpt lat="40.4252500" lon="-8.4377900">
        <ele>85.7</ele>
        <time>2015-03-22T12:25:20Z</time>
      </trkpt>
      <trkpt lat="40.4252990" lon="-8.4379060">
        <ele>85.1</ele>
        <time>2015-03-22T12:25:23Z</time>
      </trkpt>
      <trkpt lat="40.4252920" lon="-8.4382280">
        <ele>83.5</ele>
        <time>2015-03-22T12:25:28Z</time>
      </trkpt>
      <trkpt lat="40.4252660" lon="-8.4384660">
        <ele>82.3</ele>
        <time>2015-03-22T12:25:31Z</time>
      </trkpt>
      <trkpt lat="40.4254000" lon="-8.4395310">
        <ele>78.3</ele>
        <time>2015-03-22T12:25:44Z</time>
      </trkpt>
      <trkpt lat="40.4256430" lon="-8.4402720">
        <ele>77.2</ele>
        <time>2015-03-22T12:25:58Z</time>
      </trkpt>
      <trkpt lat="40.4256740" lon="-8.4403710">
        <ele>77.2</ele>
        <time>2015-03-22T12:26:00Z</time>
      </trkpt>
      <trkpt lat="40.4257570" lon="-8.4406240">
        <ele>78.0</ele>
        <time>2015-03-22T12:26:05Z</time>
      </trkpt>
      <trkpt lat="40.4260430" lon="-8.4407650">
        <ele>78.1</ele>
        <time>2015-03-22T12:26:13Z</time>
      </trkpt>
      <trkpt lat="40.4261850" lon="-8.4407230">
        <ele>77.8</ele>
        <time>2015-03-22T12:26:16Z</time>
      </trkpt>
      <trkpt lat="40.4265260" lon="-8.4407640">
        <ele>76.7</ele>
        <time>2015-03-22T12:26:21Z</time>
      </trkpt>
      <trkpt lat="40.4266820" lon="-8.4408260">
        <ele>75.5</ele>
        <time>2015-03-22T12:26:23Z</time>
      </trkpt>
      <trkpt lat="40.4274450" lon="-8.4411690">
        <ele>69.4</ele>
        <time>2015-03-22T12:26:35Z</time>
      </trkpt>
      <trkpt lat="40.4279600" lon="-8.4414080">
        <ele>67.2</ele>
        <time>2015-03-22T12:26:49Z</time>
      </trkpt>
      <trkpt lat="40.4280290" lon="-8.4414340">
        <ele>67.1</ele>
        <time>2015-03-22T12:26:51Z</time>
      </trkpt>
      <trkpt lat="40.4285410" lon="-8.4416420">
        <ele>67.0</ele>
        <time>2015-03-22T12:27:03Z</time>
      </trkpt>
      <trkpt lat="40.4290810" lon="-8.4418540">
        <ele>66.8</ele>
        <time>2015-03-22T12:27:16Z</time>
      </trkpt>
      <trkpt lat="40.4293060" lon="-8.4418170">
        <ele>65.3</ele>
        <time>2015-03-22T12:27:21Z</time>
      </trkpt>
      <trkpt lat="40.4295330" lon="-8.4415320">
        <ele>63.1</ele>
        <time>2015-03-22T12:27:27Z</time>
      </trkpt>
      <trkpt lat="40.4296850" lon="-8.4411560">
        <ele>61.8</ele>
        <time>2015-03-22T12:27:32Z</time>
      </trkpt>
      <trkpt lat="40.4298670" lon="-8.4408830">
        <ele>60.8</ele>
        <time>2015-03-22T12:27:36Z</time>
      </trkpt>
      <trkpt lat="40.4300790" lon="-8.4408390">
        <ele>60.6</ele>
        <time>2015-03-22T12:27:40Z</time>
      </trkpt>
      <trkpt lat="40.4309180" lon="-8.4412240">
        <ele>59.3</ele>
        <time>2015-03-22T12:27:56Z</time>
      </trkpt>
      <trkpt lat="40.4317120" lon="-8.4415380">
        <ele>62.6</ele>
        <time>2015-03-22T12:28:14Z</time>
      </trkpt>
      <trkpt lat="40.4322680" lon="-8.4417700">
        <ele>64.3</ele>
        <time>2015-03-22T12:28:27Z</time>
      </trkpt>
      <trkpt lat="40.4330140" lon="-8.4420840">
        <ele>59.5</ele>
        <time>2015-03-22T12:28:45Z</time>
      </trkpt>
      <trkpt lat="40.4337850" lon="-8.4423880">
        <ele>54.4</ele>
        <time>2015-03-22T12:29:03Z</time>
      </trkpt>
      <trkpt lat="40.4342140" lon="-8.4425670">
        <ele>54.0</ele>
        <time>2015-03-22T12:29:13Z</time>
      </trkpt>
      <trkpt lat="40.4346220" lon="-8.4426530">
        <ele>52.7</ele>
        <time>2015-03-22T12:29:23Z</time>
      </trkpt>
      <trkpt lat="40.4348910" lon="-8.4424620">
        <ele>52.8</ele>
        <time>2015-03-22T12:29:36Z</time>
      </trkpt>
      <trkpt lat="40.4350520" lon="-8.4422340">
        <ele>53.3</ele>
        <time>2015-03-22T12:29:50Z</time>
      </trkpt>
      <trkpt lat="40.4352190" lon="-8.4420170">
        <ele>55.3</ele>
        <time>2015-03-22T12:30:04Z</time>
      </trkpt>
      <trkpt lat="40.4353710" lon="-8.4417840">
        <ele>58.7</ele>
        <time>2015-03-22T12:30:19Z</time>
      </trkpt>
      <trkpt lat="40.4354760" lon="-8.4414110">
        <ele>62.0</ele>
        <time>2015-03-22T12:30:37Z</time>
      </trkpt>
      <trkpt lat="40.4357080" lon="-8.4412350">
        <ele>64.0</ele>
        <time>2015-03-22T12:30:51Z</time>
      </trkpt>
      <trkpt lat="40.4359200" lon="-8.4415650">
        <ele>64.0</ele>
        <time>2015-03-22T12:31:04Z</time>
      </trkpt>
      <trkpt lat="40.4362030" lon="-8.4419920">
        <ele>64.5</ele>
        <time>2015-03-22T12:31:19Z</time>
      </trkpt>
      <trkpt lat="40.4367590" lon="-8.4425970">
        <ele>64.5</ele>
        <time>2015-03-22T12:31:40Z</time>
      </trkpt>
      <trkpt lat="40.4372800" lon="-8.4428620">
        <ele>66.2</ele>
        <time>2015-03-22T12:31:56Z</time>
      </trkpt>
      <trkpt lat="40.4376860" lon="-8.4427930">
        <ele>69.0</ele>
        <time>2015-03-22T12:32:08Z</time>
      </trkpt>
      <trkpt lat="40.4382760" lon="-8.4426750">
        <ele>70.2</ele>
        <time>2015-03-22T12:32:25Z</time>
      </trkpt>
      <trkpt lat="40.4389500" lon="-8.4425640">
        <ele>70.1</ele>
        <time>2015-03-22T12:32:43Z</time>
      </trkpt>
      <trkpt lat="40.4395820" lon="-8.4424290">
        <ele>68.9</ele>
        <time>2015-03-22T12:32:59Z</time>
      </trkpt>
      <trkpt lat="40.4402170" lon="-8.4423130">
        <ele>67.5</ele>
        <time>2015-03-22T12:33:16Z</time>
      </trkpt>
      <trkpt lat="40.4404500" lon="-8.4422590">
        <ele>67.3</ele>
        <time>2015-03-22T12:33:24Z</time>
      </trkpt>
      <trkpt lat="40.4405590" lon="-8.4420630">
        <ele>68.6</ele>
        <time>2015-03-22T12:33:33Z</time>
      </trkpt>
      <trkpt lat="40.4406610" lon="-8.4420720">
        <ele>68.7</ele>
        <time>2015-03-22T12:33:37Z</time>
      </trkpt>
      <trkpt lat="40.4410410" lon="-8.4422120">
        <ele>68.4</ele>
        <time>2015-03-22T12:33:54Z</time>
      </trkpt>
      <trkpt lat="40.4414160" lon="-8.4423620">
        <ele>68.1</ele>
        <time>2015-03-22T12:34:09Z</time>
      </trkpt>
      <trkpt lat="40.4418130" lon="-8.4425330">
        <ele>67.6</ele>
        <time>2015-03-22T12:34:24Z</time>
      </trkpt>
      <trkpt lat="40.4420430" lon="-8.4426320">
        <ele>66.9</ele>
        <time>2015-03-22T12:34:31Z</time>
      </trkpt>
      <trkpt lat="40.4426850" lon="-8.4429380">
        <ele>63.8</ele>
        <time>2015-03-22T12:34:46Z</time>
      </trkpt>
      <trkpt lat="40.4432770" lon="-8.4430440">
        <ele>60.3</ele>
        <time>2015-03-22T12:34:56Z</time>
      </trkpt>
      <trkpt lat="40.4437230" lon="-8.4430290">
        <ele>55.8</ele>
        <time>2015-03-22T12:35:02Z</time>
      </trkpt>
      <trkpt lat="40.4440880" lon="-8.4430250">
        <ele>52.6</ele>
        <time>2015-03-22T12:35:06Z</time>
      </trkpt>
      <trkpt lat="40.4441880" lon="-8.4430200">
        <ele>51.8</ele>
        <time>2015-03-22T12:35:07Z</time>
      </trkpt>
      <trkpt lat="40.4443890" lon="-8.4430040">
        <ele>50.3</ele>
        <time>2015-03-22T12:35:09Z</time>
      </trkpt>
      <trkpt lat="40.4446930" lon="-8.4429700">
        <ele>48.2</ele>
        <time>2015-03-22T12:35:12Z</time>
      </trkpt>
      <trkpt lat="40.4450700" lon="-8.4427920">
        <ele>46.8</ele>
        <time>2015-03-22T12:35:16Z</time>
      </trkpt>
      <trkpt lat="40.4453340" lon="-8.4425920">
        <ele>47.1</ele>
        <time>2015-03-22T12:35:19Z</time>
      </trkpt>
      <trkpt lat="40.4456480" lon="-8.4424430">
        <ele>49.4</ele>
        <time>2015-03-22T12:35:23Z</time>
      </trkpt>
      <trkpt lat="40.4460630" lon="-8.4423980">
        <ele>47.3</ele>
        <time>2015-03-22T12:35:30Z</time>
      </trkpt>
      <trkpt lat="40.4463000" lon="-8.4422390">
        <ele>45.5</ele>
        <time>2015-03-22T12:35:34Z</time>
      </trkpt>
      <trkpt lat="40.4466240" lon="-8.4421870">
        <ele>42.5</ele>
        <time>2015-03-22T12:35:39Z</time>
      </trkpt>
      <trkpt lat="40.4467270" lon="-8.4422570">
        <ele>39.6</ele>
        <time>2015-03-22T12:35:41Z</time>
      </trkpt>
      <trkpt lat="40.4468950" lon="-8.4422510">
        <ele>37.7</ele>
        <time>2015-03-22T12:35:45Z</time>
      </trkpt>
      <trkpt lat="40.4473210" lon="-8.4418660">
        <ele>36.4</ele>
        <time>2015-03-22T12:35:59Z</time>
      </trkpt>
      <trkpt lat="40.4475370" lon="-8.4415600">
        <ele>36.2</ele>
        <time>2015-03-22T12:36:10Z</time>
      </trkpt>
      <trkpt lat="40.4475730" lon="-8.4414910">
        <ele>36.1</ele>
        <time>2015-03-22T12:36:21Z</time>
      </trkpt>
      <trkpt lat="40.4476070" lon="-8.4413570">
        <ele>35.9</ele>
        <time>2015-03-22T12:36:48Z</time>
      </trkpt>
      <trkpt lat="40.4477760" lon="-8.4409500">
        <ele>35.6</ele>
        <time>2015-03-22T12:37:01Z</time>
      </trkpt>
      <trkpt lat="40.4478860" lon="-8.4404240">
        <ele>35.6</ele>
        <time>2015-03-22T12:37:14Z</time>
      </trkpt>
      <trkpt lat="40.4477310" lon="-8.4397530">
        <ele>37.3</ele>
        <time>2015-03-22T12:37:30Z</time>
      </trkpt>
      <trkpt lat="40.4475090" lon="-8.4392240">
        <ele>40.3</ele>
        <time>2015-03-22T12:37:45Z</time>
      </trkpt>
      <trkpt lat="40.4476910" lon="-8.4388460">
        <ele>37.3</ele>
        <time>2015-03-22T12:37:56Z</time>
      </trkpt>
      <trkpt lat="40.4477690" lon="-8.4387990">
        <ele>37.0</ele>
        <time>2015-03-22T12:38:05Z</time>
      </trkpt>
      <trkpt lat="40.4478310" lon="-8.4387770">
        <ele>36.8</ele>
        <time>2015-03-22T12:38:38Z</time>
      </trkpt>
      <trkpt lat="40.4481550" lon="-8.4385570">
        <ele>36.0</ele>
        <time>2015-03-22T12:38:49Z</time>
      </trkpt>
      <trkpt lat="40.4486020" lon="-8.4382830">
        <ele>34.6</ele>
        <time>2015-03-22T12:39:03Z</time>
      </trkpt>
      <trkpt lat="40.4492160" lon="-8.4381010">
        <ele>32.9</ele>
        <time>2015-03-22T12:39:20Z</time>
      </trkpt>
      <trkpt lat="40.4499150" lon="-8.4381670">
        <ele>32.4</ele>
        <time>2015-03-22T12:39:38Z</time>
      </trkpt>
      <trkpt lat="40.4507580" lon="-8.4383480">
        <ele>33.1</ele>
        <time>2015-03-22T12:40:01Z</time>
      </trkpt>
      <trkpt lat="40.4513080" lon="-8.4383030">
        <ele>35.6</ele>
        <time>2015-03-22T12:40:17Z</time>
      </trkpt>
      <trkpt lat="40.4516840" lon="-8.4384030">
        <ele>37.2</ele>
        <time>2015-03-22T12:40:30Z</time>
      </trkpt>
      <trkpt lat="40.4518540" lon="-8.4385350">
        <ele>38.0</ele>
        <time>2015-03-22T12:40:43Z</time>
      </trkpt>
      <trkpt lat="40.4520610" lon="-8.4385650">
        <ele>39.2</ele>
        <time>2015-03-22T12:40:58Z</time>
      </trkpt>
      <trkpt lat="40.4523080" lon="-8.4383810">
        <ele>39.9</ele>
        <time>2015-03-22T12:41:13Z</time>
      </trkpt>
      <trkpt lat="40.4527120" lon="-8.4380990">
        <ele>38.7</ele>
        <time>2015-03-22T12:41:25Z</time>
      </trkpt>
      <trkpt lat="40.4530230" lon="-8.4378770">
        <ele>38.3</ele>
        <time>2015-03-22T12:41:31Z</time>
      </trkpt>
      <trkpt lat="40.4531790" lon="-8.4377450">
        <ele>38.2</ele>
        <time>2015-03-22T12:41:34Z</time>
      </trkpt>
      <trkpt lat="40.4536290" lon="-8.4371780">
        <ele>37.6</ele>
        <time>2015-03-22T12:41:46Z</time>
      </trkpt>
      <trkpt lat="40.4537590" lon="-8.4372110">
        <ele>37.8</ele>
        <time>2015-03-22T12:41:50Z</time>
      </trkpt>
      <trkpt lat="40.4543650" lon="-8.4374640">
        <ele>38.8</ele>
        <time>2015-03-22T12:42:08Z</time>
      </trkpt>
      <trkpt lat="40.4549420" lon="-8.4375190">
        <ele>39.5</ele>
        <time>2015-03-22T12:42:25Z</time>
      </trkpt>
      <trkpt lat="40.4553460" lon="-8.4374550">
        <ele>41.2</ele>
        <time>2015-03-22T12:42:37Z</time>
      </trkpt>
      <trkpt lat="40.4559500" lon="-8.4373220">
        <ele>42.0</ele>
        <time>2015-03-22T12:42:54Z</time>
      </trkpt>
      <trkpt lat="40.4565140" lon="-8.4371030">
        <ele>42.3</ele>
        <time>2015-03-22T12:43:10Z</time>
      </trkpt>
      <trkpt lat="40.4570540" lon="-8.4365900">
        <ele>43.0</ele>
        <time>2015-03-22T12:43:28Z</time>
      </trkpt>
      <trkpt lat="40.4572950" lon="-8.4365530">
        <ele>43.2</ele>
        <time>2015-03-22T12:43:38Z</time>
      </trkpt>
      <trkpt lat="40.4573230" lon="-8.4364620">
        <ele>43.2</ele>
        <time>2015-03-22T12:43:47Z</time>
      </trkpt>
      <trkpt lat="40.4573240" lon="-8.4361830">
        <ele>43.6</ele>
        <time>2015-03-22T12:43:57Z</time>
      </trkpt>
      <trkpt lat="40.4574780" lon="-8.4360820">
        <ele>44.5</ele>
        <time>2015-03-22T12:44:03Z</time>
      </trkpt>
      <trkpt lat="40.4575640" lon="-8.4363780">
        <ele>45.0</ele>
        <time>2015-03-22T12:44:11Z</time>
      </trkpt>
      <trkpt lat="40.4578410" lon="-8.4367910">
        <ele>46.1</ele>
        <time>2015-03-22T12:44:24Z</time>
      </trkpt>
      <trkpt lat="40.4583550" lon="-8.4371410">
        <ele>47.9</ele>
        <time>2015-03-22T12:44:42Z</time>
      </trkpt>
      <trkpt lat="40.4588130" lon="-8.4374690">
        <ele>48.2</ele>
        <time>2015-03-22T12:44:57Z</time>
      </trkpt>
      <trkpt lat="40.4590870" lon="-8.4377530">
        <ele>47.9</ele>
        <time>2015-03-22T12:45:06Z</time>
      </trkpt>
      <trkpt lat="40.4594480" lon="-8.4380610">
        <ele>49.0</ele>
        <time>2015-03-22T12:45:18Z</time>
      </trkpt>
      <trkpt lat="40.4598300" lon="-8.4380420">
        <ele>49.9</ele>
        <time>2015-03-22T12:45:30Z</time>
      </trkpt>
      <trkpt lat="40.4599570" lon="-8.4383640">
        <ele>49.4</ele>
        <time>2015-03-22T12:45:37Z</time>
      </trkpt>
      <trkpt lat="40.4601100" lon="-8.4393020">
        <ele>48.6</ele>
        <time>2015-03-22T12:45:55Z</time>
      </trkpt>
      <trkpt lat="40.4601440" lon="-8.4395460">
        <ele>48.9</ele>
        <time>2015-03-22T12:46:00Z</time>
      </trkpt>
      <trkpt lat="40.4602540" lon="-8.4397820">
        <ele>49.3</ele>
        <time>2015-03-22T12:46:05Z</time>
      </trkpt>
      <trkpt lat="40.4608210" lon="-8.4402760">
        <ele>50.6</ele>
        <time>2015-03-22T12:46:22Z</time>
      </trkpt>
      <trkpt lat="40.4614360" lon="-8.4407960">
        <ele>51.9</ele>
        <time>2015-03-22T12:46:40Z</time>
      </trkpt>
      <trkpt lat="40.4620240" lon="-8.4413150">
        <ele>54.7</ele>
        <time>2015-03-22T12:46:57Z</time>
      </trkpt>
      <trkpt lat="40.4625800" lon="-8.4419160">
        <ele>56.4</ele>
        <time>2015-03-22T12:47:14Z</time>
      </trkpt>
      <trkpt lat="40.4631430" lon="-8.4424710">
        <ele>57.4</ele>
        <time>2015-03-22T12:47:30Z</time>
      </trkpt>
      <trkpt lat="40.4636760" lon="-8.4429160">
        <ele>58.3</ele>
        <time>2015-03-22T12:47:46Z</time>
      </trkpt>
      <trkpt lat="40.4642280" lon="-8.4433370">
        <ele>59.3</ele>
        <time>2015-03-22T12:48:01Z</time>
      </trkpt>
      <trkpt lat="40.4648680" lon="-8.4438590">
        <ele>60.4</ele>
        <time>2015-03-22T12:48:19Z</time>
      </trkpt>
      <trkpt lat="40.4654410" lon="-8.4443260">
        <ele>59.4</ele>
        <time>2015-03-22T12:48:35Z</time>
      </trkpt>
      <trkpt lat="40.4655550" lon="-8.4444400">
        <ele>59.1</ele>
        <time>2015-03-22T12:48:38Z</time>
      </trkpt>
      <trkpt lat="40.4656480" lon="-8.4445760">
        <ele>58.8</ele>
        <time>2015-03-22T12:48:41Z</time>
      </trkpt>
      <trkpt lat="40.4661180" lon="-8.4455180">
        <ele>57.6</ele>
        <time>2015-03-22T12:49:00Z</time>
      </trkpt>
      <trkpt lat="40.4664330" lon="-8.4462130">
        <ele>57.2</ele>
        <time>2015-03-22T12:49:14Z</time>
      </trkpt>
      <trkpt lat="40.4668020" lon="-8.4470500">
        <ele>55.1</ele>
        <time>2015-03-22T12:49:30Z</time>
      </trkpt>
      <trkpt lat="40.4668480" lon="-8.4471510">
        <ele>54.9</ele>
        <time>2015-03-22T12:49:32Z</time>
      </trkpt>
      <trkpt lat="40.4671980" lon="-8.4477390">
        <ele>54.3</ele>
        <time>2015-03-22T12:49:46Z</time>
      </trkpt>
      <trkpt lat="40.4677030" lon="-8.4478650">
        <ele>53.7</ele>
        <time>2015-03-22T12:49:59Z</time>
      </trkpt>
      <trkpt lat="40.4684400" lon="-8.4480960">
        <ele>52.9</ele>
        <time>2015-03-22T12:50:17Z</time>
      </trkpt>
      <trkpt lat="40.4691680" lon="-8.4483500">
        <ele>52.1</ele>
        <time>2015-03-22T12:50:35Z</time>
      </trkpt>
      <trkpt lat="40.4694280" lon="-8.4484260">
        <ele>51.8</ele>
        <time>2015-03-22T12:50:41Z</time>
      </trkpt>
      <trkpt lat="40.4700180" lon="-8.4486870">
        <ele>51.1</ele>
        <time>2015-03-22T12:50:56Z</time>
      </trkpt>
      <trkpt lat="40.4704060" lon="-8.4488340">
        <ele>51.2</ele>
        <time>2015-03-22T12:51:05Z</time>
      </trkpt>
      <trkpt lat="40.4707600" lon="-8.4489370">
        <ele>49.7</ele>
        <time>2015-03-22T12:51:13Z</time>
      </trkpt>
      <trkpt lat="40.4709000" lon="-8.4489660">
        <ele>49.4</ele>
        <time>2015-03-22T12:51:16Z</time>
      </trkpt>
      <trkpt lat="40.4713760" lon="-8.4492810">
        <ele>45.4</ele>
        <time>2015-03-22T12:51:26Z</time>
      </trkpt>
      <trkpt lat="40.4717570" lon="-8.4497340">
        <ele>39.0</ele>
        <time>2015-03-22T12:51:32Z</time>
      </trkpt>
      <trkpt lat="40.4720360" lon="-8.4500770">
        <ele>35.8</ele>
        <time>2015-03-22T12:51:36Z</time>
      </trkpt>
      <trkpt lat="40.4723360" lon="-8.4504740">
        <ele>32.4</ele>
        <time>2015-03-22T12:51:40Z</time>
      </trkpt>
      <trkpt lat="40.4726520" lon="-8.4508710">
        <ele>30.3</ele>
        <time>2015-03-22T12:51:44Z</time>
      </trkpt>
      <trkpt lat="40.4729460" lon="-8.4512690">
        <ele>29.4</ele>
        <time>2015-03-22T12:51:48Z</time>
      </trkpt>
      <trkpt lat="40.4730880" lon="-8.4514480">
        <ele>28.8</ele>
        <time>2015-03-22T12:51:50Z</time>
      </trkpt>
      <trkpt lat="40.4732220" lon="-8.4516070">
        <ele>28.1</ele>
        <time>2015-03-22T12:51:52Z</time>
      </trkpt>
      <trkpt lat="40.4733940" lon="-8.4518650">
        <ele>27.1</ele>
        <time>2015-03-22T12:51:55Z</time>
      </trkpt>
      <trkpt lat="40.4742670" lon="-8.4528040">
        <ele>25.7</ele>
        <time>2015-03-22T12:52:10Z</time>
      </trkpt>
      <trkpt lat="40.4746910" lon="-8.4531030">
        <ele>24.6</ele>
        <time>2015-03-22T12:52:17Z</time>
      </trkpt>
      <trkpt lat="40.4749600" lon="-8.4533260">
        <ele>23.4</ele>
        <time>2015-03-22T12:52:22Z</time>
      </trkpt>
      <trkpt lat="40.4751550" lon="-8.4536240">
        <ele>21.7</ele>
        <time>2015-03-22T12:52:30Z</time>
      </trkpt>
      <trkpt lat="40.4752050" lon="-8.4536000">
        <ele>21.7</ele>
        <time>2015-03-22T12:52:45Z</time>
      </trkpt>
      <trkpt lat="40.4754300" lon="-8.4537050">
        <ele>21.6</ele>
        <time>2015-03-22T13:06:23Z</time>
      </trkpt>
      <trkpt lat="40.4757500" lon="-8.4537580">
        <ele>21.6</ele>
        <time>2015-03-22T13:06:36Z</time>
      </trkpt>
      <trkpt lat="40.4761270" lon="-8.4537280">
        <ele>21.7</ele>
        <time>2015-03-22T13:06:49Z</time>
      </trkpt>
      <trkpt lat="40.4765590" lon="-8.4534070">
        <ele>22.0</ele>
        <time>2015-03-22T13:07:05Z</time>
      </trkpt>
      <trkpt lat="40.4770280" lon="-8.4531120">
        <ele>22.7</ele>
        <time>2015-03-22T13:07:22Z</time>
      </trkpt>
      <trkpt lat="40.4773060" lon="-8.4532370">
        <ele>22.7</ele>
        <time>2015-03-22T13:07:32Z</time>
      </trkpt>
      <trkpt lat="40.4774000" lon="-8.4533490">
        <ele>22.5</ele>
        <time>2015-03-22T13:07:36Z</time>
      </trkpt>
      <trkpt lat="40.4778580" lon="-8.4533810">
        <ele>22.5</ele>
        <time>2015-03-22T13:07:50Z</time>
      </trkpt>
      <trkpt lat="40.4783520" lon="-8.4533710">
        <ele>22.5</ele>
        <time>2015-03-22T13:08:05Z</time>
      </trkpt>
      <trkpt lat="40.4787420" lon="-8.4533430">
        <ele>23.5</ele>
        <time>2015-03-22T13:08:17Z</time>
      </trkpt>
      <trkpt lat="40.4788370" lon="-8.4533290">
        <ele>23.8</ele>
        <time>2015-03-22T13:08:20Z</time>
      </trkpt>
      <trkpt lat="40.4792500" lon="-8.4533350">
        <ele>25.0</ele>
        <time>2015-03-22T13:08:35Z</time>
      </trkpt>
      <trkpt lat="40.4795390" lon="-8.4533420">
        <ele>25.7</ele>
        <time>2015-03-22T13:08:45Z</time>
      </trkpt>
      <trkpt lat="40.4799620" lon="-8.4533290">
        <ele>26.7</ele>
        <time>2015-03-22T13:08:59Z</time>
      </trkpt>
      <trkpt lat="40.4804910" lon="-8.4533470">
        <ele>27.9</ele>
        <time>2015-03-22T13:09:17Z</time>
      </trkpt>
      <trkpt lat="40.4805640" lon="-8.4533750">
        <ele>28.0</ele>
        <time>2015-03-22T13:09:28Z</time>
      </trkpt>
      <trkpt lat="40.4806590" lon="-8.4533890">
        <ele>28.1</ele>
        <time>2015-03-22T13:09:50Z</time>
      </trkpt>
      <trkpt lat="40.4810790" lon="-8.4533960">
        <ele>28.4</ele>
        <time>2015-03-22T13:10:04Z</time>
      </trkpt>
      <trkpt lat="40.4816780" lon="-8.4533920">
        <ele>27.1</ele>
        <time>2015-03-22T13:10:21Z</time>
      </trkpt>
      <trkpt lat="40.4823060" lon="-8.4534300">
        <ele>29.0</ele>
        <time>2015-03-22T13:10:38Z</time>
      </trkpt>
      <trkpt lat="40.4831510" lon="-8.4535010">
        <ele>27.6</ele>
        <time>2015-03-22T13:10:59Z</time>
      </trkpt>
      <trkpt lat="40.4833130" lon="-8.4535190">
        <ele>27.4</ele>
        <time>2015-03-22T13:11:03Z</time>
      </trkpt>
      <trkpt lat="40.4839720" lon="-8.4536040">
        <ele>26.8</ele>
        <time>2015-03-22T13:11:17Z</time>
      </trkpt>
      <trkpt lat="40.4845470" lon="-8.4539650">
        <ele>25.9</ele>
        <time>2015-03-22T13:11:31Z</time>
      </trkpt>
      <trkpt lat="40.4850930" lon="-8.4543180">
        <ele>25.6</ele>
        <time>2015-03-22T13:11:45Z</time>
      </trkpt>
      <trkpt lat="40.4857840" lon="-8.4547450">
        <ele>24.2</ele>
        <time>2015-03-22T13:11:57Z</time>
      </trkpt>
      <trkpt lat="40.4867470" lon="-8.4550950">
        <ele>22.8</ele>
        <time>2015-03-22T13:12:14Z</time>
      </trkpt>
      <trkpt lat="40.4875180" lon="-8.4553140">
        <ele>22.1</ele>
        <time>2015-03-22T13:12:32Z</time>
      </trkpt>
      <trkpt lat="40.4882960" lon="-8.4555430">
        <ele>20.6</ele>
        <time>2015-03-22T13:12:49Z</time>
      </trkpt>
      <trkpt lat="40.4890550" lon="-8.4555390">
        <ele>20.4</ele>
        <time>2015-03-22T13:13:06Z</time>
      </trkpt>
      <trkpt lat="40.4898310" lon="-8.4552960">
        <ele>18.9</ele>
        <time>2015-03-22T13:13:23Z</time>
      </trkpt>
      <trkpt lat="40.4906740" lon="-8.4550130">
        <ele>19.0</ele>
        <time>2015-03-22T13:13:41Z</time>
      </trkpt>
      <trkpt lat="40.4914610" lon="-8.4547670">
        <ele>18.9</ele>
        <time>2015-03-22T13:13:59Z</time>
      </trkpt>
      <trkpt lat="40.4920360" lon="-8.4546320">
        <ele>20.7</ele>
        <time>2015-03-22T13:14:14Z</time>
      </trkpt>
      <trkpt lat="40.4925280" lon="-8.4545540">
        <ele>22.6</ele>
        <time>2015-03-22T13:14:28Z</time>
      </trkpt>
      <trkpt lat="40.4931300" lon="-8.4543960">
        <ele>23.3</ele>
        <time>2015-03-22T13:14:43Z</time>
      </trkpt>
      <trkpt lat="40.4932700" lon="-8.4543600">
        <ele>23.2</ele>
        <time>2015-03-22T13:14:46Z</time>
      </trkpt>
      <trkpt lat="40.4935450" lon="-8.4542910">
        <ele>22.8</ele>
        <time>2015-03-22T13:14:52Z</time>
      </trkpt>
      <trkpt lat="40.4939720" lon="-8.4542200">
        <ele>22.0</ele>
        <time>2015-03-22T13:15:01Z</time>
      </trkpt>
      <trkpt lat="40.4946310" lon="-8.4541540">
        <ele>21.4</ele>
        <time>2015-03-22T13:15:17Z</time>
      </trkpt>
      <trkpt lat="40.4951170" lon="-8.4538500">
        <ele>22.7</ele>
        <time>2015-03-22T13:15:31Z</time>
      </trkpt>
      <trkpt lat="40.4952890" lon="-8.4538170">
        <ele>22.7</ele>
        <time>2015-03-22T13:15:36Z</time>
      </trkpt>
      <trkpt lat="40.4957240" lon="-8.4538830">
        <ele>22.7</ele>
        <time>2015-03-22T13:15:46Z</time>
      </trkpt>
      <trkpt lat="40.4966750" lon="-8.4540300">
        <ele>22.7</ele>
        <time>2015-03-22T13:16:07Z</time>
      </trkpt>
      <trkpt lat="40.4974920" lon="-8.4543480">
        <ele>22.3</ele>
        <time>2015-03-22T13:16:25Z</time>
      </trkpt>
      <trkpt lat="40.4983590" lon="-8.4548590">
        <ele>22.0</ele>
        <time>2015-03-22T13:16:45Z</time>
      </trkpt>
      <trkpt lat="40.4988130" lon="-8.4551950">
        <ele>21.7</ele>
        <time>2015-03-22T13:16:56Z</time>
      </trkpt>
      <trkpt lat="40.4988740" lon="-8.4552060">
        <ele>21.7</ele>
        <time>2015-03-22T13:17:06Z</time>
      </trkpt>
      <trkpt lat="40.4991640" lon="-8.4554650">
        <ele>21.7</ele>
        <time>2015-03-22T13:18:08Z</time>
      </trkpt>
      <trkpt lat="40.4997360" lon="-8.4558320">
        <ele>22.1</ele>
        <time>2015-03-22T13:18:24Z</time>
      </trkpt>
      <trkpt lat="40.5004200" lon="-8.4554070">
        <ele>22.3</ele>
        <time>2015-03-22T13:18:42Z</time>
      </trkpt>
      <trkpt lat="40.5009700" lon="-8.4548000">
        <ele>24.4</ele>
        <time>2015-03-22T13:19:00Z</time>
      </trkpt>
      <trkpt lat="40.5015920" lon="-8.4542570">
        <ele>26.0</ele>
        <time>2015-03-22T13:19:20Z</time>
      </trkpt>
      <trkpt lat="40.5019830" lon="-8.4539720">
        <ele>28.1</ele>
        <time>2015-03-22T13:19:37Z</time>
      </trkpt>
      <trkpt lat="40.5022760" lon="-8.4537500">
        <ele>31.2</ele>
        <time>2015-03-22T13:19:54Z</time>
      </trkpt>
      <trkpt lat="40.5025410" lon="-8.4535400">
        <ele>32.7</ele>
        <time>2015-03-22T13:20:10Z</time>
      </trkpt>
      <trkpt lat="40.5028580" lon="-8.4532990">
        <ele>34.1</ele>
        <time>2015-03-22T13:20:29Z</time>
      </trkpt>
      <trkpt lat="40.5032250" lon="-8.4530380">
        <ele>34.7</ele>
        <time>2015-03-22T13:20:50Z</time>
      </trkpt>
      <trkpt lat="40.5037030" lon="-8.4528570">
        <ele>34.8</ele>
        <time>2015-03-22T13:21:07Z</time>
      </trkpt>
      <trkpt lat="40.5040640" lon="-8.4527690">
        <ele>34.5</ele>
        <time>2015-03-22T13:21:16Z</time>
      </trkpt>
      <trkpt lat="40.5046240" lon="-8.4527300">
        <ele>36.3</ele>
        <time>2015-03-22T13:21:26Z</time>
      </trkpt>
      <trkpt lat="40.5047600" lon="-8.4527350">
        <ele>36.6</ele>
        <time>2015-03-22T13:21:28Z</time>
      </trkpt>
      <trkpt lat="40.5052510" lon="-8.4527090">
        <ele>32.3</ele>
        <time>2015-03-22T13:21:35Z</time>
      </trkpt>
      <trkpt lat="40.5053910" lon="-8.4527040">
        <ele>30.9</ele>
        <time>2015-03-22T13:21:37Z</time>
      </trkpt>
      <trkpt lat="40.5059110" lon="-8.4527660">
        <ele>26.8</ele>
        <time>2015-03-22T13:21:44Z</time>
      </trkpt>
      <trkpt lat="40.5064090" lon="-8.4529520">
        <ele>22.4</ele>
        <time>2015-03-22T13:21:50Z</time>
      </trkpt>
      <trkpt lat="40.5064950" lon="-8.4530170">
        <ele>21.5</ele>
        <time>2015-03-22T13:21:51Z</time>
      </trkpt>
      <trkpt lat="40.5068910" lon="-8.4533400">
        <ele>18.2</ele>
        <time>2015-03-22T13:21:56Z</time>
      </trkpt>
      <trkpt lat="40.5071930" lon="-8.4535550">
        <ele>18.2</ele>
        <time>2015-03-22T13:22:00Z</time>
      </trkpt>
      <trkpt lat="40.5074660" lon="-8.4536350">
        <ele>20.1</ele>
        <time>2015-03-22T13:22:04Z</time>
      </trkpt>
      <trkpt lat="40.5078570" lon="-8.4535990">
        <ele>21.1</ele>
        <time>2015-03-22T13:22:15Z</time>
      </trkpt>
      <trkpt lat="40.5082110" lon="-8.4534520">
        <ele>21.1</ele>
        <time>2015-03-22T13:22:31Z</time>
      </trkpt>
      <trkpt lat="40.5085450" lon="-8.4533410">
        <ele>22.2</ele>
        <time>2015-03-22T13:22:46Z</time>
      </trkpt>
      <trkpt lat="40.5089310" lon="-8.4531520">
        <ele>24.5</ele>
        <time>2015-03-22T13:23:05Z</time>
      </trkpt>
      <trkpt lat="40.5092300" lon="-8.4529750">
        <ele>26.4</ele>
        <time>2015-03-22T13:23:21Z</time>
      </trkpt>
      <trkpt lat="40.5095710" lon="-8.4528670">
        <ele>28.8</ele>
        <time>2015-03-22T13:23:39Z</time>
      </trkpt>
      <trkpt lat="40.5098130" lon="-8.4529030">
        <ele>30.9</ele>
        <time>2015-03-22T13:23:51Z</time>
      </trkpt>
      <trkpt lat="40.5101410" lon="-8.4530540">
        <ele>32.4</ele>
        <time>2015-03-22T13:24:07Z</time>
      </trkpt>
      <trkpt lat="40.5104770" lon="-8.4531700">
        <ele>33.1</ele>
        <time>2015-03-22T13:24:20Z</time>
      </trkpt>
      <trkpt lat="40.5110170" lon="-8.4532140">
        <ele>33.7</ele>
        <time>2015-03-22T13:24:35Z</time>
      </trkpt>
      <trkpt lat="40.5114920" lon="-8.4533340">
        <ele>33.6</ele>
        <time>2015-03-22T13:24:49Z</time>
      </trkpt>
      <trkpt lat="40.5120360" lon="-8.4535900">
        <ele>33.5</ele>
        <time>2015-03-22T13:25:06Z</time>
      </trkpt>
      <trkpt lat="40.5125090" lon="-8.4536370">
        <ele>33.9</ele>
        <time>2015-03-22T13:25:19Z</time>
      </trkpt>
      <trkpt lat="40.5130600" lon="-8.4537960">
        <ele>34.1</ele>
        <time>2015-03-22T13:25:35Z</time>
      </trkpt>
      <trkpt lat="40.5132620" lon="-8.4538120">
        <ele>34.2</ele>
        <time>2015-03-22T13:25:47Z</time>
      </trkpt>
      <trkpt lat="40.5134200" lon="-8.4539250">
        <ele>34.0</ele>
        <time>2015-03-22T13:26:23Z</time>
      </trkpt>
      <trkpt lat="40.5136710" lon="-8.4541310">
        <ele>33.9</ele>
        <time>2015-03-22T13:26:32Z</time>
      </trkpt>
      <trkpt lat="40.5138770" lon="-8.4543810">
        <ele>33.9</ele>
        <time>2015-03-22T13:26:38Z</time>
      </trkpt>
      <trkpt lat="40.5141950" lon="-8.4545530">
        <ele>33.7</ele>
        <time>2015-03-22T13:26:44Z</time>
      </trkpt>
      <trkpt lat="40.5146370" lon="-8.4546790">
        <ele>28.9</ele>
        <time>2015-03-22T13:26:50Z</time>
      </trkpt>
      <trkpt lat="40.5151070" lon="-8.4547850">
        <ele>23.6</ele>
        <time>2015-03-22T13:26:55Z</time>
      </trkpt>
      <trkpt lat="40.5153910" lon="-8.4548450">
        <ele>20.7</ele>
        <time>2015-03-22T13:26:58Z</time>
      </trkpt>
      <trkpt lat="40.5156090" lon="-8.4549020">
        <ele>18.2</ele>
        <time>2015-03-22T13:27:01Z</time>
      </trkpt>
      <trkpt lat="40.5158370" lon="-8.4549630">
        <ele>16.0</ele>
        <time>2015-03-22T13:27:08Z</time>
      </trkpt>
      <trkpt lat="40.5165380" lon="-8.4551560">
        <ele>12.9</ele>
        <time>2015-03-22T13:27:26Z</time>
      </trkpt>
      <trkpt lat="40.5172710" lon="-8.4553610">
        <ele>11.6</ele>
        <time>2015-03-22T13:27:43Z</time>
      </trkpt>
      <trkpt lat="40.5176870" lon="-8.4554200">
        <ele>12.5</ele>
        <time>2015-03-22T13:27:55Z</time>
      </trkpt>
      <trkpt lat="40.5177380" lon="-8.4553690">
        <ele>12.6</ele>
        <time>2015-03-22T13:27:59Z</time>
      </trkpt>
      <trkpt lat="40.5178280" lon="-8.4553750">
        <ele>12.8</ele>
        <time>2015-03-22T13:28:04Z</time>
      </trkpt>
      <trkpt lat="40.5179810" lon="-8.4555460">
        <ele>13.4</ele>
        <time>2015-03-22T13:28:10Z</time>
      </trkpt>
      <trkpt lat="40.5185670" lon="-8.4557450">
        <ele>14.6</ele>
        <time>2015-03-22T13:28:26Z</time>
      </trkpt>
      <trkpt lat="40.5189400" lon="-8.4562440">
        <ele>15.5</ele>
        <time>2015-03-22T13:28:41Z</time>
      </trkpt>
      <trkpt lat="40.5193430" lon="-8.4568330">
        <ele>16.6</ele>
        <time>2015-03-22T13:28:58Z</time>
      </trkpt>
      <trkpt lat="40.5197200" lon="-8.4570250">
        <ele>18.0</ele>
        <time>2015-03-22T13:29:11Z</time>
      </trkpt>
      <trkpt lat="40.5201430" lon="-8.4570440">
        <ele>20.8</ele>
        <time>2015-03-22T13:29:27Z</time>
      </trkpt>
      <trkpt lat="40.5205350" lon="-8.4569450">
        <ele>23.6</ele>
        <time>2015-03-22T13:29:45Z</time>
      </trkpt>
      <trkpt lat="40.5207570" lon="-8.4567870">
        <ele>25.4</ele>
        <time>2015-03-22T13:30:00Z</time>
      </trkpt>
      <trkpt lat="40.5210270" lon="-8.4566530">
        <ele>27.4</ele>
        <time>2015-03-22T13:30:18Z</time>
      </trkpt>
      <trkpt lat="40.5212690" lon="-8.4565790">
        <ele>28.6</ele>
        <time>2015-03-22T13:30:34Z</time>
      </trkpt>
      <trkpt lat="40.5215850" lon="-8.4565410">
        <ele>30.2</ele>
        <time>2015-03-22T13:30:51Z</time>
      </trkpt>
      <trkpt lat="40.5218960" lon="-8.4565540">
        <ele>31.0</ele>
        <time>2015-03-22T13:31:06Z</time>
      </trkpt>
      <trkpt lat="40.5222150" lon="-8.4565750">
        <ele>32.1</ele>
        <time>2015-03-22T13:31:20Z</time>
      </trkpt>
      <trkpt lat="40.5226360" lon="-8.4566340">
        <ele>33.9</ele>
        <time>2015-03-22T13:31:34Z</time>
      </trkpt>
      <trkpt lat="40.5231040" lon="-8.4566780">
        <ele>36.1</ele>
        <time>2015-03-22T13:31:48Z</time>
      </trkpt>
      <trkpt lat="40.5236870" lon="-8.4567740">
        <ele>39.4</ele>
        <time>2015-03-22T13:32:05Z</time>
      </trkpt>
      <trkpt lat="40.5242850" lon="-8.4569240">
        <ele>40.9</ele>
        <time>2015-03-22T13:32:22Z</time>
      </trkpt>
      <trkpt lat="40.5249490" lon="-8.4568480">
        <ele>42.5</ele>
        <time>2015-03-22T13:32:41Z</time>
      </trkpt>
      <trkpt lat="40.5255770" lon="-8.4567090">
        <ele>44.2</ele>
        <time>2015-03-22T13:32:59Z</time>
      </trkpt>
      <trkpt lat="40.5261210" lon="-8.4565120">
        <ele>46.3</ele>
        <time>2015-03-22T13:33:15Z</time>
      </trkpt>
      <trkpt lat="40.5265710" lon="-8.4564190">
        <ele>48.1</ele>
        <time>2015-03-22T13:33:28Z</time>
      </trkpt>
      <trkpt lat="40.5270860" lon="-8.4564060">
        <ele>47.6</ele>
        <time>2015-03-22T13:33:42Z</time>
      </trkpt>
      <trkpt lat="40.5275150" lon="-8.4564270">
        <ele>46.2</ele>
        <time>2015-03-22T13:33:55Z</time>
      </trkpt>
      <trkpt lat="40.5280230" lon="-8.4564230">
        <ele>44.8</ele>
        <time>2015-03-22T13:34:08Z</time>
      </trkpt>
      <trkpt lat="40.5281300" lon="-8.4564200">
        <ele>44.2</ele>
        <time>2015-03-22T13:34:10Z</time>
      </trkpt>
      <trkpt lat="40.5289210" lon="-8.4563570">
        <ele>39.4</ele>
        <time>2015-03-22T13:34:22Z</time>
      </trkpt>
      <trkpt lat="40.5290910" lon="-8.4560900">
        <ele>39.1</ele>
        <time>2015-03-22T13:34:28Z</time>
      </trkpt>
      <trkpt lat="40.5290740" lon="-8.4560210">
        <ele>39.1</ele>
        <time>2015-03-22T13:34:37Z</time>
      </trkpt>
      <trkpt lat="40.5290990" lon="-8.4558630">
        <ele>39.0</ele>
        <time>2015-03-22T13:34:59Z</time>
      </trkpt>
      <trkpt lat="40.5291750" lon="-8.4552400">
        <ele>39.3</ele>
        <time>2015-03-22T13:35:14Z</time>
      </trkpt>
      <trkpt lat="40.5292500" lon="-8.4546050">
        <ele>40.6</ele>
        <time>2015-03-22T13:35:28Z</time>
      </trkpt>
      <trkpt lat="40.5293150" lon="-8.4542010">
        <ele>42.3</ele>
        <time>2015-03-22T13:35:41Z</time>
      </trkpt>
      <trkpt lat="40.5294040" lon="-8.4536400">
        <ele>44.6</ele>
        <time>2015-03-22T13:36:00Z</time>
      </trkpt>
      <trkpt lat="40.5294730" lon="-8.4530630">
        <ele>43.6</ele>
        <time>2015-03-22T13:36:19Z</time>
      </trkpt>
      <trkpt lat="40.5295360" lon="-8.4524920">
        <ele>44.7</ele>
        <time>2015-03-22T13:36:38Z</time>
      </trkpt>
      <trkpt lat="40.5296030" lon="-8.4519490">
        <ele>45.5</ele>
        <time>2015-03-22T13:36:56Z</time>
      </trkpt>
      <trkpt lat="40.5298000" lon="-8.4516640">
        <ele>46.1</ele>
        <time>2015-03-22T13:37:10Z</time>
      </trkpt>
      <trkpt lat="40.5302200" lon="-8.4519800">
        <ele>46.5</ele>
        <time>2015-03-22T13:37:26Z</time>
      </trkpt>
      <trkpt lat="40.5307370" lon="-8.4521960">
        <ele>47.3</ele>
        <time>2015-03-22T13:37:42Z</time>
      </trkpt>
      <trkpt lat="40.5312940" lon="-8.4524200">
        <ele>49.3</ele>
        <time>2015-03-22T13:37:59Z</time>
      </trkpt>
      <trkpt lat="40.5319670" lon="-8.4527240">
        <ele>50.9</ele>
        <time>2015-03-22T13:38:19Z</time>
      </trkpt>
      <trkpt lat="40.5325290" lon="-8.4530840">
        <ele>52.2</ele>
        <time>2015-03-22T13:38:37Z</time>
      </trkpt>
      <trkpt lat="40.5329580" lon="-8.4534690">
        <ele>53.4</ele>
        <time>2015-03-22T13:38:53Z</time>
      </trkpt>
      <trkpt lat="40.5333820" lon="-8.4539250">
        <ele>55.1</ele>
        <time>2015-03-22T13:39:08Z</time>
      </trkpt>
      <trkpt lat="40.5339720" lon="-8.4545230">
        <ele>55.5</ele>
        <time>2015-03-22T13:39:28Z</time>
      </trkpt>
      <trkpt lat="40.5344660" lon="-8.4549620">
        <ele>53.1</ele>
        <time>2015-03-22T13:39:44Z</time>
      </trkpt>
      <trkpt lat="40.5350390" lon="-8.4552820">
        <ele>55.1</ele>
        <time>2015-03-22T13:40:00Z</time>
      </trkpt>
      <trkpt lat="40.5353100" lon="-8.4553330">
        <ele>55.2</ele>
        <time>2015-03-22T13:40:07Z</time>
      </trkpt>
      <trkpt lat="40.5359470" lon="-8.4552920">
        <ele>54.9</ele>
        <time>2015-03-22T13:40:24Z</time>
      </trkpt>
      <trkpt lat="40.5366530" lon="-8.4552090">
        <ele>54.4</ele>
        <time>2015-03-22T13:40:41Z</time>
      </trkpt>
      <trkpt lat="40.5367790" lon="-8.4552370">
        <ele>54.6</ele>
        <time>2015-03-22T13:40:44Z</time>
      </trkpt>
      <trkpt lat="40.5373240" lon="-8.4552490">
        <ele>55.0</ele>
        <time>2015-03-22T13:40:57Z</time>
      </trkpt>
      <trkpt lat="40.5381230" lon="-8.4552480">
        <ele>55.1</ele>
        <time>2015-03-22T13:41:17Z</time>
      </trkpt>
      <trkpt lat="40.5384050" lon="-8.4552180">
        <ele>55.1</ele>
        <time>2015-03-22T13:41:24Z</time>
      </trkpt>
      <trkpt lat="40.5384880" lon="-8.4552010">
        <ele>55.1</ele>
        <time>2015-03-22T13:41:26Z</time>
      </trkpt>
      <trkpt lat="40.5389890" lon="-8.4550720">
        <ele>56.5</ele>
        <time>2015-03-22T13:41:40Z</time>
      </trkpt>
      <trkpt lat="40.5397370" lon="-8.4548780">
        <ele>58.5</ele>
        <time>2015-03-22T13:42:01Z</time>
      </trkpt>
      <trkpt lat="40.5403740" lon="-8.4547040">
        <ele>61.0</ele>
        <time>2015-03-22T13:42:19Z</time>
      </trkpt>
      <trkpt lat="40.5409590" lon="-8.4545560">
        <ele>65.6</ele>
        <time>2015-03-22T13:42:36Z</time>
      </trkpt>
      <trkpt lat="40.5414020" lon="-8.4544410">
        <ele>66.8</ele>
        <time>2015-03-22T13:42:51Z</time>
      </trkpt>
      <trkpt lat="40.5421210" lon="-8.4542390">
        <ele>67.6</ele>
        <time>2015-03-22T13:43:12Z</time>
      </trkpt>
      <trkpt lat="40.5427550" lon="-8.4540790">
        <ele>68.4</ele>
        <time>2015-03-22T13:43:30Z</time>
      </trkpt>
      <trkpt lat="40.5434140" lon="-8.4539140">
        <ele>69.4</ele>
        <time>2015-03-22T13:43:49Z</time>
      </trkpt>
      <trkpt lat="40.5440910" lon="-8.4537330">
        <ele>67.7</ele>
        <time>2015-03-22T13:44:06Z</time>
      </trkpt>
      <trkpt lat="40.5441370" lon="-8.4537220">
        <ele>67.5</ele>
        <time>2015-03-22T13:44:07Z</time>
      </trkpt>
      <trkpt lat="40.5450160" lon="-8.4535730">
        <ele>64.0</ele>
        <time>2015-03-22T13:44:25Z</time>
      </trkpt>
      <trkpt lat="40.5454640" lon="-8.4536030">
        <ele>62.3</ele>
        <time>2015-03-22T13:44:34Z</time>
      </trkpt>
      <trkpt lat="40.5455110" lon="-8.4536120">
        <ele>62.2</ele>
        <time>2015-03-22T13:44:35Z</time>
      </trkpt>
      <trkpt lat="40.5458620" lon="-8.4537570">
        <ele>60.8</ele>
        <time>2015-03-22T13:44:42Z</time>
      </trkpt>
      <trkpt lat="40.5460380" lon="-8.4535790">
        <ele>60.3</ele>
        <time>2015-03-22T13:44:47Z</time>
      </trkpt>
      <trkpt lat="40.5460780" lon="-8.4533210">
        <ele>60.3</ele>
        <time>2015-03-22T13:44:51Z</time>
      </trkpt>
      <trkpt lat="40.5463740" lon="-8.4530770">
        <ele>58.1</ele>
        <time>2015-03-22T13:45:01Z</time>
      </trkpt>
      <trkpt lat="40.5470720" lon="-8.4528450">
        <ele>60.0</ele>
        <time>2015-03-22T13:45:21Z</time>
      </trkpt>
      <trkpt lat="40.5477370" lon="-8.4526570">
        <ele>60.7</ele>
        <time>2015-03-22T13:45:39Z</time>
      </trkpt>
      <trkpt lat="40.5484480" lon="-8.4524450">
        <ele>62.0</ele>
        <time>2015-03-22T13:45:58Z</time>
      </trkpt>
      <trkpt lat="40.5491210" lon="-8.4522550">
        <ele>60.3</ele>
        <time>2015-03-22T13:46:14Z</time>
      </trkpt>
      <trkpt lat="40.5500330" lon="-8.4519630">
        <ele>59.7</ele>
        <time>2015-03-22T13:46:28Z</time>
      </trkpt>
      <trkpt lat="40.5506800" lon="-8.4516890">
        <ele>58.4</ele>
        <time>2015-03-22T13:46:39Z</time>
      </trkpt>
      <trkpt lat="40.5511440" lon="-8.4511340">
        <ele>57.9</ele>
        <time>2015-03-22T13:46:54Z</time>
      </trkpt>
      <trkpt lat="40.5515610" lon="-8.4505480">
        <ele>59.2</ele>
        <time>2015-03-22T13:47:11Z</time>
      </trkpt>
      <trkpt lat="40.5520320" lon="-8.4498700">
        <ele>61.4</ele>
        <time>2015-03-22T13:47:31Z</time>
      </trkpt>
      <trkpt lat="40.5525340" lon="-8.4491940">
        <ele>63.3</ele>
        <time>2015-03-22T13:47:51Z</time>
      </trkpt>
      <trkpt lat="40.5530960" lon="-8.4488670">
        <ele>64.2</ele>
        <time>2015-03-22T13:48:08Z</time>
      </trkpt>
      <trkpt lat="40.5537190" lon="-8.4489420">
        <ele>62.1</ele>
        <time>2015-03-22T13:48:24Z</time>
      </trkpt>
      <trkpt lat="40.5542450" lon="-8.4490270">
        <ele>60.4</ele>
        <time>2015-03-22T13:48:37Z</time>
      </trkpt>
      <trkpt lat="40.5543260" lon="-8.4490460">
        <ele>60.3</ele>
        <time>2015-03-22T13:48:39Z</time>
      </trkpt>
      <trkpt lat="40.5549490" lon="-8.4491460">
        <ele>59.8</ele>
        <time>2015-03-22T13:48:55Z</time>
      </trkpt>
      <trkpt lat="40.5557370" lon="-8.4492490">
        <ele>59.4</ele>
        <time>2015-03-22T13:49:13Z</time>
      </trkpt>
      <trkpt lat="40.5559580" lon="-8.4492110">
        <ele>59.3</ele>
        <time>2015-03-22T13:49:18Z</time>
      </trkpt>
      <trkpt lat="40.5562720" lon="-8.4490000">
        <ele>59.2</ele>
        <time>2015-03-22T13:49:26Z</time>
      </trkpt>
      <trkpt lat="40.5568260" lon="-8.4481960">
        <ele>59.5</ele>
        <time>2015-03-22T13:49:45Z</time>
      </trkpt>
      <trkpt lat="40.5572860" lon="-8.4476220">
        <ele>59.9</ele>
        <time>2015-03-22T13:50:00Z</time>
      </trkpt>
      <trkpt lat="40.5574070" lon="-8.4475650">
        <ele>60.1</ele>
        <time>2015-03-22T13:50:03Z</time>
      </trkpt>
      <trkpt lat="40.5575670" lon="-8.4475110">
        <ele>60.5</ele>
        <time>2015-03-22T13:50:07Z</time>
      </trkpt>
      <trkpt lat="40.5583850" lon="-8.4471410">
        <ele>61.5</ele>
        <time>2015-03-22T13:50:28Z</time>
      </trkpt>
      <trkpt lat="40.5585300" lon="-8.4470440">
        <ele>61.4</ele>
        <time>2015-03-22T13:50:32Z</time>
      </trkpt>
      <trkpt lat="40.5590150" lon="-8.4466900">
        <ele>61.4</ele>
        <time>2015-03-22T13:50:45Z</time>
      </trkpt>
      <trkpt lat="40.5591680" lon="-8.4465850">
        <ele>61.4</ele>
        <time>2015-03-22T13:50:49Z</time>
      </trkpt>
      <trkpt lat="40.5593590" lon="-8.4464580">
        <ele>61.1</ele>
        <time>2015-03-22T13:50:54Z</time>
      </trkpt>
      <trkpt lat="40.5599390" lon="-8.4461080">
        <ele>57.1</ele>
        <time>2015-03-22T13:51:07Z</time>
      </trkpt>
      <trkpt lat="40.5602650" lon="-8.4460190">
        <ele>54.3</ele>
        <time>2015-03-22T13:51:11Z</time>
      </trkpt>
      <trkpt lat="40.5605700" lon="-8.4459710">
        <ele>51.5</ele>
        <time>2015-03-22T13:51:14Z</time>
      </trkpt>
      <trkpt lat="40.5607810" lon="-8.4459400">
        <ele>49.5</ele>
        <time>2015-03-22T13:51:16Z</time>
      </trkpt>
      <trkpt lat="40.5610260" lon="-8.4459190">
        <ele>47.3</ele>
        <time>2015-03-22T13:51:18Z</time>
      </trkpt>
      <trkpt lat="40.5612730" lon="-8.4458830">
        <ele>44.5</ele>
        <time>2015-03-22T13:51:20Z</time>
      </trkpt>
      <trkpt lat="40.5615260" lon="-8.4458360">
        <ele>41.8</ele>
        <time>2015-03-22T13:51:22Z</time>
      </trkpt>
      <trkpt lat="40.5619110" lon="-8.4457560">
        <ele>36.2</ele>
        <time>2015-03-22T13:51:25Z</time>
      </trkpt>
      <trkpt lat="40.5622950" lon="-8.4457450">
        <ele>30.7</ele>
        <time>2015-03-22T13:51:28Z</time>
      </trkpt>
      <trkpt lat="40.5626660" lon="-8.4457640">
        <ele>25.9</ele>
        <time>2015-03-22T13:51:31Z</time>
      </trkpt>
      <trkpt lat="40.5627770" lon="-8.4457700">
        <ele>24.7</ele>
        <time>2015-03-22T13:51:32Z</time>
      </trkpt>
      <trkpt lat="40.5631820" lon="-8.4457860">
        <ele>20.7</ele>
        <time>2015-03-22T13:51:37Z</time>
      </trkpt>
      <trkpt lat="40.5633620" lon="-8.4457100">
        <ele>19.3</ele>
        <time>2015-03-22T13:51:45Z</time>
      </trkpt>
      <trkpt lat="40.5636090" lon="-8.4455680">
        <ele>19.0</ele>
        <time>2015-03-22T13:51:52Z</time>
      </trkpt>
      <trkpt lat="40.5638510" lon="-8.4456990">
        <ele>19.1</ele>
        <time>2015-03-22T13:51:58Z</time>
      </trkpt>
      <trkpt lat="40.5642240" lon="-8.4460820">
        <ele>17.2</ele>
        <time>2015-03-22T13:52:08Z</time>
      </trkpt>
      <trkpt lat="40.5645470" lon="-8.4462770">
        <ele>16.5</ele>
        <time>2015-03-22T13:52:15Z</time>
      </trkpt>
      <trkpt lat="40.5651220" lon="-8.4464110">
        <ele>16.5</ele>
        <time>2015-03-22T13:52:27Z</time>
      </trkpt>
      <trkpt lat="40.5652060" lon="-8.4464570">
        <ele>16.4</ele>
        <time>2015-03-22T13:52:29Z</time>
      </trkpt>
      <trkpt lat="40.5652950" lon="-8.4465210">
        <ele>16.1</ele>
        <time>2015-03-22T13:52:31Z</time>
      </trkpt>
      <trkpt lat="40.5658600" lon="-8.4467630">
        <ele>16.4</ele>
        <time>2015-03-22T13:52:44Z</time>
      </trkpt>
      <trkpt lat="40.5659600" lon="-8.4467700">
        <ele>16.1</ele>
        <time>2015-03-22T13:52:47Z</time>
      </trkpt>
      <trkpt lat="40.5660410" lon="-8.4468550">
        <ele>15.9</ele>
        <time>2015-03-22T13:53:23Z</time>
      </trkpt>
      <trkpt lat="40.5661310" lon="-8.4468880">
        <ele>15.5</ele>
        <time>2015-03-22T13:53:35Z</time>
      </trkpt>
      <trkpt lat="40.5661900" lon="-8.4469430">
        <ele>15.0</ele>
        <time>2015-03-22T13:53:39Z</time>
      </trkpt>
      <trkpt lat="40.5666030" lon="-8.4471040">
        <ele>13.6</ele>
        <time>2015-03-22T13:53:52Z</time>
      </trkpt>
      <trkpt lat="40.5670110" lon="-8.4471740">
        <ele>11.8</ele>
        <time>2015-03-22T13:54:04Z</time>
      </trkpt>
      <trkpt lat="40.5672220" lon="-8.4471320">
        <ele>10.2</ele>
        <time>2015-03-22T13:54:10Z</time>
      </trkpt>
      <trkpt lat="40.5677400" lon="-8.4472610">
        <ele>8.4</ele>
        <time>2015-03-22T13:54:25Z</time>
      </trkpt>
      <trkpt lat="40.5681520" lon="-8.4473990">
        <ele>9.0</ele>
        <time>2015-03-22T13:54:37Z</time>
      </trkpt>
      <trkpt lat="40.5688120" lon="-8.4475320">
        <ele>10.0</ele>
        <time>2015-03-22T13:54:54Z</time>
      </trkpt>
      <trkpt lat="40.5689070" lon="-8.4475330">
        <ele>10.1</ele>
        <time>2015-03-22T13:54:57Z</time>
      </trkpt>
      <trkpt lat="40.5692550" lon="-8.4476030">
        <ele>11.0</ele>
        <time>2015-03-22T13:55:07Z</time>
      </trkpt>
      <trkpt lat="40.5698510" lon="-8.4477190">
        <ele>11.6</ele>
        <time>2015-03-22T13:55:23Z</time>
      </trkpt>
      <trkpt lat="40.5701150" lon="-8.4477780">
        <ele>11.6</ele>
        <time>2015-03-22T13:55:30Z</time>
      </trkpt>
      <trkpt lat="40.5703520" lon="-8.4478800">
        <ele>11.7</ele>
        <time>2015-03-22T13:55:36Z</time>
      </trkpt>
      <trkpt lat="40.5707250" lon="-8.4482260">
        <ele>12.6</ele>
        <time>2015-03-22T13:55:50Z</time>
      </trkpt>
      <trkpt lat="40.5709000" lon="-8.4483860">
        <ele>12.5</ele>
        <time>2015-03-22T13:56:00Z</time>
      </trkpt>
      <trkpt lat="40.5712320" lon="-8.4482240">
        <ele>14.0</ele>
        <time>2015-03-22T13:56:14Z</time>
      </trkpt>
      <trkpt lat="40.5717480" lon="-8.4479430">
        <ele>15.5</ele>
        <time>2015-03-22T13:56:33Z</time>
      </trkpt>
      <trkpt lat="40.5718860" lon="-8.4477260">
        <ele>16.6</ele>
        <time>2015-03-22T14:34:05Z</time>
      </trkpt>
      <trkpt lat="40.5720410" lon="-8.4477520">
        <ele>17.5</ele>
        <time>2015-03-22T14:34:16Z</time>
      </trkpt>
      <trkpt lat="40.5720790" lon="-8.4478980">
        <ele>17.9</ele>
        <time>2015-03-22T14:34:22Z</time>
      </trkpt>
      <trkpt lat="40.5720130" lon="-8.4481930">
        <ele>17.3</ele>
        <time>2015-03-22T14:34:32Z</time>
      </trkpt>
      <trkpt lat="40.5720210" lon="-8.4483180">
        <ele>17.2</ele>
        <time>2015-03-22T14:41:30Z</time>
      </trkpt>
      <trkpt lat="40.5720770" lon="-8.4488150">
        <ele>17.3</ele>
        <time>2015-03-22T14:41:44Z</time>
      </trkpt>
      <trkpt lat="40.5721230" lon="-8.4491920">
        <ele>17.2</ele>
        <time>2015-03-22T14:41:55Z</time>
      </trkpt>
      <trkpt lat="40.5721800" lon="-8.4493220">
        <ele>17.2</ele>
        <time>2015-03-22T14:42:00Z</time>
      </trkpt>
      <trkpt lat="40.5722640" lon="-8.4499640">
        <ele>16.4</ele>
        <time>2015-03-22T14:42:18Z</time>
      </trkpt>
      <trkpt lat="40.5723450" lon="-8.4505500">
        <ele>15.7</ele>
        <time>2015-03-22T14:42:34Z</time>
      </trkpt>
      <trkpt lat="40.5724050" lon="-8.4512590">
        <ele>13.9</ele>
        <time>2015-03-22T14:42:52Z</time>
      </trkpt>
      <trkpt lat="40.5725550" lon="-8.4518210">
        <ele>12.7</ele>
        <time>2015-03-22T14:43:07Z</time>
      </trkpt>
      <trkpt lat="40.5727660" lon="-8.4525180">
        <ele>12.9</ele>
        <time>2015-03-22T14:43:24Z</time>
      </trkpt>
      <trkpt lat="40.5729980" lon="-8.4532340">
        <ele>12.7</ele>
        <time>2015-03-22T14:43:42Z</time>
      </trkpt>
      <trkpt lat="40.5731170" lon="-8.4535690">
        <ele>13.2</ele>
        <time>2015-03-22T14:43:51Z</time>
      </trkpt>
      <trkpt lat="40.5733660" lon="-8.4536470">
        <ele>14.9</ele>
        <time>2015-03-22T14:44:00Z</time>
      </trkpt>
      <trkpt lat="40.5735020" lon="-8.4537480">
        <ele>16.2</ele>
        <time>2015-03-22T14:44:12Z</time>
      </trkpt>
      <trkpt lat="40.5736940" lon="-8.4537880">
        <ele>17.9</ele>
        <time>2015-03-22T14:44:25Z</time>
      </trkpt>
      <trkpt lat="40.5738010" lon="-8.4538210">
        <ele>19.4</ele>
        <time>2015-03-22T14:44:33Z</time>
      </trkpt>
      <trkpt lat="40.5739910" lon="-8.4536260">
        <ele>21.7</ele>
        <time>2015-03-22T14:44:49Z</time>
      </trkpt>
      <trkpt lat="40.5741860" lon="-8.4533290">
        <ele>23.9</ele>
        <time>2015-03-22T14:44:59Z</time>
      </trkpt>
      <trkpt lat="40.5744760" lon="-8.4531370">
        <ele>26.3</ele>
        <time>2015-03-22T14:45:06Z</time>
      </trkpt>
      <trkpt lat="40.5748220" lon="-8.4529660">
        <ele>26.2</ele>
        <time>2015-03-22T14:45:21Z</time>
      </trkpt>
      <trkpt lat="40.5750910" lon="-8.4526710">
        <ele>24.8</ele>
        <time>2015-03-22T14:45:37Z</time>
      </trkpt>
      <trkpt lat="40.5754730" lon="-8.4526700">
        <ele>25.2</ele>
        <time>2015-03-22T14:45:54Z</time>
      </trkpt>
      <trkpt lat="40.5757830" lon="-8.4527340">
        <ele>25.8</ele>
        <time>2015-03-22T14:46:11Z</time>
      </trkpt>
      <trkpt lat="40.5760510" lon="-8.4528010">
        <ele>26.7</ele>
        <time>2015-03-22T14:46:28Z</time>
      </trkpt>
      <trkpt lat="40.5762950" lon="-8.4528610">
        <ele>27.6</ele>
        <time>2015-03-22T14:46:45Z</time>
      </trkpt>
      <trkpt lat="40.5764970" lon="-8.4528890">
        <ele>28.2</ele>
        <time>2015-03-22T14:47:00Z</time>
      </trkpt>
      <trkpt lat="40.5766790" lon="-8.4529300">
        <ele>28.6</ele>
        <time>2015-03-22T14:47:13Z</time>
      </trkpt>
      <trkpt lat="40.5769000" lon="-8.4529240">
        <ele>29.2</ele>
        <time>2015-03-22T14:47:28Z</time>
      </trkpt>
      <trkpt lat="40.5769600" lon="-8.4529140">
        <ele>29.3</ele>
        <time>2015-03-22T14:47:33Z</time>
      </trkpt>
      <trkpt lat="40.5770350" lon="-8.4529840">
        <ele>29.5</ele>
        <time>2015-03-22T14:47:47Z</time>
      </trkpt>
      <trkpt lat="40.5770900" lon="-8.4529660">
        <ele>29.5</ele>
        <time>2015-03-22T14:48:01Z</time>
      </trkpt>
      <trkpt lat="40.5771620" lon="-8.4529210">
        <ele>29.2</ele>
        <time>2015-03-22T14:48:13Z</time>
      </trkpt>
      <trkpt lat="40.5772350" lon="-8.4528960">
        <ele>29.2</ele>
        <time>2015-03-22T14:48:39Z</time>
      </trkpt>
      <trkpt lat="40.5775000" lon="-8.4530270">
        <ele>29.0</ele>
        <time>2015-03-22T14:48:44Z</time>
      </trkpt>
      <trkpt lat="40.5775730" lon="-8.4530700">
        <ele>28.8</ele>
        <time>2015-03-22T14:48:45Z</time>
      </trkpt>
      <trkpt lat="40.5778650" lon="-8.4533580">
        <ele>27.4</ele>
        <time>2015-03-22T14:48:49Z</time>
      </trkpt>
      <trkpt lat="40.5783260" lon="-8.4537000">
        <ele>27.7</ele>
        <time>2015-03-22T14:48:54Z</time>
      </trkpt>
      <trkpt lat="40.5786130" lon="-8.4538200">
        <ele>27.9</ele>
        <time>2015-03-22T14:48:57Z</time>
      </trkpt>
      <trkpt lat="40.5788910" lon="-8.4540310">
        <ele>28.4</ele>
        <time>2015-03-22T14:49:01Z</time>
      </trkpt>
      <trkpt lat="40.5789350" lon="-8.4540860">
        <ele>28.5</ele>
        <time>2015-03-22T14:49:02Z</time>
      </trkpt>
      <trkpt lat="40.5791110" lon="-8.4543860">
        <ele>30.3</ele>
        <time>2015-03-22T14:49:13Z</time>
      </trkpt>
      <trkpt lat="40.5792490" lon="-8.4547330">
        <ele>33.2</ele>
        <time>2015-03-22T14:49:34Z</time>
      </trkpt>
      <trkpt lat="40.5793710" lon="-8.4550820">
        <ele>35.7</ele>
        <time>2015-03-22T14:49:55Z</time>
      </trkpt>
      <trkpt lat="40.5795180" lon="-8.4553010">
        <ele>37.6</ele>
        <time>2015-03-22T14:50:11Z</time>
      </trkpt>
      <trkpt lat="40.5796960" lon="-8.4555160">
        <ele>40.0</ele>
        <time>2015-03-22T14:50:29Z</time>
      </trkpt>
      <trkpt lat="40.5799260" lon="-8.4556550">
        <ele>42.3</ele>
        <time>2015-03-22T14:50:47Z</time>
      </trkpt>
      <trkpt lat="40.5800920" lon="-8.4557800">
        <ele>43.3</ele>
        <time>2015-03-22T14:51:01Z</time>
      </trkpt>
      <trkpt lat="40.5802110" lon="-8.4557720">
        <ele>44.0</ele>
        <time>2015-03-22T14:51:12Z</time>
      </trkpt>
      <trkpt lat="40.5802890" lon="-8.4557320">
        <ele>44.4</ele>
        <time>2015-03-22T14:51:20Z</time>
      </trkpt>
      <trkpt lat="40.5804120" lon="-8.4555360">
        <ele>46.4</ele>
        <time>2015-03-22T14:51:37Z</time>
      </trkpt>
      <trkpt lat="40.5804010" lon="-8.4554190">
        <ele>47.2</ele>
        <time>2015-03-22T14:51:45Z</time>
      </trkpt>
      <trkpt lat="40.5804450" lon="-8.4553530">
        <ele>47.9</ele>
        <time>2015-03-22T14:51:51Z</time>
      </trkpt>
      <trkpt lat="40.5804320" lon="-8.4551300">
        <ele>49.6</ele>
        <time>2015-03-22T14:52:07Z</time>
      </trkpt>
      <trkpt lat="40.5804840" lon="-8.4549540">
        <ele>51.1</ele>
        <time>2015-03-22T14:52:20Z</time>
      </trkpt>
      <trkpt lat="40.5805410" lon="-8.4548560">
        <ele>52.2</ele>
        <time>2015-03-22T14:52:29Z</time>
      </trkpt>
      <trkpt lat="40.5805860" lon="-8.4548140">
        <ele>53.0</ele>
        <time>2015-03-22T14:52:34Z</time>
      </trkpt>
      <trkpt lat="40.5807520" lon="-8.4547390">
        <ele>55.6</ele>
        <time>2015-03-22T14:52:49Z</time>
      </trkpt>
      <trkpt lat="40.5809500" lon="-8.4547340">
        <ele>58.2</ele>
        <time>2015-03-22T14:53:06Z</time>
      </trkpt>
      <trkpt lat="40.5811590" lon="-8.4548430">
        <ele>61.4</ele>
        <time>2015-03-22T14:53:24Z</time>
      </trkpt>
      <trkpt lat="40.5813490" lon="-8.4550780">
        <ele>65.2</ele>
        <time>2015-03-22T14:53:43Z</time>
      </trkpt>
      <trkpt lat="40.5816260" lon="-8.4553340">
        <ele>67.7</ele>
        <time>2015-03-22T14:54:04Z</time>
      </trkpt>
      <trkpt lat="40.5818930" lon="-8.4556110">
        <ele>69.1</ele>
        <time>2015-03-22T14:54:20Z</time>
      </trkpt>
      <trkpt lat="40.5821380" lon="-8.4558470">
        <ele>70.3</ele>
        <time>2015-03-22T14:54:34Z</time>
      </trkpt>
      <trkpt lat="40.5825290" lon="-8.4561660">
        <ele>70.9</ele>
        <time>2015-03-22T14:54:52Z</time>
      </trkpt>
      <trkpt lat="40.5829770" lon="-8.4564790">
        <ele>71.3</ele>
        <time>2015-03-22T14:55:10Z</time>
      </trkpt>
      <trkpt lat="40.5834720" lon="-8.4568670">
        <ele>72.8</ele>
        <time>2015-03-22T14:55:26Z</time>
      </trkpt>
      <trkpt lat="40.5839810" lon="-8.4572410">
        <ele>73.3</ele>
        <time>2015-03-22T14:55:43Z</time>
      </trkpt>
      <trkpt lat="40.5845140" lon="-8.4576260">
        <ele>73.9</ele>
        <time>2015-03-22T14:55:59Z</time>
      </trkpt>
      <trkpt lat="40.5850690" lon="-8.4579370">
        <ele>74.7</ele>
        <time>2015-03-22T14:56:15Z</time>
      </trkpt>
      <trkpt lat="40.5856740" lon="-8.4581100">
        <ele>74.9</ele>
        <time>2015-03-22T14:56:32Z</time>
      </trkpt>
      <trkpt lat="40.5862410" lon="-8.4582680">
        <ele>75.7</ele>
        <time>2015-03-22T14:56:48Z</time>
      </trkpt>
      <trkpt lat="40.5869710" lon="-8.4584560">
        <ele>77.0</ele>
        <time>2015-03-22T14:57:08Z</time>
      </trkpt>
      <trkpt lat="40.5875590" lon="-8.4586170">
        <ele>77.5</ele>
        <time>2015-03-22T14:57:25Z</time>
      </trkpt>
      <trkpt lat="40.5880770" lon="-8.4587770">
        <ele>79.8</ele>
        <time>2015-03-22T14:57:42Z</time>
      </trkpt>
      <trkpt lat="40.5885610" lon="-8.4588970">
        <ele>80.5</ele>
        <time>2015-03-22T14:57:57Z</time>
      </trkpt>
      <trkpt lat="40.5890610" lon="-8.4590320">
        <ele>81.7</ele>
        <time>2015-03-22T14:58:12Z</time>
      </trkpt>
      <trkpt lat="40.5895550" lon="-8.4591840">
        <ele>82.9</ele>
        <time>2015-03-22T14:58:27Z</time>
      </trkpt>
      <trkpt lat="40.5899300" lon="-8.4595020">
        <ele>83.7</ele>
        <time>2015-03-22T14:58:41Z</time>
      </trkpt>
      <trkpt lat="40.5904400" lon="-8.4600230">
        <ele>83.1</ele>
        <time>2015-03-22T14:58:59Z</time>
      </trkpt>
      <trkpt lat="40.5909310" lon="-8.4605870">
        <ele>82.9</ele>
        <time>2015-03-22T14:59:16Z</time>
      </trkpt>
      <trkpt lat="40.5915830" lon="-8.4612110">
        <ele>83.6</ele>
        <time>2015-03-22T14:59:36Z</time>
      </trkpt>
      <trkpt lat="40.5922040" lon="-8.4612900">
        <ele>84.0</ele>
        <time>2015-03-22T14:59:52Z</time>
      </trkpt>
      <trkpt lat="40.5930360" lon="-8.4612250">
        <ele>84.5</ele>
        <time>2015-03-22T15:00:12Z</time>
      </trkpt>
      <trkpt lat="40.5937680" lon="-8.4611680">
        <ele>85.4</ele>
        <time>2015-03-22T15:00:30Z</time>
      </trkpt>
      <trkpt lat="40.5941440" lon="-8.4611480">
        <ele>85.4</ele>
        <time>2015-03-22T15:00:45Z</time>
      </trkpt>
      <trkpt lat="40.5942140" lon="-8.4611230">
        <ele>85.5</ele>
        <time>2015-03-22T15:00:59Z</time>
      </trkpt>
      <trkpt lat="40.5942890" lon="-8.4611360">
        <ele>85.4</ele>
        <time>2015-03-22T15:01:13Z</time>
      </trkpt>
      <trkpt lat="40.5945110" lon="-8.4612090">
        <ele>85.3</ele>
        <time>2015-03-22T15:01:23Z</time>
      </trkpt>
      <trkpt lat="40.5951170" lon="-8.4611530">
        <ele>84.4</ele>
        <time>2015-03-22T15:01:39Z</time>
      </trkpt>
      <trkpt lat="40.5958320" lon="-8.4612080">
        <ele>83.1</ele>
        <time>2015-03-22T15:01:56Z</time>
      </trkpt>
      <trkpt lat="40.5959450" lon="-8.4612540">
        <ele>83.0</ele>
        <time>2015-03-22T15:01:59Z</time>
      </trkpt>
      <trkpt lat="40.5965260" lon="-8.4617350">
        <ele>81.4</ele>
        <time>2015-03-22T15:02:15Z</time>
      </trkpt>
      <trkpt lat="40.5968530" lon="-8.4620870">
        <ele>80.4</ele>
        <time>2015-03-22T15:02:25Z</time>
      </trkpt>
      <trkpt lat="40.5970070" lon="-8.4621370">
        <ele>80.4</ele>
        <time>2015-03-22T15:02:29Z</time>
      </trkpt>
      <trkpt lat="40.5976600" lon="-8.4621970">
        <ele>80.5</ele>
        <time>2015-03-22T15:02:46Z</time>
      </trkpt>
      <trkpt lat="40.5984260" lon="-8.4622110">
        <ele>80.6</ele>
        <time>2015-03-22T15:03:05Z</time>
      </trkpt>
      <trkpt lat="40.5987080" lon="-8.4621880">
        <ele>80.7</ele>
        <time>2015-03-22T15:03:12Z</time>
      </trkpt>
      <trkpt lat="40.5992230" lon="-8.4621430">
        <ele>81.0</ele>
        <time>2015-03-22T15:03:26Z</time>
      </trkpt>
      <trkpt lat="40.5997850" lon="-8.4619770">
        <ele>82.7</ele>
        <time>2015-03-22T15:03:42Z</time>
      </trkpt>
      <trkpt lat="40.6000260" lon="-8.4615260">
        <ele>84.8</ele>
        <time>2015-03-22T15:03:56Z</time>
      </trkpt>
      <trkpt lat="40.5999260" lon="-8.4614300">
        <ele>84.7</ele>
        <time>2015-03-22T15:04:01Z</time>
      </trkpt>
      <trkpt lat="40.5997990" lon="-8.4613160">
        <ele>84.5</ele>
        <time>2015-03-22T15:04:14Z</time>
      </trkpt>
      <trkpt lat="40.5998910" lon="-8.4609710">
        <ele>84.4</ele>
        <time>2015-03-22T15:04:32Z</time>
      </trkpt>
      <trkpt lat="40.6002130" lon="-8.4609720">
        <ele>83.8</ele>
        <time>2015-03-22T15:04:41Z</time>
      </trkpt>
      <trkpt lat="40.6004670" lon="-8.4610550">
        <ele>83.3</ele>
        <time>2015-03-22T15:04:47Z</time>
      </trkpt>
      <trkpt lat="40.6005980" lon="-8.4610730">
        <ele>83.1</ele>
        <time>2015-03-22T15:04:50Z</time>
      </trkpt>
      <trkpt lat="40.6015040" lon="-8.4612360">
        <ele>81.5</ele>
        <time>2015-03-22T15:05:11Z</time>
      </trkpt>
      <trkpt lat="40.6023010" lon="-8.4613730">
        <ele>80.5</ele>
        <time>2015-03-22T15:05:28Z</time>
      </trkpt>
      <trkpt lat="40.6030670" lon="-8.4614950">
        <ele>80.3</ele>
        <time>2015-03-22T15:05:44Z</time>
      </trkpt>
      <trkpt lat="40.6039510" lon="-8.4616380">
        <ele>79.7</ele>
        <time>2015-03-22T15:06:03Z</time>
      </trkpt>
      <trkpt lat="40.6047740" lon="-8.4617730">
        <ele>78.5</ele>
        <time>2015-03-22T15:06:21Z</time>
      </trkpt>
      <trkpt lat="40.6055640" lon="-8.4618860">
        <ele>78.2</ele>
        <time>2015-03-22T15:06:38Z</time>
      </trkpt>
      <trkpt lat="40.6064610" lon="-8.4619900">
        <ele>78.5</ele>
        <time>2015-03-22T15:06:57Z</time>
      </trkpt>
      <trkpt lat="40.6071850" lon="-8.4620680">
        <ele>79.2</ele>
        <time>2015-03-22T15:07:13Z</time>
      </trkpt>
      <trkpt lat="40.6075340" lon="-8.4621190">
        <ele>79.0</ele>
        <time>2015-03-22T15:07:21Z</time>
      </trkpt>
      <trkpt lat="40.6083280" lon="-8.4621340">
        <ele>79.2</ele>
        <time>2015-03-22T15:07:38Z</time>
      </trkpt>
      <trkpt lat="40.6090620" lon="-8.4622060">
        <ele>79.0</ele>
        <time>2015-03-22T15:07:54Z</time>
      </trkpt>
      <trkpt lat="40.6091480" lon="-8.4621950">
        <ele>78.9</ele>
        <time>2015-03-22T15:08:02Z</time>
      </trkpt>
      <trkpt lat="40.6094360" lon="-8.4622060">
        <ele>78.9</ele>
        <time>2015-03-22T15:08:40Z</time>
      </trkpt>
      <trkpt lat="40.6100500" lon="-8.4623140">
        <ele>78.8</ele>
        <time>2015-03-22T15:08:55Z</time>
      </trkpt>
      <trkpt lat="40.6101280" lon="-8.4623190">
        <ele>78.8</ele>
        <time>2015-03-22T15:08:57Z</time>
      </trkpt>
      <trkpt lat="40.6103940" lon="-8.4623210">
        <ele>78.5</ele>
        <time>2015-03-22T15:09:03Z</time>
      </trkpt>
      <trkpt lat="40.6106490" lon="-8.4623410">
        <ele>78.1</ele>
        <time>2015-03-22T15:09:09Z</time>
      </trkpt>
      <trkpt lat="40.6109510" lon="-8.4623180">
        <ele>77.9</ele>
        <time>2015-03-22T15:09:17Z</time>
      </trkpt>
      <trkpt lat="40.6110820" lon="-8.4622860">
        <ele>77.9</ele>
        <time>2015-03-22T15:09:20Z</time>
      </trkpt>
      <trkpt lat="40.6117440" lon="-8.4622020">
        <ele>77.8</ele>
        <time>2015-03-22T15:09:36Z</time>
      </trkpt>
      <trkpt lat="40.6122700" lon="-8.4621530">
        <ele>77.8</ele>
        <time>2015-03-22T15:09:50Z</time>
      </trkpt>
      <trkpt lat="40.6123760" lon="-8.4621490">
        <ele>78.0</ele>
        <time>2015-03-22T15:10:24Z</time>
      </trkpt>
      <trkpt lat="40.6128850" lon="-8.4621720">
        <ele>78.4</ele>
        <time>2015-03-22T15:10:37Z</time>
      </trkpt>
      <trkpt lat="40.6134500" lon="-8.4621700">
        <ele>78.4</ele>
        <time>2015-03-22T15:10:50Z</time>
      </trkpt>
      <trkpt lat="40.6142680" lon="-8.4621540">
        <ele>78.4</ele>
        <time>2015-03-22T15:11:08Z</time>
      </trkpt>
      <trkpt lat="40.6150170" lon="-8.4622830">
        <ele>78.0</ele>
        <time>2015-03-22T15:11:25Z</time>
      </trkpt>
      <trkpt lat="40.6150640" lon="-8.4622900">
        <ele>78.0</ele>
        <time>2015-03-22T15:11:26Z</time>
      </trkpt>
      <trkpt lat="40.6156890" lon="-8.4622690">
        <ele>78.2</ele>
        <time>2015-03-22T15:11:40Z</time>
      </trkpt>
      <trkpt lat="40.6164740" lon="-8.4621480">
        <ele>78.2</ele>
        <time>2015-03-22T15:11:57Z</time>
      </trkpt>
      <trkpt lat="40.6168030" lon="-8.4621060">
        <ele>78.2</ele>
        <time>2015-03-22T15:12:04Z</time>
      </trkpt>
      <trkpt lat="40.6171160" lon="-8.4620970">
        <ele>78.3</ele>
        <time>2015-03-22T15:12:11Z</time>
      </trkpt>
      <trkpt lat="40.6173050" lon="-8.4620630">
        <ele>78.5</ele>
        <time>2015-03-22T15:12:15Z</time>
      </trkpt>
      <trkpt lat="40.6179040" lon="-8.4619780">
        <ele>77.9</ele>
        <time>2015-03-22T15:12:29Z</time>
      </trkpt>
      <trkpt lat="40.6181290" lon="-8.4620780">
        <ele>77.5</ele>
        <time>2015-03-22T15:12:35Z</time>
      </trkpt>
      <trkpt lat="40.6183020" lon="-8.4623420">
        <ele>77.1</ele>
        <time>2015-03-22T15:12:48Z</time>
      </trkpt>
      <trkpt lat="40.6183480" lon="-8.4623980">
        <ele>77.0</ele>
        <time>2015-03-22T15:13:11Z</time>
      </trkpt>
      <trkpt lat="40.6185260" lon="-8.4626360">
        <ele>76.8</ele>
        <time>2015-03-22T15:13:21Z</time>
      </trkpt>
      <trkpt lat="40.6190280" lon="-8.4629440">
        <ele>77.3</ele>
        <time>2015-03-22T15:13:31Z</time>
      </trkpt>
      <trkpt lat="40.6196070" lon="-8.4632640">
        <ele>78.0</ele>
        <time>2015-03-22T15:13:45Z</time>
      </trkpt>
      <trkpt lat="40.6203910" lon="-8.4636650">
        <ele>79.0</ele>
        <time>2015-03-22T15:14:05Z</time>
      </trkpt>
      <trkpt lat="40.6211020" lon="-8.4641820">
        <ele>78.8</ele>
        <time>2015-03-22T15:14:23Z</time>
      </trkpt>
      <trkpt lat="40.6217720" lon="-8.4647480">
        <ele>77.5</ele>
        <time>2015-03-22T15:14:40Z</time>
      </trkpt>
      <trkpt lat="40.6224850" lon="-8.4653450">
        <ele>77.2</ele>
        <time>2015-03-22T15:14:58Z</time>
      </trkpt>
      <trkpt lat="40.6231190" lon="-8.4659280">
        <ele>78.2</ele>
        <time>2015-03-22T15:15:15Z</time>
      </trkpt>
      <trkpt lat="40.6231880" lon="-8.4660020">
        <ele>78.5</ele>
        <time>2015-03-22T15:15:17Z</time>
      </trkpt>
      <trkpt lat="40.6233580" lon="-8.4661750">
        <ele>79.3</ele>
        <time>2015-03-22T15:15:22Z</time>
      </trkpt>
      <trkpt lat="40.6239160" lon="-8.4665940">
        <ele>80.3</ele>
        <time>2015-03-22T15:15:38Z</time>
      </trkpt>
      <trkpt lat="40.6245640" lon="-8.4670390">
        <ele>81.0</ele>
        <time>2015-03-22T15:15:55Z</time>
      </trkpt>
      <trkpt lat="40.6251330" lon="-8.4674440">
        <ele>81.3</ele>
        <time>2015-03-22T15:16:10Z</time>
      </trkpt>
      <trkpt lat="40.6257650" lon="-8.4679850">
        <ele>80.8</ele>
        <time>2015-03-22T15:16:27Z</time>
      </trkpt>
      <trkpt lat="40.6259120" lon="-8.4681290">
        <ele>80.5</ele>
        <time>2015-03-22T15:16:31Z</time>
      </trkpt>
      <trkpt lat="40.6261250" lon="-8.4683470">
        <ele>80.3</ele>
        <time>2015-03-22T15:16:37Z</time>
      </trkpt>
      <trkpt lat="40.6265540" lon="-8.4687700">
        <ele>80.5</ele>
        <time>2015-03-22T15:16:49Z</time>
      </trkpt>
      <trkpt lat="40.6270960" lon="-8.4694740">
        <ele>79.5</ele>
        <time>2015-03-22T15:17:08Z</time>
      </trkpt>
      <trkpt lat="40.6275230" lon="-8.4699690">
        <ele>76.9</ele>
        <time>2015-03-22T15:17:22Z</time>
      </trkpt>
      <trkpt lat="40.6277920" lon="-8.4701260">
        <ele>74.7</ele>
        <time>2015-03-22T15:17:27Z</time>
      </trkpt>
      <trkpt lat="40.6281730" lon="-8.4705810">
        <ele>70.8</ele>
        <time>2015-03-22T15:17:34Z</time>
      </trkpt>
      <trkpt lat="40.6283250" lon="-8.4707850">
        <ele>68.4</ele>
        <time>2015-03-22T15:17:37Z</time>
      </trkpt>
      <trkpt lat="40.6285730" lon="-8.4708870">
        <ele>65.4</ele>
        <time>2015-03-22T15:17:42Z</time>
      </trkpt>
      <trkpt lat="40.6286550" lon="-8.4705170">
        <ele>62.5</ele>
        <time>2015-03-22T15:17:47Z</time>
      </trkpt>
      <trkpt lat="40.6287760" lon="-8.4700840">
        <ele>59.1</ele>
        <time>2015-03-22T15:17:52Z</time>
      </trkpt>
      <trkpt lat="40.6290810" lon="-8.4699230">
        <ele>56.1</ele>
        <time>2015-03-22T15:17:56Z</time>
      </trkpt>
      <trkpt lat="40.6294580" lon="-8.4698460">
        <ele>52.5</ele>
        <time>2015-03-22T15:18:00Z</time>
      </trkpt>
      <trkpt lat="40.6296650" lon="-8.4697960">
        <ele>50.5</ele>
        <time>2015-03-22T15:18:02Z</time>
      </trkpt>
      <trkpt lat="40.6299880" lon="-8.4697550">
        <ele>46.4</ele>
        <time>2015-03-22T15:18:05Z</time>
      </trkpt>
      <trkpt lat="40.6300950" lon="-8.4697540">
        <ele>44.9</ele>
        <time>2015-03-22T15:18:06Z</time>
      </trkpt>
      <trkpt lat="40.6304970" lon="-8.4698950">
        <ele>41.8</ele>
        <time>2015-03-22T15:18:10Z</time>
      </trkpt>
      <trkpt lat="40.6308610" lon="-8.4700960">
        <ele>38.3</ele>
        <time>2015-03-22T15:18:14Z</time>
      </trkpt>
      <trkpt lat="40.6309310" lon="-8.4701320">
        <ele>37.6</ele>
        <time>2015-03-22T15:18:15Z</time>
      </trkpt>
      <trkpt lat="40.6311240" lon="-8.4700410">
        <ele>35.4</ele>
        <time>2015-03-22T15:18:20Z</time>
      </trkpt>
      <trkpt lat="40.6310910" lon="-8.4697900">
        <ele>33.2</ele>
        <time>2015-03-22T15:18:23Z</time>
      </trkpt>
      <trkpt lat="40.6310230" lon="-8.4694770">
        <ele>31.1</ele>
        <time>2015-03-22T15:18:26Z</time>
      </trkpt>
      <trkpt lat="40.6308500" lon="-8.4691340">
        <ele>29.4</ele>
        <time>2015-03-22T15:18:30Z</time>
      </trkpt>
      <trkpt lat="40.6308020" lon="-8.4690750">
        <ele>29.1</ele>
        <time>2015-03-22T15:18:31Z</time>
      </trkpt>
      <trkpt lat="40.6307770" lon="-8.4688610">
        <ele>28.2</ele>
        <time>2015-03-22T15:18:36Z</time>
      </trkpt>
      <trkpt lat="40.6310450" lon="-8.4685660">
        <ele>23.9</ele>
        <time>2015-03-22T15:18:48Z</time>
      </trkpt>
      <trkpt lat="40.6312550" lon="-8.4685910">
        <ele>21.0</ele>
        <time>2015-03-22T15:18:53Z</time>
      </trkpt>
      <trkpt lat="40.6313970" lon="-8.4685520">
        <ele>19.5</ele>
        <time>2015-03-22T15:18:56Z</time>
      </trkpt>
      <trkpt lat="40.6314930" lon="-8.4685040">
        <ele>18.4</ele>
        <time>2015-03-22T15:18:58Z</time>
      </trkpt>
      <trkpt lat="40.6315950" lon="-8.4684480">
        <ele>17.1</ele>
        <time>2015-03-22T15:19:00Z</time>
      </trkpt>
      <trkpt lat="40.6319120" lon="-8.4684670">
        <ele>13.3</ele>
        <time>2015-03-22T15:19:07Z</time>
      </trkpt>
      <trkpt lat="40.6319900" lon="-8.4685300">
        <ele>12.4</ele>
        <time>2015-03-22T15:19:09Z</time>
      </trkpt>
      <trkpt lat="40.6322820" lon="-8.4687260">
        <ele>10.2</ele>
        <time>2015-03-22T15:19:21Z</time>
      </trkpt>
      <trkpt lat="40.6323370" lon="-8.4687840">
        <ele>10.2</ele>
        <time>2015-03-22T15:19:50Z</time>
      </trkpt>
      <trkpt lat="40.6327510" lon="-8.4691330">
        <ele>10.0</ele>
        <time>2015-03-22T15:20:06Z</time>
      </trkpt>
      <trkpt lat="40.6331090" lon="-8.4694580">
        <ele>10.6</ele>
        <time>2015-03-22T15:20:20Z</time>
      </trkpt>
      <trkpt lat="40.6331630" lon="-8.4694890">
        <ele>10.8</ele>
        <time>2015-03-22T15:20:22Z</time>
      </trkpt>
      <trkpt lat="40.6335160" lon="-8.4695950">
        <ele>12.5</ele>
        <time>2015-03-22T15:20:34Z</time>
      </trkpt>
      <trkpt lat="40.6338450" lon="-8.4698100">
        <ele>14.1</ele>
        <time>2015-03-22T15:20:43Z</time>
      </trkpt>
      <trkpt lat="40.6340900" lon="-8.4700910">
        <ele>14.9</ele>
        <time>2015-03-22T15:20:54Z</time>
      </trkpt>
      <trkpt lat="40.6340640" lon="-8.4702100">
        <ele>15.2</ele>
        <time>2015-03-22T15:20:59Z</time>
      </trkpt>
      <trkpt lat="40.6339610" lon="-8.4703120">
        <ele>14.6</ele>
        <time>2015-03-22T15:21:04Z</time>
      </trkpt>
      <trkpt lat="40.6339070" lon="-8.4703940">
        <ele>14.2</ele>
        <time>2015-03-22T15:32:52Z</time>
      </trkpt>
      <trkpt lat="40.6339030" lon="-8.4705600">
        <ele>13.9</ele>
        <time>2015-03-22T15:32:58Z</time>
      </trkpt>
      <trkpt lat="40.6339360" lon="-8.4707360">
        <ele>13.9</ele>
        <time>2015-03-22T15:33:05Z</time>
      </trkpt>
      <trkpt lat="40.6340900" lon="-8.4709090">
        <ele>14.2</ele>
        <time>2015-03-22T15:33:17Z</time>
      </trkpt>
      <trkpt lat="40.6342260" lon="-8.4710090">
        <ele>14.9</ele>
        <time>2015-03-22T15:33:29Z</time>
      </trkpt>
      <trkpt lat="40.6342960" lon="-8.4710320">
        <ele>15.3</ele>
        <time>2015-03-22T15:33:34Z</time>
      </trkpt>
      <trkpt lat="40.6344580" lon="-8.4709040">
        <ele>17.0</ele>
        <time>2015-03-22T15:33:49Z</time>
      </trkpt>
      <trkpt lat="40.6346900" lon="-8.4708280">
        <ele>19.8</ele>
        <time>2015-03-22T15:34:07Z</time>
      </trkpt>
      <trkpt lat="40.6349200" lon="-8.4708580">
        <ele>23.3</ele>
        <time>2015-03-22T15:34:25Z</time>
      </trkpt>
      <trkpt lat="40.6350170" lon="-8.4709200">
        <ele>24.7</ele>
        <time>2015-03-22T15:34:33Z</time>
      </trkpt>
      <trkpt lat="40.6351010" lon="-8.4708980">
        <ele>25.5</ele>
        <time>2015-03-22T15:34:40Z</time>
      </trkpt>
      <trkpt lat="40.6353420" lon="-8.4709780">
        <ele>26.8</ele>
        <time>2015-03-22T15:34:58Z</time>
      </trkpt>
      <trkpt lat="40.6355570" lon="-8.4709670">
        <ele>27.7</ele>
        <time>2015-03-22T15:35:14Z</time>
      </trkpt>
      <trkpt lat="40.6359290" lon="-8.4710200">
        <ele>29.7</ele>
        <time>2015-03-22T15:35:30Z</time>
      </trkpt>
      <trkpt lat="40.6360850" lon="-8.4710480">
        <ele>30.0</ele>
        <time>2015-03-22T15:35:33Z</time>
      </trkpt>
      <trkpt lat="40.6365200" lon="-8.4710920">
        <ele>28.7</ele>
        <time>2015-03-22T15:35:40Z</time>
      </trkpt>
      <trkpt lat="40.6368100" lon="-8.4708970">
        <ele>29.6</ele>
        <time>2015-03-22T15:35:48Z</time>
      </trkpt>
      <trkpt lat="40.6367780" lon="-8.4708040">
        <ele>29.6</ele>
        <time>2015-03-22T15:35:53Z</time>
      </trkpt>
      <trkpt lat="40.6366760" lon="-8.4704210">
        <ele>31.9</ele>
        <time>2015-03-22T15:36:08Z</time>
      </trkpt>
      <trkpt lat="40.6367120" lon="-8.4702290">
        <ele>33.4</ele>
        <time>2015-03-22T15:36:13Z</time>
      </trkpt>
      <trkpt lat="40.6371020" lon="-8.4700320">
        <ele>33.9</ele>
        <time>2015-03-22T15:36:28Z</time>
      </trkpt>
      <trkpt lat="40.6376080" lon="-8.4697860">
        <ele>33.5</ele>
        <time>2015-03-22T15:36:45Z</time>
      </trkpt>
      <trkpt lat="40.6382200" lon="-8.4694850">
        <ele>32.9</ele>
        <time>2015-03-22T15:37:03Z</time>
      </trkpt>
      <trkpt lat="40.6390680" lon="-8.4690880">
        <ele>28.7</ele>
        <time>2015-03-22T15:37:26Z</time>
      </trkpt>
      <trkpt lat="40.6397720" lon="-8.4687460">
        <ele>28.3</ele>
        <time>2015-03-22T15:37:47Z</time>
      </trkpt>
      <trkpt lat="40.6404690" lon="-8.4683900">
        <ele>28.4</ele>
        <time>2015-03-22T15:38:07Z</time>
      </trkpt>
      <trkpt lat="40.6410990" lon="-8.4680570">
        <ele>28.5</ele>
        <time>2015-03-22T15:38:25Z</time>
      </trkpt>
      <trkpt lat="40.6413010" lon="-8.4679550">
        <ele>28.4</ele>
        <time>2015-03-22T15:39:23Z</time>
      </trkpt>
      <trkpt lat="40.6418960" lon="-8.4676440">
        <ele>28.5</ele>
        <time>2015-03-22T15:39:40Z</time>
      </trkpt>
      <trkpt lat="40.6427270" lon="-8.4672150">
        <ele>28.2</ele>
        <time>2015-03-22T15:40:02Z</time>
      </trkpt>
      <trkpt lat="40.6435630" lon="-8.4667960">
        <ele>26.5</ele>
        <time>2015-03-22T15:40:24Z</time>
      </trkpt>
      <trkpt lat="40.6441840" lon="-8.4664950">
        <ele>28.9</ele>
        <time>2015-03-22T15:40:41Z</time>
      </trkpt>
      <trkpt lat="40.6448560" lon="-8.4662210">
        <ele>30.1</ele>
        <time>2015-03-22T15:40:59Z</time>
      </trkpt>
      <trkpt lat="40.6456460" lon="-8.4659340">
        <ele>31.2</ele>
        <time>2015-03-22T15:41:20Z</time>
      </trkpt>
      <trkpt lat="40.6461890" lon="-8.4657320">
        <ele>33.1</ele>
        <time>2015-03-22T15:41:37Z</time>
      </trkpt>
      <trkpt lat="40.6465300" lon="-8.4659120">
        <ele>36.4</ele>
        <time>2015-03-22T15:41:49Z</time>
      </trkpt>
      <trkpt lat="40.6466690" lon="-8.4660910">
        <ele>38.3</ele>
        <time>2015-03-22T15:42:03Z</time>
      </trkpt>
      <trkpt lat="40.6468340" lon="-8.4663470">
        <ele>41.6</ele>
        <time>2015-03-22T15:42:22Z</time>
      </trkpt>
      <trkpt lat="40.6467820" lon="-8.4666040">
        <ele>43.7</ele>
        <time>2015-03-22T15:42:36Z</time>
      </trkpt>
      <trkpt lat="40.6467920" lon="-8.4668620">
        <ele>45.7</ele>
        <time>2015-03-22T15:42:51Z</time>
      </trkpt>
      <trkpt lat="40.6468730" lon="-8.4671820">
        <ele>48.1</ele>
        <time>2015-03-22T15:43:09Z</time>
      </trkpt>
      <trkpt lat="40.6470510" lon="-8.4673920">
        <ele>50.6</ele>
        <time>2015-03-22T15:43:25Z</time>
      </trkpt>
      <trkpt lat="40.6472430" lon="-8.4676420">
        <ele>52.9</ele>
        <time>2015-03-22T15:43:42Z</time>
      </trkpt>
      <trkpt lat="40.6474390" lon="-8.4678930">
        <ele>55.5</ele>
        <time>2015-03-22T15:43:59Z</time>
      </trkpt>
      <trkpt lat="40.6477030" lon="-8.4680940">
        <ele>58.4</ele>
        <time>2015-03-22T15:44:17Z</time>
      </trkpt>
      <trkpt lat="40.6478220" lon="-8.4681290">
        <ele>59.7</ele>
        <time>2015-03-22T15:44:25Z</time>
      </trkpt>
      <trkpt lat="40.6478540" lon="-8.4680620">
        <ele>60.5</ele>
        <time>2015-03-22T15:44:29Z</time>
      </trkpt>
      <trkpt lat="40.6479840" lon="-8.4677600">
        <ele>63.9</ele>
        <time>2015-03-22T15:44:49Z</time>
      </trkpt>
      <trkpt lat="40.6481280" lon="-8.4675950">
        <ele>66.1</ele>
        <time>2015-03-22T15:45:05Z</time>
      </trkpt>
      <trkpt lat="40.6483080" lon="-8.4674710">
        <ele>68.7</ele>
        <time>2015-03-22T15:45:22Z</time>
      </trkpt>
      <trkpt lat="40.6484610" lon="-8.4672840">
        <ele>70.8</ele>
        <time>2015-03-22T15:45:39Z</time>
      </trkpt>
      <trkpt lat="40.6486510" lon="-8.4671070">
        <ele>73.4</ele>
        <time>2015-03-22T15:45:58Z</time>
      </trkpt>
      <trkpt lat="40.6488520" lon="-8.4669410">
        <ele>75.4</ele>
        <time>2015-03-22T15:46:16Z</time>
      </trkpt>
      <trkpt lat="40.6490330" lon="-8.4667530">
        <ele>77.5</ele>
        <time>2015-03-22T15:46:33Z</time>
      </trkpt>
      <trkpt lat="40.6491350" lon="-8.4667150">
        <ele>78.6</ele>
        <time>2015-03-22T15:46:47Z</time>
      </trkpt>
      <trkpt lat="40.6495070" lon="-8.4667470">
        <ele>81.6</ele>
        <time>2015-03-22T15:47:27Z</time>
      </trkpt>
      <trkpt lat="40.6497640" lon="-8.4667850">
        <ele>83.3</ele>
        <time>2015-03-22T15:47:44Z</time>
      </trkpt>
      <trkpt lat="40.6498800" lon="-8.4668010">
        <ele>84.0</ele>
        <time>2015-03-22T15:47:53Z</time>
      </trkpt>
      <trkpt lat="40.6500980" lon="-8.4668490">
        <ele>85.4</ele>
        <time>2015-03-22T15:48:08Z</time>
      </trkpt>
      <trkpt lat="40.6503550" lon="-8.4669640">
        <ele>86.9</ele>
        <time>2015-03-22T15:48:24Z</time>
      </trkpt>
      <trkpt lat="40.6506200" lon="-8.4671020">
        <ele>88.1</ele>
        <time>2015-03-22T15:48:40Z</time>
      </trkpt>
      <trkpt lat="40.6509190" lon="-8.4673030">
        <ele>89.4</ele>
        <time>2015-03-22T15:48:59Z</time>
      </trkpt>
      <trkpt lat="40.6511880" lon="-8.4674690">
        <ele>90.9</ele>
        <time>2015-03-22T15:49:14Z</time>
      </trkpt>
      <trkpt lat="40.6515680" lon="-8.4676510">
        <ele>92.9</ele>
        <time>2015-03-22T15:49:33Z</time>
      </trkpt>
      <trkpt lat="40.6518720" lon="-8.4678820">
        <ele>93.6</ele>
        <time>2015-03-22T15:49:48Z</time>
      </trkpt>
      <trkpt lat="40.6521520" lon="-8.4680960">
        <ele>93.7</ele>
        <time>2015-03-22T15:50:01Z</time>
      </trkpt>
      <trkpt lat="40.6526270" lon="-8.4685170">
        <ele>94.6</ele>
        <time>2015-03-22T15:50:18Z</time>
      </trkpt>
      <trkpt lat="40.6531100" lon="-8.4689920">
        <ele>95.6</ele>
        <time>2015-03-22T15:50:36Z</time>
      </trkpt>
      <trkpt lat="40.6536220" lon="-8.4692880">
        <ele>95.7</ele>
        <time>2015-03-22T15:50:53Z</time>
      </trkpt>
      <trkpt lat="40.6541120" lon="-8.4696610">
        <ele>96.0</ele>
        <time>2015-03-22T15:51:10Z</time>
      </trkpt>
      <trkpt lat="40.6545610" lon="-8.4701310">
        <ele>96.3</ele>
        <time>2015-03-22T15:51:27Z</time>
      </trkpt>
      <trkpt lat="40.6549750" lon="-8.4704940">
        <ele>97.0</ele>
        <time>2015-03-22T15:51:42Z</time>
      </trkpt>
      <trkpt lat="40.6553700" lon="-8.4708240">
        <ele>97.6</ele>
        <time>2015-03-22T15:51:57Z</time>
      </trkpt>
      <trkpt lat="40.6558740" lon="-8.4712150">
        <ele>99.0</ele>
        <time>2015-03-22T15:52:15Z</time>
      </trkpt>
      <trkpt lat="40.6564350" lon="-8.4716910">
        <ele>100.4</ele>
        <time>2015-03-22T15:52:34Z</time>
      </trkpt>
      <trkpt lat="40.6568810" lon="-8.4720640">
        <ele>100.9</ele>
        <time>2015-03-22T15:52:49Z</time>
      </trkpt>
      <trkpt lat="40.6574150" lon="-8.4725050">
        <ele>102.0</ele>
        <time>2015-03-22T15:53:06Z</time>
      </trkpt>
      <trkpt lat="40.6578730" lon="-8.4728590">
        <ele>103.1</ele>
        <time>2015-03-22T15:53:21Z</time>
      </trkpt>
      <trkpt lat="40.6584210" lon="-8.4732650">
        <ele>103.3</ele>
        <time>2015-03-22T15:53:38Z</time>
      </trkpt>
      <trkpt lat="40.6588370" lon="-8.4736110">
        <ele>103.4</ele>
        <time>2015-03-22T15:53:52Z</time>
      </trkpt>
      <trkpt lat="40.6591640" lon="-8.4739390">
        <ele>102.5</ele>
        <time>2015-03-22T15:54:04Z</time>
      </trkpt>
      <trkpt lat="40.6594880" lon="-8.4741920">
        <ele>101.0</ele>
        <time>2015-03-22T15:54:13Z</time>
      </trkpt>
      <trkpt lat="40.6599540" lon="-8.4745970">
        <ele>99.3</ele>
        <time>2015-03-22T15:54:22Z</time>
      </trkpt>
      <trkpt lat="40.6602140" lon="-8.4750040">
        <ele>99.7</ele>
        <time>2015-03-22T15:54:30Z</time>
      </trkpt>
      <trkpt lat="40.6604470" lon="-8.4755060">
        <ele>104.2</ele>
        <time>2015-03-22T15:54:43Z</time>
      </trkpt>
      <trkpt lat="40.6607290" lon="-8.4761860">
        <ele>108.3</ele>
        <time>2015-03-22T15:55:01Z</time>
      </trkpt>
      <trkpt lat="40.6609220" lon="-8.4765130">
        <ele>112.0</ele>
        <time>2015-03-22T15:55:16Z</time>
      </trkpt>
      <trkpt lat="40.6610770" lon="-8.4766990">
        <ele>113.7</ele>
        <time>2015-03-22T15:55:27Z</time>
      </trkpt>
      <trkpt lat="40.6614540" lon="-8.4768670">
        <ele>114.1</ele>
        <time>2015-03-22T15:55:42Z</time>
      </trkpt>
      <trkpt lat="40.6617860" lon="-8.4772350">
        <ele>114.4</ele>
        <time>2015-03-22T15:55:58Z</time>
      </trkpt>
      <trkpt lat="40.6620750" lon="-8.4776150">
        <ele>114.1</ele>
        <time>2015-03-22T15:56:12Z</time>
      </trkpt>
      <trkpt lat="40.6624390" lon="-8.4780280">
        <ele>114.2</ele>
        <time>2015-03-22T15:56:29Z</time>
      </trkpt>
      <trkpt lat="40.6627970" lon="-8.4782820">
        <ele>114.3</ele>
        <time>2015-03-22T15:56:42Z</time>
      </trkpt>
      <trkpt lat="40.6630900" lon="-8.4784730">
        <ele>115.0</ele>
        <time>2015-03-22T15:56:52Z</time>
      </trkpt>
      <trkpt lat="40.6634480" lon="-8.4786710">
        <ele>115.3</ele>
        <time>2015-03-22T15:57:03Z</time>
      </trkpt>
      <trkpt lat="40.6639410" lon="-8.4790090">
        <ele>115.1</ele>
        <time>2015-03-22T15:57:13Z</time>
      </trkpt>
      <trkpt lat="40.6646490" lon="-8.4795390">
        <ele>115.6</ele>
        <time>2015-03-22T15:57:27Z</time>
      </trkpt>
      <trkpt lat="40.6650550" lon="-8.4798740">
        <ele>116.5</ele>
        <time>2015-03-22T15:57:39Z</time>
      </trkpt>
      <trkpt lat="40.6651150" lon="-8.4799270">
        <ele>116.6</ele>
        <time>2015-03-22T15:57:41Z</time>
      </trkpt>
      <trkpt lat="40.6655980" lon="-8.4803100">
        <ele>116.1</ele>
        <time>2015-03-22T15:57:56Z</time>
      </trkpt>
      <trkpt lat="40.6660200" lon="-8.4807680">
        <ele>114.3</ele>
        <time>2015-03-22T15:58:08Z</time>
      </trkpt>
      <trkpt lat="40.6665110" lon="-8.4812900">
        <ele>112.3</ele>
        <time>2015-03-22T15:58:18Z</time>
      </trkpt>
      <trkpt lat="40.6669440" lon="-8.4817140">
        <ele>109.8</ele>
        <time>2015-03-22T15:58:25Z</time>
      </trkpt>
      <trkpt lat="40.6676710" lon="-8.4824940">
        <ele>105.9</ele>
        <time>2015-03-22T15:58:37Z</time>
      </trkpt>
      <trkpt lat="40.6683150" lon="-8.4832410">
        <ele>103.2</ele>
        <time>2015-03-22T15:58:49Z</time>
      </trkpt>
      <trkpt lat="40.6684330" lon="-8.4833630">
        <ele>103.1</ele>
        <time>2015-03-22T15:58:53Z</time>
      </trkpt>
      <trkpt lat="40.6686800" lon="-8.4834750">
        <ele>103.5</ele>
        <time>2015-03-22T15:59:03Z</time>
      </trkpt>
      <trkpt lat="40.6690420" lon="-8.4835590">
        <ele>104.0</ele>
        <time>2015-03-22T15:59:15Z</time>
      </trkpt>
      <trkpt lat="40.6694330" lon="-8.4836440">
        <ele>104.9</ele>
        <time>2015-03-22T15:59:28Z</time>
      </trkpt>
      <trkpt lat="40.6698610" lon="-8.4838290">
        <ele>104.5</ele>
        <time>2015-03-22T15:59:42Z</time>
      </trkpt>
      <trkpt lat="40.6703720" lon="-8.4840520">
        <ele>103.9</ele>
        <time>2015-03-22T15:59:54Z</time>
      </trkpt>
      <trkpt lat="40.6706390" lon="-8.4840720">
        <ele>104.0</ele>
        <time>2015-03-22T15:59:59Z</time>
      </trkpt>
      <trkpt lat="40.6712290" lon="-8.4842940">
        <ele>103.6</ele>
        <time>2015-03-22T16:00:14Z</time>
      </trkpt>
      <trkpt lat="40.6716240" lon="-8.4843410">
        <ele>102.8</ele>
        <time>2015-03-22T16:00:24Z</time>
      </trkpt>
      <trkpt lat="40.6719380" lon="-8.4843390">
        <ele>101.8</ele>
        <time>2015-03-22T16:00:30Z</time>
      </trkpt>
      <trkpt lat="40.6724830" lon="-8.4843740">
        <ele>102.1</ele>
        <time>2015-03-22T16:00:43Z</time>
      </trkpt>
      <trkpt lat="40.6729980" lon="-8.4844150">
        <ele>103.3</ele>
        <time>2015-03-22T16:00:58Z</time>
      </trkpt>
      <trkpt lat="40.6731660" lon="-8.4843780">
        <ele>103.1</ele>
        <time>2015-03-22T16:01:02Z</time>
      </trkpt>
      <trkpt lat="40.6733490" lon="-8.4843380">
        <ele>102.2</ele>
        <time>2015-03-22T16:01:06Z</time>
      </trkpt>
      <trkpt lat="40.6734420" lon="-8.4842840">
        <ele>101.6</ele>
        <time>2015-03-22T16:01:08Z</time>
      </trkpt>
      <trkpt lat="40.6737220" lon="-8.4842220">
        <ele>99.8</ele>
        <time>2015-03-22T16:01:13Z</time>
      </trkpt>
      <trkpt lat="40.6740070" lon="-8.4845530">
        <ele>98.2</ele>
        <time>2015-03-22T16:01:22Z</time>
      </trkpt>
      <trkpt lat="40.6738670" lon="-8.4854150">
        <ele>97.1</ele>
        <time>2015-03-22T16:01:39Z</time>
      </trkpt>
      <trkpt lat="40.6739910" lon="-8.4859910">
        <ele>97.0</ele>
        <time>2015-03-22T16:01:52Z</time>
      </trkpt>
      <trkpt lat="40.6741640" lon="-8.4865800">
        <ele>98.2</ele>
        <time>2015-03-22T16:02:09Z</time>
      </trkpt>
      <trkpt lat="40.6742780" lon="-8.4868730">
        <ele>99.8</ele>
        <time>2015-03-22T16:02:26Z</time>
      </trkpt>
      <trkpt lat="40.6743430" lon="-8.4871100">
        <ele>101.3</ele>
        <time>2015-03-22T16:02:41Z</time>
      </trkpt>
      <trkpt lat="40.6744710" lon="-8.4873340">
        <ele>103.2</ele>
        <time>2015-03-22T16:02:56Z</time>
      </trkpt>
      <trkpt lat="40.6746670" lon="-8.4875740">
        <ele>105.9</ele>
        <time>2015-03-22T16:03:13Z</time>
      </trkpt>
      <trkpt lat="40.6748410" lon="-8.4877630">
        <ele>108.5</ele>
        <time>2015-03-22T16:03:27Z</time>
      </trkpt>
      <trkpt lat="40.6750660" lon="-8.4879410">
        <ele>109.9</ele>
        <time>2015-03-22T16:03:40Z</time>
      </trkpt>
      <trkpt lat="40.6753460" lon="-8.4880640">
        <ele>110.6</ele>
        <time>2015-03-22T16:03:53Z</time>
      </trkpt>
      <trkpt lat="40.6757330" lon="-8.4881840">
        <ele>111.2</ele>
        <time>2015-03-22T16:04:06Z</time>
      </trkpt>
      <trkpt lat="40.6762150" lon="-8.4883860">
        <ele>111.4</ele>
        <time>2015-03-22T16:04:21Z</time>
      </trkpt>
      <trkpt lat="40.6765160" lon="-8.4886080">
        <ele>111.9</ele>
        <time>2015-03-22T16:04:32Z</time>
      </trkpt>
      <trkpt lat="40.6769770" lon="-8.4888060">
        <ele>112.5</ele>
        <time>2015-03-22T16:04:46Z</time>
      </trkpt>
      <trkpt lat="40.6774770" lon="-8.4889950">
        <ele>113.0</ele>
        <time>2015-03-22T16:04:59Z</time>
      </trkpt>
      <trkpt lat="40.6780150" lon="-8.4891100">
        <ele>113.2</ele>
        <time>2015-03-22T16:05:13Z</time>
      </trkpt>
      <trkpt lat="40.6784230" lon="-8.4890950">
        <ele>113.4</ele>
        <time>2015-03-22T16:05:25Z</time>
      </trkpt>
      <trkpt lat="40.6790210" lon="-8.4890410">
        <ele>114.6</ele>
        <time>2015-03-22T16:05:42Z</time>
      </trkpt>
      <trkpt lat="40.6794050" lon="-8.4890600">
        <ele>115.7</ele>
        <time>2015-03-22T16:05:58Z</time>
      </trkpt>
      <trkpt lat="40.6797730" lon="-8.4893500">
        <ele>115.6</ele>
        <time>2015-03-22T16:06:15Z</time>
      </trkpt>
      <trkpt lat="40.6800670" lon="-8.4893610">
        <ele>115.6</ele>
        <time>2015-03-22T16:06:29Z</time>
      </trkpt>
      <trkpt lat="40.6804500" lon="-8.4892000">
        <ele>115.8</ele>
        <time>2015-03-22T16:06:44Z</time>
      </trkpt>
      <trkpt lat="40.6808280" lon="-8.4889820">
        <ele>117.3</ele>
        <time>2015-03-22T16:06:57Z</time>
      </trkpt>
      <trkpt lat="40.6815420" lon="-8.4885330">
        <ele>117.7</ele>
        <time>2015-03-22T16:07:19Z</time>
      </trkpt>
      <trkpt lat="40.6821480" lon="-8.4883210">
        <ele>117.3</ele>
        <time>2015-03-22T16:07:36Z</time>
      </trkpt>
      <trkpt lat="40.6829720" lon="-8.4881210">
        <ele>116.0</ele>
        <time>2015-03-22T16:07:56Z</time>
      </trkpt>
      <trkpt lat="40.6836190" lon="-8.4879700">
        <ele>114.3</ele>
        <time>2015-03-22T16:08:09Z</time>
      </trkpt>
      <trkpt lat="40.6837090" lon="-8.4879130">
        <ele>113.5</ele>
        <time>2015-03-22T16:08:13Z</time>
      </trkpt>
      <trkpt lat="40.6839240" lon="-8.4877370">
        <ele>111.5</ele>
        <time>2015-03-22T16:08:22Z</time>
      </trkpt>
      <trkpt lat="40.6840830" lon="-8.4874170">
        <ele>109.3</ele>
        <time>2015-03-22T16:08:28Z</time>
      </trkpt>
      <trkpt lat="40.6842140" lon="-8.4871140">
        <ele>108.0</ele>
        <time>2015-03-22T16:08:33Z</time>
      </trkpt>
      <trkpt lat="40.6842660" lon="-8.4868280">
        <ele>106.5</ele>
        <time>2015-03-22T16:08:37Z</time>
      </trkpt>
      <trkpt lat="40.6844620" lon="-8.4864680">
        <ele>104.7</ele>
        <time>2015-03-22T16:08:44Z</time>
      </trkpt>
      <trkpt lat="40.6846280" lon="-8.4862250">
        <ele>106.1</ele>
        <time>2015-03-22T16:08:53Z</time>
      </trkpt>
      <trkpt lat="40.6846380" lon="-8.4861640">
        <ele>106.5</ele>
        <time>2015-03-22T16:08:55Z</time>
      </trkpt>
      <trkpt lat="40.6845720" lon="-8.4856890">
        <ele>109.5</ele>
        <time>2015-03-22T16:09:12Z</time>
      </trkpt>
      <trkpt lat="40.6844920" lon="-8.4852760">
        <ele>111.9</ele>
        <time>2015-03-22T16:09:29Z</time>
      </trkpt>
      <trkpt lat="40.6844300" lon="-8.4848660">
        <ele>114.1</ele>
        <time>2015-03-22T16:09:45Z</time>
      </trkpt>
      <trkpt lat="40.6844740" lon="-8.4847500">
        <ele>114.9</ele>
        <time>2015-03-22T16:09:50Z</time>
      </trkpt>
      <trkpt lat="40.6847500" lon="-8.4845310">
        <ele>117.1</ele>
        <time>2015-03-22T16:10:07Z</time>
      </trkpt>
      <trkpt lat="40.6850000" lon="-8.4844120">
        <ele>118.1</ele>
        <time>2015-03-22T16:10:21Z</time>
      </trkpt>
      <trkpt lat="40.6853310" lon="-8.4842900">
        <ele>119.0</ele>
        <time>2015-03-22T16:10:37Z</time>
      </trkpt>
      <trkpt lat="40.6857050" lon="-8.4842370">
        <ele>119.6</ele>
        <time>2015-03-22T16:10:52Z</time>
      </trkpt>
      <trkpt lat="40.6861250" lon="-8.4841780">
        <ele>119.8</ele>
        <time>2015-03-22T16:11:09Z</time>
      </trkpt>
      <trkpt lat="40.6865090" lon="-8.4841260">
        <ele>120.8</ele>
        <time>2015-03-22T16:11:25Z</time>
      </trkpt>
      <trkpt lat="40.6868430" lon="-8.4838820">
        <ele>121.5</ele>
        <time>2015-03-22T16:11:39Z</time>
      </trkpt>
      <trkpt lat="40.6873180" lon="-8.4833850">
        <ele>121.9</ele>
        <time>2015-03-22T16:11:57Z</time>
      </trkpt>
      <trkpt lat="40.6878810" lon="-8.4828320">
        <ele>122.2</ele>
        <time>2015-03-22T16:12:18Z</time>
      </trkpt>
      <trkpt lat="40.6882990" lon="-8.4823820">
        <ele>122.0</ele>
        <time>2015-03-22T16:12:33Z</time>
      </trkpt>
      <trkpt lat="40.6887650" lon="-8.4819330">
        <ele>121.8</ele>
        <time>2015-03-22T16:12:49Z</time>
      </trkpt>
      <trkpt lat="40.6892560" lon="-8.4814230">
        <ele>121.1</ele>
        <time>2015-03-22T16:13:07Z</time>
      </trkpt>
      <trkpt lat="40.6894500" lon="-8.4812380">
        <ele>120.6</ele>
        <time>2015-03-22T16:13:16Z</time>
      </trkpt>
      <trkpt lat="40.6898490" lon="-8.4808880">
        <ele>120.4</ele>
        <time>2015-03-22T16:13:30Z</time>
      </trkpt>
      <trkpt lat="40.6902910" lon="-8.4804270">
        <ele>120.6</ele>
        <time>2015-03-22T16:13:46Z</time>
      </trkpt>
      <trkpt lat="40.6904810" lon="-8.4802540">
        <ele>120.8</ele>
        <time>2015-03-22T16:31:31Z</time>
      </trkpt>
      <trkpt lat="40.6905150" lon="-8.4802120">
        <ele>120.8</ele>
        <time>2015-03-23T07:20:09Z</time>
      </trkpt>
      <trkpt lat="40.6905450" lon="-8.4801460">
        <ele>120.8</ele>
        <time>2015-03-23T07:24:47Z</time>
      </trkpt>
      <trkpt lat="40.6907840" lon="-8.4799520">
        <ele>120.7</ele>
        <time>2015-03-23T07:25:01Z</time>
      </trkpt>
      <trkpt lat="40.6910630" lon="-8.4798280">
        <ele>120.2</ele>
        <time>2015-03-23T07:25:16Z</time>
      </trkpt>
      <trkpt lat="40.6911950" lon="-8.4798320">
        <ele>120.0</ele>
        <time>2015-03-23T07:25:22Z</time>
      </trkpt>
      <trkpt lat="40.6912680" lon="-8.4797470">
        <ele>119.9</ele>
        <time>2015-03-23T07:25:26Z</time>
      </trkpt>
      <trkpt lat="40.6914170" lon="-8.4795790">
        <ele>120.0</ele>
        <time>2015-03-23T07:25:35Z</time>
      </trkpt>
      <trkpt lat="40.6914910" lon="-8.4795780">
        <ele>120.1</ele>
        <time>2015-03-23T07:25:48Z</time>
      </trkpt>
      <trkpt lat="40.6915200" lon="-8.4793980">
        <ele>120.1</ele>
        <time>2015-03-23T07:26:24Z</time>
      </trkpt>
      <trkpt lat="40.6917510" lon="-8.4792420">
        <ele>120.5</ele>
        <time>2015-03-23T07:26:35Z</time>
      </trkpt>
      <trkpt lat="40.6919860" lon="-8.4790810">
        <ele>121.0</ele>
        <time>2015-03-23T07:26:46Z</time>
      </trkpt>
      <trkpt lat="40.6922830" lon="-8.4787700">
        <ele>121.7</ele>
        <time>2015-03-23T07:27:02Z</time>
      </trkpt>
      <trkpt lat="40.6924320" lon="-8.4787960">
        <ele>121.6</ele>
        <time>2015-03-23T07:27:11Z</time>
      </trkpt>
      <trkpt lat="40.6925890" lon="-8.4788580">
        <ele>120.2</ele>
        <time>2015-03-23T07:28:08Z</time>
      </trkpt>
      <trkpt lat="40.6927640" lon="-8.4792240">
        <ele>121.6</ele>
        <time>2015-03-23T07:51:11Z</time>
      </trkpt>
      <trkpt lat="40.6928060" lon="-8.4792800">
        <ele>121.8</ele>
        <time>2015-03-23T07:51:14Z</time>
      </trkpt>
      <trkpt lat="40.6928670" lon="-8.4793510">
        <ele>122.1</ele>
        <time>2015-03-23T07:51:18Z</time>
      </trkpt>
      <trkpt lat="40.6929530" lon="-8.4794270">
        <ele>122.3</ele>
        <time>2015-03-23T07:51:23Z</time>
      </trkpt>
      <trkpt lat="40.6930110" lon="-8.4794870">
        <ele>122.4</ele>
        <time>2015-03-23T07:51:27Z</time>
      </trkpt>
      <trkpt lat="40.6930770" lon="-8.4795850">
        <ele>122.8</ele>
        <time>2015-03-23T07:51:41Z</time>
      </trkpt>
      <trkpt lat="40.6932590" lon="-8.4797440">
        <ele>124.7</ele>
        <time>2015-03-23T07:52:17Z</time>
      </trkpt>
      <trkpt lat="40.6935160" lon="-8.4799980">
        <ele>126.5</ele>
        <time>2015-03-23T07:52:34Z</time>
      </trkpt>
      <trkpt lat="40.6938060" lon="-8.4801700">
        <ele>127.7</ele>
        <time>2015-03-23T07:52:51Z</time>
      </trkpt>
      <trkpt lat="40.6941150" lon="-8.4801770">
        <ele>128.7</ele>
        <time>2015-03-23T07:53:06Z</time>
      </trkpt>
      <trkpt lat="40.6945460" lon="-8.4801380">
        <ele>129.9</ele>
        <time>2015-03-23T07:53:26Z</time>
      </trkpt>
      <trkpt lat="40.6949210" lon="-8.4801600">
        <ele>130.7</ele>
        <time>2015-03-23T07:53:43Z</time>
      </trkpt>
      <trkpt lat="40.6954600" lon="-8.4802480">
        <ele>131.8</ele>
        <time>2015-03-23T07:54:06Z</time>
      </trkpt>
      <trkpt lat="40.6957800" lon="-8.4803300">
        <ele>132.6</ele>
        <time>2015-03-23T07:54:24Z</time>
      </trkpt>
      <trkpt lat="40.6959410" lon="-8.4803330">
        <ele>133.1</ele>
        <time>2015-03-23T07:54:42Z</time>
      </trkpt>
      <trkpt lat="40.6963090" lon="-8.4804030">
        <ele>134.6</ele>
        <time>2015-03-23T07:54:58Z</time>
      </trkpt>
      <trkpt lat="40.6967730" lon="-8.4805000">
        <ele>135.6</ele>
        <time>2015-03-23T07:55:19Z</time>
      </trkpt>
      <trkpt lat="40.6971920" lon="-8.4805340">
        <ele>136.2</ele>
        <time>2015-03-23T07:55:37Z</time>
      </trkpt>
      <trkpt lat="40.6976260" lon="-8.4805260">
        <ele>136.8</ele>
        <time>2015-03-23T07:55:56Z</time>
      </trkpt>
      <trkpt lat="40.6981730" lon="-8.4805040">
        <ele>138.3</ele>
        <time>2015-03-23T07:56:20Z</time>
      </trkpt>
      <trkpt lat="40.6987500" lon="-8.4804750">
        <ele>140.2</ele>
        <time>2015-03-23T07:56:44Z</time>
      </trkpt>
      <trkpt lat="40.6992430" lon="-8.4804460">
        <ele>139.3</ele>
        <time>2015-03-23T07:57:01Z</time>
      </trkpt>
      <trkpt lat="40.6997930" lon="-8.4805380">
        <ele>137.2</ele>
        <time>2015-03-23T07:57:19Z</time>
      </trkpt>
      <trkpt lat="40.6997990" lon="-8.4810250">
        <ele>135.6</ele>
        <time>2015-03-23T07:57:31Z</time>
      </trkpt>
      <trkpt lat="40.6999980" lon="-8.4811090">
        <ele>135.6</ele>
        <time>2015-03-23T07:57:39Z</time>
      </trkpt>
      <trkpt lat="40.7002830" lon="-8.4812030">
        <ele>135.7</ele>
        <time>2015-03-23T07:57:50Z</time>
      </trkpt>
      <trkpt lat="40.7005790" lon="-8.4814810">
        <ele>135.3</ele>
        <time>2015-03-23T07:58:01Z</time>
      </trkpt>
      <trkpt lat="40.7007610" lon="-8.4814760">
        <ele>136.1</ele>
        <time>2015-03-23T07:58:04Z</time>
      </trkpt>
      <trkpt lat="40.7010690" lon="-8.4811030">
        <ele>138.4</ele>
        <time>2015-03-23T07:58:10Z</time>
      </trkpt>
      <trkpt lat="40.7011610" lon="-8.4807350">
        <ele>139.7</ele>
        <time>2015-03-23T07:58:14Z</time>
      </trkpt>
      <trkpt lat="40.7012720" lon="-8.4805130">
        <ele>140.4</ele>
        <time>2015-03-23T07:58:18Z</time>
      </trkpt>
      <trkpt lat="40.7016300" lon="-8.4802350">
        <ele>142.1</ele>
        <time>2015-03-23T07:58:29Z</time>
      </trkpt>
      <trkpt lat="40.7017180" lon="-8.4801780">
        <ele>142.5</ele>
        <time>2015-03-23T07:58:33Z</time>
      </trkpt>
      <trkpt lat="40.7019530" lon="-8.4798060">
        <ele>144.0</ele>
        <time>2015-03-23T07:58:50Z</time>
      </trkpt>
      <trkpt lat="40.7018920" lon="-8.4793140">
        <ele>144.0</ele>
        <time>2015-03-23T07:59:08Z</time>
      </trkpt>
      <trkpt lat="40.7018640" lon="-8.4792320">
        <ele>143.8</ele>
        <time>2015-03-23T07:59:13Z</time>
      </trkpt>
      <trkpt lat="40.7018970" lon="-8.4790730">
        <ele>144.2</ele>
        <time>2015-03-23T07:59:19Z</time>
      </trkpt>
      <trkpt lat="40.7021920" lon="-8.4785400">
        <ele>147.0</ele>
        <time>2015-03-23T07:59:40Z</time>
      </trkpt>
      <trkpt lat="40.7025100" lon="-8.4782180">
        <ele>149.7</ele>
        <time>2015-03-23T07:59:58Z</time>
      </trkpt>
      <trkpt lat="40.7027470" lon="-8.4780280">
        <ele>151.4</ele>
        <time>2015-03-23T08:00:12Z</time>
      </trkpt>
      <trkpt lat="40.7030630" lon="-8.4778150">
        <ele>152.8</ele>
        <time>2015-03-23T08:00:29Z</time>
      </trkpt>
      <trkpt lat="40.7034270" lon="-8.4775610">
        <ele>153.6</ele>
        <time>2015-03-23T08:00:48Z</time>
      </trkpt>
      <trkpt lat="40.7037890" lon="-8.4772990">
        <ele>154.6</ele>
        <time>2015-03-23T08:01:05Z</time>
      </trkpt>
      <trkpt lat="40.7042140" lon="-8.4770400">
        <ele>155.1</ele>
        <time>2015-03-23T08:01:24Z</time>
      </trkpt>
      <trkpt lat="40.7046300" lon="-8.4769180">
        <ele>156.0</ele>
        <time>2015-03-23T08:01:42Z</time>
      </trkpt>
      <trkpt lat="40.7050180" lon="-8.4768590">
        <ele>157.1</ele>
        <time>2015-03-23T08:01:59Z</time>
      </trkpt>
      <trkpt lat="40.7054070" lon="-8.4767960">
        <ele>158.1</ele>
        <time>2015-03-23T08:02:15Z</time>
      </trkpt>
      <trkpt lat="40.7057230" lon="-8.4766930">
        <ele>159.1</ele>
        <time>2015-03-23T08:02:28Z</time>
      </trkpt>
      <trkpt lat="40.7061050" lon="-8.4764880">
        <ele>160.4</ele>
        <time>2015-03-23T08:02:43Z</time>
      </trkpt>
      <trkpt lat="40.7064740" lon="-8.4763260">
        <ele>161.2</ele>
        <time>2015-03-23T08:02:57Z</time>
      </trkpt>
      <trkpt lat="40.7068110" lon="-8.4761970">
        <ele>161.5</ele>
        <time>2015-03-23T08:03:10Z</time>
      </trkpt>
      <trkpt lat="40.7071800" lon="-8.4760900">
        <ele>161.8</ele>
        <time>2015-03-23T08:03:24Z</time>
      </trkpt>
      <trkpt lat="40.7075700" lon="-8.4761570">
        <ele>162.0</ele>
        <time>2015-03-23T08:03:38Z</time>
      </trkpt>
      <trkpt lat="40.7079660" lon="-8.4762310">
        <ele>162.5</ele>
        <time>2015-03-23T08:03:52Z</time>
      </trkpt>
      <trkpt lat="40.7084140" lon="-8.4762370">
        <ele>163.2</ele>
        <time>2015-03-23T08:04:06Z</time>
      </trkpt>
      <trkpt lat="40.7088120" lon="-8.4759390">
        <ele>163.8</ele>
        <time>2015-03-23T08:04:21Z</time>
      </trkpt>
      <trkpt lat="40.7091870" lon="-8.4757210">
        <ele>163.3</ele>
        <time>2015-03-23T08:04:35Z</time>
      </trkpt>
      <trkpt lat="40.7095170" lon="-8.4756190">
        <ele>163.0</ele>
        <time>2015-03-23T08:04:46Z</time>
      </trkpt>
      <trkpt lat="40.7099970" lon="-8.4754160">
        <ele>163.6</ele>
        <time>2015-03-23T08:05:04Z</time>
      </trkpt>
      <trkpt lat="40.7103660" lon="-8.4752870">
        <ele>164.2</ele>
        <time>2015-03-23T08:05:20Z</time>
      </trkpt>
      <trkpt lat="40.7107080" lon="-8.4751750">
        <ele>165.0</ele>
        <time>2015-03-23T08:05:35Z</time>
      </trkpt>
      <trkpt lat="40.7110900" lon="-8.4749940">
        <ele>166.3</ele>
        <time>2015-03-23T08:05:50Z</time>
      </trkpt>
      <trkpt lat="40.7113840" lon="-8.4747460">
        <ele>167.2</ele>
        <time>2015-03-23T08:06:03Z</time>
      </trkpt>
      <trkpt lat="40.7117680" lon="-8.4744260">
        <ele>167.8</ele>
        <time>2015-03-23T08:06:18Z</time>
      </trkpt>
      <trkpt lat="40.7118440" lon="-8.4740460">
        <ele>167.6</ele>
        <time>2015-03-23T08:06:31Z</time>
      </trkpt>
      <trkpt lat="40.7118080" lon="-8.4735970">
        <ele>166.7</ele>
        <time>2015-03-23T08:06:46Z</time>
      </trkpt>
      <trkpt lat="40.7117970" lon="-8.4733980">
        <ele>166.3</ele>
        <time>2015-03-23T08:06:53Z</time>
      </trkpt>
      <trkpt lat="40.7117470" lon="-8.4731270">
        <ele>165.8</ele>
        <time>2015-03-23T08:07:05Z</time>
      </trkpt>
      <trkpt lat="40.7118130" lon="-8.4730860">
        <ele>165.7</ele>
        <time>2015-03-23T08:07:11Z</time>
      </trkpt>
      <trkpt lat="40.7121040" lon="-8.4733040">
        <ele>166.6</ele>
        <time>2015-03-23T08:07:27Z</time>
      </trkpt>
      <trkpt lat="40.7124350" lon="-8.4734960">
        <ele>168.2</ele>
        <time>2015-03-23T08:07:43Z</time>
      </trkpt>
      <trkpt lat="40.7127750" lon="-8.4735530">
        <ele>170.4</ele>
        <time>2015-03-23T08:07:58Z</time>
      </trkpt>
      <trkpt lat="40.7130400" lon="-8.4733540">
        <ele>171.0</ele>
        <time>2015-03-23T08:08:12Z</time>
      </trkpt>
      <trkpt lat="40.7132140" lon="-8.4728810">
        <ele>170.1</ele>
        <time>2015-03-23T08:08:28Z</time>
      </trkpt>
      <trkpt lat="40.7133690" lon="-8.4724940">
        <ele>169.4</ele>
        <time>2015-03-23T08:08:42Z</time>
      </trkpt>
      <trkpt lat="40.7135510" lon="-8.4722580">
        <ele>168.9</ele>
        <time>2015-03-23T08:08:55Z</time>
      </trkpt>
      <trkpt lat="40.7137760" lon="-8.4724050">
        <ele>170.1</ele>
        <time>2015-03-23T08:09:08Z</time>
      </trkpt>
      <trkpt lat="40.7138290" lon="-8.4724780">
        <ele>170.6</ele>
        <time>2015-03-23T08:09:12Z</time>
      </trkpt>
      <trkpt lat="40.7141070" lon="-8.4727120">
        <ele>172.7</ele>
        <time>2015-03-23T08:09:28Z</time>
      </trkpt>
      <trkpt lat="40.7144000" lon="-8.4729890">
        <ele>173.7</ele>
        <time>2015-03-23T08:09:43Z</time>
      </trkpt>
      <trkpt lat="40.7147500" lon="-8.4733440">
        <ele>175.0</ele>
        <time>2015-03-23T08:10:01Z</time>
      </trkpt>
      <trkpt lat="40.7151110" lon="-8.4735620">
        <ele>175.8</ele>
        <time>2015-03-23T08:10:17Z</time>
      </trkpt>
      <trkpt lat="40.7153730" lon="-8.4736310">
        <ele>176.5</ele>
        <time>2015-03-23T08:10:28Z</time>
      </trkpt>
      <trkpt lat="40.7157670" lon="-8.4737510">
        <ele>178.5</ele>
        <time>2015-03-23T08:10:44Z</time>
      </trkpt>
      <trkpt lat="40.7161510" lon="-8.4738850">
        <ele>178.6</ele>
        <time>2015-03-23T08:11:00Z</time>
      </trkpt>
      <trkpt lat="40.7167480" lon="-8.4740740">
        <ele>180.4</ele>
        <time>2015-03-23T08:11:15Z</time>
      </trkpt>
      <trkpt lat="40.7173370" lon="-8.4742540">
        <ele>182.9</ele>
        <time>2015-03-23T08:11:30Z</time>
      </trkpt>
      <trkpt lat="40.7180120" lon="-8.4744530">
        <ele>184.9</ele>
        <time>2015-03-23T08:11:49Z</time>
      </trkpt>
      <trkpt lat="40.7186770" lon="-8.4746480">
        <ele>185.4</ele>
        <time>2015-03-23T08:12:08Z</time>
      </trkpt>
      <trkpt lat="40.7192840" lon="-8.4748370">
        <ele>186.6</ele>
        <time>2015-03-23T08:12:26Z</time>
      </trkpt>
      <trkpt lat="40.7198290" lon="-8.4749600">
        <ele>188.3</ele>
        <time>2015-03-23T08:12:42Z</time>
      </trkpt>
      <trkpt lat="40.7204430" lon="-8.4750520">
        <ele>188.5</ele>
        <time>2015-03-23T08:12:59Z</time>
      </trkpt>
      <trkpt lat="40.7210980" lon="-8.4750580">
        <ele>188.8</ele>
        <time>2015-03-23T08:13:17Z</time>
      </trkpt>
      <trkpt lat="40.7216210" lon="-8.4750510">
        <ele>188.9</ele>
        <time>2015-03-23T08:13:31Z</time>
      </trkpt>
      <trkpt lat="40.7223980" lon="-8.4750390">
        <ele>187.1</ele>
        <time>2015-03-23T08:13:51Z</time>
      </trkpt>
      <trkpt lat="40.7230110" lon="-8.4750660">
        <ele>185.6</ele>
        <time>2015-03-23T08:14:08Z</time>
      </trkpt>
      <trkpt lat="40.7230840" lon="-8.4751210">
        <ele>185.5</ele>
        <time>2015-03-23T08:14:10Z</time>
      </trkpt>
      <trkpt lat="40.7235680" lon="-8.4754320">
        <ele>183.9</ele>
        <time>2015-03-23T08:14:26Z</time>
      </trkpt>
      <trkpt lat="40.7240850" lon="-8.4756090">
        <ele>183.0</ele>
        <time>2015-03-23T08:14:41Z</time>
      </trkpt>
      <trkpt lat="40.7246210" lon="-8.4756560">
        <ele>182.5</ele>
        <time>2015-03-23T08:14:57Z</time>
      </trkpt>
      <trkpt lat="40.7251530" lon="-8.4757120">
        <ele>181.8</ele>
        <time>2015-03-23T08:15:12Z</time>
      </trkpt>
      <trkpt lat="40.7256370" lon="-8.4758220">
        <ele>181.8</ele>
        <time>2015-03-23T08:15:27Z</time>
      </trkpt>
      <trkpt lat="40.7259980" lon="-8.4760540">
        <ele>185.0</ele>
        <time>2015-03-23T08:15:39Z</time>
      </trkpt>
      <trkpt lat="40.7264400" lon="-8.4763470">
        <ele>186.1</ele>
        <time>2015-03-23T08:15:54Z</time>
      </trkpt>
      <trkpt lat="40.7268540" lon="-8.4766930">
        <ele>185.1</ele>
        <time>2015-03-23T08:16:09Z</time>
      </trkpt>
      <trkpt lat="40.7272210" lon="-8.4771020">
        <ele>183.4</ele>
        <time>2015-03-23T08:16:23Z</time>
      </trkpt>
      <trkpt lat="40.7273800" lon="-8.4773210">
        <ele>182.7</ele>
        <time>2015-03-23T08:16:29Z</time>
      </trkpt>
      <trkpt lat="40.7274380" lon="-8.4773980">
        <ele>182.4</ele>
        <time>2015-03-23T08:16:31Z</time>
      </trkpt>
      <trkpt lat="40.7275450" lon="-8.4775710">
        <ele>182.0</ele>
        <time>2015-03-23T08:16:35Z</time>
      </trkpt>
      <trkpt lat="40.7278060" lon="-8.4781720">
        <ele>180.2</ele>
        <time>2015-03-23T08:16:48Z</time>
      </trkpt>
      <trkpt lat="40.7279260" lon="-8.4786480">
        <ele>178.4</ele>
        <time>2015-03-23T08:17:01Z</time>
      </trkpt>
      <trkpt lat="40.7280910" lon="-8.4787700">
        <ele>177.8</ele>
        <time>2015-03-23T08:17:09Z</time>
      </trkpt>
      <trkpt lat="40.7282730" lon="-8.4792630">
        <ele>176.6</ele>
        <time>2015-03-23T08:17:25Z</time>
      </trkpt>
      <trkpt lat="40.7283150" lon="-8.4793960">
        <ele>176.5</ele>
        <time>2015-03-23T08:17:31Z</time>
      </trkpt>
      <trkpt lat="40.7283550" lon="-8.4794790">
        <ele>176.5</ele>
        <time>2015-03-23T08:17:35Z</time>
      </trkpt>
      <trkpt lat="40.7284180" lon="-8.4795980">
        <ele>176.4</ele>
        <time>2015-03-23T08:17:47Z</time>
      </trkpt>
      <trkpt lat="40.7284450" lon="-8.4797390">
        <ele>176.1</ele>
        <time>2015-03-23T08:18:01Z</time>
      </trkpt>
      <trkpt lat="40.7285020" lon="-8.4798530">
        <ele>175.7</ele>
        <time>2015-03-23T08:18:15Z</time>
      </trkpt>
      <trkpt lat="40.7285680" lon="-8.4799940">
        <ele>175.3</ele>
        <time>2015-03-23T08:18:29Z</time>
      </trkpt>
      <trkpt lat="40.7286550" lon="-8.4801370">
        <ele>175.1</ele>
        <time>2015-03-23T08:18:43Z</time>
      </trkpt>
      <trkpt lat="40.7287210" lon="-8.4802330">
        <ele>175.0</ele>
        <time>2015-03-23T08:19:23Z</time>
      </trkpt>
      <trkpt lat="40.7289510" lon="-8.4805590">
        <ele>174.3</ele>
        <time>2015-03-23T08:19:36Z</time>
      </trkpt>
      <trkpt lat="40.7292250" lon="-8.4810460">
        <ele>173.2</ele>
        <time>2015-03-23T08:19:49Z</time>
      </trkpt>
      <trkpt lat="40.7295890" lon="-8.4817180">
        <ele>170.8</ele>
        <time>2015-03-23T08:20:04Z</time>
      </trkpt>
      <trkpt lat="40.7299220" lon="-8.4821260">
        <ele>170.1</ele>
        <time>2015-03-23T08:20:16Z</time>
      </trkpt>
      <trkpt lat="40.7301500" lon="-8.4825440">
        <ele>168.8</ele>
        <time>2015-03-23T08:20:27Z</time>
      </trkpt>
      <trkpt lat="40.7304730" lon="-8.4830660">
        <ele>166.7</ele>
        <time>2015-03-23T08:20:41Z</time>
      </trkpt>
      <trkpt lat="40.7306340" lon="-8.4832470">
        <ele>165.8</ele>
        <time>2015-03-23T08:20:53Z</time>
      </trkpt>
      <trkpt lat="40.7307820" lon="-8.4834230">
        <ele>164.9</ele>
        <time>2015-03-23T08:21:08Z</time>
      </trkpt>
      <trkpt lat="40.7308760" lon="-8.4836240">
        <ele>164.2</ele>
        <time>2015-03-23T08:21:24Z</time>
      </trkpt>
      <trkpt lat="40.7311010" lon="-8.4838990">
        <ele>163.2</ele>
        <time>2015-03-23T08:21:41Z</time>
      </trkpt>
      <trkpt lat="40.7314290" lon="-8.4842950">
        <ele>162.4</ele>
        <time>2015-03-23T08:21:55Z</time>
      </trkpt>
      <trkpt lat="40.7318400" lon="-8.4846130">
        <ele>162.5</ele>
        <time>2015-03-23T08:22:09Z</time>
      </trkpt>
      <trkpt lat="40.7322600" lon="-8.4848040">
        <ele>159.8</ele>
        <time>2015-03-23T08:22:20Z</time>
      </trkpt>
      <trkpt lat="40.7325650" lon="-8.4849950">
        <ele>157.8</ele>
        <time>2015-03-23T08:22:27Z</time>
      </trkpt>
      <trkpt lat="40.7329090" lon="-8.4850240">
        <ele>156.5</ele>
        <time>2015-03-23T08:22:38Z</time>
      </trkpt>
      <trkpt lat="40.7331720" lon="-8.4849620">
        <ele>156.0</ele>
        <time>2015-03-23T08:22:51Z</time>
      </trkpt>
      <trkpt lat="40.7335720" lon="-8.4848560">
        <ele>157.0</ele>
        <time>2015-03-23T08:23:08Z</time>
      </trkpt>
      <trkpt lat="40.7337640" lon="-8.4848100">
        <ele>158.3</ele>
        <time>2015-03-23T08:23:19Z</time>
      </trkpt>
      <trkpt lat="40.7340280" lon="-8.4849530">
        <ele>160.3</ele>
        <time>2015-03-23T08:23:36Z</time>
      </trkpt>
      <trkpt lat="40.7342970" lon="-8.4852420">
        <ele>158.7</ele>
        <time>2015-03-23T08:23:50Z</time>
      </trkpt>
      <trkpt lat="40.7345460" lon="-8.4856980">
        <ele>153.7</ele>
        <time>2015-03-23T08:24:01Z</time>
      </trkpt>
      <trkpt lat="40.7347730" lon="-8.4861630">
        <ele>151.6</ele>
        <time>2015-03-23T08:24:09Z</time>
      </trkpt>
      <trkpt lat="40.7350090" lon="-8.4865820">
        <ele>150.6</ele>
        <time>2015-03-23T08:24:16Z</time>
      </trkpt>
      <trkpt lat="40.7351740" lon="-8.4872810">
        <ele>150.0</ele>
        <time>2015-03-23T08:24:25Z</time>
      </trkpt>
      <trkpt lat="40.7350180" lon="-8.4876770">
        <ele>149.5</ele>
        <time>2015-03-23T08:24:32Z</time>
      </trkpt>
      <trkpt lat="40.7348680" lon="-8.4877040">
        <ele>149.1</ele>
        <time>2015-03-23T08:24:35Z</time>
      </trkpt>
      <trkpt lat="40.7347440" lon="-8.4880620">
        <ele>147.5</ele>
        <time>2015-03-23T08:24:43Z</time>
      </trkpt>
      <trkpt lat="40.7348820" lon="-8.4883100">
        <ele>146.7</ele>
        <time>2015-03-23T08:24:49Z</time>
      </trkpt>
      <trkpt lat="40.7356310" lon="-8.4882930">
        <ele>147.3</ele>
        <time>2015-03-23T08:25:08Z</time>
      </trkpt>
      <trkpt lat="40.7363990" lon="-8.4884370">
        <ele>144.3</ele>
        <time>2015-03-23T08:25:26Z</time>
      </trkpt>
      <trkpt lat="40.7364440" lon="-8.4884620">
        <ele>144.1</ele>
        <time>2015-03-23T08:25:27Z</time>
      </trkpt>
      <trkpt lat="40.7372060" lon="-8.4889850">
        <ele>140.7</ele>
        <time>2015-03-23T08:25:41Z</time>
      </trkpt>
      <trkpt lat="40.7379710" lon="-8.4895120">
        <ele>139.7</ele>
        <time>2015-03-23T08:25:58Z</time>
      </trkpt>
      <trkpt lat="40.7382700" lon="-8.4896250">
        <ele>141.0</ele>
        <time>2015-03-23T08:26:06Z</time>
      </trkpt>
      <trkpt lat="40.7389300" lon="-8.4892880">
        <ele>144.5</ele>
        <time>2015-03-23T08:26:24Z</time>
      </trkpt>
      <trkpt lat="40.7394330" lon="-8.4892910">
        <ele>146.7</ele>
        <time>2015-03-23T08:26:39Z</time>
      </trkpt>
      <trkpt lat="40.7400110" lon="-8.4893680">
        <ele>148.0</ele>
        <time>2015-03-23T08:26:57Z</time>
      </trkpt>
      <trkpt lat="40.7406600" lon="-8.4896600">
        <ele>149.8</ele>
        <time>2015-03-23T08:27:18Z</time>
      </trkpt>
      <trkpt lat="40.7412230" lon="-8.4898250">
        <ele>151.0</ele>
        <time>2015-03-23T08:27:35Z</time>
      </trkpt>
      <trkpt lat="40.7417950" lon="-8.4900820">
        <ele>152.1</ele>
        <time>2015-03-23T08:27:52Z</time>
      </trkpt>
      <trkpt lat="40.7420950" lon="-8.4904250">
        <ele>152.9</ele>
        <time>2015-03-23T08:28:05Z</time>
      </trkpt>
      <trkpt lat="40.7421120" lon="-8.4905840">
        <ele>153.1</ele>
        <time>2015-03-23T08:28:10Z</time>
      </trkpt>
      <trkpt lat="40.7421950" lon="-8.4906000">
        <ele>153.3</ele>
        <time>2015-03-23T08:28:15Z</time>
      </trkpt>
      <trkpt lat="40.7426970" lon="-8.4905710">
        <ele>154.1</ele>
        <time>2015-03-23T08:28:33Z</time>
      </trkpt>
      <trkpt lat="40.7427440" lon="-8.4905760">
        <ele>154.1</ele>
        <time>2015-03-23T08:29:06Z</time>
      </trkpt>
      <trkpt lat="40.7429300" lon="-8.4906150">
        <ele>154.5</ele>
        <time>2015-03-23T08:29:15Z</time>
      </trkpt>
      <trkpt lat="40.7434400" lon="-8.4905240">
        <ele>155.3</ele>
        <time>2015-03-23T08:29:31Z</time>
      </trkpt>
      <trkpt lat="40.7439120" lon="-8.4905230">
        <ele>153.8</ele>
        <time>2015-03-23T08:29:45Z</time>
      </trkpt>
      <trkpt lat="40.7440320" lon="-8.4905100">
        <ele>153.5</ele>
        <time>2015-03-23T08:29:48Z</time>
      </trkpt>
      <trkpt lat="40.7441660" lon="-8.4905260">
        <ele>153.1</ele>
        <time>2015-03-23T08:29:51Z</time>
      </trkpt>
      <trkpt lat="40.7443020" lon="-8.4905530">
        <ele>152.8</ele>
        <time>2015-03-23T08:29:54Z</time>
      </trkpt>
      <trkpt lat="40.7450600" lon="-8.4905070">
        <ele>152.5</ele>
        <time>2015-03-23T08:30:10Z</time>
      </trkpt>
      <trkpt lat="40.7455590" lon="-8.4904940">
        <ele>154.1</ele>
        <time>2015-03-23T08:30:24Z</time>
      </trkpt>
      <trkpt lat="40.7460750" lon="-8.4905640">
        <ele>155.1</ele>
        <time>2015-03-23T08:30:39Z</time>
      </trkpt>
      <trkpt lat="40.7465270" lon="-8.4906050">
        <ele>156.3</ele>
        <time>2015-03-23T08:30:52Z</time>
      </trkpt>
      <trkpt lat="40.7471400" lon="-8.4907320">
        <ele>157.3</ele>
        <time>2015-03-23T08:31:08Z</time>
      </trkpt>
      <trkpt lat="40.7478150" lon="-8.4908050">
        <ele>157.6</ele>
        <time>2015-03-23T08:31:25Z</time>
      </trkpt>
      <trkpt lat="40.7485190" lon="-8.4904290">
        <ele>158.9</ele>
        <time>2015-03-23T08:31:44Z</time>
      </trkpt>
      <trkpt lat="40.7487000" lon="-8.4902720">
        <ele>159.5</ele>
        <time>2015-03-23T08:31:50Z</time>
      </trkpt>
      <trkpt lat="40.7492800" lon="-8.4902180">
        <ele>159.0</ele>
        <time>2015-03-23T08:32:03Z</time>
      </trkpt>
      <trkpt lat="40.7498260" lon="-8.4902420">
        <ele>157.8</ele>
        <time>2015-03-23T08:32:13Z</time>
      </trkpt>
      <trkpt lat="40.7506680" lon="-8.4904370">
        <ele>158.1</ele>
        <time>2015-03-23T08:32:33Z</time>
      </trkpt>
      <trkpt lat="40.7513670" lon="-8.4906410">
        <ele>159.1</ele>
        <time>2015-03-23T08:32:50Z</time>
      </trkpt>
      <trkpt lat="40.7519780" lon="-8.4908480">
        <ele>158.7</ele>
        <time>2015-03-23T08:33:05Z</time>
      </trkpt>
      <trkpt lat="40.7524510" lon="-8.4908590">
        <ele>158.6</ele>
        <time>2015-03-23T08:33:16Z</time>
      </trkpt>
      <trkpt lat="40.7531050" lon="-8.4904120">
        <ele>158.9</ele>
        <time>2015-03-23T08:33:33Z</time>
      </trkpt>
      <trkpt lat="40.7533750" lon="-8.4899680">
        <ele>155.5</ele>
        <time>2015-03-23T08:33:41Z</time>
      </trkpt>
      <trkpt lat="40.7536810" lon="-8.4897080">
        <ele>153.4</ele>
        <time>2015-03-23T08:33:47Z</time>
      </trkpt>
      <trkpt lat="40.7544470" lon="-8.4894840">
        <ele>151.9</ele>
        <time>2015-03-23T08:34:03Z</time>
      </trkpt>
      <trkpt lat="40.7549090" lon="-8.4893940">
        <ele>151.4</ele>
        <time>2015-03-23T08:34:14Z</time>
      </trkpt>
      <trkpt lat="40.7552350" lon="-8.4892970">
        <ele>151.3</ele>
        <time>2015-03-23T08:34:22Z</time>
      </trkpt>
      <trkpt lat="40.7557890" lon="-8.4891220">
        <ele>148.1</ele>
        <time>2015-03-23T08:34:35Z</time>
      </trkpt>
      <trkpt lat="40.7561120" lon="-8.4890560">
        <ele>144.9</ele>
        <time>2015-03-23T08:34:39Z</time>
      </trkpt>
      <trkpt lat="40.7565130" lon="-8.4890200">
        <ele>144.0</ele>
        <time>2015-03-23T08:34:43Z</time>
      </trkpt>
      <trkpt lat="40.7567150" lon="-8.4890110">
        <ele>143.9</ele>
        <time>2015-03-23T08:34:45Z</time>
      </trkpt>
      <trkpt lat="40.7568130" lon="-8.4890200">
        <ele>143.9</ele>
        <time>2015-03-23T08:34:46Z</time>
      </trkpt>
      <trkpt lat="40.7571580" lon="-8.4891480">
        <ele>143.7</ele>
        <time>2015-03-23T08:34:50Z</time>
      </trkpt>
      <trkpt lat="40.7577980" lon="-8.4896420">
        <ele>143.0</ele>
        <time>2015-03-23T08:35:02Z</time>
      </trkpt>
      <trkpt lat="40.7580470" lon="-8.4898430">
        <ele>141.8</ele>
        <time>2015-03-23T08:35:08Z</time>
      </trkpt>
      <trkpt lat="40.7584300" lon="-8.4899150">
        <ele>141.0</ele>
        <time>2015-03-23T08:35:14Z</time>
      </trkpt>
      <trkpt lat="40.7591750" lon="-8.4895440">
        <ele>142.8</ele>
        <time>2015-03-23T08:35:28Z</time>
      </trkpt>
      <trkpt lat="40.7594920" lon="-8.4893530">
        <ele>144.8</ele>
        <time>2015-03-23T08:35:41Z</time>
      </trkpt>
      <trkpt lat="40.7597370" lon="-8.4891910">
        <ele>146.7</ele>
        <time>2015-03-23T08:35:55Z</time>
      </trkpt>
      <trkpt lat="40.7600750" lon="-8.4889960">
        <ele>149.4</ele>
        <time>2015-03-23T08:36:14Z</time>
      </trkpt>
      <trkpt lat="40.7604230" lon="-8.4887930">
        <ele>151.8</ele>
        <time>2015-03-23T08:36:31Z</time>
      </trkpt>
      <trkpt lat="40.7607930" lon="-8.4886630">
        <ele>153.8</ele>
        <time>2015-03-23T08:36:46Z</time>
      </trkpt>
      <trkpt lat="40.7611160" lon="-8.4883600">
        <ele>155.8</ele>
        <time>2015-03-23T08:37:02Z</time>
      </trkpt>
      <trkpt lat="40.7611420" lon="-8.4879630">
        <ele>156.5</ele>
        <time>2015-03-23T08:37:14Z</time>
      </trkpt>
      <trkpt lat="40.7612780" lon="-8.4878520">
        <ele>156.1</ele>
        <time>2015-03-23T08:37:19Z</time>
      </trkpt>
      <trkpt lat="40.7615330" lon="-8.4875770">
        <ele>154.3</ele>
        <time>2015-03-23T08:37:25Z</time>
      </trkpt>
      <trkpt lat="40.7616400" lon="-8.4873520">
        <ele>153.5</ele>
        <time>2015-03-23T08:37:28Z</time>
      </trkpt>
      <trkpt lat="40.7622460" lon="-8.4866850">
        <ele>149.5</ele>
        <time>2015-03-23T08:37:39Z</time>
      </trkpt>
      <trkpt lat="40.7630310" lon="-8.4862790">
        <ele>147.7</ele>
        <time>2015-03-23T08:37:50Z</time>
      </trkpt>
      <trkpt lat="40.7631870" lon="-8.4862010">
        <ele>148.1</ele>
        <time>2015-03-23T08:37:54Z</time>
      </trkpt>
      <trkpt lat="40.7636180" lon="-8.4860010">
        <ele>150.8</ele>
        <time>2015-03-23T08:38:08Z</time>
      </trkpt>
      <trkpt lat="40.7643620" lon="-8.4856510">
        <ele>152.8</ele>
        <time>2015-03-23T08:38:30Z</time>
      </trkpt>
      <trkpt lat="40.7649490" lon="-8.4853800">
        <ele>153.8</ele>
        <time>2015-03-23T08:38:48Z</time>
      </trkpt>
      <trkpt lat="40.7650580" lon="-8.4853270">
        <ele>153.6</ele>
        <time>2015-03-23T08:38:51Z</time>
      </trkpt>
      <trkpt lat="40.7657740" lon="-8.4849600">
        <ele>153.2</ele>
        <time>2015-03-23T08:39:06Z</time>
      </trkpt>
      <trkpt lat="40.7660580" lon="-8.4848920">
        <ele>153.1</ele>
        <time>2015-03-23T08:39:11Z</time>
      </trkpt>
      <trkpt lat="40.7665120" lon="-8.4849570">
        <ele>153.7</ele>
        <time>2015-03-23T08:39:23Z</time>
      </trkpt>
      <trkpt lat="40.7669100" lon="-8.4852500">
        <ele>153.2</ele>
        <time>2015-03-23T08:39:36Z</time>
      </trkpt>
      <trkpt lat="40.7672740" lon="-8.4854270">
        <ele>150.2</ele>
        <time>2015-03-23T08:39:43Z</time>
      </trkpt>
      <trkpt lat="40.7675250" lon="-8.4855370">
        <ele>146.7</ele>
        <time>2015-03-23T08:39:46Z</time>
      </trkpt>
      <trkpt lat="40.7677260" lon="-8.4856240">
        <ele>144.4</ele>
        <time>2015-03-23T08:39:48Z</time>
      </trkpt>
      <trkpt lat="40.7680610" lon="-8.4857700">
        <ele>142.4</ele>
        <time>2015-03-23T08:39:51Z</time>
      </trkpt>
      <trkpt lat="40.7684190" lon="-8.4858900">
        <ele>144.2</ele>
        <time>2015-03-23T08:39:54Z</time>
      </trkpt>
      <trkpt lat="40.7690490" lon="-8.4860160">
        <ele>150.5</ele>
        <time>2015-03-23T08:40:02Z</time>
      </trkpt>
      <trkpt lat="40.7691820" lon="-8.4860320">
        <ele>151.2</ele>
        <time>2015-03-23T08:40:06Z</time>
      </trkpt>
      <trkpt lat="40.7692800" lon="-8.4860280">
        <ele>151.7</ele>
        <time>2015-03-23T08:40:09Z</time>
      </trkpt>
      <trkpt lat="40.7696580" lon="-8.4858650">
        <ele>154.1</ele>
        <time>2015-03-23T08:40:24Z</time>
      </trkpt>
      <trkpt lat="40.7700930" lon="-8.4856310">
        <ele>153.6</ele>
        <time>2015-03-23T08:40:38Z</time>
      </trkpt>
      <trkpt lat="40.7703570" lon="-8.4854500">
        <ele>154.9</ele>
        <time>2015-03-23T08:40:52Z</time>
      </trkpt>
      <trkpt lat="40.7706280" lon="-8.4852340">
        <ele>156.8</ele>
        <time>2015-03-23T08:41:08Z</time>
      </trkpt>
      <trkpt lat="40.7708830" lon="-8.4849150">
        <ele>158.2</ele>
        <time>2015-03-23T08:41:24Z</time>
      </trkpt>
      <trkpt lat="40.7710920" lon="-8.4844920">
        <ele>158.5</ele>
        <time>2015-03-23T08:41:41Z</time>
      </trkpt>
      <trkpt lat="40.7713830" lon="-8.4840340">
        <ele>157.1</ele>
        <time>2015-03-23T08:41:57Z</time>
      </trkpt>
      <trkpt lat="40.7715460" lon="-8.4840040">
        <ele>156.5</ele>
        <time>2015-03-23T08:42:02Z</time>
      </trkpt>
      <trkpt lat="40.7716680" lon="-8.4840940">
        <ele>156.3</ele>
        <time>2015-03-23T08:42:07Z</time>
      </trkpt>
      <trkpt lat="40.7721110" lon="-8.4844560">
        <ele>155.8</ele>
        <time>2015-03-23T08:42:24Z</time>
      </trkpt>
      <trkpt lat="40.7725940" lon="-8.4848720">
        <ele>156.2</ele>
        <time>2015-03-23T08:42:41Z</time>
      </trkpt>
      <trkpt lat="40.7730700" lon="-8.4852770">
        <ele>156.3</ele>
        <time>2015-03-23T08:42:58Z</time>
      </trkpt>
      <trkpt lat="40.7732330" lon="-8.4854180">
        <ele>156.1</ele>
        <time>2015-03-23T08:43:10Z</time>
      </trkpt>
      <trkpt lat="40.7734570" lon="-8.4856100">
        <ele>156.0</ele>
        <time>2015-03-23T08:43:21Z</time>
      </trkpt>
      <trkpt lat="40.7736840" lon="-8.4858070">
        <ele>156.0</ele>
        <time>2015-03-23T08:43:30Z</time>
      </trkpt>
      <trkpt lat="40.7737770" lon="-8.4859220">
        <ele>156.0</ele>
        <time>2015-03-23T08:43:35Z</time>
      </trkpt>
      <trkpt lat="40.7743460" lon="-8.4863190">
        <ele>155.8</ele>
        <time>2015-03-23T08:43:52Z</time>
      </trkpt>
      <trkpt lat="40.7748840" lon="-8.4867020">
        <ele>156.2</ele>
        <time>2015-03-23T08:44:06Z</time>
      </trkpt>
      <trkpt lat="40.7750390" lon="-8.4867850">
        <ele>156.4</ele>
        <time>2015-03-23T08:44:11Z</time>
      </trkpt>
      <trkpt lat="40.7756370" lon="-8.4869960">
        <ele>156.0</ele>
        <time>2015-03-23T08:44:27Z</time>
      </trkpt>
      <trkpt lat="40.7763620" lon="-8.4871880">
        <ele>153.5</ele>
        <time>2015-03-23T08:44:42Z</time>
      </trkpt>
      <trkpt lat="40.7769840" lon="-8.4876040">
        <ele>151.9</ele>
        <time>2015-03-23T08:44:57Z</time>
      </trkpt>
      <trkpt lat="40.7772410" lon="-8.4879390">
        <ele>151.4</ele>
        <time>2015-03-23T08:45:05Z</time>
      </trkpt>
      <trkpt lat="40.7777170" lon="-8.4887320">
        <ele>149.7</ele>
        <time>2015-03-23T08:45:19Z</time>
      </trkpt>
      <trkpt lat="40.7780070" lon="-8.4888830">
        <ele>148.4</ele>
        <time>2015-03-23T08:45:26Z</time>
      </trkpt>
      <trkpt lat="40.7782350" lon="-8.4887060">
        <ele>147.6</ele>
        <time>2015-03-23T08:45:34Z</time>
      </trkpt>
      <trkpt lat="40.7786820" lon="-8.4885870">
        <ele>146.5</ele>
        <time>2015-03-23T08:45:50Z</time>
      </trkpt>
      <trkpt lat="40.7788030" lon="-8.4886130">
        <ele>146.4</ele>
        <time>2015-03-23T08:46:24Z</time>
      </trkpt>
      <trkpt lat="40.7791150" lon="-8.4886230">
        <ele>146.1</ele>
        <time>2015-03-23T08:46:29Z</time>
      </trkpt>
      <trkpt lat="40.7792850" lon="-8.4886420">
        <ele>145.2</ele>
        <time>2015-03-23T08:46:31Z</time>
      </trkpt>
      <trkpt lat="40.7795950" lon="-8.4887350">
        <ele>142.4</ele>
        <time>2015-03-23T08:46:35Z</time>
      </trkpt>
      <trkpt lat="40.7798840" lon="-8.4889200">
        <ele>140.4</ele>
        <time>2015-03-23T08:46:39Z</time>
      </trkpt>
      <trkpt lat="40.7801610" lon="-8.4888390">
        <ele>139.0</ele>
        <time>2015-03-23T08:46:44Z</time>
      </trkpt>
      <trkpt lat="40.7802550" lon="-8.4886780">
        <ele>138.6</ele>
        <time>2015-03-23T08:46:46Z</time>
      </trkpt>
      <trkpt lat="40.7802980" lon="-8.4885990">
        <ele>138.4</ele>
        <time>2015-03-23T08:46:47Z</time>
      </trkpt>
      <trkpt lat="40.7804830" lon="-8.4884270">
        <ele>137.6</ele>
        <time>2015-03-23T08:46:51Z</time>
      </trkpt>
      <trkpt lat="40.7807530" lon="-8.4883850">
        <ele>137.1</ele>
        <time>2015-03-23T08:47:04Z</time>
      </trkpt>
      <trkpt lat="40.7811210" lon="-8.4882280">
        <ele>139.3</ele>
        <time>2015-03-23T08:47:20Z</time>
      </trkpt>
      <trkpt lat="40.7815680" lon="-8.4881620">
        <ele>140.8</ele>
        <time>2015-03-23T08:47:35Z</time>
      </trkpt>
      <trkpt lat="40.7819810" lon="-8.4881670">
        <ele>141.7</ele>
        <time>2015-03-23T08:47:51Z</time>
      </trkpt>
      <trkpt lat="40.7824160" lon="-8.4881950">
        <ele>143.7</ele>
        <time>2015-03-23T08:48:09Z</time>
      </trkpt>
      <trkpt lat="40.7827760" lon="-8.4882750">
        <ele>144.8</ele>
        <time>2015-03-23T08:48:24Z</time>
      </trkpt>
      <trkpt lat="40.7831500" lon="-8.4884210">
        <ele>145.2</ele>
        <time>2015-03-23T08:48:38Z</time>
      </trkpt>
      <trkpt lat="40.7833170" lon="-8.4882400">
        <ele>146.9</ele>
        <time>2015-03-23T08:48:47Z</time>
      </trkpt>
      <trkpt lat="40.7835790" lon="-8.4879120">
        <ele>148.7</ele>
        <time>2015-03-23T08:49:04Z</time>
      </trkpt>
      <trkpt lat="40.7838480" lon="-8.4876120">
        <ele>150.3</ele>
        <time>2015-03-23T08:49:22Z</time>
      </trkpt>
      <trkpt lat="40.7839550" lon="-8.4872070">
        <ele>152.4</ele>
        <time>2015-03-23T08:49:39Z</time>
      </trkpt>
      <trkpt lat="40.7840360" lon="-8.4866340">
        <ele>154.9</ele>
        <time>2015-03-23T08:50:02Z</time>
      </trkpt>
      <trkpt lat="40.7841460" lon="-8.4862200">
        <ele>157.5</ele>
        <time>2015-03-23T08:50:20Z</time>
      </trkpt>
      <trkpt lat="40.7842610" lon="-8.4858950">
        <ele>159.6</ele>
        <time>2015-03-23T08:50:34Z</time>
      </trkpt>
      <trkpt lat="40.7844160" lon="-8.4855100">
        <ele>161.9</ele>
        <time>2015-03-23T08:50:51Z</time>
      </trkpt>
      <trkpt lat="40.7846070" lon="-8.4851470">
        <ele>164.0</ele>
        <time>2015-03-23T08:51:08Z</time>
      </trkpt>
      <trkpt lat="40.7847720" lon="-8.4847930">
        <ele>166.1</ele>
        <time>2015-03-23T08:51:25Z</time>
      </trkpt>
      <trkpt lat="40.7849680" lon="-8.4846950">
        <ele>167.5</ele>
        <time>2015-03-23T08:51:39Z</time>
      </trkpt>
      <trkpt lat="40.7850240" lon="-8.4846470">
        <ele>168.0</ele>
        <time>2015-03-23T08:51:57Z</time>
      </trkpt>
      <trkpt lat="40.7852530" lon="-8.4844370">
        <ele>169.6</ele>
        <time>2015-03-23T08:52:14Z</time>
      </trkpt>
      <trkpt lat="40.7854880" lon="-8.4843110">
        <ele>171.8</ele>
        <time>2015-03-23T08:52:29Z</time>
      </trkpt>
      <trkpt lat="40.7857330" lon="-8.4842370">
        <ele>173.7</ele>
        <time>2015-03-23T08:52:45Z</time>
      </trkpt>
      <trkpt lat="40.7859670" lon="-8.4841170">
        <ele>175.4</ele>
        <time>2015-03-23T08:53:00Z</time>
      </trkpt>
      <trkpt lat="40.7862100" lon="-8.4840220">
        <ele>177.3</ele>
        <time>2015-03-23T08:53:16Z</time>
      </trkpt>
      <trkpt lat="40.7865080" lon="-8.4838780">
        <ele>179.5</ele>
        <time>2015-03-23T08:53:35Z</time>
      </trkpt>
      <trkpt lat="40.7866650" lon="-8.4837010">
        <ele>180.8</ele>
        <time>2015-03-23T08:53:48Z</time>
      </trkpt>
      <trkpt lat="40.7866490" lon="-8.4835450">
        <ele>181.5</ele>
        <time>2015-03-23T08:53:55Z</time>
      </trkpt>
      <trkpt lat="40.7867090" lon="-8.4831620">
        <ele>183.3</ele>
        <time>2015-03-23T08:54:12Z</time>
      </trkpt>
      <trkpt lat="40.7867190" lon="-8.4827250">
        <ele>185.1</ele>
        <time>2015-03-23T08:54:31Z</time>
      </trkpt>
      <trkpt lat="40.7868850" lon="-8.4823930">
        <ele>186.7</ele>
        <time>2015-03-23T08:54:47Z</time>
      </trkpt>
      <trkpt lat="40.7871180" lon="-8.4820480">
        <ele>187.1</ele>
        <time>2015-03-23T08:55:03Z</time>
      </trkpt>
      <trkpt lat="40.7873410" lon="-8.4817560">
        <ele>187.1</ele>
        <time>2015-03-23T08:55:38Z</time>
      </trkpt>
      <trkpt lat="40.7874460" lon="-8.4815020">
        <ele>188.2</ele>
        <time>2015-03-23T08:56:48Z</time>
      </trkpt>
      <trkpt lat="40.7878290" lon="-8.4815090">
        <ele>190.6</ele>
        <time>2015-03-23T08:57:04Z</time>
      </trkpt>
      <trkpt lat="40.7880810" lon="-8.4812490">
        <ele>193.8</ele>
        <time>2015-03-23T08:57:18Z</time>
      </trkpt>
      <trkpt lat="40.7883420" lon="-8.4810040">
        <ele>194.6</ele>
        <time>2015-03-23T08:57:33Z</time>
      </trkpt>
      <trkpt lat="40.7886740" lon="-8.4807530">
        <ele>195.3</ele>
        <time>2015-03-23T08:57:49Z</time>
      </trkpt>
      <trkpt lat="40.7891380" lon="-8.4803970">
        <ele>196.9</ele>
        <time>2015-03-23T08:58:11Z</time>
      </trkpt>
      <trkpt lat="40.7895070" lon="-8.4801240">
        <ele>198.9</ele>
        <time>2015-03-23T08:58:29Z</time>
      </trkpt>
      <trkpt lat="40.7899010" lon="-8.4798140">
        <ele>200.6</ele>
        <time>2015-03-23T08:58:49Z</time>
      </trkpt>
      <trkpt lat="40.7902720" lon="-8.4796730">
        <ele>201.9</ele>
        <time>2015-03-23T08:59:06Z</time>
      </trkpt>
      <trkpt lat="40.7905700" lon="-8.4794030">
        <ele>202.9</ele>
        <time>2015-03-23T08:59:22Z</time>
      </trkpt>
      <trkpt lat="40.7908620" lon="-8.4792150">
        <ele>204.3</ele>
        <time>2015-03-23T08:59:37Z</time>
      </trkpt>
      <trkpt lat="40.7911220" lon="-8.4790010">
        <ele>206.1</ele>
        <time>2015-03-23T08:59:53Z</time>
      </trkpt>
      <trkpt lat="40.7913640" lon="-8.4788060">
        <ele>208.5</ele>
        <time>2015-03-23T09:00:10Z</time>
      </trkpt>
      <trkpt lat="40.7916020" lon="-8.4786330">
        <ele>211.3</ele>
        <time>2015-03-23T09:00:28Z</time>
      </trkpt>
      <trkpt lat="40.7917950" lon="-8.4784910">
        <ele>213.3</ele>
        <time>2015-03-23T09:00:43Z</time>
      </trkpt>
      <trkpt lat="40.7920050" lon="-8.4783120">
        <ele>215.0</ele>
        <time>2015-03-23T09:00:59Z</time>
      </trkpt>
      <trkpt lat="40.7922430" lon="-8.4780130">
        <ele>216.7</ele>
        <time>2015-03-23T09:01:16Z</time>
      </trkpt>
      <trkpt lat="40.7924450" lon="-8.4776910">
        <ele>219.0</ele>
        <time>2015-03-23T09:01:34Z</time>
      </trkpt>
      <trkpt lat="40.7926430" lon="-8.4774760">
        <ele>220.7</ele>
        <time>2015-03-23T09:01:50Z</time>
      </trkpt>
      <trkpt lat="40.7926960" lon="-8.4774200">
        <ele>221.1</ele>
        <time>2015-03-23T09:01:54Z</time>
      </trkpt>
      <trkpt lat="40.7929810" lon="-8.4772610">
        <ele>223.5</ele>
        <time>2015-03-23T09:02:10Z</time>
      </trkpt>
      <trkpt lat="40.7933810" lon="-8.4772590">
        <ele>222.9</ele>
        <time>2015-03-23T09:02:24Z</time>
      </trkpt>
      <trkpt lat="40.7937490" lon="-8.4774330">
        <ele>221.0</ele>
        <time>2015-03-23T09:02:40Z</time>
      </trkpt>
      <trkpt lat="40.7941000" lon="-8.4777030">
        <ele>218.0</ele>
        <time>2015-03-23T09:02:54Z</time>
      </trkpt>
      <trkpt lat="40.7945470" lon="-8.4779900">
        <ele>218.2</ele>
        <time>2015-03-23T09:03:10Z</time>
      </trkpt>
      <trkpt lat="40.7949140" lon="-8.4780530">
        <ele>219.4</ele>
        <time>2015-03-23T09:03:23Z</time>
      </trkpt>
      <trkpt lat="40.7952980" lon="-8.4780170">
        <ele>221.9</ele>
        <time>2015-03-23T09:03:39Z</time>
      </trkpt>
      <trkpt lat="40.7953570" lon="-8.4780230">
        <ele>222.4</ele>
        <time>2015-03-23T09:03:42Z</time>
      </trkpt>
      <trkpt lat="40.7957330" lon="-8.4781450">
        <ele>225.1</ele>
        <time>2015-03-23T09:04:02Z</time>
      </trkpt>
      <trkpt lat="40.7961110" lon="-8.4781620">
        <ele>227.7</ele>
        <time>2015-03-23T09:04:18Z</time>
      </trkpt>
      <trkpt lat="40.7964740" lon="-8.4781960">
        <ele>229.0</ele>
        <time>2015-03-23T09:04:33Z</time>
      </trkpt>
      <trkpt lat="40.7968170" lon="-8.4782440">
        <ele>228.5</ele>
        <time>2015-03-23T09:05:16Z</time>
      </trkpt>
      <trkpt lat="40.7971770" lon="-8.4783950">
        <ele>225.4</ele>
        <time>2015-03-23T09:15:47Z</time>
      </trkpt>
      <trkpt lat="40.7972840" lon="-8.4784420">
        <ele>224.4</ele>
        <time>2015-03-23T09:15:50Z</time>
      </trkpt>
      <trkpt lat="40.7975400" lon="-8.4787650">
        <ele>220.9</ele>
        <time>2015-03-23T09:15:57Z</time>
      </trkpt>
      <trkpt lat="40.7977960" lon="-8.4792880">
        <ele>218.9</ele>
        <time>2015-03-23T09:16:07Z</time>
      </trkpt>
      <trkpt lat="40.7980080" lon="-8.4795810">
        <ele>221.2</ele>
        <time>2015-03-23T09:16:23Z</time>
      </trkpt>
      <trkpt lat="40.7982220" lon="-8.4797250">
        <ele>221.4</ele>
        <time>2015-03-23T09:16:37Z</time>
      </trkpt>
      <trkpt lat="40.7983100" lon="-8.4797540">
        <ele>221.4</ele>
        <time>2015-03-23T09:16:44Z</time>
      </trkpt>
      <trkpt lat="40.7986110" lon="-8.4799090">
        <ele>221.3</ele>
        <time>2015-03-23T09:16:59Z</time>
      </trkpt>
      <trkpt lat="40.7989300" lon="-8.4801880">
        <ele>222.4</ele>
        <time>2015-03-23T09:17:07Z</time>
      </trkpt>
      <trkpt lat="40.7991730" lon="-8.4804380">
        <ele>223.1</ele>
        <time>2015-03-23T09:17:12Z</time>
      </trkpt>
      <trkpt lat="40.7991910" lon="-8.4808470">
        <ele>222.0</ele>
        <time>2015-03-23T09:17:19Z</time>
      </trkpt>
      <trkpt lat="40.7991390" lon="-8.4808880">
        <ele>221.5</ele>
        <time>2015-03-23T09:17:20Z</time>
      </trkpt>
      <trkpt lat="40.7989080" lon="-8.4810200">
        <ele>219.9</ele>
        <time>2015-03-23T09:17:24Z</time>
      </trkpt>
      <trkpt lat="40.7984390" lon="-8.4809500">
        <ele>216.8</ele>
        <time>2015-03-23T09:17:31Z</time>
      </trkpt>
      <trkpt lat="40.7981790" lon="-8.4807170">
        <ele>215.4</ele>
        <time>2015-03-23T09:17:36Z</time>
      </trkpt>
      <trkpt lat="40.7978840" lon="-8.4808380">
        <ele>212.6</ele>
        <time>2015-03-23T09:17:43Z</time>
      </trkpt>
      <trkpt lat="40.7978560" lon="-8.4810270">
        <ele>211.8</ele>
        <time>2015-03-23T09:17:46Z</time>
      </trkpt>
      <trkpt lat="40.7978590" lon="-8.4810950">
        <ele>211.5</ele>
        <time>2015-03-23T09:17:56Z</time>
      </trkpt>
      <trkpt lat="40.7977780" lon="-8.4813200">
        <ele>210.1</ele>
        <time>2015-03-23T09:18:13Z</time>
      </trkpt>
      <trkpt lat="40.7977390" lon="-8.4814600">
        <ele>208.8</ele>
        <time>2015-03-23T09:18:16Z</time>
      </trkpt>
      <trkpt lat="40.7978710" lon="-8.4818180">
        <ele>207.3</ele>
        <time>2015-03-23T09:18:25Z</time>
      </trkpt>
      <trkpt lat="40.7979480" lon="-8.4818360">
        <ele>207.8</ele>
        <time>2015-03-23T09:18:28Z</time>
      </trkpt>
      <trkpt lat="40.7982840" lon="-8.4818110">
        <ele>209.7</ele>
        <time>2015-03-23T09:18:43Z</time>
      </trkpt>
      <trkpt lat="40.7983480" lon="-8.4818280">
        <ele>209.9</ele>
        <time>2015-03-23T09:18:47Z</time>
      </trkpt>
      <trkpt lat="40.7987370" lon="-8.4818100">
        <ele>211.3</ele>
        <time>2015-03-23T09:19:03Z</time>
      </trkpt>
      <trkpt lat="40.7992050" lon="-8.4818680">
        <ele>209.6</ele>
        <time>2015-03-23T09:19:19Z</time>
      </trkpt>
      <trkpt lat="40.7996870" lon="-8.4818140">
        <ele>208.1</ele>
        <time>2015-03-23T09:19:33Z</time>
      </trkpt>
      <trkpt lat="40.8002870" lon="-8.4813600">
        <ele>206.0</ele>
        <time>2015-03-23T09:19:51Z</time>
      </trkpt>
      <trkpt lat="40.8003460" lon="-8.4813080">
        <ele>205.8</ele>
        <time>2015-03-23T09:19:53Z</time>
      </trkpt>
      <trkpt lat="40.8005090" lon="-8.4813130">
        <ele>204.1</ele>
        <time>2015-03-23T09:19:57Z</time>
      </trkpt>
      <trkpt lat="40.8011880" lon="-8.4815640">
        <ele>194.2</ele>
        <time>2015-03-23T09:20:10Z</time>
      </trkpt>
      <trkpt lat="40.8016200" lon="-8.4818900">
        <ele>188.6</ele>
        <time>2015-03-23T09:20:16Z</time>
      </trkpt>
      <trkpt lat="40.8019410" lon="-8.4821200">
        <ele>185.1</ele>
        <time>2015-03-23T09:20:20Z</time>
      </trkpt>
      <trkpt lat="40.8023760" lon="-8.4824580">
        <ele>180.4</ele>
        <time>2015-03-23T09:20:25Z</time>
      </trkpt>
      <trkpt lat="40.8028340" lon="-8.4827930">
        <ele>180.5</ele>
        <time>2015-03-23T09:20:30Z</time>
      </trkpt>
      <trkpt lat="40.8033470" lon="-8.4830740">
        <ele>184.7</ele>
        <time>2015-03-23T09:20:35Z</time>
      </trkpt>
      <trkpt lat="40.8035610" lon="-8.4831760">
        <ele>184.4</ele>
        <time>2015-03-23T09:20:37Z</time>
      </trkpt>
      <trkpt lat="40.8043200" lon="-8.4835780">
        <ele>183.3</ele>
        <time>2015-03-23T09:20:45Z</time>
      </trkpt>
      <trkpt lat="40.8046570" lon="-8.4838500">
        <ele>180.6</ele>
        <time>2015-03-23T09:20:50Z</time>
      </trkpt>
      <trkpt lat="40.8048940" lon="-8.4839580">
        <ele>178.5</ele>
        <time>2015-03-23T09:20:53Z</time>
      </trkpt>
      <trkpt lat="40.8050740" lon="-8.4840260">
        <ele>176.6</ele>
        <time>2015-03-23T09:20:55Z</time>
      </trkpt>
      <trkpt lat="40.8053440" lon="-8.4841370">
        <ele>173.1</ele>
        <time>2015-03-23T09:20:58Z</time>
      </trkpt>
      <trkpt lat="40.8054270" lon="-8.4841770">
        <ele>172.3</ele>
        <time>2015-03-23T09:20:59Z</time>
      </trkpt>
      <trkpt lat="40.8057530" lon="-8.4844680">
        <ele>166.6</ele>
        <time>2015-03-23T09:21:06Z</time>
      </trkpt>
      <trkpt lat="40.8060660" lon="-8.4843450">
        <ele>164.2</ele>
        <time>2015-03-23T09:21:14Z</time>
      </trkpt>
      <trkpt lat="40.8063280" lon="-8.4839810">
        <ele>158.5</ele>
        <time>2015-03-23T09:21:19Z</time>
      </trkpt>
      <trkpt lat="40.8070810" lon="-8.4834470">
        <ele>154.5</ele>
        <time>2015-03-23T09:21:29Z</time>
      </trkpt>
      <trkpt lat="40.8073770" lon="-8.4832990">
        <ele>153.4</ele>
        <time>2015-03-23T09:21:33Z</time>
      </trkpt>
      <trkpt lat="40.8080350" lon="-8.4833010">
        <ele>149.9</ele>
        <time>2015-03-23T09:21:41Z</time>
      </trkpt>
      <trkpt lat="40.8081180" lon="-8.4833220">
        <ele>149.5</ele>
        <time>2015-03-23T09:21:42Z</time>
      </trkpt>
      <trkpt lat="40.8086140" lon="-8.4835580">
        <ele>148.0</ele>
        <time>2015-03-23T09:21:48Z</time>
      </trkpt>
      <trkpt lat="40.8087970" lon="-8.4835880">
        <ele>147.8</ele>
        <time>2015-03-23T09:21:50Z</time>
      </trkpt>
      <trkpt lat="40.8094310" lon="-8.4835900">
        <ele>147.8</ele>
        <time>2015-03-23T09:21:57Z</time>
      </trkpt>
      <trkpt lat="40.8104520" lon="-8.4838470">
        <ele>148.0</ele>
        <time>2015-03-23T09:22:12Z</time>
      </trkpt>
      <trkpt lat="40.8113200" lon="-8.4842820">
        <ele>145.3</ele>
        <time>2015-03-23T09:22:31Z</time>
      </trkpt>
      <trkpt lat="40.8116370" lon="-8.4844930">
        <ele>143.3</ele>
        <time>2015-03-23T09:22:37Z</time>
      </trkpt>
      <trkpt lat="40.8119660" lon="-8.4850910">
        <ele>139.2</ele>
        <time>2015-03-23T09:22:45Z</time>
      </trkpt>
      <trkpt lat="40.8119730" lon="-8.4854310">
        <ele>136.6</ele>
        <time>2015-03-23T09:22:48Z</time>
      </trkpt>
      <trkpt lat="40.8119540" lon="-8.4856780">
        <ele>134.4</ele>
        <time>2015-03-23T09:22:50Z</time>
      </trkpt>
      <trkpt lat="40.8119790" lon="-8.4860610">
        <ele>130.7</ele>
        <time>2015-03-23T09:22:53Z</time>
      </trkpt>
      <trkpt lat="40.8120340" lon="-8.4862650">
        <ele>128.9</ele>
        <time>2015-03-23T09:22:55Z</time>
      </trkpt>
      <trkpt lat="40.8122160" lon="-8.4864650">
        <ele>126.6</ele>
        <time>2015-03-23T09:23:00Z</time>
      </trkpt>
      <trkpt lat="40.8122980" lon="-8.4864030">
        <ele>126.5</ele>
        <time>2015-03-23T09:23:02Z</time>
      </trkpt>
      <trkpt lat="40.8129570" lon="-8.4858180">
        <ele>125.9</ele>
        <time>2015-03-23T09:23:19Z</time>
      </trkpt>
      <trkpt lat="40.8135280" lon="-8.4853770">
        <ele>121.7</ele>
        <time>2015-03-23T09:23:31Z</time>
      </trkpt>
      <trkpt lat="40.8137720" lon="-8.4852450">
        <ele>119.5</ele>
        <time>2015-03-23T09:23:34Z</time>
      </trkpt>
      <trkpt lat="40.8140590" lon="-8.4849270">
        <ele>116.6</ele>
        <time>2015-03-23T09:23:38Z</time>
      </trkpt>
      <trkpt lat="40.8143530" lon="-8.4843880">
        <ele>113.6</ele>
        <time>2015-03-23T09:23:43Z</time>
      </trkpt>
      <trkpt lat="40.8144740" lon="-8.4839010">
        <ele>111.8</ele>
        <time>2015-03-23T09:23:47Z</time>
      </trkpt>
      <trkpt lat="40.8143900" lon="-8.4832100">
        <ele>110.2</ele>
        <time>2015-03-23T09:23:53Z</time>
      </trkpt>
      <trkpt lat="40.8144240" lon="-8.4825990">
        <ele>114.3</ele>
        <time>2015-03-23T09:24:01Z</time>
      </trkpt>
      <trkpt lat="40.8145810" lon="-8.4823460">
        <ele>116.4</ele>
        <time>2015-03-23T09:24:16Z</time>
      </trkpt>
      <trkpt lat="40.8147390" lon="-8.4821800">
        <ele>118.0</ele>
        <time>2015-03-23T09:24:30Z</time>
      </trkpt>
      <trkpt lat="40.8149490" lon="-8.4821700">
        <ele>119.6</ele>
        <time>2015-03-23T09:24:46Z</time>
      </trkpt>
      <trkpt lat="40.8151810" lon="-8.4821520">
        <ele>120.9</ele>
        <time>2015-03-23T09:25:03Z</time>
      </trkpt>
      <trkpt lat="40.8153740" lon="-8.4821540">
        <ele>122.1</ele>
        <time>2015-03-23T09:25:18Z</time>
      </trkpt>
      <trkpt lat="40.8156170" lon="-8.4821020">
        <ele>123.9</ele>
        <time>2015-03-23T09:25:35Z</time>
      </trkpt>
      <trkpt lat="40.8157630" lon="-8.4821160">
        <ele>124.9</ele>
        <time>2015-03-23T09:25:45Z</time>
      </trkpt>
      <trkpt lat="40.8158650" lon="-8.4821740">
        <ele>125.8</ele>
        <time>2015-03-23T09:25:52Z</time>
      </trkpt>
      <trkpt lat="40.8158490" lon="-8.4820760">
        <ele>126.4</ele>
        <time>2015-03-23T09:26:01Z</time>
      </trkpt>
      <trkpt lat="40.8157210" lon="-8.4817950">
        <ele>128.5</ele>
        <time>2015-03-23T09:26:20Z</time>
      </trkpt>
      <trkpt lat="40.8159820" lon="-8.4817800">
        <ele>128.1</ele>
        <time>2015-03-23T09:26:39Z</time>
      </trkpt>
      <trkpt lat="40.8160560" lon="-8.4817550">
        <ele>128.0</ele>
        <time>2015-03-23T09:26:43Z</time>
      </trkpt>
      <trkpt lat="40.8161190" lon="-8.4817360">
        <ele>128.0</ele>
        <time>2015-03-23T09:26:47Z</time>
      </trkpt>
      <trkpt lat="40.8166040" lon="-8.4814670">
        <ele>127.0</ele>
        <time>2015-03-23T09:27:06Z</time>
      </trkpt>
      <trkpt lat="40.8169440" lon="-8.4809990">
        <ele>123.7</ele>
        <time>2015-03-23T09:27:21Z</time>
      </trkpt>
      <trkpt lat="40.8169750" lon="-8.4809510">
        <ele>123.2</ele>
        <time>2015-03-23T09:27:22Z</time>
      </trkpt>
      <trkpt lat="40.8170320" lon="-8.4808730">
        <ele>122.1</ele>
        <time>2015-03-23T09:27:24Z</time>
      </trkpt>
      <trkpt lat="40.8171030" lon="-8.4807300">
        <ele>119.8</ele>
        <time>2015-03-23T09:27:27Z</time>
      </trkpt>
      <trkpt lat="40.8172420" lon="-8.4805670">
        <ele>116.9</ele>
        <time>2015-03-23T09:27:31Z</time>
      </trkpt>
      <trkpt lat="40.8173940" lon="-8.4805450">
        <ele>114.3</ele>
        <time>2015-03-23T09:27:34Z</time>
      </trkpt>
      <trkpt lat="40.8175970" lon="-8.4805770">
        <ele>110.9</ele>
        <time>2015-03-23T09:27:37Z</time>
      </trkpt>
      <trkpt lat="40.8178600" lon="-8.4805580">
        <ele>106.7</ele>
        <time>2015-03-23T09:27:41Z</time>
      </trkpt>
      <trkpt lat="40.8180850" lon="-8.4804520">
        <ele>103.1</ele>
        <time>2015-03-23T09:27:45Z</time>
      </trkpt>
      <trkpt lat="40.8181270" lon="-8.4803900">
        <ele>102.3</ele>
        <time>2015-03-23T09:27:46Z</time>
      </trkpt>
      <trkpt lat="40.8187070" lon="-8.4796050">
        <ele>99.6</ele>
        <time>2015-03-23T09:28:02Z</time>
      </trkpt>
      <trkpt lat="40.8191240" lon="-8.4790360">
        <ele>100.0</ele>
        <time>2015-03-23T09:28:19Z</time>
      </trkpt>
      <trkpt lat="40.8195110" lon="-8.4784880">
        <ele>99.3</ele>
        <time>2015-03-23T09:28:36Z</time>
      </trkpt>
      <trkpt lat="40.8197440" lon="-8.4783550">
        <ele>100.2</ele>
        <time>2015-03-23T09:28:47Z</time>
      </trkpt>
      <trkpt lat="40.8202260" lon="-8.4781410">
        <ele>101.4</ele>
        <time>2015-03-23T09:29:02Z</time>
      </trkpt>
      <trkpt lat="40.8207710" lon="-8.4779270">
        <ele>100.9</ele>
        <time>2015-03-23T09:29:19Z</time>
      </trkpt>
      <trkpt lat="40.8212610" lon="-8.4778290">
        <ele>102.2</ele>
        <time>2015-03-23T09:29:37Z</time>
      </trkpt>
      <trkpt lat="40.8216230" lon="-8.4778260">
        <ele>103.9</ele>
        <time>2015-03-23T09:29:55Z</time>
      </trkpt>
      <trkpt lat="40.8217840" lon="-8.4778780">
        <ele>106.4</ele>
        <time>2015-03-23T09:30:08Z</time>
      </trkpt>
      <trkpt lat="40.8220090" lon="-8.4778800">
        <ele>108.7</ele>
        <time>2015-03-23T09:30:24Z</time>
      </trkpt>
      <trkpt lat="40.8222210" lon="-8.4779460">
        <ele>109.5</ele>
        <time>2015-03-23T09:30:40Z</time>
      </trkpt>
      <trkpt lat="40.8224190" lon="-8.4780450">
        <ele>110.8</ele>
        <time>2015-03-23T09:30:55Z</time>
      </trkpt>
      <trkpt lat="40.8226240" lon="-8.4782340">
        <ele>112.8</ele>
        <time>2015-03-23T09:31:12Z</time>
      </trkpt>
      <trkpt lat="40.8227990" lon="-8.4785130">
        <ele>114.3</ele>
        <time>2015-03-23T09:31:29Z</time>
      </trkpt>
      <trkpt lat="40.8231060" lon="-8.4785520">
        <ele>114.3</ele>
        <time>2015-03-23T09:31:36Z</time>
      </trkpt>
      <trkpt lat="40.8231760" lon="-8.4785430">
        <ele>114.3</ele>
        <time>2015-03-23T09:31:37Z</time>
      </trkpt>
      <trkpt lat="40.8234320" lon="-8.4783800">
        <ele>114.6</ele>
        <time>2015-03-23T09:31:41Z</time>
      </trkpt>
      <trkpt lat="40.8237590" lon="-8.4780570">
        <ele>114.7</ele>
        <time>2015-03-23T09:31:48Z</time>
      </trkpt>
      <trkpt lat="40.8238950" lon="-8.4780280">
        <ele>115.5</ele>
        <time>2015-03-23T09:31:52Z</time>
      </trkpt>
      <trkpt lat="40.8240870" lon="-8.4780740">
        <ele>117.7</ele>
        <time>2015-03-23T09:32:06Z</time>
      </trkpt>
      <trkpt lat="40.8242980" lon="-8.4781260">
        <ele>119.8</ele>
        <time>2015-03-23T09:32:22Z</time>
      </trkpt>
      <trkpt lat="40.8245210" lon="-8.4781490">
        <ele>122.1</ele>
        <time>2015-03-23T09:32:39Z</time>
      </trkpt>
      <trkpt lat="40.8247650" lon="-8.4782030">
        <ele>124.7</ele>
        <time>2015-03-23T09:32:56Z</time>
      </trkpt>
      <trkpt lat="40.8250090" lon="-8.4782940">
        <ele>127.1</ele>
        <time>2015-03-23T09:33:13Z</time>
      </trkpt>
      <trkpt lat="40.8252690" lon="-8.4783670">
        <ele>128.9</ele>
        <time>2015-03-23T09:33:30Z</time>
      </trkpt>
      <trkpt lat="40.8255160" lon="-8.4784240">
        <ele>130.2</ele>
        <time>2015-03-23T09:33:47Z</time>
      </trkpt>
      <trkpt lat="40.8257590" lon="-8.4784800">
        <ele>131.2</ele>
        <time>2015-03-23T09:34:04Z</time>
      </trkpt>
      <trkpt lat="40.8260070" lon="-8.4785630">
        <ele>132.3</ele>
        <time>2015-03-23T09:34:21Z</time>
      </trkpt>
      <trkpt lat="40.8262470" lon="-8.4786440">
        <ele>133.4</ele>
        <time>2015-03-23T09:34:37Z</time>
      </trkpt>
      <trkpt lat="40.8265490" lon="-8.4787150">
        <ele>134.8</ele>
        <time>2015-03-23T09:34:54Z</time>
      </trkpt>
      <trkpt lat="40.8268700" lon="-8.4788290">
        <ele>136.8</ele>
        <time>2015-03-23T09:35:13Z</time>
      </trkpt>
      <trkpt lat="40.8271360" lon="-8.4789690">
        <ele>139.0</ele>
        <time>2015-03-23T09:35:31Z</time>
      </trkpt>
      <trkpt lat="40.8273180" lon="-8.4791760">
        <ele>141.0</ele>
        <time>2015-03-23T09:35:45Z</time>
      </trkpt>
      <trkpt lat="40.8275910" lon="-8.4794940">
        <ele>143.5</ele>
        <time>2015-03-23T09:36:06Z</time>
      </trkpt>
      <trkpt lat="40.8278490" lon="-8.4796980">
        <ele>145.5</ele>
        <time>2015-03-23T09:36:25Z</time>
      </trkpt>
      <trkpt lat="40.8281110" lon="-8.4797670">
        <ele>147.4</ele>
        <time>2015-03-23T09:36:41Z</time>
      </trkpt>
      <trkpt lat="40.8284380" lon="-8.4798110">
        <ele>150.7</ele>
        <time>2015-03-23T09:36:59Z</time>
      </trkpt>
      <trkpt lat="40.8285330" lon="-8.4798030">
        <ele>151.7</ele>
        <time>2015-03-23T09:37:12Z</time>
      </trkpt>
      <trkpt lat="40.8286660" lon="-8.4797890">
        <ele>153.6</ele>
        <time>2015-03-23T09:37:33Z</time>
      </trkpt>
      <trkpt lat="40.8289580" lon="-8.4797560">
        <ele>156.7</ele>
        <time>2015-03-23T09:37:51Z</time>
      </trkpt>
      <trkpt lat="40.8292200" lon="-8.4797060">
        <ele>159.2</ele>
        <time>2015-03-23T09:38:10Z</time>
      </trkpt>
      <trkpt lat="40.8294160" lon="-8.4797030">
        <ele>160.7</ele>
        <time>2015-03-23T09:38:25Z</time>
      </trkpt>
      <trkpt lat="40.8296640" lon="-8.4796260">
        <ele>162.2</ele>
        <time>2015-03-23T09:38:43Z</time>
      </trkpt>
      <trkpt lat="40.8299380" lon="-8.4795320">
        <ele>164.1</ele>
        <time>2015-03-23T09:39:03Z</time>
      </trkpt>
      <trkpt lat="40.8301680" lon="-8.4794410">
        <ele>165.7</ele>
        <time>2015-03-23T09:39:21Z</time>
      </trkpt>
      <trkpt lat="40.8304030" lon="-8.4793690">
        <ele>167.5</ele>
        <time>2015-03-23T09:39:39Z</time>
      </trkpt>
      <trkpt lat="40.8306440" lon="-8.4792850">
        <ele>170.1</ele>
        <time>2015-03-23T09:39:57Z</time>
      </trkpt>
      <trkpt lat="40.8309100" lon="-8.4791840">
        <ele>172.9</ele>
        <time>2015-03-23T09:40:17Z</time>
      </trkpt>
      <trkpt lat="40.8310320" lon="-8.4791460">
        <ele>174.1</ele>
        <time>2015-03-23T09:40:27Z</time>
      </trkpt>
      <trkpt lat="40.8311070" lon="-8.4791480">
        <ele>175.1</ele>
        <time>2015-03-23T09:40:33Z</time>
      </trkpt>
      <trkpt lat="40.8312470" lon="-8.4791310">
        <ele>177.4</ele>
        <time>2015-03-23T09:40:41Z</time>
      </trkpt>
      <trkpt lat="40.8313110" lon="-8.4791550">
        <ele>178.5</ele>
        <time>2015-03-23T09:40:47Z</time>
      </trkpt>
      <trkpt lat="40.8314520" lon="-8.4791080">
        <ele>181.0</ele>
        <time>2015-03-23T09:40:58Z</time>
      </trkpt>
      <trkpt lat="40.8317120" lon="-8.4791110">
        <ele>184.0</ele>
        <time>2015-03-23T09:41:16Z</time>
      </trkpt>
      <trkpt lat="40.8320120" lon="-8.4790680">
        <ele>188.4</ele>
        <time>2015-03-23T09:41:36Z</time>
      </trkpt>
      <trkpt lat="40.8322580" lon="-8.4790220">
        <ele>191.9</ele>
        <time>2015-03-23T09:41:54Z</time>
      </trkpt>
      <trkpt lat="40.8324920" lon="-8.4789310">
        <ele>195.3</ele>
        <time>2015-03-23T09:42:13Z</time>
      </trkpt>
      <trkpt lat="40.8326750" lon="-8.4788360">
        <ele>197.7</ele>
        <time>2015-03-23T09:42:29Z</time>
      </trkpt>
      <trkpt lat="40.8328640" lon="-8.4787320">
        <ele>200.4</ele>
        <time>2015-03-23T09:42:46Z</time>
      </trkpt>
      <trkpt lat="40.8330500" lon="-8.4785760">
        <ele>202.7</ele>
        <time>2015-03-23T09:43:04Z</time>
      </trkpt>
      <trkpt lat="40.8331170" lon="-8.4785220">
        <ele>203.3</ele>
        <time>2015-03-23T09:43:10Z</time>
      </trkpt>
      <trkpt lat="40.8333230" lon="-8.4782840">
        <ele>204.5</ele>
        <time>2015-03-23T09:43:30Z</time>
      </trkpt>
      <trkpt lat="40.8335300" lon="-8.4780710">
        <ele>205.4</ele>
        <time>2015-03-23T09:43:47Z</time>
      </trkpt>
      <trkpt lat="40.8337690" lon="-8.4779270">
        <ele>206.4</ele>
        <time>2015-03-23T09:44:03Z</time>
      </trkpt>
      <trkpt lat="40.8340010" lon="-8.4780320">
        <ele>207.4</ele>
        <time>2015-03-23T09:44:17Z</time>
      </trkpt>
      <trkpt lat="40.8343130" lon="-8.4781770">
        <ele>208.2</ele>
        <time>2015-03-23T09:44:33Z</time>
      </trkpt>
      <trkpt lat="40.8346860" lon="-8.4783530">
        <ele>208.0</ele>
        <time>2015-03-23T09:44:50Z</time>
      </trkpt>
      <trkpt lat="40.8350870" lon="-8.4784310">
        <ele>209.4</ele>
        <time>2015-03-23T09:45:03Z</time>
      </trkpt>
      <trkpt lat="40.8354770" lon="-8.4784810">
        <ele>208.3</ele>
        <time>2015-03-23T09:45:14Z</time>
      </trkpt>
      <trkpt lat="40.8358410" lon="-8.4783550">
        <ele>207.8</ele>
        <time>2015-03-23T09:45:24Z</time>
      </trkpt>
      <trkpt lat="40.8362080" lon="-8.4783410">
        <ele>207.2</ele>
        <time>2015-03-23T09:45:36Z</time>
      </trkpt>
      <trkpt lat="40.8364920" lon="-8.4782930">
        <ele>206.7</ele>
        <time>2015-03-23T09:45:49Z</time>
      </trkpt>
      <trkpt lat="40.8366920" lon="-8.4782090">
        <ele>207.0</ele>
        <time>2015-03-23T09:46:31Z</time>
      </trkpt>
      <trkpt lat="40.8369740" lon="-8.4780750">
        <ele>207.8</ele>
        <time>2015-03-23T09:46:43Z</time>
      </trkpt>
      <trkpt lat="40.8372880" lon="-8.4780220">
        <ele>208.7</ele>
        <time>2015-03-23T09:46:54Z</time>
      </trkpt>
      <trkpt lat="40.8377020" lon="-8.4780320">
        <ele>210.1</ele>
        <time>2015-03-23T09:47:09Z</time>
      </trkpt>
      <trkpt lat="40.8379200" lon="-8.4780310">
        <ele>210.7</ele>
        <time>2015-03-23T09:47:17Z</time>
      </trkpt>
      <trkpt lat="40.8383360" lon="-8.4780060">
        <ele>211.7</ele>
        <time>2015-03-23T09:47:33Z</time>
      </trkpt>
      <trkpt lat="40.8385760" lon="-8.4779240">
        <ele>212.0</ele>
        <time>2015-03-23T09:47:43Z</time>
      </trkpt>
      <trkpt lat="40.8386220" lon="-8.4778780">
        <ele>212.0</ele>
        <time>2015-03-23T09:47:47Z</time>
      </trkpt>
      <trkpt lat="40.8386960" lon="-8.4778240">
        <ele>212.0</ele>
        <time>2015-03-23T09:51:27Z</time>
      </trkpt>
      <trkpt lat="40.8388210" lon="-8.4778690">
        <ele>212.3</ele>
        <time>2015-03-23T09:58:58Z</time>
      </trkpt>
      <trkpt lat="40.8389030" lon="-8.4778750">
        <ele>212.6</ele>
        <time>2015-03-23T09:59:10Z</time>
      </trkpt>
      <trkpt lat="40.8391720" lon="-8.4778060">
        <ele>213.5</ele>
        <time>2015-03-23T09:59:25Z</time>
      </trkpt>
      <trkpt lat="40.8394140" lon="-8.4777750">
        <ele>214.0</ele>
        <time>2015-03-23T09:59:38Z</time>
      </trkpt>
      <trkpt lat="40.8397270" lon="-8.4778040">
        <ele>214.4</ele>
        <time>2015-03-23T09:59:52Z</time>
      </trkpt>
      <trkpt lat="40.8399770" lon="-8.4777630">
        <ele>214.4</ele>
        <time>2015-03-23T10:00:05Z</time>
      </trkpt>
      <trkpt lat="40.8402110" lon="-8.4777040">
        <ele>214.3</ele>
        <time>2015-03-23T10:00:20Z</time>
      </trkpt>
      <trkpt lat="40.8403920" lon="-8.4776790">
        <ele>214.6</ele>
        <time>2015-03-23T10:00:55Z</time>
      </trkpt>
      <trkpt lat="40.8405760" lon="-8.4776400">
        <ele>215.8</ele>
        <time>2015-03-23T10:01:07Z</time>
      </trkpt>
      <trkpt lat="40.8406670" lon="-8.4776570">
        <ele>216.4</ele>
        <time>2015-03-23T10:01:57Z</time>
      </trkpt>
      <trkpt lat="40.8408160" lon="-8.4776230">
        <ele>218.2</ele>
        <time>2015-03-23T10:02:06Z</time>
      </trkpt>
      <trkpt lat="40.8410830" lon="-8.4774970">
        <ele>220.4</ele>
        <time>2015-03-23T10:02:22Z</time>
      </trkpt>
      <trkpt lat="40.8412480" lon="-8.4774550">
        <ele>221.6</ele>
        <time>2015-03-23T10:02:34Z</time>
      </trkpt>
      <trkpt lat="40.8414350" lon="-8.4773690">
        <ele>222.7</ele>
        <time>2015-03-23T10:02:50Z</time>
      </trkpt>
      <trkpt lat="40.8415010" lon="-8.4773650">
        <ele>223.0</ele>
        <time>2015-03-23T10:02:55Z</time>
      </trkpt>
      <trkpt lat="40.8416700" lon="-8.4773390">
        <ele>223.3</ele>
        <time>2015-03-23T10:03:09Z</time>
      </trkpt>
      <trkpt lat="40.8417440" lon="-8.4773280">
        <ele>223.3</ele>
        <time>2015-03-23T10:03:20Z</time>
      </trkpt>
      <trkpt lat="40.8420480" lon="-8.4775260">
        <ele>222.8</ele>
        <time>2015-03-23T10:03:36Z</time>
      </trkpt>
      <trkpt lat="40.8427080" lon="-8.4776370">
        <ele>218.4</ele>
        <time>2015-03-23T10:03:54Z</time>
      </trkpt>
      <trkpt lat="40.8430930" lon="-8.4772780">
        <ele>212.0</ele>
        <time>2015-03-23T10:04:05Z</time>
      </trkpt>
      <trkpt lat="40.8433110" lon="-8.4770770">
        <ele>209.3</ele>
        <time>2015-03-23T10:04:08Z</time>
      </trkpt>
      <trkpt lat="40.8435380" lon="-8.4769020">
        <ele>206.7</ele>
        <time>2015-03-23T10:04:11Z</time>
      </trkpt>
      <trkpt lat="40.8439280" lon="-8.4769520">
        <ele>202.7</ele>
        <time>2015-03-23T10:04:16Z</time>
      </trkpt>
      <trkpt lat="40.8440030" lon="-8.4770260">
        <ele>201.6</ele>
        <time>2015-03-23T10:04:17Z</time>
      </trkpt>
      <trkpt lat="40.8442210" lon="-8.4772880">
        <ele>197.7</ele>
        <time>2015-03-23T10:04:20Z</time>
      </trkpt>
      <trkpt lat="40.8442840" lon="-8.4773810">
        <ele>196.3</ele>
        <time>2015-03-23T10:04:21Z</time>
      </trkpt>
      <trkpt lat="40.8444160" lon="-8.4776590">
        <ele>192.4</ele>
        <time>2015-03-23T10:04:24Z</time>
      </trkpt>
      <trkpt lat="40.8444470" lon="-8.4777440">
        <ele>191.2</ele>
        <time>2015-03-23T10:04:25Z</time>
      </trkpt>
      <trkpt lat="40.8446500" lon="-8.4779960">
        <ele>186.3</ele>
        <time>2015-03-23T10:04:29Z</time>
      </trkpt>
      <trkpt lat="40.8450310" lon="-8.4780880">
        <ele>180.2</ele>
        <time>2015-03-23T10:04:34Z</time>
      </trkpt>
      <trkpt lat="40.8452250" lon="-8.4780960">
        <ele>177.9</ele>
        <time>2015-03-23T10:04:36Z</time>
      </trkpt>
      <trkpt lat="40.8455080" lon="-8.4781180">
        <ele>174.1</ele>
        <time>2015-03-23T10:04:39Z</time>
      </trkpt>
      <trkpt lat="40.8456050" lon="-8.4781310">
        <ele>172.6</ele>
        <time>2015-03-23T10:04:40Z</time>
      </trkpt>
      <trkpt lat="40.8457990" lon="-8.4781990">
        <ele>171.4</ele>
        <time>2015-03-23T10:04:42Z</time>
      </trkpt>
      <trkpt lat="40.8459660" lon="-8.4783030">
        <ele>171.2</ele>
        <time>2015-03-23T10:04:44Z</time>
      </trkpt>
      <trkpt lat="40.8465280" lon="-8.4788160">
        <ele>173.1</ele>
        <time>2015-03-23T10:04:53Z</time>
      </trkpt>
      <trkpt lat="40.8465670" lon="-8.4791440">
        <ele>173.8</ele>
        <time>2015-03-23T10:05:01Z</time>
      </trkpt>
      <trkpt lat="40.8464440" lon="-8.4794530">
        <ele>173.4</ele>
        <time>2015-03-23T10:05:07Z</time>
      </trkpt>
      <trkpt lat="40.8464050" lon="-8.4802610">
        <ele>171.8</ele>
        <time>2015-03-23T10:05:20Z</time>
      </trkpt>
      <trkpt lat="40.8461580" lon="-8.4809630">
        <ele>169.6</ele>
        <time>2015-03-23T10:05:35Z</time>
      </trkpt>
      <trkpt lat="40.8461140" lon="-8.4810710">
        <ele>169.6</ele>
        <time>2015-03-23T10:05:38Z</time>
      </trkpt>
      <trkpt lat="40.8459470" lon="-8.4815850">
        <ele>170.7</ele>
        <time>2015-03-23T10:05:51Z</time>
      </trkpt>
      <trkpt lat="40.8460590" lon="-8.4820260">
        <ele>173.4</ele>
        <time>2015-03-23T10:06:06Z</time>
      </trkpt>
      <trkpt lat="40.8463000" lon="-8.4824230">
        <ele>175.9</ele>
        <time>2015-03-23T10:06:22Z</time>
      </trkpt>
      <trkpt lat="40.8465570" lon="-8.4828240">
        <ele>177.5</ele>
        <time>2015-03-23T10:06:39Z</time>
      </trkpt>
      <trkpt lat="40.8468250" lon="-8.4832450">
        <ele>179.3</ele>
        <time>2015-03-23T10:06:57Z</time>
      </trkpt>
      <trkpt lat="40.8469880" lon="-8.4836290">
        <ele>181.8</ele>
        <time>2015-03-23T10:07:10Z</time>
      </trkpt>
      <trkpt lat="40.8470160" lon="-8.4840680">
        <ele>179.6</ele>
        <time>2015-03-23T10:07:16Z</time>
      </trkpt>
      <trkpt lat="40.8470270" lon="-8.4842700">
        <ele>179.1</ele>
        <time>2015-03-23T10:07:18Z</time>
      </trkpt>
      <trkpt lat="40.8472070" lon="-8.4851530">
        <ele>177.4</ele>
        <time>2015-03-23T10:07:31Z</time>
      </trkpt>
      <trkpt lat="40.8474210" lon="-8.4858510">
        <ele>175.6</ele>
        <time>2015-03-23T10:07:47Z</time>
      </trkpt>
      <trkpt lat="40.8477120" lon="-8.4865590">
        <ele>174.3</ele>
        <time>2015-03-23T10:08:02Z</time>
      </trkpt>
      <trkpt lat="40.8479420" lon="-8.4872630">
        <ele>171.5</ele>
        <time>2015-03-23T10:08:12Z</time>
      </trkpt>
      <trkpt lat="40.8482100" lon="-8.4877120">
        <ele>168.3</ele>
        <time>2015-03-23T10:08:17Z</time>
      </trkpt>
      <trkpt lat="40.8485550" lon="-8.4879840">
        <ele>165.2</ele>
        <time>2015-03-23T10:08:21Z</time>
      </trkpt>
      <trkpt lat="40.8489710" lon="-8.4882090">
        <ele>161.7</ele>
        <time>2015-03-23T10:08:25Z</time>
      </trkpt>
      <trkpt lat="40.8492750" lon="-8.4883800">
        <ele>158.9</ele>
        <time>2015-03-23T10:08:28Z</time>
      </trkpt>
      <trkpt lat="40.8494580" lon="-8.4884720">
        <ele>156.8</ele>
        <time>2015-03-23T10:08:30Z</time>
      </trkpt>
      <trkpt lat="40.8497350" lon="-8.4888160">
        <ele>151.9</ele>
        <time>2015-03-23T10:08:38Z</time>
      </trkpt>
      <trkpt lat="40.8497970" lon="-8.4890140">
        <ele>150.6</ele>
        <time>2015-03-23T10:08:41Z</time>
      </trkpt>
      <trkpt lat="40.8499290" lon="-8.4893990">
        <ele>144.3</ele>
        <time>2015-03-23T10:08:45Z</time>
      </trkpt>
      <trkpt lat="40.8499760" lon="-8.4895160">
        <ele>141.5</ele>
        <time>2015-03-23T10:08:46Z</time>
      </trkpt>
      <trkpt lat="40.8500880" lon="-8.4897300">
        <ele>140.8</ele>
        <time>2015-03-23T10:08:48Z</time>
      </trkpt>
      <trkpt lat="40.8503400" lon="-8.4901590">
        <ele>140.8</ele>
        <time>2015-03-23T10:11:46Z</time>
      </trkpt>
      <trkpt lat="40.8504210" lon="-8.4901100">
        <ele>141.0</ele>
        <time>2015-03-23T10:11:53Z</time>
      </trkpt>
      <trkpt lat="40.8506220" lon="-8.4902900">
        <ele>142.1</ele>
        <time>2015-03-23T10:12:06Z</time>
      </trkpt>
      <trkpt lat="40.8508430" lon="-8.4904600">
        <ele>144.4</ele>
        <time>2015-03-23T10:12:21Z</time>
      </trkpt>
      <trkpt lat="40.8510590" lon="-8.4905310">
        <ele>146.2</ele>
        <time>2015-03-23T10:12:35Z</time>
      </trkpt>
      <trkpt lat="40.8513420" lon="-8.4904010">
        <ele>148.2</ele>
        <time>2015-03-23T10:12:54Z</time>
      </trkpt>
      <trkpt lat="40.8515810" lon="-8.4903770">
        <ele>148.9</ele>
        <time>2015-03-23T10:13:09Z</time>
      </trkpt>
      <trkpt lat="40.8517230" lon="-8.4906170">
        <ele>149.1</ele>
        <time>2015-03-23T10:13:23Z</time>
      </trkpt>
      <trkpt lat="40.8518250" lon="-8.4908470">
        <ele>149.2</ele>
        <time>2015-03-23T10:13:34Z</time>
      </trkpt>
      <trkpt lat="40.8518910" lon="-8.4908420">
        <ele>149.4</ele>
        <time>2015-03-23T10:13:38Z</time>
      </trkpt>
      <trkpt lat="40.8519660" lon="-8.4907650">
        <ele>149.5</ele>
        <time>2015-03-23T10:13:43Z</time>
      </trkpt>
      <trkpt lat="40.8522820" lon="-8.4907290">
        <ele>150.9</ele>
        <time>2015-03-23T10:13:54Z</time>
      </trkpt>
      <trkpt lat="40.8525150" lon="-8.4907070">
        <ele>151.6</ele>
        <time>2015-03-23T10:14:07Z</time>
      </trkpt>
      <trkpt lat="40.8527360" lon="-8.4907730">
        <ele>152.0</ele>
        <time>2015-03-23T10:14:20Z</time>
      </trkpt>
      <trkpt lat="40.8529220" lon="-8.4909470">
        <ele>152.1</ele>
        <time>2015-03-23T10:14:33Z</time>
      </trkpt>
      <trkpt lat="40.8531980" lon="-8.4911850">
        <ele>154.3</ele>
        <time>2015-03-23T10:14:49Z</time>
      </trkpt>
      <trkpt lat="40.8532670" lon="-8.4912450">
        <ele>155.4</ele>
        <time>2015-03-23T10:15:01Z</time>
      </trkpt>
      <trkpt lat="40.8534120" lon="-8.4913240">
        <ele>157.1</ele>
        <time>2015-03-23T10:15:13Z</time>
      </trkpt>
      <trkpt lat="40.8537820" lon="-8.4915500">
        <ele>158.3</ele>
        <time>2015-03-23T10:15:32Z</time>
      </trkpt>
      <trkpt lat="40.8540110" lon="-8.4915240">
        <ele>159.9</ele>
        <time>2015-03-23T10:15:44Z</time>
      </trkpt>
      <trkpt lat="40.8544360" lon="-8.4913350">
        <ele>160.6</ele>
        <time>2015-03-23T10:16:01Z</time>
      </trkpt>
      <trkpt lat="40.8545610" lon="-8.4912990">
        <ele>160.6</ele>
        <time>2015-03-23T10:16:05Z</time>
      </trkpt>
      <trkpt lat="40.8549920" lon="-8.4914370">
        <ele>159.4</ele>
        <time>2015-03-23T10:16:18Z</time>
      </trkpt>
      <trkpt lat="40.8552960" lon="-8.4917580">
        <ele>158.7</ele>
        <time>2015-03-23T10:16:29Z</time>
      </trkpt>
      <trkpt lat="40.8557570" lon="-8.4919620">
        <ele>158.7</ele>
        <time>2015-03-23T10:16:43Z</time>
      </trkpt>
      <trkpt lat="40.8562880" lon="-8.4922280">
        <ele>158.2</ele>
        <time>2015-03-23T10:16:55Z</time>
      </trkpt>
      <trkpt lat="40.8564000" lon="-8.4923440">
        <ele>157.8</ele>
        <time>2015-03-23T10:16:58Z</time>
      </trkpt>
      <trkpt lat="40.8567490" lon="-8.4930860">
        <ele>152.5</ele>
        <time>2015-03-23T10:17:11Z</time>
      </trkpt>
      <trkpt lat="40.8569540" lon="-8.4934880">
        <ele>149.3</ele>
        <time>2015-03-23T10:17:15Z</time>
      </trkpt>
      <trkpt lat="40.8571200" lon="-8.4938420">
        <ele>145.8</ele>
        <time>2015-03-23T10:17:18Z</time>
      </trkpt>
      <trkpt lat="40.8573140" lon="-8.4942920">
        <ele>141.7</ele>
        <time>2015-03-23T10:17:22Z</time>
      </trkpt>
      <trkpt lat="40.8574300" lon="-8.4945670">
        <ele>140.7</ele>
        <time>2015-03-23T10:17:25Z</time>
      </trkpt>
      <trkpt lat="40.8575720" lon="-8.4950020">
        <ele>137.7</ele>
        <time>2015-03-23T10:17:31Z</time>
      </trkpt>
      <trkpt lat="40.8576790" lon="-8.4954090">
        <ele>134.2</ele>
        <time>2015-03-23T10:17:35Z</time>
      </trkpt>
      <trkpt lat="40.8577570" lon="-8.4958060">
        <ele>131.9</ele>
        <time>2015-03-23T10:17:38Z</time>
      </trkpt>
      <trkpt lat="40.8579040" lon="-8.4965580">
        <ele>127.2</ele>
        <time>2015-03-23T10:17:45Z</time>
      </trkpt>
      <trkpt lat="40.8580170" lon="-8.4970230">
        <ele>121.9</ele>
        <time>2015-03-23T10:17:52Z</time>
      </trkpt>
      <trkpt lat="40.8582070" lon="-8.4975780">
        <ele>117.2</ele>
        <time>2015-03-23T10:18:04Z</time>
      </trkpt>
      <trkpt lat="40.8583590" lon="-8.4979650">
        <ele>119.4</ele>
        <time>2015-03-23T10:18:15Z</time>
      </trkpt>
      <trkpt lat="40.8583450" lon="-8.4980300">
        <ele>119.8</ele>
        <time>2015-03-23T10:18:59Z</time>
      </trkpt>
      <trkpt lat="40.8583740" lon="-8.4981010">
        <ele>120.5</ele>
        <time>2015-03-23T10:19:24Z</time>
      </trkpt>
      <trkpt lat="40.8584270" lon="-8.4981670">
        <ele>121.1</ele>
        <time>2015-03-23T10:20:51Z</time>
      </trkpt>
      <trkpt lat="40.8584590" lon="-8.4982090">
        <ele>122.0</ele>
        <time>2015-03-23T10:20:54Z</time>
      </trkpt>
      <trkpt lat="40.8585260" lon="-8.4982320">
        <ele>122.1</ele>
        <time>2015-03-23T10:20:58Z</time>
      </trkpt>
      <trkpt lat="40.8589280" lon="-8.4981920">
        <ele>123.9</ele>
        <time>2015-03-23T10:21:15Z</time>
      </trkpt>
      <trkpt lat="40.8593650" lon="-8.4981450">
        <ele>125.9</ele>
        <time>2015-03-23T10:21:35Z</time>
      </trkpt>
      <trkpt lat="40.8597570" lon="-8.4982170">
        <ele>127.5</ele>
        <time>2015-03-23T10:21:53Z</time>
      </trkpt>
      <trkpt lat="40.8601020" lon="-8.4983090">
        <ele>128.5</ele>
        <time>2015-03-23T10:22:09Z</time>
      </trkpt>
      <trkpt lat="40.8603770" lon="-8.4983130">
        <ele>128.7</ele>
        <time>2015-03-23T10:22:23Z</time>
      </trkpt>
      <trkpt lat="40.8607950" lon="-8.4983340">
        <ele>128.6</ele>
        <time>2015-03-23T10:22:44Z</time>
      </trkpt>
      <trkpt lat="40.8611850" lon="-8.4983600">
        <ele>129.8</ele>
        <time>2015-03-23T10:23:02Z</time>
      </trkpt>
      <trkpt lat="40.8617290" lon="-8.4984560">
        <ele>132.0</ele>
        <time>2015-03-23T10:23:21Z</time>
      </trkpt>
      <trkpt lat="40.8619770" lon="-8.4984990">
        <ele>133.6</ele>
        <time>2015-03-23T10:23:29Z</time>
      </trkpt>
      <trkpt lat="40.8622070" lon="-8.4985430">
        <ele>135.1</ele>
        <time>2015-03-23T10:23:35Z</time>
      </trkpt>
      <trkpt lat="40.8624140" lon="-8.4983960">
        <ele>135.4</ele>
        <time>2015-03-23T10:23:40Z</time>
      </trkpt>
      <trkpt lat="40.8627310" lon="-8.4978070">
        <ele>133.7</ele>
        <time>2015-03-23T10:23:49Z</time>
      </trkpt>
      <trkpt lat="40.8628830" lon="-8.4976160">
        <ele>132.8</ele>
        <time>2015-03-23T10:23:52Z</time>
      </trkpt>
      <trkpt lat="40.8636580" lon="-8.4971100">
        <ele>130.3</ele>
        <time>2015-03-23T10:24:04Z</time>
      </trkpt>
      <trkpt lat="40.8637060" lon="-8.4970710">
        <ele>130.2</ele>
        <time>2015-03-23T10:24:05Z</time>
      </trkpt>
      <trkpt lat="40.8638270" lon="-8.4969040">
        <ele>130.0</ele>
        <time>2015-03-23T10:24:09Z</time>
      </trkpt>
      <trkpt lat="40.8638930" lon="-8.4967390">
        <ele>129.9</ele>
        <time>2015-03-23T10:24:14Z</time>
      </trkpt>
      <trkpt lat="40.8641370" lon="-8.4963240">
        <ele>129.9</ele>
        <time>2015-03-23T10:24:30Z</time>
      </trkpt>
      <trkpt lat="40.8642090" lon="-8.4958160">
        <ele>129.9</ele>
        <time>2015-03-23T10:24:47Z</time>
      </trkpt>
      <trkpt lat="40.8643290" lon="-8.4953240">
        <ele>131.6</ele>
        <time>2015-03-23T10:25:04Z</time>
      </trkpt>
      <trkpt lat="40.8646410" lon="-8.4949950">
        <ele>133.1</ele>
        <time>2015-03-23T10:25:21Z</time>
      </trkpt>
      <trkpt lat="40.8650290" lon="-8.4948300">
        <ele>134.1</ele>
        <time>2015-03-23T10:25:38Z</time>
      </trkpt>
      <trkpt lat="40.8655650" lon="-8.4948450">
        <ele>134.0</ele>
        <time>2015-03-23T10:25:54Z</time>
      </trkpt>
      <trkpt lat="40.8660960" lon="-8.4946680">
        <ele>134.0</ele>
        <time>2015-03-23T10:26:09Z</time>
      </trkpt>
      <trkpt lat="40.8664200" lon="-8.4940410">
        <ele>132.6</ele>
        <time>2015-03-23T10:26:27Z</time>
      </trkpt>
      <trkpt lat="40.8664750" lon="-8.4939740">
        <ele>132.8</ele>
        <time>2015-03-23T10:26:30Z</time>
      </trkpt>
      <trkpt lat="40.8667250" lon="-8.4939730">
        <ele>133.7</ele>
        <time>2015-03-23T10:26:39Z</time>
      </trkpt>
      <trkpt lat="40.8671560" lon="-8.4940020">
        <ele>135.0</ele>
        <time>2015-03-23T10:26:56Z</time>
      </trkpt>
      <trkpt lat="40.8674610" lon="-8.4942560">
        <ele>136.6</ele>
        <time>2015-03-23T10:27:11Z</time>
      </trkpt>
      <trkpt lat="40.8677760" lon="-8.4945810">
        <ele>139.0</ele>
        <time>2015-03-23T10:27:27Z</time>
      </trkpt>
      <trkpt lat="40.8681770" lon="-8.4949620">
        <ele>140.5</ele>
        <time>2015-03-23T10:27:47Z</time>
      </trkpt>
      <trkpt lat="40.8685520" lon="-8.4951530">
        <ele>141.8</ele>
        <time>2015-03-23T10:28:03Z</time>
      </trkpt>
      <trkpt lat="40.8690680" lon="-8.4950110">
        <ele>143.8</ele>
        <time>2015-03-23T10:28:20Z</time>
      </trkpt>
      <trkpt lat="40.8696080" lon="-8.4951490">
        <ele>146.5</ele>
        <time>2015-03-23T10:28:36Z</time>
      </trkpt>
      <trkpt lat="40.8701980" lon="-8.4954900">
        <ele>150.3</ele>
        <time>2015-03-23T10:28:55Z</time>
      </trkpt>
      <trkpt lat="40.8705270" lon="-8.4957680">
        <ele>153.6</ele>
        <time>2015-03-23T10:29:09Z</time>
      </trkpt>
      <trkpt lat="40.8706590" lon="-8.4959130">
        <ele>155.2</ele>
        <time>2015-03-23T10:29:17Z</time>
      </trkpt>
      <trkpt lat="40.8707840" lon="-8.4960060">
        <ele>157.0</ele>
        <time>2015-03-23T10:29:24Z</time>
      </trkpt>
      <trkpt lat="40.8708440" lon="-8.4960090">
        <ele>157.0</ele>
        <time>2015-03-23T10:29:28Z</time>
      </trkpt>
      <trkpt lat="40.8709850" lon="-8.4960860">
        <ele>160.6</ele>
        <time>2015-03-23T10:29:42Z</time>
      </trkpt>
      <trkpt lat="40.8710480" lon="-8.4961210">
        <ele>161.5</ele>
        <time>2015-03-23T10:29:49Z</time>
      </trkpt>
      <trkpt lat="40.8711410" lon="-8.4962010">
        <ele>162.4</ele>
        <time>2015-03-23T10:30:02Z</time>
      </trkpt>
      <trkpt lat="40.8711910" lon="-8.4962550">
        <ele>162.9</ele>
        <time>2015-03-23T10:30:08Z</time>
      </trkpt>
      <trkpt lat="40.8712990" lon="-8.4963540">
        <ele>163.8</ele>
        <time>2015-03-23T10:30:21Z</time>
      </trkpt>
      <trkpt lat="40.8714220" lon="-8.4964310">
        <ele>164.7</ele>
        <time>2015-03-23T10:30:35Z</time>
      </trkpt>
      <trkpt lat="40.8715590" lon="-8.4966330">
        <ele>165.9</ele>
        <time>2015-03-23T10:30:53Z</time>
      </trkpt>
      <trkpt lat="40.8716080" lon="-8.4967800">
        <ele>166.5</ele>
        <time>2015-03-23T10:31:03Z</time>
      </trkpt>
      <trkpt lat="40.8716580" lon="-8.4968880">
        <ele>167.0</ele>
        <time>2015-03-23T10:31:10Z</time>
      </trkpt>
      <trkpt lat="40.8718570" lon="-8.4971040">
        <ele>168.1</ele>
        <time>2015-03-23T10:31:27Z</time>
      </trkpt>
      <trkpt lat="40.8720740" lon="-8.4973060">
        <ele>169.2</ele>
        <time>2015-03-23T10:31:44Z</time>
      </trkpt>
      <trkpt lat="40.8722840" lon="-8.4975200">
        <ele>171.0</ele>
        <time>2015-03-23T10:32:00Z</time>
      </trkpt>
      <trkpt lat="40.8724470" lon="-8.4977460">
        <ele>173.3</ele>
        <time>2015-03-23T10:32:15Z</time>
      </trkpt>
      <trkpt lat="40.8726000" lon="-8.4980270">
        <ele>175.4</ele>
        <time>2015-03-23T10:32:31Z</time>
      </trkpt>
      <trkpt lat="40.8727800" lon="-8.4982170">
        <ele>177.8</ele>
        <time>2015-03-23T10:32:46Z</time>
      </trkpt>
      <trkpt lat="40.8729760" lon="-8.4983270">
        <ele>179.4</ele>
        <time>2015-03-23T10:33:00Z</time>
      </trkpt>
      <trkpt lat="40.8730870" lon="-8.4984010">
        <ele>180.2</ele>
        <time>2015-03-23T10:33:14Z</time>
      </trkpt>
      <trkpt lat="40.8731490" lon="-8.4984400">
        <ele>180.9</ele>
        <time>2015-03-23T10:33:33Z</time>
      </trkpt>
      <trkpt lat="40.8733670" lon="-8.4985100">
        <ele>182.2</ele>
        <time>2015-03-23T10:33:48Z</time>
      </trkpt>
      <trkpt lat="40.8735910" lon="-8.4985840">
        <ele>183.1</ele>
        <time>2015-03-23T10:34:05Z</time>
      </trkpt>
      <trkpt lat="40.8737590" lon="-8.4986180">
        <ele>183.6</ele>
        <time>2015-03-23T10:34:18Z</time>
      </trkpt>
      <trkpt lat="40.8739940" lon="-8.4987000">
        <ele>184.6</ele>
        <time>2015-03-23T10:34:32Z</time>
      </trkpt>
      <trkpt lat="40.8740960" lon="-8.4988040">
        <ele>185.0</ele>
        <time>2015-03-23T10:34:38Z</time>
      </trkpt>
      <trkpt lat="40.8741840" lon="-8.4987620">
        <ele>185.4</ele>
        <time>2015-03-23T10:34:44Z</time>
      </trkpt>
      <trkpt lat="40.8745410" lon="-8.4986490">
        <ele>185.5</ele>
        <time>2015-03-23T10:34:57Z</time>
      </trkpt>
      <trkpt lat="40.8749280" lon="-8.4985120">
        <ele>184.6</ele>
        <time>2015-03-23T10:35:04Z</time>
      </trkpt>
      <trkpt lat="40.8750710" lon="-8.4985100">
        <ele>184.3</ele>
        <time>2015-03-23T10:35:06Z</time>
      </trkpt>
      <trkpt lat="40.8753750" lon="-8.4985690">
        <ele>184.0</ele>
        <time>2015-03-23T10:35:10Z</time>
      </trkpt>
      <trkpt lat="40.8763500" lon="-8.4987480">
        <ele>184.7</ele>
        <time>2015-03-23T10:35:24Z</time>
      </trkpt>
      <trkpt lat="40.8766400" lon="-8.4986610">
        <ele>181.6</ele>
        <time>2015-03-23T10:35:28Z</time>
      </trkpt>
      <trkpt lat="40.8767970" lon="-8.4985190">
        <ele>180.0</ele>
        <time>2015-03-23T10:35:30Z</time>
      </trkpt>
      <trkpt lat="40.8771810" lon="-8.4980940">
        <ele>175.7</ele>
        <time>2015-03-23T10:35:35Z</time>
      </trkpt>
      <trkpt lat="40.8775340" lon="-8.4978070">
        <ele>171.0</ele>
        <time>2015-03-23T10:35:39Z</time>
      </trkpt>
      <trkpt lat="40.8779010" lon="-8.4975310">
        <ele>165.6</ele>
        <time>2015-03-23T10:35:43Z</time>
      </trkpt>
      <trkpt lat="40.8782670" lon="-8.4972470">
        <ele>162.1</ele>
        <time>2015-03-23T10:35:47Z</time>
      </trkpt>
      <trkpt lat="40.8786550" lon="-8.4969490">
        <ele>160.0</ele>
        <time>2015-03-23T10:35:51Z</time>
      </trkpt>
      <trkpt lat="40.8790610" lon="-8.4966630">
        <ele>157.6</ele>
        <time>2015-03-23T10:35:55Z</time>
      </trkpt>
      <trkpt lat="40.8792460" lon="-8.4965350">
        <ele>156.1</ele>
        <time>2015-03-23T10:35:57Z</time>
      </trkpt>
      <trkpt lat="40.8794160" lon="-8.4964140">
        <ele>154.5</ele>
        <time>2015-03-23T10:35:59Z</time>
      </trkpt>
      <trkpt lat="40.8794850" lon="-8.4963570">
        <ele>153.9</ele>
        <time>2015-03-23T10:36:00Z</time>
      </trkpt>
      <trkpt lat="40.8796300" lon="-8.4959890">
        <ele>151.5</ele>
        <time>2015-03-23T10:36:05Z</time>
      </trkpt>
      <trkpt lat="40.8796310" lon="-8.4953630">
        <ele>151.9</ele>
        <time>2015-03-23T10:36:18Z</time>
      </trkpt>
      <trkpt lat="40.8795980" lon="-8.4951520">
        <ele>153.3</ele>
        <time>2015-03-23T10:36:29Z</time>
      </trkpt>
      <trkpt lat="40.8795270" lon="-8.4949540">
        <ele>154.7</ele>
        <time>2015-03-23T10:36:41Z</time>
      </trkpt>
      <trkpt lat="40.8795520" lon="-8.4948460">
        <ele>155.8</ele>
        <time>2015-03-23T10:36:47Z</time>
      </trkpt>
      <trkpt lat="40.8796060" lon="-8.4948230">
        <ele>156.4</ele>
        <time>2015-03-23T10:36:51Z</time>
      </trkpt>
      <trkpt lat="40.8796850" lon="-8.4948010">
        <ele>157.2</ele>
        <time>2015-03-23T10:36:57Z</time>
      </trkpt>
      <trkpt lat="40.8797620" lon="-8.4945610">
        <ele>160.1</ele>
        <time>2015-03-23T10:37:12Z</time>
      </trkpt>
      <trkpt lat="40.8797680" lon="-8.4942790">
        <ele>163.2</ele>
        <time>2015-03-23T10:37:28Z</time>
      </trkpt>
      <trkpt lat="40.8797920" lon="-8.4940560">
        <ele>165.4</ele>
        <time>2015-03-23T10:37:41Z</time>
      </trkpt>
      <trkpt lat="40.8798280" lon="-8.4939620">
        <ele>166.5</ele>
        <time>2015-03-23T10:37:47Z</time>
      </trkpt>
      <trkpt lat="40.8797980" lon="-8.4935700">
        <ele>170.1</ele>
        <time>2015-03-23T10:38:06Z</time>
      </trkpt>
      <trkpt lat="40.8797340" lon="-8.4932670">
        <ele>172.0</ele>
        <time>2015-03-23T10:38:20Z</time>
      </trkpt>
      <trkpt lat="40.8796580" lon="-8.4929090">
        <ele>174.5</ele>
        <time>2015-03-23T10:38:36Z</time>
      </trkpt>
      <trkpt lat="40.8795840" lon="-8.4925870">
        <ele>175.8</ele>
        <time>2015-03-23T10:38:51Z</time>
      </trkpt>
      <trkpt lat="40.8795510" lon="-8.4921870">
        <ele>177.6</ele>
        <time>2015-03-23T10:39:08Z</time>
      </trkpt>
      <trkpt lat="40.8795750" lon="-8.4918120">
        <ele>179.1</ele>
        <time>2015-03-23T10:39:24Z</time>
      </trkpt>
      <trkpt lat="40.8795520" lon="-8.4913970">
        <ele>180.9</ele>
        <time>2015-03-23T10:39:42Z</time>
      </trkpt>
      <trkpt lat="40.8795380" lon="-8.4913110">
        <ele>181.2</ele>
        <time>2015-03-23T10:39:46Z</time>
      </trkpt>
      <trkpt lat="40.8797050" lon="-8.4911620">
        <ele>181.4</ele>
        <time>2015-03-23T10:39:58Z</time>
      </trkpt>
      <trkpt lat="40.8799870" lon="-8.4910650">
        <ele>183.0</ele>
        <time>2015-03-23T10:40:12Z</time>
      </trkpt>
      <trkpt lat="40.8802920" lon="-8.4909440">
        <ele>185.1</ele>
        <time>2015-03-23T10:40:27Z</time>
      </trkpt>
      <trkpt lat="40.8805510" lon="-8.4908710">
        <ele>186.3</ele>
        <time>2015-03-23T10:40:42Z</time>
      </trkpt>
      <trkpt lat="40.8808870" lon="-8.4907360">
        <ele>187.6</ele>
        <time>2015-03-23T10:41:00Z</time>
      </trkpt>
      <trkpt lat="40.8813750" lon="-8.4905920">
        <ele>189.0</ele>
        <time>2015-03-23T10:41:25Z</time>
      </trkpt>
      <trkpt lat="40.8817980" lon="-8.4904570">
        <ele>191.9</ele>
        <time>2015-03-23T10:41:47Z</time>
      </trkpt>
      <trkpt lat="40.8822050" lon="-8.4903180">
        <ele>194.7</ele>
        <time>2015-03-23T10:42:08Z</time>
      </trkpt>
      <trkpt lat="40.8824760" lon="-8.4901980">
        <ele>195.8</ele>
        <time>2015-03-23T10:42:22Z</time>
      </trkpt>
      <trkpt lat="40.8828350" lon="-8.4901110">
        <ele>196.6</ele>
        <time>2015-03-23T10:42:39Z</time>
      </trkpt>
      <trkpt lat="40.8830690" lon="-8.4900120">
        <ele>197.7</ele>
        <time>2015-03-23T10:42:54Z</time>
      </trkpt>
      <trkpt lat="40.8831670" lon="-8.4899850">
        <ele>198.0</ele>
        <time>2015-03-23T10:43:08Z</time>
      </trkpt>
      <trkpt lat="40.8835580" lon="-8.4898500">
        <ele>198.8</ele>
        <time>2015-03-23T10:43:26Z</time>
      </trkpt>
      <trkpt lat="40.8839140" lon="-8.4897360">
        <ele>200.4</ele>
        <time>2015-03-23T10:43:42Z</time>
      </trkpt>
      <trkpt lat="40.8843610" lon="-8.4895910">
        <ele>203.2</ele>
        <time>2015-03-23T10:44:01Z</time>
      </trkpt>
      <trkpt lat="40.8849090" lon="-8.4894060">
        <ele>206.2</ele>
        <time>2015-03-23T10:44:24Z</time>
      </trkpt>
      <trkpt lat="40.8851770" lon="-8.4891670">
        <ele>208.6</ele>
        <time>2015-03-23T10:44:39Z</time>
      </trkpt>
      <trkpt lat="40.8853520" lon="-8.4888820">
        <ele>209.3</ele>
        <time>2015-03-23T10:44:52Z</time>
      </trkpt>
      <trkpt lat="40.8856700" lon="-8.4890880">
        <ele>209.8</ele>
        <time>2015-03-23T10:45:05Z</time>
      </trkpt>
      <trkpt lat="40.8861850" lon="-8.4894970">
        <ele>210.8</ele>
        <time>2015-03-23T10:45:22Z</time>
      </trkpt>
      <trkpt lat="40.8866080" lon="-8.4897000">
        <ele>211.8</ele>
        <time>2015-03-23T10:45:36Z</time>
      </trkpt>
      <trkpt lat="40.8868660" lon="-8.4897690">
        <ele>211.7</ele>
        <time>2015-03-23T10:45:49Z</time>
      </trkpt>
      <trkpt lat="40.8872070" lon="-8.4900810">
        <ele>209.6</ele>
        <time>2015-03-23T10:46:02Z</time>
      </trkpt>
      <trkpt lat="40.8872920" lon="-8.4901940">
        <ele>208.7</ele>
        <time>2015-03-23T10:46:05Z</time>
      </trkpt>
      <trkpt lat="40.8874140" lon="-8.4904290">
        <ele>206.6</ele>
        <time>2015-03-23T10:46:10Z</time>
      </trkpt>
      <trkpt lat="40.8875880" lon="-8.4906680">
        <ele>205.4</ele>
        <time>2015-03-23T10:46:21Z</time>
      </trkpt>
      <trkpt lat="40.8876430" lon="-8.4907290">
        <ele>205.0</ele>
        <time>2015-03-23T10:47:41Z</time>
      </trkpt>
      <trkpt lat="40.8880960" lon="-8.4910700">
        <ele>202.7</ele>
        <time>2015-03-23T10:47:55Z</time>
      </trkpt>
      <trkpt lat="40.8887230" lon="-8.4914870">
        <ele>203.8</ele>
        <time>2015-03-23T10:48:13Z</time>
      </trkpt>
      <trkpt lat="40.8891010" lon="-8.4917470">
        <ele>206.8</ele>
        <time>2015-03-23T10:48:24Z</time>
      </trkpt>
      <trkpt lat="40.8894420" lon="-8.4919810">
        <ele>209.1</ele>
        <time>2015-03-23T10:48:34Z</time>
      </trkpt>
      <trkpt lat="40.8899070" lon="-8.4922940">
        <ele>212.7</ele>
        <time>2015-03-23T10:48:48Z</time>
      </trkpt>
      <trkpt lat="40.8902390" lon="-8.4924350">
        <ele>214.7</ele>
        <time>2015-03-23T10:48:59Z</time>
      </trkpt>
      <trkpt lat="40.8902900" lon="-8.4924780">
        <ele>214.5</ele>
        <time>2015-03-23T10:49:09Z</time>
      </trkpt>
      <trkpt lat="40.8903380" lon="-8.4924930">
        <ele>214.3</ele>
        <time>2015-03-23T10:49:21Z</time>
      </trkpt>
      <trkpt lat="40.8904130" lon="-8.4926030">
        <ele>213.4</ele>
        <time>2015-03-23T10:52:09Z</time>
      </trkpt>
      <trkpt lat="40.8908230" lon="-8.4928640">
        <ele>212.6</ele>
        <time>2015-03-23T10:52:25Z</time>
      </trkpt>
      <trkpt lat="40.8912740" lon="-8.4930880">
        <ele>215.1</ele>
        <time>2015-03-23T10:52:40Z</time>
      </trkpt>
      <trkpt lat="40.8917050" lon="-8.4932470">
        <ele>217.0</ele>
        <time>2015-03-23T10:52:55Z</time>
      </trkpt>
      <trkpt lat="40.8922180" lon="-8.4934070">
        <ele>219.9</ele>
        <time>2015-03-23T10:53:13Z</time>
      </trkpt>
      <trkpt lat="40.8928350" lon="-8.4935130">
        <ele>221.2</ele>
        <time>2015-03-23T10:53:31Z</time>
      </trkpt>
      <trkpt lat="40.8936380" lon="-8.4935220">
        <ele>223.8</ele>
        <time>2015-03-23T10:53:53Z</time>
      </trkpt>
      <trkpt lat="40.8940750" lon="-8.4933910">
        <ele>226.4</ele>
        <time>2015-03-23T10:54:07Z</time>
      </trkpt>
      <trkpt lat="40.8944700" lon="-8.4929600">
        <ele>226.1</ele>
        <time>2015-03-23T10:54:22Z</time>
      </trkpt>
      <trkpt lat="40.8948080" lon="-8.4926050">
        <ele>226.5</ele>
        <time>2015-03-23T10:54:38Z</time>
      </trkpt>
      <trkpt lat="40.8950830" lon="-8.4922730">
        <ele>227.0</ele>
        <time>2015-03-23T10:54:55Z</time>
      </trkpt>
      <trkpt lat="40.8952810" lon="-8.4920570">
        <ele>227.4</ele>
        <time>2015-03-23T10:55:10Z</time>
      </trkpt>
      <trkpt lat="40.8955050" lon="-8.4917830">
        <ele>227.8</ele>
        <time>2015-03-23T10:55:28Z</time>
      </trkpt>
      <trkpt lat="40.8957220" lon="-8.4915300">
        <ele>227.3</ele>
        <time>2015-03-23T10:55:43Z</time>
      </trkpt>
      <trkpt lat="40.8958750" lon="-8.4913280">
        <ele>225.7</ele>
        <time>2015-03-23T10:55:58Z</time>
      </trkpt>
      <trkpt lat="40.8959120" lon="-8.4911680">
        <ele>224.7</ele>
        <time>2015-03-23T10:56:01Z</time>
      </trkpt>
      <trkpt lat="40.8959810" lon="-8.4909330">
        <ele>222.4</ele>
        <time>2015-03-23T10:56:06Z</time>
      </trkpt>
      <trkpt lat="40.8961340" lon="-8.4908850">
        <ele>222.3</ele>
        <time>2015-03-23T10:56:13Z</time>
      </trkpt>
      <trkpt lat="40.8964400" lon="-8.4910480">
        <ele>223.2</ele>
        <time>2015-03-23T10:56:27Z</time>
      </trkpt>
      <trkpt lat="40.8966530" lon="-8.4912200">
        <ele>224.6</ele>
        <time>2015-03-23T10:57:02Z</time>
      </trkpt>
      <trkpt lat="40.8971140" lon="-8.4915420">
        <ele>226.0</ele>
        <time>2015-03-23T10:57:15Z</time>
      </trkpt>
      <trkpt lat="40.8974770" lon="-8.4917310">
        <ele>227.4</ele>
        <time>2015-03-23T10:57:27Z</time>
      </trkpt>
      <trkpt lat="40.8975700" lon="-8.4916830">
        <ele>228.0</ele>
        <time>2015-03-23T10:57:32Z</time>
      </trkpt>
      <trkpt lat="40.8977330" lon="-8.4918260">
        <ele>229.1</ele>
        <time>2015-03-23T10:57:43Z</time>
      </trkpt>
      <trkpt lat="40.8980600" lon="-8.4919610">
        <ele>229.0</ele>
        <time>2015-03-23T10:57:56Z</time>
      </trkpt>
      <trkpt lat="40.8983810" lon="-8.4920790">
        <ele>229.5</ele>
        <time>2015-03-23T10:58:09Z</time>
      </trkpt>
      <trkpt lat="40.8986030" lon="-8.4921870">
        <ele>230.6</ele>
        <time>2015-03-23T10:58:21Z</time>
      </trkpt>
      <trkpt lat="40.8987400" lon="-8.4922470">
        <ele>230.4</ele>
        <time>2015-03-23T10:58:34Z</time>
      </trkpt>
      <trkpt lat="40.8988130" lon="-8.4922350">
        <ele>230.3</ele>
        <time>2015-03-23T10:59:11Z</time>
      </trkpt>
      <trkpt lat="40.8990530" lon="-8.4920690">
        <ele>230.0</ele>
        <time>2015-03-23T10:59:26Z</time>
      </trkpt>
      <trkpt lat="40.8992380" lon="-8.4922250">
        <ele>230.5</ele>
        <time>2015-03-23T10:59:38Z</time>
      </trkpt>
      <trkpt lat="40.8992550" lon="-8.4923730">
        <ele>230.4</ele>
        <time>2015-03-23T11:30:31Z</time>
      </trkpt>
      <trkpt lat="40.8993470" lon="-8.4924540">
        <ele>230.5</ele>
        <time>2015-03-23T11:30:52Z</time>
      </trkpt>
      <trkpt lat="40.8994940" lon="-8.4924730">
        <ele>230.7</ele>
        <time>2015-03-23T11:31:06Z</time>
      </trkpt>
      <trkpt lat="40.8995350" lon="-8.4926510">
        <ele>230.4</ele>
        <time>2015-03-23T11:31:54Z</time>
      </trkpt>
      <trkpt lat="40.8995600" lon="-8.4927250">
        <ele>230.2</ele>
        <time>2015-03-23T11:32:12Z</time>
      </trkpt>
      <trkpt lat="40.8995960" lon="-8.4928040">
        <ele>230.1</ele>
        <time>2015-03-23T11:32:24Z</time>
      </trkpt>
      <trkpt lat="40.8996680" lon="-8.4929190">
        <ele>229.9</ele>
        <time>2015-03-23T11:32:33Z</time>
      </trkpt>
      <trkpt lat="40.8998620" lon="-8.4931600">
        <ele>229.6</ele>
        <time>2015-03-23T11:32:45Z</time>
      </trkpt>
      <trkpt lat="40.9001290" lon="-8.4933290">
        <ele>229.1</ele>
        <time>2015-03-23T11:32:57Z</time>
      </trkpt>
      <trkpt lat="40.9004790" lon="-8.4936070">
        <ele>228.4</ele>
        <time>2015-03-23T11:33:13Z</time>
      </trkpt>
      <trkpt lat="40.9008300" lon="-8.4939150">
        <ele>228.3</ele>
        <time>2015-03-23T11:33:24Z</time>
      </trkpt>
      <trkpt lat="40.9012370" lon="-8.4942600">
        <ele>226.1</ele>
        <time>2015-03-23T11:33:35Z</time>
      </trkpt>
      <trkpt lat="40.9017000" lon="-8.4947390">
        <ele>223.6</ele>
        <time>2015-03-23T11:33:50Z</time>
      </trkpt>
      <trkpt lat="40.9018570" lon="-8.4949090">
        <ele>222.3</ele>
        <time>2015-03-23T11:33:55Z</time>
      </trkpt>
      <trkpt lat="40.9019850" lon="-8.4950740">
        <ele>220.5</ele>
        <time>2015-03-23T11:33:59Z</time>
      </trkpt>
      <trkpt lat="40.9022300" lon="-8.4952920">
        <ele>218.5</ele>
        <time>2015-03-23T11:34:05Z</time>
      </trkpt>
      <trkpt lat="40.9023840" lon="-8.4953660">
        <ele>218.2</ele>
        <time>2015-03-23T11:34:08Z</time>
      </trkpt>
      <trkpt lat="40.9025760" lon="-8.4954610">
        <ele>219.5</ele>
        <time>2015-03-23T11:34:12Z</time>
      </trkpt>
      <trkpt lat="40.9030330" lon="-8.4954970">
        <ele>223.5</ele>
        <time>2015-03-23T11:34:24Z</time>
      </trkpt>
      <trkpt lat="40.9030850" lon="-8.4954870">
        <ele>224.0</ele>
        <time>2015-03-23T11:35:03Z</time>
      </trkpt>
      <trkpt lat="40.9034280" lon="-8.4954710">
        <ele>226.1</ele>
        <time>2015-03-23T11:35:18Z</time>
      </trkpt>
      <trkpt lat="40.9038760" lon="-8.4954870">
        <ele>225.8</ele>
        <time>2015-03-23T11:35:33Z</time>
      </trkpt>
      <trkpt lat="40.9043410" lon="-8.4956040">
        <ele>224.0</ele>
        <time>2015-03-23T11:35:49Z</time>
      </trkpt>
      <trkpt lat="40.9044580" lon="-8.4957380">
        <ele>223.3</ele>
        <time>2015-03-23T11:35:53Z</time>
      </trkpt>
      <trkpt lat="40.9045780" lon="-8.4958970">
        <ele>222.9</ele>
        <time>2015-03-23T11:35:57Z</time>
      </trkpt>
      <trkpt lat="40.9051350" lon="-8.4965570">
        <ele>222.3</ele>
        <time>2015-03-23T11:36:14Z</time>
      </trkpt>
      <trkpt lat="40.9056310" lon="-8.4970970">
        <ele>222.8</ele>
        <time>2015-03-23T11:36:33Z</time>
      </trkpt>
      <trkpt lat="40.9057790" lon="-8.4975340">
        <ele>223.4</ele>
        <time>2015-03-23T11:36:46Z</time>
      </trkpt>
      <trkpt lat="40.9059880" lon="-8.4978720">
        <ele>224.8</ele>
        <time>2015-03-23T11:37:02Z</time>
      </trkpt>
      <trkpt lat="40.9063090" lon="-8.4980090">
        <ele>225.4</ele>
        <time>2015-03-23T11:37:19Z</time>
      </trkpt>
      <trkpt lat="40.9065500" lon="-8.4981350">
        <ele>226.2</ele>
        <time>2015-03-23T11:37:34Z</time>
      </trkpt>
      <trkpt lat="40.9068600" lon="-8.4982990">
        <ele>227.6</ele>
        <time>2015-03-23T11:37:53Z</time>
      </trkpt>
      <trkpt lat="40.9071680" lon="-8.4984230">
        <ele>229.0</ele>
        <time>2015-03-23T11:38:12Z</time>
      </trkpt>
      <trkpt lat="40.9075220" lon="-8.4984160">
        <ele>231.2</ele>
        <time>2015-03-23T11:38:32Z</time>
      </trkpt>
      <trkpt lat="40.9077140" lon="-8.4983180">
        <ele>231.6</ele>
        <time>2015-03-23T11:38:43Z</time>
      </trkpt>
      <trkpt lat="40.9078210" lon="-8.4983880">
        <ele>232.1</ele>
        <time>2015-03-23T11:38:51Z</time>
      </trkpt>
      <trkpt lat="40.9078950" lon="-8.4984610">
        <ele>232.4</ele>
        <time>2015-03-23T11:39:43Z</time>
      </trkpt>
      <trkpt lat="40.9080440" lon="-8.4985350">
        <ele>232.7</ele>
        <time>2015-03-23T11:39:55Z</time>
      </trkpt>
      <trkpt lat="40.9082160" lon="-8.4985900">
        <ele>232.7</ele>
        <time>2015-03-23T11:40:04Z</time>
      </trkpt>
      <trkpt lat="40.9085710" lon="-8.4985850">
        <ele>232.7</ele>
        <time>2015-03-23T11:40:20Z</time>
      </trkpt>
      <trkpt lat="40.9089840" lon="-8.4984770">
        <ele>232.7</ele>
        <time>2015-03-23T11:40:38Z</time>
      </trkpt>
      <trkpt lat="40.9093770" lon="-8.4984040">
        <ele>233.4</ele>
        <time>2015-03-23T11:40:55Z</time>
      </trkpt>
      <trkpt lat="40.9097680" lon="-8.4983680">
        <ele>234.2</ele>
        <time>2015-03-23T11:41:13Z</time>
      </trkpt>
      <trkpt lat="40.9100090" lon="-8.4982710">
        <ele>235.5</ele>
        <time>2015-03-23T11:41:25Z</time>
      </trkpt>
      <trkpt lat="40.9103480" lon="-8.4981370">
        <ele>237.5</ele>
        <time>2015-03-23T11:41:43Z</time>
      </trkpt>
      <trkpt lat="40.9106750" lon="-8.4981160">
        <ele>240.7</ele>
        <time>2015-03-23T11:42:00Z</time>
      </trkpt>
      <trkpt lat="40.9109710" lon="-8.4979160">
        <ele>244.4</ele>
        <time>2015-03-23T11:42:16Z</time>
      </trkpt>
      <trkpt lat="40.9112810" lon="-8.4976550">
        <ele>249.1</ele>
        <time>2015-03-23T11:42:35Z</time>
      </trkpt>
      <trkpt lat="40.9113440" lon="-8.4976110">
        <ele>250.1</ele>
        <time>2015-03-23T11:43:05Z</time>
      </trkpt>
      <trkpt lat="40.9115760" lon="-8.4975290">
        <ele>252.0</ele>
        <time>2015-03-23T11:43:20Z</time>
      </trkpt>
      <trkpt lat="40.9116420" lon="-8.4974540">
        <ele>252.4</ele>
        <time>2015-03-23T11:43:27Z</time>
      </trkpt>
      <trkpt lat="40.9116890" lon="-8.4974190">
        <ele>252.5</ele>
        <time>2015-03-23T11:43:31Z</time>
      </trkpt>
      <trkpt lat="40.9117460" lon="-8.4974220">
        <ele>252.7</ele>
        <time>2015-03-23T11:43:35Z</time>
      </trkpt>
      <trkpt lat="40.9118230" lon="-8.4974350">
        <ele>252.9</ele>
        <time>2015-03-23T11:43:41Z</time>
      </trkpt>
      <trkpt lat="40.9120440" lon="-8.4974750">
        <ele>253.5</ele>
        <time>2015-03-23T11:43:58Z</time>
      </trkpt>
      <trkpt lat="40.9122830" lon="-8.4975960">
        <ele>252.9</ele>
        <time>2015-03-23T11:44:13Z</time>
      </trkpt>
      <trkpt lat="40.9126580" lon="-8.4978500">
        <ele>251.8</ele>
        <time>2015-03-23T11:44:32Z</time>
      </trkpt>
      <trkpt lat="40.9130090" lon="-8.4979770">
        <ele>252.4</ele>
        <time>2015-03-23T11:44:50Z</time>
      </trkpt>
      <trkpt lat="40.9132320" lon="-8.4980680">
        <ele>253.4</ele>
        <time>2015-03-23T11:45:04Z</time>
      </trkpt>
      <trkpt lat="40.9133290" lon="-8.4981300">
        <ele>254.0</ele>
        <time>2015-03-23T11:45:18Z</time>
      </trkpt>
      <trkpt lat="40.9136290" lon="-8.4982150">
        <ele>255.7</ele>
        <time>2015-03-23T11:45:35Z</time>
      </trkpt>
      <trkpt lat="40.9139560" lon="-8.4983390">
        <ele>257.3</ele>
        <time>2015-03-23T11:45:53Z</time>
      </trkpt>
      <trkpt lat="40.9140520" lon="-8.4983620">
        <ele>257.8</ele>
        <time>2015-03-23T11:45:58Z</time>
      </trkpt>
      <trkpt lat="40.9143780" lon="-8.4984390">
        <ele>259.5</ele>
        <time>2015-03-23T11:46:15Z</time>
      </trkpt>
      <trkpt lat="40.9146870" lon="-8.4985950">
        <ele>261.9</ele>
        <time>2015-03-23T11:46:32Z</time>
      </trkpt>
      <trkpt lat="40.9150120" lon="-8.4988240">
        <ele>264.7</ele>
        <time>2015-03-23T11:46:52Z</time>
      </trkpt>
      <trkpt lat="40.9152630" lon="-8.4989590">
        <ele>267.7</ele>
        <time>2015-03-23T11:47:08Z</time>
      </trkpt>
      <trkpt lat="40.9155640" lon="-8.4990080">
        <ele>269.8</ele>
        <time>2015-03-23T11:47:24Z</time>
      </trkpt>
      <trkpt lat="40.9158750" lon="-8.4990040">
        <ele>271.1</ele>
        <time>2015-03-23T11:47:39Z</time>
      </trkpt>
      <trkpt lat="40.9162520" lon="-8.4989830">
        <ele>271.2</ele>
        <time>2015-03-23T11:47:54Z</time>
      </trkpt>
      <trkpt lat="40.9165090" lon="-8.4990610">
        <ele>270.8</ele>
        <time>2015-03-23T11:48:02Z</time>
      </trkpt>
      <trkpt lat="40.9169730" lon="-8.4994350">
        <ele>269.6</ele>
        <time>2015-03-23T11:48:17Z</time>
      </trkpt>
      <trkpt lat="40.9170740" lon="-8.4995290">
        <ele>269.2</ele>
        <time>2015-03-23T11:48:20Z</time>
      </trkpt>
      <trkpt lat="40.9171590" lon="-8.4996530">
        <ele>268.9</ele>
        <time>2015-03-23T11:48:23Z</time>
      </trkpt>
      <trkpt lat="40.9175060" lon="-8.5000810">
        <ele>267.8</ele>
        <time>2015-03-23T11:48:34Z</time>
      </trkpt>
      <trkpt lat="40.9179420" lon="-8.5004340">
        <ele>266.7</ele>
        <time>2015-03-23T11:48:46Z</time>
      </trkpt>
      <trkpt lat="40.9181580" lon="-8.5005640">
        <ele>265.9</ele>
        <time>2015-03-23T11:48:51Z</time>
      </trkpt>
      <trkpt lat="40.9184870" lon="-8.5007040">
        <ele>264.5</ele>
        <time>2015-03-23T11:48:58Z</time>
      </trkpt>
      <trkpt lat="40.9187730" lon="-8.5012260">
        <ele>261.9</ele>
        <time>2015-03-23T11:49:06Z</time>
      </trkpt>
      <trkpt lat="40.9189260" lon="-8.5019960">
        <ele>257.8</ele>
        <time>2015-03-23T11:49:14Z</time>
      </trkpt>
      <trkpt lat="40.9189510" lon="-8.5020910">
        <ele>257.0</ele>
        <time>2015-03-23T11:49:15Z</time>
      </trkpt>
      <trkpt lat="40.9190310" lon="-8.5023930">
        <ele>255.0</ele>
        <time>2015-03-23T11:49:18Z</time>
      </trkpt>
      <trkpt lat="40.9190570" lon="-8.5024980">
        <ele>254.3</ele>
        <time>2015-03-23T11:49:19Z</time>
      </trkpt>
      <trkpt lat="40.9195160" lon="-8.5034660">
        <ele>252.2</ele>
        <time>2015-03-23T11:49:29Z</time>
      </trkpt>
      <trkpt lat="40.9199900" lon="-8.5042590">
        <ele>251.7</ele>
        <time>2015-03-23T11:49:38Z</time>
      </trkpt>
      <trkpt lat="40.9207570" lon="-8.5050210">
        <ele>252.8</ele>
        <time>2015-03-23T11:49:51Z</time>
      </trkpt>
      <trkpt lat="40.9211210" lon="-8.5055790">
        <ele>247.5</ele>
        <time>2015-03-23T11:49:59Z</time>
      </trkpt>
      <trkpt lat="40.9217360" lon="-8.5061530">
        <ele>239.3</ele>
        <time>2015-03-23T11:50:10Z</time>
      </trkpt>
      <trkpt lat="40.9219300" lon="-8.5062810">
        <ele>237.0</ele>
        <time>2015-03-23T11:50:13Z</time>
      </trkpt>
      <trkpt lat="40.9224330" lon="-8.5066520">
        <ele>234.1</ele>
        <time>2015-03-23T11:50:21Z</time>
      </trkpt>
      <trkpt lat="40.9226290" lon="-8.5069690">
        <ele>233.4</ele>
        <time>2015-03-23T11:50:25Z</time>
      </trkpt>
      <trkpt lat="40.9229150" lon="-8.5074500">
        <ele>232.0</ele>
        <time>2015-03-23T11:50:31Z</time>
      </trkpt>
      <trkpt lat="40.9231850" lon="-8.5078600">
        <ele>230.4</ele>
        <time>2015-03-23T11:50:36Z</time>
      </trkpt>
      <trkpt lat="40.9233050" lon="-8.5080240">
        <ele>229.8</ele>
        <time>2015-03-23T11:50:38Z</time>
      </trkpt>
      <trkpt lat="40.9237000" lon="-8.5083300">
        <ele>228.3</ele>
        <time>2015-03-23T11:50:43Z</time>
      </trkpt>
      <trkpt lat="40.9242310" lon="-8.5085720">
        <ele>225.5</ele>
        <time>2015-03-23T11:50:49Z</time>
      </trkpt>
      <trkpt lat="40.9245810" lon="-8.5087750">
        <ele>222.9</ele>
        <time>2015-03-23T11:50:53Z</time>
      </trkpt>
      <trkpt lat="40.9249290" lon="-8.5089960">
        <ele>220.2</ele>
        <time>2015-03-23T11:50:57Z</time>
      </trkpt>
      <trkpt lat="40.9252030" lon="-8.5094730">
        <ele>217.4</ele>
        <time>2015-03-23T11:51:02Z</time>
      </trkpt>
      <trkpt lat="40.9250990" lon="-8.5099470">
        <ele>215.4</ele>
        <time>2015-03-23T11:51:06Z</time>
      </trkpt>
      <trkpt lat="40.9247320" lon="-8.5107850">
        <ele>213.3</ele>
        <time>2015-03-23T11:51:15Z</time>
      </trkpt>
      <trkpt lat="40.9247410" lon="-8.5110970">
        <ele>213.9</ele>
        <time>2015-03-23T11:51:21Z</time>
      </trkpt>
      <trkpt lat="40.9248170" lon="-8.5111860">
        <ele>214.5</ele>
        <time>2015-03-23T11:51:26Z</time>
      </trkpt>
      <trkpt lat="40.9250810" lon="-8.5115730">
        <ele>216.2</ele>
        <time>2015-03-23T11:51:43Z</time>
      </trkpt>
      <trkpt lat="40.9252020" lon="-8.5117360">
        <ele>216.8</ele>
        <time>2015-03-23T11:51:51Z</time>
      </trkpt>
      <trkpt lat="40.9252900" lon="-8.5119040">
        <ele>217.4</ele>
        <time>2015-03-23T11:52:00Z</time>
      </trkpt>
      <trkpt lat="40.9254950" lon="-8.5122110">
        <ele>218.3</ele>
        <time>2015-03-23T11:52:17Z</time>
      </trkpt>
      <trkpt lat="40.9256180" lon="-8.5122120">
        <ele>219.2</ele>
        <time>2015-03-23T11:52:24Z</time>
      </trkpt>
      <trkpt lat="40.9259580" lon="-8.5120410">
        <ele>221.6</ele>
        <time>2015-03-23T11:52:45Z</time>
      </trkpt>
      <trkpt lat="40.9261490" lon="-8.5119260">
        <ele>223.8</ele>
        <time>2015-03-23T11:53:00Z</time>
      </trkpt>
      <trkpt lat="40.9263910" lon="-8.5118070">
        <ele>226.4</ele>
        <time>2015-03-23T11:53:18Z</time>
      </trkpt>
      <trkpt lat="40.9266480" lon="-8.5116610">
        <ele>229.2</ele>
        <time>2015-03-23T11:53:36Z</time>
      </trkpt>
      <trkpt lat="40.9268260" lon="-8.5113640">
        <ele>232.6</ele>
        <time>2015-03-23T11:53:54Z</time>
      </trkpt>
      <trkpt lat="40.9269940" lon="-8.5110540">
        <ele>234.9</ele>
        <time>2015-03-23T11:54:13Z</time>
      </trkpt>
      <trkpt lat="40.9271670" lon="-8.5107640">
        <ele>235.7</ele>
        <time>2015-03-23T11:54:32Z</time>
      </trkpt>
      <trkpt lat="40.9272840" lon="-8.5105310">
        <ele>236.3</ele>
        <time>2015-03-23T11:54:47Z</time>
      </trkpt>
      <trkpt lat="40.9274120" lon="-8.5102970">
        <ele>237.1</ele>
        <time>2015-03-23T11:55:02Z</time>
      </trkpt>
      <trkpt lat="40.9276410" lon="-8.5099150">
        <ele>238.4</ele>
        <time>2015-03-23T11:55:25Z</time>
      </trkpt>
      <trkpt lat="40.9278720" lon="-8.5095480">
        <ele>239.2</ele>
        <time>2015-03-23T11:55:47Z</time>
      </trkpt>
      <trkpt lat="40.9280600" lon="-8.5092300">
        <ele>244.9</ele>
        <time>2015-03-23T11:56:05Z</time>
      </trkpt>
      <trkpt lat="40.9282290" lon="-8.5089460">
        <ele>250.2</ele>
        <time>2015-03-23T11:56:23Z</time>
      </trkpt>
      <trkpt lat="40.9282880" lon="-8.5088050">
        <ele>252.6</ele>
        <time>2015-03-23T11:56:54Z</time>
      </trkpt>
      <trkpt lat="40.9284650" lon="-8.5085360">
        <ele>258.3</ele>
        <time>2015-03-23T11:57:13Z</time>
      </trkpt>
      <trkpt lat="40.9286050" lon="-8.5083120">
        <ele>261.6</ele>
        <time>2015-03-23T11:57:29Z</time>
      </trkpt>
      <trkpt lat="40.9287240" lon="-8.5081220">
        <ele>263.5</ele>
        <time>2015-03-23T11:57:42Z</time>
      </trkpt>
      <trkpt lat="40.9287830" lon="-8.5080460">
        <ele>264.2</ele>
        <time>2015-03-23T11:57:48Z</time>
      </trkpt>
      <trkpt lat="40.9289410" lon="-8.5077950">
        <ele>266.5</ele>
        <time>2015-03-23T11:58:06Z</time>
      </trkpt>
      <trkpt lat="40.9291120" lon="-8.5075230">
        <ele>269.3</ele>
        <time>2015-03-23T11:58:25Z</time>
      </trkpt>
      <trkpt lat="40.9292660" lon="-8.5072500">
        <ele>271.5</ele>
        <time>2015-03-23T11:58:44Z</time>
      </trkpt>
      <trkpt lat="40.9294350" lon="-8.5069800">
        <ele>274.0</ele>
        <time>2015-03-23T11:59:04Z</time>
      </trkpt>
      <trkpt lat="40.9295770" lon="-8.5066940">
        <ele>276.7</ele>
        <time>2015-03-23T11:59:23Z</time>
      </trkpt>
      <trkpt lat="40.9296830" lon="-8.5063760">
        <ele>279.2</ele>
        <time>2015-03-23T11:59:42Z</time>
      </trkpt>
      <trkpt lat="40.9297610" lon="-8.5061170">
        <ele>281.2</ele>
        <time>2015-03-23T11:59:57Z</time>
      </trkpt>
      <trkpt lat="40.9299020" lon="-8.5057540">
        <ele>283.9</ele>
        <time>2015-03-23T12:00:17Z</time>
      </trkpt>
      <trkpt lat="40.9299600" lon="-8.5054740">
        <ele>286.0</ele>
        <time>2015-03-23T12:00:33Z</time>
      </trkpt>
      <trkpt lat="40.9300560" lon="-8.5051180">
        <ele>288.7</ele>
        <time>2015-03-23T12:00:54Z</time>
      </trkpt>
      <trkpt lat="40.9301730" lon="-8.5047570">
        <ele>291.3</ele>
        <time>2015-03-23T12:01:13Z</time>
      </trkpt>
      <trkpt lat="40.9302330" lon="-8.5044350">
        <ele>293.5</ele>
        <time>2015-03-23T12:01:30Z</time>
      </trkpt>
      <trkpt lat="40.9303010" lon="-8.5040930">
        <ele>295.5</ele>
        <time>2015-03-23T12:01:47Z</time>
      </trkpt>
      <trkpt lat="40.9303830" lon="-8.5039120">
        <ele>296.3</ele>
        <time>2015-03-23T12:01:55Z</time>
      </trkpt>
      <trkpt lat="40.9304450" lon="-8.5039030">
        <ele>296.3</ele>
        <time>2015-03-23T12:01:59Z</time>
      </trkpt>
      <trkpt lat="40.9304940" lon="-8.5039210">
        <ele>296.3</ele>
        <time>2015-03-23T12:02:12Z</time>
      </trkpt>
      <trkpt lat="40.9306740" lon="-8.5039380">
        <ele>296.2</ele>
        <time>2015-03-23T12:02:23Z</time>
      </trkpt>
      <trkpt lat="40.9310180" lon="-8.5040170">
        <ele>296.2</ele>
        <time>2015-03-23T12:02:39Z</time>
      </trkpt>
      <trkpt lat="40.9315330" lon="-8.5041340">
        <ele>295.9</ele>
        <time>2015-03-23T12:03:00Z</time>
      </trkpt>
      <trkpt lat="40.9320050" lon="-8.5042450">
        <ele>296.4</ele>
        <time>2015-03-23T12:03:18Z</time>
      </trkpt>
      <trkpt lat="40.9327600" lon="-8.5044410">
        <ele>296.4</ele>
        <time>2015-03-23T12:03:37Z</time>
      </trkpt>
      <trkpt lat="40.9333730" lon="-8.5046060">
        <ele>294.5</ele>
        <time>2015-03-23T12:03:48Z</time>
      </trkpt>
      <trkpt lat="40.9343230" lon="-8.5048450">
        <ele>294.3</ele>
        <time>2015-03-23T12:04:06Z</time>
      </trkpt>
      <trkpt lat="40.9348810" lon="-8.5051340">
        <ele>295.8</ele>
        <time>2015-03-23T12:04:22Z</time>
      </trkpt>
      <trkpt lat="40.9350050" lon="-8.5052360">
        <ele>296.1</ele>
        <time>2015-03-23T12:04:26Z</time>
      </trkpt>
      <trkpt lat="40.9354930" lon="-8.5056520">
        <ele>297.5</ele>
        <time>2015-03-23T12:04:43Z</time>
      </trkpt>
      <trkpt lat="40.9359590" lon="-8.5060680">
        <ele>298.6</ele>
        <time>2015-03-23T12:05:00Z</time>
      </trkpt>
      <trkpt lat="40.9363670" lon="-8.5064360">
        <ele>299.5</ele>
        <time>2015-03-23T12:05:15Z</time>
      </trkpt>
      <trkpt lat="40.9367970" lon="-8.5067990">
        <ele>299.2</ele>
        <time>2015-03-23T12:05:28Z</time>
      </trkpt>
      <trkpt lat="40.9368860" lon="-8.5068460">
        <ele>298.9</ele>
        <time>2015-03-23T12:05:30Z</time>
      </trkpt>
      <trkpt lat="40.9377120" lon="-8.5072950">
        <ele>296.6</ele>
        <time>2015-03-23T12:05:47Z</time>
      </trkpt>
      <trkpt lat="40.9384090" lon="-8.5076020">
        <ele>295.1</ele>
        <time>2015-03-23T12:06:04Z</time>
      </trkpt>
      <trkpt lat="40.9390530" lon="-8.5077660">
        <ele>293.8</ele>
        <time>2015-03-23T12:06:17Z</time>
      </trkpt>
      <trkpt lat="40.9396610" lon="-8.5078990">
        <ele>293.9</ele>
        <time>2015-03-23T12:06:32Z</time>
      </trkpt>
      <trkpt lat="40.9402500" lon="-8.5080340">
        <ele>294.4</ele>
        <time>2015-03-23T12:06:49Z</time>
      </trkpt>
      <trkpt lat="40.9409400" lon="-8.5081830">
        <ele>294.1</ele>
        <time>2015-03-23T12:07:09Z</time>
      </trkpt>
      <trkpt lat="40.9414850" lon="-8.5083360">
        <ele>295.8</ele>
        <time>2015-03-23T12:07:26Z</time>
      </trkpt>
      <trkpt lat="40.9421630" lon="-8.5085040">
        <ele>297.7</ele>
        <time>2015-03-23T12:07:46Z</time>
      </trkpt>
      <trkpt lat="40.9427650" lon="-8.5086560">
        <ele>298.7</ele>
        <time>2015-03-23T12:08:03Z</time>
      </trkpt>
      <trkpt lat="40.9433800" lon="-8.5087950">
        <ele>299.1</ele>
        <time>2015-03-23T12:08:19Z</time>
      </trkpt>
      <trkpt lat="40.9440040" lon="-8.5090470">
        <ele>299.6</ele>
        <time>2015-03-23T12:08:35Z</time>
      </trkpt>
      <trkpt lat="40.9444980" lon="-8.5093330">
        <ele>299.8</ele>
        <time>2015-03-23T12:08:49Z</time>
      </trkpt>
      <trkpt lat="40.9450140" lon="-8.5096910">
        <ele>301.0</ele>
        <time>2015-03-23T12:09:05Z</time>
      </trkpt>
      <trkpt lat="40.9450810" lon="-8.5097450">
        <ele>301.3</ele>
        <time>2015-03-23T12:09:17Z</time>
      </trkpt>
      <trkpt lat="40.9454380" lon="-8.5099780">
        <ele>303.0</ele>
        <time>2015-03-23T12:09:30Z</time>
      </trkpt>
      <trkpt lat="40.9459290" lon="-8.5103170">
        <ele>304.3</ele>
        <time>2015-03-23T12:09:47Z</time>
      </trkpt>
      <trkpt lat="40.9463650" lon="-8.5106090">
        <ele>304.7</ele>
        <time>2015-03-23T12:10:02Z</time>
      </trkpt>
      <trkpt lat="40.9468660" lon="-8.5109460">
        <ele>305.0</ele>
        <time>2015-03-23T12:10:17Z</time>
      </trkpt>
      <trkpt lat="40.9471270" lon="-8.5111250">
        <ele>304.8</ele>
        <time>2015-03-23T12:10:24Z</time>
      </trkpt>
      <trkpt lat="40.9476950" lon="-8.5115560">
        <ele>303.8</ele>
        <time>2015-03-23T12:10:39Z</time>
      </trkpt>
      <trkpt lat="40.9482000" lon="-8.5120510">
        <ele>304.6</ele>
        <time>2015-03-23T12:10:55Z</time>
      </trkpt>
      <trkpt lat="40.9485520" lon="-8.5123810">
        <ele>304.4</ele>
        <time>2015-03-23T12:11:08Z</time>
      </trkpt>
      <trkpt lat="40.9488320" lon="-8.5126590">
        <ele>304.0</ele>
        <time>2015-03-23T12:11:19Z</time>
      </trkpt>
      <trkpt lat="40.9492410" lon="-8.5130650">
        <ele>304.2</ele>
        <time>2015-03-23T12:11:33Z</time>
      </trkpt>
      <trkpt lat="40.9493000" lon="-8.5131250">
        <ele>304.3</ele>
        <time>2015-03-23T12:11:35Z</time>
      </trkpt>
      <trkpt lat="40.9497910" lon="-8.5136100">
        <ele>305.0</ele>
        <time>2015-03-23T12:11:52Z</time>
      </trkpt>
      <trkpt lat="40.9502360" lon="-8.5140540">
        <ele>305.5</ele>
        <time>2015-03-23T12:12:07Z</time>
      </trkpt>
      <trkpt lat="40.9507310" lon="-8.5145530">
        <ele>306.2</ele>
        <time>2015-03-23T12:12:24Z</time>
      </trkpt>
      <trkpt lat="40.9511150" lon="-8.5150000">
        <ele>306.7</ele>
        <time>2015-03-23T12:12:38Z</time>
      </trkpt>
      <trkpt lat="40.9513860" lon="-8.5152290">
        <ele>306.8</ele>
        <time>2015-03-23T12:12:49Z</time>
      </trkpt>
      <trkpt lat="40.9519210" lon="-8.5157300">
        <ele>307.8</ele>
        <time>2015-03-23T12:13:07Z</time>
      </trkpt>
      <trkpt lat="40.9522880" lon="-8.5160750">
        <ele>308.2</ele>
        <time>2015-03-23T12:13:20Z</time>
      </trkpt>
      <trkpt lat="40.9529350" lon="-8.5165290">
        <ele>307.5</ele>
        <time>2015-03-23T12:13:36Z</time>
      </trkpt>
      <trkpt lat="40.9533970" lon="-8.5168030">
        <ele>304.6</ele>
        <time>2015-03-23T12:13:45Z</time>
      </trkpt>
      <trkpt lat="40.9538940" lon="-8.5170700">
        <ele>301.4</ele>
        <time>2015-03-23T12:13:53Z</time>
      </trkpt>
      <trkpt lat="40.9545160" lon="-8.5174030">
        <ele>297.6</ele>
        <time>2015-03-23T12:14:03Z</time>
      </trkpt>
      <trkpt lat="40.9550320" lon="-8.5176760">
        <ele>297.6</ele>
        <time>2015-03-23T12:14:16Z</time>
      </trkpt>
      <trkpt lat="40.9555100" lon="-8.5179530">
        <ele>299.2</ele>
        <time>2015-03-23T12:14:35Z</time>
      </trkpt>
      <trkpt lat="40.9555540" lon="-8.5179800">
        <ele>299.4</ele>
        <time>2015-03-23T12:14:37Z</time>
      </trkpt>
      <trkpt lat="40.9556990" lon="-8.5181080">
        <ele>300.3</ele>
        <time>2015-03-23T12:14:52Z</time>
      </trkpt>
      <trkpt lat="40.9559030" lon="-8.5181420">
        <ele>300.9</ele>
        <time>2015-03-23T12:15:21Z</time>
      </trkpt>
      <trkpt lat="40.9561400" lon="-8.5182840">
        <ele>301.5</ele>
        <time>2015-03-23T12:15:34Z</time>
      </trkpt>
      <trkpt lat="40.9564140" lon="-8.5183880">
        <ele>301.7</ele>
        <time>2015-03-23T12:15:47Z</time>
      </trkpt>
      <trkpt lat="40.9564860" lon="-8.5184570">
        <ele>301.8</ele>
        <time>2015-03-23T12:15:52Z</time>
      </trkpt>
      <trkpt lat="40.9568200" lon="-8.5188200">
        <ele>301.2</ele>
        <time>2015-03-23T12:16:07Z</time>
      </trkpt>
      <trkpt lat="40.9571750" lon="-8.5191270">
        <ele>300.4</ele>
        <time>2015-03-23T12:16:19Z</time>
      </trkpt>
      <trkpt lat="40.9573300" lon="-8.5192590">
        <ele>299.8</ele>
        <time>2015-03-23T12:16:23Z</time>
      </trkpt>
      <trkpt lat="40.9579660" lon="-8.5196870">
        <ele>297.9</ele>
        <time>2015-03-23T12:16:38Z</time>
      </trkpt>
      <trkpt lat="40.9580460" lon="-8.5197430">
        <ele>297.9</ele>
        <time>2015-03-23T12:16:40Z</time>
      </trkpt>
      <trkpt lat="40.9584350" lon="-8.5199760">
        <ele>296.6</ele>
        <time>2015-03-23T12:16:51Z</time>
      </trkpt>
      <trkpt lat="40.9588070" lon="-8.5202110">
        <ele>294.3</ele>
        <time>2015-03-23T12:17:01Z</time>
      </trkpt>
      <trkpt lat="40.9592580" lon="-8.5204940">
        <ele>290.7</ele>
        <time>2015-03-23T12:17:13Z</time>
      </trkpt>
      <trkpt lat="40.9594040" lon="-8.5206040">
        <ele>289.4</ele>
        <time>2015-03-23T12:17:17Z</time>
      </trkpt>
      <trkpt lat="40.9598310" lon="-8.5208880">
        <ele>285.8</ele>
        <time>2015-03-23T12:17:30Z</time>
      </trkpt>
      <trkpt lat="40.9602260" lon="-8.5210960">
        <ele>283.8</ele>
        <time>2015-03-23T12:17:42Z</time>
      </trkpt>
      <trkpt lat="40.9606110" lon="-8.5212700">
        <ele>281.9</ele>
        <time>2015-03-23T12:17:57Z</time>
      </trkpt>
      <trkpt lat="40.9609640" lon="-8.5213530">
        <ele>280.0</ele>
        <time>2015-03-23T12:18:10Z</time>
      </trkpt>
      <trkpt lat="40.9613940" lon="-8.5214660">
        <ele>276.4</ele>
        <time>2015-03-23T12:18:26Z</time>
      </trkpt>
      <trkpt lat="40.9615750" lon="-8.5215610">
        <ele>275.2</ele>
        <time>2015-03-23T12:18:36Z</time>
      </trkpt>
      <trkpt lat="40.9616510" lon="-8.5215810">
        <ele>275.2</ele>
        <time>2015-03-23T12:19:12Z</time>
      </trkpt>
      <trkpt lat="40.9617700" lon="-8.5215960">
        <ele>273.9</ele>
        <time>2015-03-23T12:19:15Z</time>
      </trkpt>
      <trkpt lat="40.9622220" lon="-8.5218120">
        <ele>269.8</ele>
        <time>2015-03-23T12:19:23Z</time>
      </trkpt>
      <trkpt lat="40.9627480" lon="-8.5221080">
        <ele>267.8</ele>
        <time>2015-03-23T12:19:32Z</time>
      </trkpt>
      <trkpt lat="40.9628210" lon="-8.5221780">
        <ele>267.5</ele>
        <time>2015-03-23T12:19:34Z</time>
      </trkpt>
      <trkpt lat="40.9629350" lon="-8.5223400">
        <ele>266.5</ele>
        <time>2015-03-23T12:19:37Z</time>
      </trkpt>
      <trkpt lat="40.9631920" lon="-8.5226270">
        <ele>264.0</ele>
        <time>2015-03-23T12:19:42Z</time>
      </trkpt>
      <trkpt lat="40.9634380" lon="-8.5228690">
        <ele>261.7</ele>
        <time>2015-03-23T12:19:46Z</time>
      </trkpt>
      <trkpt lat="40.9635580" lon="-8.5230080">
        <ele>260.6</ele>
        <time>2015-03-23T12:19:48Z</time>
      </trkpt>
      <trkpt lat="40.9639140" lon="-8.5231600">
        <ele>259.0</ele>
        <time>2015-03-23T12:19:53Z</time>
      </trkpt>
      <trkpt lat="40.9639910" lon="-8.5231450">
        <ele>258.8</ele>
        <time>2015-03-23T12:19:54Z</time>
      </trkpt>
      <trkpt lat="40.9641400" lon="-8.5230980">
        <ele>258.5</ele>
        <time>2015-03-23T12:19:56Z</time>
      </trkpt>
      <trkpt lat="40.9644570" lon="-8.5228720">
        <ele>256.2</ele>
        <time>2015-03-23T12:20:01Z</time>
      </trkpt>
      <trkpt lat="40.9645520" lon="-8.5227430">
        <ele>255.5</ele>
        <time>2015-03-23T12:20:03Z</time>
      </trkpt>
      <trkpt lat="40.9646560" lon="-8.5224960">
        <ele>254.2</ele>
        <time>2015-03-23T12:20:06Z</time>
      </trkpt>
      <trkpt lat="40.9651100" lon="-8.5222430">
        <ele>251.3</ele>
        <time>2015-03-23T12:20:13Z</time>
      </trkpt>
      <trkpt lat="40.9651840" lon="-8.5222640">
        <ele>251.1</ele>
        <time>2015-03-23T12:20:14Z</time>
      </trkpt>
      <trkpt lat="40.9660870" lon="-8.5225940">
        <ele>247.5</ele>
        <time>2015-03-23T12:20:29Z</time>
      </trkpt>
      <trkpt lat="40.9661330" lon="-8.5226120">
        <ele>247.5</ele>
        <time>2015-03-23T12:20:30Z</time>
      </trkpt>
      <trkpt lat="40.9667900" lon="-8.5231210">
        <ele>247.2</ele>
        <time>2015-03-23T12:20:48Z</time>
      </trkpt>
      <trkpt lat="40.9670010" lon="-8.5232200">
        <ele>247.2</ele>
        <time>2015-03-23T12:20:54Z</time>
      </trkpt>
      <trkpt lat="40.9675080" lon="-8.5234550">
        <ele>249.8</ele>
        <time>2015-03-23T12:21:09Z</time>
      </trkpt>
      <trkpt lat="40.9677960" lon="-8.5236940">
        <ele>251.4</ele>
        <time>2015-03-23T12:21:23Z</time>
      </trkpt>
      <trkpt lat="40.9681120" lon="-8.5240300">
        <ele>251.0</ele>
        <time>2015-03-23T12:21:38Z</time>
      </trkpt>
      <trkpt lat="40.9686800" lon="-8.5243110">
        <ele>247.2</ele>
        <time>2015-03-23T12:21:52Z</time>
      </trkpt>
      <trkpt lat="40.9687440" lon="-8.5243360">
        <ele>246.8</ele>
        <time>2015-03-23T12:21:53Z</time>
      </trkpt>
      <trkpt lat="40.9691110" lon="-8.5244500">
        <ele>244.6</ele>
        <time>2015-03-23T12:21:58Z</time>
      </trkpt>
      <trkpt lat="40.9693530" lon="-8.5245370">
        <ele>244.0</ele>
        <time>2015-03-23T12:22:01Z</time>
      </trkpt>
      <trkpt lat="40.9696650" lon="-8.5246550">
        <ele>244.2</ele>
        <time>2015-03-23T12:22:05Z</time>
      </trkpt>
      <trkpt lat="40.9698420" lon="-8.5247500">
        <ele>243.3</ele>
        <time>2015-03-23T12:22:08Z</time>
      </trkpt>
      <trkpt lat="40.9702190" lon="-8.5249280">
        <ele>239.6</ele>
        <time>2015-03-23T12:22:17Z</time>
      </trkpt>
      <trkpt lat="40.9702720" lon="-8.5249440">
        <ele>239.0</ele>
        <time>2015-03-23T12:22:18Z</time>
      </trkpt>
      <trkpt lat="40.9704670" lon="-8.5250440">
        <ele>236.6</ele>
        <time>2015-03-23T12:22:22Z</time>
      </trkpt>
      <trkpt lat="40.9707720" lon="-8.5251740">
        <ele>233.9</ele>
        <time>2015-03-23T12:22:28Z</time>
      </trkpt>
      <trkpt lat="40.9709430" lon="-8.5252730">
        <ele>232.8</ele>
        <time>2015-03-23T12:22:32Z</time>
      </trkpt>
      <trkpt lat="40.9711400" lon="-8.5253400">
        <ele>231.8</ele>
        <time>2015-03-23T12:22:37Z</time>
      </trkpt>
      <trkpt lat="40.9714220" lon="-8.5253210">
        <ele>230.2</ele>
        <time>2015-03-23T12:22:44Z</time>
      </trkpt>
      <trkpt lat="40.9715680" lon="-8.5253880">
        <ele>229.8</ele>
        <time>2015-03-23T12:22:49Z</time>
      </trkpt>
      <trkpt lat="40.9716950" lon="-8.5254240">
        <ele>228.9</ele>
        <time>2015-03-23T12:22:53Z</time>
      </trkpt>
      <trkpt lat="40.9718260" lon="-8.5255220">
        <ele>227.5</ele>
        <time>2015-03-23T12:22:58Z</time>
      </trkpt>
      <trkpt lat="40.9723230" lon="-8.5257620">
        <ele>221.5</ele>
        <time>2015-03-23T12:23:13Z</time>
      </trkpt>
      <trkpt lat="40.9729330" lon="-8.5259600">
        <ele>218.6</ele>
        <time>2015-03-23T12:23:28Z</time>
      </trkpt>
      <trkpt lat="40.9734460" lon="-8.5260820">
        <ele>215.5</ele>
        <time>2015-03-23T12:23:37Z</time>
      </trkpt>
      <trkpt lat="40.9741320" lon="-8.5262780">
        <ele>210.5</ele>
        <time>2015-03-23T12:23:47Z</time>
      </trkpt>
      <trkpt lat="40.9746500" lon="-8.5264210">
        <ele>209.5</ele>
        <time>2015-03-23T12:23:54Z</time>
      </trkpt>
      <trkpt lat="40.9756500" lon="-8.5266670">
        <ele>207.6</ele>
        <time>2015-03-23T12:24:08Z</time>
      </trkpt>
      <trkpt lat="40.9758140" lon="-8.5267080">
        <ele>207.1</ele>
        <time>2015-03-23T12:24:15Z</time>
      </trkpt>
      <trkpt lat="40.9759060" lon="-8.5267400">
        <ele>207.0</ele>
        <time>2015-03-23T12:24:32Z</time>
      </trkpt>
      <trkpt lat="40.9763680" lon="-8.5269720">
        <ele>206.7</ele>
        <time>2015-03-23T12:24:45Z</time>
      </trkpt>
      <trkpt lat="40.9769300" lon="-8.5272600">
        <ele>207.3</ele>
        <time>2015-03-23T12:24:59Z</time>
      </trkpt>
      <trkpt lat="40.9771100" lon="-8.5273970">
        <ele>206.6</ele>
        <time>2015-03-23T12:25:03Z</time>
      </trkpt>
      <trkpt lat="40.9774660" lon="-8.5278130">
        <ele>203.4</ele>
        <time>2015-03-23T12:25:10Z</time>
      </trkpt>
      <trkpt lat="40.9779520" lon="-8.5284110">
        <ele>200.3</ele>
        <time>2015-03-23T12:25:18Z</time>
      </trkpt>
      <trkpt lat="40.9784770" lon="-8.5291150">
        <ele>199.1</ele>
        <time>2015-03-23T12:25:29Z</time>
      </trkpt>
      <trkpt lat="40.9787360" lon="-8.5295060">
        <ele>201.1</ele>
        <time>2015-03-23T12:25:41Z</time>
      </trkpt>
      <trkpt lat="40.9789650" lon="-8.5298200">
        <ele>206.6</ele>
        <time>2015-03-23T12:25:56Z</time>
      </trkpt>
      <trkpt lat="40.9792300" lon="-8.5301000">
        <ele>208.9</ele>
        <time>2015-03-23T12:26:13Z</time>
      </trkpt>
      <trkpt lat="40.9795100" lon="-8.5304460">
        <ele>211.9</ele>
        <time>2015-03-23T12:26:32Z</time>
      </trkpt>
      <trkpt lat="40.9797820" lon="-8.5307610">
        <ele>214.5</ele>
        <time>2015-03-23T12:26:50Z</time>
      </trkpt>
      <trkpt lat="40.9799950" lon="-8.5310590">
        <ele>216.3</ele>
        <time>2015-03-23T12:27:06Z</time>
      </trkpt>
      <trkpt lat="40.9802330" lon="-8.5312860">
        <ele>218.7</ele>
        <time>2015-03-23T12:27:22Z</time>
      </trkpt>
      <trkpt lat="40.9804280" lon="-8.5314790">
        <ele>220.1</ele>
        <time>2015-03-23T12:27:37Z</time>
      </trkpt>
      <trkpt lat="40.9806470" lon="-8.5317120">
        <ele>221.4</ele>
        <time>2015-03-23T12:27:54Z</time>
      </trkpt>
      <trkpt lat="40.9808590" lon="-8.5319410">
        <ele>222.6</ele>
        <time>2015-03-23T12:28:11Z</time>
      </trkpt>
      <trkpt lat="40.9810930" lon="-8.5321350">
        <ele>223.9</ele>
        <time>2015-03-23T12:28:28Z</time>
      </trkpt>
      <trkpt lat="40.9813450" lon="-8.5323180">
        <ele>225.2</ele>
        <time>2015-03-23T12:28:45Z</time>
      </trkpt>
      <trkpt lat="40.9815800" lon="-8.5325500">
        <ele>226.6</ele>
        <time>2015-03-23T12:29:02Z</time>
      </trkpt>
      <trkpt lat="40.9818650" lon="-8.5328410">
        <ele>227.7</ele>
        <time>2015-03-23T12:29:23Z</time>
      </trkpt>
      <trkpt lat="40.9820820" lon="-8.5330570">
        <ele>228.2</ele>
        <time>2015-03-23T12:29:37Z</time>
      </trkpt>
      <trkpt lat="40.9822990" lon="-8.5332850">
        <ele>228.6</ele>
        <time>2015-03-23T12:29:50Z</time>
      </trkpt>
      <trkpt lat="40.9826050" lon="-8.5335780">
        <ele>229.2</ele>
        <time>2015-03-23T12:30:09Z</time>
      </trkpt>
      <trkpt lat="40.9826830" lon="-8.5336770">
        <ele>229.2</ele>
        <time>2015-03-23T12:30:27Z</time>
      </trkpt>
      <trkpt lat="40.9829600" lon="-8.5339410">
        <ele>229.6</ele>
        <time>2015-03-23T12:30:41Z</time>
      </trkpt>
      <trkpt lat="40.9833690" lon="-8.5342180">
        <ele>229.4</ele>
        <time>2015-03-23T12:30:56Z</time>
      </trkpt>
      <trkpt lat="40.9840030" lon="-8.5346200">
        <ele>227.3</ele>
        <time>2015-03-23T12:31:13Z</time>
      </trkpt>
      <trkpt lat="40.9842020" lon="-8.5347620">
        <ele>226.2</ele>
        <time>2015-03-23T12:31:18Z</time>
      </trkpt>
      <trkpt lat="40.9847430" lon="-8.5348780">
        <ele>225.4</ele>
        <time>2015-03-23T12:31:32Z</time>
      </trkpt>
      <trkpt lat="40.9853510" lon="-8.5351750">
        <ele>224.5</ele>
        <time>2015-03-23T12:31:46Z</time>
      </trkpt>
      <trkpt lat="40.9861470" lon="-8.5354830">
        <ele>220.7</ele>
        <time>2015-03-23T12:32:03Z</time>
      </trkpt>
      <trkpt lat="40.9869080" lon="-8.5357190">
        <ele>219.8</ele>
        <time>2015-03-23T12:32:17Z</time>
      </trkpt>
      <trkpt lat="40.9876830" lon="-8.5359740">
        <ele>220.3</ele>
        <time>2015-03-23T12:32:33Z</time>
      </trkpt>
      <trkpt lat="40.9880030" lon="-8.5360760">
        <ele>220.7</ele>
        <time>2015-03-23T12:32:45Z</time>
      </trkpt>
      <trkpt lat="40.9885300" lon="-8.5362240">
        <ele>221.4</ele>
        <time>2015-03-23T12:33:00Z</time>
      </trkpt>
      <trkpt lat="40.9889800" lon="-8.5363480">
        <ele>221.8</ele>
        <time>2015-03-23T12:33:12Z</time>
      </trkpt>
      <trkpt lat="40.9894980" lon="-8.5365590">
        <ele>222.2</ele>
        <time>2015-03-23T12:33:26Z</time>
      </trkpt>
      <trkpt lat="40.9900800" lon="-8.5368250">
        <ele>223.3</ele>
        <time>2015-03-23T12:33:43Z</time>
      </trkpt>
      <trkpt lat="40.9906800" lon="-8.5371430">
        <ele>224.2</ele>
        <time>2015-03-23T12:34:01Z</time>
      </trkpt>
      <trkpt lat="40.9912240" lon="-8.5373580">
        <ele>225.0</ele>
        <time>2015-03-23T12:34:17Z</time>
      </trkpt>
      <trkpt lat="40.9917640" lon="-8.5375850">
        <ele>227.2</ele>
        <time>2015-03-23T12:34:33Z</time>
      </trkpt>
      <trkpt lat="40.9923190" lon="-8.5377850">
        <ele>230.2</ele>
        <time>2015-03-23T12:34:49Z</time>
      </trkpt>
      <trkpt lat="40.9929830" lon="-8.5380370">
        <ele>231.6</ele>
        <time>2015-03-23T12:35:08Z</time>
      </trkpt>
      <trkpt lat="40.9934840" lon="-8.5382850">
        <ele>231.7</ele>
        <time>2015-03-23T12:35:23Z</time>
      </trkpt>
      <trkpt lat="40.9940770" lon="-8.5386020">
        <ele>231.6</ele>
        <time>2015-03-23T12:35:39Z</time>
      </trkpt>
      <trkpt lat="40.9946430" lon="-8.5389030">
        <ele>231.6</ele>
        <time>2015-03-23T12:35:55Z</time>
      </trkpt>
      <trkpt lat="40.9950620" lon="-8.5391530">
        <ele>231.6</ele>
        <time>2015-03-23T12:36:09Z</time>
      </trkpt>
      <trkpt lat="40.9951440" lon="-8.5392480">
        <ele>231.6</ele>
        <time>2015-03-23T12:36:14Z</time>
      </trkpt>
      <trkpt lat="40.9951900" lon="-8.5393790">
        <ele>231.5</ele>
        <time>2015-03-23T12:36:20Z</time>
      </trkpt>
      <trkpt lat="40.9952690" lon="-8.5395290">
        <ele>231.3</ele>
        <time>2015-03-23T12:36:25Z</time>
      </trkpt>
      <trkpt lat="40.9956900" lon="-8.5397070">
        <ele>230.7</ele>
        <time>2015-03-23T12:36:39Z</time>
      </trkpt>
      <trkpt lat="40.9961370" lon="-8.5398340">
        <ele>231.3</ele>
        <time>2015-03-23T12:36:53Z</time>
      </trkpt>
      <trkpt lat="40.9965770" lon="-8.5399390">
        <ele>232.0</ele>
        <time>2015-03-23T12:37:07Z</time>
      </trkpt>
      <trkpt lat="40.9970860" lon="-8.5401220">
        <ele>233.9</ele>
        <time>2015-03-23T12:37:23Z</time>
      </trkpt>
      <trkpt lat="40.9974530" lon="-8.5402890">
        <ele>234.8</ele>
        <time>2015-03-23T12:37:36Z</time>
      </trkpt>
      <trkpt lat="40.9977650" lon="-8.5404720">
        <ele>235.9</ele>
        <time>2015-03-23T12:37:49Z</time>
      </trkpt>
      <trkpt lat="40.9981810" lon="-8.5406900">
        <ele>237.7</ele>
        <time>2015-03-23T12:38:04Z</time>
      </trkpt>
      <trkpt lat="40.9986540" lon="-8.5409280">
        <ele>238.1</ele>
        <time>2015-03-23T12:38:21Z</time>
      </trkpt>
      <trkpt lat="40.9992030" lon="-8.5412340">
        <ele>239.2</ele>
        <time>2015-03-23T12:38:38Z</time>
      </trkpt>
      <trkpt lat="40.9997260" lon="-8.5415300">
        <ele>240.4</ele>
        <time>2015-03-23T12:38:54Z</time>
      </trkpt>
      <trkpt lat="41.0002010" lon="-8.5417800">
        <ele>240.4</ele>
        <time>2015-03-23T12:39:09Z</time>
      </trkpt>
      <trkpt lat="41.0006220" lon="-8.5420150">
        <ele>240.5</ele>
        <time>2015-03-23T12:39:23Z</time>
      </trkpt>
      <trkpt lat="41.0011190" lon="-8.5422790">
        <ele>240.6</ele>
        <time>2015-03-23T12:39:38Z</time>
      </trkpt>
      <trkpt lat="41.0015750" lon="-8.5427530">
        <ele>240.7</ele>
        <time>2015-03-23T12:39:54Z</time>
      </trkpt>
      <trkpt lat="41.0019760" lon="-8.5435050">
        <ele>239.7</ele>
        <time>2015-03-23T12:40:11Z</time>
      </trkpt>
      <trkpt lat="41.0020730" lon="-8.5436940">
        <ele>239.3</ele>
        <time>2015-03-23T12:40:15Z</time>
      </trkpt>
      <trkpt lat="41.0025080" lon="-8.5445600">
        <ele>238.5</ele>
        <time>2015-03-23T12:40:33Z</time>
      </trkpt>
      <trkpt lat="41.0028860" lon="-8.5453160">
        <ele>236.8</ele>
        <time>2015-03-23T12:40:49Z</time>
      </trkpt>
      <trkpt lat="41.0031410" lon="-8.5457650">
        <ele>236.0</ele>
        <time>2015-03-23T12:40:59Z</time>
      </trkpt>
      <trkpt lat="41.0031850" lon="-8.5458640">
        <ele>235.8</ele>
        <time>2015-03-23T12:41:01Z</time>
      </trkpt>
      <trkpt lat="41.0034820" lon="-8.5464120">
        <ele>234.2</ele>
        <time>2015-03-23T12:41:13Z</time>
      </trkpt>
      <trkpt lat="41.0035340" lon="-8.5465070">
        <ele>233.8</ele>
        <time>2015-03-23T12:41:15Z</time>
      </trkpt>
      <trkpt lat="41.0040550" lon="-8.5473400">
        <ele>231.5</ele>
        <time>2015-03-23T12:41:33Z</time>
      </trkpt>
      <trkpt lat="41.0042660" lon="-8.5476550">
        <ele>230.8</ele>
        <time>2015-03-23T12:41:40Z</time>
      </trkpt>
      <trkpt lat="41.0048460" lon="-8.5485010">
        <ele>227.7</ele>
        <time>2015-03-23T12:41:56Z</time>
      </trkpt>
      <trkpt lat="41.0053380" lon="-8.5492680">
        <ele>224.9</ele>
        <time>2015-03-23T12:42:07Z</time>
      </trkpt>
      <trkpt lat="41.0059990" lon="-8.5502170">
        <ele>222.0</ele>
        <time>2015-03-23T12:42:22Z</time>
      </trkpt>
      <trkpt lat="41.0066800" lon="-8.5510030">
        <ele>219.7</ele>
        <time>2015-03-23T12:42:37Z</time>
      </trkpt>
      <trkpt lat="41.0071490" lon="-8.5517000">
        <ele>218.7</ele>
        <time>2015-03-23T12:42:51Z</time>
      </trkpt>
      <trkpt lat="41.0073450" lon="-8.5520640">
        <ele>218.2</ele>
        <time>2015-03-23T12:42:59Z</time>
      </trkpt>
      <trkpt lat="41.0074620" lon="-8.5522450">
        <ele>218.1</ele>
        <time>2015-03-23T12:43:03Z</time>
      </trkpt>
      <trkpt lat="41.0078330" lon="-8.5528560">
        <ele>217.5</ele>
        <time>2015-03-23T12:43:18Z</time>
      </trkpt>
      <trkpt lat="41.0076950" lon="-8.5530190">
        <ele>216.7</ele>
        <time>2015-03-23T12:43:33Z</time>
      </trkpt>
      <trkpt lat="41.0076540" lon="-8.5530770">
        <ele>216.4</ele>
        <time>2015-03-23T12:43:35Z</time>
      </trkpt>
      <trkpt lat="41.0073950" lon="-8.5534980">
        <ele>214.0</ele>
        <time>2015-03-23T12:43:47Z</time>
      </trkpt>
      <trkpt lat="41.0073210" lon="-8.5536720">
        <ele>212.8</ele>
        <time>2015-03-23T12:44:21Z</time>
      </trkpt>
      <trkpt lat="41.0072470" lon="-8.5537650">
        <ele>212.2</ele>
        <time>2015-03-23T12:44:23Z</time>
      </trkpt>
      <trkpt lat="41.0071340" lon="-8.5539660">
        <ele>210.5</ele>
        <time>2015-03-23T12:44:26Z</time>
      </trkpt>
      <trkpt lat="41.0071140" lon="-8.5541500">
        <ele>209.0</ele>
        <time>2015-03-23T12:44:29Z</time>
      </trkpt>
      <trkpt lat="41.0071530" lon="-8.5542390">
        <ele>208.9</ele>
        <time>2015-03-23T12:44:31Z</time>
      </trkpt>
      <trkpt lat="41.0072630" lon="-8.5545320">
        <ele>208.5</ele>
        <time>2015-03-23T12:44:39Z</time>
      </trkpt>
      <trkpt lat="41.0073450" lon="-8.5549780">
        <ele>207.4</ele>
        <time>2015-03-23T12:44:46Z</time>
      </trkpt>
      <trkpt lat="41.0074290" lon="-8.5552090">
        <ele>206.6</ele>
        <time>2015-03-23T12:44:49Z</time>
      </trkpt>
      <trkpt lat="41.0075870" lon="-8.5556270">
        <ele>205.5</ele>
        <time>2015-03-23T12:44:54Z</time>
      </trkpt>
      <trkpt lat="41.0076270" lon="-8.5558060">
        <ele>204.9</ele>
        <time>2015-03-23T12:44:56Z</time>
      </trkpt>
      <trkpt lat="41.0076610" lon="-8.5561970">
        <ele>203.5</ele>
        <time>2015-03-23T12:45:00Z</time>
      </trkpt>
      <trkpt lat="41.0077270" lon="-8.5565560">
        <ele>202.4</ele>
        <time>2015-03-23T12:45:04Z</time>
      </trkpt>
      <trkpt lat="41.0081950" lon="-8.5577230">
        <ele>200.4</ele>
        <time>2015-03-23T12:45:20Z</time>
      </trkpt>
      <trkpt lat="41.0084670" lon="-8.5584120">
        <ele>200.5</ele>
        <time>2015-03-23T12:45:34Z</time>
      </trkpt>
      <trkpt lat="41.0084710" lon="-8.5587940">
        <ele>200.4</ele>
        <time>2015-03-23T12:45:42Z</time>
      </trkpt>
      <trkpt lat="41.0083900" lon="-8.5589260">
        <ele>200.2</ele>
        <time>2015-03-23T12:45:45Z</time>
      </trkpt>
      <trkpt lat="41.0080970" lon="-8.5592810">
        <ele>200.3</ele>
        <time>2015-03-23T12:45:55Z</time>
      </trkpt>
      <trkpt lat="41.0077890" lon="-8.5593870">
        <ele>199.1</ele>
        <time>2015-03-23T12:46:01Z</time>
      </trkpt>
      <trkpt lat="41.0074290" lon="-8.5596860">
        <ele>195.7</ele>
        <time>2015-03-23T12:46:07Z</time>
      </trkpt>
      <trkpt lat="41.0068060" lon="-8.5600130">
        <ele>191.2</ele>
        <time>2015-03-23T12:46:18Z</time>
      </trkpt>
      <trkpt lat="41.0067200" lon="-8.5600810">
        <ele>191.0</ele>
        <time>2015-03-23T12:46:22Z</time>
      </trkpt>
      <trkpt lat="41.0068130" lon="-8.5604230">
        <ele>194.5</ele>
        <time>2015-03-23T13:02:07Z</time>
      </trkpt>
      <trkpt lat="41.0068960" lon="-8.5607570">
        <ele>197.7</ele>
        <time>2015-03-23T13:02:24Z</time>
      </trkpt>
      <trkpt lat="41.0070000" lon="-8.5610600">
        <ele>201.3</ele>
        <time>2015-03-23T13:02:42Z</time>
      </trkpt>
      <trkpt lat="41.0070430" lon="-8.5612740">
        <ele>203.7</ele>
        <time>2015-03-23T13:03:07Z</time>
      </trkpt>
      <trkpt lat="41.0070470" lon="-8.5615700">
        <ele>206.3</ele>
        <time>2015-03-23T13:03:22Z</time>
      </trkpt>
      <trkpt lat="41.0070140" lon="-8.5618590">
        <ele>207.8</ele>
        <time>2015-03-23T13:03:37Z</time>
      </trkpt>
      <trkpt lat="41.0069320" lon="-8.5622370">
        <ele>209.5</ele>
        <time>2015-03-23T13:03:58Z</time>
      </trkpt>
      <trkpt lat="41.0067910" lon="-8.5625450">
        <ele>210.2</ele>
        <time>2015-03-23T13:04:16Z</time>
      </trkpt>
      <trkpt lat="41.0067080" lon="-8.5627980">
        <ele>210.6</ele>
        <time>2015-03-23T13:04:31Z</time>
      </trkpt>
      <trkpt lat="41.0066800" lon="-8.5630860">
        <ele>210.7</ele>
        <time>2015-03-23T13:04:47Z</time>
      </trkpt>
      <trkpt lat="41.0067620" lon="-8.5635260">
        <ele>209.4</ele>
        <time>2015-03-23T13:05:01Z</time>
      </trkpt>
      <trkpt lat="41.0068930" lon="-8.5640720">
        <ele>206.9</ele>
        <time>2015-03-23T13:05:11Z</time>
      </trkpt>
      <trkpt lat="41.0069360" lon="-8.5642450">
        <ele>205.9</ele>
        <time>2015-03-23T13:05:14Z</time>
      </trkpt>
      <trkpt lat="41.0069480" lon="-8.5645860">
        <ele>203.8</ele>
        <time>2015-03-23T13:05:18Z</time>
      </trkpt>
      <trkpt lat="41.0069510" lon="-8.5649690">
        <ele>200.9</ele>
        <time>2015-03-23T13:05:22Z</time>
      </trkpt>
      <trkpt lat="41.0069580" lon="-8.5653170">
        <ele>198.4</ele>
        <time>2015-03-23T13:05:27Z</time>
      </trkpt>
      <trkpt lat="41.0069650" lon="-8.5654620">
        <ele>197.1</ele>
        <time>2015-03-23T13:05:30Z</time>
      </trkpt>
      <trkpt lat="41.0069670" lon="-8.5655790">
        <ele>196.0</ele>
        <time>2015-03-23T13:05:41Z</time>
      </trkpt>
      <trkpt lat="41.0070720" lon="-8.5656560">
        <ele>195.1</ele>
        <time>2015-03-23T13:06:02Z</time>
      </trkpt>
      <trkpt lat="41.0074090" lon="-8.5658060">
        <ele>194.1</ele>
        <time>2015-03-23T13:06:22Z</time>
      </trkpt>
      <trkpt lat="41.0077010" lon="-8.5660850">
        <ele>190.6</ele>
        <time>2015-03-23T13:06:33Z</time>
      </trkpt>
      <trkpt lat="41.0078010" lon="-8.5662500">
        <ele>189.1</ele>
        <time>2015-03-23T13:06:36Z</time>
      </trkpt>
      <trkpt lat="41.0078890" lon="-8.5663300">
        <ele>188.2</ele>
        <time>2015-03-23T13:06:38Z</time>
      </trkpt>
      <trkpt lat="41.0082480" lon="-8.5665910">
        <ele>184.4</ele>
        <time>2015-03-23T13:06:45Z</time>
      </trkpt>
      <trkpt lat="41.0084040" lon="-8.5668370">
        <ele>181.5</ele>
        <time>2015-03-23T13:06:49Z</time>
      </trkpt>
      <trkpt lat="41.0084910" lon="-8.5670700">
        <ele>178.7</ele>
        <time>2015-03-23T13:06:52Z</time>
      </trkpt>
      <trkpt lat="41.0085790" lon="-8.5673030">
        <ele>175.0</ele>
        <time>2015-03-23T13:06:57Z</time>
      </trkpt>
      <trkpt lat="41.0086560" lon="-8.5672930">
        <ele>174.0</ele>
        <time>2015-03-23T13:06:59Z</time>
      </trkpt>
      <trkpt lat="41.0087460" lon="-8.5672630">
        <ele>172.6</ele>
        <time>2015-03-23T13:07:01Z</time>
      </trkpt>
      <trkpt lat="41.0090060" lon="-8.5672680">
        <ele>170.1</ele>
        <time>2015-03-23T13:07:06Z</time>
      </trkpt>
      <trkpt lat="41.0096860" lon="-8.5673870">
        <ele>165.7</ele>
        <time>2015-03-23T13:07:17Z</time>
      </trkpt>
      <trkpt lat="41.0102160" lon="-8.5674930">
        <ele>161.5</ele>
        <time>2015-03-23T13:07:25Z</time>
      </trkpt>
      <trkpt lat="41.0105530" lon="-8.5675660">
        <ele>158.2</ele>
        <time>2015-03-23T13:07:30Z</time>
      </trkpt>
      <trkpt lat="41.0109800" lon="-8.5675870">
        <ele>154.5</ele>
        <time>2015-03-23T13:07:35Z</time>
      </trkpt>
      <trkpt lat="41.0112660" lon="-8.5675740">
        <ele>151.1</ele>
        <time>2015-03-23T13:07:38Z</time>
      </trkpt>
      <trkpt lat="41.0114590" lon="-8.5675450">
        <ele>149.1</ele>
        <time>2015-03-23T13:07:40Z</time>
      </trkpt>
      <trkpt lat="41.0120230" lon="-8.5674570">
        <ele>149.8</ele>
        <time>2015-03-23T13:07:47Z</time>
      </trkpt>
      <trkpt lat="41.0120760" lon="-8.5675220">
        <ele>149.7</ele>
        <time>2015-03-23T13:07:48Z</time>
      </trkpt>
      <trkpt lat="41.0122370" lon="-8.5677460">
        <ele>149.6</ele>
        <time>2015-03-23T13:07:52Z</time>
      </trkpt>
      <trkpt lat="41.0123930" lon="-8.5678250">
        <ele>149.0</ele>
        <time>2015-03-23T13:07:56Z</time>
      </trkpt>
      <trkpt lat="41.0124770" lon="-8.5678260">
        <ele>148.8</ele>
        <time>2015-03-23T13:07:59Z</time>
      </trkpt>
      <trkpt lat="41.0129240" lon="-8.5678500">
        <ele>149.9</ele>
        <time>2015-03-23T13:08:16Z</time>
      </trkpt>
      <trkpt lat="41.0133320" lon="-8.5678820">
        <ele>153.1</ele>
        <time>2015-03-23T13:08:33Z</time>
      </trkpt>
      <trkpt lat="41.0137710" lon="-8.5679280">
        <ele>154.5</ele>
        <time>2015-03-23T13:08:49Z</time>
      </trkpt>
      <trkpt lat="41.0143370" lon="-8.5679720">
        <ele>154.9</ele>
        <time>2015-03-23T13:09:07Z</time>
      </trkpt>
      <trkpt lat="41.0146890" lon="-8.5680340">
        <ele>153.8</ele>
        <time>2015-03-23T13:09:18Z</time>
      </trkpt>
      <trkpt lat="41.0147810" lon="-8.5680200">
        <ele>153.0</ele>
        <time>2015-03-23T13:09:20Z</time>
      </trkpt>
      <trkpt lat="41.0149810" lon="-8.5680250">
        <ele>150.9</ele>
        <time>2015-03-23T13:09:24Z</time>
      </trkpt>
      <trkpt lat="41.0151680" lon="-8.5680530">
        <ele>148.7</ele>
        <time>2015-03-23T13:09:28Z</time>
      </trkpt>
      <trkpt lat="41.0153030" lon="-8.5681810">
        <ele>146.6</ele>
        <time>2015-03-23T13:09:33Z</time>
      </trkpt>
      <trkpt lat="41.0153660" lon="-8.5683590">
        <ele>145.5</ele>
        <time>2015-03-23T13:09:36Z</time>
      </trkpt>
      <trkpt lat="41.0155820" lon="-8.5687550">
        <ele>141.8</ele>
        <time>2015-03-23T13:09:41Z</time>
      </trkpt>
      <trkpt lat="41.0157640" lon="-8.5690120">
        <ele>139.9</ele>
        <time>2015-03-23T13:09:44Z</time>
      </trkpt>
      <trkpt lat="41.0163900" lon="-8.5696210">
        <ele>137.1</ele>
        <time>2015-03-23T13:09:54Z</time>
      </trkpt>
      <trkpt lat="41.0165430" lon="-8.5699080">
        <ele>136.6</ele>
        <time>2015-03-23T13:09:59Z</time>
      </trkpt>
      <trkpt lat="41.0168780" lon="-8.5705190">
        <ele>134.9</ele>
        <time>2015-03-23T13:10:14Z</time>
      </trkpt>
      <trkpt lat="41.0171180" lon="-8.5708810">
        <ele>136.1</ele>
        <time>2015-03-23T13:10:27Z</time>
      </trkpt>
      <trkpt lat="41.0174620" lon="-8.5712220">
        <ele>136.2</ele>
        <time>2015-03-23T13:10:41Z</time>
      </trkpt>
      <trkpt lat="41.0178330" lon="-8.5716600">
        <ele>136.3</ele>
        <time>2015-03-23T13:10:56Z</time>
      </trkpt>
      <trkpt lat="41.0181370" lon="-8.5721470">
        <ele>137.0</ele>
        <time>2015-03-23T13:11:11Z</time>
      </trkpt>
      <trkpt lat="41.0184080" lon="-8.5725890">
        <ele>138.0</ele>
        <time>2015-03-23T13:11:25Z</time>
      </trkpt>
      <trkpt lat="41.0185190" lon="-8.5730620">
        <ele>137.8</ele>
        <time>2015-03-23T13:11:38Z</time>
      </trkpt>
      <trkpt lat="41.0185530" lon="-8.5734140">
        <ele>136.3</ele>
        <time>2015-03-23T13:11:46Z</time>
      </trkpt>
      <trkpt lat="41.0186070" lon="-8.5736350">
        <ele>135.9</ele>
        <time>2015-03-23T13:11:50Z</time>
      </trkpt>
      <trkpt lat="41.0189050" lon="-8.5741240">
        <ele>135.9</ele>
        <time>2015-03-23T13:12:03Z</time>
      </trkpt>
      <trkpt lat="41.0192190" lon="-8.5746390">
        <ele>136.2</ele>
        <time>2015-03-23T13:12:20Z</time>
      </trkpt>
      <trkpt lat="41.0192350" lon="-8.5747160">
        <ele>136.1</ele>
        <time>2015-03-23T13:12:22Z</time>
      </trkpt>
      <trkpt lat="41.0193940" lon="-8.5751820">
        <ele>135.8</ele>
        <time>2015-03-23T13:12:34Z</time>
      </trkpt>
      <trkpt lat="41.0197820" lon="-8.5755610">
        <ele>135.4</ele>
        <time>2015-03-23T13:12:48Z</time>
      </trkpt>
      <trkpt lat="41.0202300" lon="-8.5760090">
        <ele>134.9</ele>
        <time>2015-03-23T13:13:04Z</time>
      </trkpt>
      <trkpt lat="41.0204810" lon="-8.5764430">
        <ele>133.8</ele>
        <time>2015-03-23T13:13:17Z</time>
      </trkpt>
      <trkpt lat="41.0206150" lon="-8.5765880">
        <ele>133.3</ele>
        <time>2015-03-23T13:13:21Z</time>
      </trkpt>
      <trkpt lat="41.0207420" lon="-8.5766710">
        <ele>132.7</ele>
        <time>2015-03-23T13:13:24Z</time>
      </trkpt>
      <trkpt lat="41.0211650" lon="-8.5767360">
        <ele>130.4</ele>
        <time>2015-03-23T13:13:32Z</time>
      </trkpt>
      <trkpt lat="41.0212870" lon="-8.5767540">
        <ele>129.5</ele>
        <time>2015-03-23T13:13:34Z</time>
      </trkpt>
      <trkpt lat="41.0216050" lon="-8.5768940">
        <ele>126.9</ele>
        <time>2015-03-23T13:13:39Z</time>
      </trkpt>
      <trkpt lat="41.0218040" lon="-8.5769840">
        <ele>125.3</ele>
        <time>2015-03-23T13:13:42Z</time>
      </trkpt>
      <trkpt lat="41.0222050" lon="-8.5770310">
        <ele>123.1</ele>
        <time>2015-03-23T13:13:47Z</time>
      </trkpt>
      <trkpt lat="41.0225950" lon="-8.5770400">
        <ele>121.3</ele>
        <time>2015-03-23T13:13:51Z</time>
      </trkpt>
      <trkpt lat="41.0229110" lon="-8.5770400">
        <ele>120.1</ele>
        <time>2015-03-23T13:13:54Z</time>
      </trkpt>
      <trkpt lat="41.0230180" lon="-8.5770460">
        <ele>118.5</ele>
        <time>2015-03-23T13:13:55Z</time>
      </trkpt>
      <trkpt lat="41.0233350" lon="-8.5770730">
        <ele>114.9</ele>
        <time>2015-03-23T13:13:58Z</time>
      </trkpt>
      <trkpt lat="41.0236010" lon="-8.5770440">
        <ele>113.5</ele>
        <time>2015-03-23T13:14:01Z</time>
      </trkpt>
      <trkpt lat="41.0239470" lon="-8.5770340">
        <ele>114.2</ele>
        <time>2015-03-23T13:14:06Z</time>
      </trkpt>
      <trkpt lat="41.0241890" lon="-8.5770460">
        <ele>115.1</ele>
        <time>2015-03-23T13:14:12Z</time>
      </trkpt>
      <trkpt lat="41.0247190" lon="-8.5770480">
        <ele>117.1</ele>
        <time>2015-03-23T13:14:31Z</time>
      </trkpt>
      <trkpt lat="41.0250660" lon="-8.5771360">
        <ele>118.5</ele>
        <time>2015-03-23T13:14:46Z</time>
      </trkpt>
      <trkpt lat="41.0254160" lon="-8.5774920">
        <ele>119.8</ele>
        <time>2015-03-23T13:15:05Z</time>
      </trkpt>
      <trkpt lat="41.0257880" lon="-8.5776890">
        <ele>121.5</ele>
        <time>2015-03-23T13:15:23Z</time>
      </trkpt>
      <trkpt lat="41.0260960" lon="-8.5776550">
        <ele>122.6</ele>
        <time>2015-03-23T13:15:38Z</time>
      </trkpt>
      <trkpt lat="41.0262970" lon="-8.5779580">
        <ele>122.7</ele>
        <time>2015-03-23T13:15:51Z</time>
      </trkpt>
      <trkpt lat="41.0262900" lon="-8.5783670">
        <ele>122.2</ele>
        <time>2015-03-23T13:16:03Z</time>
      </trkpt>
      <trkpt lat="41.0261970" lon="-8.5788150">
        <ele>121.8</ele>
        <time>2015-03-23T13:16:14Z</time>
      </trkpt>
      <trkpt lat="41.0261000" lon="-8.5794490">
        <ele>121.2</ele>
        <time>2015-03-23T13:16:29Z</time>
      </trkpt>
      <trkpt lat="41.0261370" lon="-8.5801390">
        <ele>120.5</ele>
        <time>2015-03-23T13:16:44Z</time>
      </trkpt>
      <trkpt lat="41.0262690" lon="-8.5807410">
        <ele>119.9</ele>
        <time>2015-03-23T13:16:59Z</time>
      </trkpt>
      <trkpt lat="41.0263220" lon="-8.5808770">
        <ele>119.8</ele>
        <time>2015-03-23T13:18:27Z</time>
      </trkpt>
      <trkpt lat="41.0264710" lon="-8.5811240">
        <ele>119.6</ele>
        <time>2015-03-23T13:18:39Z</time>
      </trkpt>
      <trkpt lat="41.0266620" lon="-8.5812410">
        <ele>119.9</ele>
        <time>2015-03-23T13:18:48Z</time>
      </trkpt>
      <trkpt lat="41.0270090" lon="-8.5813600">
        <ele>121.3</ele>
        <time>2015-03-23T13:19:04Z</time>
      </trkpt>
      <trkpt lat="41.0274050" lon="-8.5814370">
        <ele>122.7</ele>
        <time>2015-03-23T13:19:22Z</time>
      </trkpt>
      <trkpt lat="41.0278310" lon="-8.5815020">
        <ele>123.7</ele>
        <time>2015-03-23T13:19:41Z</time>
      </trkpt>
      <trkpt lat="41.0282220" lon="-8.5815760">
        <ele>124.1</ele>
        <time>2015-03-23T13:19:58Z</time>
      </trkpt>
      <trkpt lat="41.0284650" lon="-8.5816000">
        <ele>124.2</ele>
        <time>2015-03-23T13:20:08Z</time>
      </trkpt>
      <trkpt lat="41.0286790" lon="-8.5816530">
        <ele>124.2</ele>
        <time>2015-03-23T13:20:18Z</time>
      </trkpt>
      <trkpt lat="41.0287210" lon="-8.5817270">
        <ele>124.2</ele>
        <time>2015-03-23T13:20:22Z</time>
      </trkpt>
      <trkpt lat="41.0287220" lon="-8.5820840">
        <ele>124.2</ele>
        <time>2015-03-23T13:21:07Z</time>
      </trkpt>
      <trkpt lat="41.0287140" lon="-8.5828350">
        <ele>124.2</ele>
        <time>2015-03-23T13:21:24Z</time>
      </trkpt>
      <trkpt lat="41.0287240" lon="-8.5837480">
        <ele>124.2</ele>
        <time>2015-03-23T13:21:44Z</time>
      </trkpt>
      <trkpt lat="41.0287240" lon="-8.5846630">
        <ele>124.2</ele>
        <time>2015-03-23T13:22:04Z</time>
      </trkpt>
      <trkpt lat="41.0287170" lon="-8.5856870">
        <ele>124.2</ele>
        <time>2015-03-23T13:22:26Z</time>
      </trkpt>
      <trkpt lat="41.0287150" lon="-8.5864460">
        <ele>124.2</ele>
        <time>2015-03-23T13:22:40Z</time>
      </trkpt>
      <trkpt lat="41.0287290" lon="-8.5872120">
        <ele>124.2</ele>
        <time>2015-03-23T13:22:54Z</time>
      </trkpt>
      <trkpt lat="41.0287220" lon="-8.5883600">
        <ele>123.2</ele>
        <time>2015-03-23T13:23:15Z</time>
      </trkpt>
      <trkpt lat="41.0287560" lon="-8.5891600">
        <ele>122.8</ele>
        <time>2015-03-23T13:23:32Z</time>
      </trkpt>
      <trkpt lat="41.0289780" lon="-8.5893040">
        <ele>123.3</ele>
        <time>2015-03-23T13:23:41Z</time>
      </trkpt>
      <trkpt lat="41.0294120" lon="-8.5892480">
        <ele>123.3</ele>
        <time>2015-03-23T13:23:54Z</time>
      </trkpt>
      <trkpt lat="41.0295420" lon="-8.5892330">
        <ele>123.4</ele>
        <time>2015-03-23T13:23:57Z</time>
      </trkpt>
      <trkpt lat="41.0301090" lon="-8.5891320">
        <ele>123.6</ele>
        <time>2015-03-23T13:24:09Z</time>
      </trkpt>
      <trkpt lat="41.0302150" lon="-8.5891120">
        <ele>123.4</ele>
        <time>2015-03-23T13:24:11Z</time>
      </trkpt>
      <trkpt lat="41.0309750" lon="-8.5890750">
        <ele>118.9</ele>
        <time>2015-03-23T13:24:24Z</time>
      </trkpt>
      <trkpt lat="41.0314070" lon="-8.5890160">
        <ele>116.9</ele>
        <time>2015-03-23T13:24:32Z</time>
      </trkpt>
      <trkpt lat="41.0317720" lon="-8.5889060">
        <ele>115.4</ele>
        <time>2015-03-23T13:24:41Z</time>
      </trkpt>
      <trkpt lat="41.0318530" lon="-8.5888800">
        <ele>115.1</ele>
        <time>2015-03-23T13:24:43Z</time>
      </trkpt>
      <trkpt lat="41.0324660" lon="-8.5886580">
        <ele>112.3</ele>
        <time>2015-03-23T13:24:56Z</time>
      </trkpt>
      <trkpt lat="41.0325130" lon="-8.5886300">
        <ele>112.0</ele>
        <time>2015-03-23T13:24:57Z</time>
      </trkpt>
      <trkpt lat="41.0326540" lon="-8.5885310">
        <ele>111.2</ele>
        <time>2015-03-23T13:25:00Z</time>
      </trkpt>
      <trkpt lat="41.0331910" lon="-8.5880110">
        <ele>108.4</ele>
        <time>2015-03-23T13:25:10Z</time>
      </trkpt>
      <trkpt lat="41.0334660" lon="-8.5879010">
        <ele>107.2</ele>
        <time>2015-03-23T13:25:14Z</time>
      </trkpt>
      <trkpt lat="41.0336820" lon="-8.5879190">
        <ele>106.6</ele>
        <time>2015-03-23T13:25:17Z</time>
      </trkpt>
      <trkpt lat="41.0341260" lon="-8.5879390">
        <ele>108.5</ele>
        <time>2015-03-23T13:25:27Z</time>
      </trkpt>
      <trkpt lat="41.0345410" lon="-8.5878950">
        <ele>110.9</ele>
        <time>2015-03-23T13:25:43Z</time>
      </trkpt>
      <trkpt lat="41.0348260" lon="-8.5876460">
        <ele>111.3</ele>
        <time>2015-03-23T13:25:58Z</time>
      </trkpt>
      <trkpt lat="41.0350750" lon="-8.5872890">
        <ele>112.5</ele>
        <time>2015-03-23T13:26:14Z</time>
      </trkpt>
      <trkpt lat="41.0353590" lon="-8.5868970">
        <ele>114.2</ele>
        <time>2015-03-23T13:26:32Z</time>
      </trkpt>
      <trkpt lat="41.0355900" lon="-8.5865890">
        <ele>115.9</ele>
        <time>2015-03-23T13:26:47Z</time>
      </trkpt>
      <trkpt lat="41.0359000" lon="-8.5865190">
        <ele>116.6</ele>
        <time>2015-03-23T13:27:02Z</time>
      </trkpt>
      <trkpt lat="41.0362290" lon="-8.5865930">
        <ele>115.2</ele>
        <time>2015-03-23T13:27:16Z</time>
      </trkpt>
      <trkpt lat="41.0366030" lon="-8.5866300">
        <ele>114.0</ele>
        <time>2015-03-23T13:27:32Z</time>
      </trkpt>
      <trkpt lat="41.0370460" lon="-8.5865860">
        <ele>111.6</ele>
        <time>2015-03-23T13:27:47Z</time>
      </trkpt>
      <trkpt lat="41.0375780" lon="-8.5864690">
        <ele>112.9</ele>
        <time>2015-03-23T13:28:04Z</time>
      </trkpt>
      <trkpt lat="41.0380720" lon="-8.5862450">
        <ele>111.2</ele>
        <time>2015-03-23T13:28:20Z</time>
      </trkpt>
      <trkpt lat="41.0381260" lon="-8.5862290">
        <ele>111.1</ele>
        <time>2015-03-23T13:28:22Z</time>
      </trkpt>
      <trkpt lat="41.0386090" lon="-8.5863080">
        <ele>110.1</ele>
        <time>2015-03-23T13:28:37Z</time>
      </trkpt>
      <trkpt lat="41.0390340" lon="-8.5864530">
        <ele>108.8</ele>
        <time>2015-03-23T13:28:50Z</time>
      </trkpt>
      <trkpt lat="41.0395690" lon="-8.5865510">
        <ele>104.7</ele>
        <time>2015-03-23T13:29:03Z</time>
      </trkpt>
      <trkpt lat="41.0399450" lon="-8.5866240">
        <ele>103.1</ele>
        <time>2015-03-23T13:29:09Z</time>
      </trkpt>
      <trkpt lat="41.0402910" lon="-8.5866750">
        <ele>100.4</ele>
        <time>2015-03-23T13:29:14Z</time>
      </trkpt>
      <trkpt lat="41.0405040" lon="-8.5868090">
        <ele>98.4</ele>
        <time>2015-03-23T13:29:19Z</time>
      </trkpt>
      <trkpt lat="41.0406170" lon="-8.5866900">
        <ele>97.7</ele>
        <time>2015-03-23T13:29:23Z</time>
      </trkpt>
      <trkpt lat="41.0408700" lon="-8.5860180">
        <ele>101.4</ele>
        <time>2015-03-23T13:29:38Z</time>
      </trkpt>
      <trkpt lat="41.0409930" lon="-8.5860890">
        <ele>102.2</ele>
        <time>2015-03-23T13:29:42Z</time>
      </trkpt>
      <trkpt lat="41.0410930" lon="-8.5862740">
        <ele>101.1</ele>
        <time>2015-03-23T13:29:45Z</time>
      </trkpt>
      <trkpt lat="41.0413870" lon="-8.5865940">
        <ele>97.4</ele>
        <time>2015-03-23T13:29:50Z</time>
      </trkpt>
      <trkpt lat="41.0415980" lon="-8.5869680">
        <ele>96.0</ele>
        <time>2015-03-23T13:29:55Z</time>
      </trkpt>
      <trkpt lat="41.0417380" lon="-8.5874340">
        <ele>98.3</ele>
        <time>2015-03-23T13:30:03Z</time>
      </trkpt>
      <trkpt lat="41.0419960" lon="-8.5880120">
        <ele>101.3</ele>
        <time>2015-03-23T13:30:18Z</time>
      </trkpt>
      <trkpt lat="41.0420410" lon="-8.5880720">
        <ele>101.6</ele>
        <time>2015-03-23T13:30:20Z</time>
      </trkpt>
      <trkpt lat="41.0421730" lon="-8.5880420">
        <ele>102.9</ele>
        <time>2015-03-23T13:30:26Z</time>
      </trkpt>
      <trkpt lat="41.0424940" lon="-8.5878310">
        <ele>104.8</ele>
        <time>2015-03-23T13:30:44Z</time>
      </trkpt>
      <trkpt lat="41.0428150" lon="-8.5877000">
        <ele>105.7</ele>
        <time>2015-03-23T13:31:00Z</time>
      </trkpt>
      <trkpt lat="41.0431340" lon="-8.5877180">
        <ele>106.7</ele>
        <time>2015-03-23T13:31:14Z</time>
      </trkpt>
      <trkpt lat="41.0435330" lon="-8.5879880">
        <ele>109.2</ele>
        <time>2015-03-23T13:31:32Z</time>
      </trkpt>
      <trkpt lat="41.0439210" lon="-8.5882480">
        <ele>110.1</ele>
        <time>2015-03-23T13:31:50Z</time>
      </trkpt>
      <trkpt lat="41.0442160" lon="-8.5884370">
        <ele>111.5</ele>
        <time>2015-03-23T13:32:05Z</time>
      </trkpt>
      <trkpt lat="41.0445270" lon="-8.5886410">
        <ele>113.1</ele>
        <time>2015-03-23T13:32:21Z</time>
      </trkpt>
      <trkpt lat="41.0447970" lon="-8.5887850">
        <ele>114.5</ele>
        <time>2015-03-23T13:32:34Z</time>
      </trkpt>
      <trkpt lat="41.0451110" lon="-8.5889040">
        <ele>117.1</ele>
        <time>2015-03-23T13:32:49Z</time>
      </trkpt>
      <trkpt lat="41.0453570" lon="-8.5890190">
        <ele>118.9</ele>
        <time>2015-03-23T13:33:01Z</time>
      </trkpt>
      <trkpt lat="41.0456250" lon="-8.5892320">
        <ele>119.5</ele>
        <time>2015-03-23T13:33:14Z</time>
      </trkpt>
      <trkpt lat="41.0459300" lon="-8.5894370">
        <ele>120.2</ele>
        <time>2015-03-23T13:33:28Z</time>
      </trkpt>
      <trkpt lat="41.0462550" lon="-8.5896640">
        <ele>120.9</ele>
        <time>2015-03-23T13:33:43Z</time>
      </trkpt>
      <trkpt lat="41.0466680" lon="-8.5899180">
        <ele>121.8</ele>
        <time>2015-03-23T13:33:57Z</time>
      </trkpt>
      <trkpt lat="41.0471350" lon="-8.5899900">
        <ele>121.9</ele>
        <time>2015-03-23T13:34:11Z</time>
      </trkpt>
      <trkpt lat="41.0474930" lon="-8.5900660">
        <ele>122.0</ele>
        <time>2015-03-23T13:34:24Z</time>
      </trkpt>
      <trkpt lat="41.0479090" lon="-8.5900860">
        <ele>122.3</ele>
        <time>2015-03-23T13:34:38Z</time>
      </trkpt>
      <trkpt lat="41.0482440" lon="-8.5901230">
        <ele>122.8</ele>
        <time>2015-03-23T13:34:53Z</time>
      </trkpt>
      <trkpt lat="41.0485930" lon="-8.5901730">
        <ele>123.3</ele>
        <time>2015-03-23T13:35:11Z</time>
      </trkpt>
      <trkpt lat="41.0489420" lon="-8.5902020">
        <ele>125.7</ele>
        <time>2015-03-23T13:35:29Z</time>
      </trkpt>
      <trkpt lat="41.0492900" lon="-8.5902150">
        <ele>127.8</ele>
        <time>2015-03-23T13:35:46Z</time>
      </trkpt>
      <trkpt lat="41.0494190" lon="-8.5902250">
        <ele>128.6</ele>
        <time>2015-03-23T13:36:19Z</time>
      </trkpt>
      <trkpt lat="41.0496380" lon="-8.5902040">
        <ele>130.1</ele>
        <time>2015-03-23T13:36:32Z</time>
      </trkpt>
      <trkpt lat="41.0500300" lon="-8.5902070">
        <ele>132.1</ele>
        <time>2015-03-23T13:36:49Z</time>
      </trkpt>
      <trkpt lat="41.0502850" lon="-8.5901930">
        <ele>132.7</ele>
        <time>2015-03-23T13:37:04Z</time>
      </trkpt>
      <trkpt lat="41.0505840" lon="-8.5899920">
        <ele>133.8</ele>
        <time>2015-03-23T13:37:22Z</time>
      </trkpt>
      <trkpt lat="41.0508410" lon="-8.5898250">
        <ele>133.6</ele>
        <time>2015-03-23T13:37:35Z</time>
      </trkpt>
      <trkpt lat="41.0510080" lon="-8.5897590">
        <ele>133.2</ele>
        <time>2015-03-23T13:37:41Z</time>
      </trkpt>
      <trkpt lat="41.0514200" lon="-8.5897790">
        <ele>131.9</ele>
        <time>2015-03-23T13:37:54Z</time>
      </trkpt>
      <trkpt lat="41.0518870" lon="-8.5897760">
        <ele>130.6</ele>
        <time>2015-03-23T13:38:08Z</time>
      </trkpt>
      <trkpt lat="41.0523380" lon="-8.5897420">
        <ele>130.1</ele>
        <time>2015-03-23T13:38:23Z</time>
      </trkpt>
      <trkpt lat="41.0529870" lon="-8.5898250">
        <ele>130.4</ele>
        <time>2015-03-23T13:38:39Z</time>
      </trkpt>
      <trkpt lat="41.0531730" lon="-8.5898950">
        <ele>128.9</ele>
        <time>2015-03-23T13:38:43Z</time>
      </trkpt>
      <trkpt lat="41.0534250" lon="-8.5898490">
        <ele>127.0</ele>
        <time>2015-03-23T13:38:49Z</time>
      </trkpt>
      <trkpt lat="41.0537250" lon="-8.5896940">
        <ele>125.9</ele>
        <time>2015-03-23T13:38:56Z</time>
      </trkpt>
      <trkpt lat="41.0539220" lon="-8.5896180">
        <ele>125.5</ele>
        <time>2015-03-23T13:39:00Z</time>
      </trkpt>
      <trkpt lat="41.0543190" lon="-8.5894300">
        <ele>123.7</ele>
        <time>2015-03-23T13:39:09Z</time>
      </trkpt>
      <trkpt lat="41.0543890" lon="-8.5893720">
        <ele>123.6</ele>
        <time>2015-03-23T13:39:11Z</time>
      </trkpt>
      <trkpt lat="41.0544650" lon="-8.5892690">
        <ele>123.2</ele>
        <time>2015-03-23T13:39:14Z</time>
      </trkpt>
      <trkpt lat="41.0544980" lon="-8.5891610">
        <ele>123.0</ele>
        <time>2015-03-23T13:39:18Z</time>
      </trkpt>
      <trkpt lat="41.0547580" lon="-8.5887490">
        <ele>120.9</ele>
        <time>2015-03-23T13:39:35Z</time>
      </trkpt>
      <trkpt lat="41.0548760" lon="-8.5885970">
        <ele>120.1</ele>
        <time>2015-03-23T13:39:40Z</time>
      </trkpt>
      <trkpt lat="41.0549790" lon="-8.5885160">
        <ele>119.4</ele>
        <time>2015-03-23T13:39:43Z</time>
      </trkpt>
      <trkpt lat="41.0553370" lon="-8.5884520">
        <ele>122.7</ele>
        <time>2015-03-23T13:39:50Z</time>
      </trkpt>
      <trkpt lat="41.0554630" lon="-8.5884350">
        <ele>123.2</ele>
        <time>2015-03-23T13:39:52Z</time>
      </trkpt>
      <trkpt lat="41.0558360" lon="-8.5883230">
        <ele>120.5</ele>
        <time>2015-03-23T13:39:58Z</time>
      </trkpt>
      <trkpt lat="41.0561180" lon="-8.5885160">
        <ele>115.8</ele>
        <time>2015-03-23T13:40:02Z</time>
      </trkpt>
      <trkpt lat="41.0565310" lon="-8.5888700">
        <ele>109.8</ele>
        <time>2015-03-23T13:40:08Z</time>
      </trkpt>
      <trkpt lat="41.0569790" lon="-8.5889880">
        <ele>106.9</ele>
        <time>2015-03-23T13:40:13Z</time>
      </trkpt>
      <trkpt lat="41.0570650" lon="-8.5889960">
        <ele>106.6</ele>
        <time>2015-03-23T13:40:14Z</time>
      </trkpt>
      <trkpt lat="41.0576310" lon="-8.5889540">
        <ele>106.6</ele>
        <time>2015-03-23T13:40:23Z</time>
      </trkpt>
      <trkpt lat="41.0577590" lon="-8.5889150">
        <ele>106.8</ele>
        <time>2015-03-23T13:40:27Z</time>
      </trkpt>
      <trkpt lat="41.0582140" lon="-8.5887780">
        <ele>108.6</ele>
        <time>2015-03-23T13:40:45Z</time>
      </trkpt>
      <trkpt lat="41.0586180" lon="-8.5886290">
        <ele>110.7</ele>
        <time>2015-03-23T13:41:04Z</time>
      </trkpt>
      <trkpt lat="41.0589620" lon="-8.5884230">
        <ele>112.0</ele>
        <time>2015-03-23T13:41:22Z</time>
      </trkpt>
      <trkpt lat="41.0592700" lon="-8.5881920">
        <ele>114.2</ele>
        <time>2015-03-23T13:41:38Z</time>
      </trkpt>
      <trkpt lat="41.0596420" lon="-8.5879060">
        <ele>116.0</ele>
        <time>2015-03-23T13:41:57Z</time>
      </trkpt>
      <trkpt lat="41.0597940" lon="-8.5877920">
        <ele>117.0</ele>
        <time>2015-03-23T13:42:05Z</time>
      </trkpt>
      <trkpt lat="41.0601290" lon="-8.5875780">
        <ele>120.3</ele>
        <time>2015-03-23T13:42:23Z</time>
      </trkpt>
      <trkpt lat="41.0604320" lon="-8.5874230">
        <ele>122.6</ele>
        <time>2015-03-23T13:42:37Z</time>
      </trkpt>
      <trkpt lat="41.0607300" lon="-8.5872620">
        <ele>123.3</ele>
        <time>2015-03-23T13:42:52Z</time>
      </trkpt>
      <trkpt lat="41.0610330" lon="-8.5871250">
        <ele>124.6</ele>
        <time>2015-03-23T13:43:08Z</time>
      </trkpt>
      <trkpt lat="41.0613980" lon="-8.5869960">
        <ele>126.2</ele>
        <time>2015-03-23T13:43:27Z</time>
      </trkpt>
      <trkpt lat="41.0617120" lon="-8.5870490">
        <ele>127.5</ele>
        <time>2015-03-23T13:43:41Z</time>
      </trkpt>
      <trkpt lat="41.0619070" lon="-8.5870800">
        <ele>127.9</ele>
        <time>2015-03-23T13:44:40Z</time>
      </trkpt>
      <trkpt lat="41.0621880" lon="-8.5872180">
        <ele>129.0</ele>
        <time>2015-03-23T13:44:54Z</time>
      </trkpt>
      <trkpt lat="41.0624870" lon="-8.5873350">
        <ele>129.8</ele>
        <time>2015-03-23T13:45:10Z</time>
      </trkpt>
      <trkpt lat="41.0627070" lon="-8.5873640">
        <ele>130.0</ele>
        <time>2015-03-23T13:45:24Z</time>
      </trkpt>
      <trkpt lat="41.0628710" lon="-8.5873560">
        <ele>130.0</ele>
        <time>2015-03-23T13:45:38Z</time>
      </trkpt>
      <trkpt lat="41.0630260" lon="-8.5872950">
        <ele>130.2</ele>
        <time>2015-03-23T13:46:05Z</time>
      </trkpt>
      <trkpt lat="41.0632300" lon="-8.5872270">
        <ele>130.8</ele>
        <time>2015-03-23T13:46:20Z</time>
      </trkpt>
      <trkpt lat="41.0635320" lon="-8.5871190">
        <ele>132.3</ele>
        <time>2015-03-23T13:46:38Z</time>
      </trkpt>
      <trkpt lat="41.0637370" lon="-8.5870910">
        <ele>133.8</ele>
        <time>2015-03-23T13:46:52Z</time>
      </trkpt>
      <trkpt lat="41.0639420" lon="-8.5870400">
        <ele>134.9</ele>
        <time>2015-03-23T13:47:07Z</time>
      </trkpt>
      <trkpt lat="41.0641250" lon="-8.5870350">
        <ele>136.0</ele>
        <time>2015-03-23T13:51:29Z</time>
      </trkpt>
      <trkpt lat="41.0643320" lon="-8.5869900">
        <ele>136.6</ele>
        <time>2015-03-23T14:03:04Z</time>
      </trkpt>
      <trkpt lat="41.0644040" lon="-8.5869530">
        <ele>136.7</ele>
        <time>2015-03-23T14:03:10Z</time>
      </trkpt>
      <trkpt lat="41.0645840" lon="-8.5867900">
        <ele>138.1</ele>
        <time>2015-03-23T14:03:25Z</time>
      </trkpt>
      <trkpt lat="41.0647130" lon="-8.5865060">
        <ele>140.8</ele>
        <time>2015-03-23T14:03:41Z</time>
      </trkpt>
      <trkpt lat="41.0648240" lon="-8.5861670">
        <ele>143.0</ele>
        <time>2015-03-23T14:03:59Z</time>
      </trkpt>
      <trkpt lat="41.0650470" lon="-8.5858410">
        <ele>144.6</ele>
        <time>2015-03-23T14:04:21Z</time>
      </trkpt>
      <trkpt lat="41.0651580" lon="-8.5858150">
        <ele>145.2</ele>
        <time>2015-03-23T14:04:36Z</time>
      </trkpt>
      <trkpt lat="41.0654020" lon="-8.5859110">
        <ele>146.4</ele>
        <time>2015-03-23T14:05:19Z</time>
      </trkpt>
      <trkpt lat="41.0655920" lon="-8.5860050">
        <ele>146.9</ele>
        <time>2015-03-23T14:05:34Z</time>
      </trkpt>
      <trkpt lat="41.0657690" lon="-8.5859970">
        <ele>147.3</ele>
        <time>2015-03-23T14:05:46Z</time>
      </trkpt>
      <trkpt lat="41.0659930" lon="-8.5859890">
        <ele>147.6</ele>
        <time>2015-03-23T14:06:00Z</time>
      </trkpt>
      <trkpt lat="41.0661640" lon="-8.5859670">
        <ele>147.9</ele>
        <time>2015-03-23T14:06:13Z</time>
      </trkpt>
      <trkpt lat="41.0664220" lon="-8.5859690">
        <ele>148.7</ele>
        <time>2015-03-23T14:06:28Z</time>
      </trkpt>
      <trkpt lat="41.0667100" lon="-8.5859800">
        <ele>149.4</ele>
        <time>2015-03-23T14:06:46Z</time>
      </trkpt>
      <trkpt lat="41.0669610" lon="-8.5859870">
        <ele>151.4</ele>
        <time>2015-03-23T14:07:02Z</time>
      </trkpt>
      <trkpt lat="41.0672340" lon="-8.5860400">
        <ele>156.4</ele>
        <time>2015-03-23T14:07:21Z</time>
      </trkpt>
      <trkpt lat="41.0674200" lon="-8.5859580">
        <ele>161.3</ele>
        <time>2015-03-23T14:07:36Z</time>
      </trkpt>
      <trkpt lat="41.0676350" lon="-8.5858550">
        <ele>166.2</ele>
        <time>2015-03-23T14:07:52Z</time>
      </trkpt>
      <trkpt lat="41.0678550" lon="-8.5857540">
        <ele>169.5</ele>
        <time>2015-03-23T14:08:08Z</time>
      </trkpt>
      <trkpt lat="41.0680320" lon="-8.5857360">
        <ele>170.7</ele>
        <time>2015-03-23T14:08:21Z</time>
      </trkpt>
      <trkpt lat="41.0682230" lon="-8.5857000">
        <ele>172.5</ele>
        <time>2015-03-23T14:08:33Z</time>
      </trkpt>
      <trkpt lat="41.0682640" lon="-8.5856600">
        <ele>173.2</ele>
        <time>2015-03-23T14:09:06Z</time>
      </trkpt>
      <trkpt lat="41.0683420" lon="-8.5856300">
        <ele>174.4</ele>
        <time>2015-03-23T14:09:16Z</time>
      </trkpt>
      <trkpt lat="41.0685190" lon="-8.5855520">
        <ele>176.8</ele>
        <time>2015-03-23T14:09:36Z</time>
      </trkpt>
      <trkpt lat="41.0686490" lon="-8.5854680">
        <ele>178.1</ele>
        <time>2015-03-23T14:09:50Z</time>
      </trkpt>
      <trkpt lat="41.0687910" lon="-8.5853780">
        <ele>179.3</ele>
        <time>2015-03-23T14:10:04Z</time>
      </trkpt>
      <trkpt lat="41.0689450" lon="-8.5852330">
        <ele>181.2</ele>
        <time>2015-03-23T14:10:18Z</time>
      </trkpt>
      <trkpt lat="41.0691010" lon="-8.5851130">
        <ele>183.3</ele>
        <time>2015-03-23T14:10:32Z</time>
      </trkpt>
      <trkpt lat="41.0692760" lon="-8.5850210">
        <ele>186.4</ele>
        <time>2015-03-23T14:10:47Z</time>
      </trkpt>
      <trkpt lat="41.0693550" lon="-8.5849830">
        <ele>187.4</ele>
        <time>2015-03-23T14:11:07Z</time>
      </trkpt>
      <trkpt lat="41.0694180" lon="-8.5850170">
        <ele>188.1</ele>
        <time>2015-03-23T14:11:49Z</time>
      </trkpt>
      <trkpt lat="41.0694690" lon="-8.5850140">
        <ele>188.6</ele>
        <time>2015-03-23T14:12:15Z</time>
      </trkpt>
      <trkpt lat="41.0695840" lon="-8.5850030">
        <ele>190.0</ele>
        <time>2015-03-23T14:12:29Z</time>
      </trkpt>
      <trkpt lat="41.0697280" lon="-8.5849630">
        <ele>191.9</ele>
        <time>2015-03-23T14:12:42Z</time>
      </trkpt>
      <trkpt lat="41.0699020" lon="-8.5849420">
        <ele>194.5</ele>
        <time>2015-03-23T14:12:55Z</time>
      </trkpt>
      <trkpt lat="41.0700570" lon="-8.5849400">
        <ele>196.1</ele>
        <time>2015-03-23T14:13:09Z</time>
      </trkpt>
      <trkpt lat="41.0701670" lon="-8.5849280">
        <ele>197.7</ele>
        <time>2015-03-23T14:13:21Z</time>
      </trkpt>
      <trkpt lat="41.0703060" lon="-8.5849020">
        <ele>199.9</ele>
        <time>2015-03-23T14:13:33Z</time>
      </trkpt>
      <trkpt lat="41.0704410" lon="-8.5848730">
        <ele>201.9</ele>
        <time>2015-03-23T14:13:46Z</time>
      </trkpt>
      <trkpt lat="41.0706210" lon="-8.5848430">
        <ele>204.5</ele>
        <time>2015-03-23T14:14:02Z</time>
      </trkpt>
      <trkpt lat="41.0707810" lon="-8.5848150">
        <ele>206.4</ele>
        <time>2015-03-23T14:14:16Z</time>
      </trkpt>
      <trkpt lat="41.0709900" lon="-8.5847530">
        <ele>209.0</ele>
        <time>2015-03-23T14:14:30Z</time>
      </trkpt>
      <trkpt lat="41.0710450" lon="-8.5847350">
        <ele>209.4</ele>
        <time>2015-03-23T14:14:34Z</time>
      </trkpt>
      <trkpt lat="41.0710960" lon="-8.5847460">
        <ele>209.7</ele>
        <time>2015-03-23T14:14:38Z</time>
      </trkpt>
      <trkpt lat="41.0711530" lon="-8.5847380">
        <ele>210.2</ele>
        <time>2015-03-23T14:14:42Z</time>
      </trkpt>
      <trkpt lat="41.0713250" lon="-8.5846920">
        <ele>212.3</ele>
        <time>2015-03-23T14:14:57Z</time>
      </trkpt>
      <trkpt lat="41.0715000" lon="-8.5846470">
        <ele>214.8</ele>
        <time>2015-03-23T14:15:12Z</time>
      </trkpt>
      <trkpt lat="41.0716630" lon="-8.5846260">
        <ele>216.4</ele>
        <time>2015-03-23T14:15:25Z</time>
      </trkpt>
      <trkpt lat="41.0717580" lon="-8.5845930">
        <ele>217.2</ele>
        <time>2015-03-23T14:15:33Z</time>
      </trkpt>
      <trkpt lat="41.0718740" lon="-8.5845510">
        <ele>218.7</ele>
        <time>2015-03-23T14:15:42Z</time>
      </trkpt>
      <trkpt lat="41.0720630" lon="-8.5845260">
        <ele>220.6</ele>
        <time>2015-03-23T14:15:56Z</time>
      </trkpt>
      <trkpt lat="41.0722170" lon="-8.5845020">
        <ele>221.9</ele>
        <time>2015-03-23T14:16:06Z</time>
      </trkpt>
      <trkpt lat="41.0723750" lon="-8.5845590">
        <ele>223.3</ele>
        <time>2015-03-23T14:16:20Z</time>
      </trkpt>
      <trkpt lat="41.0725430" lon="-8.5846170">
        <ele>225.4</ele>
        <time>2015-03-23T14:16:33Z</time>
      </trkpt>
      <trkpt lat="41.0726820" lon="-8.5846710">
        <ele>227.4</ele>
        <time>2015-03-23T14:16:47Z</time>
      </trkpt>
      <trkpt lat="41.0728110" lon="-8.5846990">
        <ele>228.6</ele>
        <time>2015-03-23T14:16:59Z</time>
      </trkpt>
      <trkpt lat="41.0729010" lon="-8.5847200">
        <ele>229.4</ele>
        <time>2015-03-23T14:17:06Z</time>
      </trkpt>
      <trkpt lat="41.0730610" lon="-8.5847660">
        <ele>230.5</ele>
        <time>2015-03-23T14:17:18Z</time>
      </trkpt>
      <trkpt lat="41.0731070" lon="-8.5847690">
        <ele>230.7</ele>
        <time>2015-03-23T14:17:22Z</time>
      </trkpt>
      <trkpt lat="41.0732210" lon="-8.5847540">
        <ele>231.5</ele>
        <time>2015-03-23T14:17:30Z</time>
      </trkpt>
      <trkpt lat="41.0733750" lon="-8.5846830">
        <ele>232.9</ele>
        <time>2015-03-23T14:17:41Z</time>
      </trkpt>
      <trkpt lat="41.0735240" lon="-8.5846950">
        <ele>234.0</ele>
        <time>2015-03-23T14:17:51Z</time>
      </trkpt>
      <trkpt lat="41.0737470" lon="-8.5847370">
        <ele>236.2</ele>
        <time>2015-03-23T14:18:08Z</time>
      </trkpt>
      <trkpt lat="41.0740080" lon="-8.5847300">
        <ele>237.1</ele>
        <time>2015-03-23T14:18:23Z</time>
      </trkpt>
      <trkpt lat="41.0741260" lon="-8.5847360">
        <ele>236.9</ele>
        <time>2015-03-23T14:18:36Z</time>
      </trkpt>
      <trkpt lat="41.0741750" lon="-8.5849650">
        <ele>236.3</ele>
        <time>2015-03-23T14:18:54Z</time>
      </trkpt>
      <trkpt lat="41.0743210" lon="-8.5850910">
        <ele>236.0</ele>
        <time>2015-03-23T14:19:04Z</time>
      </trkpt>
      <trkpt lat="41.0745590" lon="-8.5851440">
        <ele>235.8</ele>
        <time>2015-03-23T14:19:17Z</time>
      </trkpt>
      <trkpt lat="41.0749010" lon="-8.5852130">
        <ele>235.5</ele>
        <time>2015-03-23T14:19:36Z</time>
      </trkpt>
      <trkpt lat="41.0751970" lon="-8.5852620">
        <ele>235.1</ele>
        <time>2015-03-23T14:19:51Z</time>
      </trkpt>
      <trkpt lat="41.0754660" lon="-8.5853350">
        <ele>234.6</ele>
        <time>2015-03-23T14:20:03Z</time>
      </trkpt>
      <trkpt lat="41.0757770" lon="-8.5854670">
        <ele>234.0</ele>
        <time>2015-03-23T14:20:17Z</time>
      </trkpt>
      <trkpt lat="41.0760710" lon="-8.5855380">
        <ele>233.4</ele>
        <time>2015-03-23T14:20:31Z</time>
      </trkpt>
      <trkpt lat="41.0762080" lon="-8.5855570">
        <ele>233.0</ele>
        <time>2015-03-23T14:20:46Z</time>
      </trkpt>
      <trkpt lat="41.0762750" lon="-8.5855440">
        <ele>232.8</ele>
        <time>2015-03-23T14:21:00Z</time>
      </trkpt>
      <trkpt lat="41.0763450" lon="-8.5855530">
        <ele>232.7</ele>
        <time>2015-03-23T14:21:24Z</time>
      </trkpt>
      <trkpt lat="41.0764410" lon="-8.5855510">
        <ele>232.5</ele>
        <time>2015-03-23T14:21:36Z</time>
      </trkpt>
      <trkpt lat="41.0765690" lon="-8.5855090">
        <ele>232.2</ele>
        <time>2015-03-23T14:21:53Z</time>
      </trkpt>
      <trkpt lat="41.0766860" lon="-8.5854970">
        <ele>231.8</ele>
        <time>2015-03-23T14:22:06Z</time>
      </trkpt>
      <trkpt lat="41.0768230" lon="-8.5855180">
        <ele>231.4</ele>
        <time>2015-03-23T14:22:21Z</time>
      </trkpt>
      <trkpt lat="41.0768940" lon="-8.5854830">
        <ele>231.1</ele>
        <time>2015-03-23T14:22:29Z</time>
      </trkpt>
      <trkpt lat="41.0769850" lon="-8.5855280">
        <ele>231.2</ele>
        <time>2015-03-23T14:22:42Z</time>
      </trkpt>
      <trkpt lat="41.0771670" lon="-8.5856030">
        <ele>231.7</ele>
        <time>2015-03-23T14:22:59Z</time>
      </trkpt>
      <trkpt lat="41.0772810" lon="-8.5856280">
        <ele>232.0</ele>
        <time>2015-03-23T14:23:12Z</time>
      </trkpt>
      <trkpt lat="41.0775670" lon="-8.5856400">
        <ele>232.3</ele>
        <time>2015-03-23T14:23:25Z</time>
      </trkpt>
      <trkpt lat="41.0778710" lon="-8.5856680">
        <ele>232.4</ele>
        <time>2015-03-23T14:23:38Z</time>
      </trkpt>
      <trkpt lat="41.0782410" lon="-8.5857220">
        <ele>231.3</ele>
        <time>2015-03-23T14:23:52Z</time>
      </trkpt>
      <trkpt lat="41.0786010" lon="-8.5857570">
        <ele>228.4</ele>
        <time>2015-03-23T14:24:02Z</time>
      </trkpt>
      <trkpt lat="41.0789710" lon="-8.5858360">
        <ele>225.3</ele>
        <time>2015-03-23T14:24:09Z</time>
      </trkpt>
      <trkpt lat="41.0792070" lon="-8.5858890">
        <ele>222.3</ele>
        <time>2015-03-23T14:24:12Z</time>
      </trkpt>
      <trkpt lat="41.0794830" lon="-8.5859650">
        <ele>218.7</ele>
        <time>2015-03-23T14:24:15Z</time>
      </trkpt>
      <trkpt lat="41.0797840" lon="-8.5860510">
        <ele>215.0</ele>
        <time>2015-03-23T14:24:18Z</time>
      </trkpt>
      <trkpt lat="41.0801010" lon="-8.5861370">
        <ele>214.3</ele>
        <time>2015-03-23T14:24:21Z</time>
      </trkpt>
      <trkpt lat="41.0802080" lon="-8.5861610">
        <ele>214.6</ele>
        <time>2015-03-23T14:24:22Z</time>
      </trkpt>
      <trkpt lat="41.0804230" lon="-8.5862160">
        <ele>215.1</ele>
        <time>2015-03-23T14:24:24Z</time>
      </trkpt>
      <trkpt lat="41.0810080" lon="-8.5864980">
        <ele>214.5</ele>
        <time>2015-03-23T14:24:31Z</time>
      </trkpt>
      <trkpt lat="41.0811750" lon="-8.5865770">
        <ele>214.3</ele>
        <time>2015-03-23T14:24:34Z</time>
      </trkpt>
      <trkpt lat="41.0812770" lon="-8.5866150">
        <ele>214.4</ele>
        <time>2015-03-23T14:24:36Z</time>
      </trkpt>
      <trkpt lat="41.0815940" lon="-8.5867690">
        <ele>215.8</ele>
        <time>2015-03-23T14:24:45Z</time>
      </trkpt>
      <trkpt lat="41.0818030" lon="-8.5868930">
        <ele>217.7</ele>
        <time>2015-03-23T14:24:57Z</time>
      </trkpt>
      <trkpt lat="41.0819460" lon="-8.5869910">
        <ele>218.5</ele>
        <time>2015-03-23T14:25:09Z</time>
      </trkpt>
      <trkpt lat="41.0821230" lon="-8.5870750">
        <ele>220.1</ele>
        <time>2015-03-23T14:25:22Z</time>
      </trkpt>
      <trkpt lat="41.0822920" lon="-8.5871710">
        <ele>222.0</ele>
        <time>2015-03-23T14:25:35Z</time>
      </trkpt>
      <trkpt lat="41.0824160" lon="-8.5872600">
        <ele>223.7</ele>
        <time>2015-03-23T14:25:46Z</time>
      </trkpt>
      <trkpt lat="41.0825660" lon="-8.5873550">
        <ele>225.8</ele>
        <time>2015-03-23T14:25:53Z</time>
      </trkpt>
      <trkpt lat="41.0826260" lon="-8.5873910">
        <ele>226.5</ele>
        <time>2015-03-23T14:25:57Z</time>
      </trkpt>
      <trkpt lat="41.0828380" lon="-8.5875260">
        <ele>227.9</ele>
        <time>2015-03-23T14:26:10Z</time>
      </trkpt>
      <trkpt lat="41.0830920" lon="-8.5877320">
        <ele>228.9</ele>
        <time>2015-03-23T14:26:21Z</time>
      </trkpt>
      <trkpt lat="41.0832890" lon="-8.5879130">
        <ele>230.5</ele>
        <time>2015-03-23T14:26:36Z</time>
      </trkpt>
      <trkpt lat="41.0834280" lon="-8.5880370">
        <ele>231.0</ele>
        <time>2015-03-23T14:26:49Z</time>
      </trkpt>
      <trkpt lat="41.0835190" lon="-8.5881300">
        <ele>231.0</ele>
        <time>2015-03-23T14:26:57Z</time>
      </trkpt>
      <trkpt lat="41.0835760" lon="-8.5881940">
        <ele>230.6</ele>
        <time>2015-03-23T14:27:03Z</time>
      </trkpt>
      <trkpt lat="41.0837590" lon="-8.5883710">
        <ele>228.6</ele>
        <time>2015-03-23T14:27:16Z</time>
      </trkpt>
      <trkpt lat="41.0839100" lon="-8.5886170">
        <ele>227.8</ele>
        <time>2015-03-23T14:27:30Z</time>
      </trkpt>
      <trkpt lat="41.0840360" lon="-8.5890230">
        <ele>226.6</ele>
        <time>2015-03-23T14:27:40Z</time>
      </trkpt>
      <trkpt lat="41.0841000" lon="-8.5893110">
        <ele>224.2</ele>
        <time>2015-03-23T14:27:46Z</time>
      </trkpt>
      <trkpt lat="41.0842290" lon="-8.5897060">
        <ele>220.8</ele>
        <time>2015-03-23T14:27:54Z</time>
      </trkpt>
      <trkpt lat="41.0843270" lon="-8.5901730">
        <ele>218.1</ele>
        <time>2015-03-23T14:28:01Z</time>
      </trkpt>
      <trkpt lat="41.0843800" lon="-8.5904310">
        <ele>217.4</ele>
        <time>2015-03-23T14:28:05Z</time>
      </trkpt>
      <trkpt lat="41.0844210" lon="-8.5907150">
        <ele>217.6</ele>
        <time>2015-03-23T14:28:10Z</time>
      </trkpt>
      <trkpt lat="41.0844880" lon="-8.5908220">
        <ele>217.1</ele>
        <time>2015-03-23T14:28:14Z</time>
      </trkpt>
      <trkpt lat="41.0845540" lon="-8.5908950">
        <ele>216.4</ele>
        <time>2015-03-23T14:28:19Z</time>
      </trkpt>
      <trkpt lat="41.0847880" lon="-8.5911560">
        <ele>215.1</ele>
        <time>2015-03-23T14:28:34Z</time>
      </trkpt>
      <trkpt lat="41.0851130" lon="-8.5914960">
        <ele>215.1</ele>
        <time>2015-03-23T14:28:51Z</time>
      </trkpt>
      <trkpt lat="41.0854480" lon="-8.5918680">
        <ele>214.1</ele>
        <time>2015-03-23T14:29:04Z</time>
      </trkpt>
      <trkpt lat="41.0855450" lon="-8.5919680">
        <ele>213.7</ele>
        <time>2015-03-23T14:29:09Z</time>
      </trkpt>
      <trkpt lat="41.0855900" lon="-8.5920290">
        <ele>213.4</ele>
        <time>2015-03-23T14:29:12Z</time>
      </trkpt>
      <trkpt lat="41.0856620" lon="-8.5921270">
        <ele>212.9</ele>
        <time>2015-03-23T14:29:24Z</time>
      </trkpt>
      <trkpt lat="41.0856980" lon="-8.5921820">
        <ele>212.6</ele>
        <time>2015-03-23T14:29:35Z</time>
      </trkpt>
      <trkpt lat="41.0857690" lon="-8.5922510">
        <ele>212.0</ele>
        <time>2015-03-23T14:29:47Z</time>
      </trkpt>
      <trkpt lat="41.0858490" lon="-8.5923350">
        <ele>211.4</ele>
        <time>2015-03-23T14:29:57Z</time>
      </trkpt>
      <trkpt lat="41.0859550" lon="-8.5924540">
        <ele>210.5</ele>
        <time>2015-03-23T14:30:11Z</time>
      </trkpt>
      <trkpt lat="41.0861660" lon="-8.5926220">
        <ele>208.5</ele>
        <time>2015-03-23T14:30:25Z</time>
      </trkpt>
      <trkpt lat="41.0861210" lon="-8.5928170">
        <ele>206.8</ele>
        <time>2015-03-23T14:30:30Z</time>
      </trkpt>
      <trkpt lat="41.0860580" lon="-8.5930980">
        <ele>204.7</ele>
        <time>2015-03-23T14:30:34Z</time>
      </trkpt>
      <trkpt lat="41.0860710" lon="-8.5933040">
        <ele>203.8</ele>
        <time>2015-03-23T14:30:38Z</time>
      </trkpt>
      <trkpt lat="41.0861590" lon="-8.5933510">
        <ele>205.1</ele>
        <time>2015-03-23T14:30:43Z</time>
      </trkpt>
      <trkpt lat="41.0865970" lon="-8.5932870">
        <ele>205.6</ele>
        <time>2015-03-23T14:30:55Z</time>
      </trkpt>
      <trkpt lat="41.0868910" lon="-8.5932860">
        <ele>204.5</ele>
        <time>2015-03-23T14:31:00Z</time>
      </trkpt>
      <trkpt lat="41.0870960" lon="-8.5932790">
        <ele>204.1</ele>
        <time>2015-03-23T14:31:03Z</time>
      </trkpt>
      <trkpt lat="41.0875580" lon="-8.5932120">
        <ele>200.1</ele>
        <time>2015-03-23T14:31:10Z</time>
      </trkpt>
      <trkpt lat="41.0878520" lon="-8.5931640">
        <ele>196.7</ele>
        <time>2015-03-23T14:31:14Z</time>
      </trkpt>
      <trkpt lat="41.0880790" lon="-8.5931350">
        <ele>193.4</ele>
        <time>2015-03-23T14:31:17Z</time>
      </trkpt>
      <trkpt lat="41.0882840" lon="-8.5931510">
        <ele>190.4</ele>
        <time>2015-03-23T14:31:20Z</time>
      </trkpt>
      <trkpt lat="41.0885820" lon="-8.5931850">
        <ele>186.9</ele>
        <time>2015-03-23T14:31:25Z</time>
      </trkpt>
      <trkpt lat="41.0888770" lon="-8.5932130">
        <ele>184.0</ele>
        <time>2015-03-23T14:31:29Z</time>
      </trkpt>
      <trkpt lat="41.0891720" lon="-8.5932230">
        <ele>180.9</ele>
        <time>2015-03-23T14:31:33Z</time>
      </trkpt>
      <trkpt lat="41.0895300" lon="-8.5932750">
        <ele>176.9</ele>
        <time>2015-03-23T14:31:38Z</time>
      </trkpt>
      <trkpt lat="41.0898360" lon="-8.5933990">
        <ele>173.4</ele>
        <time>2015-03-23T14:31:42Z</time>
      </trkpt>
      <trkpt lat="41.0899990" lon="-8.5934650">
        <ele>171.4</ele>
        <time>2015-03-23T14:31:44Z</time>
      </trkpt>
      <trkpt lat="41.0902160" lon="-8.5936280">
        <ele>168.6</ele>
        <time>2015-03-23T14:31:47Z</time>
      </trkpt>
      <trkpt lat="41.0902790" lon="-8.5937050">
        <ele>167.7</ele>
        <time>2015-03-23T14:31:48Z</time>
      </trkpt>
      <trkpt lat="41.0905540" lon="-8.5940950">
        <ele>163.4</ele>
        <time>2015-03-23T14:31:53Z</time>
      </trkpt>
      <trkpt lat="41.0906360" lon="-8.5942040">
        <ele>162.1</ele>
        <time>2015-03-23T14:31:55Z</time>
      </trkpt>
      <trkpt lat="41.0908290" lon="-8.5943130">
        <ele>158.9</ele>
        <time>2015-03-23T14:32:04Z</time>
      </trkpt>
      <trkpt lat="41.0908930" lon="-8.5941850">
        <ele>158.4</ele>
        <time>2015-03-23T14:32:18Z</time>
      </trkpt>
      <trkpt lat="41.0909630" lon="-8.5940740">
        <ele>158.2</ele>
        <time>2015-03-23T14:32:23Z</time>
      </trkpt>
      <trkpt lat="41.0912430" lon="-8.5936380">
        <ele>158.9</ele>
        <time>2015-03-23T14:32:41Z</time>
      </trkpt>
      <trkpt lat="41.0912930" lon="-8.5935900">
        <ele>158.9</ele>
        <time>2015-03-23T14:32:43Z</time>
      </trkpt>
      <trkpt lat="41.0915100" lon="-8.5937970">
        <ele>156.8</ele>
        <time>2015-03-23T14:32:51Z</time>
      </trkpt>
      <trkpt lat="41.0920150" lon="-8.5944700">
        <ele>151.0</ele>
        <time>2015-03-23T14:33:05Z</time>
      </trkpt>
      <trkpt lat="41.0923890" lon="-8.5949500">
        <ele>149.7</ele>
        <time>2015-03-23T14:33:14Z</time>
      </trkpt>
      <trkpt lat="41.0929390" lon="-8.5956090">
        <ele>153.2</ele>
        <time>2015-03-23T14:33:30Z</time>
      </trkpt>
      <trkpt lat="41.0933790" lon="-8.5962530">
        <ele>155.4</ele>
        <time>2015-03-23T14:33:46Z</time>
      </trkpt>
      <trkpt lat="41.0937080" lon="-8.5968490">
        <ele>156.1</ele>
        <time>2015-03-23T14:34:00Z</time>
      </trkpt>
      <trkpt lat="41.0940950" lon="-8.5976550">
        <ele>154.9</ele>
        <time>2015-03-23T14:34:18Z</time>
      </trkpt>
      <trkpt lat="41.0941700" lon="-8.5978110">
        <ele>154.1</ele>
        <time>2015-03-23T14:34:21Z</time>
      </trkpt>
      <trkpt lat="41.0948220" lon="-8.5983630">
        <ele>150.3</ele>
        <time>2015-03-23T14:34:38Z</time>
      </trkpt>
      <trkpt lat="41.0955950" lon="-8.5986880">
        <ele>148.7</ele>
        <time>2015-03-23T14:34:55Z</time>
      </trkpt>
      <trkpt lat="41.0961870" lon="-8.5988790">
        <ele>149.4</ele>
        <time>2015-03-23T14:35:10Z</time>
      </trkpt>
      <trkpt lat="41.0965680" lon="-8.5990040">
        <ele>150.2</ele>
        <time>2015-03-23T14:35:21Z</time>
      </trkpt>
      <trkpt lat="41.0970100" lon="-8.5991710">
        <ele>152.7</ele>
        <time>2015-03-23T14:35:37Z</time>
      </trkpt>
      <trkpt lat="41.0974370" lon="-8.5993130">
        <ele>155.2</ele>
        <time>2015-03-23T14:35:56Z</time>
      </trkpt>
      <trkpt lat="41.0979490" lon="-8.5995000">
        <ele>157.8</ele>
        <time>2015-03-23T14:36:18Z</time>
      </trkpt>
      <trkpt lat="41.0983720" lon="-8.5996570">
        <ele>159.1</ele>
        <time>2015-03-23T14:36:34Z</time>
      </trkpt>
      <trkpt lat="41.0986140" lon="-8.5997440">
        <ele>159.6</ele>
        <time>2015-03-23T14:36:40Z</time>
      </trkpt>
      <trkpt lat="41.0987640" lon="-8.5997990">
        <ele>159.8</ele>
        <time>2015-03-23T14:36:43Z</time>
      </trkpt>
      <trkpt lat="41.0989340" lon="-8.5998620">
        <ele>160.0</ele>
        <time>2015-03-23T14:36:46Z</time>
      </trkpt>
      <trkpt lat="41.0992910" lon="-8.5999910">
        <ele>160.2</ele>
        <time>2015-03-23T14:36:52Z</time>
      </trkpt>
      <trkpt lat="41.0993610" lon="-8.6000160">
        <ele>159.4</ele>
        <time>2015-03-23T14:36:53Z</time>
      </trkpt>
      <trkpt lat="41.0999300" lon="-8.6002310">
        <ele>153.1</ele>
        <time>2015-03-23T14:37:01Z</time>
      </trkpt>
      <trkpt lat="41.1000090" lon="-8.6002620">
        <ele>151.9</ele>
        <time>2015-03-23T14:37:02Z</time>
      </trkpt>
      <trkpt lat="41.1003340" lon="-8.6003900">
        <ele>147.9</ele>
        <time>2015-03-23T14:37:06Z</time>
      </trkpt>
      <trkpt lat="41.1005940" lon="-8.6004950">
        <ele>144.6</ele>
        <time>2015-03-23T14:37:09Z</time>
      </trkpt>
      <trkpt lat="41.1009610" lon="-8.6006450">
        <ele>140.7</ele>
        <time>2015-03-23T14:37:13Z</time>
      </trkpt>
      <trkpt lat="41.1013190" lon="-8.6008580">
        <ele>138.0</ele>
        <time>2015-03-23T14:37:17Z</time>
      </trkpt>
      <trkpt lat="41.1015360" lon="-8.6010840">
        <ele>134.9</ele>
        <time>2015-03-23T14:37:20Z</time>
      </trkpt>
      <trkpt lat="41.1021430" lon="-8.6020260">
        <ele>132.0</ele>
        <time>2015-03-23T14:37:33Z</time>
      </trkpt>
      <trkpt lat="41.1023300" lon="-8.6023040">
        <ele>131.0</ele>
        <time>2015-03-23T14:37:38Z</time>
      </trkpt>
      <trkpt lat="41.1028090" lon="-8.6027760">
        <ele>128.8</ele>
        <time>2015-03-23T14:37:50Z</time>
      </trkpt>
      <trkpt lat="41.1030500" lon="-8.6029240">
        <ele>127.6</ele>
        <time>2015-03-23T14:37:55Z</time>
      </trkpt>
      <trkpt lat="41.1035230" lon="-8.6030420">
        <ele>125.7</ele>
        <time>2015-03-23T14:38:04Z</time>
      </trkpt>
      <trkpt lat="41.1043270" lon="-8.6027680">
        <ele>125.0</ele>
        <time>2015-03-23T14:38:21Z</time>
      </trkpt>
      <trkpt lat="41.1048020" lon="-8.6024330">
        <ele>128.7</ele>
        <time>2015-03-23T14:38:35Z</time>
      </trkpt>
      <trkpt lat="41.1050760" lon="-8.6023250">
        <ele>129.6</ele>
        <time>2015-03-23T14:38:47Z</time>
      </trkpt>
      <trkpt lat="41.1052960" lon="-8.6023810">
        <ele>131.4</ele>
        <time>2015-03-23T14:39:00Z</time>
      </trkpt>
      <trkpt lat="41.1056120" lon="-8.6023820">
        <ele>134.1</ele>
        <time>2015-03-23T14:39:14Z</time>
      </trkpt>
      <trkpt lat="41.1060080" lon="-8.6024100">
        <ele>136.3</ele>
        <time>2015-03-23T14:39:34Z</time>
      </trkpt>
      <trkpt lat="41.1061810" lon="-8.6024220">
        <ele>136.6</ele>
        <time>2015-03-23T14:40:01Z</time>
      </trkpt>
      <trkpt lat="41.1065750" lon="-8.6026010">
        <ele>137.4</ele>
        <time>2015-03-23T14:40:18Z</time>
      </trkpt>
      <trkpt lat="41.1070610" lon="-8.6026460">
        <ele>140.5</ele>
        <time>2015-03-23T14:40:38Z</time>
      </trkpt>
      <trkpt lat="41.1074460" lon="-8.6025860">
        <ele>143.3</ele>
        <time>2015-03-23T14:40:55Z</time>
      </trkpt>
      <trkpt lat="41.1077400" lon="-8.6025510">
        <ele>145.9</ele>
        <time>2015-03-23T14:41:10Z</time>
      </trkpt>
      <trkpt lat="41.1079940" lon="-8.6025120">
        <ele>150.2</ele>
        <time>2015-03-23T14:41:21Z</time>
      </trkpt>
      <trkpt lat="41.1083120" lon="-8.6025040">
        <ele>153.2</ele>
        <time>2015-03-23T14:41:33Z</time>
      </trkpt>
      <trkpt lat="41.1087320" lon="-8.6027860">
        <ele>155.0</ele>
        <time>2015-03-23T14:41:48Z</time>
      </trkpt>
      <trkpt lat="41.1092500" lon="-8.6032080">
        <ele>157.0</ele>
        <time>2015-03-23T14:42:06Z</time>
      </trkpt>
      <trkpt lat="41.1096870" lon="-8.6033080">
        <ele>156.9</ele>
        <time>2015-03-23T14:42:18Z</time>
      </trkpt>
      <trkpt lat="41.1101390" lon="-8.6033860">
        <ele>149.5</ele>
        <time>2015-03-23T14:42:31Z</time>
      </trkpt>
      <trkpt lat="41.1105310" lon="-8.6036120">
        <ele>142.3</ele>
        <time>2015-03-23T14:42:43Z</time>
      </trkpt>
      <trkpt lat="41.1105800" lon="-8.6036880">
        <ele>141.2</ele>
        <time>2015-03-23T14:42:45Z</time>
      </trkpt>
      <trkpt lat="41.1109300" lon="-8.6040440">
        <ele>138.7</ele>
        <time>2015-03-23T14:42:58Z</time>
      </trkpt>
      <trkpt lat="41.1112460" lon="-8.6042050">
        <ele>142.9</ele>
        <time>2015-03-23T14:43:11Z</time>
      </trkpt>
      <trkpt lat="41.1115970" lon="-8.6043630">
        <ele>147.4</ele>
        <time>2015-03-23T14:43:24Z</time>
      </trkpt>
      <trkpt lat="41.1120360" lon="-8.6045600">
        <ele>150.8</ele>
        <time>2015-03-23T14:43:40Z</time>
      </trkpt>
      <trkpt lat="41.1122860" lon="-8.6046690">
        <ele>152.2</ele>
        <time>2015-03-23T14:43:49Z</time>
      </trkpt>
      <trkpt lat="41.1127170" lon="-8.6048390">
        <ele>155.3</ele>
        <time>2015-03-23T14:44:05Z</time>
      </trkpt>
      <trkpt lat="41.1131560" lon="-8.6050430">
        <ele>159.5</ele>
        <time>2015-03-23T14:44:20Z</time>
      </trkpt>
      <trkpt lat="41.1136170" lon="-8.6052690">
        <ele>162.4</ele>
        <time>2015-03-23T14:44:36Z</time>
      </trkpt>
      <trkpt lat="41.1141470" lon="-8.6055540">
        <ele>164.4</ele>
        <time>2015-03-23T14:44:52Z</time>
      </trkpt>
      <trkpt lat="41.1142980" lon="-8.6055460">
        <ele>164.6</ele>
        <time>2015-03-23T14:44:55Z</time>
      </trkpt>
      <trkpt lat="41.1145710" lon="-8.6057450">
        <ele>162.0</ele>
        <time>2015-03-23T14:45:04Z</time>
      </trkpt>
      <trkpt lat="41.1150180" lon="-8.6060370">
        <ele>156.9</ele>
        <time>2015-03-23T14:45:17Z</time>
      </trkpt>
      <trkpt lat="41.1151690" lon="-8.6062110">
        <ele>156.7</ele>
        <time>2015-03-23T14:45:25Z</time>
      </trkpt>
      <trkpt lat="41.1153110" lon="-8.6063910">
        <ele>156.7</ele>
        <time>2015-03-23T14:45:34Z</time>
      </trkpt>
      <trkpt lat="41.1154130" lon="-8.6064870">
        <ele>157.4</ele>
        <time>2015-03-23T14:45:39Z</time>
      </trkpt>
      <trkpt lat="41.1156990" lon="-8.6064490">
        <ele>158.8</ele>
        <time>2015-03-23T14:46:32Z</time>
      </trkpt>
      <trkpt lat="41.1160250" lon="-8.6063620">
        <ele>157.6</ele>
        <time>2015-03-23T14:46:46Z</time>
      </trkpt>
      <trkpt lat="41.1165220" lon="-8.6063640">
        <ele>154.7</ele>
        <time>2015-03-23T14:46:54Z</time>
      </trkpt>
      <trkpt lat="41.1172580" lon="-8.6063260">
        <ele>147.2</ele>
        <time>2015-03-23T14:47:04Z</time>
      </trkpt>
      <trkpt lat="41.1173640" lon="-8.6063470">
        <ele>146.4</ele>
        <time>2015-03-23T14:47:06Z</time>
      </trkpt>
      <trkpt lat="41.1174690" lon="-8.6063300">
        <ele>145.5</ele>
        <time>2015-03-23T14:47:07Z</time>
      </trkpt>
      <trkpt lat="41.1181640" lon="-8.6063320">
        <ele>139.3</ele>
        <time>2015-03-23T14:47:16Z</time>
      </trkpt>
      <trkpt lat="41.1186870" lon="-8.6062980">
        <ele>136.8</ele>
        <time>2015-03-23T14:47:23Z</time>
      </trkpt>
      <trkpt lat="41.1190600" lon="-8.6062140">
        <ele>136.3</ele>
        <time>2015-03-23T14:47:28Z</time>
      </trkpt>
      <trkpt lat="41.1192180" lon="-8.6060860">
        <ele>136.6</ele>
        <time>2015-03-23T14:47:31Z</time>
      </trkpt>
      <trkpt lat="41.1194560" lon="-8.6060400">
        <ele>137.4</ele>
        <time>2015-03-23T14:47:36Z</time>
      </trkpt>
      <trkpt lat="41.1198640" lon="-8.6059820">
        <ele>137.3</ele>
        <time>2015-03-23T14:47:43Z</time>
      </trkpt>
      <trkpt lat="41.1200180" lon="-8.6060720">
        <ele>137.7</ele>
        <time>2015-03-23T14:47:50Z</time>
      </trkpt>
      <trkpt lat="41.1200780" lon="-8.6060840">
        <ele>137.6</ele>
        <time>2015-03-23T14:47:52Z</time>
      </trkpt>
      <trkpt lat="41.1203060" lon="-8.6060440">
        <ele>137.1</ele>
        <time>2015-03-23T14:47:58Z</time>
      </trkpt>
      <trkpt lat="41.1203850" lon="-8.6060520">
        <ele>137.1</ele>
        <time>2015-03-23T14:48:00Z</time>
      </trkpt>
      <trkpt lat="41.1207810" lon="-8.6060520">
        <ele>135.3</ele>
        <time>2015-03-23T14:48:07Z</time>
      </trkpt>
      <trkpt lat="41.1214320" lon="-8.6060270">
        <ele>131.6</ele>
        <time>2015-03-23T14:48:18Z</time>
      </trkpt>
      <trkpt lat="41.1217680" lon="-8.6059850">
        <ele>127.6</ele>
        <time>2015-03-23T14:48:24Z</time>
      </trkpt>
      <trkpt lat="41.1228260" lon="-8.6059150">
        <ele>121.7</ele>
        <time>2015-03-23T14:48:38Z</time>
      </trkpt>
      <trkpt lat="41.1229000" lon="-8.6059030">
        <ele>121.1</ele>
        <time>2015-03-23T14:48:39Z</time>
      </trkpt>
      <trkpt lat="41.1236120" lon="-8.6058610">
        <ele>113.8</ele>
        <time>2015-03-23T14:48:48Z</time>
      </trkpt>
      <trkpt lat="41.1240990" lon="-8.6058260">
        <ele>104.9</ele>
        <time>2015-03-23T14:48:55Z</time>
      </trkpt>
      <trkpt lat="41.1245830" lon="-8.6057870">
        <ele>101.9</ele>
        <time>2015-03-23T14:49:05Z</time>
      </trkpt>
      <trkpt lat="41.1246790" lon="-8.6057810">
        <ele>102.1</ele>
        <time>2015-03-23T14:49:13Z</time>
      </trkpt>
      <trkpt lat="41.1250000" lon="-8.6057380">
        <ele>104.1</ele>
        <time>2015-03-23T14:49:41Z</time>
      </trkpt>
      <trkpt lat="41.1251640" lon="-8.6057310">
        <ele>104.4</ele>
        <time>2015-03-23T14:49:51Z</time>
      </trkpt>
      <trkpt lat="41.1253160" lon="-8.6057150">
        <ele>104.9</ele>
        <time>2015-03-23T14:50:00Z</time>
      </trkpt>
      <trkpt lat="41.1254370" lon="-8.6057470">
        <ele>105.6</ele>
        <time>2015-03-23T14:50:38Z</time>
      </trkpt>
      <trkpt lat="41.1259560" lon="-8.6055550">
        <ele>104.9</ele>
        <time>2015-03-23T14:50:49Z</time>
      </trkpt>
      <trkpt lat="41.1263780" lon="-8.6054480">
        <ele>106.1</ele>
        <time>2015-03-23T14:50:58Z</time>
      </trkpt>
      <trkpt lat="41.1266080" lon="-8.6054960">
        <ele>108.1</ele>
        <time>2015-03-23T14:51:03Z</time>
      </trkpt>
      <trkpt lat="41.1271900" lon="-8.6055100">
        <ele>107.1</ele>
        <time>2015-03-23T14:51:16Z</time>
      </trkpt>
      <trkpt lat="41.1275180" lon="-8.6055150">
        <ele>106.1</ele>
        <time>2015-03-23T14:51:23Z</time>
      </trkpt>
      <trkpt lat="41.1280560" lon="-8.6055620">
        <ele>105.1</ele>
        <time>2015-03-23T14:51:34Z</time>
      </trkpt>
      <trkpt lat="41.1283310" lon="-8.6056430">
        <ele>105.2</ele>
        <time>2015-03-23T14:51:40Z</time>
      </trkpt>
      <trkpt lat="41.1289450" lon="-8.6059030">
        <ele>103.8</ele>
        <time>2015-03-23T14:51:54Z</time>
      </trkpt>
      <trkpt lat="41.1289520" lon="-8.6059730">
        <ele>103.8</ele>
        <time>2015-03-23T14:52:09Z</time>
      </trkpt>
      <trkpt lat="41.1291170" lon="-8.6060200">
        <ele>103.5</ele>
        <time>2015-03-23T14:52:26Z</time>
      </trkpt>
      <trkpt lat="41.1298440" lon="-8.6061800">
        <ele>101.1</ele>
        <time>2015-03-23T14:52:40Z</time>
      </trkpt>
      <trkpt lat="41.1302320" lon="-8.6063040">
        <ele>99.0</ele>
        <time>2015-03-23T14:52:46Z</time>
      </trkpt>
      <trkpt lat="41.1305910" lon="-8.6064440">
        <ele>96.2</ele>
        <time>2015-03-23T14:52:51Z</time>
      </trkpt>
      <trkpt lat="41.1307650" lon="-8.6065050">
        <ele>94.6</ele>
        <time>2015-03-23T14:52:53Z</time>
      </trkpt>
      <trkpt lat="41.1312790" lon="-8.6066780">
        <ele>91.2</ele>
        <time>2015-03-23T14:53:00Z</time>
      </trkpt>
      <trkpt lat="41.1313540" lon="-8.6067090">
        <ele>90.7</ele>
        <time>2015-03-23T14:53:01Z</time>
      </trkpt>
      <trkpt lat="41.1318880" lon="-8.6069030">
        <ele>86.8</ele>
        <time>2015-03-23T14:53:10Z</time>
      </trkpt>
      <trkpt lat="41.1320430" lon="-8.6069970">
        <ele>86.9</ele>
        <time>2015-03-23T14:53:20Z</time>
      </trkpt>
      <trkpt lat="41.1321930" lon="-8.6070680">
        <ele>88.2</ele>
        <time>2015-03-23T14:53:25Z</time>
      </trkpt>
      <trkpt lat="41.1329130" lon="-8.6072420">
        <ele>85.5</ele>
        <time>2015-03-23T14:53:38Z</time>
      </trkpt>
      <trkpt lat="41.1333170" lon="-8.6072660">
        <ele>82.9</ele>
        <time>2015-03-23T14:53:44Z</time>
      </trkpt>
      <trkpt lat="41.1338700" lon="-8.6074440">
        <ele>77.7</ele>
        <time>2015-03-23T14:53:52Z</time>
      </trkpt>
      <trkpt lat="41.1343180" lon="-8.6076260">
        <ele>76.1</ele>
        <time>2015-03-23T14:54:00Z</time>
      </trkpt>
      <trkpt lat="41.1346970" lon="-8.6077810">
        <ele>75.3</ele>
        <time>2015-03-23T14:54:07Z</time>
      </trkpt>
      <trkpt lat="41.1350560" lon="-8.6079070">
        <ele>72.9</ele>
        <time>2015-03-23T14:54:14Z</time>
      </trkpt>
      <trkpt lat="41.1354870" lon="-8.6080760">
        <ele>69.5</ele>
        <time>2015-03-23T14:54:27Z</time>
      </trkpt>
      <trkpt lat="41.1356660" lon="-8.6081060">
        <ele>68.2</ele>
        <time>2015-03-23T14:54:38Z</time>
      </trkpt>
      <trkpt lat="41.1361550" lon="-8.6081770">
        <ele>67.3</ele>
        <time>2015-03-23T14:54:52Z</time>
      </trkpt>
      <trkpt lat="41.1363250" lon="-8.6082000">
        <ele>67.9</ele>
        <time>2015-03-23T14:55:27Z</time>
      </trkpt>
      <trkpt lat="41.1367920" lon="-8.6083690">
        <ele>70.3</ele>
        <time>2015-03-23T14:55:41Z</time>
      </trkpt>
      <trkpt lat="41.1373320" lon="-8.6085230">
        <ele>70.4</ele>
        <time>2015-03-23T14:55:56Z</time>
      </trkpt>
      <trkpt lat="41.1374400" lon="-8.6085550">
        <ele>68.0</ele>
        <time>2015-03-23T14:55:59Z</time>
      </trkpt>
      <trkpt lat="41.1381380" lon="-8.6088420">
        <ele>51.8</ele>
        <time>2015-03-23T14:56:17Z</time>
      </trkpt>
      <trkpt lat="41.1381990" lon="-8.6090940">
        <ele>49.0</ele>
        <time>2015-03-23T14:56:25Z</time>
      </trkpt>
      <trkpt lat="41.1381380" lon="-8.6091200">
        <ele>48.1</ele>
        <time>2015-03-23T14:56:40Z</time>
      </trkpt>
      <trkpt lat="41.1380560" lon="-8.6093410">
        <ele>48.5</ele>
        <time>2015-03-23T14:56:58Z</time>
      </trkpt>
      <trkpt lat="41.1380060" lon="-8.6094390">
        <ele>47.9</ele>
        <time>2015-03-23T14:57:07Z</time>
      </trkpt>
      <trkpt lat="41.1380970" lon="-8.6095800">
        <ele>46.5</ele>
        <time>2015-03-23T14:57:27Z</time>
      </trkpt>
      <trkpt lat="41.1380100" lon="-8.6094600">
        <ele>48.0</ele>
        <time>2015-03-23T15:05:46Z</time>
      </trkpt>
      <trkpt lat="41.1380130" lon="-8.6093930">
        <ele>48.3</ele>
        <time>2015-03-23T15:05:55Z</time>
      </trkpt>
      <trkpt lat="41.1380460" lon="-8.6093310">
        <ele>48.5</ele>
        <time>2015-03-23T15:06:12Z</time>
      </trkpt>
      <trkpt lat="41.1381880" lon="-8.6090400">
        <ele>50.3</ele>
        <time>2015-03-23T15:06:30Z</time>
      </trkpt>
      <trkpt lat="41.1382560" lon="-8.6089510">
        <ele>48.0</ele>
        <time>2015-03-23T15:06:34Z</time>
      </trkpt>
      <trkpt lat="41.1382830" lon="-8.6089000">
        <ele>47.0</ele>
        <time>2015-03-23T15:06:36Z</time>
      </trkpt>
      <trkpt lat="41.1384270" lon="-8.6089120">
        <ele>44.6</ele>
        <time>2015-03-23T15:06:42Z</time>
      </trkpt>
      <trkpt lat="41.1386020" lon="-8.6089650">
        <ele>45.1</ele>
        <time>2015-03-23T15:06:49Z</time>
      </trkpt>
      <trkpt lat="41.1390100" lon="-8.6090920">
        <ele>47.0</ele>
        <time>2015-03-23T15:07:03Z</time>
      </trkpt>
      <trkpt lat="41.1391870" lon="-8.6091440">
        <ele>48.0</ele>
        <time>2015-03-23T15:07:09Z</time>
      </trkpt>
      <trkpt lat="41.1396750" lon="-8.6092970">
        <ele>50.7</ele>
        <time>2015-03-23T15:07:25Z</time>
      </trkpt>
      <trkpt lat="41.1402090" lon="-8.6094740">
        <ele>53.5</ele>
        <time>2015-03-23T15:07:42Z</time>
      </trkpt>
      <trkpt lat="41.1407570" lon="-8.6096500">
        <ele>56.8</ele>
        <time>2015-03-23T15:07:57Z</time>
      </trkpt>
      <trkpt lat="41.1410180" lon="-8.6097250">
        <ele>58.8</ele>
        <time>2015-03-23T15:08:04Z</time>
      </trkpt>
      <trkpt lat="41.1412280" lon="-8.6097990">
        <ele>60.5</ele>
        <time>2015-03-23T15:08:10Z</time>
      </trkpt>
      <trkpt lat="41.1419060" lon="-8.6100160">
        <ele>66.2</ele>
        <time>2015-03-23T15:08:28Z</time>
      </trkpt>
      <trkpt lat="41.1421970" lon="-8.6100400">
        <ele>69.4</ele>
        <time>2015-03-23T15:08:39Z</time>
      </trkpt>
      <trkpt lat="41.1425240" lon="-8.6101080">
        <ele>72.6</ele>
        <time>2015-03-23T15:08:57Z</time>
      </trkpt>
      <trkpt lat="41.1427570" lon="-8.6101890">
        <ele>73.6</ele>
        <time>2015-03-23T15:09:11Z</time>
      </trkpt>
      <trkpt lat="41.1429890" lon="-8.6102340">
        <ele>73.8</ele>
        <time>2015-03-23T15:09:23Z</time>
      </trkpt>
      <trkpt lat="41.1431490" lon="-8.6104200">
        <ele>72.6</ele>
        <time>2015-03-23T15:09:35Z</time>
      </trkpt>
      <trkpt lat="41.1430930" lon="-8.6107290">
        <ele>71.0</ele>
        <time>2015-03-23T15:09:49Z</time>
      </trkpt>
      <trkpt lat="41.1430350" lon="-8.6110370">
        <ele>69.5</ele>
        <time>2015-03-23T15:10:04Z</time>
      </trkpt>
      <trkpt lat="41.1430290" lon="-8.6114070">
        <ele>68.2</ele>
        <time>2015-03-23T15:10:20Z</time>
      </trkpt>
      <trkpt lat="41.1430350" lon="-8.6114760">
        <ele>68.0</ele>
        <time>2015-03-23T15:10:23Z</time>
      </trkpt>
      <trkpt lat="41.1430470" lon="-8.6115720">
        <ele>67.4</ele>
        <time>2015-03-23T15:11:02Z</time>
      </trkpt>
      <trkpt lat="41.1430920" lon="-8.6116230">
        <ele>67.2</ele>
        <time>2015-03-23T15:11:21Z</time>
      </trkpt>
      <trkpt lat="41.1430390" lon="-8.6116970">
        <ele>67.1</ele>
        <time>2015-03-23T15:12:26Z</time>
      </trkpt>
      <trkpt lat="41.1429660" lon="-8.6117720">
        <ele>67.0</ele>
        <time>2015-03-23T15:13:13Z</time>
      </trkpt>
      <trkpt lat="41.1429120" lon="-8.6117160">
        <ele>66.9</ele>
        <time>2015-03-23T15:16:59Z</time>
      </trkpt>
      <trkpt lat="41.1426930" lon="-8.6118680">
        <ele>65.4</ele>
        <time>2015-03-23T15:17:19Z</time>
      </trkpt>
      <trkpt lat="41.1426220" lon="-8.6120060">
        <ele>64.0</ele>
        <time>2015-03-23T15:17:29Z</time>
      </trkpt>
      <trkpt lat="41.1425700" lon="-8.6120550">
        <ele>62.4</ele>
        <time>2015-03-23T15:17:34Z</time>
      </trkpt>
      <trkpt lat="41.1425250" lon="-8.6120810">
        <ele>62.4</ele>
        <time>2015-03-23T15:17:38Z</time>
      </trkpt>
      <trkpt lat="41.1424650" lon="-8.6120890">
        <ele>62.4</ele>
        <time>2015-03-23T15:18:15Z</time>
      </trkpt>
      <trkpt lat="41.1425120" lon="-8.6120770">
        <ele>62.4</ele>
        <time>2015-03-23T15:18:59Z</time>
      </trkpt>
      <trkpt lat="41.1425620" lon="-8.6120750">
        <ele>62.4</ele>
        <time>2015-03-23T15:19:05Z</time>
      </trkpt>
      <trkpt lat="41.1426220" lon="-8.6120410">
        <ele>62.4</ele>
        <time>2015-03-23T15:19:10Z</time>
      </trkpt>
      <trkpt lat="41.1426840" lon="-8.6119060">
        <ele>62.6</ele>
        <time>2015-03-23T15:19:16Z</time>
      </trkpt>
      <trkpt lat="41.1427430" lon="-8.6118890">
        <ele>62.6</ele>
        <time>2015-03-23T15:19:22Z</time>
      </trkpt>
      <trkpt lat="41.1427100" lon="-8.6121150">
        <ele>61.5</ele>
        <time>2015-03-23T15:19:29Z</time>
      </trkpt>
      <trkpt lat="41.1426980" lon="-8.6121910">
        <ele>61.5</ele>
        <time>2015-03-23T15:19:31Z</time>
      </trkpt>
      <trkpt lat="41.1425130" lon="-8.6123300">
        <ele>57.2</ele>
        <time>2015-03-23T15:19:41Z</time>
      </trkpt>
      <trkpt lat="41.1425210" lon="-8.6124330">
        <ele>57.1</ele>
        <time>2015-03-23T15:19:45Z</time>
      </trkpt>
      <trkpt lat="41.1425380" lon="-8.6124980">
        <ele>56.9</ele>
        <time>2015-03-23T15:19:48Z</time>
      </trkpt>
      <trkpt lat="41.1427590" lon="-8.6127340">
        <ele>57.5</ele>
        <time>2015-03-23T15:20:00Z</time>
      </trkpt>
      <trkpt lat="41.1428750" lon="-8.6128110">
        <ele>59.0</ele>
        <time>2015-03-23T15:20:05Z</time>
      </trkpt>
      <trkpt lat="41.1428920" lon="-8.6128780">
        <ele>59.4</ele>
        <time>2015-03-23T15:20:32Z</time>
      </trkpt>
      <trkpt lat="41.1428010" lon="-8.6130200">
        <ele>57.4</ele>
        <time>2015-03-23T15:20:38Z</time>
      </trkpt>
      <trkpt lat="41.1426960" lon="-8.6130340">
        <ele>56.7</ele>
        <time>2015-03-23T15:20:48Z</time>
      </trkpt>
      <trkpt lat="41.1426130" lon="-8.6130070">
        <ele>53.9</ele>
        <time>2015-03-23T15:20:55Z</time>
      </trkpt>
      <trkpt lat="41.1425590" lon="-8.6130210">
        <ele>53.7</ele>
        <time>2015-03-23T15:21:00Z</time>
      </trkpt>
      <trkpt lat="41.1424780" lon="-8.6131310">
        <ele>52.3</ele>
        <time>2015-03-23T15:21:15Z</time>
      </trkpt>
      <trkpt lat="41.1426200" lon="-8.6133130">
        <ele>52.7</ele>
        <time>2015-03-23T15:21:29Z</time>
      </trkpt>
      <trkpt lat="41.1427450" lon="-8.6134690">
        <ele>53.7</ele>
        <time>2015-03-23T15:21:35Z</time>
      </trkpt>
      <trkpt lat="41.1427630" lon="-8.6136550">
        <ele>53.4</ele>
        <time>2015-03-23T15:21:42Z</time>
      </trkpt>
      <trkpt lat="41.1428830" lon="-8.6139170">
        <ele>53.7</ele>
        <time>2015-03-23T15:21:49Z</time>
      </trkpt>
      <trkpt lat="41.1427860" lon="-8.6140600">
        <ele>54.3</ele>
        <time>2015-03-23T15:21:51Z</time>
      </trkpt>
      <trkpt lat="41.1427760" lon="-8.6141320">
        <ele>54.4</ele>
        <time>2015-03-23T15:21:53Z</time>
      </trkpt>
      <trkpt lat="41.1427660" lon="-8.6142020">
        <ele>54.6</ele>
        <time>2015-03-23T15:24:12Z</time>
      </trkpt>
      <trkpt lat="41.1428440" lon="-8.6143480">
        <ele>55.8</ele>
        <time>2015-03-23T15:24:24Z</time>
      </trkpt>
      <trkpt lat="41.1428880" lon="-8.6145480">
        <ele>57.0</ele>
        <time>2015-03-23T15:24:35Z</time>
      </trkpt>
      <trkpt lat="41.1429100" lon="-8.6146020">
        <ele>57.3</ele>
        <time>2015-03-23T15:24:38Z</time>
      </trkpt>
      <trkpt lat="41.1429290" lon="-8.6146780">
        <ele>59.1</ele>
        <time>2015-03-23T15:24:43Z</time>
      </trkpt>
      <trkpt lat="41.1431580" lon="-8.6146330">
        <ele>62.2</ele>
        <time>2015-03-23T15:24:59Z</time>
      </trkpt>
      <trkpt lat="41.1433660" lon="-8.6144990">
        <ele>64.5</ele>
        <time>2015-03-23T15:25:14Z</time>
      </trkpt>
      <trkpt lat="41.1434310" lon="-8.6144610">
        <ele>64.4</ele>
        <time>2015-03-23T15:25:27Z</time>
      </trkpt>
      <trkpt lat="41.1435530" lon="-8.6143960">
        <ele>63.7</ele>
        <time>2015-03-23T15:25:42Z</time>
      </trkpt>
      <trkpt lat="41.1436520" lon="-8.6142350">
        <ele>63.9</ele>
        <time>2015-03-23T15:25:59Z</time>
      </trkpt>
      <trkpt lat="41.1437470" lon="-8.6140790">
        <ele>63.7</ele>
        <time>2015-03-23T15:26:12Z</time>
      </trkpt>
      <trkpt lat="41.1439110" lon="-8.6138260">
        <ele>64.0</ele>
        <time>2015-03-23T15:26:27Z</time>
      </trkpt>
      <trkpt lat="41.1439950" lon="-8.6136930">
        <ele>64.4</ele>
        <time>2015-03-23T15:26:35Z</time>
      </trkpt>
      <trkpt lat="41.1440440" lon="-8.6136480">
        <ele>64.6</ele>
        <time>2015-03-23T15:26:39Z</time>
      </trkpt>
      <trkpt lat="41.1441800" lon="-8.6136600">
        <ele>65.5</ele>
        <time>2015-03-23T15:36:04Z</time>
      </trkpt>
      <trkpt lat="41.1442350" lon="-8.6137530">
        <ele>66.4</ele>
        <time>2015-03-23T15:36:13Z</time>
      </trkpt>
      <trkpt lat="41.1443060" lon="-8.6138660">
        <ele>68.0</ele>
        <time>2015-03-23T15:36:28Z</time>
      </trkpt>
      <trkpt lat="41.1443910" lon="-8.6140670">
        <ele>71.3</ele>
        <time>2015-03-23T15:36:43Z</time>
      </trkpt>
      <trkpt lat="41.1444880" lon="-8.6142200">
        <ele>74.1</ele>
        <time>2015-03-23T15:37:00Z</time>
      </trkpt>
      <trkpt lat="41.1445430" lon="-8.6141900">
        <ele>73.7</ele>
        <time>2015-03-23T15:37:12Z</time>
      </trkpt>
      <trkpt lat="41.1446550" lon="-8.6140800">
        <ele>72.8</ele>
        <time>2015-03-23T15:37:28Z</time>
      </trkpt>
      <trkpt lat="41.1446970" lon="-8.6140440">
        <ele>72.6</ele>
        <time>2015-03-23T15:37:40Z</time>
      </trkpt>
      <trkpt lat="41.1448710" lon="-8.6138420">
        <ele>72.5</ele>
        <time>2015-03-23T15:38:02Z</time>
      </trkpt>
      <trkpt lat="41.1449990" lon="-8.6137450">
        <ele>72.5</ele>
        <time>2015-03-23T15:38:17Z</time>
      </trkpt>
      <trkpt lat="41.1451600" lon="-8.6136270">
        <ele>73.4</ele>
        <time>2015-03-23T15:38:34Z</time>
      </trkpt>
      <trkpt lat="41.1452560" lon="-8.6135590">
        <ele>74.1</ele>
        <time>2015-03-23T15:38:45Z</time>
      </trkpt>
      <trkpt lat="41.1453200" lon="-8.6134410">
        <ele>73.0</ele>
        <time>2015-03-23T15:38:55Z</time>
      </trkpt>
      <trkpt lat="41.1454530" lon="-8.6134380">
        <ele>74.1</ele>
        <time>2015-03-23T15:39:09Z</time>
      </trkpt>
      <trkpt lat="41.1455430" lon="-8.6134810">
        <ele>75.1</ele>
        <time>2015-03-23T15:39:21Z</time>
      </trkpt>
      <trkpt lat="41.1457070" lon="-8.6135010">
        <ele>76.5</ele>
        <time>2015-03-23T15:39:38Z</time>
      </trkpt>
      <trkpt lat="41.1456660" lon="-8.6135260">
        <ele>76.3</ele>
        <time>2015-03-24T08:51:33Z</time>
      </trkpt>
      <trkpt lat="41.1456110" lon="-8.6135300">
        <ele>76.1</ele>
        <time>2015-03-24T08:52:23Z</time>
      </trkpt>
      <trkpt lat="41.1454400" lon="-8.6134730">
        <ele>74.1</ele>
        <time>2015-03-24T08:52:40Z</time>
      </trkpt>
      <trkpt lat="41.1453690" lon="-8.6134610">
        <ele>73.0</ele>
        <time>2015-03-24T08:52:55Z</time>
      </trkpt>
      <trkpt lat="41.1452990" lon="-8.6134400">
        <ele>73.5</ele>
        <time>2015-03-24T08:53:04Z</time>
      </trkpt>
      <trkpt lat="41.1452500" lon="-8.6135510">
        <ele>74.1</ele>
        <time>2015-03-24T08:53:14Z</time>
      </trkpt>
      <trkpt lat="41.1452040" lon="-8.6137430">
        <ele>76.5</ele>
        <time>2015-03-24T08:53:30Z</time>
      </trkpt>
      <trkpt lat="41.1451770" lon="-8.6138900">
        <ele>78.1</ele>
        <time>2015-03-24T08:53:44Z</time>
      </trkpt>
      <trkpt lat="41.1451260" lon="-8.6140540">
        <ele>79.9</ele>
        <time>2015-03-24T08:54:00Z</time>
      </trkpt>
      <trkpt lat="41.1450650" lon="-8.6142480">
        <ele>81.8</ele>
        <time>2015-03-24T08:54:18Z</time>
      </trkpt>
      <trkpt lat="41.1450200" lon="-8.6145010">
        <ele>84.1</ele>
        <time>2015-03-24T08:54:36Z</time>
      </trkpt>
      <trkpt lat="41.1450030" lon="-8.6146310">
        <ele>85.5</ele>
        <time>2015-03-24T08:54:44Z</time>
      </trkpt>
      <trkpt lat="41.1449890" lon="-8.6147760">
        <ele>86.6</ele>
        <time>2015-03-24T08:54:54Z</time>
      </trkpt>
      <trkpt lat="41.1449080" lon="-8.6150230">
        <ele>89.6</ele>
        <time>2015-03-24T08:55:12Z</time>
      </trkpt>
      <trkpt lat="41.1449340" lon="-8.6152640">
        <ele>90.3</ele>
        <time>2015-03-24T08:55:30Z</time>
      </trkpt>
      <trkpt lat="41.1450490" lon="-8.6154690">
        <ele>91.0</ele>
        <time>2015-03-24T08:55:49Z</time>
      </trkpt>
      <trkpt lat="41.1452430" lon="-8.6155520">
        <ele>90.8</ele>
        <time>2015-03-24T08:56:09Z</time>
      </trkpt>
      <trkpt lat="41.1453280" lon="-8.6155510">
        <ele>90.8</ele>
        <time>2015-03-24T08:56:16Z</time>
      </trkpt>
      <trkpt lat="41.1455080" lon="-8.6156790">
        <ele>91.1</ele>
        <time>2015-03-24T08:56:36Z</time>
      </trkpt>
      <trkpt lat="41.1456190" lon="-8.6156800">
        <ele>91.2</ele>
        <time>2015-03-24T08:57:24Z</time>
      </trkpt>
      <trkpt lat="41.1456500" lon="-8.6156170">
        <ele>91.2</ele>
        <time>2015-03-24T08:58:00Z</time>
      </trkpt>
      <trkpt lat="41.1458030" lon="-8.6157830">
        <ele>91.3</ele>
        <time>2015-03-24T08:58:35Z</time>
      </trkpt>
      <trkpt lat="41.1459670" lon="-8.6160860">
        <ele>90.5</ele>
        <time>2015-03-24T08:58:47Z</time>
      </trkpt>
      <trkpt lat="41.1462400" lon="-8.6162230">
        <ele>89.4</ele>
        <time>2015-03-24T08:59:00Z</time>
      </trkpt>
      <trkpt lat="41.1466240" lon="-8.6161360">
        <ele>88.7</ele>
        <time>2015-03-24T08:59:16Z</time>
      </trkpt>
      <trkpt lat="41.1469820" lon="-8.6160330">
        <ele>89.5</ele>
        <time>2015-03-24T08:59:31Z</time>
      </trkpt>
      <trkpt lat="41.1471190" lon="-8.6160140">
        <ele>90.4</ele>
        <time>2015-03-24T08:59:44Z</time>
      </trkpt>
      <trkpt lat="41.1471900" lon="-8.6159570">
        <ele>91.3</ele>
        <time>2015-03-24T09:00:13Z</time>
      </trkpt>
      <trkpt lat="41.1472380" lon="-8.6159300">
        <ele>91.9</ele>
        <time>2015-03-24T09:00:16Z</time>
      </trkpt>
      <trkpt lat="41.1473170" lon="-8.6159740">
        <ele>91.8</ele>
        <time>2015-03-24T09:00:21Z</time>
      </trkpt>
      <trkpt lat="41.1476830" lon="-8.6160070">
        <ele>92.1</ele>
        <time>2015-03-24T09:00:36Z</time>
      </trkpt>
      <trkpt lat="41.1480170" lon="-8.6160250">
        <ele>92.3</ele>
        <time>2015-03-24T09:00:49Z</time>
      </trkpt>
      <trkpt lat="41.1482110" lon="-8.6160900">
        <ele>92.5</ele>
        <time>2015-03-24T09:00:57Z</time>
      </trkpt>
      <trkpt lat="41.1486120" lon="-8.6162310">
        <ele>92.9</ele>
        <time>2015-03-24T09:01:12Z</time>
      </trkpt>
      <trkpt lat="41.1488270" lon="-8.6162800">
        <ele>93.0</ele>
        <time>2015-03-24T09:01:20Z</time>
      </trkpt>
      <trkpt lat="41.1491010" lon="-8.6163720">
        <ele>92.6</ele>
        <time>2015-03-24T09:01:31Z</time>
      </trkpt>
      <trkpt lat="41.1495050" lon="-8.6165840">
        <ele>91.1</ele>
        <time>2015-03-24T09:01:45Z</time>
      </trkpt>
      <trkpt lat="41.1495770" lon="-8.6166180">
        <ele>91.0</ele>
        <time>2015-03-24T09:01:47Z</time>
      </trkpt>
      <trkpt lat="41.1500940" lon="-8.6168670">
        <ele>89.8</ele>
        <time>2015-03-24T09:02:02Z</time>
      </trkpt>
      <trkpt lat="41.1502860" lon="-8.6169610">
        <ele>89.6</ele>
        <time>2015-03-24T09:02:09Z</time>
      </trkpt>
      <trkpt lat="41.1503340" lon="-8.6169950">
        <ele>89.7</ele>
        <time>2015-03-24T09:02:11Z</time>
      </trkpt>
      <trkpt lat="41.1507530" lon="-8.6172320">
        <ele>90.0</ele>
        <time>2015-03-24T09:02:26Z</time>
      </trkpt>
      <trkpt lat="41.1512350" lon="-8.6174360">
        <ele>91.0</ele>
        <time>2015-03-24T09:02:42Z</time>
      </trkpt>
      <trkpt lat="41.1514000" lon="-8.6175350">
        <ele>91.8</ele>
        <time>2015-03-24T09:02:48Z</time>
      </trkpt>
      <trkpt lat="41.1515400" lon="-8.6176410">
        <ele>92.1</ele>
        <time>2015-03-24T09:02:54Z</time>
      </trkpt>
      <trkpt lat="41.1519620" lon="-8.6179060">
        <ele>92.7</ele>
        <time>2015-03-24T09:03:11Z</time>
      </trkpt>
      <trkpt lat="41.147536" lon="-8.657310">
        <ele>26.518</ele>
        <time>2019-04-28T08:16:21Z</time>
      </trkpt>
      <trkpt lat="41.147662" lon="-8.657117">
        <ele>24.698</ele>
        <time>2019-04-28T08:16:34Z</time>
      </trkpt>
      <trkpt lat="41.147878" lon="-8.656696">
        <ele>22.717</ele>
        <time>2019-04-28T08:16:41Z</time>
      </trkpt>
      <trkpt lat="41.148383" lon="-8.655719">
        <ele>23.208</ele>
        <time>2019-04-28T08:16:57Z</time>
      </trkpt>
      <trkpt lat="41.148438" lon="-8.655614">
        <ele>23.614</ele>
        <time>2019-04-28T08:16:59Z</time>
      </trkpt>
      <trkpt lat="41.148557" lon="-8.655426">
        <ele>23.287</ele>
        <time>2019-04-28T08:17:03Z</time>
      </trkpt>
      <trkpt lat="41.148649" lon="-8.655215">
        <ele>22.783</ele>
        <time>2019-04-28T08:17:07Z</time>
      </trkpt>
      <trkpt lat="41.148789" lon="-8.654448">
        <ele>16.421</ele>
        <time>2019-04-28T08:17:16Z</time>
      </trkpt>
      <trkpt lat="41.148886" lon="-8.654248">
        <ele>13.629</ele>
        <time>2019-04-28T08:17:20Z</time>
      </trkpt>
      <trkpt lat="41.148782" lon="-8.654039">
        <ele>9.291</ele>
        <time>2019-04-28T08:17:27Z</time>
      </trkpt>
      <trkpt lat="41.148586" lon="-8.654332">
        <ele>8.311</ele>
        <time>2019-04-28T08:17:38Z</time>
      </trkpt>
      <trkpt lat="41.148460" lon="-8.654614">
        <ele>8.785</ele>
        <time>2019-04-28T08:17:50Z</time>
      </trkpt>
      <trkpt lat="41.148263" lon="-8.654929">
        <ele>12.126</ele>
        <time>2019-04-28T08:18:02Z</time>
      </trkpt>
      <trkpt lat="41.147984" lon="-8.655497">
        <ele>14.047</ele>
        <time>2019-04-28T08:18:16Z</time>
      </trkpt>
      <trkpt lat="41.147905" lon="-8.655618">
        <ele>14.011</ele>
        <time>2019-04-28T08:18:19Z</time>
      </trkpt>
      <trkpt lat="41.147523" lon="-8.656307">
        <ele>14.508</ele>
        <time>2019-04-28T08:18:33Z</time>
      </trkpt>
      <trkpt lat="41.147259" lon="-8.656867">
        <ele>15.515</ele>
        <time>2019-04-28T08:18:45Z</time>
      </trkpt>
      <trkpt lat="41.146836" lon="-8.657763">
        <ele>13.628</ele>
        <time>2019-04-28T08:19:02Z</time>
      </trkpt>
      <trkpt lat="41.146800" lon="-8.657890">
        <ele>12.694</ele>
        <time>2019-04-28T08:19:04Z</time>
      </trkpt>
      <trkpt lat="41.146766" lon="-8.658159">
        <ele>11.692</ele>
        <time>2019-04-28T08:19:08Z</time>
      </trkpt>
      <trkpt lat="41.146905" lon="-8.659166">
        <ele>12.180</ele>
        <time>2019-04-28T08:19:23Z</time>
      </trkpt>
      <trkpt lat="41.147039" lon="-8.659807">
        <ele>12.192</ele>
        <time>2019-04-28T08:19:33Z</time>
      </trkpt>
      <trkpt lat="41.147259" lon="-8.660564">
        <ele>11.192</ele>
        <time>2019-04-28T08:19:46Z</time>
      </trkpt>
      <trkpt lat="41.147539" lon="-8.661450">
        <ele>10.766</ele>
        <time>2019-04-28T08:20:02Z</time>
      </trkpt>
      <trkpt lat="41.147737" lon="-8.662384">
        <ele>11.194</ele>
        <time>2019-04-28T08:20:18Z</time>
      </trkpt>
      <trkpt lat="41.147904" lon="-8.663289">
        <ele>9.757</ele>
        <time>2019-04-28T08:20:33Z</time>
      </trkpt>
      <trkpt lat="41.148060" lon="-8.664101">
        <ele>12.122</ele>
        <time>2019-04-28T08:20:48Z</time>
      </trkpt>
      <trkpt lat="41.148124" lon="-8.664606">
        <ele>12.108</ele>
        <time>2019-04-28T08:20:58Z</time>
      </trkpt>
      <trkpt lat="41.148125" lon="-8.664923">
        <ele>12.152</ele>
        <time>2019-04-28T08:21:04Z</time>
      </trkpt>
      <trkpt lat="41.148024" lon="-8.665384">
        <ele>11.645</ele>
        <time>2019-04-28T08:21:12Z</time>
      </trkpt>
      <trkpt lat="41.147977" lon="-8.665492">
        <ele>11.171</ele>
        <time>2019-04-28T08:21:14Z</time>
      </trkpt>
      <trkpt lat="41.147654" lon="-8.666221">
        <ele>9.219</ele>
        <time>2019-04-28T08:21:27Z</time>
      </trkpt>
      <trkpt lat="41.147555" lon="-8.666444">
        <ele>9.257</ele>
        <time>2019-04-28T08:21:31Z</time>
      </trkpt>
      <trkpt lat="41.147465" lon="-8.666656">
        <ele>8.759</ele>
        <time>2019-04-28T08:21:35Z</time>
      </trkpt>
      <trkpt lat="41.147425" lon="-8.666995">
        <ele>7.389</ele>
        <time>2019-04-28T08:21:41Z</time>
      </trkpt>
      <trkpt lat="41.147446" lon="-8.667109">
        <ele>7.853</ele>
        <time>2019-04-28T08:21:43Z</time>
      </trkpt>
      <trkpt lat="41.147749" lon="-8.667914">
        <ele>8.779</ele>
        <time>2019-04-28T08:21:58Z</time>
      </trkpt>
      <trkpt lat="41.147912" lon="-8.668288">
        <ele>8.705</ele>
        <time>2019-04-28T08:22:05Z</time>
      </trkpt>
      <trkpt lat="41.148068" lon="-8.668676">
        <ele>8.725</ele>
        <time>2019-04-28T08:22:12Z</time>
      </trkpt>
      <trkpt lat="41.148411" lon="-8.669541">
        <ele>9.708</ele>
        <time>2019-04-28T08:22:28Z</time>
      </trkpt>
      <trkpt lat="41.148544" lon="-8.669934">
        <ele>8.730</ele>
        <time>2019-04-28T08:22:38Z</time>
      </trkpt>
      <trkpt lat="41.148696" lon="-8.670353">
        <ele>9.743</ele>
        <time>2019-04-28T08:22:48Z</time>
      </trkpt>
      <trkpt lat="41.148726" lon="-8.670453">
        <ele>10.219</ele>
        <time>2019-04-28T08:22:50Z</time>
      </trkpt>
      <trkpt lat="41.148766" lon="-8.670558">
        <ele>10.777</ele>
        <time>2019-04-28T08:22:52Z</time>
      </trkpt>
      <trkpt lat="41.148870" lon="-8.670762">
        <ele>10.255</ele>
        <time>2019-04-28T08:22:56Z</time>
      </trkpt>
      <trkpt lat="41.149039" lon="-8.671208">
        <ele>10.747</ele>
        <time>2019-04-28T08:23:04Z</time>
      </trkpt>
      <trkpt lat="41.149063" lon="-8.671446">
        <ele>10.717</ele>
        <time>2019-04-28T08:23:08Z</time>
      </trkpt>
      <trkpt lat="41.149078" lon="-8.672581">
        <ele>10.721</ele>
        <time>2019-04-28T08:23:27Z</time>
      </trkpt>
      <trkpt lat="41.149068" lon="-8.672852">
        <ele>11.111</ele>
        <time>2019-04-28T08:23:32Z</time>
      </trkpt>
      <trkpt lat="41.148940" lon="-8.672972">
        <ele>11.621</ele>
        <time>2019-04-28T08:23:36Z</time>
      </trkpt>
      <trkpt lat="41.148696" lon="-8.673152">
        <ele>11.103</ele>
        <time>2019-04-28T08:23:43Z</time>
      </trkpt>
      <trkpt lat="41.148408" lon="-8.673814">
        <ele>11.608</ele>
        <time>2019-04-28T08:23:58Z</time>
      </trkpt>
      <trkpt lat="41.148184" lon="-8.674414">
        <ele>12.114</ele>
        <time>2019-04-28T08:24:13Z</time>
      </trkpt>
      <trkpt lat="41.148115" lon="-8.674685">
        <ele>11.177</ele>
        <time>2019-04-28T08:24:21Z</time>
      </trkpt>
      <trkpt lat="41.148155" lon="-8.674880">
        <ele>11.113</ele>
        <time>2019-04-28T08:24:29Z</time>
      </trkpt>
      <trkpt lat="41.148575" lon="-8.675367">
        <ele>13.131</ele>
        <time>2019-04-28T08:24:48Z</time>
      </trkpt>
      <trkpt lat="41.149031" lon="-8.675735">
        <ele>14.039</ele>
        <time>2019-04-28T08:25:05Z</time>
      </trkpt>
      <trkpt lat="41.149444" lon="-8.676041">
        <ele>15.561</ele>
        <time>2019-04-28T08:25:20Z</time>
      </trkpt>
      <trkpt lat="41.149939" lon="-8.676295">
        <ele>16.071</ele>
        <time>2019-04-28T08:25:35Z</time>
      </trkpt>
      <trkpt lat="41.150021" lon="-8.676334">
        <ele>15.035</ele>
        <time>2019-04-28T08:25:37Z</time>
      </trkpt>
      <trkpt lat="41.150440" lon="-8.676674">
        <ele>15.085</ele>
        <time>2019-04-28T08:25:47Z</time>
      </trkpt>
      <trkpt lat="41.150949" lon="-8.677323">
        <ele>13.689</ele>
        <time>2019-04-28T08:26:02Z</time>
      </trkpt>
      <trkpt lat="41.151127" lon="-8.677599">
        <ele>14.017</ele>
        <time>2019-04-28T08:26:08Z</time>
      </trkpt>
      <trkpt lat="41.151189" lon="-8.677681">
        <ele>14.008</ele>
        <time>2019-04-28T08:26:10Z</time>
      </trkpt>
      <trkpt lat="41.151337" lon="-8.677772">
        <ele>13.151</ele>
        <time>2019-04-28T08:26:14Z</time>
      </trkpt>
      <trkpt lat="41.152091" lon="-8.678090">
        <ele>13.674</ele>
        <time>2019-04-28T08:26:33Z</time>
      </trkpt>
      <trkpt lat="41.152687" lon="-8.678471">
        <ele>14.560</ele>
        <time>2019-04-28T08:26:51Z</time>
      </trkpt>
      <trkpt lat="41.153312" lon="-8.678898">
        <ele>17.438</ele>
        <time>2019-04-28T08:27:11Z</time>
      </trkpt>
      <trkpt lat="41.153376" lon="-8.678954">
        <ele>17.956</ele>
        <time>2019-04-28T08:27:13Z</time>
      </trkpt>
      <trkpt lat="41.154058" lon="-8.679408">
        <ele>18.498</ele>
        <time>2019-04-28T08:27:30Z</time>
      </trkpt>
      <trkpt lat="41.154135" lon="-8.679492">
        <ele>17.968</ele>
        <time>2019-04-28T08:27:32Z</time>
      </trkpt>
      <trkpt lat="41.154729" lon="-8.679984">
        <ele>17.472</ele>
        <time>2019-04-28T08:27:46Z</time>
      </trkpt>
      <trkpt lat="41.154950" lon="-8.680163">
        <ele>16.048</ele>
        <time>2019-04-28T08:27:51Z</time>
      </trkpt>
      <trkpt lat="41.155111" lon="-8.680303">
        <ele>15.561</ele>
        <time>2019-04-28T08:27:55Z</time>
      </trkpt>
      <trkpt lat="41.155303" lon="-8.680465">
        <ele>14.517</ele>
        <time>2019-04-28T08:28:00Z</time>
      </trkpt>
      <trkpt lat="41.155789" lon="-8.680860">
        <ele>14.008</ele>
        <time>2019-04-28T08:28:13Z</time>
      </trkpt>
      <trkpt lat="41.156355" lon="-8.681337">
        <ele>14.017</ele>
        <time>2019-04-28T08:28:29Z</time>
      </trkpt>
      <trkpt lat="41.156460" lon="-8.681422">
        <ele>14.050</ele>
        <time>2019-04-28T08:28:32Z</time>
      </trkpt>
      <trkpt lat="41.156705" lon="-8.681729">
        <ele>12.646</ele>
        <time>2019-04-28T08:28:44Z</time>
      </trkpt>
      <trkpt lat="41.156695" lon="-8.681743">
        <ele>11.694</ele>
        <time>2019-04-28T08:29:00Z</time>
      </trkpt>
      <trkpt lat="41.156700" lon="-8.681744">
        <ele>11.692</ele>
        <time>2019-04-28T08:29:38Z</time>
      </trkpt>
      <trkpt lat="41.156694" lon="-8.681733">
        <ele>13.144</ele>
        <time>2019-04-28T08:30:16Z</time>
      </trkpt>
      <trkpt lat="41.156687" lon="-8.681737">
        <ele>13.684</ele>
        <time>2019-04-28T08:30:43Z</time>
      </trkpt>
      <trkpt lat="41.156708" lon="-8.681731">
        <ele>13.188</ele>
        <time>2019-04-28T08:30:58Z</time>
      </trkpt>
      <trkpt lat="41.156788" lon="-8.681747">
        <ele>13.122</ele>
        <time>2019-04-28T08:31:02Z</time>
      </trkpt>
      <trkpt lat="41.157245" lon="-8.682127">
        <ele>12.662</ele>
        <time>2019-04-28T08:31:16Z</time>
      </trkpt>
      <trkpt lat="41.157577" lon="-8.682399">
        <ele>13.108</ele>
        <time>2019-04-28T08:31:25Z</time>
      </trkpt>
      <trkpt lat="41.157807" lon="-8.682575">
        <ele>14.508</ele>
        <time>2019-04-28T08:31:31Z</time>
      </trkpt>
      <trkpt lat="41.158030" lon="-8.682757">
        <ele>16.085</ele>
        <time>2019-04-28T08:31:37Z</time>
      </trkpt>
      <trkpt lat="41.158789" lon="-8.683393">
        <ele>18.488</ele>
        <time>2019-04-28T08:31:57Z</time>
      </trkpt>
      <trkpt lat="41.159508" lon="-8.683942">
        <ele>19.884</ele>
        <time>2019-04-28T08:32:15Z</time>
      </trkpt>
      <trkpt lat="41.159587" lon="-8.683990">
        <ele>19.322</ele>
        <time>2019-04-28T08:32:17Z</time>
      </trkpt>
      <trkpt lat="41.160289" lon="-8.684382">
        <ele>18.840</ele>
        <time>2019-04-28T08:32:34Z</time>
      </trkpt>
      <trkpt lat="41.160540" lon="-8.684527">
        <ele>18.882</ele>
        <time>2019-04-28T08:32:40Z</time>
      </trkpt>
      <trkpt lat="41.161325" lon="-8.684972">
        <ele>19.362</ele>
        <time>2019-04-28T08:32:59Z</time>
      </trkpt>
      <trkpt lat="41.161869" lon="-8.685274">
        <ele>19.386</ele>
        <time>2019-04-28T08:33:12Z</time>
      </trkpt>
      <trkpt lat="41.162561" lon="-8.685666">
        <ele>17.918</ele>
        <time>2019-04-28T08:33:27Z</time>
      </trkpt>
      <trkpt lat="41.163656" lon="-8.686277">
        <ele>17.498</ele>
        <time>2019-04-28T08:33:50Z</time>
      </trkpt>
      <trkpt lat="41.164319" lon="-8.686648">
        <ele>17.417</ele>
        <time>2019-04-28T08:34:05Z</time>
      </trkpt>
      <trkpt lat="41.164697" lon="-8.686863">
        <ele>19.308</ele>
        <time>2019-04-28T08:34:15Z</time>
      </trkpt>
      <trkpt lat="41.164844" lon="-8.686950">
        <ele>19.814</ele>
        <time>2019-04-28T08:34:19Z</time>
      </trkpt>
      <trkpt lat="41.165578" lon="-8.687373">
        <ele>20.397</ele>
        <time>2019-04-28T08:34:38Z</time>
      </trkpt>
      <trkpt lat="41.166242" lon="-8.687736">
        <ele>19.343</ele>
        <time>2019-04-28T08:34:55Z</time>
      </trkpt>
      <trkpt lat="41.166855" lon="-8.688085">
        <ele>19.331</ele>
        <time>2019-04-28T08:35:11Z</time>
      </trkpt>
      <trkpt lat="41.167021" lon="-8.688186">
        <ele>18.829</ele>
        <time>2019-04-28T08:35:16Z</time>
      </trkpt>
      <trkpt lat="41.167173" lon="-8.688528">
        <ele>17.411</ele>
        <time>2019-04-28T08:35:23Z</time>
      </trkpt>
      <trkpt lat="41.167171" lon="-8.688649">
        <ele>17.431</ele>
        <time>2019-04-28T08:35:25Z</time>
      </trkpt>
      <trkpt lat="41.167210" lon="-8.688883">
        <ele>16.985</ele>
        <time>2019-04-28T08:35:29Z</time>
      </trkpt>
      <trkpt lat="41.167291" lon="-8.689108">
        <ele>15.589</ele>
        <time>2019-04-28T08:35:33Z</time>
      </trkpt>
      <trkpt lat="41.167368" lon="-8.689268">
        <ele>15.006</ele>
        <time>2019-04-28T08:35:36Z</time>
      </trkpt>
      <trkpt lat="41.167473" lon="-8.689408">
        <ele>14.526</ele>
        <time>2019-04-28T08:35:39Z</time>
      </trkpt>
      <trkpt lat="41.167792" lon="-8.689572">
        <ele>13.608</ele>
        <time>2019-04-28T08:35:46Z</time>
      </trkpt>
      <trkpt lat="41.168354" lon="-8.689380">
        <ele>14.041</ele>
        <time>2019-04-28T08:35:59Z</time>
      </trkpt>
      <trkpt lat="41.168552" lon="-8.689255">
        <ele>13.694</ele>
        <time>2019-04-28T08:36:04Z</time>
      </trkpt>
      <trkpt lat="41.168660" lon="-8.689063">
        <ele>12.660</ele>
        <time>2019-04-28T08:36:08Z</time>
      </trkpt>
      <trkpt lat="41.168802" lon="-8.688467">
        <ele>10.728</ele>
        <time>2019-04-28T08:36:16Z</time>
      </trkpt>
      <trkpt lat="41.169049" lon="-8.687919">
        <ele>11.146</ele>
        <time>2019-04-28T08:36:24Z</time>
      </trkpt>
      <trkpt lat="41.169310" lon="-8.687788">
        <ele>11.158</ele>
        <time>2019-04-28T08:36:30Z</time>
      </trkpt>
      <trkpt lat="41.169690" lon="-8.687837">
        <ele>11.168</ele>
        <time>2019-04-28T08:36:42Z</time>
      </trkpt>
      <trkpt lat="41.169792" lon="-8.687694">
        <ele>10.782</ele>
        <time>2019-04-28T08:36:47Z</time>
      </trkpt>
      <trkpt lat="41.169838" lon="-8.687336">
        <ele>10.771</ele>
        <time>2019-04-28T08:36:55Z</time>
      </trkpt>
      <trkpt lat="41.169958" lon="-8.687264">
        <ele>11.641</ele>
        <time>2019-04-28T08:36:59Z</time>
      </trkpt>
      <trkpt lat="41.170350" lon="-8.687130">
        <ele>12.615</ele>
        <time>2019-04-28T08:37:11Z</time>
      </trkpt>
      <trkpt lat="41.170792" lon="-8.687322">
        <ele>12.108</ele>
        <time>2019-04-28T08:37:26Z</time>
      </trkpt>
      <trkpt lat="41.171236" lon="-8.687905">
        <ele>15.040</ele>
        <time>2019-04-28T08:37:41Z</time>
      </trkpt>
      <trkpt lat="41.171634" lon="-8.688317">
        <ele>18.863</ele>
        <time>2019-04-28T08:37:54Z</time>
      </trkpt>
      <trkpt lat="41.172027" lon="-8.688759">
        <ele>18.849</ele>
        <time>2019-04-28T08:38:08Z</time>
      </trkpt>
      <trkpt lat="41.172368" lon="-8.689061">
        <ele>16.077</ele>
        <time>2019-04-28T08:38:19Z</time>
      </trkpt>
      <trkpt lat="41.172806" lon="-8.689164">
        <ele>13.685</ele>
        <time>2019-04-28T08:38:31Z</time>
      </trkpt>
      <trkpt lat="41.173287" lon="-8.689360">
        <ele>13.177</ele>
        <time>2019-04-28T08:38:45Z</time>
      </trkpt>
      <trkpt lat="41.173786" lon="-8.689303">
        <ele>12.187</ele>
        <time>2019-04-28T08:38:58Z</time>
      </trkpt>
      <trkpt lat="41.173985" lon="-8.689348">
        <ele>11.621</ele>
        <time>2019-04-28T08:39:03Z</time>
      </trkpt>
      <trkpt lat="41.174277" lon="-8.689577">
        <ele>11.618</ele>
        <time>2019-04-28T08:39:11Z</time>
      </trkpt>
      <trkpt lat="41.174913" lon="-8.690089">
        <ele>12.698</ele>
        <time>2019-04-28T08:39:28Z</time>
      </trkpt>
      <trkpt lat="41.175689" lon="-8.690687">
        <ele>15.017</ele>
        <time>2019-04-28T08:39:48Z</time>
      </trkpt>
      <trkpt lat="41.176455" lon="-8.691293">
        <ele>15.008</ele>
        <time>2019-04-28T08:40:08Z</time>
      </trkpt>
      <trkpt lat="41.177067" lon="-8.691779">
        <ele>14.084</ele>
        <time>2019-04-28T08:40:24Z</time>
      </trkpt>
      <trkpt lat="41.177180" lon="-8.691876">
        <ele>14.027</ele>
        <time>2019-04-28T08:40:27Z</time>
      </trkpt>
      <trkpt lat="41.177924" lon="-8.692465">
        <ele>12.183</ele>
        <time>2019-04-28T08:40:47Z</time>
      </trkpt>
      <trkpt lat="41.178580" lon="-8.692990">
        <ele>10.711</ele>
        <time>2019-04-28T08:41:05Z</time>
      </trkpt>
      <trkpt lat="41.179390" lon="-8.693620">
        <ele>10.229</ele>
        <time>2019-04-28T08:41:27Z</time>
      </trkpt>
      <trkpt lat="41.179842" lon="-8.693838">
        <ele>11.141</ele>
        <time>2019-04-28T08:41:39Z</time>
      </trkpt>
      <trkpt lat="41.180180" lon="-8.693916">
        <ele>11.141</ele>
        <time>2019-04-28T08:41:47Z</time>
      </trkpt>
      <trkpt lat="41.180435" lon="-8.694100">
        <ele>10.755</ele>
        <time>2019-04-28T08:41:54Z</time>
      </trkpt>
      <trkpt lat="41.180774" lon="-8.694316">
        <ele>10.715</ele>
        <time>2019-04-28T08:42:03Z</time>
      </trkpt>
      <trkpt lat="41.180930" lon="-8.694306">
        <ele>11.665</ele>
        <time>2019-04-28T08:42:07Z</time>
      </trkpt>
      <trkpt lat="41.181545" lon="-8.693975">
        <ele>12.111</ele>
        <time>2019-04-28T08:42:24Z</time>
      </trkpt>
      <trkpt lat="41.181784" lon="-8.693845">
        <ele>14.008</ele>
        <time>2019-04-28T08:42:32Z</time>
      </trkpt>
      <trkpt lat="41.182162" lon="-8.694156">
        <ele>16.914</ele>
        <time>2019-04-28T08:42:46Z</time>
      </trkpt>
      <trkpt lat="41.182515" lon="-8.694440">
        <ele>18.837</ele>
        <time>2019-04-28T08:42:59Z</time>
      </trkpt>
      <trkpt lat="41.183012" lon="-8.694883">
        <ele>18.843</ele>
        <time>2019-04-28T08:43:15Z</time>
      </trkpt>
      <trkpt lat="41.183171" lon="-8.695042">
        <ele>18.451</ele>
        <time>2019-04-28T08:43:20Z</time>
      </trkpt>
      <trkpt lat="41.183790" lon="-8.695646">
        <ele>19.349</ele>
        <time>2019-04-28T08:43:38Z</time>
      </trkpt>
      <trkpt lat="41.183931" lon="-8.695780">
        <ele>19.891</ele>
        <time>2019-04-28T08:43:42Z</time>
      </trkpt>
      <trkpt lat="41.184144" lon="-8.695987">
        <ele>20.371</ele>
        <time>2019-04-28T08:43:48Z</time>
      </trkpt>
      <trkpt lat="41.184635" lon="-8.696442">
        <ele>17.915</ele>
        <time>2019-04-28T08:44:02Z</time>
      </trkpt>
      <trkpt lat="41.184838" lon="-8.696647">
        <ele>17.976</ele>
        <time>2019-04-28T08:44:08Z</time>
      </trkpt>
      <trkpt lat="41.185001" lon="-8.696746">
        <ele>17.990</ele>
        <time>2019-04-28T08:44:12Z</time>
      </trkpt>
      <trkpt lat="41.185264" lon="-8.696793">
        <ele>16.419</ele>
        <time>2019-04-28T08:44:18Z</time>
      </trkpt>
      <trkpt lat="41.185644" lon="-8.696579">
        <ele>16.908</ele>
        <time>2019-04-28T08:44:27Z</time>
      </trkpt>
      <trkpt lat="41.185731" lon="-8.696188">
        <ele>16.020</ele>
        <time>2019-04-28T08:44:35Z</time>
      </trkpt>
      <trkpt lat="41.185895" lon="-8.696023">
        <ele>15.513</ele>
        <time>2019-04-28T08:44:40Z</time>
      </trkpt>
      <trkpt lat="41.186366" lon="-8.695460">
        <ele>13.659</ele>
        <time>2019-04-28T08:44:54Z</time>
      </trkpt>
      <trkpt lat="41.186863" lon="-8.694724">
        <ele>10.737</ele>
        <time>2019-04-28T08:45:11Z</time>
      </trkpt>
      <trkpt lat="41.187387" lon="-8.693892">
        <ele>10.265</ele>
        <time>2019-04-28T08:45:30Z</time>
      </trkpt>
      <trkpt lat="41.187692" lon="-8.693246">
        <ele>9.247</ele>
        <time>2019-04-28T08:45:45Z</time>
      </trkpt>
      <trkpt lat="41.187781" lon="-8.693029">
        <ele>9.247</ele>
        <time>2019-04-28T08:45:50Z</time>
      </trkpt>
      <trkpt lat="41.187684" lon="-8.692927">
        <ele>10.221</ele>
        <time>2019-04-28T08:45:57Z</time>
      </trkpt>
      <trkpt lat="41.187577" lon="-8.692883">
        <ele>10.225</ele>
        <time>2019-04-28T08:46:02Z</time>
      </trkpt>
      <trkpt lat="41.187517" lon="-8.692755">
        <ele>9.726</ele>
        <time>2019-04-28T08:46:07Z</time>
      </trkpt>
      <trkpt lat="41.187366" lon="-8.692642">
        <ele>10.708</ele>
        <time>2019-04-28T08:46:13Z</time>
      </trkpt>
      <trkpt lat="41.187106" lon="-8.692478">
        <ele>14.508</ele>
        <time>2019-04-28T08:46:23Z</time>
      </trkpt>
      <trkpt lat="41.187030" lon="-8.692519">
        <ele>15.555</ele>
        <time>2019-04-28T08:46:26Z</time>
      </trkpt>
      <trkpt lat="41.186920" lon="-8.692512">
        <ele>16.488</ele>
        <time>2019-04-28T08:46:31Z</time>
      </trkpt>
      <trkpt lat="41.186901" lon="-8.692397">
        <ele>20.334</ele>
        <time>2019-04-28T08:46:38Z</time>
      </trkpt>
      <trkpt lat="41.187138" lon="-8.692432">
        <ele>23.292</ele>
        <time>2019-04-28T08:46:51Z</time>
      </trkpt>
      <trkpt lat="41.187310" lon="-8.692476">
        <ele>23.270</ele>
        <time>2019-04-28T08:47:00Z</time>
      </trkpt>
      <trkpt lat="41.187448" lon="-8.692527">
        <ele>21.282</ele>
        <time>2019-04-28T08:47:06Z</time>
      </trkpt>
      <trkpt lat="41.187770" lon="-8.693033">
        <ele>22.212</ele>
        <time>2019-04-28T08:47:21Z</time>
      </trkpt>
      <trkpt lat="41.188213" lon="-8.693661">
        <ele>21.786</ele>
        <time>2019-04-28T08:47:40Z</time>
      </trkpt>
      <trkpt lat="41.188557" lon="-8.694084">
        <ele>24.183</ele>
        <time>2019-04-28T08:47:54Z</time>
      </trkpt>
      <trkpt lat="41.188927" lon="-8.694501">
        <ele>25.625</ele>
        <time>2019-04-28T08:48:08Z</time>
      </trkpt>
      <trkpt lat="41.189462" lon="-8.695116">
        <ele>22.217</ele>
        <time>2019-04-28T08:48:20Z</time>
      </trkpt>
      <trkpt lat="41.190136" lon="-8.695788">
        <ele>18.808</ele>
        <time>2019-04-28T08:48:35Z</time>
      </trkpt>
      <trkpt lat="41.190545" lon="-8.696139">
        <ele>17.971</ele>
        <time>2019-04-28T08:48:44Z</time>
      </trkpt>
      <trkpt lat="41.190573" lon="-8.695984">
        <ele>16.924</ele>
        <time>2019-04-28T08:48:50Z</time>
      </trkpt>
      <trkpt lat="41.190411" lon="-8.695887">
        <ele>16.950</ele>
        <time>2019-04-28T08:48:54Z</time>
      </trkpt>
      <trkpt lat="41.190295" lon="-8.695794">
        <ele>16.018</ele>
        <time>2019-04-28T08:48:57Z</time>
      </trkpt>
      <trkpt lat="41.190158" lon="-8.695799">
        <ele>16.076</ele>
        <time>2019-04-28T08:49:02Z</time>
      </trkpt>
      <trkpt lat="41.189717" lon="-8.696177">
        <ele>12.658</ele>
        <time>2019-04-28T08:49:13Z</time>
      </trkpt>
      <trkpt lat="41.189284" lon="-8.696812">
        <ele>11.158</ele>
        <time>2019-04-28T08:49:28Z</time>
      </trkpt>
      <trkpt lat="41.188753" lon="-8.697548">
        <ele>12.152</ele>
        <time>2019-04-28T08:49:45Z</time>
      </trkpt>
      <trkpt lat="41.188172" lon="-8.698396">
        <ele>11.169</ele>
        <time>2019-04-28T08:50:04Z</time>
      </trkpt>
      <trkpt lat="41.187673" lon="-8.699149">
        <ele>9.204</ele>
        <time>2019-04-28T08:50:20Z</time>
      </trkpt>
      <trkpt lat="41.187204" lon="-8.699859">
        <ele>12.124</ele>
        <time>2019-04-28T08:50:36Z</time>
      </trkpt>
      <trkpt lat="41.186944" lon="-8.700406">
        <ele>12.608</ele>
        <time>2019-04-28T08:50:47Z</time>
      </trkpt>
      <trkpt lat="41.186850" lon="-8.700915">
        <ele>12.119</ele>
        <time>2019-04-28T08:50:56Z</time>
      </trkpt>
      <trkpt lat="41.186843" lon="-8.701026">
        <ele>12.162</ele>
        <time>2019-04-28T08:50:58Z</time>
      </trkpt>
      <trkpt lat="41.186940" lon="-8.701783">
        <ele>10.248</ele>
        <time>2019-04-28T08:51:11Z</time>
      </trkpt>
      <trkpt lat="41.187004" lon="-8.701939">
        <ele>10.246</ele>
        <time>2019-04-28T08:51:14Z</time>
      </trkpt>
      <trkpt lat="41.187389" lon="-8.702589">
        <ele>9.794</ele>
        <time>2019-04-28T08:51:28Z</time>
      </trkpt>
      <trkpt lat="41.187847" lon="-8.702915">
        <ele>10.256</ele>
        <time>2019-04-28T08:51:42Z</time>
      </trkpt>
      <trkpt lat="41.188047" lon="-8.703089">
        <ele>10.296</ele>
        <time>2019-04-28T08:51:50Z</time>
      </trkpt>
      <trkpt lat="41.188113" lon="-8.703259">
        <ele>10.220</ele>
        <time>2019-04-28T08:51:54Z</time>
      </trkpt>
      <trkpt lat="41.188388" lon="-8.703583">
        <ele>10.717</ele>
        <time>2019-04-28T08:52:04Z</time>
      </trkpt>
      <trkpt lat="41.188710" lon="-8.703946">
        <ele>11.187</ele>
        <time>2019-04-28T08:52:16Z</time>
      </trkpt>
      <trkpt lat="41.189245" lon="-8.704494">
        <ele>10.715</ele>
        <time>2019-04-28T08:52:34Z</time>
      </trkpt>
      <trkpt lat="41.189621" lon="-8.704868">
        <ele>12.108</ele>
        <time>2019-04-28T08:52:47Z</time>
      </trkpt>
      <trkpt lat="41.190154" lon="-8.705153">
        <ele>13.164</ele>
        <time>2019-04-28T08:53:02Z</time>
      </trkpt>
      <trkpt lat="41.190581" lon="-8.705599">
        <ele>12.627</ele>
        <time>2019-04-28T08:53:17Z</time>
      </trkpt>
      <trkpt lat="41.191063" lon="-8.705869">
        <ele>13.193</ele>
        <time>2019-04-28T08:53:31Z</time>
      </trkpt>
      <trkpt lat="41.191561" lon="-8.706193">
        <ele>11.631</ele>
        <time>2019-04-28T08:53:46Z</time>
      </trkpt>
      <trkpt lat="41.191968" lon="-8.706336">
        <ele>11.649</ele>
        <time>2019-04-28T08:53:58Z</time>
      </trkpt>
      <trkpt lat="41.192446" lon="-8.706676">
        <ele>12.191</ele>
        <time>2019-04-28T08:54:13Z</time>
      </trkpt>
      <trkpt lat="41.192628" lon="-8.706787">
        <ele>11.631</ele>
        <time>2019-04-28T08:54:18Z</time>
      </trkpt>
      <trkpt lat="41.193246" lon="-8.707173">
        <ele>12.615</ele>
        <time>2019-04-28T08:54:35Z</time>
      </trkpt>
      <trkpt lat="41.193789" lon="-8.707493">
        <ele>12.637</ele>
        <time>2019-04-28T08:54:50Z</time>
      </trkpt>
      <trkpt lat="41.194503" lon="-8.707995">
        <ele>12.149</ele>
        <time>2019-04-28T08:55:11Z</time>
      </trkpt>
      <trkpt lat="41.195082" lon="-8.708400">
        <ele>12.613</ele>
        <time>2019-04-28T08:55:28Z</time>
      </trkpt>
      <trkpt lat="41.195360" lon="-8.708590">
        <ele>12.608</ele>
        <time>2019-04-28T08:55:36Z</time>
      </trkpt>
      <trkpt lat="41.195938" lon="-8.709003">
        <ele>13.156</ele>
        <time>2019-04-28T08:55:52Z</time>
      </trkpt>
      <trkpt lat="41.196589" lon="-8.709438">
        <ele>13.139</ele>
        <time>2019-04-28T08:56:10Z</time>
      </trkpt>
      <trkpt lat="41.197323" lon="-8.709937">
        <ele>13.115</ele>
        <time>2019-04-28T08:56:31Z</time>
      </trkpt>
      <trkpt lat="41.197880" lon="-8.710308">
        <ele>15.043</ele>
        <time>2019-04-28T08:56:47Z</time>
      </trkpt>
      <trkpt lat="41.198546" lon="-8.710764">
        <ele>16.071</ele>
        <time>2019-04-28T08:57:06Z</time>
      </trkpt>
      <trkpt lat="41.198721" lon="-8.710887">
        <ele>16.473</ele>
        <time>2019-04-28T08:57:11Z</time>
      </trkpt>
      <trkpt lat="41.199446" lon="-8.711416">
        <ele>14.033</ele>
        <time>2019-04-28T08:57:32Z</time>
      </trkpt>
      <trkpt lat="41.200155" lon="-8.711913">
        <ele>13.687</ele>
        <time>2019-04-28T08:57:51Z</time>
      </trkpt>
      <trkpt lat="41.200877" lon="-8.712397">
        <ele>12.646</ele>
        <time>2019-04-28T08:58:10Z</time>
      </trkpt>
      <trkpt lat="41.201509" lon="-8.712825">
        <ele>12.188</ele>
        <time>2019-04-28T08:58:27Z</time>
      </trkpt>
      <trkpt lat="41.202123" lon="-8.713271">
        <ele>12.116</ele>
        <time>2019-04-28T08:58:44Z</time>
      </trkpt>
      <trkpt lat="41.202250" lon="-8.713395">
        <ele>12.108</ele>
        <time>2019-04-28T08:58:48Z</time>
      </trkpt>
      <trkpt lat="41.202765" lon="-8.713725">
        <ele>12.157</ele>
        <time>2019-04-28T08:59:02Z</time>
      </trkpt>
      <trkpt lat="41.203203" lon="-8.713994">
        <ele>11.160</ele>
        <time>2019-04-28T08:59:14Z</time>
      </trkpt>
      <trkpt lat="41.203923" lon="-8.714318">
        <ele>11.116</ele>
        <time>2019-04-28T08:59:33Z</time>
      </trkpt>
      <trkpt lat="41.204206" lon="-8.714340">
        <ele>11.114</ele>
        <time>2019-04-28T08:59:40Z</time>
      </trkpt>
      <trkpt lat="41.204286" lon="-8.714363">
        <ele>11.122</ele>
        <time>2019-04-28T08:59:42Z</time>
      </trkpt>
      <trkpt lat="41.204732" lon="-8.714786">
        <ele>13.154</ele>
        <time>2019-04-28T08:59:56Z</time>
      </trkpt>
      <trkpt lat="41.205287" lon="-8.714931">
        <ele>15.024</ele>
        <time>2019-04-28T09:00:11Z</time>
      </trkpt>
      <trkpt lat="41.205532" lon="-8.714971">
        <ele>15.518</ele>
        <time>2019-04-28T09:00:18Z</time>
      </trkpt>
      <trkpt lat="41.205727" lon="-8.715052">
        <ele>16.426</ele>
        <time>2019-04-28T09:00:24Z</time>
      </trkpt>
      <trkpt lat="41.206502" lon="-8.715276">
        <ele>16.447</ele>
        <time>2019-04-28T09:00:46Z</time>
      </trkpt>
      <trkpt lat="41.207020" lon="-8.715324">
        <ele>17.411</ele>
        <time>2019-04-28T09:01:01Z</time>
      </trkpt>
      <trkpt lat="41.207648" lon="-8.715228">
        <ele>17.408</ele>
        <time>2019-04-28T09:01:18Z</time>
      </trkpt>
      <trkpt lat="41.208158" lon="-8.715005">
        <ele>17.975</ele>
        <time>2019-04-28T09:01:33Z</time>
      </trkpt>
      <trkpt lat="41.208649" lon="-8.714859">
        <ele>17.478</ele>
        <time>2019-04-28T09:01:47Z</time>
      </trkpt>
      <trkpt lat="41.208971" lon="-8.714718">
        <ele>17.994</ele>
        <time>2019-04-28T09:01:57Z</time>
      </trkpt>
      <trkpt lat="41.209516" lon="-8.714609">
        <ele>17.412</ele>
        <time>2019-04-28T09:02:13Z</time>
      </trkpt>
      <trkpt lat="41.209966" lon="-8.714420">
        <ele>17.960</ele>
        <time>2019-04-28T09:02:28Z</time>
      </trkpt>
      <trkpt lat="41.210046" lon="-8.714369">
        <ele>17.912</ele>
        <time>2019-04-28T09:02:31Z</time>
      </trkpt>
      <trkpt lat="41.210050" lon="-8.714113">
        <ele>17.922</ele>
        <time>2019-04-28T09:02:39Z</time>
      </trkpt>
      <trkpt lat="41.209987" lon="-8.713736">
        <ele>18.476</ele>
        <time>2019-04-28T09:02:51Z</time>
      </trkpt>
      <trkpt lat="41.209991" lon="-8.713707">
        <ele>17.935</ele>
        <time>2019-04-28T09:02:54Z</time>
      </trkpt>
      <trkpt lat="41.210039" lon="-8.713632">
        <ele>17.986</ele>
        <time>2019-04-28T09:02:58Z</time>
      </trkpt>
      <trkpt lat="41.210061" lon="-8.713568">
        <ele>16.914</ele>
        <time>2019-04-28T09:03:06Z</time>
      </trkpt>
      <trkpt lat="41.210386" lon="-8.713453">
        <ele>17.408</ele>
        <time>2019-04-28T09:03:17Z</time>
      </trkpt>
      <trkpt lat="41.211146" lon="-8.713380">
        <ele>19.866</ele>
        <time>2019-04-28T09:03:35Z</time>
      </trkpt>
      <trkpt lat="41.212065" lon="-8.713284">
        <ele>19.819</ele>
        <time>2019-04-28T09:03:55Z</time>
      </trkpt>
      <trkpt lat="41.212838" lon="-8.713200">
        <ele>18.825</ele>
        <time>2019-04-28T09:04:12Z</time>
      </trkpt>
      <trkpt lat="41.213557" lon="-8.713095">
        <ele>18.883</ele>
        <time>2019-04-28T09:04:29Z</time>
      </trkpt>
      <trkpt lat="41.213538" lon="-8.713076">
        <ele>18.471</ele>
        <time>2019-04-28T09:04:40Z</time>
      </trkpt>
      <trkpt lat="41.213530" lon="-8.713071">
        <ele>17.463</ele>
        <time>2019-04-28T09:05:17Z</time>
      </trkpt>
      <trkpt lat="41.213536" lon="-8.713086">
        <ele>18.473</ele>
        <time>2019-04-28T09:05:49Z</time>
      </trkpt>
      <trkpt lat="41.213569" lon="-8.713086">
        <ele>17.997</ele>
        <time>2019-04-28T09:05:54Z</time>
      </trkpt>
      <trkpt lat="41.214014" lon="-8.713028">
        <ele>18.854</ele>
        <time>2019-04-28T09:06:07Z</time>
      </trkpt>
      <trkpt lat="41.214636" lon="-8.712962">
        <ele>19.356</ele>
        <time>2019-04-28T09:06:21Z</time>
      </trkpt>
      <trkpt lat="41.214779" lon="-8.712978">
        <ele>18.411</ele>
        <time>2019-04-28T09:06:25Z</time>
      </trkpt>
      <trkpt lat="41.215681" lon="-8.712871">
        <ele>18.808</ele>
        <time>2019-04-28T09:06:44Z</time>
      </trkpt>
      <trkpt lat="41.216574" lon="-8.712776">
        <ele>18.458</ele>
        <time>2019-04-28T09:07:02Z</time>
      </trkpt>
      <trkpt lat="41.217537" lon="-8.712666">
        <ele>17.911</ele>
        <time>2019-04-28T09:07:22Z</time>
      </trkpt>
      <trkpt lat="41.218314" lon="-8.712589">
        <ele>17.447</ele>
        <time>2019-04-28T09:07:38Z</time>
      </trkpt>
      <trkpt lat="41.218522" lon="-8.712743">
        <ele>17.425</ele>
        <time>2019-04-28T09:07:46Z</time>
      </trkpt>
      <trkpt lat="41.218554" lon="-8.712755">
        <ele>17.923</ele>
        <time>2019-04-28T09:07:58Z</time>
      </trkpt>
      <trkpt lat="41.218575" lon="-8.712768">
        <ele>18.815</ele>
        <time>2019-04-28T09:08:12Z</time>
      </trkpt>
      <trkpt lat="41.218582" lon="-8.712768">
        <ele>19.365</ele>
        <time>2019-04-28T09:08:44Z</time>
      </trkpt>
      <trkpt lat="41.218590" lon="-8.712769">
        <ele>18.879</ele>
        <time>2019-04-28T09:09:13Z</time>
      </trkpt>
      <trkpt lat="41.218585" lon="-8.712759">
        <ele>17.425</ele>
        <time>2019-04-28T09:09:50Z</time>
      </trkpt>
      <trkpt lat="41.218583" lon="-8.712761">
        <ele>17.426</ele>
        <time>2019-04-28T09:10:20Z</time>
      </trkpt>
      <trkpt lat="41.218579" lon="-8.712766">
        <ele>16.408</ele>
        <time>2019-04-28T09:10:55Z</time>
      </trkpt>
      <trkpt lat="41.218706" lon="-8.712732">
        <ele>16.908</ele>
        <time>2019-04-28T09:11:04Z</time>
      </trkpt>
      <trkpt lat="41.219010" lon="-8.712686">
        <ele>16.925</ele>
        <time>2019-04-28T09:11:13Z</time>
      </trkpt>
      <trkpt lat="41.219504" lon="-8.712685">
        <ele>16.438</ele>
        <time>2019-04-28T09:11:25Z</time>
      </trkpt>
      <trkpt lat="41.219895" lon="-8.712805">
        <ele>16.414</ele>
        <time>2019-04-28T09:11:34Z</time>
      </trkpt>
      <trkpt lat="41.220299" lon="-8.713048">
        <ele>15.572</ele>
        <time>2019-04-28T09:11:46Z</time>
      </trkpt>
      <trkpt lat="41.220333" lon="-8.713076">
        <ele>15.520</ele>
        <time>2019-04-28T09:11:47Z</time>
      </trkpt>
      <trkpt lat="41.221027" lon="-8.713848">
        <ele>12.132</ele>
        <time>2019-04-28T09:12:05Z</time>
      </trkpt>
      <trkpt lat="41.221413" lon="-8.714241">
        <ele>11.632</ele>
        <time>2019-04-28T09:12:15Z</time>
      </trkpt>
      <trkpt lat="41.222172" lon="-8.714583">
        <ele>12.146</ele>
        <time>2019-04-28T09:12:33Z</time>
      </trkpt>
      <trkpt lat="41.222840" lon="-8.714935">
        <ele>12.657</ele>
        <time>2019-04-28T09:12:50Z</time>
      </trkpt>
      <trkpt lat="41.223526" lon="-8.715438">
        <ele>12.600</ele>
        <time>2019-04-28T09:13:08Z</time>
      </trkpt>
      <trkpt lat="41.224173" lon="-8.715931">
        <ele>12.120</ele>
        <time>2019-04-28T09:13:24Z</time>
      </trkpt>
      <trkpt lat="41.224831" lon="-8.716242">
        <ele>10.708</ele>
        <time>2019-04-28T09:13:39Z</time>
      </trkpt>
      <trkpt lat="41.225730" lon="-8.716634">
        <ele>9.788</ele>
        <time>2019-04-28T09:13:59Z</time>
      </trkpt>
      <trkpt lat="41.225904" lon="-8.716716">
        <ele>9.791</ele>
        <time>2019-04-28T09:14:03Z</time>
      </trkpt>
      <trkpt lat="41.226351" lon="-8.716918">
        <ele>9.227</ele>
        <time>2019-04-28T09:14:13Z</time>
      </trkpt>
      <trkpt lat="41.226542" lon="-8.717324">
        <ele>9.285</ele>
        <time>2019-04-28T09:14:21Z</time>
      </trkpt>
      <trkpt lat="41.226546" lon="-8.718360">
        <ele>9.783</ele>
        <time>2019-04-28T09:14:39Z</time>
      </trkpt>
      <trkpt lat="41.226750" lon="-8.718896">
        <ele>10.215</ele>
        <time>2019-04-28T09:14:51Z</time>
      </trkpt>
      <trkpt lat="41.227201" lon="-8.719423">
        <ele>11.645</ele>
        <time>2019-04-28T09:15:07Z</time>
      </trkpt>
      <trkpt lat="41.227319" lon="-8.719531">
        <ele>11.689</ele>
        <time>2019-04-28T09:15:11Z</time>
      </trkpt>
      <trkpt lat="41.227593" lon="-8.719962">
        <ele>11.134</ele>
        <time>2019-04-28T09:15:23Z</time>
      </trkpt>
      <trkpt lat="41.227760" lon="-8.720283">
        <ele>10.755</ele>
        <time>2019-04-28T09:15:30Z</time>
      </trkpt>
      <trkpt lat="41.227849" lon="-8.720388">
        <ele>9.710</ele>
        <time>2019-04-28T09:15:33Z</time>
      </trkpt>
      <trkpt lat="41.227779" lon="-8.720387">
        <ele>10.208</ele>
        <time>2019-04-28T09:15:41Z</time>
      </trkpt>
      <trkpt lat="41.227754" lon="-8.720325">
        <ele>9.736</ele>
        <time>2019-04-28T09:15:43Z</time>
      </trkpt>
      <trkpt lat="41.227642" lon="-8.720066">
        <ele>10.239</ele>
        <time>2019-04-28T09:15:51Z</time>
      </trkpt>
      <trkpt lat="41.227799" lon="-8.719643">
        <ele>11.625</ele>
        <time>2019-04-28T09:16:04Z</time>
      </trkpt>
      <trkpt lat="41.227819" lon="-8.719589">
        <ele>11.633</ele>
        <time>2019-04-28T09:16:06Z</time>
      </trkpt>
      <trkpt lat="41.228228" lon="-8.719553">
        <ele>12.151</ele>
        <time>2019-04-28T09:16:20Z</time>
      </trkpt>
      <trkpt lat="41.228643" lon="-8.719466">
        <ele>11.633</ele>
        <time>2019-04-28T09:16:30Z</time>
      </trkpt>
      <trkpt lat="41.229407" lon="-8.719360">
        <ele>11.153</ele>
        <time>2019-04-28T09:16:46Z</time>
      </trkpt>
      <trkpt lat="41.230059" lon="-8.719344">
        <ele>10.797</ele>
        <time>2019-04-28T09:17:02Z</time>
      </trkpt>
      <trkpt lat="41.230702" lon="-8.719482">
        <ele>10.781</ele>
        <time>2019-04-28T09:17:19Z</time>
      </trkpt>
      <trkpt lat="41.231260" lon="-8.719672">
        <ele>10.761</ele>
        <time>2019-04-28T09:17:35Z</time>
      </trkpt>
      <trkpt lat="41.231764" lon="-8.719862">
        <ele>10.217</ele>
        <time>2019-04-28T09:17:51Z</time>
      </trkpt>
      <trkpt lat="41.232475" lon="-8.720130">
        <ele>9.708</ele>
        <time>2019-04-28T09:18:11Z</time>
      </trkpt>
      <trkpt lat="41.233216" lon="-8.720452">
        <ele>10.781</ele>
        <time>2019-04-28T09:18:31Z</time>
      </trkpt>
      <trkpt lat="41.233842" lon="-8.720724">
        <ele>10.724</ele>
        <time>2019-04-28T09:18:48Z</time>
      </trkpt>
      <trkpt lat="41.234506" lon="-8.721017">
        <ele>9.730</ele>
        <time>2019-04-28T09:19:06Z</time>
      </trkpt>
      <trkpt lat="41.234834" lon="-8.721142">
        <ele>10.798</ele>
        <time>2019-04-28T09:19:15Z</time>
      </trkpt>
      <trkpt lat="41.235024" lon="-8.721222">
        <ele>10.236</ele>
        <time>2019-04-28T09:19:20Z</time>
      </trkpt>
      <trkpt lat="41.235329" lon="-8.721351">
        <ele>10.248</ele>
        <time>2019-04-28T09:19:28Z</time>
      </trkpt>
      <trkpt lat="41.235872" lon="-8.721584">
        <ele>10.768</ele>
        <time>2019-04-28T09:19:43Z</time>
      </trkpt>
      <trkpt lat="41.236336" lon="-8.721784">
        <ele>11.632</ele>
        <time>2019-04-28T09:19:57Z</time>
      </trkpt>
      <trkpt lat="41.236654" lon="-8.721927">
        <ele>12.168</ele>
        <time>2019-04-28T09:20:07Z</time>
      </trkpt>
      <trkpt lat="41.236704" lon="-8.722002">
        <ele>12.142</ele>
        <time>2019-04-28T09:20:16Z</time>
      </trkpt>
      <trkpt lat="41.236705" lon="-8.722002">
        <ele>12.126</ele>
        <time>2019-04-28T09:20:23Z</time>
      </trkpt>
      <trkpt lat="41.236843" lon="-8.722065">
        <ele>13.108</ele>
        <time>2019-04-28T09:20:29Z</time>
      </trkpt>
      <trkpt lat="41.237183" lon="-8.722209">
        <ele>16.099</ele>
        <time>2019-04-28T09:20:42Z</time>
      </trkpt>
      <trkpt lat="41.237590" lon="-8.722465">
        <ele>15.032</ele>
        <time>2019-04-28T09:20:55Z</time>
      </trkpt>
      <trkpt lat="41.237677" lon="-8.722585">
        <ele>14.028</ele>
        <time>2019-04-28T09:20:59Z</time>
      </trkpt>
      <trkpt lat="41.237836" lon="-8.722727">
        <ele>12.186</ele>
        <time>2019-04-28T09:21:04Z</time>
      </trkpt>
      <trkpt lat="41.238393" lon="-8.723120">
        <ele>8.714</ele>
        <time>2019-04-28T09:21:19Z</time>
      </trkpt>
      <trkpt lat="41.239021" lon="-8.723329">
        <ele>9.796</ele>
        <time>2019-04-28T09:21:36Z</time>
      </trkpt>
      <trkpt lat="41.239323" lon="-8.723679">
        <ele>10.266</ele>
        <time>2019-04-28T09:21:47Z</time>
      </trkpt>
      <trkpt lat="41.239793" lon="-8.724126">
        <ele>11.630</ele>
        <time>2019-04-28T09:22:03Z</time>
      </trkpt>
      <trkpt lat="41.240492" lon="-8.724596">
        <ele>13.681</ele>
        <time>2019-04-28T09:22:24Z</time>
      </trkpt>
      <trkpt lat="41.240596" lon="-8.724654">
        <ele>13.161</ele>
        <time>2019-04-28T09:22:27Z</time>
      </trkpt>
      <trkpt lat="41.240578" lon="-8.725130">
        <ele>11.617</ele>
        <time>2019-04-28T09:22:37Z</time>
      </trkpt>
      <trkpt lat="41.240580" lon="-8.725639">
        <ele>11.108</ele>
        <time>2019-04-28T09:22:49Z</time>
      </trkpt>
      <trkpt lat="41.240822" lon="-8.725785">
        <ele>10.721</ele>
        <time>2019-04-28T09:22:58Z</time>
      </trkpt>
      <trkpt lat="41.241536" lon="-8.726063">
        <ele>10.794</ele>
        <time>2019-04-28T09:23:17Z</time>
      </trkpt>
      <trkpt lat="41.242262" lon="-8.726323">
        <ele>9.780</ele>
        <time>2019-04-28T09:23:36Z</time>
      </trkpt>
      <trkpt lat="41.242882" lon="-8.726429">
        <ele>10.278</ele>
        <time>2019-04-28T09:23:53Z</time>
      </trkpt>
      <trkpt lat="41.242959" lon="-8.726170">
        <ele>10.716</ele>
        <time>2019-04-28T09:24:05Z</time>
      </trkpt>
      <trkpt lat="41.242955" lon="-8.725751">
        <ele>10.758</ele>
        <time>2019-04-28T09:24:19Z</time>
      </trkpt>
      <trkpt lat="41.242967" lon="-8.725212">
        <ele>10.238</ele>
        <time>2019-04-28T09:24:31Z</time>
      </trkpt>
      <trkpt lat="41.242976" lon="-8.724577">
        <ele>11.132</ele>
        <time>2019-04-28T09:24:45Z</time>
      </trkpt>
      <trkpt lat="41.242998" lon="-8.724448">
        <ele>10.751</ele>
        <time>2019-04-28T09:24:48Z</time>
      </trkpt>
      <trkpt lat="41.243180" lon="-8.724448">
        <ele>12.101</ele>
        <time>2019-04-28T09:24:54Z</time>
      </trkpt>
      <trkpt lat="41.243539" lon="-8.724464">
        <ele>13.611</ele>
        <time>2019-04-28T09:25:08Z</time>
      </trkpt>
      <trkpt lat="41.243941" lon="-8.724432">
        <ele>13.108</ele>
        <time>2019-04-28T09:25:21Z</time>
      </trkpt>
      <trkpt lat="41.244273" lon="-8.724076">
        <ele>13.198</ele>
        <time>2019-04-28T09:25:34Z</time>
      </trkpt>
      <trkpt lat="41.244754" lon="-8.723491">
        <ele>12.651</ele>
        <time>2019-04-28T09:25:53Z</time>
      </trkpt>
      <trkpt lat="41.245216" lon="-8.723266">
        <ele>12.697</ele>
        <time>2019-04-28T09:26:09Z</time>
      </trkpt>
      <trkpt lat="41.245733" lon="-8.723223">
        <ele>12.125</ele>
        <time>2019-04-28T09:26:24Z</time>
      </trkpt>
      <trkpt lat="41.246229" lon="-8.723174">
        <ele>11.633</ele>
        <time>2019-04-28T09:26:38Z</time>
      </trkpt>
      <trkpt lat="41.246860" lon="-8.723096">
        <ele>12.155</ele>
        <time>2019-04-28T09:26:55Z</time>
      </trkpt>
      <trkpt lat="41.247371" lon="-8.723075">
        <ele>11.625</ele>
        <time>2019-04-28T09:27:07Z</time>
      </trkpt>
      <trkpt lat="41.248059" lon="-8.723188">
        <ele>12.619</ele>
        <time>2019-04-28T09:27:24Z</time>
      </trkpt>
      <trkpt lat="41.248581" lon="-8.723266">
        <ele>13.661</ele>
        <time>2019-04-28T09:27:38Z</time>
      </trkpt>
      <trkpt lat="41.249065" lon="-8.723307">
        <ele>15.021</ele>
        <time>2019-04-28T09:27:52Z</time>
      </trkpt>
      <trkpt lat="41.249325" lon="-8.723381">
        <ele>15.513</ele>
        <time>2019-04-28T09:28:00Z</time>
      </trkpt>
      <trkpt lat="41.249863" lon="-8.723454">
        <ele>13.608</ele>
        <time>2019-04-28T09:28:15Z</time>
      </trkpt>
      <trkpt lat="41.250512" lon="-8.723548">
        <ele>12.169</ele>
        <time>2019-04-28T09:28:33Z</time>
      </trkpt>
      <trkpt lat="41.251134" lon="-8.723411">
        <ele>13.182</ele>
        <time>2019-04-28T09:28:49Z</time>
      </trkpt>
      <trkpt lat="41.251629" lon="-8.723290">
        <ele>14.568</ele>
        <time>2019-04-28T09:29:04Z</time>
      </trkpt>
      <trkpt lat="41.252111" lon="-8.723218">
        <ele>16.036</ele>
        <time>2019-04-28T09:29:19Z</time>
      </trkpt>
      <trkpt lat="41.252664" lon="-8.723148">
        <ele>14.054</ele>
        <time>2019-04-28T09:29:33Z</time>
      </trkpt>
      <trkpt lat="41.253063" lon="-8.723094">
        <ele>12.616</ele>
        <time>2019-04-28T09:29:42Z</time>
      </trkpt>
      <trkpt lat="41.253267" lon="-8.722965">
        <ele>12.686</ele>
        <time>2019-04-28T09:29:48Z</time>
      </trkpt>
      <trkpt lat="41.253977" lon="-8.722969">
        <ele>11.640</ele>
        <time>2019-04-28T09:30:05Z</time>
      </trkpt>
      <trkpt lat="41.254018" lon="-8.722971">
        <ele>11.612</ele>
        <time>2019-04-28T09:30:06Z</time>
      </trkpt>
      <trkpt lat="41.254718" lon="-8.722932">
        <ele>11.132</ele>
        <time>2019-04-28T09:30:24Z</time>
      </trkpt>
      <trkpt lat="41.255325" lon="-8.722866">
        <ele>11.105</ele>
        <time>2019-04-28T09:30:40Z</time>
      </trkpt>
      <trkpt lat="41.256039" lon="-8.722826">
        <ele>13.108</ele>
        <time>2019-04-28T09:30:59Z</time>
      </trkpt>
      <trkpt lat="41.256200" lon="-8.722820">
        <ele>13.134</ele>
        <time>2019-04-28T09:31:03Z</time>
      </trkpt>
      <trkpt lat="41.256398" lon="-8.722899">
        <ele>12.667</ele>
        <time>2019-04-28T09:31:08Z</time>
      </trkpt>
      <trkpt lat="41.256877" lon="-8.723127">
        <ele>12.633</ele>
        <time>2019-04-28T09:31:23Z</time>
      </trkpt>
      <trkpt lat="41.257631" lon="-8.723374">
        <ele>11.691</ele>
        <time>2019-04-28T09:31:43Z</time>
      </trkpt>
      <trkpt lat="41.257817" lon="-8.723385">
        <ele>11.159</ele>
        <time>2019-04-28T09:31:47Z</time>
      </trkpt>
      <trkpt lat="41.258427" lon="-8.723306">
        <ele>9.221</ele>
        <time>2019-04-28T09:31:59Z</time>
      </trkpt>
      <trkpt lat="41.258687" lon="-8.723428">
        <ele>9.211</ele>
        <time>2019-04-28T09:32:05Z</time>
      </trkpt>
      <trkpt lat="41.259267" lon="-8.723744">
        <ele>10.225</ele>
        <time>2019-04-28T09:32:21Z</time>
      </trkpt>
      <trkpt lat="41.259772" lon="-8.723952">
        <ele>10.767</ele>
        <time>2019-04-28T09:32:35Z</time>
      </trkpt>
      <trkpt lat="41.260347" lon="-8.724170">
        <ele>10.781</ele>
        <time>2019-04-28T09:32:51Z</time>
      </trkpt>
      <trkpt lat="41.261046" lon="-8.724420">
        <ele>10.719</ele>
        <time>2019-04-28T09:33:11Z</time>
      </trkpt>
      <trkpt lat="41.261481" lon="-8.724619">
        <ele>10.708</ele>
        <time>2019-04-28T09:33:24Z</time>
      </trkpt>
      <trkpt lat="41.261675" lon="-8.724646">
        <ele>10.749</ele>
        <time>2019-04-28T09:33:30Z</time>
      </trkpt>
      <trkpt lat="41.261831" lon="-8.724703">
        <ele>10.282</ele>
        <time>2019-04-28T09:33:34Z</time>
      </trkpt>
      <trkpt lat="41.262479" lon="-8.725024">
        <ele>11.128</ele>
        <time>2019-04-28T09:33:51Z</time>
      </trkpt>
      <trkpt lat="41.263026" lon="-8.725315">
        <ele>10.716</ele>
        <time>2019-04-28T09:34:06Z</time>
      </trkpt>
      <trkpt lat="41.263665" lon="-8.725652">
        <ele>13.124</ele>
        <time>2019-04-28T09:34:23Z</time>
      </trkpt>
      <trkpt lat="41.264163" lon="-8.725916">
        <ele>11.646</ele>
        <time>2019-04-28T09:34:37Z</time>
      </trkpt>
      <trkpt lat="41.264729" lon="-8.726206">
        <ele>11.196</ele>
        <time>2019-04-28T09:34:53Z</time>
      </trkpt>
      <trkpt lat="41.265178" lon="-8.726440">
        <ele>12.120</ele>
        <time>2019-04-28T09:35:06Z</time>
      </trkpt>
      <trkpt lat="41.265653" lon="-8.726668">
        <ele>13.614</ele>
        <time>2019-04-28T09:35:21Z</time>
      </trkpt>
      <trkpt lat="41.266121" lon="-8.726618">
        <ele>16.054</ele>
        <time>2019-04-28T09:35:35Z</time>
      </trkpt>
      <trkpt lat="41.266640" lon="-8.726539">
        <ele>16.909</ele>
        <time>2019-04-28T09:35:52Z</time>
      </trkpt>
      <trkpt lat="41.266972" lon="-8.726604">
        <ele>16.008</ele>
        <time>2019-04-28T09:36:02Z</time>
      </trkpt>
      <trkpt lat="41.267498" lon="-8.726529">
        <ele>16.414</ele>
        <time>2019-04-28T09:36:17Z</time>
      </trkpt>
      <trkpt lat="41.267922" lon="-8.726450">
        <ele>16.437</ele>
        <time>2019-04-28T09:36:30Z</time>
      </trkpt>
      <trkpt lat="41.268374" lon="-8.726398">
        <ele>16.443</ele>
        <time>2019-04-28T09:36:43Z</time>
      </trkpt>
      <trkpt lat="41.268748" lon="-8.726345">
        <ele>16.961</ele>
        <time>2019-04-28T09:36:55Z</time>
      </trkpt>
      <trkpt lat="41.268818" lon="-8.726244">
        <ele>16.929</ele>
        <time>2019-04-28T09:37:00Z</time>
      </trkpt>
      <trkpt lat="41.268790" lon="-8.726207">
        <ele>16.941</ele>
        <time>2019-04-28T09:37:08Z</time>
      </trkpt>
      <trkpt lat="41.268802" lon="-8.726111">
        <ele>16.971</ele>
        <time>2019-04-28T09:37:19Z</time>
      </trkpt>
      <trkpt lat="41.268811" lon="-8.726093">
        <ele>16.915</ele>
        <time>2019-04-28T09:37:24Z</time>
      </trkpt>
      <trkpt lat="41.269010" lon="-8.726063">
        <ele>16.035</ele>
        <time>2019-04-28T09:37:41Z</time>
      </trkpt>
      <trkpt lat="41.269209" lon="-8.726053">
        <ele>16.486</ele>
        <time>2019-04-28T09:37:55Z</time>
      </trkpt>
      <trkpt lat="41.269399" lon="-8.726051">
        <ele>15.514</ele>
        <time>2019-04-28T09:38:08Z</time>
      </trkpt>
      <trkpt lat="41.269632" lon="-8.726044">
        <ele>13.108</ele>
        <time>2019-04-28T09:38:22Z</time>
      </trkpt>
      <trkpt lat="41.269904" lon="-8.725996">
        <ele>12.666</ele>
        <time>2019-04-28T09:38:40Z</time>
      </trkpt>
      <trkpt lat="41.270134" lon="-8.726023">
        <ele>9.749</ele>
        <time>2019-04-28T09:38:55Z</time>
      </trkpt>
      <trkpt lat="41.270346" lon="-8.726151">
        <ele>10.225</ele>
        <time>2019-04-28T09:39:11Z</time>
      </trkpt>
      <trkpt lat="41.270418" lon="-8.726189">
        <ele>9.763</ele>
        <time>2019-04-28T09:39:16Z</time>
      </trkpt>
      <trkpt lat="41.270648" lon="-8.726338">
        <ele>10.261</ele>
        <time>2019-04-28T09:39:33Z</time>
      </trkpt>
      <trkpt lat="41.270893" lon="-8.726527">
        <ele>10.233</ele>
        <time>2019-04-28T09:39:51Z</time>
      </trkpt>
      <trkpt lat="41.271107" lon="-8.726702">
        <ele>11.683</ele>
        <time>2019-04-28T09:40:08Z</time>
      </trkpt>
      <trkpt lat="41.271323" lon="-8.726872">
        <ele>11.147</ele>
        <time>2019-04-28T09:40:25Z</time>
      </trkpt>
      <trkpt lat="41.271542" lon="-8.727054">
        <ele>10.279</ele>
        <time>2019-04-28T09:40:43Z</time>
      </trkpt>
      <trkpt lat="41.271784" lon="-8.727265">
        <ele>10.705</ele>
        <time>2019-04-28T09:41:00Z</time>
      </trkpt>
      <trkpt lat="41.272164" lon="-8.727387">
        <ele>10.725</ele>
        <time>2019-04-28T09:41:16Z</time>
      </trkpt>
      <trkpt lat="41.272269" lon="-8.727404">
        <ele>11.108</ele>
        <time>2019-04-28T09:41:21Z</time>
      </trkpt>
      <trkpt lat="41.272351" lon="-8.727433">
        <ele>11.170</ele>
        <time>2019-04-28T09:41:26Z</time>
      </trkpt>
      <trkpt lat="41.272387" lon="-8.727462">
        <ele>10.773</ele>
        <time>2019-04-28T09:41:40Z</time>
      </trkpt>
      <trkpt lat="41.272630" lon="-8.727485">
        <ele>11.689</ele>
        <time>2019-04-28T09:41:51Z</time>
      </trkpt>
      <trkpt lat="41.272981" lon="-8.727521">
        <ele>12.677</ele>
        <time>2019-04-28T09:42:04Z</time>
      </trkpt>
      <trkpt lat="41.273475" lon="-8.727578">
        <ele>15.095</ele>
        <time>2019-04-28T09:42:21Z</time>
      </trkpt>
      <trkpt lat="41.273896" lon="-8.727616">
        <ele>16.477</ele>
        <time>2019-04-28T09:42:36Z</time>
      </trkpt>
      <trkpt lat="41.274248" lon="-8.727632">
        <ele>17.447</ele>
        <time>2019-04-28T09:42:50Z</time>
      </trkpt>
      <trkpt lat="41.274601" lon="-8.727642">
        <ele>18.831</ele>
        <time>2019-04-28T09:43:03Z</time>
      </trkpt>
      <trkpt lat="41.275091" lon="-8.727660">
        <ele>18.891</ele>
        <time>2019-04-28T09:43:18Z</time>
      </trkpt>
      <trkpt lat="41.275368" lon="-8.727878">
        <ele>18.481</ele>
        <time>2019-04-28T09:43:27Z</time>
      </trkpt>
      <trkpt lat="41.275597" lon="-8.728026">
        <ele>17.419</ele>
        <time>2019-04-28T09:43:33Z</time>
      </trkpt>
      <trkpt lat="41.275713" lon="-8.728130">
        <ele>16.908</ele>
        <time>2019-04-28T09:43:36Z</time>
      </trkpt>
      <trkpt lat="41.275906" lon="-8.728283">
        <ele>15.052</ele>
        <time>2019-04-28T09:43:40Z</time>
      </trkpt>
      <trkpt lat="41.276020" lon="-8.728356">
        <ele>13.615</ele>
        <time>2019-04-28T09:43:42Z</time>
      </trkpt>
      <trkpt lat="41.276330" lon="-8.728390">
        <ele>12.661</ele>
        <time>2019-04-28T09:43:47Z</time>
      </trkpt>
      <trkpt lat="41.276533" lon="-8.728409">
        <ele>11.119</ele>
        <time>2019-04-28T09:43:51Z</time>
      </trkpt>
      <trkpt lat="41.277133" lon="-8.728398">
        <ele>10.727</ele>
        <time>2019-04-28T09:44:04Z</time>
      </trkpt>
      <trkpt lat="41.277145" lon="-8.728411">
        <ele>11.679</ele>
        <time>2019-04-28T09:44:16Z</time>
      </trkpt>
      <trkpt lat="41.277120" lon="-8.728401">
        <ele>12.169</ele>
        <time>2019-04-28T09:44:19Z</time>
      </trkpt>
      <trkpt lat="41.277012" lon="-8.728378">
        <ele>11.673</ele>
        <time>2019-04-28T09:44:30Z</time>
      </trkpt>
      <trkpt lat="41.276998" lon="-8.728386">
        <ele>11.637</ele>
        <time>2019-04-28T09:44:31Z</time>
      </trkpt>
      <trkpt lat="41.277000" lon="-8.728467">
        <ele>11.149</ele>
        <time>2019-04-28T09:44:37Z</time>
      </trkpt>
      <trkpt lat="41.277315" lon="-8.728471">
        <ele>12.613</ele>
        <time>2019-04-28T09:44:52Z</time>
      </trkpt>
      <trkpt lat="41.277578" lon="-8.728402">
        <ele>13.108</ele>
        <time>2019-04-28T09:45:04Z</time>
      </trkpt>
      <trkpt lat="41.277909" lon="-8.728285">
        <ele>11.146</ele>
        <time>2019-04-28T09:45:13Z</time>
      </trkpt>
      <trkpt lat="41.278321" lon="-8.728379">
        <ele>10.749</ele>
        <time>2019-04-28T09:45:24Z</time>
      </trkpt>
      <trkpt lat="41.278629" lon="-8.728404">
        <ele>12.115</ele>
        <time>2019-04-28T09:45:34Z</time>
      </trkpt>
      <trkpt lat="41.278756" lon="-8.728490">
        <ele>13.153</ele>
        <time>2019-04-28T09:45:39Z</time>
      </trkpt>
      <trkpt lat="41.279239" lon="-8.728639">
        <ele>12.141</ele>
        <time>2019-04-28T09:45:55Z</time>
      </trkpt>
      <trkpt lat="41.279571" lon="-8.728949">
        <ele>11.673</ele>
        <time>2019-04-28T09:46:06Z</time>
      </trkpt>
      <trkpt lat="41.279650" lon="-8.729039">
        <ele>11.643</ele>
        <time>2019-04-28T09:46:15Z</time>
      </trkpt>
      <trkpt lat="41.279666" lon="-8.729068">
        <ele>11.617</ele>
        <time>2019-04-28T09:46:29Z</time>
      </trkpt>
      <trkpt lat="41.279684" lon="-8.729056">
        <ele>13.198</ele>
        <time>2019-04-28T09:46:38Z</time>
      </trkpt>
      <trkpt lat="41.279788" lon="-8.729035">
        <ele>14.515</ele>
        <time>2019-04-28T09:46:51Z</time>
      </trkpt>
      <trkpt lat="41.279798" lon="-8.729036">
        <ele>15.026</ele>
        <time>2019-04-28T09:46:52Z</time>
      </trkpt>
      <trkpt lat="41.279873" lon="-8.729071">
        <ele>16.408</ele>
        <time>2019-04-28T09:47:06Z</time>
      </trkpt>
      <trkpt lat="41.279910" lon="-8.729082">
        <ele>17.472</ele>
        <time>2019-04-28T09:47:16Z</time>
      </trkpt>
      <trkpt lat="41.279931" lon="-8.729090">
        <ele>17.495</ele>
        <time>2019-04-28T09:47:22Z</time>
      </trkpt>
      <trkpt lat="41.280211" lon="-8.729255">
        <ele>17.941</ele>
        <time>2019-04-28T09:47:36Z</time>
      </trkpt>
      <trkpt lat="41.280245" lon="-8.729274">
        <ele>17.979</ele>
        <time>2019-04-28T09:47:38Z</time>
      </trkpt>
      <trkpt lat="41.280275" lon="-8.729402">
        <ele>19.857</ele>
        <time>2019-04-28T09:47:47Z</time>
      </trkpt>
      <trkpt lat="41.280283" lon="-8.729422">
        <ele>19.849</ele>
        <time>2019-04-28T09:47:53Z</time>
      </trkpt>
      <trkpt lat="41.280505" lon="-8.729479">
        <ele>21.239</ele>
        <time>2019-04-28T09:48:04Z</time>
      </trkpt>
      <trkpt lat="41.280517" lon="-8.729478">
        <ele>21.293</ele>
        <time>2019-04-28T09:48:05Z</time>
      </trkpt>
      <trkpt lat="41.280697" lon="-8.729526">
        <ele>20.312</ele>
        <time>2019-04-28T09:48:18Z</time>
      </trkpt>
      <trkpt lat="41.280712" lon="-8.729530">
        <ele>19.332</ele>
        <time>2019-04-28T09:48:27Z</time>
      </trkpt>
      <trkpt lat="41.280722" lon="-8.729545">
        <ele>20.305</ele>
        <time>2019-04-28T09:48:42Z</time>
      </trkpt>
      <trkpt lat="41.280723" lon="-8.729546">
        <ele>20.308</ele>
        <time>2019-04-28T09:48:44Z</time>
      </trkpt>
      <trkpt lat="41.280772" lon="-8.729604">
        <ele>17.974</ele>
        <time>2019-04-28T09:48:56Z</time>
      </trkpt>
      <trkpt lat="41.280797" lon="-8.729638">
        <ele>16.937</ele>
        <time>2019-04-28T09:49:00Z</time>
      </trkpt>
      <trkpt lat="41.280823" lon="-8.729857">
        <ele>15.093</ele>
        <time>2019-04-28T09:49:16Z</time>
      </trkpt>
      <trkpt lat="41.280825" lon="-8.729960">
        <ele>12.621</ele>
        <time>2019-04-28T09:49:28Z</time>
      </trkpt>
      <trkpt lat="41.280832" lon="-8.729991">
        <ele>11.169</ele>
        <time>2019-04-28T09:49:36Z</time>
      </trkpt>
      <trkpt lat="41.281084" lon="-8.730257">
        <ele>8.731</ele>
        <time>2019-04-28T09:49:48Z</time>
      </trkpt>
      <trkpt lat="41.281432" lon="-8.730649">
        <ele>7.351</ele>
        <time>2019-04-28T09:50:03Z</time>
      </trkpt>
      <trkpt lat="41.281484" lon="-8.730732">
        <ele>7.365</ele>
        <time>2019-04-28T09:50:05Z</time>
      </trkpt>
      <trkpt lat="41.281813" lon="-8.730915">
        <ele>10.715</ele>
        <time>2019-04-28T09:50:17Z</time>
      </trkpt>
      <trkpt lat="41.281827" lon="-8.730921">
        <ele>10.765</ele>
        <time>2019-04-28T09:50:18Z</time>
      </trkpt>
      <trkpt lat="41.281862" lon="-8.730977">
        <ele>11.111</ele>
        <time>2019-04-28T09:50:22Z</time>
      </trkpt>
      <trkpt lat="41.282132" lon="-8.731154">
        <ele>11.608</ele>
        <time>2019-04-28T09:50:36Z</time>
      </trkpt>
      <trkpt lat="41.282174" lon="-8.731171">
        <ele>11.634</ele>
        <time>2019-04-28T09:50:38Z</time>
      </trkpt>
      <trkpt lat="41.282223" lon="-8.731141">
        <ele>12.127</ele>
        <time>2019-04-28T09:50:50Z</time>
      </trkpt>
      <trkpt lat="41.282340" lon="-8.731014">
        <ele>12.683</ele>
        <time>2019-04-28T09:51:04Z</time>
      </trkpt>
      <trkpt lat="41.282805" lon="-8.730829">
        <ele>13.651</ele>
        <time>2019-04-28T09:51:20Z</time>
      </trkpt>
      <trkpt lat="41.282865" lon="-8.730762">
        <ele>13.619</ele>
        <time>2019-04-28T09:51:23Z</time>
      </trkpt>
      <trkpt lat="41.283313" lon="-8.730652">
        <ele>14.551</ele>
        <time>2019-04-28T09:51:38Z</time>
      </trkpt>
      <trkpt lat="41.283813" lon="-8.730761">
        <ele>14.541</ele>
        <time>2019-04-28T09:51:52Z</time>
      </trkpt>
      <trkpt lat="41.284493" lon="-8.731099">
        <ele>13.685</ele>
        <time>2019-04-28T09:52:10Z</time>
      </trkpt>
      <trkpt lat="41.284856" lon="-8.731297">
        <ele>14.078</ele>
        <time>2019-04-28T09:52:20Z</time>
      </trkpt>
      <trkpt lat="41.285013" lon="-8.731337">
        <ele>14.033</ele>
        <time>2019-04-28T09:52:24Z</time>
      </trkpt>
      <trkpt lat="41.285602" lon="-8.731404">
        <ele>14.526</ele>
        <time>2019-04-28T09:52:39Z</time>
      </trkpt>
      <trkpt lat="41.286159" lon="-8.731476">
        <ele>14.008</ele>
        <time>2019-04-28T09:52:54Z</time>
      </trkpt>
      <trkpt lat="41.286403" lon="-8.731513">
        <ele>14.550</ele>
        <time>2019-04-28T09:53:06Z</time>
      </trkpt>
      <trkpt lat="41.286503" lon="-8.731547">
        <ele>14.063</ele>
        <time>2019-04-28T09:53:22Z</time>
      </trkpt>
      <trkpt lat="41.287015" lon="-8.731663">
        <ele>14.099</ele>
        <time>2019-04-28T09:53:39Z</time>
      </trkpt>
      <trkpt lat="41.287393" lon="-8.731752">
        <ele>14.087</ele>
        <time>2019-04-28T09:53:54Z</time>
      </trkpt>
      <trkpt lat="41.287481" lon="-8.731741">
        <ele>13.115</ele>
        <time>2019-04-28T09:53:57Z</time>
      </trkpt>
      <trkpt lat="41.287585" lon="-8.731652">
        <ele>13.197</ele>
        <time>2019-04-28T09:54:00Z</time>
      </trkpt>
      <trkpt lat="41.287778" lon="-8.731712">
        <ele>12.147</ele>
        <time>2019-04-28T09:54:05Z</time>
      </trkpt>
      <trkpt lat="41.288200" lon="-8.731917">
        <ele>12.111</ele>
        <time>2019-04-28T09:54:18Z</time>
      </trkpt>
      <trkpt lat="41.288365" lon="-8.731925">
        <ele>13.686</ele>
        <time>2019-04-28T09:54:28Z</time>
      </trkpt>
      <trkpt lat="41.288663" lon="-8.732012">
        <ele>13.160</ele>
        <time>2019-04-28T09:54:41Z</time>
      </trkpt>
      <trkpt lat="41.289025" lon="-8.732134">
        <ele>14.526</ele>
        <time>2019-04-28T09:54:53Z</time>
      </trkpt>
      <trkpt lat="41.289125" lon="-8.732157">
        <ele>14.508</ele>
        <time>2019-04-28T09:54:56Z</time>
      </trkpt>
      <trkpt lat="41.289431" lon="-8.732409">
        <ele>14.061</ele>
        <time>2019-04-28T09:55:07Z</time>
      </trkpt>
      <trkpt lat="41.289690" lon="-8.732539">
        <ele>14.034</ele>
        <time>2019-04-28T09:55:16Z</time>
      </trkpt>
      <trkpt lat="41.289749" lon="-8.732611">
        <ele>14.040</ele>
        <time>2019-04-28T09:55:26Z</time>
      </trkpt>
      <trkpt lat="41.289755" lon="-8.732622">
        <ele>14.078</ele>
        <time>2019-04-28T09:55:27Z</time>
      </trkpt>
      <trkpt lat="41.289857" lon="-8.732656">
        <ele>14.596</ele>
        <time>2019-04-28T09:55:32Z</time>
      </trkpt>
      <trkpt lat="41.290263" lon="-8.732745">
        <ele>15.068</ele>
        <time>2019-04-28T09:55:46Z</time>
      </trkpt>
      <trkpt lat="41.290541" lon="-8.732753">
        <ele>16.458</ele>
        <time>2019-04-28T09:56:00Z</time>
      </trkpt>
      <trkpt lat="41.290552" lon="-8.732754">
        <ele>16.992</ele>
        <time>2019-04-28T09:56:01Z</time>
      </trkpt>
      <trkpt lat="41.290572" lon="-8.732748">
        <ele>16.981</ele>
        <time>2019-04-28T09:56:03Z</time>
      </trkpt>
      <trkpt lat="41.290859" lon="-8.732797">
        <ele>16.461</ele>
        <time>2019-04-28T09:56:16Z</time>
      </trkpt>
      <trkpt lat="41.291305" lon="-8.732862">
        <ele>15.517</ele>
        <time>2019-04-28T09:56:30Z</time>
      </trkpt>
      <trkpt lat="41.291605" lon="-8.732875">
        <ele>16.008</ele>
        <time>2019-04-28T09:56:40Z</time>
      </trkpt>
      <trkpt lat="41.291637" lon="-8.732883">
        <ele>15.541</ele>
        <time>2019-04-28T09:56:43Z</time>
      </trkpt>
      <trkpt lat="41.291680" lon="-8.732998">
        <ele>14.514</ele>
        <time>2019-04-28T09:56:54Z</time>
      </trkpt>
      <trkpt lat="41.291680" lon="-8.732998">
        <ele>14.570</ele>
        <time>2019-04-28T09:56:59Z</time>
      </trkpt>
      <trkpt lat="41.291653" lon="-8.732983">
        <ele>13.168</ele>
        <time>2019-04-28T09:57:07Z</time>
      </trkpt>
      <trkpt lat="41.291673" lon="-8.732974">
        <ele>12.666</ele>
        <time>2019-04-28T09:57:09Z</time>
      </trkpt>
      <trkpt lat="41.291796" lon="-8.733164">
        <ele>12.128</ele>
        <time>2019-04-28T09:57:18Z</time>
      </trkpt>
      <trkpt lat="41.291855" lon="-8.733381">
        <ele>6.838</ele>
        <time>2019-04-28T09:57:26Z</time>
      </trkpt>
      <trkpt lat="41.291900" lon="-8.733395">
        <ele>7.392</ele>
        <time>2019-04-28T09:57:28Z</time>
      </trkpt>
      <trkpt lat="41.291953" lon="-8.733414">
        <ele>7.896</ele>
        <time>2019-04-28T09:57:30Z</time>
      </trkpt>
      <trkpt lat="41.292087" lon="-8.733462">
        <ele>10.231</ele>
        <time>2019-04-28T09:57:36Z</time>
      </trkpt>
      <trkpt lat="41.292444" lon="-8.733819">
        <ele>10.724</ele>
        <time>2019-04-28T09:57:51Z</time>
      </trkpt>
      <trkpt lat="41.292749" lon="-8.734034">
        <ele>11.108</ele>
        <time>2019-04-28T09:58:04Z</time>
      </trkpt>
      <trkpt lat="41.292851" lon="-8.734120">
        <ele>11.642</ele>
        <time>2019-04-28T09:58:10Z</time>
      </trkpt>
      <trkpt lat="41.293005" lon="-8.734194">
        <ele>11.195</ele>
        <time>2019-04-28T09:58:17Z</time>
      </trkpt>
      <trkpt lat="41.293143" lon="-8.734098">
        <ele>11.671</ele>
        <time>2019-04-28T09:58:25Z</time>
      </trkpt>
      <trkpt lat="41.293359" lon="-8.734099">
        <ele>12.679</ele>
        <time>2019-04-28T09:58:35Z</time>
      </trkpt>
      <trkpt lat="41.293403" lon="-8.734075">
        <ele>12.157</ele>
        <time>2019-04-28T09:58:37Z</time>
      </trkpt>
      <trkpt lat="41.293524" lon="-8.734123">
        <ele>12.619</ele>
        <time>2019-04-28T09:58:45Z</time>
      </trkpt>
      <trkpt lat="41.293566" lon="-8.734121">
        <ele>13.139</ele>
        <time>2019-04-28T09:58:48Z</time>
      </trkpt>
      <trkpt lat="41.293797" lon="-8.734234">
        <ele>15.593</ele>
        <time>2019-04-28T09:59:01Z</time>
      </trkpt>
      <trkpt lat="41.293866" lon="-8.734279">
        <ele>16.983</ele>
        <time>2019-04-28T09:59:05Z</time>
      </trkpt>
      <trkpt lat="41.294095" lon="-8.734343">
        <ele>20.825</ele>
        <time>2019-04-28T09:59:17Z</time>
      </trkpt>
      <trkpt lat="41.294279" lon="-8.734364">
        <ele>22.217</ele>
        <time>2019-04-28T09:59:25Z</time>
      </trkpt>
      <trkpt lat="41.294725" lon="-8.734418">
        <ele>20.808</ele>
        <time>2019-04-28T09:59:39Z</time>
      </trkpt>
      <trkpt lat="41.294750" lon="-8.734414">
        <ele>20.851</ele>
        <time>2019-04-28T09:59:40Z</time>
      </trkpt>
      <trkpt lat="41.294855" lon="-8.734357">
        <ele>21.784</ele>
        <time>2019-04-28T09:59:45Z</time>
      </trkpt>
      <trkpt lat="41.295163" lon="-8.734268">
        <ele>23.270</ele>
        <time>2019-04-28T09:59:57Z</time>
      </trkpt>
      <trkpt lat="41.295485" lon="-8.734116">
        <ele>22.798</ele>
        <time>2019-04-28T10:00:10Z</time>
      </trkpt>
      <trkpt lat="41.295539" lon="-8.734097">
        <ele>22.776</ele>
        <time>2019-04-28T10:00:12Z</time>
      </trkpt>
      <trkpt lat="41.295845" lon="-8.733807">
        <ele>22.298</ele>
        <time>2019-04-28T10:00:26Z</time>
      </trkpt>
      <trkpt lat="41.296175" lon="-8.733537">
        <ele>22.768</ele>
        <time>2019-04-28T10:00:40Z</time>
      </trkpt>
      <trkpt lat="41.296465" lon="-8.733644">
        <ele>23.652</ele>
        <time>2019-04-28T10:00:51Z</time>
      </trkpt>
      <trkpt lat="41.296851" lon="-8.733824">
        <ele>25.165</ele>
        <time>2019-04-28T10:01:05Z</time>
      </trkpt>
      <trkpt lat="41.297270" lon="-8.734016">
        <ele>27.068</ele>
        <time>2019-04-28T10:01:20Z</time>
      </trkpt>
      <trkpt lat="41.297770" lon="-8.734220">
        <ele>25.114</ele>
        <time>2019-04-28T10:01:33Z</time>
      </trkpt>
      <trkpt lat="41.298073" lon="-8.734323">
        <ele>23.608</ele>
        <time>2019-04-28T10:01:40Z</time>
      </trkpt>
      <trkpt lat="41.298679" lon="-8.734492">
        <ele>21.269</ele>
        <time>2019-04-28T10:01:55Z</time>
      </trkpt>
      <trkpt lat="41.298971" lon="-8.734565">
        <ele>20.392</ele>
        <time>2019-04-28T10:02:03Z</time>
      </trkpt>
      <trkpt lat="41.298947" lon="-8.734708">
        <ele>19.858</ele>
        <time>2019-04-28T10:02:08Z</time>
      </trkpt>
      <trkpt lat="41.298867" lon="-8.735393">
        <ele>18.446</ele>
        <time>2019-04-28T10:02:22Z</time>
      </trkpt>
      <trkpt lat="41.298819" lon="-8.736255">
        <ele>19.324</ele>
        <time>2019-04-28T10:02:37Z</time>
      </trkpt>
      <trkpt lat="41.298817" lon="-8.736309">
        <ele>19.376</ele>
        <time>2019-04-28T10:02:38Z</time>
      </trkpt>
      <trkpt lat="41.298743" lon="-8.736818">
        <ele>17.486</ele>
        <time>2019-04-28T10:02:50Z</time>
      </trkpt>
      <trkpt lat="41.298747" lon="-8.736821">
        <ele>16.410</ele>
        <time>2019-04-28T10:02:51Z</time>
      </trkpt>
      <trkpt lat="41.299018" lon="-8.736925">
        <ele>14.553</ele>
        <time>2019-04-28T10:03:04Z</time>
      </trkpt>
      <trkpt lat="41.299396" lon="-8.737007">
        <ele>13.604</ele>
        <time>2019-04-28T10:03:17Z</time>
      </trkpt>
      <trkpt lat="41.299983" lon="-8.737126">
        <ele>15.014</ele>
        <time>2019-04-28T10:03:34Z</time>
      </trkpt>
      <trkpt lat="41.300460" lon="-8.737150">
        <ele>14.508</ele>
        <time>2019-04-28T10:03:48Z</time>
      </trkpt>
      <trkpt lat="41.301013" lon="-8.736827">
        <ele>13.168</ele>
        <time>2019-04-28T10:04:03Z</time>
      </trkpt>
      <trkpt lat="41.301286" lon="-8.736716">
        <ele>14.081</ele>
        <time>2019-04-28T10:04:13Z</time>
      </trkpt>
      <trkpt lat="41.301442" lon="-8.736721">
        <ele>16.097</ele>
        <time>2019-04-28T10:04:23Z</time>
      </trkpt>
      <trkpt lat="41.301579" lon="-8.736752">
        <ele>16.065</ele>
        <time>2019-04-28T10:04:28Z</time>
      </trkpt>
      <trkpt lat="41.302051" lon="-8.736886">
        <ele>16.033</ele>
        <time>2019-04-28T10:04:44Z</time>
      </trkpt>
      <trkpt lat="41.302212" lon="-8.736809">
        <ele>15.525</ele>
        <time>2019-04-28T10:04:51Z</time>
      </trkpt>
      <trkpt lat="41.302404" lon="-8.736744">
        <ele>16.415</ele>
        <time>2019-04-28T10:05:02Z</time>
      </trkpt>
      <trkpt lat="41.302535" lon="-8.736600">
        <ele>16.939</ele>
        <time>2019-04-28T10:05:11Z</time>
      </trkpt>
      <trkpt lat="41.302787" lon="-8.736110">
        <ele>17.486</ele>
        <time>2019-04-28T10:05:26Z</time>
      </trkpt>
      <trkpt lat="41.303060" lon="-8.736058">
        <ele>17.460</ele>
        <time>2019-04-28T10:05:36Z</time>
      </trkpt>
      <trkpt lat="41.303302" lon="-8.736312">
        <ele>16.426</ele>
        <time>2019-04-28T10:05:47Z</time>
      </trkpt>
      <trkpt lat="41.303480" lon="-8.736371">
        <ele>16.008</ele>
        <time>2019-04-28T10:05:53Z</time>
      </trkpt>
      <trkpt lat="41.304009" lon="-8.736950">
        <ele>15.531</ele>
        <time>2019-04-28T10:06:10Z</time>
      </trkpt>
      <trkpt lat="41.304484" lon="-8.737412">
        <ele>13.614</ele>
        <time>2019-04-28T10:06:25Z</time>
      </trkpt>
      <trkpt lat="41.304969" lon="-8.737741">
        <ele>14.040</ele>
        <time>2019-04-28T10:06:39Z</time>
      </trkpt>
      <trkpt lat="41.305097" lon="-8.737834">
        <ele>13.628</ele>
        <time>2019-04-28T10:06:44Z</time>
      </trkpt>
      <trkpt lat="41.305288" lon="-8.737893">
        <ele>14.066</ele>
        <time>2019-04-28T10:06:55Z</time>
      </trkpt>
      <trkpt lat="41.305603" lon="-8.738043">
        <ele>12.668</ele>
        <time>2019-04-28T10:07:08Z</time>
      </trkpt>
      <trkpt lat="41.305885" lon="-8.738242">
        <ele>11.698</ele>
        <time>2019-04-28T10:07:21Z</time>
      </trkpt>
      <trkpt lat="41.306322" lon="-8.738428">
        <ele>11.692</ele>
        <time>2019-04-28T10:07:33Z</time>
      </trkpt>
      <trkpt lat="41.306705" lon="-8.738463">
        <ele>11.171</ele>
        <time>2019-04-28T10:07:42Z</time>
      </trkpt>
      <trkpt lat="41.307246" lon="-8.738670">
        <ele>11.641</ele>
        <time>2019-04-28T10:07:59Z</time>
      </trkpt>
      <trkpt lat="41.307535" lon="-8.738793">
        <ele>13.115</ele>
        <time>2019-04-28T10:08:11Z</time>
      </trkpt>
      <trkpt lat="41.308110" lon="-8.739006">
        <ele>14.008</ele>
        <time>2019-04-28T10:08:30Z</time>
      </trkpt>
      <trkpt lat="41.308493" lon="-8.739078">
        <ele>13.620</ele>
        <time>2019-04-28T10:08:40Z</time>
      </trkpt>
      <trkpt lat="41.308686" lon="-8.739267">
        <ele>14.053</ele>
        <time>2019-04-28T10:08:49Z</time>
      </trkpt>
      <trkpt lat="41.308723" lon="-8.739327">
        <ele>14.539</ele>
        <time>2019-04-28T10:09:01Z</time>
      </trkpt>
      <trkpt lat="41.308843" lon="-8.739441">
        <ele>15.087</ele>
        <time>2019-04-28T10:09:13Z</time>
      </trkpt>
      <trkpt lat="41.309205" lon="-8.739609">
        <ele>15.055</ele>
        <time>2019-04-28T10:09:26Z</time>
      </trkpt>
      <trkpt lat="41.309518" lon="-8.739707">
        <ele>15.047</ele>
        <time>2019-04-28T10:09:37Z</time>
      </trkpt>
      <trkpt lat="41.309540" lon="-8.739726">
        <ele>15.067</ele>
        <time>2019-04-28T10:09:49Z</time>
      </trkpt>
      <trkpt lat="41.309660" lon="-8.739769">
        <ele>14.581</ele>
        <time>2019-04-28T10:09:55Z</time>
      </trkpt>
      <trkpt lat="41.309737" lon="-8.739880">
        <ele>15.023</ele>
        <time>2019-04-28T10:09:59Z</time>
      </trkpt>
      <trkpt lat="41.310129" lon="-8.740065">
        <ele>15.583</ele>
        <time>2019-04-28T10:10:12Z</time>
      </trkpt>
      <trkpt lat="41.310538" lon="-8.740138">
        <ele>16.011</ele>
        <time>2019-04-28T10:10:24Z</time>
      </trkpt>
      <trkpt lat="41.310865" lon="-8.740069">
        <ele>15.508</ele>
        <time>2019-04-28T10:10:35Z</time>
      </trkpt>
      <trkpt lat="41.311142" lon="-8.739748">
        <ele>14.565</ele>
        <time>2019-04-28T10:10:44Z</time>
      </trkpt>
      <trkpt lat="41.311575" lon="-8.739556">
        <ele>14.558</ele>
        <time>2019-04-28T10:10:55Z</time>
      </trkpt>
      <trkpt lat="41.311732" lon="-8.739487">
        <ele>14.094</ele>
        <time>2019-04-28T10:10:59Z</time>
      </trkpt>
      <trkpt lat="41.312290" lon="-8.739441">
        <ele>14.062</ele>
        <time>2019-04-28T10:11:13Z</time>
      </trkpt>
      <trkpt lat="41.312777" lon="-8.739398">
        <ele>13.680</ele>
        <time>2019-04-28T10:11:25Z</time>
      </trkpt>
      <trkpt lat="41.313033" lon="-8.739547">
        <ele>13.642</ele>
        <time>2019-04-28T10:11:34Z</time>
      </trkpt>
      <trkpt lat="41.312948" lon="-8.739606">
        <ele>14.552</ele>
        <time>2019-04-28T10:11:42Z</time>
      </trkpt>
      <trkpt lat="41.312966" lon="-8.739604">
        <ele>14.546</ele>
        <time>2019-04-28T10:11:43Z</time>
      </trkpt>
      <trkpt lat="41.313481" lon="-8.739587">
        <ele>15.552</ele>
        <time>2019-04-28T10:11:59Z</time>
      </trkpt>
      <trkpt lat="41.314220" lon="-8.739602">
        <ele>15.053</ele>
        <time>2019-04-28T10:12:21Z</time>
      </trkpt>
      <trkpt lat="41.314850" lon="-8.739536">
        <ele>15.008</ele>
        <time>2019-04-28T10:12:38Z</time>
      </trkpt>
      <trkpt lat="41.315096" lon="-8.739446">
        <ele>14.508</ele>
        <time>2019-04-28T10:12:45Z</time>
      </trkpt>
      <trkpt lat="41.315219" lon="-8.739223">
        <ele>14.028</ele>
        <time>2019-04-28T10:12:52Z</time>
      </trkpt>
      <trkpt lat="41.315581" lon="-8.738940">
        <ele>12.181</ele>
        <time>2019-04-28T10:13:03Z</time>
      </trkpt>
      <trkpt lat="41.316088" lon="-8.738969">
        <ele>9.777</ele>
        <time>2019-04-28T10:13:14Z</time>
      </trkpt>
      <trkpt lat="41.316503" lon="-8.738978">
        <ele>9.265</ele>
        <time>2019-04-28T10:13:26Z</time>
      </trkpt>
      <trkpt lat="41.317008" lon="-8.738949">
        <ele>9.793</ele>
        <time>2019-04-28T10:13:41Z</time>
      </trkpt>
      <trkpt lat="41.317045" lon="-8.738947">
        <ele>9.775</ele>
        <time>2019-04-28T10:13:43Z</time>
      </trkpt>
      <trkpt lat="41.317489" lon="-8.738926">
        <ele>10.285</ele>
        <time>2019-04-28T10:13:58Z</time>
      </trkpt>
      <trkpt lat="41.317868" lon="-8.738957">
        <ele>11.199</ele>
        <time>2019-04-28T10:14:09Z</time>
      </trkpt>
      <trkpt lat="41.318220" lon="-8.738938">
        <ele>11.645</ele>
        <time>2019-04-28T10:14:22Z</time>
      </trkpt>
      <trkpt lat="41.318786" lon="-8.738780">
        <ele>12.147</ele>
        <time>2019-04-28T10:14:38Z</time>
      </trkpt>
      <trkpt lat="41.319313" lon="-8.738705">
        <ele>11.111</ele>
        <time>2019-04-28T10:14:51Z</time>
      </trkpt>
      <trkpt lat="41.319781" lon="-8.738672">
        <ele>11.608</ele>
        <time>2019-04-28T10:15:02Z</time>
      </trkpt>
      <trkpt lat="41.320057" lon="-8.738530">
        <ele>11.687</ele>
        <time>2019-04-28T10:15:09Z</time>
      </trkpt>
      <trkpt lat="41.320611" lon="-8.738579">
        <ele>13.180</ele>
        <time>2019-04-28T10:15:22Z</time>
      </trkpt>
      <trkpt lat="41.320949" lon="-8.738586">
        <ele>14.586</ele>
        <time>2019-04-28T10:15:34Z</time>
      </trkpt>
      <trkpt lat="41.321073" lon="-8.738536">
        <ele>14.044</ele>
        <time>2019-04-28T10:15:42Z</time>
      </trkpt>
      <trkpt lat="41.321208" lon="-8.738494">
        <ele>14.582</ele>
        <time>2019-04-28T10:15:56Z</time>
      </trkpt>
      <trkpt lat="41.321429" lon="-8.738427">
        <ele>14.044</ele>
        <time>2019-04-28T10:16:09Z</time>
      </trkpt>
      <trkpt lat="41.321651" lon="-8.738363">
        <ele>14.084</ele>
        <time>2019-04-28T10:16:22Z</time>
      </trkpt>
      <trkpt lat="41.321777" lon="-8.738346">
        <ele>14.598</ele>
        <time>2019-04-28T10:16:35Z</time>
      </trkpt>
      <trkpt lat="41.322093" lon="-8.738311">
        <ele>12.636</ele>
        <time>2019-04-28T10:16:50Z</time>
      </trkpt>
      <trkpt lat="41.322215" lon="-8.738294">
        <ele>13.117</ele>
        <time>2019-04-28T10:17:05Z</time>
      </trkpt>
      <trkpt lat="41.322358" lon="-8.738267">
        <ele>12.118</ele>
        <time>2019-04-28T10:17:21Z</time>
      </trkpt>
      <trkpt lat="41.322533" lon="-8.738237">
        <ele>11.108</ele>
        <time>2019-04-28T10:17:32Z</time>
      </trkpt>
      <trkpt lat="41.322811" lon="-8.738173">
        <ele>11.156</ele>
        <time>2019-04-28T10:17:46Z</time>
      </trkpt>
      <trkpt lat="41.322989" lon="-8.738175">
        <ele>11.649</ele>
        <time>2019-04-28T10:18:02Z</time>
      </trkpt>
      <trkpt lat="41.323018" lon="-8.738185">
        <ele>11.195</ele>
        <time>2019-04-28T10:18:05Z</time>
      </trkpt>
      <trkpt lat="41.323196" lon="-8.738199">
        <ele>11.693</ele>
        <time>2019-04-28T10:18:23Z</time>
      </trkpt>
      <trkpt lat="41.323265" lon="-8.738205">
        <ele>10.741</ele>
        <time>2019-04-28T10:18:29Z</time>
      </trkpt>
      <trkpt lat="41.323283" lon="-8.738195">
        <ele>11.143</ele>
        <time>2019-04-28T10:18:31Z</time>
      </trkpt>
      <trkpt lat="41.323317" lon="-8.738159">
        <ele>10.713</ele>
        <time>2019-04-28T10:18:37Z</time>
      </trkpt>
      <trkpt lat="41.323567" lon="-8.737892">
        <ele>11.147</ele>
        <time>2019-04-28T10:18:52Z</time>
      </trkpt>
      <trkpt lat="41.323644" lon="-8.737819">
        <ele>11.674</ele>
        <time>2019-04-28T10:18:56Z</time>
      </trkpt>
      <trkpt lat="41.323649" lon="-8.737427">
        <ele>11.656</ele>
        <time>2019-04-28T10:19:07Z</time>
      </trkpt>
      <trkpt lat="41.323900" lon="-8.737234">
        <ele>11.621</ele>
        <time>2019-04-28T10:19:17Z</time>
      </trkpt>
      <trkpt lat="41.324374" lon="-8.737244">
        <ele>11.108</ele>
        <time>2019-04-28T10:19:33Z</time>
      </trkpt>
      <trkpt lat="41.324552" lon="-8.737271">
        <ele>10.770</ele>
        <time>2019-04-28T10:19:43Z</time>
      </trkpt>
      <trkpt lat="41.324858" lon="-8.737331">
        <ele>11.163</ele>
        <time>2019-04-28T10:19:58Z</time>
      </trkpt>
      <trkpt lat="41.325540" lon="-8.737444">
        <ele>11.159</ele>
        <time>2019-04-28T10:20:18Z</time>
      </trkpt>
      <trkpt lat="41.325833" lon="-8.737510">
        <ele>11.197</ele>
        <time>2019-04-28T10:20:31Z</time>
      </trkpt>
      <trkpt lat="41.326283" lon="-8.737449">
        <ele>11.175</ele>
        <time>2019-04-28T10:20:46Z</time>
      </trkpt>
      <trkpt lat="41.326628" lon="-8.737205">
        <ele>11.657</ele>
        <time>2019-04-28T10:21:01Z</time>
      </trkpt>
      <trkpt lat="41.326753" lon="-8.737256">
        <ele>12.137</ele>
        <time>2019-04-28T10:21:05Z</time>
      </trkpt>
      <trkpt lat="41.327117" lon="-8.737496">
        <ele>11.661</ele>
        <time>2019-04-28T10:21:15Z</time>
      </trkpt>
      <trkpt lat="41.327498" lon="-8.737906">
        <ele>13.167</ele>
        <time>2019-04-28T10:21:29Z</time>
      </trkpt>
      <trkpt lat="41.327877" lon="-8.737957">
        <ele>15.081</ele>
        <time>2019-04-28T10:21:42Z</time>
      </trkpt>
      <trkpt lat="41.328118" lon="-8.738140">
        <ele>15.019</ele>
        <time>2019-04-28T10:21:50Z</time>
      </trkpt>
      <trkpt lat="41.328222" lon="-8.738223">
        <ele>14.508</ele>
        <time>2019-04-28T10:21:53Z</time>
      </trkpt>
      <trkpt lat="41.328653" lon="-8.738434">
        <ele>13.629</ele>
        <time>2019-04-28T10:22:06Z</time>
      </trkpt>
      <trkpt lat="41.328850" lon="-8.738490">
        <ele>14.082</ele>
        <time>2019-04-28T10:22:18Z</time>
      </trkpt>
      <trkpt lat="41.329297" lon="-8.738568">
        <ele>14.018</ele>
        <time>2019-04-28T10:22:33Z</time>
      </trkpt>
      <trkpt lat="41.329480" lon="-8.738612">
        <ele>13.696</ele>
        <time>2019-04-28T10:22:45Z</time>
      </trkpt>
      <trkpt lat="41.329978" lon="-8.738719">
        <ele>14.074</ele>
        <time>2019-04-28T10:23:01Z</time>
      </trkpt>
      <trkpt lat="41.330282" lon="-8.738743">
        <ele>13.146</ele>
        <time>2019-04-28T10:23:11Z</time>
      </trkpt>
      <trkpt lat="41.330758" lon="-8.738785">
        <ele>12.176</ele>
        <time>2019-04-28T10:23:25Z</time>
      </trkpt>
      <trkpt lat="41.331356" lon="-8.738940">
        <ele>12.690</ele>
        <time>2019-04-28T10:23:42Z</time>
      </trkpt>
      <trkpt lat="41.332055" lon="-8.739133">
        <ele>12.688</ele>
        <time>2019-04-28T10:24:02Z</time>
      </trkpt>
      <trkpt lat="41.332289" lon="-8.739189">
        <ele>12.624</ele>
        <time>2019-04-28T10:24:14Z</time>
      </trkpt>
      <trkpt lat="41.332312" lon="-8.739184">
        <ele>12.626</ele>
        <time>2019-04-28T10:24:18Z</time>
      </trkpt>
      <trkpt lat="41.332334" lon="-8.739058">
        <ele>13.108</ele>
        <time>2019-04-28T10:24:32Z</time>
      </trkpt>
      <trkpt lat="41.332335" lon="-8.739019">
        <ele>13.151</ele>
        <time>2019-04-28T10:24:37Z</time>
      </trkpt>
      <trkpt lat="41.332351" lon="-8.739009">
        <ele>13.634</ele>
        <time>2019-04-28T10:24:39Z</time>
      </trkpt>
      <trkpt lat="41.332625" lon="-8.739037">
        <ele>15.520</ele>
        <time>2019-04-28T10:24:51Z</time>
      </trkpt>
      <trkpt lat="41.333084" lon="-8.739094">
        <ele>16.438</ele>
        <time>2019-04-28T10:25:08Z</time>
      </trkpt>
      <trkpt lat="41.333487" lon="-8.739154">
        <ele>15.056</ele>
        <time>2019-04-28T10:25:20Z</time>
      </trkpt>
      <trkpt lat="41.333601" lon="-8.739223">
        <ele>15.038</ele>
        <time>2019-04-28T10:25:23Z</time>
      </trkpt>
      <trkpt lat="41.334324" lon="-8.739593">
        <ele>14.068</ele>
        <time>2019-04-28T10:25:42Z</time>
      </trkpt>
      <trkpt lat="41.334655" lon="-8.739578">
        <ele>14.562</ele>
        <time>2019-04-28T10:25:53Z</time>
      </trkpt>
      <trkpt lat="41.335074" lon="-8.739708">
        <ele>14.571</ele>
        <time>2019-04-28T10:26:06Z</time>
      </trkpt>
      <trkpt lat="41.335651" lon="-8.740093">
        <ele>15.541</ele>
        <time>2019-04-28T10:26:23Z</time>
      </trkpt>
      <trkpt lat="41.335867" lon="-8.740174">
        <ele>15.015</ele>
        <time>2019-04-28T10:26:29Z</time>
      </trkpt>
      <trkpt lat="41.335962" lon="-8.740410">
        <ele>14.508</ele>
        <time>2019-04-28T10:26:39Z</time>
      </trkpt>
      <trkpt lat="41.336173" lon="-8.740532">
        <ele>14.080</ele>
        <time>2019-04-28T10:26:49Z</time>
      </trkpt>
      <trkpt lat="41.336589" lon="-8.740550">
        <ele>13.183</ele>
        <time>2019-04-28T10:27:03Z</time>
      </trkpt>
      <trkpt lat="41.337265" lon="-8.740584">
        <ele>11.659</ele>
        <time>2019-04-28T10:27:21Z</time>
      </trkpt>
      <trkpt lat="41.337515" lon="-8.740565">
        <ele>10.267</ele>
        <time>2019-04-28T10:27:32Z</time>
      </trkpt>
      <trkpt lat="41.337537" lon="-8.740555">
        <ele>10.255</ele>
        <time>2019-04-28T10:27:33Z</time>
      </trkpt>
      <trkpt lat="41.338059" lon="-8.740761">
        <ele>10.717</ele>
        <time>2019-04-28T10:27:49Z</time>
      </trkpt>
      <trkpt lat="41.338271" lon="-8.740780">
        <ele>11.147</ele>
        <time>2019-04-28T10:27:56Z</time>
      </trkpt>
      <trkpt lat="41.338340" lon="-8.740641">
        <ele>11.141</ele>
        <time>2019-04-28T10:28:01Z</time>
      </trkpt>
      <trkpt lat="41.338542" lon="-8.740046">
        <ele>11.154</ele>
        <time>2019-04-28T10:28:16Z</time>
      </trkpt>
      <trkpt lat="41.338614" lon="-8.739959">
        <ele>10.756</ele>
        <time>2019-04-28T10:28:19Z</time>
      </trkpt>
      <trkpt lat="41.338718" lon="-8.740110">
        <ele>9.711</ele>
        <time>2019-04-28T10:28:24Z</time>
      </trkpt>
      <trkpt lat="41.338839" lon="-8.740398">
        <ele>11.108</ele>
        <time>2019-04-28T10:28:30Z</time>
      </trkpt>
      <trkpt lat="41.338923" lon="-8.740586">
        <ele>11.688</ele>
        <time>2019-04-28T10:28:34Z</time>
      </trkpt>
      <trkpt lat="41.339259" lon="-8.741352">
        <ele>12.151</ele>
        <time>2019-04-28T10:28:50Z</time>
      </trkpt>
      <trkpt lat="41.339404" lon="-8.741609">
        <ele>12.127</ele>
        <time>2019-04-28T10:28:57Z</time>
      </trkpt>
      <trkpt lat="41.339646" lon="-8.741545">
        <ele>10.215</ele>
        <time>2019-04-28T10:29:05Z</time>
      </trkpt>
      <trkpt lat="41.340510" lon="-8.741037">
        <ele>8.313</ele>
        <time>2019-04-28T10:29:24Z</time>
      </trkpt>
      <trkpt lat="41.340731" lon="-8.740921">
        <ele>8.375</ele>
        <time>2019-04-28T10:29:29Z</time>
      </trkpt>
      <trkpt lat="41.340851" lon="-8.740829">
        <ele>7.895</ele>
        <time>2019-04-28T10:29:32Z</time>
      </trkpt>
      <trkpt lat="41.341447" lon="-8.740482">
        <ele>6.829</ele>
        <time>2019-04-28T10:29:47Z</time>
      </trkpt>
      <trkpt lat="41.341708" lon="-8.740168">
        <ele>8.732</ele>
        <time>2019-04-28T10:29:58Z</time>
      </trkpt>
      <trkpt lat="41.341825" lon="-8.739957">
        <ele>12.692</ele>
        <time>2019-04-28T10:30:06Z</time>
      </trkpt>
      <trkpt lat="41.341920" lon="-8.740098">
        <ele>13.611</ele>
        <time>2019-04-28T10:30:12Z</time>
      </trkpt>
      <trkpt lat="41.342170" lon="-8.740644">
        <ele>15.008</ele>
        <time>2019-04-28T10:30:28Z</time>
      </trkpt>
      <trkpt lat="41.342474" lon="-8.740909">
        <ele>14.066</ele>
        <time>2019-04-28T10:30:41Z</time>
      </trkpt>
      <trkpt lat="41.342613" lon="-8.741029">
        <ele>13.159</ele>
        <time>2019-04-28T10:30:47Z</time>
      </trkpt>
      <trkpt lat="41.342787" lon="-8.741098">
        <ele>11.695</ele>
        <time>2019-04-28T10:30:51Z</time>
      </trkpt>
      <trkpt lat="41.343040" lon="-8.741113">
        <ele>9.713</ele>
        <time>2019-04-28T10:30:55Z</time>
      </trkpt>
      <trkpt lat="41.344101" lon="-8.741043">
        <ele>7.891</ele>
        <time>2019-04-28T10:31:11Z</time>
      </trkpt>
      <trkpt lat="41.344276" lon="-8.741033">
        <ele>8.353</ele>
        <time>2019-04-28T10:31:14Z</time>
      </trkpt>
      <trkpt lat="41.344473" lon="-8.740890">
        <ele>8.383</ele>
        <time>2019-04-28T10:31:18Z</time>
      </trkpt>
      <trkpt lat="41.344568" lon="-8.740717">
        <ele>8.747</ele>
        <time>2019-04-28T10:31:21Z</time>
      </trkpt>
      <trkpt lat="41.344960" lon="-8.740277">
        <ele>11.175</ele>
        <time>2019-04-28T10:31:34Z</time>
      </trkpt>
      <trkpt lat="41.345093" lon="-8.740326">
        <ele>10.228</ele>
        <time>2019-04-28T10:31:44Z</time>
      </trkpt>
      <trkpt lat="41.345324" lon="-8.740370">
        <ele>9.720</ele>
        <time>2019-04-28T10:31:53Z</time>
      </trkpt>
      <trkpt lat="41.345726" lon="-8.740430">
        <ele>8.308</ele>
        <time>2019-04-28T10:32:05Z</time>
      </trkpt>
      <trkpt lat="41.346174" lon="-8.740485">
        <ele>8.380</ele>
        <time>2019-04-28T10:32:18Z</time>
      </trkpt>
      <trkpt lat="41.346796" lon="-8.740526">
        <ele>8.753</ele>
        <time>2019-04-28T10:32:33Z</time>
      </trkpt>
      <trkpt lat="41.347136" lon="-8.740547">
        <ele>8.749</ele>
        <time>2019-04-28T10:32:41Z</time>
      </trkpt>
      <trkpt lat="41.347629" lon="-8.740559">
        <ele>8.367</ele>
        <time>2019-04-28T10:32:52Z</time>
      </trkpt>
      <trkpt lat="41.348318" lon="-8.740595">
        <ele>7.845</ele>
        <time>2019-04-28T10:33:09Z</time>
      </trkpt>
      <trkpt lat="41.348927" lon="-8.740411">
        <ele>7.857</ele>
        <time>2019-04-28T10:33:25Z</time>
      </trkpt>
      <trkpt lat="41.349515" lon="-8.740075">
        <ele>8.757</ele>
        <time>2019-04-28T10:33:41Z</time>
      </trkpt>
      <trkpt lat="41.349978" lon="-8.739705">
        <ele>10.261</ele>
        <time>2019-04-28T10:33:55Z</time>
      </trkpt>
      <trkpt lat="41.350239" lon="-8.739281">
        <ele>11.148</ele>
        <time>2019-04-28T10:34:08Z</time>
      </trkpt>
      <trkpt lat="41.350358" lon="-8.739020">
        <ele>11.661</ele>
        <time>2019-04-28T10:34:17Z</time>
      </trkpt>
      <trkpt lat="41.350356" lon="-8.739027">
        <ele>11.617</ele>
        <time>2019-04-28T10:34:28Z</time>
      </trkpt>
      <trkpt lat="41.350620" lon="-8.739176">
        <ele>11.608</ele>
        <time>2019-04-28T10:34:41Z</time>
      </trkpt>
      <trkpt lat="41.350651" lon="-8.739202">
        <ele>11.687</ele>
        <time>2019-04-28T10:34:52Z</time>
      </trkpt>
      <trkpt lat="41.350916" lon="-8.739323">
        <ele>11.160</ele>
        <time>2019-04-28T10:35:06Z</time>
      </trkpt>
      <trkpt lat="41.351221" lon="-8.739490">
        <ele>11.616</ele>
        <time>2019-04-28T10:35:21Z</time>
      </trkpt>
      <trkpt lat="41.351598" lon="-8.739682">
        <ele>10.784</ele>
        <time>2019-04-28T10:35:37Z</time>
      </trkpt>
      <trkpt lat="41.351914" lon="-8.739837">
        <ele>10.742</ele>
        <time>2019-04-28T10:35:49Z</time>
      </trkpt>
      <trkpt lat="41.351937" lon="-8.739904">
        <ele>9.774</ele>
        <time>2019-04-28T10:36:01Z</time>
      </trkpt>
      <trkpt lat="41.351972" lon="-8.739959">
        <ele>10.254</ele>
        <time>2019-04-28T10:36:30Z</time>
      </trkpt>
      <trkpt lat="41.351989" lon="-8.740009">
        <ele>10.778</ele>
        <time>2019-04-28T10:36:32Z</time>
      </trkpt>
      <trkpt lat="41.351962" lon="-8.740360">
        <ele>9.728</ele>
        <time>2019-04-28T10:36:41Z</time>
      </trkpt>
      <trkpt lat="41.351860" lon="-8.740765">
        <ele>8.789</ele>
        <time>2019-04-28T10:36:53Z</time>
      </trkpt>
      <trkpt lat="41.351762" lon="-8.740842">
        <ele>9.217</ele>
        <time>2019-04-28T10:36:58Z</time>
      </trkpt>
      <trkpt lat="41.351671" lon="-8.740879">
        <ele>10.208</ele>
        <time>2019-04-28T10:37:02Z</time>
      </trkpt>
      <trkpt lat="41.351446" lon="-8.740666">
        <ele>8.725</ele>
        <time>2019-04-28T10:37:12Z</time>
      </trkpt>
      <trkpt lat="41.351357" lon="-8.740776">
        <ele>7.898</ele>
        <time>2019-04-28T10:37:19Z</time>
      </trkpt>
      <trkpt lat="41.351163" lon="-8.741266">
        <ele>8.324</ele>
        <time>2019-04-28T10:37:34Z</time>
      </trkpt>
      <trkpt lat="41.350921" lon="-8.741462">
        <ele>8.762</ele>
        <time>2019-04-28T10:37:48Z</time>
      </trkpt>
      <trkpt lat="41.350929" lon="-8.741460">
        <ele>8.380</ele>
        <time>2019-04-28T10:38:14Z</time>
      </trkpt>
      <trkpt lat="41.350933" lon="-8.741462">
        <ele>7.842</ele>
        <time>2019-04-28T10:38:29Z</time>
      </trkpt>
      <trkpt lat="41.350859" lon="-8.741601">
        <ele>10.242</ele>
        <time>2019-04-28T10:38:36Z</time>
      </trkpt>
      <trkpt lat="41.350719" lon="-8.741780">
        <ele>11.686</ele>
        <time>2019-04-28T10:38:43Z</time>
      </trkpt>
      <trkpt lat="41.350803" lon="-8.741825">
        <ele>11.683</ele>
        <time>2019-04-28T10:38:50Z</time>
      </trkpt>
      <trkpt lat="41.350838" lon="-8.742056">
        <ele>9.725</ele>
        <time>2019-04-28T10:38:58Z</time>
      </trkpt>
      <trkpt lat="41.350835" lon="-8.742172">
        <ele>9.217</ele>
        <time>2019-04-28T10:39:01Z</time>
      </trkpt>
      <trkpt lat="41.350705" lon="-8.742507">
        <ele>9.708</ele>
        <time>2019-04-28T10:39:11Z</time>
      </trkpt>
      <trkpt lat="41.350444" lon="-8.742930">
        <ele>8.781</ele>
        <time>2019-04-28T10:39:24Z</time>
      </trkpt>
      <trkpt lat="41.350233" lon="-8.743385">
        <ele>7.394</ele>
        <time>2019-04-28T10:39:39Z</time>
      </trkpt>
      <trkpt lat="41.350157" lon="-8.743503">
        <ele>7.830</ele>
        <time>2019-04-28T10:39:45Z</time>
      </trkpt>
      <trkpt lat="41.350143" lon="-8.743535">
        <ele>7.838</ele>
        <time>2019-04-28T10:39:58Z</time>
      </trkpt>
      <trkpt lat="41.350126" lon="-8.743551">
        <ele>8.326</ele>
        <time>2019-04-28T10:40:30Z</time>
      </trkpt>
      <trkpt lat="41.350133" lon="-8.743545">
        <ele>9.248</ele>
        <time>2019-04-28T10:41:07Z</time>
      </trkpt>
      <trkpt lat="41.350161" lon="-8.743527">
        <ele>7.888</ele>
        <time>2019-04-28T10:41:43Z</time>
      </trkpt>
      <trkpt lat="41.350160" lon="-8.743529">
        <ele>6.352</ele>
        <time>2019-04-28T10:42:17Z</time>
      </trkpt>
      <trkpt lat="41.350154" lon="-8.743526">
        <ele>6.317</ele>
        <time>2019-04-28T10:42:52Z</time>
      </trkpt>
      <trkpt lat="41.350145" lon="-8.743521">
        <ele>5.487</ele>
        <time>2019-04-28T10:43:31Z</time>
      </trkpt>
      <trkpt lat="41.350136" lon="-8.743535">
        <ele>6.315</ele>
        <time>2019-04-28T10:44:15Z</time>
      </trkpt>
      <trkpt lat="41.350125" lon="-8.743535">
        <ele>6.308</ele>
        <time>2019-04-28T10:44:54Z</time>
      </trkpt>
      <trkpt lat="41.350143" lon="-8.743528">
        <ele>6.844</ele>
        <time>2019-04-28T10:45:32Z</time>
      </trkpt>
      <trkpt lat="41.350162" lon="-8.743535">
        <ele>5.417</ele>
        <time>2019-04-28T10:46:02Z</time>
      </trkpt>
      <trkpt lat="41.350155" lon="-8.743570">
        <ele>5.953</ele>
        <time>2019-04-28T10:46:08Z</time>
      </trkpt>
      <trkpt lat="41.350062" lon="-8.743617">
        <ele>5.991</ele>
        <time>2019-04-28T10:46:13Z</time>
      </trkpt>
      <trkpt lat="41.349909" lon="-8.743606">
        <ele>6.399</ele>
        <time>2019-04-28T10:46:22Z</time>
      </trkpt>
      <trkpt lat="41.349666" lon="-8.743576">
        <ele>6.891</ele>
        <time>2019-04-28T10:46:35Z</time>
      </trkpt>
      <trkpt lat="41.349591" lon="-8.743582">
        <ele>7.861</ele>
        <time>2019-04-28T10:46:41Z</time>
      </trkpt>
      <trkpt lat="41.349474" lon="-8.743524">
        <ele>9.265</ele>
        <time>2019-04-28T10:46:47Z</time>
      </trkpt>
      <trkpt lat="41.349330" lon="-8.743569">
        <ele>9.751</ele>
        <time>2019-04-28T10:46:55Z</time>
      </trkpt>
      <trkpt lat="41.349223" lon="-8.743742">
        <ele>9.201</ele>
        <time>2019-04-28T10:47:04Z</time>
      </trkpt>
      <trkpt lat="41.349153" lon="-8.743801">
        <ele>8.311</ele>
        <time>2019-04-28T10:47:13Z</time>
      </trkpt>
      <trkpt lat="41.349097" lon="-8.743690">
        <ele>8.308</ele>
        <time>2019-04-28T10:47:21Z</time>
      </trkpt>
      <trkpt lat="41.348881" lon="-8.743805">
        <ele>9.728</ele>
        <time>2019-04-28T10:47:33Z</time>
      </trkpt>
      <trkpt lat="41.348703" lon="-8.744180">
        <ele>7.321</ele>
        <time>2019-04-28T10:47:42Z</time>
      </trkpt>
      <trkpt lat="41.348738" lon="-8.744472">
        <ele>5.427</ele>
        <time>2019-04-28T10:47:54Z</time>
      </trkpt>
      <trkpt lat="41.348764" lon="-8.744541">
        <ele>5.995</ele>
        <time>2019-04-28T10:47:57Z</time>
      </trkpt>
      <trkpt lat="41.348629" lon="-8.744619">
        <ele>6.343</ele>
        <time>2019-04-28T10:48:05Z</time>
      </trkpt>
      <trkpt lat="41.348593" lon="-8.744610">
        <ele>6.315</ele>
        <time>2019-04-28T10:48:07Z</time>
      </trkpt>
      <trkpt lat="41.348478" lon="-8.744532">
        <ele>7.355</ele>
        <time>2019-04-28T10:48:14Z</time>
      </trkpt>
      <trkpt lat="41.348219" lon="-8.744348">
        <ele>7.869</ele>
        <time>2019-04-28T10:48:25Z</time>
      </trkpt>
      <trkpt lat="41.348091" lon="-8.744409">
        <ele>8.348</ele>
        <time>2019-04-28T10:48:32Z</time>
      </trkpt>
      <trkpt lat="41.347857" lon="-8.744601">
        <ele>9.261</ele>
        <time>2019-04-28T10:48:47Z</time>
      </trkpt>
      <trkpt lat="41.347659" lon="-8.744747">
        <ele>7.817</ele>
        <time>2019-04-28T10:49:02Z</time>
      </trkpt>
      <trkpt lat="41.347388" lon="-8.744936">
        <ele>6.808</ele>
        <time>2019-04-28T10:49:12Z</time>
      </trkpt>
      <trkpt lat="41.347262" lon="-8.744953">
        <ele>7.357</ele>
        <time>2019-04-28T10:49:17Z</time>
      </trkpt>
      <trkpt lat="41.347223" lon="-8.744972">
        <ele>7.350</ele>
        <time>2019-04-28T10:49:30Z</time>
      </trkpt>
      <trkpt lat="41.347049" lon="-8.745063">
        <ele>8.326</ele>
        <time>2019-04-28T10:49:39Z</time>
      </trkpt>
      <trkpt lat="41.346923" lon="-8.745072">
        <ele>10.274</ele>
        <time>2019-04-28T10:49:44Z</time>
      </trkpt>
      <trkpt lat="41.346765" lon="-8.745085">
        <ele>11.132</ele>
        <time>2019-04-28T10:49:51Z</time>
      </trkpt>
      <trkpt lat="41.346724" lon="-8.745120">
        <ele>9.294</ele>
        <time>2019-04-28T10:50:03Z</time>
      </trkpt>
      <trkpt lat="41.346739" lon="-8.745136">
        <ele>8.384</ele>
        <time>2019-04-28T10:50:07Z</time>
      </trkpt>
      <trkpt lat="41.346794" lon="-8.745153">
        <ele>7.828</ele>
        <time>2019-04-28T10:50:11Z</time>
      </trkpt>
      <trkpt lat="41.346828" lon="-8.745295">
        <ele>8.351</ele>
        <time>2019-04-28T10:50:21Z</time>
      </trkpt>
      <trkpt lat="41.346826" lon="-8.745315">
        <ele>9.201</ele>
        <time>2019-04-28T10:50:37Z</time>
      </trkpt>
      <trkpt lat="41.346829" lon="-8.745320">
        <ele>8.711</ele>
        <time>2019-04-28T10:51:04Z</time>
      </trkpt>
      <trkpt lat="41.346831" lon="-8.745319">
        <ele>8.708</ele>
        <time>2019-04-28T10:51:28Z</time>
      </trkpt>
      <trkpt lat="41.346830" lon="-8.745319">
        <ele>10.228</ele>
        <time>2019-04-28T10:52:04Z</time>
      </trkpt>
      <trkpt lat="41.346837" lon="-8.745316">
        <ele>10.241</ele>
        <time>2019-04-28T10:52:37Z</time>
      </trkpt>
      <trkpt lat="41.346833" lon="-8.745320">
        <ele>10.267</ele>
        <time>2019-04-28T10:53:08Z</time>
      </trkpt>
      <trkpt lat="41.346833" lon="-8.745316">
        <ele>10.215</ele>
        <time>2019-04-28T10:53:34Z</time>
      </trkpt>
      <trkpt lat="41.346837" lon="-8.745308">
        <ele>10.223</ele>
        <time>2019-04-28T10:53:46Z</time>
      </trkpt>
      <trkpt lat="41.346838" lon="-8.745174">
        <ele>9.785</ele>
        <time>2019-04-28T10:53:53Z</time>
      </trkpt>
      <trkpt lat="41.346926" lon="-8.745135">
        <ele>9.215</ele>
        <time>2019-04-28T10:54:00Z</time>
      </trkpt>
      <trkpt lat="41.347043" lon="-8.745140">
        <ele>8.349</ele>
        <time>2019-04-28T10:54:06Z</time>
      </trkpt>
      <trkpt lat="41.347095" lon="-8.745138">
        <ele>7.811</ele>
        <time>2019-04-28T10:54:08Z</time>
      </trkpt>
      <trkpt lat="41.347150" lon="-8.745005">
        <ele>8.321</ele>
        <time>2019-04-28T10:54:14Z</time>
      </trkpt>
      <trkpt lat="41.347260" lon="-8.744939">
        <ele>8.703</ele>
        <time>2019-04-28T10:54:17Z</time>
      </trkpt>
      <trkpt lat="41.347639" lon="-8.744728">
        <ele>8.708</ele>
        <time>2019-04-28T10:54:28Z</time>
      </trkpt>
      <trkpt lat="41.347986" lon="-8.744491">
        <ele>8.714</ele>
        <time>2019-04-28T10:54:38Z</time>
      </trkpt>
      <trkpt lat="41.348404" lon="-8.744239">
        <ele>8.347</ele>
        <time>2019-04-28T10:54:51Z</time>
      </trkpt>
      <trkpt lat="41.348431" lon="-8.744220">
        <ele>8.313</ele>
        <time>2019-04-28T10:54:52Z</time>
      </trkpt>
      <trkpt lat="41.348471" lon="-8.744353">
        <ele>7.831</ele>
        <time>2019-04-28T10:54:59Z</time>
      </trkpt>
      <trkpt lat="41.348588" lon="-8.744457">
        <ele>7.879</ele>
        <time>2019-04-28T10:55:05Z</time>
      </trkpt>
      <trkpt lat="41.348611" lon="-8.744487">
        <ele>7.371</ele>
        <time>2019-04-28T10:55:06Z</time>
      </trkpt>
      <trkpt lat="41.348685" lon="-8.744567">
        <ele>7.341</ele>
        <time>2019-04-28T10:55:09Z</time>
      </trkpt>
      <trkpt lat="41.348777" lon="-8.744339">
        <ele>6.395</ele>
        <time>2019-04-28T10:55:17Z</time>
      </trkpt>
      <trkpt lat="41.348894" lon="-8.743820">
        <ele>7.331</ele>
        <time>2019-04-28T10:55:30Z</time>
      </trkpt>
      <trkpt lat="41.349151" lon="-8.743617">
        <ele>8.361</ele>
        <time>2019-04-28T10:55:39Z</time>
      </trkpt>
      <trkpt lat="41.349331" lon="-8.743495">
        <ele>8.307</ele>
        <time>2019-04-28T10:55:44Z</time>
      </trkpt>
      <trkpt lat="41.349576" lon="-8.743545">
        <ele>7.808</ele>
        <time>2019-04-28T10:55:52Z</time>
      </trkpt>
      <trkpt lat="41.349942" lon="-8.743613">
        <ele>8.776</ele>
        <time>2019-04-28T10:56:04Z</time>
      </trkpt>
      <trkpt lat="41.350030" lon="-8.743488">
        <ele>9.259</ele>
        <time>2019-04-28T10:56:09Z</time>
      </trkpt>
      <trkpt lat="41.350130" lon="-8.743496">
        <ele>9.785</ele>
        <time>2019-04-28T10:56:14Z</time>
      </trkpt>
      <trkpt lat="41.350298" lon="-8.743306">
        <ele>9.263</ele>
        <time>2019-04-28T10:56:23Z</time>
      </trkpt>
      <trkpt lat="41.350313" lon="-8.743238">
        <ele>9.251</ele>
        <time>2019-04-28T10:56:25Z</time>
      </trkpt>
      <trkpt lat="41.350583" lon="-8.742721">
        <ele>8.713</ele>
        <time>2019-04-28T10:56:42Z</time>
      </trkpt>
      <trkpt lat="41.350697" lon="-8.742552">
        <ele>9.713</ele>
        <time>2019-04-28T10:56:48Z</time>
      </trkpt>
      <trkpt lat="41.350813" lon="-8.742642">
        <ele>9.767</ele>
        <time>2019-04-28T10:56:57Z</time>
      </trkpt>
      <trkpt lat="41.350805" lon="-8.742650">
        <ele>8.342</ele>
        <time>2019-04-28T10:57:12Z</time>
      </trkpt>
      <trkpt lat="41.350853" lon="-8.742445">
        <ele>8.722</ele>
        <time>2019-04-28T10:57:22Z</time>
      </trkpt>
      <trkpt lat="41.350864" lon="-8.742311">
        <ele>8.714</ele>
        <time>2019-04-28T10:57:32Z</time>
      </trkpt>
      <trkpt lat="41.350913" lon="-8.742182">
        <ele>8.308</ele>
        <time>2019-04-28T10:57:44Z</time>
      </trkpt>
      <trkpt lat="41.350920" lon="-8.742193">
        <ele>7.877</ele>
        <time>2019-04-28T10:57:57Z</time>
      </trkpt>
      <trkpt lat="41.350987" lon="-8.742237">
        <ele>7.370</ele>
        <time>2019-04-28T10:58:08Z</time>
      </trkpt>
      <trkpt lat="41.350987" lon="-8.742235">
        <ele>6.326</ele>
        <time>2019-04-28T10:58:34Z</time>
      </trkpt>
      <trkpt lat="41.350991" lon="-8.742223">
        <ele>5.494</ele>
        <time>2019-04-28T10:59:07Z</time>
      </trkpt>
      <trkpt lat="41.350990" lon="-8.742227">
        <ele>5.482</ele>
        <time>2019-04-28T10:59:36Z</time>
      </trkpt>
      <trkpt lat="41.350985" lon="-8.742223">
        <ele>4.474</ele>
        <time>2019-04-28T11:00:05Z</time>
      </trkpt>
      <trkpt lat="41.350983" lon="-8.742223">
        <ele>4.454</ele>
        <time>2019-04-28T11:00:31Z</time>
      </trkpt>
      <trkpt lat="41.350979" lon="-8.742225">
        <ele>4.978</ele>
        <time>2019-04-28T11:01:01Z</time>
      </trkpt>
      <trkpt lat="41.350975" lon="-8.742224">
        <ele>4.997</ele>
        <time>2019-04-28T11:01:27Z</time>
      </trkpt>
      <trkpt lat="41.350979" lon="-8.742219">
        <ele>5.423</ele>
        <time>2019-04-28T11:01:47Z</time>
      </trkpt>
      <trkpt lat="41.350975" lon="-8.742215">
        <ele>5.925</ele>
        <time>2019-04-28T11:02:17Z</time>
      </trkpt>
      <trkpt lat="41.350965" lon="-8.742217">
        <ele>5.908</ele>
        <time>2019-04-28T11:02:45Z</time>
      </trkpt>
      <trkpt lat="41.350957" lon="-8.742213">
        <ele>5.982</ele>
        <time>2019-04-28T11:03:11Z</time>
      </trkpt>
      <trkpt lat="41.350950" lon="-8.742216">
        <ele>5.425</ele>
        <time>2019-04-28T11:03:39Z</time>
      </trkpt>
      <trkpt lat="41.350947" lon="-8.742212">
        <ele>4.931</ele>
        <time>2019-04-28T11:04:02Z</time>
      </trkpt>
      <trkpt lat="41.350947" lon="-8.742210">
        <ele>5.449</ele>
        <time>2019-04-28T11:04:36Z</time>
      </trkpt>
      <trkpt lat="41.350946" lon="-8.742205">
        <ele>6.387</ele>
        <time>2019-04-28T11:05:12Z</time>
      </trkpt>
      <trkpt lat="41.350943" lon="-8.742203">
        <ele>6.849</ele>
        <time>2019-04-28T11:05:50Z</time>
      </trkpt>
      <trkpt lat="41.350943" lon="-8.742198">
        <ele>6.349</ele>
        <time>2019-04-28T11:06:33Z</time>
      </trkpt>
      <trkpt lat="41.350941" lon="-8.742199">
        <ele>6.353</ele>
        <time>2019-04-28T11:07:09Z</time>
      </trkpt>
      <trkpt lat="41.350956" lon="-8.742192">
        <ele>6.379</ele>
        <time>2019-04-28T11:07:46Z</time>
      </trkpt>
      <trkpt lat="41.350956" lon="-8.742187">
        <ele>5.405</ele>
        <time>2019-04-28T11:08:19Z</time>
      </trkpt>
      <trkpt lat="41.350953" lon="-8.742190">
        <ele>4.925</ele>
        <time>2019-04-28T11:08:52Z</time>
      </trkpt>
      <trkpt lat="41.350953" lon="-8.742190">
        <ele>4.408</ele>
        <time>2019-04-28T11:09:22Z</time>
      </trkpt>
      <trkpt lat="41.350947" lon="-8.742190">
        <ele>4.430</ele>
        <time>2019-04-28T11:09:51Z</time>
      </trkpt>
      <trkpt lat="41.350940" lon="-8.742183">
        <ele>3.933</ele>
        <time>2019-04-28T11:10:28Z</time>
      </trkpt>
      <trkpt lat="41.350930" lon="-8.742182">
        <ele>3.959</ele>
        <time>2019-04-28T11:10:52Z</time>
      </trkpt>
      <trkpt lat="41.350923" lon="-8.742177">
        <ele>4.997</ele>
        <time>2019-04-28T11:11:19Z</time>
      </trkpt>
      <trkpt lat="41.350902" lon="-8.742144">
        <ele>5.975</ele>
        <time>2019-04-28T11:11:43Z</time>
      </trkpt>
      <trkpt lat="41.350875" lon="-8.742118">
        <ele>5.937</ele>
        <time>2019-04-28T11:12:13Z</time>
      </trkpt>
      <trkpt lat="41.350867" lon="-8.742117">
        <ele>5.487</ele>
        <time>2019-04-28T11:12:40Z</time>
      </trkpt>
      <trkpt lat="41.350889" lon="-8.742129">
        <ele>7.391</ele>
        <time>2019-04-28T11:13:00Z</time>
      </trkpt>
      <trkpt lat="41.350930" lon="-8.742163">
        <ele>9.231</ele>
        <time>2019-04-28T11:13:24Z</time>
      </trkpt>
      <trkpt lat="41.350930" lon="-8.742157">
        <ele>7.861</ele>
        <time>2019-04-28T11:13:49Z</time>
      </trkpt>
      <trkpt lat="41.350936" lon="-8.742152">
        <ele>6.807</ele>
        <time>2019-04-28T11:14:11Z</time>
      </trkpt>
      <trkpt lat="41.350923" lon="-8.742136">
        <ele>5.908</ele>
        <time>2019-04-28T11:14:34Z</time>
      </trkpt>
      <trkpt lat="41.350935" lon="-8.742176">
        <ele>4.496</ele>
        <time>2019-04-28T11:14:58Z</time>
      </trkpt>
      <trkpt lat="41.350937" lon="-8.742120">
        <ele>3.999</ele>
        <time>2019-04-28T11:15:23Z</time>
      </trkpt>
      <trkpt lat="41.350954" lon="-8.742110">
        <ele>4.435</ele>
        <time>2019-04-28T11:15:52Z</time>
      </trkpt>
      <trkpt lat="41.350939" lon="-8.742103">
        <ele>3.583</ele>
        <time>2019-04-28T11:16:20Z</time>
      </trkpt>
      <trkpt lat="41.350933" lon="-8.742102">
        <ele>3.571</ele>
        <time>2019-04-28T11:16:45Z</time>
      </trkpt>
      <trkpt lat="41.350935" lon="-8.742106">
        <ele>3.943</ele>
        <time>2019-04-28T11:17:14Z</time>
      </trkpt>
      <trkpt lat="41.350946" lon="-8.742117">
        <ele>4.923</ele>
        <time>2019-04-28T11:17:41Z</time>
      </trkpt>
      <trkpt lat="41.350943" lon="-8.742114">
        <ele>5.977</ele>
        <time>2019-04-28T11:18:01Z</time>
      </trkpt>
      <trkpt lat="41.350938" lon="-8.742112">
        <ele>6.883</ele>
        <time>2019-04-28T11:18:23Z</time>
      </trkpt>
      <trkpt lat="41.350940" lon="-8.742120">
        <ele>7.325</ele>
        <time>2019-04-28T11:18:50Z</time>
      </trkpt>
      <trkpt lat="41.350941" lon="-8.742133">
        <ele>7.317</ele>
        <time>2019-04-28T11:19:17Z</time>
      </trkpt>
      <trkpt lat="41.350934" lon="-8.742151">
        <ele>7.308</ele>
        <time>2019-04-28T11:19:44Z</time>
      </trkpt>
      <trkpt lat="41.350922" lon="-8.742148">
        <ele>7.861</ele>
        <time>2019-04-28T11:20:01Z</time>
      </trkpt>
      <trkpt lat="41.350925" lon="-8.742153">
        <ele>8.734</ele>
        <time>2019-04-28T11:20:21Z</time>
      </trkpt>
      <trkpt lat="41.350937" lon="-8.742164">
        <ele>9.280</ele>
        <time>2019-04-28T11:20:47Z</time>
      </trkpt>
      <trkpt lat="41.350933" lon="-8.742163">
        <ele>9.288</ele>
        <time>2019-04-28T11:21:08Z</time>
      </trkpt>
      <trkpt lat="41.350922" lon="-8.742170">
        <ele>9.266</ele>
        <time>2019-04-28T11:21:41Z</time>
      </trkpt>
      <trkpt lat="41.350921" lon="-8.742181">
        <ele>9.258</ele>
        <time>2019-04-28T11:22:02Z</time>
      </trkpt>
      <trkpt lat="41.350930" lon="-8.742188">
        <ele>8.318</ele>
        <time>2019-04-28T11:22:19Z</time>
      </trkpt>
      <trkpt lat="41.350936" lon="-8.742075">
        <ele>8.782</ele>
        <time>2019-04-28T11:22:33Z</time>
      </trkpt>
      <trkpt lat="41.350941" lon="-8.742056">
        <ele>9.753</ele>
        <time>2019-04-28T11:22:41Z</time>
      </trkpt>
      <trkpt lat="41.350883" lon="-8.742031">
        <ele>10.704</ele>
        <time>2019-04-28T11:22:46Z</time>
      </trkpt>
      <trkpt lat="41.350918" lon="-8.741742">
        <ele>13.114</ele>
        <time>2019-04-28T11:22:57Z</time>
      </trkpt>
      <trkpt lat="41.350930" lon="-8.741692">
        <ele>13.108</ele>
        <time>2019-04-28T11:22:59Z</time>
      </trkpt>
      <trkpt lat="41.351061" lon="-8.741438">
        <ele>13.158</ele>
        <time>2019-04-28T11:23:10Z</time>
      </trkpt>
      <trkpt lat="41.351090" lon="-8.741423">
        <ele>13.191</ele>
        <time>2019-04-28T11:23:11Z</time>
      </trkpt>
      <trkpt lat="41.351259" lon="-8.741471">
        <ele>12.187</ele>
        <time>2019-04-28T11:23:16Z</time>
      </trkpt>
      <trkpt lat="41.351745" lon="-8.741345">
        <ele>12.135</ele>
        <time>2019-04-28T11:23:30Z</time>
      </trkpt>
      <trkpt lat="41.351752" lon="-8.741202">
        <ele>11.123</ele>
        <time>2019-04-28T11:23:37Z</time>
      </trkpt>
      <trkpt lat="41.351896" lon="-8.740620">
        <ele>9.765</ele>
        <time>2019-04-28T11:23:52Z</time>
      </trkpt>
      <trkpt lat="41.351962" lon="-8.740441">
        <ele>9.225</ele>
        <time>2019-04-28T11:24:03Z</time>
      </trkpt>
      <trkpt lat="41.351982" lon="-8.740445">
        <ele>9.279</ele>
        <time>2019-04-28T11:24:05Z</time>
      </trkpt>
      <trkpt lat="41.352038" lon="-8.740482">
        <ele>7.894</ele>
        <time>2019-04-28T11:24:10Z</time>
      </trkpt>
      <trkpt lat="41.352333" lon="-8.740569">
        <ele>5.957</ele>
        <time>2019-04-28T11:24:21Z</time>
      </trkpt>
      <trkpt lat="41.352368" lon="-8.740585">
        <ele>5.422</ele>
        <time>2019-04-28T11:24:27Z</time>
      </trkpt>
      <trkpt lat="41.352539" lon="-8.740670">
        <ele>8.708</ele>
        <time>2019-04-28T11:24:36Z</time>
      </trkpt>
      <trkpt lat="41.352925" lon="-8.740780">
        <ele>13.632</ele>
        <time>2019-04-28T11:24:49Z</time>
      </trkpt>
      <trkpt lat="41.353146" lon="-8.740821">
        <ele>18.815</ele>
        <time>2019-04-28T11:25:00Z</time>
      </trkpt>
      <trkpt lat="41.353167" lon="-8.740816">
        <ele>19.831</ele>
        <time>2019-04-28T11:25:02Z</time>
      </trkpt>
      <trkpt lat="41.353194" lon="-8.740807">
        <ele>20.339</ele>
        <time>2019-04-28T11:25:05Z</time>
      </trkpt>
      <trkpt lat="41.353220" lon="-8.740807">
        <ele>17.977</ele>
        <time>2019-04-28T11:25:13Z</time>
      </trkpt>
      <trkpt lat="41.353248" lon="-8.740736">
        <ele>16.919</ele>
        <time>2019-04-28T11:25:17Z</time>
      </trkpt>
      <trkpt lat="41.353274" lon="-8.740670">
        <ele>16.079</ele>
        <time>2019-04-28T11:25:20Z</time>
      </trkpt>
      <trkpt lat="41.353295" lon="-8.740663">
        <ele>15.063</ele>
        <time>2019-04-28T11:25:22Z</time>
      </trkpt>
      <trkpt lat="41.353479" lon="-8.740865">
        <ele>11.181</ele>
        <time>2019-04-28T11:25:31Z</time>
      </trkpt>
      <trkpt lat="41.353671" lon="-8.740982">
        <ele>9.261</ele>
        <time>2019-04-28T11:25:40Z</time>
      </trkpt>
      <trkpt lat="41.353922" lon="-8.741077">
        <ele>6.317</ele>
        <time>2019-04-28T11:25:48Z</time>
      </trkpt>
      <trkpt lat="41.354445" lon="-8.741257">
        <ele>7.808</ele>
        <time>2019-04-28T11:26:02Z</time>
      </trkpt>
      <trkpt lat="41.354848" lon="-8.741351">
        <ele>9.761</ele>
        <time>2019-04-28T11:26:14Z</time>
      </trkpt>
      <trkpt lat="41.355241" lon="-8.741497">
        <ele>12.644</ele>
        <time>2019-04-28T11:26:27Z</time>
      </trkpt>
      <trkpt lat="41.355599" lon="-8.741585">
        <ele>14.070</ele>
        <time>2019-04-28T11:26:38Z</time>
      </trkpt>
      <trkpt lat="41.355636" lon="-8.741602">
        <ele>14.068</ele>
        <time>2019-04-28T11:26:40Z</time>
      </trkpt>
      <trkpt lat="41.355660" lon="-8.741663">
        <ele>13.696</ele>
        <time>2019-04-28T11:26:53Z</time>
      </trkpt>
      <trkpt lat="41.355663" lon="-8.741681">
        <ele>15.048</ele>
        <time>2019-04-28T11:27:08Z</time>
      </trkpt>
      <trkpt lat="41.355724" lon="-8.741709">
        <ele>15.028</ele>
        <time>2019-04-28T11:27:11Z</time>
      </trkpt>
      <trkpt lat="41.356012" lon="-8.742005">
        <ele>16.062</ele>
        <time>2019-04-28T11:27:19Z</time>
      </trkpt>
      <trkpt lat="41.356010" lon="-8.742069">
        <ele>16.097</ele>
        <time>2019-04-28T11:27:20Z</time>
      </trkpt>
      <trkpt lat="41.355929" lon="-8.742547">
        <ele>17.923</ele>
        <time>2019-04-28T11:27:29Z</time>
      </trkpt>
      <trkpt lat="41.355900" lon="-8.742754">
        <ele>19.325</ele>
        <time>2019-04-28T11:27:33Z</time>
      </trkpt>
      <trkpt lat="41.355819" lon="-8.743323">
        <ele>19.808</ele>
        <time>2019-04-28T11:27:47Z</time>
      </trkpt>
      <trkpt lat="41.355739" lon="-8.743896">
        <ele>18.872</ele>
        <time>2019-04-28T11:28:04Z</time>
      </trkpt>
      <trkpt lat="41.355733" lon="-8.744289">
        <ele>19.875</ele>
        <time>2019-04-28T11:28:15Z</time>
      </trkpt>
      <trkpt lat="41.355727" lon="-8.745065">
        <ele>19.841</ele>
        <time>2019-04-28T11:28:30Z</time>
      </trkpt>
      <trkpt lat="41.355724" lon="-8.745909">
        <ele>18.839</ele>
        <time>2019-04-28T11:28:46Z</time>
      </trkpt>
      <trkpt lat="41.355703" lon="-8.746171">
        <ele>18.887</ele>
        <time>2019-04-28T11:28:51Z</time>
      </trkpt>
      <trkpt lat="41.355597" lon="-8.746489">
        <ele>17.469</ele>
        <time>2019-04-28T11:28:57Z</time>
      </trkpt>
      <trkpt lat="41.355512" lon="-8.746718">
        <ele>16.959</ele>
        <time>2019-04-28T11:29:01Z</time>
      </trkpt>
      <trkpt lat="41.355210" lon="-8.747727">
        <ele>15.093</ele>
        <time>2019-04-28T11:29:17Z</time>
      </trkpt>
      <trkpt lat="41.355179" lon="-8.747866">
        <ele>15.088</ele>
        <time>2019-04-28T11:29:19Z</time>
      </trkpt>
      <trkpt lat="41.355140" lon="-8.748125">
        <ele>15.024</ele>
        <time>2019-04-28T11:29:23Z</time>
      </trkpt>
      <trkpt lat="41.355011" lon="-8.749074">
        <ele>16.426</ele>
        <time>2019-04-28T11:29:40Z</time>
      </trkpt>
      <trkpt lat="41.354942" lon="-8.749763">
        <ele>17.908</ele>
        <time>2019-04-28T11:29:55Z</time>
      </trkpt>
      <trkpt lat="41.354947" lon="-8.749804">
        <ele>17.961</ele>
        <time>2019-04-28T11:29:56Z</time>
      </trkpt>
      <trkpt lat="41.355315" lon="-8.750076">
        <ele>20.854</ele>
        <time>2019-04-28T11:30:08Z</time>
      </trkpt>
      <trkpt lat="41.355844" lon="-8.750419">
        <ele>24.170</ele>
        <time>2019-04-28T11:30:25Z</time>
      </trkpt>
      <trkpt lat="41.356324" lon="-8.750738">
        <ele>25.148</ele>
        <time>2019-04-28T11:30:40Z</time>
      </trkpt>
      <trkpt lat="41.356765" lon="-8.751022">
        <ele>24.186</ele>
        <time>2019-04-28T11:30:53Z</time>
      </trkpt>
      <trkpt lat="41.357296" lon="-8.751362">
        <ele>22.778</ele>
        <time>2019-04-28T11:31:08Z</time>
      </trkpt>
      <trkpt lat="41.357520" lon="-8.751499">
        <ele>22.228</ele>
        <time>2019-04-28T11:31:14Z</time>
      </trkpt>
      <trkpt lat="41.357748" lon="-8.751643">
        <ele>22.712</ele>
        <time>2019-04-28T11:31:20Z</time>
      </trkpt>
      <trkpt lat="41.357996" lon="-8.751810">
        <ele>22.771</ele>
        <time>2019-04-28T11:31:27Z</time>
      </trkpt>
      <trkpt lat="41.358481" lon="-8.752123">
        <ele>21.241</ele>
        <time>2019-04-28T11:31:40Z</time>
      </trkpt>
      <trkpt lat="41.358649" lon="-8.752205">
        <ele>20.815</ele>
        <time>2019-04-28T11:31:50Z</time>
      </trkpt>
      <trkpt lat="41.358815" lon="-8.752358">
        <ele>20.308</ele>
        <time>2019-04-28T11:32:02Z</time>
      </trkpt>
      <trkpt lat="41.358914" lon="-8.752655">
        <ele>19.390</ele>
        <time>2019-04-28T11:32:08Z</time>
      </trkpt>
      <trkpt lat="41.358796" lon="-8.753738">
        <ele>17.493</ele>
        <time>2019-04-28T11:32:24Z</time>
      </trkpt>
      <trkpt lat="41.358735" lon="-8.754483">
        <ele>15.559</ele>
        <time>2019-04-28T11:32:36Z</time>
      </trkpt>
      <trkpt lat="41.358711" lon="-8.754711">
        <ele>16.097</ele>
        <time>2019-04-28T11:32:40Z</time>
      </trkpt>
      <trkpt lat="41.358686" lon="-8.754885">
        <ele>16.055</ele>
        <time>2019-04-28T11:32:43Z</time>
      </trkpt>
      <trkpt lat="41.358614" lon="-8.755854">
        <ele>15.567</ele>
        <time>2019-04-28T11:33:01Z</time>
      </trkpt>
      <trkpt lat="41.358844" lon="-8.756011">
        <ele>15.057</ele>
        <time>2019-04-28T11:33:11Z</time>
      </trkpt>
      <trkpt lat="41.359187" lon="-8.756175">
        <ele>16.071</ele>
        <time>2019-04-28T11:33:25Z</time>
      </trkpt>
      <trkpt lat="41.359331" lon="-8.756266">
        <ele>16.499</ele>
        <time>2019-04-28T11:33:36Z</time>
      </trkpt>
      <trkpt lat="41.359456" lon="-8.756364">
        <ele>16.907</ele>
        <time>2019-04-28T11:33:50Z</time>
      </trkpt>
      <trkpt lat="41.359779" lon="-8.756630">
        <ele>16.427</ele>
        <time>2019-04-28T11:33:59Z</time>
      </trkpt>
      <trkpt lat="41.359875" lon="-8.756811">
        <ele>16.008</ele>
        <time>2019-04-28T11:34:04Z</time>
      </trkpt>
      <trkpt lat="41.360341" lon="-8.757369">
        <ele>15.512</ele>
        <time>2019-04-28T11:34:19Z</time>
      </trkpt>
      <trkpt lat="41.360651" lon="-8.757736">
        <ele>15.025</ele>
        <time>2019-04-28T11:34:28Z</time>
      </trkpt>
      <trkpt lat="41.361278" lon="-8.758468">
        <ele>14.581</ele>
        <time>2019-04-28T11:34:46Z</time>
      </trkpt>
      <trkpt lat="41.361900" lon="-8.759214">
        <ele>14.569</ele>
        <time>2019-04-28T11:35:04Z</time>
      </trkpt>
      <trkpt lat="41.362553" lon="-8.759682">
        <ele>14.057</ele>
        <time>2019-04-28T11:35:20Z</time>
      </trkpt>
      <trkpt lat="41.363190" lon="-8.760106">
        <ele>14.559</ele>
        <time>2019-04-28T11:35:36Z</time>
      </trkpt>
      <trkpt lat="41.363454" lon="-8.760284">
        <ele>14.539</ele>
        <time>2019-04-28T11:35:43Z</time>
      </trkpt>
      <trkpt lat="41.363652" lon="-8.760386">
        <ele>14.583</ele>
        <time>2019-04-28T11:35:48Z</time>
      </trkpt>
      <trkpt lat="41.364304" lon="-8.760622">
        <ele>15.582</ele>
        <time>2019-04-28T11:36:04Z</time>
      </trkpt>
      <trkpt lat="41.365002" lon="-8.760886">
        <ele>13.643</ele>
        <time>2019-04-28T11:36:21Z</time>
      </trkpt>
      <trkpt lat="41.365732" lon="-8.761147">
        <ele>14.517</ele>
        <time>2019-04-28T11:36:39Z</time>
      </trkpt>
      <trkpt lat="41.366409" lon="-8.761399">
        <ele>15.008</ele>
        <time>2019-04-28T11:36:55Z</time>
      </trkpt>
      <trkpt lat="41.367098" lon="-8.761457">
        <ele>13.691</ele>
        <time>2019-04-28T11:37:11Z</time>
      </trkpt>
      <trkpt lat="41.367936" lon="-8.761470">
        <ele>12.124</ele>
        <time>2019-04-28T11:37:30Z</time>
      </trkpt>
      <trkpt lat="41.368541" lon="-8.761505">
        <ele>13.610</ele>
        <time>2019-04-28T11:37:44Z</time>
      </trkpt>
      <trkpt lat="41.369237" lon="-8.761540">
        <ele>16.048</ele>
        <time>2019-04-28T11:38:01Z</time>
      </trkpt>
      <trkpt lat="41.369939" lon="-8.761584">
        <ele>17.476</ele>
        <time>2019-04-28T11:38:17Z</time>
      </trkpt>
      <trkpt lat="41.370998" lon="-8.761650">
        <ele>19.388</ele>
        <time>2019-04-28T11:38:39Z</time>
      </trkpt>
      <trkpt lat="41.371861" lon="-8.761694">
        <ele>19.878</ele>
        <time>2019-04-28T11:38:57Z</time>
      </trkpt>
      <trkpt lat="41.372290" lon="-8.761685">
        <ele>19.392</ele>
        <time>2019-04-28T11:39:07Z</time>
      </trkpt>
      <trkpt lat="41.372466" lon="-8.761782">
        <ele>17.461</ele>
        <time>2019-04-28T11:39:12Z</time>
      </trkpt>
      <trkpt lat="41.373376" lon="-8.761846">
        <ele>16.421</ele>
        <time>2019-04-28T11:39:31Z</time>
      </trkpt>
      <trkpt lat="41.373986" lon="-8.761969">
        <ele>15.013</ele>
        <time>2019-04-28T11:39:44Z</time>
      </trkpt>
      <trkpt lat="41.374724" lon="-8.762191">
        <ele>13.608</ele>
        <time>2019-04-28T11:40:00Z</time>
      </trkpt>
      <trkpt lat="41.375361" lon="-8.762522">
        <ele>12.139</ele>
        <time>2019-04-28T11:40:16Z</time>
      </trkpt>
      <trkpt lat="41.375654" lon="-8.762762">
        <ele>12.682</ele>
        <time>2019-04-28T11:40:24Z</time>
      </trkpt>
      <trkpt lat="41.375777" lon="-8.762830">
        <ele>12.628</ele>
        <time>2019-04-28T11:40:27Z</time>
      </trkpt>
      <trkpt lat="41.375932" lon="-8.762962">
        <ele>12.656</ele>
        <time>2019-04-28T11:40:31Z</time>
      </trkpt>
      <trkpt lat="41.376132" lon="-8.763144">
        <ele>13.154</ele>
        <time>2019-04-28T11:40:36Z</time>
      </trkpt>
      <trkpt lat="41.376225" lon="-8.763287">
        <ele>12.676</ele>
        <time>2019-04-28T11:40:39Z</time>
      </trkpt>
      <trkpt lat="41.376763" lon="-8.763752">
        <ele>12.696</ele>
        <time>2019-04-28T11:40:53Z</time>
      </trkpt>
      <trkpt lat="41.376827" lon="-8.763828">
        <ele>12.620</ele>
        <time>2019-04-28T11:40:55Z</time>
      </trkpt>
      <trkpt lat="41.376924" lon="-8.764087">
        <ele>12.629</ele>
        <time>2019-04-28T11:41:00Z</time>
      </trkpt>
      <trkpt lat="41.376944" lon="-8.764193">
        <ele>12.100</ele>
        <time>2019-04-28T11:41:02Z</time>
      </trkpt>
      <trkpt lat="41.377036" lon="-8.764363">
        <ele>13.120</ele>
        <time>2019-04-28T11:41:06Z</time>
      </trkpt>
      <trkpt lat="41.377233" lon="-8.764494">
        <ele>13.108</ele>
        <time>2019-04-28T11:41:12Z</time>
      </trkpt>
      <trkpt lat="41.377375" lon="-8.764633">
        <ele>12.635</ele>
        <time>2019-04-28T11:41:16Z</time>
      </trkpt>
      <trkpt lat="41.377489" lon="-8.764858">
        <ele>12.618</ele>
        <time>2019-04-28T11:41:20Z</time>
      </trkpt>
      <trkpt lat="41.377705" lon="-8.765364">
        <ele>11.114</ele>
        <time>2019-04-28T11:41:28Z</time>
      </trkpt>
      <trkpt lat="41.377943" lon="-8.766333">
        <ele>10.782</ele>
        <time>2019-04-28T11:41:44Z</time>
      </trkpt>
      <trkpt lat="41.378016" lon="-8.766613">
        <ele>10.250</ele>
        <time>2019-04-28T11:41:49Z</time>
      </trkpt>
      <trkpt lat="41.378092" lon="-8.766983">
        <ele>10.762</ele>
        <time>2019-04-28T11:41:58Z</time>
      </trkpt>
      <trkpt lat="41.378120" lon="-8.767072">
        <ele>10.712</ele>
        <time>2019-04-28T11:42:02Z</time>
      </trkpt>
      <trkpt lat="41.378208" lon="-8.767448">
        <ele>10.256</ele>
        <time>2019-04-28T11:42:11Z</time>
      </trkpt>
      <trkpt lat="41.378461" lon="-8.767501">
        <ele>10.766</ele>
        <time>2019-04-28T11:42:18Z</time>
      </trkpt>
      <trkpt lat="41.378621" lon="-8.767569">
        <ele>11.129</ele>
        <time>2019-04-28T11:42:22Z</time>
      </trkpt>
      <trkpt lat="41.379188" lon="-8.767952">
        <ele>12.621</ele>
        <time>2019-04-28T11:42:38Z</time>
      </trkpt>
      <trkpt lat="41.379536" lon="-8.768142">
        <ele>11.608</ele>
        <time>2019-04-28T11:42:48Z</time>
      </trkpt>
      <trkpt lat="41.379712" lon="-8.768167">
        <ele>11.149</ele>
        <time>2019-04-28T11:42:53Z</time>
      </trkpt>
      <trkpt lat="41.380274" lon="-8.768553">
        <ele>11.132</ele>
        <time>2019-04-28T11:43:10Z</time>
      </trkpt>
      <trkpt lat="41.380540" lon="-8.768785">
        <ele>10.728</ele>
        <time>2019-04-28T11:43:19Z</time>
      </trkpt>
      <trkpt lat="41.380664" lon="-8.768895">
        <ele>10.226</ele>
        <time>2019-04-28T11:43:23Z</time>
      </trkpt>
      <trkpt lat="41.380806" lon="-8.769025">
        <ele>10.294</ele>
        <time>2019-04-28T11:43:27Z</time>
      </trkpt>
      <trkpt lat="41.381012" lon="-8.769180">
        <ele>10.246</ele>
        <time>2019-04-28T11:43:32Z</time>
      </trkpt>
      <trkpt lat="41.381173" lon="-8.769330">
        <ele>10.766</ele>
        <time>2019-04-28T11:43:36Z</time>
      </trkpt>
      <trkpt lat="41.381411" lon="-8.769546">
        <ele>11.670</ele>
        <time>2019-04-28T11:43:42Z</time>
      </trkpt>
      <trkpt lat="41.381492" lon="-8.769623">
        <ele>12.624</ele>
        <time>2019-04-28T11:43:44Z</time>
      </trkpt>
      <trkpt lat="41.381616" lon="-8.769722">
        <ele>13.104</ele>
        <time>2019-04-28T11:43:47Z</time>
      </trkpt>
      <trkpt lat="41.381834" lon="-8.769888">
        <ele>15.014</ele>
        <time>2019-04-28T11:43:56Z</time>
      </trkpt>
      <trkpt lat="41.382199" lon="-8.770094">
        <ele>14.008</ele>
        <time>2019-04-28T11:44:07Z</time>
      </trkpt>
      <trkpt lat="41.382631" lon="-8.770347">
        <ele>17.445</ele>
        <time>2019-04-28T11:44:19Z</time>
      </trkpt>
      <trkpt lat="41.382993" lon="-8.770551">
        <ele>18.428</ele>
        <time>2019-04-28T11:44:29Z</time>
      </trkpt>
      <trkpt lat="41.383243" lon="-8.770709">
        <ele>17.984</ele>
        <time>2019-04-28T11:44:36Z</time>
      </trkpt>
      <trkpt lat="41.383537" lon="-8.770868">
        <ele>17.982</ele>
        <time>2019-04-28T11:44:44Z</time>
      </trkpt>
      <trkpt lat="41.383963" lon="-8.771138">
        <ele>18.820</ele>
        <time>2019-04-28T11:44:56Z</time>
      </trkpt>
      <trkpt lat="41.384349" lon="-8.771356">
        <ele>17.472</ele>
        <time>2019-04-28T11:45:07Z</time>
      </trkpt>
      <trkpt lat="41.384513" lon="-8.771448">
        <ele>15.012</ele>
        <time>2019-04-28T11:45:11Z</time>
      </trkpt>
      <trkpt lat="41.384873" lon="-8.771661">
        <ele>14.066</ele>
        <time>2019-04-28T11:45:22Z</time>
      </trkpt>
      <trkpt lat="41.385311" lon="-8.771928">
        <ele>14.059</ele>
        <time>2019-04-28T11:45:35Z</time>
      </trkpt>
      <trkpt lat="41.385609" lon="-8.772084">
        <ele>12.603</ele>
        <time>2019-04-28T11:45:44Z</time>
      </trkpt>
      <trkpt lat="41.385717" lon="-8.772162">
        <ele>13.623</ele>
        <time>2019-04-28T11:45:52Z</time>
      </trkpt>
      <trkpt lat="41.385925" lon="-8.772403">
        <ele>13.108</ele>
        <time>2019-04-28T11:46:02Z</time>
      </trkpt>
      <trkpt lat="41.386026" lon="-8.772462">
        <ele>12.198</ele>
        <time>2019-04-28T11:46:07Z</time>
      </trkpt>
      <trkpt lat="41.386366" lon="-8.772554">
        <ele>12.181</ele>
        <time>2019-04-28T11:46:19Z</time>
      </trkpt>
      <trkpt lat="41.386669" lon="-8.772693">
        <ele>12.127</ele>
        <time>2019-04-28T11:46:29Z</time>
      </trkpt>
      <trkpt lat="41.386796" lon="-8.772762">
        <ele>12.135</ele>
        <time>2019-04-28T11:46:33Z</time>
      </trkpt>
      <trkpt lat="41.387017" lon="-8.772872">
        <ele>11.133</ele>
        <time>2019-04-28T11:46:41Z</time>
      </trkpt>
      <trkpt lat="41.387132" lon="-8.772957">
        <ele>11.125</ele>
        <time>2019-04-28T11:46:45Z</time>
      </trkpt>
      <trkpt lat="41.387382" lon="-8.773137">
        <ele>12.695</ele>
        <time>2019-04-28T11:46:57Z</time>
      </trkpt>
      <trkpt lat="41.387684" lon="-8.773287">
        <ele>12.129</ele>
        <time>2019-04-28T11:47:08Z</time>
      </trkpt>
      <trkpt lat="41.388027" lon="-8.773451">
        <ele>13.613</ele>
        <time>2019-04-28T11:47:21Z</time>
      </trkpt>
      <trkpt lat="41.388191" lon="-8.773540">
        <ele>13.643</ele>
        <time>2019-04-28T11:47:27Z</time>
      </trkpt>
      <trkpt lat="41.388323" lon="-8.773740">
        <ele>13.607</ele>
        <time>2019-04-28T11:47:33Z</time>
      </trkpt>
      <trkpt lat="41.388670" lon="-8.773927">
        <ele>12.608</ele>
        <time>2019-04-28T11:47:44Z</time>
      </trkpt>
      <trkpt lat="41.388701" lon="-8.773935">
        <ele>13.194</ele>
        <time>2019-04-28T11:47:45Z</time>
      </trkpt>
      <trkpt lat="41.388774" lon="-8.774005">
        <ele>12.157</ele>
        <time>2019-04-28T11:47:54Z</time>
      </trkpt>
      <trkpt lat="41.388976" lon="-8.774115">
        <ele>11.193</ele>
        <time>2019-04-28T11:48:03Z</time>
      </trkpt>
      <trkpt lat="41.388977" lon="-8.774193">
        <ele>12.191</ele>
        <time>2019-04-28T11:48:07Z</time>
      </trkpt>
      <trkpt lat="41.389211" lon="-8.774272">
        <ele>13.639</ele>
        <time>2019-04-28T11:48:16Z</time>
      </trkpt>
      <trkpt lat="41.389617" lon="-8.774171">
        <ele>15.561</ele>
        <time>2019-04-28T11:48:28Z</time>
      </trkpt>
      <trkpt lat="41.389752" lon="-8.774140">
        <ele>16.451</ele>
        <time>2019-04-28T11:48:32Z</time>
      </trkpt>
      <trkpt lat="41.389941" lon="-8.773978">
        <ele>14.585</ele>
        <time>2019-04-28T11:48:39Z</time>
      </trkpt>
      <trkpt lat="41.390004" lon="-8.773953">
        <ele>14.036</ele>
        <time>2019-04-28T11:48:41Z</time>
      </trkpt>
      <trkpt lat="41.390612" lon="-8.773935">
        <ele>13.117</ele>
        <time>2019-04-28T11:48:56Z</time>
      </trkpt>
      <trkpt lat="41.390985" lon="-8.773976">
        <ele>13.118</ele>
        <time>2019-04-28T11:49:08Z</time>
      </trkpt>
      <trkpt lat="41.391405" lon="-8.774149">
        <ele>14.008</ele>
        <time>2019-04-28T11:49:21Z</time>
      </trkpt>
      <trkpt lat="41.391936" lon="-8.774498">
        <ele>13.636</ele>
        <time>2019-04-28T11:49:37Z</time>
      </trkpt>
      <trkpt lat="41.392196" lon="-8.774818">
        <ele>14.029</ele>
        <time>2019-04-28T11:49:46Z</time>
      </trkpt>
      <trkpt lat="41.392455" lon="-8.775079">
        <ele>14.025</ele>
        <time>2019-04-28T11:49:54Z</time>
      </trkpt>
      <trkpt lat="41.392593" lon="-8.775182">
        <ele>14.013</ele>
        <time>2019-04-28T11:49:58Z</time>
      </trkpt>
      <trkpt lat="41.392788" lon="-8.775371">
        <ele>13.161</ele>
        <time>2019-04-28T11:50:04Z</time>
      </trkpt>
      <trkpt lat="41.392905" lon="-8.775595">
        <ele>13.183</ele>
        <time>2019-04-28T11:50:09Z</time>
      </trkpt>
      <trkpt lat="41.393099" lon="-8.775805">
        <ele>12.643</ele>
        <time>2019-04-28T11:50:15Z</time>
      </trkpt>
      <trkpt lat="41.393239" lon="-8.776041">
        <ele>13.117</ele>
        <time>2019-04-28T11:50:21Z</time>
      </trkpt>
      <trkpt lat="41.393688" lon="-8.776503">
        <ele>11.669</ele>
        <time>2019-04-28T11:50:36Z</time>
      </trkpt>
      <trkpt lat="41.394076" lon="-8.776761">
        <ele>13.104</ele>
        <time>2019-04-28T11:50:48Z</time>
      </trkpt>
      <trkpt lat="41.394502" lon="-8.777037">
        <ele>15.024</ele>
        <time>2019-04-28T11:51:02Z</time>
      </trkpt>
      <trkpt lat="41.394623" lon="-8.777111">
        <ele>16.408</ele>
        <time>2019-04-28T11:51:09Z</time>
      </trkpt>
      <trkpt lat="41.394710" lon="-8.777144">
        <ele>16.059</ele>
        <time>2019-04-28T11:51:21Z</time>
      </trkpt>
      <trkpt lat="41.394723" lon="-8.777147">
        <ele>16.032</ele>
        <time>2019-04-28T11:51:22Z</time>
      </trkpt>
      <trkpt lat="41.394797" lon="-8.777161">
        <ele>17.448</ele>
        <time>2019-04-28T11:51:32Z</time>
      </trkpt>
      <trkpt lat="41.394939" lon="-8.777177">
        <ele>18.426</ele>
        <time>2019-04-28T11:51:37Z</time>
      </trkpt>
      <trkpt lat="41.395117" lon="-8.777279">
        <ele>18.824</ele>
        <time>2019-04-28T11:51:42Z</time>
      </trkpt>
      <trkpt lat="41.395505" lon="-8.777506">
        <ele>19.376</ele>
        <time>2019-04-28T11:51:53Z</time>
      </trkpt>
      <trkpt lat="41.395574" lon="-8.777664">
        <ele>19.366</ele>
        <time>2019-04-28T11:51:57Z</time>
      </trkpt>
      <trkpt lat="41.396036" lon="-8.777958">
        <ele>17.950</ele>
        <time>2019-04-28T11:52:10Z</time>
      </trkpt>
      <trkpt lat="41.396553" lon="-8.778257">
        <ele>20.813</ele>
        <time>2019-04-28T11:52:24Z</time>
      </trkpt>
      <trkpt lat="41.397284" lon="-8.778659">
        <ele>16.443</ele>
        <time>2019-04-28T11:52:43Z</time>
      </trkpt>
      <trkpt lat="41.397432" lon="-8.778703">
        <ele>16.407</ele>
        <time>2019-04-28T11:52:47Z</time>
      </trkpt>
      <trkpt lat="41.397662" lon="-8.778599">
        <ele>15.008</ele>
        <time>2019-04-28T11:52:53Z</time>
      </trkpt>
      <trkpt lat="41.398455" lon="-8.778110">
        <ele>12.664</ele>
        <time>2019-04-28T11:53:11Z</time>
      </trkpt>
      <trkpt lat="41.398708" lon="-8.777985">
        <ele>12.137</ele>
        <time>2019-04-28T11:53:16Z</time>
      </trkpt>
      <trkpt lat="41.398940" lon="-8.777708">
        <ele>11.123</ele>
        <time>2019-04-28T11:53:22Z</time>
      </trkpt>
      <trkpt lat="41.399749" lon="-8.777120">
        <ele>10.791</ele>
        <time>2019-04-28T11:53:40Z</time>
      </trkpt>
      <trkpt lat="41.399969" lon="-8.776860">
        <ele>9.759</ele>
        <time>2019-04-28T11:53:46Z</time>
      </trkpt>
      <trkpt lat="41.400601" lon="-8.776342">
        <ele>9.781</ele>
        <time>2019-04-28T11:54:01Z</time>
      </trkpt>
      <trkpt lat="41.400716" lon="-8.776274">
        <ele>9.791</ele>
        <time>2019-04-28T11:54:04Z</time>
      </trkpt>
      <trkpt lat="41.401122" lon="-8.776028">
        <ele>10.235</ele>
        <time>2019-04-28T11:54:17Z</time>
      </trkpt>
      <trkpt lat="41.401150" lon="-8.776017">
        <ele>10.258</ele>
        <time>2019-04-28T11:54:18Z</time>
      </trkpt>
      <trkpt lat="41.401386" lon="-8.776190">
        <ele>10.752</ele>
        <time>2019-04-28T11:54:27Z</time>
      </trkpt>
      <trkpt lat="41.401371" lon="-8.776572">
        <ele>8.317</ele>
        <time>2019-04-28T11:54:37Z</time>
      </trkpt>
      <trkpt lat="41.401185" lon="-8.777132">
        <ele>7.308</ele>
        <time>2019-04-28T11:54:50Z</time>
      </trkpt>
      <trkpt lat="41.401050" lon="-8.777639">
        <ele>10.718</ele>
        <time>2019-04-28T11:55:02Z</time>
      </trkpt>
      <trkpt lat="41.401040" lon="-8.777675">
        <ele>11.161</ele>
        <time>2019-04-28T11:55:03Z</time>
      </trkpt>
      <trkpt lat="41.401146" lon="-8.777790">
        <ele>12.167</ele>
        <time>2019-04-28T11:55:09Z</time>
      </trkpt>
      <trkpt lat="41.401741" lon="-8.778053">
        <ele>12.635</ele>
        <time>2019-04-28T11:55:25Z</time>
      </trkpt>
      <trkpt lat="41.402138" lon="-8.778247">
        <ele>12.623</ele>
        <time>2019-04-28T11:55:35Z</time>
      </trkpt>
      <trkpt lat="41.402510" lon="-8.778394">
        <ele>13.135</ele>
        <time>2019-04-28T11:55:44Z</time>
      </trkpt>
      <trkpt lat="41.403183" lon="-8.778718">
        <ele>12.685</ele>
        <time>2019-04-28T11:56:01Z</time>
      </trkpt>
      <trkpt lat="41.403823" lon="-8.779170">
        <ele>12.659</ele>
        <time>2019-04-28T11:56:18Z</time>
      </trkpt>
      <trkpt lat="41.404116" lon="-8.779388">
        <ele>11.197</ele>
        <time>2019-04-28T11:56:26Z</time>
      </trkpt>
      <trkpt lat="41.404785" lon="-8.779739">
        <ele>10.223</ele>
        <time>2019-04-28T11:56:43Z</time>
      </trkpt>
      <trkpt lat="41.405216" lon="-8.779955">
        <ele>9.725</ele>
        <time>2019-04-28T11:56:54Z</time>
      </trkpt>
      <trkpt lat="41.405510" lon="-8.780137">
        <ele>10.208</ele>
        <time>2019-04-28T11:57:02Z</time>
      </trkpt>
      <trkpt lat="41.405795" lon="-8.779939">
        <ele>7.822</ele>
        <time>2019-04-28T11:57:10Z</time>
      </trkpt>
      <trkpt lat="41.405918" lon="-8.779987">
        <ele>8.355</ele>
        <time>2019-04-28T11:57:13Z</time>
      </trkpt>
      <trkpt lat="41.406062" lon="-8.780082">
        <ele>7.861</ele>
        <time>2019-04-28T11:57:17Z</time>
      </trkpt>
      <trkpt lat="41.406635" lon="-8.780508">
        <ele>7.819</ele>
        <time>2019-04-28T11:57:34Z</time>
      </trkpt>
      <trkpt lat="41.406766" lon="-8.780583">
        <ele>8.327</ele>
        <time>2019-04-28T11:57:42Z</time>
      </trkpt>
      <trkpt lat="41.406887" lon="-8.780635">
        <ele>8.719</ele>
        <time>2019-04-28T11:57:47Z</time>
      </trkpt>
      <trkpt lat="41.407422" lon="-8.781087">
        <ele>10.249</ele>
        <time>2019-04-28T11:58:03Z</time>
      </trkpt>
      <trkpt lat="41.408097" lon="-8.781540">
        <ele>11.643</ele>
        <time>2019-04-28T11:58:21Z</time>
      </trkpt>
      <trkpt lat="41.408135" lon="-8.781567">
        <ele>11.153</ele>
        <time>2019-04-28T11:58:22Z</time>
      </trkpt>
      <trkpt lat="41.408259" lon="-8.781591">
        <ele>11.104</ele>
        <time>2019-04-28T11:58:25Z</time>
      </trkpt>
      <trkpt lat="41.408336" lon="-8.781537">
        <ele>11.614</ele>
        <time>2019-04-28T11:58:32Z</time>
      </trkpt>
      <trkpt lat="41.408361" lon="-8.781629">
        <ele>10.708</ele>
        <time>2019-04-28T11:58:36Z</time>
      </trkpt>
      <trkpt lat="41.408549" lon="-8.781764">
        <ele>10.778</ele>
        <time>2019-04-28T11:58:47Z</time>
      </trkpt>
      <trkpt lat="41.408580" lon="-8.781805">
        <ele>10.251</ele>
        <time>2019-04-28T11:58:51Z</time>
      </trkpt>
      <trkpt lat="41.408505" lon="-8.781748">
        <ele>9.747</ele>
        <time>2019-04-28T11:58:57Z</time>
      </trkpt>
      <trkpt lat="41.408330" lon="-8.781621">
        <ele>11.185</ele>
        <time>2019-04-28T11:59:09Z</time>
      </trkpt>
      <trkpt lat="41.408287" lon="-8.781562">
        <ele>11.113</ele>
        <time>2019-04-28T11:59:12Z</time>
      </trkpt>
      <trkpt lat="41.408393" lon="-8.781182">
        <ele>12.665</ele>
        <time>2019-04-28T11:59:22Z</time>
      </trkpt>
      <trkpt lat="41.408423" lon="-8.781081">
        <ele>12.655</ele>
        <time>2019-04-28T11:59:24Z</time>
      </trkpt>
      <trkpt lat="41.408690" lon="-8.780376">
        <ele>14.079</ele>
        <time>2019-04-28T11:59:40Z</time>
      </trkpt>
      <trkpt lat="41.408743" lon="-8.779974">
        <ele>14.567</ele>
        <time>2019-04-28T11:59:50Z</time>
      </trkpt>
      <trkpt lat="41.408841" lon="-8.779981">
        <ele>14.581</ele>
        <time>2019-04-28T11:59:54Z</time>
      </trkpt>
      <trkpt lat="41.409036" lon="-8.780280">
        <ele>14.019</ele>
        <time>2019-04-28T12:00:02Z</time>
      </trkpt>
      <trkpt lat="41.409539" lon="-8.781044">
        <ele>12.608</ele>
        <time>2019-04-28T12:00:20Z</time>
      </trkpt>
      <trkpt lat="41.409703" lon="-8.781246">
        <ele>12.619</ele>
        <time>2019-04-28T12:00:25Z</time>
      </trkpt>
      <trkpt lat="41.409892" lon="-8.781589">
        <ele>13.192</ele>
        <time>2019-04-28T12:00:33Z</time>
      </trkpt>
      <trkpt lat="41.410451" lon="-8.782079">
        <ele>13.198</ele>
        <time>2019-04-28T12:00:50Z</time>
      </trkpt>
      <trkpt lat="41.410573" lon="-8.782230">
        <ele>13.136</ele>
        <time>2019-04-28T12:00:54Z</time>
      </trkpt>
      <trkpt lat="41.410904" lon="-8.782554">
        <ele>12.664</ele>
        <time>2019-04-28T12:01:04Z</time>
      </trkpt>
      <trkpt lat="41.411378" lon="-8.782667">
        <ele>13.636</ele>
        <time>2019-04-28T12:01:18Z</time>
      </trkpt>
      <trkpt lat="41.411796" lon="-8.782887">
        <ele>15.546</ele>
        <time>2019-04-28T12:01:32Z</time>
      </trkpt>
      <trkpt lat="41.412243" lon="-8.783156">
        <ele>14.560</ele>
        <time>2019-04-28T12:01:45Z</time>
      </trkpt>
      <trkpt lat="41.412320" lon="-8.783195">
        <ele>14.536</ele>
        <time>2019-04-28T12:01:47Z</time>
      </trkpt>
      <trkpt lat="41.412898" lon="-8.783549">
        <ele>15.017</ele>
        <time>2019-04-28T12:02:03Z</time>
      </trkpt>
      <trkpt lat="41.413509" lon="-8.783789">
        <ele>13.618</ele>
        <time>2019-04-28T12:02:19Z</time>
      </trkpt>
      <trkpt lat="41.413550" lon="-8.783799">
        <ele>13.608</ele>
        <time>2019-04-28T12:02:20Z</time>
      </trkpt>
      <trkpt lat="41.413688" lon="-8.783921">
        <ele>13.686</ele>
        <time>2019-04-28T12:02:24Z</time>
      </trkpt>
      <trkpt lat="41.414069" lon="-8.784469">
        <ele>13.669</ele>
        <time>2019-04-28T12:02:37Z</time>
      </trkpt>
      <trkpt lat="41.414336" lon="-8.784547">
        <ele>13.155</ele>
        <time>2019-04-28T12:02:44Z</time>
      </trkpt>
      <trkpt lat="41.414797" lon="-8.784520">
        <ele>13.173</ele>
        <time>2019-04-28T12:02:55Z</time>
      </trkpt>
      <trkpt lat="41.415124" lon="-8.784346">
        <ele>13.121</ele>
        <time>2019-04-28T12:03:04Z</time>
      </trkpt>
      <trkpt lat="41.415177" lon="-8.784119">
        <ele>14.533</ele>
        <time>2019-04-28T12:03:10Z</time>
      </trkpt>
      <trkpt lat="41.415256" lon="-8.783515">
        <ele>16.063</ele>
        <time>2019-04-28T12:03:26Z</time>
      </trkpt>
      <trkpt lat="41.415208" lon="-8.783172">
        <ele>16.917</ele>
        <time>2019-04-28T12:03:36Z</time>
      </trkpt>
      <trkpt lat="41.415187" lon="-8.783090">
        <ele>17.421</ele>
        <time>2019-04-28T12:03:43Z</time>
      </trkpt>
      <trkpt lat="41.415284" lon="-8.783197">
        <ele>16.941</ele>
        <time>2019-04-28T12:03:52Z</time>
      </trkpt>
      <trkpt lat="41.415338" lon="-8.783166">
        <ele>17.405</ele>
        <time>2019-04-28T12:03:56Z</time>
      </trkpt>
      <trkpt lat="41.415405" lon="-8.783037">
        <ele>17.908</ele>
        <time>2019-04-28T12:04:01Z</time>
      </trkpt>
      <trkpt lat="41.415487" lon="-8.782995">
        <ele>18.425</ele>
        <time>2019-04-28T12:04:05Z</time>
      </trkpt>
      <trkpt lat="41.415544" lon="-8.782968">
        <ele>18.418</ele>
        <time>2019-04-28T12:04:08Z</time>
      </trkpt>
      <trkpt lat="41.415567" lon="-8.782649">
        <ele>18.434</ele>
        <time>2019-04-28T12:04:17Z</time>
      </trkpt>
      <trkpt lat="41.415663" lon="-8.782557">
        <ele>18.412</ele>
        <time>2019-04-28T12:04:21Z</time>
      </trkpt>
      <trkpt lat="41.415791" lon="-8.782697">
        <ele>18.820</ele>
        <time>2019-04-28T12:04:27Z</time>
      </trkpt>
      <trkpt lat="41.415920" lon="-8.783574">
        <ele>17.482</ele>
        <time>2019-04-28T12:04:44Z</time>
      </trkpt>
      <trkpt lat="41.416088" lon="-8.783772">
        <ele>17.992</ele>
        <time>2019-04-28T12:04:51Z</time>
      </trkpt>
      <trkpt lat="41.416553" lon="-8.783778">
        <ele>18.836</ele>
        <time>2019-04-28T12:05:07Z</time>
      </trkpt>
      <trkpt lat="41.416918" lon="-8.783679">
        <ele>19.865</ele>
        <time>2019-04-28T12:05:20Z</time>
      </trkpt>
      <trkpt lat="41.417479" lon="-8.783674">
        <ele>17.968</ele>
        <time>2019-04-28T12:05:33Z</time>
      </trkpt>
      <trkpt lat="41.418407" lon="-8.783729">
        <ele>16.014</ele>
        <time>2019-04-28T12:05:51Z</time>
      </trkpt>
      <trkpt lat="41.419215" lon="-8.783688">
        <ele>14.508</ele>
        <time>2019-04-28T12:06:07Z</time>
      </trkpt>
      <trkpt lat="41.420012" lon="-8.783545">
        <ele>13.699</ele>
        <time>2019-04-28T12:06:24Z</time>
      </trkpt>
      <trkpt lat="41.420596" lon="-8.783430">
        <ele>13.182</ele>
        <time>2019-04-28T12:06:38Z</time>
      </trkpt>
      <trkpt lat="41.420868" lon="-8.783364">
        <ele>12.658</ele>
        <time>2019-04-28T12:06:44Z</time>
      </trkpt>
      <trkpt lat="41.421425" lon="-8.782993">
        <ele>12.176</ele>
        <time>2019-04-28T12:06:59Z</time>
      </trkpt>
      <trkpt lat="41.421560" lon="-8.782894">
        <ele>12.134</ele>
        <time>2019-04-28T12:07:03Z</time>
      </trkpt>
      <trkpt lat="41.422019" lon="-8.782652">
        <ele>14.046</ele>
        <time>2019-04-28T12:07:16Z</time>
      </trkpt>
      <trkpt lat="41.422485" lon="-8.782543">
        <ele>17.466</ele>
        <time>2019-04-28T12:07:30Z</time>
      </trkpt>
      <trkpt lat="41.422995" lon="-8.782377">
        <ele>18.420</ele>
        <time>2019-04-28T12:07:46Z</time>
      </trkpt>
      <trkpt lat="41.423401" lon="-8.782120">
        <ele>21.744</ele>
        <time>2019-04-28T12:08:00Z</time>
      </trkpt>
      <trkpt lat="41.423552" lon="-8.781776">
        <ele>21.705</ele>
        <time>2019-04-28T12:08:10Z</time>
      </trkpt>
      <trkpt lat="41.423686" lon="-8.781605">
        <ele>21.215</ele>
        <time>2019-04-28T12:08:15Z</time>
      </trkpt>
      <trkpt lat="41.424043" lon="-8.781363">
        <ele>21.208</ele>
        <time>2019-04-28T12:08:24Z</time>
      </trkpt>
      <trkpt lat="41.424462" lon="-8.780981">
        <ele>19.857</ele>
        <time>2019-04-28T12:08:35Z</time>
      </trkpt>
      <trkpt lat="41.424731" lon="-8.780881">
        <ele>18.820</ele>
        <time>2019-04-28T12:08:41Z</time>
      </trkpt>
      <trkpt lat="41.424854" lon="-8.780977">
        <ele>18.426</ele>
        <time>2019-04-28T12:08:45Z</time>
      </trkpt>
      <trkpt lat="41.424851" lon="-8.781063">
        <ele>17.444</ele>
        <time>2019-04-28T12:08:47Z</time>
      </trkpt>
      <trkpt lat="41.424907" lon="-8.781163">
        <ele>17.482</ele>
        <time>2019-04-28T12:08:52Z</time>
      </trkpt>
      <trkpt lat="41.424936" lon="-8.781180">
        <ele>17.954</ele>
        <time>2019-04-28T12:08:55Z</time>
      </trkpt>
      <trkpt lat="41.424882" lon="-8.781199">
        <ele>17.474</ele>
        <time>2019-04-28T12:09:01Z</time>
      </trkpt>
      <trkpt lat="41.424844" lon="-8.781042">
        <ele>16.968</ele>
        <time>2019-04-28T12:09:06Z</time>
      </trkpt>
      <trkpt lat="41.424998" lon="-8.780563">
        <ele>16.094</ele>
        <time>2019-04-28T12:09:18Z</time>
      </trkpt>
      <trkpt lat="41.425226" lon="-8.780305">
        <ele>14.557</ele>
        <time>2019-04-28T12:09:25Z</time>
      </trkpt>
      <trkpt lat="41.425361" lon="-8.780181">
        <ele>12.622</ele>
        <time>2019-04-28T12:09:29Z</time>
      </trkpt>
      <trkpt lat="41.425385" lon="-8.780071">
        <ele>11.608</ele>
        <time>2019-04-28T12:09:33Z</time>
      </trkpt>
      <trkpt lat="41.425404" lon="-8.779950">
        <ele>12.152</ele>
        <time>2019-04-28T12:09:37Z</time>
      </trkpt>
      <trkpt lat="41.425422" lon="-8.779824">
        <ele>12.675</ele>
        <time>2019-04-28T12:09:40Z</time>
      </trkpt>
      <trkpt lat="41.425469" lon="-8.779740">
        <ele>12.191</ele>
        <time>2019-04-28T12:09:44Z</time>
      </trkpt>
      <trkpt lat="41.425502" lon="-8.779720">
        <ele>13.679</ele>
        <time>2019-04-28T12:09:58Z</time>
      </trkpt>
      <trkpt lat="41.425491" lon="-8.779710">
        <ele>13.627</ele>
        <time>2019-04-28T12:10:00Z</time>
      </trkpt>
      <trkpt lat="41.425413" lon="-8.779590">
        <ele>13.629</ele>
        <time>2019-04-28T12:10:06Z</time>
      </trkpt>
      <trkpt lat="41.425364" lon="-8.779170">
        <ele>15.099</ele>
        <time>2019-04-28T12:10:19Z</time>
      </trkpt>
      <trkpt lat="41.425405" lon="-8.779017">
        <ele>16.033</ele>
        <time>2019-04-28T12:10:24Z</time>
      </trkpt>
      <trkpt lat="41.425801" lon="-8.779047">
        <ele>16.029</ele>
        <time>2019-04-28T12:10:37Z</time>
      </trkpt>
      <trkpt lat="41.426309" lon="-8.779130">
        <ele>15.500</ele>
        <time>2019-04-28T12:10:51Z</time>
      </trkpt>
      <trkpt lat="41.426552" lon="-8.779159">
        <ele>16.420</ele>
        <time>2019-04-28T12:10:57Z</time>
      </trkpt>
      <trkpt lat="41.426965" lon="-8.779298">
        <ele>16.908</ele>
        <time>2019-04-28T12:11:07Z</time>
      </trkpt>
      <trkpt lat="41.427556" lon="-8.779393">
        <ele>17.985</ele>
        <time>2019-04-28T12:11:20Z</time>
      </trkpt>
      <trkpt lat="41.427649" lon="-8.779420">
        <ele>18.468</ele>
        <time>2019-04-28T12:11:24Z</time>
      </trkpt>
      <trkpt lat="41.427680" lon="-8.779440">
        <ele>18.414</ele>
        <time>2019-04-28T12:11:26Z</time>
      </trkpt>
      <trkpt lat="41.427698" lon="-8.779596">
        <ele>17.992</ele>
        <time>2019-04-28T12:11:31Z</time>
      </trkpt>
      <trkpt lat="41.427656" lon="-8.779925">
        <ele>15.560</ele>
        <time>2019-04-28T12:11:38Z</time>
      </trkpt>
      <trkpt lat="41.427692" lon="-8.780238">
        <ele>13.652</ele>
        <time>2019-04-28T12:11:45Z</time>
      </trkpt>
      <trkpt lat="41.427661" lon="-8.780164">
        <ele>13.662</ele>
        <time>2019-04-28T12:11:54Z</time>
      </trkpt>
      <trkpt lat="41.427653" lon="-8.780203">
        <ele>14.016</ele>
        <time>2019-04-28T12:11:56Z</time>
      </trkpt>
      <trkpt lat="41.427653" lon="-8.780238">
        <ele>14.042</ele>
        <time>2019-04-28T12:11:58Z</time>
      </trkpt>
      <trkpt lat="41.427620" lon="-8.780276">
        <ele>13.622</ele>
        <time>2019-04-28T12:12:10Z</time>
      </trkpt>
      <trkpt lat="41.427616" lon="-8.780260">
        <ele>12.614</ele>
        <time>2019-04-28T12:12:24Z</time>
      </trkpt>
      <trkpt lat="41.427626" lon="-8.780160">
        <ele>11.608</ele>
        <time>2019-04-28T12:12:28Z</time>
      </trkpt>
      <trkpt lat="41.427674" lon="-8.779527">
        <ele>12.617</ele>
        <time>2019-04-28T12:12:42Z</time>
      </trkpt>
      <trkpt lat="41.427963" lon="-8.779274">
        <ele>12.670</ele>
        <time>2019-04-28T12:12:52Z</time>
      </trkpt>
      <trkpt lat="41.427997" lon="-8.779256">
        <ele>12.646</ele>
        <time>2019-04-28T12:12:53Z</time>
      </trkpt>
      <trkpt lat="41.428437" lon="-8.779019">
        <ele>12.614</ele>
        <time>2019-04-28T12:13:05Z</time>
      </trkpt>
      <trkpt lat="41.429044" lon="-8.778873">
        <ele>15.092</ele>
        <time>2019-04-28T12:13:21Z</time>
      </trkpt>
      <trkpt lat="41.429265" lon="-8.778616">
        <ele>14.594</ele>
        <time>2019-04-28T12:13:32Z</time>
      </trkpt>
      <trkpt lat="41.429334" lon="-8.778075">
        <ele>14.554</ele>
        <time>2019-04-28T12:13:47Z</time>
      </trkpt>
      <trkpt lat="41.429387" lon="-8.777610">
        <ele>13.138</ele>
        <time>2019-04-28T12:13:58Z</time>
      </trkpt>
      <trkpt lat="41.429566" lon="-8.776927">
        <ele>14.518</ele>
        <time>2019-04-28T12:14:13Z</time>
      </trkpt>
      <trkpt lat="41.429661" lon="-8.776739">
        <ele>15.098</ele>
        <time>2019-04-28T12:14:19Z</time>
      </trkpt>
      <trkpt lat="41.429731" lon="-8.776722">
        <ele>15.017</ele>
        <time>2019-04-28T12:14:23Z</time>
      </trkpt>
      <trkpt lat="41.430232" lon="-8.776819">
        <ele>16.008</ele>
        <time>2019-04-28T12:14:37Z</time>
      </trkpt>
      <trkpt lat="41.430592" lon="-8.776999">
        <ele>16.074</ele>
        <time>2019-04-28T12:14:47Z</time>
      </trkpt>
      <trkpt lat="41.430924" lon="-8.777634">
        <ele>16.017</ele>
        <time>2019-04-28T12:15:02Z</time>
      </trkpt>
      <trkpt lat="41.431080" lon="-8.777801">
        <ele>15.543</ele>
        <time>2019-04-28T12:15:07Z</time>
      </trkpt>
      <trkpt lat="41.431154" lon="-8.777844">
        <ele>15.551</ele>
        <time>2019-04-28T12:15:09Z</time>
      </trkpt>
      <trkpt lat="41.431882" lon="-8.777996">
        <ele>15.579</ele>
        <time>2019-04-28T12:15:25Z</time>
      </trkpt>
      <trkpt lat="41.432418" lon="-8.778165">
        <ele>15.071</ele>
        <time>2019-04-28T12:15:36Z</time>
      </trkpt>
      <trkpt lat="41.432772" lon="-8.778301">
        <ele>15.581</ele>
        <time>2019-04-28T12:15:43Z</time>
      </trkpt>
      <trkpt lat="41.433172" lon="-8.778389">
        <ele>16.965</ele>
        <time>2019-04-28T12:15:51Z</time>
      </trkpt>
      <trkpt lat="41.433365" lon="-8.778399">
        <ele>16.942</ele>
        <time>2019-04-28T12:15:55Z</time>
      </trkpt>
      <trkpt lat="41.433548" lon="-8.778379">
        <ele>15.522</ele>
        <time>2019-04-28T12:15:59Z</time>
      </trkpt>
      <trkpt lat="41.433739" lon="-8.778406">
        <ele>15.014</ele>
        <time>2019-04-28T12:16:03Z</time>
      </trkpt>
      <trkpt lat="41.433992" lon="-8.778362">
        <ele>14.508</ele>
        <time>2019-04-28T12:16:08Z</time>
      </trkpt>
      <trkpt lat="41.434235" lon="-8.778450">
        <ele>14.597</ele>
        <time>2019-04-28T12:16:13Z</time>
      </trkpt>
      <trkpt lat="41.434369" lon="-8.778549">
        <ele>14.540</ele>
        <time>2019-04-28T12:16:16Z</time>
      </trkpt>
      <trkpt lat="41.434885" lon="-8.778736">
        <ele>14.536</ele>
        <time>2019-04-28T12:16:26Z</time>
      </trkpt>
      <trkpt lat="41.435923" lon="-8.778758">
        <ele>13.654</ele>
        <time>2019-04-28T12:16:44Z</time>
      </trkpt>
      <trkpt lat="41.436733" lon="-8.778534">
        <ele>13.652</ele>
        <time>2019-04-28T12:16:59Z</time>
      </trkpt>
      <trkpt lat="41.437541" lon="-8.778230">
        <ele>12.164</ele>
        <time>2019-04-28T12:17:15Z</time>
      </trkpt>
      <trkpt lat="41.438469" lon="-8.777827">
        <ele>12.124</ele>
        <time>2019-04-28T12:17:30Z</time>
      </trkpt>
      <trkpt lat="41.439499" lon="-8.777264">
        <ele>11.668</ele>
        <time>2019-04-28T12:17:46Z</time>
      </trkpt>
      <trkpt lat="41.439665" lon="-8.777158">
        <ele>10.774</ele>
        <time>2019-04-28T12:17:49Z</time>
      </trkpt>
      <trkpt lat="41.440173" lon="-8.776879">
        <ele>9.756</ele>
        <time>2019-04-28T12:17:59Z</time>
      </trkpt>
      <trkpt lat="41.440344" lon="-8.776800">
        <ele>9.221</ele>
        <time>2019-04-28T12:18:03Z</time>
      </trkpt>
      <trkpt lat="41.440545" lon="-8.776688">
        <ele>9.208</ele>
        <time>2019-04-28T12:18:08Z</time>
      </trkpt>
      <trkpt lat="41.440671" lon="-8.776623">
        <ele>9.740</ele>
        <time>2019-04-28T12:18:11Z</time>
      </trkpt>
      <trkpt lat="41.441318" lon="-8.776251">
        <ele>10.723</ele>
        <time>2019-04-28T12:18:25Z</time>
      </trkpt>
      <trkpt lat="41.441997" lon="-8.775873">
        <ele>13.189</ele>
        <time>2019-04-28T12:18:41Z</time>
      </trkpt>
      <trkpt lat="41.442575" lon="-8.775511">
        <ele>13.127</ele>
        <time>2019-04-28T12:18:56Z</time>
      </trkpt>
      <trkpt lat="41.442913" lon="-8.775199">
        <ele>12.665</ele>
        <time>2019-04-28T12:19:09Z</time>
      </trkpt>
      <trkpt lat="41.443253" lon="-8.774761">
        <ele>12.667</ele>
        <time>2019-04-28T12:19:22Z</time>
      </trkpt>
      <trkpt lat="41.443704" lon="-8.774369">
        <ele>13.147</ele>
        <time>2019-04-28T12:19:38Z</time>
      </trkpt>
      <trkpt lat="41.444002" lon="-8.774265">
        <ele>13.661</ele>
        <time>2019-04-28T12:19:50Z</time>
      </trkpt>
      <trkpt lat="41.444446" lon="-8.774159">
        <ele>12.649</ele>
        <time>2019-04-28T12:20:03Z</time>
      </trkpt>
      <trkpt lat="41.444652" lon="-8.774114">
        <ele>12.102</ele>
        <time>2019-04-28T12:20:08Z</time>
      </trkpt>
      <trkpt lat="41.445415" lon="-8.773939">
        <ele>11.622</ele>
        <time>2019-04-28T12:20:26Z</time>
      </trkpt>
      <trkpt lat="41.446148" lon="-8.773706">
        <ele>12.108</ele>
        <time>2019-04-28T12:20:43Z</time>
      </trkpt>
      <trkpt lat="41.446705" lon="-8.773536">
        <ele>12.197</ele>
        <time>2019-04-28T12:20:56Z</time>
      </trkpt>
      <trkpt lat="41.446788" lon="-8.773503">
        <ele>11.620</ele>
        <time>2019-04-28T12:20:58Z</time>
      </trkpt>
      <trkpt lat="41.446869" lon="-8.773457">
        <ele>12.186</ele>
        <time>2019-04-28T12:21:00Z</time>
      </trkpt>
      <trkpt lat="41.447517" lon="-8.773203">
        <ele>12.644</ele>
        <time>2019-04-28T12:21:16Z</time>
      </trkpt>
      <trkpt lat="41.447798" lon="-8.773139">
        <ele>12.112</ele>
        <time>2019-04-28T12:21:23Z</time>
      </trkpt>
      <trkpt lat="41.448354" lon="-8.773008">
        <ele>11.194</ele>
        <time>2019-04-28T12:21:38Z</time>
      </trkpt>
      <trkpt lat="41.448564" lon="-8.772972">
        <ele>11.184</ele>
        <time>2019-04-28T12:21:44Z</time>
      </trkpt>
      <trkpt lat="41.448597" lon="-8.772949">
        <ele>11.678</ele>
        <time>2019-04-28T12:21:55Z</time>
      </trkpt>
      <trkpt lat="41.448600" lon="-8.772956">
        <ele>12.116</ele>
        <time>2019-04-28T12:22:23Z</time>
      </trkpt>
      <trkpt lat="41.448597" lon="-8.772957">
        <ele>11.676</ele>
        <time>2019-04-28T12:22:50Z</time>
      </trkpt>
      <trkpt lat="41.448599" lon="-8.772958">
        <ele>11.613</ele>
        <time>2019-04-28T12:23:18Z</time>
      </trkpt>
      <trkpt lat="41.448602" lon="-8.772960">
        <ele>11.608</ele>
        <time>2019-04-28T12:23:23Z</time>
      </trkpt>
      <trkpt lat="41.448698" lon="-8.772949">
        <ele>11.654</ele>
        <time>2019-04-28T12:23:28Z</time>
      </trkpt>
      <trkpt lat="41.449225" lon="-8.772869">
        <ele>10.747</ele>
        <time>2019-04-28T12:23:41Z</time>
      </trkpt>
      <trkpt lat="41.449308" lon="-8.772851">
        <ele>10.273</ele>
        <time>2019-04-28T12:23:43Z</time>
      </trkpt>
      <trkpt lat="41.449471" lon="-8.772813">
        <ele>10.731</ele>
        <time>2019-04-28T12:23:47Z</time>
      </trkpt>
      <trkpt lat="41.449748" lon="-8.772701">
        <ele>10.789</ele>
        <time>2019-04-28T12:23:54Z</time>
      </trkpt>
      <trkpt lat="41.450419" lon="-8.772428">
        <ele>10.711</ele>
        <time>2019-04-28T12:24:11Z</time>
      </trkpt>
      <trkpt lat="41.451090" lon="-8.772131">
        <ele>10.231</ele>
        <time>2019-04-28T12:24:28Z</time>
      </trkpt>
      <trkpt lat="41.451751" lon="-8.771899">
        <ele>12.115</ele>
        <time>2019-04-28T12:24:44Z</time>
      </trkpt>
      <trkpt lat="41.452441" lon="-8.771671">
        <ele>12.676</ele>
        <time>2019-04-28T12:25:01Z</time>
      </trkpt>
      <trkpt lat="41.453091" lon="-8.771414">
        <ele>15.090</ele>
        <time>2019-04-28T12:25:17Z</time>
      </trkpt>
      <trkpt lat="41.453723" lon="-8.771081">
        <ele>16.019</ele>
        <time>2019-04-28T12:25:33Z</time>
      </trkpt>
      <trkpt lat="41.453886" lon="-8.771000">
        <ele>15.508</ele>
        <time>2019-04-28T12:25:37Z</time>
      </trkpt>
      <trkpt lat="41.454045" lon="-8.770919">
        <ele>16.410</ele>
        <time>2019-04-28T12:25:41Z</time>
      </trkpt>
      <trkpt lat="41.454130" lon="-8.770892">
        <ele>16.423</ele>
        <time>2019-04-28T12:25:43Z</time>
      </trkpt>
      <trkpt lat="41.454838" lon="-8.770650">
        <ele>16.019</ele>
        <time>2019-04-28T12:25:59Z</time>
      </trkpt>
      <trkpt lat="41.454930" lon="-8.770612">
        <ele>15.557</ele>
        <time>2019-04-28T12:26:01Z</time>
      </trkpt>
      <trkpt lat="41.455020" lon="-8.770567">
        <ele>16.015</ele>
        <time>2019-04-28T12:26:03Z</time>
      </trkpt>
      <trkpt lat="41.455801" lon="-8.770264">
        <ele>15.037</ele>
        <time>2019-04-28T12:26:20Z</time>
      </trkpt>
      <trkpt lat="41.455850" lon="-8.770256">
        <ele>15.057</ele>
        <time>2019-04-28T12:26:21Z</time>
      </trkpt>
      <trkpt lat="41.456423" lon="-8.770266">
        <ele>14.031</ele>
        <time>2019-04-28T12:26:33Z</time>
      </trkpt>
      <trkpt lat="41.456616" lon="-8.770248">
        <ele>13.672</ele>
        <time>2019-04-28T12:26:37Z</time>
      </trkpt>
      <trkpt lat="41.457412" lon="-8.770277">
        <ele>14.013</ele>
        <time>2019-04-28T12:26:54Z</time>
      </trkpt>
      <trkpt lat="41.457659" lon="-8.770251">
        <ele>14.514</ele>
        <time>2019-04-28T12:26:59Z</time>
      </trkpt>
      <trkpt lat="41.458567" lon="-8.769968">
        <ele>12.108</ele>
        <time>2019-04-28T12:27:20Z</time>
      </trkpt>
      <trkpt lat="41.458611" lon="-8.769962">
        <ele>12.150</ele>
        <time>2019-04-28T12:27:21Z</time>
      </trkpt>
      <trkpt lat="41.459148" lon="-8.769965">
        <ele>12.133</ele>
        <time>2019-04-28T12:27:33Z</time>
      </trkpt>
      <trkpt lat="41.459362" lon="-8.769774">
        <ele>12.199</ele>
        <time>2019-04-28T12:27:39Z</time>
      </trkpt>
      <trkpt lat="41.459425" lon="-8.769541">
        <ele>11.657</ele>
        <time>2019-04-28T12:27:43Z</time>
      </trkpt>
      <trkpt lat="41.459456" lon="-8.769353">
        <ele>11.685</ele>
        <time>2019-04-28T12:27:46Z</time>
      </trkpt>
      <trkpt lat="41.459503" lon="-8.769160">
        <ele>11.667</ele>
        <time>2019-04-28T12:27:49Z</time>
      </trkpt>
      <trkpt lat="41.459598" lon="-8.768918">
        <ele>10.797</ele>
        <time>2019-04-28T12:27:53Z</time>
      </trkpt>
      <trkpt lat="41.459945" lon="-8.768390">
        <ele>10.711</ele>
        <time>2019-04-28T12:28:03Z</time>
      </trkpt>
      <trkpt lat="41.460245" lon="-8.767586">
        <ele>12.689</ele>
        <time>2019-04-28T12:28:18Z</time>
      </trkpt>
      <trkpt lat="41.460277" lon="-8.767560">
        <ele>12.606</ele>
        <time>2019-04-28T12:28:19Z</time>
      </trkpt>
      <trkpt lat="41.460744" lon="-8.767640">
        <ele>13.126</ele>
        <time>2019-04-28T12:28:31Z</time>
      </trkpt>
      <trkpt lat="41.460987" lon="-8.767661">
        <ele>13.108</ele>
        <time>2019-04-28T12:28:37Z</time>
      </trkpt>
      <trkpt lat="41.461694" lon="-8.767784">
        <ele>12.131</ele>
        <time>2019-04-28T12:28:53Z</time>
      </trkpt>
      <trkpt lat="41.461990" lon="-8.767829">
        <ele>11.164</ele>
        <time>2019-04-28T12:28:59Z</time>
      </trkpt>
      <trkpt lat="41.462148" lon="-8.767962">
        <ele>10.730</ele>
        <time>2019-04-28T12:29:03Z</time>
      </trkpt>
      <trkpt lat="41.462717" lon="-8.768830">
        <ele>8.328</ele>
        <time>2019-04-28T12:29:22Z</time>
      </trkpt>
      <trkpt lat="41.462745" lon="-8.768871">
        <ele>8.366</ele>
        <time>2019-04-28T12:29:23Z</time>
      </trkpt>
      <trkpt lat="41.462924" lon="-8.768919">
        <ele>8.768</ele>
        <time>2019-04-28T12:29:28Z</time>
      </trkpt>
      <trkpt lat="41.463020" lon="-8.768853">
        <ele>9.758</ele>
        <time>2019-04-28T12:29:31Z</time>
      </trkpt>
      <trkpt lat="41.463166" lon="-8.768793">
        <ele>10.222</ele>
        <time>2019-04-28T12:29:36Z</time>
      </trkpt>
      <trkpt lat="41.463195" lon="-8.768789">
        <ele>10.765</ele>
        <time>2019-04-28T12:29:46Z</time>
      </trkpt>
      <trkpt lat="41.463196" lon="-8.768785">
        <ele>10.768</ele>
        <time>2019-04-28T12:29:52Z</time>
      </trkpt>
      <trkpt lat="41.463228" lon="-8.768745">
        <ele>10.714</ele>
        <time>2019-04-28T12:29:56Z</time>
      </trkpt>
      <trkpt lat="41.463357" lon="-8.768672">
        <ele>11.608</ele>
        <time>2019-04-28T12:30:06Z</time>
      </trkpt>
      <trkpt lat="41.463440" lon="-8.768676">
        <ele>12.189</ele>
        <time>2019-04-28T12:30:15Z</time>
      </trkpt>
      <trkpt lat="41.463362" lon="-8.768694">
        <ele>13.182</ele>
        <time>2019-04-28T12:30:18Z</time>
      </trkpt>
      <trkpt lat="41.462939" lon="-8.768907">
        <ele>12.128</ele>
        <time>2019-04-28T12:30:32Z</time>
      </trkpt>
      <trkpt lat="41.462832" lon="-8.768925">
        <ele>11.146</ele>
        <time>2019-04-28T12:30:36Z</time>
      </trkpt>
      <trkpt lat="41.462848" lon="-8.768964">
        <ele>11.194</ele>
        <time>2019-04-28T12:30:43Z</time>
      </trkpt>
      <trkpt lat="41.462851" lon="-8.768958">
        <ele>11.176</ele>
        <time>2019-04-28T12:31:04Z</time>
      </trkpt>
      <trkpt lat="41.462864" lon="-8.768943">
        <ele>11.186</ele>
        <time>2019-04-28T12:31:16Z</time>
      </trkpt>
      <trkpt lat="41.462828" lon="-8.768978">
        <ele>10.760</ele>
        <time>2019-04-28T12:31:24Z</time>
      </trkpt>
      <trkpt lat="41.462851" lon="-8.768970">
        <ele>10.232</ele>
        <time>2019-04-28T12:31:41Z</time>
      </trkpt>
      <trkpt lat="41.462856" lon="-8.768963">
        <ele>10.292</ele>
        <time>2019-04-28T12:32:10Z</time>
      </trkpt>
      <trkpt lat="41.462855" lon="-8.768967">
        <ele>10.211</ele>
        <time>2019-04-28T12:32:38Z</time>
      </trkpt>
      <trkpt lat="41.462856" lon="-8.768966">
        <ele>10.708</ele>
        <time>2019-04-28T12:33:06Z</time>
      </trkpt>
      <trkpt lat="41.462855" lon="-8.768964">
        <ele>11.116</ele>
        <time>2019-04-28T12:33:30Z</time>
      </trkpt>
      <trkpt lat="41.462876" lon="-8.768927">
        <ele>11.639</ele>
        <time>2019-04-28T12:33:34Z</time>
      </trkpt>
      <trkpt lat="41.462970" lon="-8.768902">
        <ele>11.145</ele>
        <time>2019-04-28T12:33:38Z</time>
      </trkpt>
      <trkpt lat="41.463097" lon="-8.768821">
        <ele>11.693</ele>
        <time>2019-04-28T12:33:44Z</time>
      </trkpt>
      <trkpt lat="41.463406" lon="-8.768645">
        <ele>12.141</ele>
        <time>2019-04-28T12:33:55Z</time>
      </trkpt>
      <trkpt lat="41.463794" lon="-8.768494">
        <ele>11.693</ele>
        <time>2019-04-28T12:34:06Z</time>
      </trkpt>
      <trkpt lat="41.464493" lon="-8.768236">
        <ele>13.683</ele>
        <time>2019-04-28T12:34:24Z</time>
      </trkpt>
      <trkpt lat="41.464709" lon="-8.768161">
        <ele>13.137</ele>
        <time>2019-04-28T12:34:30Z</time>
      </trkpt>
      <trkpt lat="41.465278" lon="-8.768076">
        <ele>13.613</ele>
        <time>2019-04-28T12:34:43Z</time>
      </trkpt>
      <trkpt lat="41.465772" lon="-8.768060">
        <ele>14.043</ele>
        <time>2019-04-28T12:34:55Z</time>
      </trkpt>
      <trkpt lat="41.465905" lon="-8.768056">
        <ele>13.607</ele>
        <time>2019-04-28T12:34:58Z</time>
      </trkpt>
      <trkpt lat="41.466270" lon="-8.768003">
        <ele>13.608</ele>
        <time>2019-04-28T12:35:07Z</time>
      </trkpt>
      <trkpt lat="41.466825" lon="-8.767829">
        <ele>16.024</ele>
        <time>2019-04-28T12:35:21Z</time>
      </trkpt>
      <trkpt lat="41.467284" lon="-8.767660">
        <ele>16.417</ele>
        <time>2019-04-28T12:35:33Z</time>
      </trkpt>
      <trkpt lat="41.467431" lon="-8.767486">
        <ele>16.473</ele>
        <time>2019-04-28T12:35:38Z</time>
      </trkpt>
      <trkpt lat="41.467501" lon="-8.767133">
        <ele>16.481</ele>
        <time>2019-04-28T12:35:45Z</time>
      </trkpt>
      <trkpt lat="41.467588" lon="-8.766738">
        <ele>17.929</ele>
        <time>2019-04-28T12:35:53Z</time>
      </trkpt>
      <trkpt lat="41.467608" lon="-8.766619">
        <ele>17.951</ele>
        <time>2019-04-28T12:35:55Z</time>
      </trkpt>
      <trkpt lat="41.467701" lon="-8.766281">
        <ele>17.431</ele>
        <time>2019-04-28T12:36:01Z</time>
      </trkpt>
      <trkpt lat="41.467926" lon="-8.766036">
        <ele>16.935</ele>
        <time>2019-04-28T12:36:08Z</time>
      </trkpt>
      <trkpt lat="41.468186" lon="-8.765933">
        <ele>16.926</ele>
        <time>2019-04-28T12:36:14Z</time>
      </trkpt>
      <trkpt lat="41.468272" lon="-8.765881">
        <ele>16.947</ele>
        <time>2019-04-28T12:36:16Z</time>
      </trkpt>
      <trkpt lat="41.468426" lon="-8.765750">
        <ele>16.911</ele>
        <time>2019-04-28T12:36:20Z</time>
      </trkpt>
      <trkpt lat="41.468497" lon="-8.765664">
        <ele>16.408</ele>
        <time>2019-04-28T12:36:22Z</time>
      </trkpt>
      <trkpt lat="41.468712" lon="-8.765447">
        <ele>16.495</ele>
        <time>2019-04-28T12:36:28Z</time>
      </trkpt>
      <trkpt lat="41.469076" lon="-8.765100">
        <ele>16.468</ele>
        <time>2019-04-28T12:36:38Z</time>
      </trkpt>
      <trkpt lat="41.469667" lon="-8.764830">
        <ele>16.024</ele>
        <time>2019-04-28T12:36:52Z</time>
      </trkpt>
      <trkpt lat="41.469807" lon="-8.764781">
        <ele>15.082</ele>
        <time>2019-04-28T12:36:55Z</time>
      </trkpt>
      <trkpt lat="41.470288" lon="-8.764684">
        <ele>15.090</ele>
        <time>2019-04-28T12:37:05Z</time>
      </trkpt>
      <trkpt lat="41.470488" lon="-8.764728">
        <ele>15.052</ele>
        <time>2019-04-28T12:37:09Z</time>
      </trkpt>
      <trkpt lat="41.471199" lon="-8.764966">
        <ele>15.022</ele>
        <time>2019-04-28T12:37:24Z</time>
      </trkpt>
      <trkpt lat="41.471959" lon="-8.765183">
        <ele>14.516</ele>
        <time>2019-04-28T12:37:40Z</time>
      </trkpt>
      <trkpt lat="41.472657" lon="-8.765366">
        <ele>14.042</ele>
        <time>2019-04-28T12:37:55Z</time>
      </trkpt>
      <trkpt lat="41.472992" lon="-8.765455">
        <ele>13.622</ele>
        <time>2019-04-28T12:38:02Z</time>
      </trkpt>
      <trkpt lat="41.473178" lon="-8.765470">
        <ele>14.014</ele>
        <time>2019-04-28T12:38:06Z</time>
      </trkpt>
      <trkpt lat="41.473313" lon="-8.765481">
        <ele>13.608</ele>
        <time>2019-04-28T12:38:09Z</time>
      </trkpt>
      <trkpt lat="41.473455" lon="-8.765488">
        <ele>13.187</ele>
        <time>2019-04-28T12:38:12Z</time>
      </trkpt>
      <trkpt lat="41.473994" lon="-8.765553">
        <ele>10.720</ele>
        <time>2019-04-28T12:38:24Z</time>
      </trkpt>
      <trkpt lat="41.474037" lon="-8.765556">
        <ele>10.716</ele>
        <time>2019-04-28T12:38:25Z</time>
      </trkpt>
      <trkpt lat="41.474469" lon="-8.765552">
        <ele>12.644</ele>
        <time>2019-04-28T12:38:34Z</time>
      </trkpt>
      <trkpt lat="41.474569" lon="-8.765537">
        <ele>13.182</ele>
        <time>2019-04-28T12:38:36Z</time>
      </trkpt>
      <trkpt lat="41.475305" lon="-8.765290">
        <ele>16.014</ele>
        <time>2019-04-28T12:38:51Z</time>
      </trkpt>
      <trkpt lat="41.475545" lon="-8.765195">
        <ele>17.444</ele>
        <time>2019-04-28T12:38:56Z</time>
      </trkpt>
      <trkpt lat="41.475704" lon="-8.765190">
        <ele>18.458</ele>
        <time>2019-04-28T12:38:59Z</time>
      </trkpt>
      <trkpt lat="41.475815" lon="-8.765210">
        <ele>18.821</ele>
        <time>2019-04-28T12:39:01Z</time>
      </trkpt>
      <trkpt lat="41.475923" lon="-8.765211">
        <ele>19.341</ele>
        <time>2019-04-28T12:39:03Z</time>
      </trkpt>
      <trkpt lat="41.476083" lon="-8.765229">
        <ele>17.905</ele>
        <time>2019-04-28T12:39:06Z</time>
      </trkpt>
      <trkpt lat="41.476952" lon="-8.765318">
        <ele>15.508</ele>
        <time>2019-04-28T12:39:21Z</time>
      </trkpt>
      <trkpt lat="41.477474" lon="-8.765342">
        <ele>17.985</ele>
        <time>2019-04-28T12:39:30Z</time>
      </trkpt>
      <trkpt lat="41.477580" lon="-8.765337">
        <ele>18.438</ele>
        <time>2019-04-28T12:39:32Z</time>
      </trkpt>
      <trkpt lat="41.477791" lon="-8.765339">
        <ele>19.334</ele>
        <time>2019-04-28T12:39:36Z</time>
      </trkpt>
      <trkpt lat="41.478011" lon="-8.765342">
        <ele>19.832</ele>
        <time>2019-04-28T12:39:40Z</time>
      </trkpt>
      <trkpt lat="41.478156" lon="-8.765353">
        <ele>20.380</ele>
        <time>2019-04-28T12:39:43Z</time>
      </trkpt>
      <trkpt lat="41.478556" lon="-8.765367">
        <ele>20.372</ele>
        <time>2019-04-28T12:39:53Z</time>
      </trkpt>
      <trkpt lat="41.478584" lon="-8.765370">
        <ele>20.352</ele>
        <time>2019-04-28T12:39:54Z</time>
      </trkpt>
      <trkpt lat="41.478733" lon="-8.765513">
        <ele>20.386</ele>
        <time>2019-04-28T12:40:00Z</time>
      </trkpt>
      <trkpt lat="41.478879" lon="-8.765496">
        <ele>19.352</ele>
        <time>2019-04-28T12:40:04Z</time>
      </trkpt>
      <trkpt lat="41.479418" lon="-8.765168">
        <ele>17.953</ele>
        <time>2019-04-28T12:40:18Z</time>
      </trkpt>
      <trkpt lat="41.479677" lon="-8.765086">
        <ele>16.908</ele>
        <time>2019-04-28T12:40:26Z</time>
      </trkpt>
      <trkpt lat="41.479803" lon="-8.765043">
        <ele>16.408</ele>
        <time>2019-04-28T12:40:29Z</time>
      </trkpt>
      <trkpt lat="41.479926" lon="-8.764970">
        <ele>16.498</ele>
        <time>2019-04-28T12:40:32Z</time>
      </trkpt>
      <trkpt lat="41.480597" lon="-8.764331">
        <ele>12.661</ele>
        <time>2019-04-28T12:40:48Z</time>
      </trkpt>
      <trkpt lat="41.480758" lon="-8.764175">
        <ele>12.677</ele>
        <time>2019-04-28T12:40:52Z</time>
      </trkpt>
      <trkpt lat="41.481088" lon="-8.764132">
        <ele>12.135</ele>
        <time>2019-04-28T12:40:59Z</time>
      </trkpt>
      <trkpt lat="41.481654" lon="-8.764305">
        <ele>10.723</ele>
        <time>2019-04-28T12:41:12Z</time>
      </trkpt>
      <trkpt lat="41.482279" lon="-8.764566">
        <ele>11.635</ele>
        <time>2019-04-28T12:41:28Z</time>
      </trkpt>
      <trkpt lat="41.482538" lon="-8.764713">
        <ele>11.625</ele>
        <time>2019-04-28T12:41:37Z</time>
      </trkpt>
      <trkpt lat="41.482774" lon="-8.764857">
        <ele>13.629</ele>
        <time>2019-04-28T12:41:49Z</time>
      </trkpt>
      <trkpt lat="41.482773" lon="-8.764862">
        <ele>14.519</ele>
        <time>2019-04-28T12:41:54Z</time>
      </trkpt>
      <trkpt lat="41.482785" lon="-8.764847">
        <ele>15.009</ele>
        <time>2019-04-28T12:41:56Z</time>
      </trkpt>
      <trkpt lat="41.482781" lon="-8.764822">
        <ele>15.019</ele>
        <time>2019-04-28T12:41:58Z</time>
      </trkpt>
      <trkpt lat="41.482648" lon="-8.764892">
        <ele>14.008</ele>
        <time>2019-04-28T12:42:05Z</time>
      </trkpt>
      <trkpt lat="41.482551" lon="-8.764932">
        <ele>14.554</ele>
        <time>2019-04-28T12:42:16Z</time>
      </trkpt>
      <trkpt lat="41.482559" lon="-8.764940">
        <ele>13.697</ele>
        <time>2019-04-28T12:42:37Z</time>
      </trkpt>
      <trkpt lat="41.482567" lon="-8.764957">
        <ele>13.613</ele>
        <time>2019-04-28T12:43:07Z</time>
      </trkpt>
      <trkpt lat="41.482552" lon="-8.764944">
        <ele>13.641</ele>
        <time>2019-04-28T12:43:39Z</time>
      </trkpt>
      <trkpt lat="41.482561" lon="-8.764945">
        <ele>13.129</ele>
        <time>2019-04-28T12:44:12Z</time>
      </trkpt>
      <trkpt lat="41.482556" lon="-8.764953">
        <ele>13.141</ele>
        <time>2019-04-28T12:44:36Z</time>
      </trkpt>
      <trkpt lat="41.482555" lon="-8.764961">
        <ele>12.671</ele>
        <time>2019-04-28T12:44:55Z</time>
      </trkpt>
      <trkpt lat="41.482555" lon="-8.764961">
        <ele>12.655</ele>
        <time>2019-04-28T12:44:56Z</time>
      </trkpt>
      <trkpt lat="41.482637" lon="-8.764903">
        <ele>12.629</ele>
        <time>2019-04-28T12:45:03Z</time>
      </trkpt>
      <trkpt lat="41.482718" lon="-8.764850">
        <ele>13.100</ele>
        <time>2019-04-28T12:45:07Z</time>
      </trkpt>
      <trkpt lat="41.483089" lon="-8.764851">
        <ele>12.620</ele>
        <time>2019-04-28T12:45:20Z</time>
      </trkpt>
      <trkpt lat="41.483421" lon="-8.764791">
        <ele>11.608</ele>
        <time>2019-04-28T12:45:30Z</time>
      </trkpt>
      <trkpt lat="41.483938" lon="-8.764714">
        <ele>14.545</ele>
        <time>2019-04-28T12:45:43Z</time>
      </trkpt>
      <trkpt lat="41.484520" lon="-8.764389">
        <ele>13.678</ele>
        <time>2019-04-28T12:46:00Z</time>
      </trkpt>
      <trkpt lat="41.484613" lon="-8.764359">
        <ele>13.634</ele>
        <time>2019-04-28T12:46:08Z</time>
      </trkpt>
      <trkpt lat="41.484631" lon="-8.764356">
        <ele>13.632</ele>
        <time>2019-04-28T12:46:14Z</time>
      </trkpt>
      <trkpt lat="41.484898" lon="-8.764367">
        <ele>12.610</ele>
        <time>2019-04-28T12:46:22Z</time>
      </trkpt>
      <trkpt lat="41.485545" lon="-8.764324">
        <ele>13.162</ele>
        <time>2019-04-28T12:46:38Z</time>
      </trkpt>
      <trkpt lat="41.486007" lon="-8.764221">
        <ele>13.632</ele>
        <time>2019-04-28T12:46:50Z</time>
      </trkpt>
      <trkpt lat="41.486414" lon="-8.764173">
        <ele>16.096</ele>
        <time>2019-04-28T12:47:00Z</time>
      </trkpt>
      <trkpt lat="41.486639" lon="-8.764253">
        <ele>15.012</ele>
        <time>2019-04-28T12:47:05Z</time>
      </trkpt>
      <trkpt lat="41.486826" lon="-8.764404">
        <ele>14.032</ele>
        <time>2019-04-28T12:47:10Z</time>
      </trkpt>
      <trkpt lat="41.487191" lon="-8.764703">
        <ele>11.605</ele>
        <time>2019-04-28T12:47:22Z</time>
      </trkpt>
      <trkpt lat="41.487528" lon="-8.764849">
        <ele>11.608</ele>
        <time>2019-04-28T12:47:31Z</time>
      </trkpt>
      <trkpt lat="41.487822" lon="-8.764668">
        <ele>13.134</ele>
        <time>2019-04-28T12:47:39Z</time>
      </trkpt>
      <trkpt lat="41.488096" lon="-8.764663">
        <ele>14.557</ele>
        <time>2019-04-28T12:47:46Z</time>
      </trkpt>
      <trkpt lat="41.488842" lon="-8.764711">
        <ele>16.923</ele>
        <time>2019-04-28T12:48:04Z</time>
      </trkpt>
      <trkpt lat="41.489571" lon="-8.764867">
        <ele>15.051</ele>
        <time>2019-04-28T12:48:22Z</time>
      </trkpt>
      <trkpt lat="41.490347" lon="-8.765000">
        <ele>14.519</ele>
        <time>2019-04-28T12:48:41Z</time>
      </trkpt>
      <trkpt lat="41.491014" lon="-8.765101">
        <ele>13.671</ele>
        <time>2019-04-28T12:48:58Z</time>
      </trkpt>
      <trkpt lat="41.491645" lon="-8.765042">
        <ele>13.681</ele>
        <time>2019-04-28T12:49:14Z</time>
      </trkpt>
      <trkpt lat="41.492248" lon="-8.764991">
        <ele>13.135</ele>
        <time>2019-04-28T12:49:29Z</time>
      </trkpt>
      <trkpt lat="41.492785" lon="-8.765138">
        <ele>11.686</ele>
        <time>2019-04-28T12:49:43Z</time>
      </trkpt>
      <trkpt lat="41.493390" lon="-8.765420">
        <ele>13.160</ele>
        <time>2019-04-28T12:49:59Z</time>
      </trkpt>
      <trkpt lat="41.493681" lon="-8.765599">
        <ele>13.126</ele>
        <time>2019-04-28T12:50:07Z</time>
      </trkpt>
      <trkpt lat="41.493905" lon="-8.765971">
        <ele>13.608</ele>
        <time>2019-04-28T12:50:16Z</time>
      </trkpt>
      <trkpt lat="41.494223" lon="-8.766053">
        <ele>14.041</ele>
        <time>2019-04-28T12:50:24Z</time>
      </trkpt>
      <trkpt lat="41.494425" lon="-8.766116">
        <ele>14.084</ele>
        <time>2019-04-28T12:50:29Z</time>
      </trkpt>
      <trkpt lat="41.494585" lon="-8.766162">
        <ele>14.590</ele>
        <time>2019-04-28T12:50:33Z</time>
      </trkpt>
      <trkpt lat="41.495251" lon="-8.766340">
        <ele>13.668</ele>
        <time>2019-04-28T12:50:48Z</time>
      </trkpt>
      <trkpt lat="41.495297" lon="-8.766358">
        <ele>13.136</ele>
        <time>2019-04-28T12:50:49Z</time>
      </trkpt>
      <trkpt lat="41.495389" lon="-8.766378">
        <ele>12.658</ele>
        <time>2019-04-28T12:50:51Z</time>
      </trkpt>
      <trkpt lat="41.495826" lon="-8.766515">
        <ele>11.188</ele>
        <time>2019-04-28T12:51:02Z</time>
      </trkpt>
      <trkpt lat="41.496058" lon="-8.766580">
        <ele>9.772</ele>
        <time>2019-04-28T12:51:07Z</time>
      </trkpt>
      <trkpt lat="41.496199" lon="-8.766616">
        <ele>9.781</ele>
        <time>2019-04-28T12:51:10Z</time>
      </trkpt>
      <trkpt lat="41.496759" lon="-8.766772">
        <ele>10.761</ele>
        <time>2019-04-28T12:51:22Z</time>
      </trkpt>
      <trkpt lat="41.497047" lon="-8.766885">
        <ele>10.717</ele>
        <time>2019-04-28T12:51:28Z</time>
      </trkpt>
      <trkpt lat="41.497351" lon="-8.766960">
        <ele>10.708</ele>
        <time>2019-04-28T12:51:34Z</time>
      </trkpt>
      <trkpt lat="41.497674" lon="-8.767047">
        <ele>11.131</ele>
        <time>2019-04-28T12:51:42Z</time>
      </trkpt>
      <trkpt lat="41.497991" lon="-8.767138">
        <ele>13.164</ele>
        <time>2019-04-28T12:51:51Z</time>
      </trkpt>
      <trkpt lat="41.498017" lon="-8.767132">
        <ele>13.130</ele>
        <time>2019-04-28T12:51:52Z</time>
      </trkpt>
      <trkpt lat="41.498054" lon="-8.767087">
        <ele>13.188</ele>
        <time>2019-04-28T12:51:55Z</time>
      </trkpt>
      <trkpt lat="41.498110" lon="-8.767025">
        <ele>13.196</ele>
        <time>2019-04-28T12:51:59Z</time>
      </trkpt>
      <trkpt lat="41.498394" lon="-8.766842">
        <ele>13.638</ele>
        <time>2019-04-28T12:52:08Z</time>
      </trkpt>
      <trkpt lat="41.498504" lon="-8.766789">
        <ele>14.058</ele>
        <time>2019-04-28T12:52:11Z</time>
      </trkpt>
      <trkpt lat="41.498726" lon="-8.766712">
        <ele>20.892</ele>
        <time>2019-04-28T12:52:20Z</time>
      </trkpt>
      <trkpt lat="41.498802" lon="-8.766684">
        <ele>21.729</ele>
        <time>2019-04-28T12:52:22Z</time>
      </trkpt>
      <trkpt lat="41.499242" lon="-8.766754">
        <ele>25.600</ele>
        <time>2019-04-28T12:52:33Z</time>
      </trkpt>
      <trkpt lat="41.499419" lon="-8.766805">
        <ele>25.620</ele>
        <time>2019-04-28T12:52:37Z</time>
      </trkpt>
      <trkpt lat="41.499698" lon="-8.766895">
        <ele>24.108</ele>
        <time>2019-04-28T12:52:43Z</time>
      </trkpt>
      <trkpt lat="41.499805" lon="-8.766926">
        <ele>23.685</ele>
        <time>2019-04-28T12:52:45Z</time>
      </trkpt>
      <trkpt lat="41.499949" lon="-8.766987">
        <ele>23.218</ele>
        <time>2019-04-28T12:52:48Z</time>
      </trkpt>
      <trkpt lat="41.500134" lon="-8.767028">
        <ele>21.274</ele>
        <time>2019-04-28T12:52:52Z</time>
      </trkpt>
      <trkpt lat="41.500318" lon="-8.767102">
        <ele>19.872</ele>
        <time>2019-04-28T12:52:56Z</time>
      </trkpt>
      <trkpt lat="41.500898" lon="-8.767322">
        <ele>15.520</ele>
        <time>2019-04-28T12:53:09Z</time>
      </trkpt>
      <trkpt lat="41.501376" lon="-8.767517">
        <ele>12.122</ele>
        <time>2019-04-28T12:53:19Z</time>
      </trkpt>
      <trkpt lat="41.501766" lon="-8.767678">
        <ele>12.132</ele>
        <time>2019-04-28T12:53:28Z</time>
      </trkpt>
      <trkpt lat="41.502094" lon="-8.767798">
        <ele>10.726</ele>
        <time>2019-04-28T12:53:35Z</time>
      </trkpt>
      <trkpt lat="41.502160" lon="-8.767823">
        <ele>10.272</ele>
        <time>2019-04-28T12:53:37Z</time>
      </trkpt>
      <trkpt lat="41.502291" lon="-8.767861">
        <ele>9.213</ele>
        <time>2019-04-28T12:53:40Z</time>
      </trkpt>
      <trkpt lat="41.502878" lon="-8.768141">
        <ele>10.714</ele>
        <time>2019-04-28T12:53:52Z</time>
      </trkpt>
      <trkpt lat="41.502964" lon="-8.768186">
        <ele>10.708</ele>
        <time>2019-04-28T12:53:54Z</time>
      </trkpt>
      <trkpt lat="41.503528" lon="-8.768344">
        <ele>11.150</ele>
        <time>2019-04-28T12:54:08Z</time>
      </trkpt>
      <trkpt lat="41.503575" lon="-8.768357">
        <ele>11.163</ele>
        <time>2019-04-28T12:54:09Z</time>
      </trkpt>
      <trkpt lat="41.504199" lon="-8.768574">
        <ele>10.789</ele>
        <time>2019-04-28T12:54:22Z</time>
      </trkpt>
      <trkpt lat="41.504777" lon="-8.768762">
        <ele>10.797</ele>
        <time>2019-04-28T12:54:34Z</time>
      </trkpt>
      <trkpt lat="41.505468" lon="-8.769048">
        <ele>11.675</ele>
        <time>2019-04-28T12:54:48Z</time>
      </trkpt>
      <trkpt lat="41.506104" lon="-8.769280">
        <ele>11.647</ele>
        <time>2019-04-28T12:55:00Z</time>
      </trkpt>
      <trkpt lat="41.506478" lon="-8.769228">
        <ele>10.787</ele>
        <time>2019-04-28T12:55:07Z</time>
      </trkpt>
      <trkpt lat="41.507155" lon="-8.769341">
        <ele>8.391</ele>
        <time>2019-04-28T12:55:20Z</time>
      </trkpt>
      <trkpt lat="41.507324" lon="-8.769334">
        <ele>8.335</ele>
        <time>2019-04-28T12:55:27Z</time>
      </trkpt>
      <trkpt lat="41.507368" lon="-8.769229">
        <ele>7.886</ele>
        <time>2019-04-28T12:55:30Z</time>
      </trkpt>
      <trkpt lat="41.507413" lon="-8.769006">
        <ele>6.814</ele>
        <time>2019-04-28T12:55:34Z</time>
      </trkpt>
      <trkpt lat="41.507434" lon="-8.768887">
        <ele>7.308</ele>
        <time>2019-04-28T12:55:36Z</time>
      </trkpt>
      <trkpt lat="41.507436" lon="-8.768671">
        <ele>7.366</ele>
        <time>2019-04-28T12:55:40Z</time>
      </trkpt>
      <trkpt lat="41.507392" lon="-8.768173">
        <ele>6.899</ele>
        <time>2019-04-28T12:55:51Z</time>
      </trkpt>
      <trkpt lat="41.507427" lon="-8.767699">
        <ele>7.885</ele>
        <time>2019-04-28T12:56:02Z</time>
      </trkpt>
      <trkpt lat="41.507316" lon="-8.767220">
        <ele>7.883</ele>
        <time>2019-04-28T12:56:15Z</time>
      </trkpt>
      <trkpt lat="41.507353" lon="-8.766596">
        <ele>7.311</ele>
        <time>2019-04-28T12:56:28Z</time>
      </trkpt>
      <trkpt lat="41.507395" lon="-8.766464">
        <ele>7.383</ele>
        <time>2019-04-28T12:56:32Z</time>
      </trkpt>
      <trkpt lat="41.507501" lon="-8.766441">
        <ele>7.893</ele>
        <time>2019-04-28T12:56:36Z</time>
      </trkpt>
      <trkpt lat="41.507973" lon="-8.766636">
        <ele>7.357</ele>
        <time>2019-04-28T12:56:50Z</time>
      </trkpt>
      <trkpt lat="41.508635" lon="-8.766775">
        <ele>8.726</ele>
        <time>2019-04-28T12:57:06Z</time>
      </trkpt>
      <trkpt lat="41.508744" lon="-8.766795">
        <ele>8.347</ele>
        <time>2019-04-28T12:57:09Z</time>
      </trkpt>
      <trkpt lat="41.508821" lon="-8.766750">
        <ele>7.811</ele>
        <time>2019-04-28T12:57:17Z</time>
      </trkpt>
      <trkpt lat="41.508854" lon="-8.766710">
        <ele>8.708</ele>
        <time>2019-04-28T12:57:37Z</time>
      </trkpt>
      <trkpt lat="41.508965" lon="-8.766747">
        <ele>9.225</ele>
        <time>2019-04-28T12:57:41Z</time>
      </trkpt>
      <trkpt lat="41.509448" lon="-8.767196">
        <ele>7.388</ele>
        <time>2019-04-28T12:57:57Z</time>
      </trkpt>
      <trkpt lat="41.509796" lon="-8.767529">
        <ele>6.834</ele>
        <time>2019-04-28T12:58:10Z</time>
      </trkpt>
      <trkpt lat="41.510187" lon="-8.767873">
        <ele>7.382</ele>
        <time>2019-04-28T12:58:23Z</time>
      </trkpt>
      <trkpt lat="41.510423" lon="-8.768099">
        <ele>8.340</ele>
        <time>2019-04-28T12:58:36Z</time>
      </trkpt>
      <trkpt lat="41.510647" lon="-8.768314">
        <ele>7.372</ele>
        <time>2019-04-28T12:58:47Z</time>
      </trkpt>
      <trkpt lat="41.510942" lon="-8.768587">
        <ele>7.812</ele>
        <time>2019-04-28T12:59:00Z</time>
      </trkpt>
      <trkpt lat="41.511170" lon="-8.768805">
        <ele>7.396</ele>
        <time>2019-04-28T12:59:11Z</time>
      </trkpt>
      <trkpt lat="41.511402" lon="-8.769093">
        <ele>8.788</ele>
        <time>2019-04-28T12:59:23Z</time>
      </trkpt>
      <trkpt lat="41.511620" lon="-8.769412">
        <ele>9.224</ele>
        <time>2019-04-28T12:59:34Z</time>
      </trkpt>
      <trkpt lat="41.511792" lon="-8.769711">
        <ele>9.226</ele>
        <time>2019-04-28T12:59:45Z</time>
      </trkpt>
      <trkpt lat="41.511984" lon="-8.769952">
        <ele>9.708</ele>
        <time>2019-04-28T12:59:57Z</time>
      </trkpt>
      <trkpt lat="41.512239" lon="-8.770300">
        <ele>10.221</ele>
        <time>2019-04-28T13:00:08Z</time>
      </trkpt>
      <trkpt lat="41.512499" lon="-8.770580">
        <ele>12.194</ele>
        <time>2019-04-28T13:00:20Z</time>
      </trkpt>
      <trkpt lat="41.512528" lon="-8.770621">
        <ele>13.130</ele>
        <time>2019-04-28T13:00:34Z</time>
      </trkpt>
      <trkpt lat="41.512550" lon="-8.770687">
        <ele>12.678</ele>
        <time>2019-04-28T13:00:39Z</time>
      </trkpt>
      <trkpt lat="41.512631" lon="-8.770755">
        <ele>10.286</ele>
        <time>2019-04-28T13:00:52Z</time>
      </trkpt>
      <trkpt lat="41.512648" lon="-8.770744">
        <ele>10.228</ele>
        <time>2019-04-28T13:01:17Z</time>
      </trkpt>
      <trkpt lat="41.512651" lon="-8.770738">
        <ele>10.268</ele>
        <time>2019-04-28T13:01:28Z</time>
      </trkpt>
      <trkpt lat="41.512649" lon="-8.770762">
        <ele>10.282</ele>
        <time>2019-04-28T13:01:30Z</time>
      </trkpt>
      <trkpt lat="41.512655" lon="-8.770838">
        <ele>10.294</ele>
        <time>2019-04-28T13:01:33Z</time>
      </trkpt>
      <trkpt lat="41.512730" lon="-8.770968">
        <ele>9.757</ele>
        <time>2019-04-28T13:01:38Z</time>
      </trkpt>
      <trkpt lat="41.512893" lon="-8.771121">
        <ele>5.922</ele>
        <time>2019-04-28T13:01:46Z</time>
      </trkpt>
      <trkpt lat="41.512911" lon="-8.771134">
        <ele>5.408</ele>
        <time>2019-04-28T13:01:48Z</time>
      </trkpt>
      <trkpt lat="41.513004" lon="-8.771260">
        <ele>3.992</ele>
        <time>2019-04-28T13:01:55Z</time>
      </trkpt>
      <trkpt lat="41.513089" lon="-8.771362">
        <ele>3.075</ele>
        <time>2019-04-28T13:02:02Z</time>
      </trkpt>
      <trkpt lat="41.513362" lon="-8.771574">
        <ele>3.581</ele>
        <time>2019-04-28T13:02:14Z</time>
      </trkpt>
      <trkpt lat="41.513743" lon="-8.771750">
        <ele>5.419</ele>
        <time>2019-04-28T13:02:25Z</time>
      </trkpt>
      <trkpt lat="41.514008" lon="-8.771888">
        <ele>6.867</ele>
        <time>2019-04-28T13:02:34Z</time>
      </trkpt>
      <trkpt lat="41.514058" lon="-8.771862">
        <ele>7.879</ele>
        <time>2019-04-28T13:02:44Z</time>
      </trkpt>
      <trkpt lat="41.514078" lon="-8.771829">
        <ele>7.329</ele>
        <time>2019-04-28T13:02:47Z</time>
      </trkpt>
      <trkpt lat="41.514047" lon="-8.771791">
        <ele>6.333</ele>
        <time>2019-04-28T13:02:51Z</time>
      </trkpt>
      <trkpt lat="41.514022" lon="-8.771803">
        <ele>6.887</ele>
        <time>2019-04-28T13:02:53Z</time>
      </trkpt>
      <trkpt lat="41.513950" lon="-8.771880">
        <ele>6.842</ele>
        <time>2019-04-28T13:03:05Z</time>
      </trkpt>
      <trkpt lat="41.513976" lon="-8.771842">
        <ele>6.826</ele>
        <time>2019-04-28T13:03:09Z</time>
      </trkpt>
      <trkpt lat="41.514029" lon="-8.771834">
        <ele>7.808</ele>
        <time>2019-04-28T13:03:24Z</time>
      </trkpt>
      <trkpt lat="41.514032" lon="-8.771836">
        <ele>7.331</ele>
        <time>2019-04-28T13:03:45Z</time>
      </trkpt>
      <trkpt lat="41.514035" lon="-8.771815">
        <ele>7.384</ele>
        <time>2019-04-28T13:04:05Z</time>
      </trkpt>
      <trkpt lat="41.514014" lon="-8.771819">
        <ele>8.370</ele>
        <time>2019-04-28T13:04:27Z</time>
      </trkpt>
      <trkpt lat="41.514010" lon="-8.771830">
        <ele>7.828</ele>
        <time>2019-04-28T13:04:29Z</time>
      </trkpt>
      <trkpt lat="41.513931" lon="-8.772023">
        <ele>6.376</ele>
        <time>2019-04-28T13:04:37Z</time>
      </trkpt>
      <trkpt lat="41.513941" lon="-8.772048">
        <ele>5.958</ele>
        <time>2019-04-28T13:04:48Z</time>
      </trkpt>
      <trkpt lat="41.513938" lon="-8.772037">
        <ele>5.918</ele>
        <time>2019-04-28T13:05:07Z</time>
      </trkpt>
      <trkpt lat="41.514002" lon="-8.771923">
        <ele>5.452</ele>
        <time>2019-04-28T13:05:13Z</time>
      </trkpt>
      <trkpt lat="41.514044" lon="-8.771873">
        <ele>6.887</ele>
        <time>2019-04-28T13:05:23Z</time>
      </trkpt>
      <trkpt lat="41.514044" lon="-8.771843">
        <ele>6.342</ele>
        <time>2019-04-28T13:05:34Z</time>
      </trkpt>
      <trkpt lat="41.513933" lon="-8.772044">
        <ele>4.426</ele>
        <time>2019-04-28T13:05:43Z</time>
      </trkpt>
      <trkpt lat="41.513951" lon="-8.772230">
        <ele>3.908</ele>
        <time>2019-04-28T13:05:48Z</time>
      </trkpt>
      <trkpt lat="41.513983" lon="-8.772337">
        <ele>3.981</ele>
        <time>2019-04-28T13:05:57Z</time>
      </trkpt>
      <trkpt lat="41.513989" lon="-8.772447">
        <ele>5.484</ele>
        <time>2019-04-28T13:06:08Z</time>
      </trkpt>
      <trkpt lat="41.513980" lon="-8.772535">
        <ele>6.830</ele>
        <time>2019-04-28T13:06:23Z</time>
      </trkpt>
      <trkpt lat="41.513962" lon="-8.772635">
        <ele>8.328</ele>
        <time>2019-04-28T13:06:44Z</time>
      </trkpt>
      <trkpt lat="41.513946" lon="-8.772770">
        <ele>9.296</ele>
        <time>2019-04-28T13:06:47Z</time>
      </trkpt>
      <trkpt lat="41.513888" lon="-8.773274">
        <ele>9.768</ele>
        <time>2019-04-28T13:06:57Z</time>
      </trkpt>
      <trkpt lat="41.513951" lon="-8.773346">
        <ele>10.238</ele>
        <time>2019-04-28T13:07:08Z</time>
      </trkpt>
      <trkpt lat="41.513962" lon="-8.773350">
        <ele>9.782</ele>
        <time>2019-04-28T13:07:14Z</time>
      </trkpt>
      <trkpt lat="41.513884" lon="-8.773505">
        <ele>9.796</ele>
        <time>2019-04-28T13:07:22Z</time>
      </trkpt>
      <trkpt lat="41.513399" lon="-8.773548">
        <ele>8.331</ele>
        <time>2019-04-28T13:07:38Z</time>
      </trkpt>
      <trkpt lat="41.513213" lon="-8.773562">
        <ele>8.324</ele>
        <time>2019-04-28T13:07:48Z</time>
      </trkpt>
      <trkpt lat="41.513016" lon="-8.773582">
        <ele>6.308</ele>
        <time>2019-04-28T13:07:58Z</time>
      </trkpt>
      <trkpt lat="41.512603" lon="-8.773575">
        <ele>7.832</ele>
        <time>2019-04-28T13:08:12Z</time>
      </trkpt>
      <trkpt lat="41.512475" lon="-8.773548">
        <ele>9.245</ele>
        <time>2019-04-28T13:08:18Z</time>
      </trkpt>
      <trkpt lat="41.512407" lon="-8.773480">
        <ele>11.141</ele>
        <time>2019-04-28T13:08:22Z</time>
      </trkpt>
      <trkpt lat="41.512061" lon="-8.773083">
        <ele>15.019</ele>
        <time>2019-04-28T13:08:38Z</time>
      </trkpt>
      <trkpt lat="41.511635" lon="-8.772617">
        <ele>15.077</ele>
        <time>2019-04-28T13:08:55Z</time>
      </trkpt>
      <trkpt lat="41.511313" lon="-8.772225">
        <ele>16.089</ele>
        <time>2019-04-28T13:09:10Z</time>
      </trkpt>
      <trkpt lat="41.511230" lon="-8.772154">
        <ele>13.629</ele>
        <time>2019-04-28T13:09:20Z</time>
      </trkpt>
      <trkpt lat="41.511206" lon="-8.772152">
        <ele>12.683</ele>
        <time>2019-04-28T13:09:34Z</time>
      </trkpt>
      <trkpt lat="41.511175" lon="-8.772127">
        <ele>12.631</ele>
        <time>2019-04-28T13:09:54Z</time>
      </trkpt>
      <trkpt lat="41.511196" lon="-8.772111">
        <ele>14.061</ele>
        <time>2019-04-28T13:10:14Z</time>
      </trkpt>
      <trkpt lat="41.511227" lon="-8.772113">
        <ele>17.407</ele>
        <time>2019-04-28T13:10:38Z</time>
      </trkpt>
      <trkpt lat="41.511242" lon="-8.772132">
        <ele>17.908</ele>
        <time>2019-04-28T13:10:56Z</time>
      </trkpt>
      <trkpt lat="41.511236" lon="-8.772153">
        <ele>15.536</ele>
        <time>2019-04-28T13:11:08Z</time>
      </trkpt>
      <trkpt lat="41.511235" lon="-8.772148">
        <ele>15.079</ele>
        <time>2019-04-28T13:11:22Z</time>
      </trkpt>
      <trkpt lat="41.511107" lon="-8.771917">
        <ele>14.035</ele>
        <time>2019-04-28T13:11:31Z</time>
      </trkpt>
      <trkpt lat="41.510807" lon="-8.770753">
        <ele>9.763</ele>
        <time>2019-04-28T13:11:46Z</time>
      </trkpt>
      <trkpt lat="41.510662" lon="-8.770059">
        <ele>8.391</ele>
        <time>2019-04-28T13:11:58Z</time>
      </trkpt>
      <trkpt lat="41.510558" lon="-8.769458">
        <ele>7.343</ele>
        <time>2019-04-28T13:12:12Z</time>
      </trkpt>
      <trkpt lat="41.510432" lon="-8.768707">
        <ele>6.843</ele>
        <time>2019-04-28T13:12:25Z</time>
      </trkpt>
      <trkpt lat="41.510327" lon="-8.768270">
        <ele>7.327</ele>
        <time>2019-04-28T13:12:32Z</time>
      </trkpt>
      <trkpt lat="41.510200" lon="-8.768018">
        <ele>8.315</ele>
        <time>2019-04-28T13:12:41Z</time>
      </trkpt>
      <trkpt lat="41.510329" lon="-8.768015">
        <ele>9.765</ele>
        <time>2019-04-28T13:12:48Z</time>
      </trkpt>
      <trkpt lat="41.510358" lon="-8.768044">
        <ele>9.711</ele>
        <time>2019-04-28T13:12:49Z</time>
      </trkpt>
      <trkpt lat="41.510728" lon="-8.768406">
        <ele>9.208</ele>
        <time>2019-04-28T13:13:03Z</time>
      </trkpt>
      <trkpt lat="41.510839" lon="-8.768549">
        <ele>3.974</ele>
        <time>2019-04-28T13:13:12Z</time>
      </trkpt>
      <trkpt lat="41.510825" lon="-8.768574">
        <ele>1.547</ele>
        <time>2019-04-28T13:13:14Z</time>
      </trkpt>
      <trkpt lat="41.510865" lon="-8.768646">
        <ele>1.123</ele>
        <time>2019-04-28T13:13:24Z</time>
      </trkpt>
      <trkpt lat="41.510884" lon="-8.768664">
        <ele>5.971</ele>
        <time>2019-04-28T13:13:33Z</time>
      </trkpt>
      <trkpt lat="41.510898" lon="-8.768701">
        <ele>5.969</ele>
        <time>2019-04-28T13:13:47Z</time>
      </trkpt>
      <trkpt lat="41.510906" lon="-8.768696">
        <ele>6.321</ele>
        <time>2019-04-28T13:13:51Z</time>
      </trkpt>
      <trkpt lat="41.511035" lon="-8.768798">
        <ele>-0.461</ele>
        <time>2019-04-28T14:33:33Z</time>
      </trkpt>
      <trkpt lat="41.511089" lon="-8.768820">
        <ele>-13.885</ele>
        <time>2019-04-28T14:33:51Z</time>
      </trkpt>
      <trkpt lat="41.511071" lon="-8.768844">
        <ele>-22.068</ele>
        <time>2019-04-28T14:34:20Z</time>
      </trkpt>
      <trkpt lat="41.511088" lon="-8.768782">
        <ele>11.142</ele>
        <time>2019-04-28T14:34:43Z</time>
      </trkpt>
      <trkpt lat="41.511110" lon="-8.768765">
        <ele>12.626</ele>
        <time>2019-04-28T14:35:03Z</time>
      </trkpt>
      <trkpt lat="41.511133" lon="-8.768757">
        <ele>14.008</ele>
        <time>2019-04-28T14:35:26Z</time>
      </trkpt>
      <trkpt lat="41.511070" lon="-8.768754">
        <ele>12.199</ele>
        <time>2019-04-28T14:35:46Z</time>
      </trkpt>
      <trkpt lat="41.511023" lon="-8.768734">
        <ele>10.742</ele>
        <time>2019-04-28T14:35:52Z</time>
      </trkpt>
      <trkpt lat="41.511085" lon="-8.768724">
        <ele>10.798</ele>
        <time>2019-04-28T14:35:59Z</time>
      </trkpt>
      <trkpt lat="41.511149" lon="-8.768770">
        <ele>12.196</ele>
        <time>2019-04-28T14:36:12Z</time>
      </trkpt>
      <trkpt lat="41.511151" lon="-8.768772">
        <ele>12.144</ele>
        <time>2019-04-28T14:36:26Z</time>
      </trkpt>
      <trkpt lat="41.511204" lon="-8.768826">
        <ele>11.676</ele>
        <time>2019-04-28T14:36:39Z</time>
      </trkpt>
      <trkpt lat="41.511245" lon="-8.768892">
        <ele>9.736</ele>
        <time>2019-04-28T14:36:48Z</time>
      </trkpt>
      <trkpt lat="41.511414" lon="-8.769148">
        <ele>8.340</ele>
        <time>2019-04-28T14:37:02Z</time>
      </trkpt>
      <trkpt lat="41.511437" lon="-8.769063">
        <ele>7.849</ele>
        <time>2019-04-28T14:37:08Z</time>
      </trkpt>
      <trkpt lat="41.511403" lon="-8.768916">
        <ele>7.802</ele>
        <time>2019-04-28T14:37:14Z</time>
      </trkpt>
      <trkpt lat="41.511347" lon="-8.768853">
        <ele>8.722</ele>
        <time>2019-04-28T14:37:20Z</time>
      </trkpt>
      <trkpt lat="41.511393" lon="-8.768778">
        <ele>10.208</ele>
        <time>2019-04-28T14:37:27Z</time>
      </trkpt>
      <trkpt lat="41.511352" lon="-8.768819">
        <ele>10.777</ele>
        <time>2019-04-28T14:37:33Z</time>
      </trkpt>
      <trkpt lat="41.511288" lon="-8.768716">
        <ele>11.630</ele>
        <time>2019-04-28T14:37:40Z</time>
      </trkpt>
      <trkpt lat="41.511243" lon="-8.768637">
        <ele>12.636</ele>
        <time>2019-04-28T14:37:54Z</time>
      </trkpt>
      <trkpt lat="41.511253" lon="-8.768665">
        <ele>12.174</ele>
        <time>2019-04-28T14:38:05Z</time>
      </trkpt>
      <trkpt lat="41.511284" lon="-8.768688">
        <ele>11.662</ele>
        <time>2019-04-28T14:38:09Z</time>
      </trkpt>
      <trkpt lat="41.511385" lon="-8.768836">
        <ele>13.134</ele>
        <time>2019-04-28T14:38:22Z</time>
      </trkpt>
      <trkpt lat="41.511386" lon="-8.768849">
        <ele>12.614</ele>
        <time>2019-04-28T14:38:23Z</time>
      </trkpt>
      <trkpt lat="41.511417" lon="-8.768939">
        <ele>12.118</ele>
        <time>2019-04-28T14:38:27Z</time>
      </trkpt>
      <trkpt lat="41.511496" lon="-8.769081">
        <ele>12.196</ele>
        <time>2019-04-28T14:38:36Z</time>
      </trkpt>
      <trkpt lat="41.511483" lon="-8.769103">
        <ele>11.631</ele>
        <time>2019-04-28T14:38:38Z</time>
      </trkpt>
      <trkpt lat="41.511448" lon="-8.769145">
        <ele>10.724</ele>
        <time>2019-04-28T14:38:50Z</time>
      </trkpt>
      <trkpt lat="41.511431" lon="-8.769183">
        <ele>9.208</ele>
        <time>2019-04-28T14:39:04Z</time>
      </trkpt>
      <trkpt lat="41.511578" lon="-8.769362">
        <ele>10.212</ele>
        <time>2019-04-28T14:39:16Z</time>
      </trkpt>
      <trkpt lat="41.511595" lon="-8.769389">
        <ele>10.295</ele>
        <time>2019-04-28T14:39:17Z</time>
      </trkpt>
      <trkpt lat="41.511655" lon="-8.769492">
        <ele>10.261</ele>
        <time>2019-04-28T14:39:22Z</time>
      </trkpt>
      <trkpt lat="41.511863" lon="-8.769850">
        <ele>7.899</ele>
        <time>2019-04-28T14:39:35Z</time>
      </trkpt>
      <trkpt lat="41.512063" lon="-8.770161">
        <ele>7.897</ele>
        <time>2019-04-28T14:39:47Z</time>
      </trkpt>
      <trkpt lat="41.512309" lon="-8.770441">
        <ele>9.769</ele>
        <time>2019-04-28T14:40:01Z</time>
      </trkpt>
      <trkpt lat="41.512545" lon="-8.770713">
        <ele>10.799</ele>
        <time>2019-04-28T14:40:12Z</time>
      </trkpt>
      <trkpt lat="41.512740" lon="-8.771044">
        <ele>9.733</ele>
        <time>2019-04-28T14:40:23Z</time>
      </trkpt>
      <trkpt lat="41.513036" lon="-8.771320">
        <ele>9.282</ele>
        <time>2019-04-28T14:40:36Z</time>
      </trkpt>
      <trkpt lat="41.513282" lon="-8.771519">
        <ele>8.743</ele>
        <time>2019-04-28T14:40:48Z</time>
      </trkpt>
      <trkpt lat="41.513562" lon="-8.771722">
        <ele>11.617</ele>
        <time>2019-04-28T14:40:59Z</time>
      </trkpt>
      <trkpt lat="41.513897" lon="-8.771799">
        <ele>13.608</ele>
        <time>2019-04-28T14:41:10Z</time>
      </trkpt>
      <trkpt lat="41.514112" lon="-8.771854">
        <ele>13.681</ele>
        <time>2019-04-28T14:41:24Z</time>
      </trkpt>
      <trkpt lat="41.514235" lon="-8.771762">
        <ele>13.114</ele>
        <time>2019-04-28T14:41:30Z</time>
      </trkpt>
      <trkpt lat="41.514439" lon="-8.772166">
        <ele>9.270</ele>
        <time>2019-04-28T14:41:42Z</time>
      </trkpt>
      <trkpt lat="41.514643" lon="-8.772634">
        <ele>8.378</ele>
        <time>2019-04-28T14:41:57Z</time>
      </trkpt>
      <trkpt lat="41.514658" lon="-8.772682">
        <ele>8.326</ele>
        <time>2019-04-28T14:42:07Z</time>
      </trkpt>
      <trkpt lat="41.514658" lon="-8.772693">
        <ele>7.898</ele>
        <time>2019-04-28T14:42:30Z</time>
      </trkpt>
      <trkpt lat="41.514669" lon="-8.772753">
        <ele>7.868</ele>
        <time>2019-04-28T14:42:55Z</time>
      </trkpt>
      <trkpt lat="41.514703" lon="-8.772752">
        <ele>8.372</ele>
        <time>2019-04-28T14:43:06Z</time>
      </trkpt>
      <trkpt lat="41.514680" lon="-8.772794">
        <ele>10.763</ele>
        <time>2019-04-28T14:43:20Z</time>
      </trkpt>
      <trkpt lat="41.514690" lon="-8.772802">
        <ele>10.744</ele>
        <time>2019-04-28T14:43:38Z</time>
      </trkpt>
      <trkpt lat="41.514695" lon="-8.772802">
        <ele>10.218</ele>
        <time>2019-04-28T14:43:43Z</time>
      </trkpt>
      <trkpt lat="41.515074" lon="-8.772495">
        <ele>10.208</ele>
        <time>2019-04-28T14:43:53Z</time>
      </trkpt>
      <trkpt lat="41.515965" lon="-8.771762">
        <ele>9.249</ele>
        <time>2019-04-28T14:44:08Z</time>
      </trkpt>
      <trkpt lat="41.516976" lon="-8.770906">
        <ele>9.762</ele>
        <time>2019-04-28T14:44:27Z</time>
      </trkpt>
      <trkpt lat="41.517118" lon="-8.770767">
        <ele>10.268</ele>
        <time>2019-04-28T14:44:36Z</time>
      </trkpt>
      <trkpt lat="41.517119" lon="-8.770765">
        <ele>10.266</ele>
        <time>2019-04-28T14:44:59Z</time>
      </trkpt>
      <trkpt lat="41.517243" lon="-8.770653">
        <ele>10.254</ele>
        <time>2019-04-28T14:45:08Z</time>
      </trkpt>
      <trkpt lat="41.517353" lon="-8.770576">
        <ele>9.786</ele>
        <time>2019-04-28T14:45:18Z</time>
      </trkpt>
      <trkpt lat="41.517364" lon="-8.770565">
        <ele>10.786</ele>
        <time>2019-04-28T14:45:36Z</time>
      </trkpt>
      <trkpt lat="41.517370" lon="-8.770560">
        <ele>11.110</ele>
        <time>2019-04-28T14:45:51Z</time>
      </trkpt>
      <trkpt lat="41.517316" lon="-8.770693">
        <ele>11.151</ele>
        <time>2019-04-28T14:45:58Z</time>
      </trkpt>
      <trkpt lat="41.517175" lon="-8.770817">
        <ele>12.101</ele>
        <time>2019-04-28T14:46:08Z</time>
      </trkpt>
      <trkpt lat="41.517029" lon="-8.770983">
        <ele>11.611</ele>
        <time>2019-04-28T14:46:18Z</time>
      </trkpt>
      <trkpt lat="41.517030" lon="-8.770981">
        <ele>11.608</ele>
        <time>2019-04-28T14:46:19Z</time>
      </trkpt>
      <trkpt lat="41.517105" lon="-8.770950">
        <ele>11.668</ele>
        <time>2019-04-28T14:46:23Z</time>
      </trkpt>
      <trkpt lat="41.517456" lon="-8.771028">
        <ele>10.761</ele>
        <time>2019-04-28T14:46:33Z</time>
      </trkpt>
      <trkpt lat="41.518082" lon="-8.771655">
        <ele>9.787</ele>
        <time>2019-04-28T14:46:50Z</time>
      </trkpt>
      <trkpt lat="41.518619" lon="-8.772256">
        <ele>8.775</ele>
        <time>2019-04-28T14:47:06Z</time>
      </trkpt>
      <trkpt lat="41.518940" lon="-8.772612">
        <ele>7.843</ele>
        <time>2019-04-28T14:47:21Z</time>
      </trkpt>
      <trkpt lat="41.519322" lon="-8.773004">
        <ele>7.835</ele>
        <time>2019-04-28T14:47:36Z</time>
      </trkpt>
      <trkpt lat="41.519901" lon="-8.773642">
        <ele>6.895</ele>
        <time>2019-04-28T14:47:56Z</time>
      </trkpt>
      <trkpt lat="41.520260" lon="-8.774088">
        <ele>6.879</ele>
        <time>2019-04-28T14:48:10Z</time>
      </trkpt>
      <trkpt lat="41.520705" lon="-8.774396">
        <ele>7.362</ele>
        <time>2019-04-28T14:48:24Z</time>
      </trkpt>
      <trkpt lat="41.521111" lon="-8.774601">
        <ele>7.383</ele>
        <time>2019-04-28T14:48:40Z</time>
      </trkpt>
      <trkpt lat="41.521234" lon="-8.774660">
        <ele>7.311</ele>
        <time>2019-04-28T14:48:47Z</time>
      </trkpt>
      <trkpt lat="41.521339" lon="-8.774706">
        <ele>7.808</ele>
        <time>2019-04-28T14:48:59Z</time>
      </trkpt>
      <trkpt lat="41.521341" lon="-8.774704">
        <ele>7.329</ele>
        <time>2019-04-28T14:49:05Z</time>
      </trkpt>
      <trkpt lat="41.521388" lon="-8.774676">
        <ele>7.382</ele>
        <time>2019-04-28T14:49:08Z</time>
      </trkpt>
      <trkpt lat="41.521542" lon="-8.774701">
        <ele>7.898</ele>
        <time>2019-04-28T14:49:12Z</time>
      </trkpt>
      <trkpt lat="41.522051" lon="-8.774944">
        <ele>6.876</ele>
        <time>2019-04-28T14:49:24Z</time>
      </trkpt>
      <trkpt lat="41.522476" lon="-8.775164">
        <ele>6.854</ele>
        <time>2019-04-28T14:49:35Z</time>
      </trkpt>
      <trkpt lat="41.523222" lon="-8.775543">
        <ele>7.816</ele>
        <time>2019-04-28T14:49:55Z</time>
      </trkpt>
      <trkpt lat="41.523886" lon="-8.775883">
        <ele>7.876</ele>
        <time>2019-04-28T14:50:13Z</time>
      </trkpt>
      <trkpt lat="41.524511" lon="-8.776175">
        <ele>7.890</ele>
        <time>2019-04-28T14:50:30Z</time>
      </trkpt>
      <trkpt lat="41.525105" lon="-8.776359">
        <ele>9.283</ele>
        <time>2019-04-28T14:50:47Z</time>
      </trkpt>
      <trkpt lat="41.525177" lon="-8.776380">
        <ele>9.225</ele>
        <time>2019-04-28T14:50:50Z</time>
      </trkpt>
      <trkpt lat="41.525189" lon="-8.776440">
        <ele>9.217</ele>
        <time>2019-04-28T14:50:59Z</time>
      </trkpt>
      <trkpt lat="41.525190" lon="-8.776516">
        <ele>9.208</ele>
        <time>2019-04-28T14:51:03Z</time>
      </trkpt>
      <trkpt lat="41.525163" lon="-8.776633">
        <ele>8.371</ele>
        <time>2019-04-28T14:51:06Z</time>
      </trkpt>
      <trkpt lat="41.525255" lon="-8.776828">
        <ele>8.794</ele>
        <time>2019-04-28T14:51:11Z</time>
      </trkpt>
      <trkpt lat="41.525630" lon="-8.777337">
        <ele>8.390</ele>
        <time>2019-04-28T14:51:25Z</time>
      </trkpt>
      <trkpt lat="41.525763" lon="-8.777525">
        <ele>8.378</ele>
        <time>2019-04-28T14:51:30Z</time>
      </trkpt>
      <trkpt lat="41.526116" lon="-8.777976">
        <ele>8.376</ele>
        <time>2019-04-28T14:51:44Z</time>
      </trkpt>
      <trkpt lat="41.526296" lon="-8.778215">
        <ele>5.428</ele>
        <time>2019-04-28T14:51:55Z</time>
      </trkpt>
      <trkpt lat="41.526474" lon="-8.778469">
        <ele>4.458</ele>
        <time>2019-04-28T14:52:07Z</time>
      </trkpt>
      <trkpt lat="41.526658" lon="-8.778689">
        <ele>3.972</ele>
        <time>2019-04-28T14:52:18Z</time>
      </trkpt>
      <trkpt lat="41.526953" lon="-8.779092">
        <ele>3.999</ele>
        <time>2019-04-28T14:52:31Z</time>
      </trkpt>
      <trkpt lat="41.527406" lon="-8.779706">
        <ele>6.307</ele>
        <time>2019-04-28T14:52:49Z</time>
      </trkpt>
      <trkpt lat="41.527820" lon="-8.780261">
        <ele>7.327</ele>
        <time>2019-04-28T14:53:05Z</time>
      </trkpt>
      <trkpt lat="41.528254" lon="-8.780833">
        <ele>7.308</ele>
        <time>2019-04-28T14:53:22Z</time>
      </trkpt>
      <trkpt lat="41.528622" lon="-8.781253">
        <ele>7.842</ele>
        <time>2019-04-28T14:53:36Z</time>
      </trkpt>
      <trkpt lat="41.529135" lon="-8.781705">
        <ele>7.325</ele>
        <time>2019-04-28T14:53:53Z</time>
      </trkpt>
      <trkpt lat="41.529575" lon="-8.782007">
        <ele>6.311</ele>
        <time>2019-04-28T14:54:08Z</time>
      </trkpt>
      <trkpt lat="41.530018" lon="-8.782239">
        <ele>4.989</ele>
        <time>2019-04-28T14:54:22Z</time>
      </trkpt>
      <trkpt lat="41.530493" lon="-8.782451">
        <ele>3.997</ele>
        <time>2019-04-28T14:54:37Z</time>
      </trkpt>
      <trkpt lat="41.530518" lon="-8.782449">
        <ele>4.429</ele>
        <time>2019-04-28T14:54:39Z</time>
      </trkpt>
      <trkpt lat="41.530613" lon="-8.782490">
        <ele>4.429</ele>
        <time>2019-04-28T14:54:43Z</time>
      </trkpt>
      <trkpt lat="41.531049" lon="-8.782679">
        <ele>7.373</ele>
        <time>2019-04-28T14:54:56Z</time>
      </trkpt>
      <trkpt lat="41.531588" lon="-8.782914">
        <ele>10.736</ele>
        <time>2019-04-28T14:55:11Z</time>
      </trkpt>
      <trkpt lat="41.531917" lon="-8.783051">
        <ele>12.117</ele>
        <time>2019-04-28T14:55:22Z</time>
      </trkpt>
      <trkpt lat="41.532251" lon="-8.783306">
        <ele>12.118</ele>
        <time>2019-04-28T14:55:34Z</time>
      </trkpt>
      <trkpt lat="41.532511" lon="-8.783369">
        <ele>10.708</ele>
        <time>2019-04-28T14:55:43Z</time>
      </trkpt>
      <trkpt lat="41.532703" lon="-8.783460">
        <ele>11.166</ele>
        <time>2019-04-28T14:55:49Z</time>
      </trkpt>
      <trkpt lat="41.533237" lon="-8.783697">
        <ele>8.719</ele>
        <time>2019-04-28T14:56:04Z</time>
      </trkpt>
      <trkpt lat="41.533798" lon="-8.783945">
        <ele>8.315</ele>
        <time>2019-04-28T14:56:19Z</time>
      </trkpt>
      <trkpt lat="41.534332" lon="-8.784194">
        <ele>8.333</ele>
        <time>2019-04-28T14:56:34Z</time>
      </trkpt>
      <trkpt lat="41.534914" lon="-8.784454">
        <ele>6.841</ele>
        <time>2019-04-28T14:56:51Z</time>
      </trkpt>
      <trkpt lat="41.535437" lon="-8.784697">
        <ele>7.893</ele>
        <time>2019-04-28T14:57:06Z</time>
      </trkpt>
      <trkpt lat="41.535755" lon="-8.784790">
        <ele>7.353</ele>
        <time>2019-04-28T14:57:17Z</time>
      </trkpt>
      <trkpt lat="41.536224" lon="-8.784977">
        <ele>7.817</ele>
        <time>2019-04-28T14:57:31Z</time>
      </trkpt>
      <trkpt lat="41.536883" lon="-8.785285">
        <ele>6.846</ele>
        <time>2019-04-28T14:57:49Z</time>
      </trkpt>
      <trkpt lat="41.537428" lon="-8.785524">
        <ele>7.888</ele>
        <time>2019-04-28T14:58:04Z</time>
      </trkpt>
      <trkpt lat="41.538025" lon="-8.785799">
        <ele>6.816</ele>
        <time>2019-04-28T14:58:21Z</time>
      </trkpt>
      <trkpt lat="41.538554" lon="-8.786034">
        <ele>7.308</ele>
        <time>2019-04-28T14:58:36Z</time>
      </trkpt>
      <trkpt lat="41.539175" lon="-8.786313">
        <ele>7.347</ele>
        <time>2019-04-28T14:58:54Z</time>
      </trkpt>
      <trkpt lat="41.539626" lon="-8.786746">
        <ele>7.350</ele>
        <time>2019-04-28T14:59:09Z</time>
      </trkpt>
      <trkpt lat="41.540119" lon="-8.787209">
        <ele>6.826</ele>
        <time>2019-04-28T14:59:25Z</time>
      </trkpt>
      <trkpt lat="41.540683" lon="-8.787296">
        <ele>7.394</ele>
        <time>2019-04-28T14:59:40Z</time>
      </trkpt>
      <trkpt lat="41.541217" lon="-8.787562">
        <ele>7.392</ele>
        <time>2019-04-28T14:59:55Z</time>
      </trkpt>
      <trkpt lat="41.541725" lon="-8.787986">
        <ele>6.394</ele>
        <time>2019-04-28T15:00:11Z</time>
      </trkpt>
      <trkpt lat="41.542300" lon="-8.788468">
        <ele>6.374</ele>
        <time>2019-04-28T15:00:29Z</time>
      </trkpt>
      <trkpt lat="41.542653" lon="-8.788758">
        <ele>6.878</ele>
        <time>2019-04-28T15:00:40Z</time>
      </trkpt>
      <trkpt lat="41.542728" lon="-8.788800">
        <ele>7.367</ele>
        <time>2019-04-28T15:00:42Z</time>
      </trkpt>
      <trkpt lat="41.542857" lon="-8.788932">
        <ele>7.381</ele>
        <time>2019-04-28T15:00:46Z</time>
      </trkpt>
      <trkpt lat="41.543534" lon="-8.789493">
        <ele>6.819</ele>
        <time>2019-04-28T15:01:06Z</time>
      </trkpt>
      <trkpt lat="41.543899" lon="-8.789808">
        <ele>7.808</ele>
        <time>2019-04-28T15:01:18Z</time>
      </trkpt>
      <trkpt lat="41.544089" lon="-8.789983">
        <ele>8.329</ele>
        <time>2019-04-28T15:01:24Z</time>
      </trkpt>
      <trkpt lat="41.544111" lon="-8.790070">
        <ele>8.362</ele>
        <time>2019-04-28T15:01:27Z</time>
      </trkpt>
      <trkpt lat="41.544164" lon="-8.790115">
        <ele>7.878</ele>
        <time>2019-04-28T15:01:31Z</time>
      </trkpt>
      <trkpt lat="41.544512" lon="-8.790318">
        <ele>7.316</ele>
        <time>2019-04-28T15:01:43Z</time>
      </trkpt>
      <trkpt lat="41.544924" lon="-8.790655">
        <ele>8.354</ele>
        <time>2019-04-28T15:01:56Z</time>
      </trkpt>
      <trkpt lat="41.545523" lon="-8.791013">
        <ele>8.396</ele>
        <time>2019-04-28T15:02:14Z</time>
      </trkpt>
      <trkpt lat="41.546147" lon="-8.791085">
        <ele>9.796</ele>
        <time>2019-04-28T15:02:31Z</time>
      </trkpt>
      <trkpt lat="41.546743" lon="-8.790886">
        <ele>9.760</ele>
        <time>2019-04-28T15:02:48Z</time>
      </trkpt>
      <trkpt lat="41.546920" lon="-8.790809">
        <ele>10.262</ele>
        <time>2019-04-28T15:02:53Z</time>
      </trkpt>
      <trkpt lat="41.547228" lon="-8.790691">
        <ele>10.283</ele>
        <time>2019-04-28T15:03:01Z</time>
      </trkpt>
      <trkpt lat="41.547831" lon="-8.790458">
        <ele>11.611</ele>
        <time>2019-04-28T15:03:20Z</time>
      </trkpt>
      <trkpt lat="41.547854" lon="-8.790446">
        <ele>11.108</ele>
        <time>2019-04-28T15:03:31Z</time>
      </trkpt>
      <trkpt lat="41.547845" lon="-8.790445">
        <ele>11.149</ele>
        <time>2019-04-28T15:03:37Z</time>
      </trkpt>
      <trkpt lat="41.547771" lon="-8.790480">
        <ele>10.752</ele>
        <time>2019-04-28T15:03:51Z</time>
      </trkpt>
      <trkpt lat="41.547742" lon="-8.790473">
        <ele>11.198</ele>
        <time>2019-04-28T15:04:02Z</time>
      </trkpt>
      <trkpt lat="41.547743" lon="-8.790471">
        <ele>11.166</ele>
        <time>2019-04-28T15:04:05Z</time>
      </trkpt>
      <trkpt lat="41.547731" lon="-8.790507">
        <ele>10.784</ele>
        <time>2019-04-28T15:04:13Z</time>
      </trkpt>
      <trkpt lat="41.547778" lon="-8.790478">
        <ele>10.776</ele>
        <time>2019-04-28T15:04:15Z</time>
      </trkpt>
      <trkpt lat="41.548085" lon="-8.790354">
        <ele>10.216</ele>
        <time>2019-04-28T15:04:27Z</time>
      </trkpt>
      <trkpt lat="41.548432" lon="-8.790144">
        <ele>10.280</ele>
        <time>2019-04-28T15:04:40Z</time>
      </trkpt>
      <trkpt lat="41.548726" lon="-8.789890">
        <ele>9.276</ele>
        <time>2019-04-28T15:04:49Z</time>
      </trkpt>
      <trkpt lat="41.548875" lon="-8.789814">
        <ele>9.790</ele>
        <time>2019-04-28T15:04:53Z</time>
      </trkpt>
      <trkpt lat="41.549169" lon="-8.789851">
        <ele>10.219</ele>
        <time>2019-04-28T15:05:00Z</time>
      </trkpt>
      <trkpt lat="41.549452" lon="-8.789965">
        <ele>9.708</ele>
        <time>2019-04-28T15:05:07Z</time>
      </trkpt>
      <trkpt lat="41.549817" lon="-8.790114">
        <ele>9.250</ele>
        <time>2019-04-28T15:05:16Z</time>
      </trkpt>
      <trkpt lat="41.550078" lon="-8.790226">
        <ele>7.873</ele>
        <time>2019-04-28T15:05:23Z</time>
      </trkpt>
      <trkpt lat="41.550211" lon="-8.790488">
        <ele>6.869</ele>
        <time>2019-04-28T15:05:30Z</time>
      </trkpt>
      <trkpt lat="41.550250" lon="-8.790502">
        <ele>6.827</ele>
        <time>2019-04-28T15:05:31Z</time>
      </trkpt>
      <trkpt lat="41.550813" lon="-8.790640">
        <ele>7.325</ele>
        <time>2019-04-28T15:05:46Z</time>
      </trkpt>
      <trkpt lat="41.550872" lon="-8.790799">
        <ele>7.857</ele>
        <time>2019-04-28T15:05:50Z</time>
      </trkpt>
      <trkpt lat="41.551176" lon="-8.790958">
        <ele>8.767</ele>
        <time>2019-04-28T15:06:02Z</time>
      </trkpt>
      <trkpt lat="41.551474" lon="-8.791081">
        <ele>9.241</ele>
        <time>2019-04-28T15:06:15Z</time>
      </trkpt>
      <trkpt lat="41.551803" lon="-8.791207">
        <ele>9.788</ele>
        <time>2019-04-28T15:06:26Z</time>
      </trkpt>
      <trkpt lat="41.552400" lon="-8.791436">
        <ele>10.224</ele>
        <time>2019-04-28T15:06:43Z</time>
      </trkpt>
      <trkpt lat="41.552940" lon="-8.791727">
        <ele>11.126</ele>
        <time>2019-04-28T15:07:00Z</time>
      </trkpt>
      <trkpt lat="41.553346" lon="-8.791980">
        <ele>10.208</ele>
        <time>2019-04-28T15:07:12Z</time>
      </trkpt>
      <trkpt lat="41.553493" lon="-8.792057">
        <ele>9.211</ele>
        <time>2019-04-28T15:07:16Z</time>
      </trkpt>
      <trkpt lat="41.554123" lon="-8.792268">
        <ele>11.194</ele>
        <time>2019-04-28T15:07:32Z</time>
      </trkpt>
      <trkpt lat="41.554445" lon="-8.792318">
        <ele>11.120</ele>
        <time>2019-04-28T15:07:42Z</time>
      </trkpt>
      <trkpt lat="41.554712" lon="-8.792399">
        <ele>10.748</ele>
        <time>2019-04-28T15:07:54Z</time>
      </trkpt>
      <trkpt lat="41.555127" lon="-8.792728">
        <ele>10.246</ele>
        <time>2019-04-28T15:08:09Z</time>
      </trkpt>
      <trkpt lat="41.555678" lon="-8.793264">
        <ele>10.248</ele>
        <time>2019-04-28T15:08:28Z</time>
      </trkpt>
      <trkpt lat="41.556125" lon="-8.793489">
        <ele>12.168</ele>
        <time>2019-04-28T15:08:42Z</time>
      </trkpt>
      <trkpt lat="41.556687" lon="-8.793485">
        <ele>11.642</ele>
        <time>2019-04-28T15:08:59Z</time>
      </trkpt>
      <trkpt lat="41.556841" lon="-8.792834">
        <ele>9.295</ele>
        <time>2019-04-28T15:09:10Z</time>
      </trkpt>
      <trkpt lat="41.556889" lon="-8.792620">
        <ele>9.249</ele>
        <time>2019-04-28T15:09:13Z</time>
      </trkpt>
      <trkpt lat="41.557051" lon="-8.792512">
        <ele>9.223</ele>
        <time>2019-04-28T15:09:17Z</time>
      </trkpt>
      <trkpt lat="41.557871" lon="-8.792817">
        <ele>9.208</ele>
        <time>2019-04-28T15:09:37Z</time>
      </trkpt>
      <trkpt lat="41.558475" lon="-8.793076">
        <ele>11.142</ele>
        <time>2019-04-28T15:09:52Z</time>
      </trkpt>
      <trkpt lat="41.558939" lon="-8.793528">
        <ele>11.695</ele>
        <time>2019-04-28T15:10:06Z</time>
      </trkpt>
      <trkpt lat="41.559133" lon="-8.793561">
        <ele>10.741</ele>
        <time>2019-04-28T15:10:11Z</time>
      </trkpt>
      <trkpt lat="41.559209" lon="-8.793529">
        <ele>10.799</ele>
        <time>2019-04-28T15:10:13Z</time>
      </trkpt>
      <trkpt lat="41.559389" lon="-8.793746">
        <ele>9.737</ele>
        <time>2019-04-28T15:10:20Z</time>
      </trkpt>
      <trkpt lat="41.559564" lon="-8.794246">
        <ele>9.289</ele>
        <time>2019-04-28T15:10:32Z</time>
      </trkpt>
      <trkpt lat="41.559784" lon="-8.794318">
        <ele>9.279</ele>
        <time>2019-04-28T15:10:41Z</time>
      </trkpt>
      <trkpt lat="41.560345" lon="-8.794464">
        <ele>9.263</ele>
        <time>2019-04-28T15:10:55Z</time>
      </trkpt>
      <trkpt lat="41.560872" lon="-8.794758">
        <ele>10.253</ele>
        <time>2019-04-28T15:11:09Z</time>
      </trkpt>
      <trkpt lat="41.560941" lon="-8.794821">
        <ele>10.204</ele>
        <time>2019-04-28T15:11:11Z</time>
      </trkpt>
      <trkpt lat="41.561231" lon="-8.794792">
        <ele>8.714</ele>
        <time>2019-04-28T15:11:18Z</time>
      </trkpt>
      <trkpt lat="41.561555" lon="-8.794462">
        <ele>7.308</ele>
        <time>2019-04-28T15:11:28Z</time>
      </trkpt>
      <trkpt lat="41.561897" lon="-8.794230">
        <ele>7.888</ele>
        <time>2019-04-28T15:11:36Z</time>
      </trkpt>
      <trkpt lat="41.562179" lon="-8.794097">
        <ele>7.391</ele>
        <time>2019-04-28T15:11:43Z</time>
      </trkpt>
      <trkpt lat="41.562433" lon="-8.794170">
        <ele>7.367</ele>
        <time>2019-04-28T15:11:49Z</time>
      </trkpt>
      <trkpt lat="41.562524" lon="-8.794341">
        <ele>6.815</ele>
        <time>2019-04-28T15:11:53Z</time>
      </trkpt>
      <trkpt lat="41.562539" lon="-8.794449">
        <ele>6.853</ele>
        <time>2019-04-28T15:11:55Z</time>
      </trkpt>
      <trkpt lat="41.562685" lon="-8.794613">
        <ele>7.865</ele>
        <time>2019-04-28T15:12:00Z</time>
      </trkpt>
      <trkpt lat="41.563235" lon="-8.794761">
        <ele>9.265</ele>
        <time>2019-04-28T15:12:14Z</time>
      </trkpt>
      <trkpt lat="41.563661" lon="-8.794858">
        <ele>9.799</ele>
        <time>2019-04-28T15:12:27Z</time>
      </trkpt>
      <trkpt lat="41.564321" lon="-8.795020">
        <ele>10.224</ele>
        <time>2019-04-28T15:12:43Z</time>
      </trkpt>
      <trkpt lat="41.564914" lon="-8.795231">
        <ele>9.204</ele>
        <time>2019-04-28T15:12:59Z</time>
      </trkpt>
      <trkpt lat="41.565355" lon="-8.795377">
        <ele>9.714</ele>
        <time>2019-04-28T15:13:12Z</time>
      </trkpt>
      <trkpt lat="41.565409" lon="-8.795071">
        <ele>8.708</ele>
        <time>2019-04-28T15:13:20Z</time>
      </trkpt>
      <trkpt lat="41.565541" lon="-8.794526">
        <ele>8.745</ele>
        <time>2019-04-28T15:13:31Z</time>
      </trkpt>
      <trkpt lat="41.565652" lon="-8.794141">
        <ele>8.328</ele>
        <time>2019-04-28T15:13:38Z</time>
      </trkpt>
      <trkpt lat="41.565651" lon="-8.793660">
        <ele>7.834</ele>
        <time>2019-04-28T15:13:47Z</time>
      </trkpt>
      <trkpt lat="41.565267" lon="-8.793062">
        <ele>7.882</ele>
        <time>2019-04-28T15:14:00Z</time>
      </trkpt>
      <trkpt lat="41.565218" lon="-8.792785">
        <ele>7.860</ele>
        <time>2019-04-28T15:14:05Z</time>
      </trkpt>
      <trkpt lat="41.565331" lon="-8.792344">
        <ele>7.822</ele>
        <time>2019-04-28T15:14:13Z</time>
      </trkpt>
      <trkpt lat="41.565402" lon="-8.791219">
        <ele>7.822</ele>
        <time>2019-04-28T15:14:33Z</time>
      </trkpt>
      <trkpt lat="41.565611" lon="-8.790538">
        <ele>8.386</ele>
        <time>2019-04-28T15:14:47Z</time>
      </trkpt>
      <trkpt lat="41.565634" lon="-8.790428">
        <ele>8.341</ele>
        <time>2019-04-28T15:14:49Z</time>
      </trkpt>
      <trkpt lat="41.565793" lon="-8.789395">
        <ele>9.781</ele>
        <time>2019-04-28T15:15:09Z</time>
      </trkpt>
      <trkpt lat="41.565856" lon="-8.788744">
        <ele>10.709</ele>
        <time>2019-04-28T15:15:22Z</time>
      </trkpt>
      <trkpt lat="41.565982" lon="-8.787855">
        <ele>12.608</ele>
        <time>2019-04-28T15:15:40Z</time>
      </trkpt>
      <trkpt lat="41.566027" lon="-8.787536">
        <ele>14.077</ele>
        <time>2019-04-28T15:15:49Z</time>
      </trkpt>
      <trkpt lat="41.566040" lon="-8.787473">
        <ele>14.090</ele>
        <time>2019-04-28T15:15:55Z</time>
      </trkpt>
      <trkpt lat="41.566064" lon="-8.787461">
        <ele>14.086</ele>
        <time>2019-04-28T15:15:58Z</time>
      </trkpt>
      <trkpt lat="41.566167" lon="-8.787477">
        <ele>14.534</ele>
        <time>2019-04-28T15:16:10Z</time>
      </trkpt>
      <trkpt lat="41.566424" lon="-8.787621">
        <ele>15.072</ele>
        <time>2019-04-28T15:16:20Z</time>
      </trkpt>
      <trkpt lat="41.567018" lon="-8.788003">
        <ele>15.514</ele>
        <time>2019-04-28T15:16:39Z</time>
      </trkpt>
      <trkpt lat="41.567784" lon="-8.788427">
        <ele>15.054</ele>
        <time>2019-04-28T15:17:00Z</time>
      </trkpt>
      <trkpt lat="41.568406" lon="-8.788610">
        <ele>16.028</ele>
        <time>2019-04-28T15:17:17Z</time>
      </trkpt>
      <trkpt lat="41.569155" lon="-8.788819">
        <ele>16.954</ele>
        <time>2019-04-28T15:17:37Z</time>
      </trkpt>
      <trkpt lat="41.569771" lon="-8.788975">
        <ele>17.456</ele>
        <time>2019-04-28T15:17:53Z</time>
      </trkpt>
      <trkpt lat="41.570330" lon="-8.789135">
        <ele>16.911</ele>
        <time>2019-04-28T15:18:08Z</time>
      </trkpt>
      <trkpt lat="41.571169" lon="-8.789362">
        <ele>16.408</ele>
        <time>2019-04-28T15:18:29Z</time>
      </trkpt>
      <trkpt lat="41.571886" lon="-8.789571">
        <ele>16.948</ele>
        <time>2019-04-28T15:18:47Z</time>
      </trkpt>
      <trkpt lat="41.572556" lon="-8.789777">
        <ele>17.461</ele>
        <time>2019-04-28T15:19:04Z</time>
      </trkpt>
      <trkpt lat="41.573416" lon="-8.790023">
        <ele>18.487</ele>
        <time>2019-04-28T15:19:25Z</time>
      </trkpt>
      <trkpt lat="41.574291" lon="-8.790251">
        <ele>18.895</ele>
        <time>2019-04-28T15:19:44Z</time>
      </trkpt>
      <trkpt lat="41.574754" lon="-8.790398">
        <ele>20.833</ele>
        <time>2019-04-28T15:19:54Z</time>
      </trkpt>
      <trkpt lat="41.575683" lon="-8.790634">
        <ele>22.765</ele>
        <time>2019-04-28T15:20:14Z</time>
      </trkpt>
      <trkpt lat="41.576572" lon="-8.790500">
        <ele>22.265</ele>
        <time>2019-04-28T15:20:33Z</time>
      </trkpt>
      <trkpt lat="41.577165" lon="-8.790391">
        <ele>22.719</ele>
        <time>2019-04-28T15:20:46Z</time>
      </trkpt>
      <trkpt lat="41.577559" lon="-8.790285">
        <ele>23.239</ele>
        <time>2019-04-28T15:20:58Z</time>
      </trkpt>
      <trkpt lat="41.577543" lon="-8.790295">
        <ele>22.201</ele>
        <time>2019-04-28T15:21:10Z</time>
      </trkpt>
      <trkpt lat="41.577540" lon="-8.790289">
        <ele>21.721</ele>
        <time>2019-04-28T15:21:28Z</time>
      </trkpt>
      <trkpt lat="41.577540" lon="-8.790290">
        <ele>21.708</ele>
        <time>2019-04-28T15:21:31Z</time>
      </trkpt>
      <trkpt lat="41.577478" lon="-8.790101">
        <ele>22.716</ele>
        <time>2019-04-28T15:21:40Z</time>
      </trkpt>
      <trkpt lat="41.577559" lon="-8.789358">
        <ele>22.799</ele>
        <time>2019-04-28T15:21:59Z</time>
      </trkpt>
      <trkpt lat="41.577561" lon="-8.789327">
        <ele>22.735</ele>
        <time>2019-04-28T15:22:00Z</time>
      </trkpt>
      <trkpt lat="41.577626" lon="-8.788826">
        <ele>23.613</ele>
        <time>2019-04-28T15:22:15Z</time>
      </trkpt>
      <trkpt lat="41.577662" lon="-8.788410">
        <ele>25.131</ele>
        <time>2019-04-28T15:22:28Z</time>
      </trkpt>
      <trkpt lat="41.577679" lon="-8.788243">
        <ele>26.543</ele>
        <time>2019-04-28T15:22:33Z</time>
      </trkpt>
      <trkpt lat="41.577689" lon="-8.787996">
        <ele>28.593</ele>
        <time>2019-04-28T15:22:41Z</time>
      </trkpt>
      <trkpt lat="41.577768" lon="-8.787623">
        <ele>31.897</ele>
        <time>2019-04-28T15:22:52Z</time>
      </trkpt>
      <trkpt lat="41.577835" lon="-8.787143">
        <ele>36.636</ele>
        <time>2019-04-28T15:23:05Z</time>
      </trkpt>
      <trkpt lat="41.577924" lon="-8.786535">
        <ele>37.617</ele>
        <time>2019-04-28T15:23:21Z</time>
      </trkpt>
      <trkpt lat="41.578018" lon="-8.785881">
        <ele>40.518</ele>
        <time>2019-04-28T15:23:39Z</time>
      </trkpt>
      <trkpt lat="41.578100" lon="-8.785290">
        <ele>42.908</ele>
        <time>2019-04-28T15:23:57Z</time>
      </trkpt>
      <trkpt lat="41.578155" lon="-8.785056">
        <ele>44.886</ele>
        <time>2019-04-28T15:24:06Z</time>
      </trkpt>
      <trkpt lat="41.578138" lon="-8.784950">
        <ele>45.869</ele>
        <time>2019-04-28T15:24:11Z</time>
      </trkpt>
      <trkpt lat="41.578135" lon="-8.784908">
        <ele>46.275</ele>
        <time>2019-04-28T15:24:13Z</time>
      </trkpt>
      <trkpt lat="41.578197" lon="-8.784902">
        <ele>46.773</ele>
        <time>2019-04-28T15:24:18Z</time>
      </trkpt>
      <trkpt lat="41.578276" lon="-8.785063">
        <ele>47.271</ele>
        <time>2019-04-28T15:24:25Z</time>
      </trkpt>
      <trkpt lat="41.578325" lon="-8.785098">
        <ele>46.243</ele>
        <time>2019-04-28T15:24:36Z</time>
      </trkpt>
      <trkpt lat="41.578340" lon="-8.785107">
        <ele>46.773</ele>
        <time>2019-04-28T15:24:48Z</time>
      </trkpt>
      <trkpt lat="41.578342" lon="-8.785121">
        <ele>46.717</ele>
        <time>2019-04-28T15:25:15Z</time>
      </trkpt>
      <trkpt lat="41.578342" lon="-8.785116">
        <ele>47.735</ele>
        <time>2019-04-28T15:25:43Z</time>
      </trkpt>
      <trkpt lat="41.578343" lon="-8.785116">
        <ele>47.786</ele>
        <time>2019-04-28T15:25:44Z</time>
      </trkpt>
      <trkpt lat="41.578292" lon="-8.785043">
        <ele>47.714</ele>
        <time>2019-04-28T15:25:52Z</time>
      </trkpt>
      <trkpt lat="41.578326" lon="-8.785049">
        <ele>48.608</ele>
        <time>2019-04-28T15:26:04Z</time>
      </trkpt>
      <trkpt lat="41.578325" lon="-8.785043">
        <ele>49.156</ele>
        <time>2019-04-28T15:26:25Z</time>
      </trkpt>
      <trkpt lat="41.578390" lon="-8.785100">
        <ele>49.199</ele>
        <time>2019-04-28T15:26:32Z</time>
      </trkpt>
      <trkpt lat="41.578742" lon="-8.785188">
        <ele>49.185</ele>
        <time>2019-04-28T15:26:46Z</time>
      </trkpt>
      <trkpt lat="41.579074" lon="-8.785243">
        <ele>50.113</ele>
        <time>2019-04-28T15:26:58Z</time>
      </trkpt>
      <trkpt lat="41.579438" lon="-8.785304">
        <ele>50.641</ele>
        <time>2019-04-28T15:27:10Z</time>
      </trkpt>
      <trkpt lat="41.579958" lon="-8.785504">
        <ele>53.433</ele>
        <time>2019-04-28T15:27:27Z</time>
      </trkpt>
      <trkpt lat="41.580400" lon="-8.785678">
        <ele>53.043</ele>
        <time>2019-04-28T15:27:40Z</time>
      </trkpt>
      <trkpt lat="41.580506" lon="-8.785600">
        <ele>49.627</ele>
        <time>2019-04-28T15:27:45Z</time>
      </trkpt>
      <trkpt lat="41.580816" lon="-8.785402">
        <ele>46.226</ele>
        <time>2019-04-28T15:27:52Z</time>
      </trkpt>
      <trkpt lat="41.581051" lon="-8.785419">
        <ele>43.847</ele>
        <time>2019-04-28T15:27:56Z</time>
      </trkpt>
      <trkpt lat="41.581145" lon="-8.785496">
        <ele>42.911</ele>
        <time>2019-04-28T15:27:58Z</time>
      </trkpt>
      <trkpt lat="41.581320" lon="-8.785626">
        <ele>41.408</ele>
        <time>2019-04-28T15:28:02Z</time>
      </trkpt>
      <trkpt lat="41.581437" lon="-8.785693">
        <ele>40.565</ele>
        <time>2019-04-28T15:28:05Z</time>
      </trkpt>
      <trkpt lat="41.581971" lon="-8.786019">
        <ele>40.518</ele>
        <time>2019-04-28T15:28:20Z</time>
      </trkpt>
      <trkpt lat="41.582323" lon="-8.786166">
        <ele>41.434</ele>
        <time>2019-04-28T15:28:29Z</time>
      </trkpt>
      <trkpt lat="41.582456" lon="-8.786284">
        <ele>41.482</ele>
        <time>2019-04-28T15:28:33Z</time>
      </trkpt>
      <trkpt lat="41.582677" lon="-8.786707">
        <ele>41.490</ele>
        <time>2019-04-28T15:28:46Z</time>
      </trkpt>
      <trkpt lat="41.582682" lon="-8.786735">
        <ele>41.482</ele>
        <time>2019-04-28T15:28:47Z</time>
      </trkpt>
      <trkpt lat="41.582757" lon="-8.786961">
        <ele>41.412</ele>
        <time>2019-04-28T15:28:56Z</time>
      </trkpt>
      <trkpt lat="41.582824" lon="-8.786998">
        <ele>42.476</ele>
        <time>2019-04-28T15:29:00Z</time>
      </trkpt>
      <trkpt lat="41.583051" lon="-8.786865">
        <ele>44.343</ele>
        <time>2019-04-28T15:29:11Z</time>
      </trkpt>
      <trkpt lat="41.583104" lon="-8.786808">
        <ele>45.364</ele>
        <time>2019-04-28T15:29:21Z</time>
      </trkpt>
      <trkpt lat="41.583085" lon="-8.786803">
        <ele>46.210</ele>
        <time>2019-04-28T15:29:44Z</time>
      </trkpt>
      <trkpt lat="41.583102" lon="-8.786812">
        <ele>46.708</ele>
        <time>2019-04-28T15:30:15Z</time>
      </trkpt>
      <trkpt lat="41.583097" lon="-8.786798">
        <ele>47.787</ele>
        <time>2019-04-28T15:30:49Z</time>
      </trkpt>
      <trkpt lat="41.583101" lon="-8.786808">
        <ele>47.230</ele>
        <time>2019-04-28T15:31:26Z</time>
      </trkpt>
      <trkpt lat="41.583107" lon="-8.786812">
        <ele>47.786</ele>
        <time>2019-04-28T15:31:33Z</time>
      </trkpt>
      <trkpt lat="41.583160" lon="-8.786802">
        <ele>48.294</ele>
        <time>2019-04-28T15:31:37Z</time>
      </trkpt>
      <trkpt lat="41.583503" lon="-8.786668">
        <ele>51.032</ele>
        <time>2019-04-28T15:31:51Z</time>
      </trkpt>
      <trkpt lat="41.583871" lon="-8.786650">
        <ele>48.614</ele>
        <time>2019-04-28T15:32:02Z</time>
      </trkpt>
      <trkpt lat="41.584118" lon="-8.786541">
        <ele>47.724</ele>
        <time>2019-04-28T15:32:14Z</time>
      </trkpt>
      <trkpt lat="41.584199" lon="-8.786460">
        <ele>47.748</ele>
        <time>2019-04-28T15:32:20Z</time>
      </trkpt>
      <trkpt lat="41.584243" lon="-8.786415">
        <ele>46.283</ele>
        <time>2019-04-28T15:32:34Z</time>
      </trkpt>
      <trkpt lat="41.584284" lon="-8.786321">
        <ele>46.225</ele>
        <time>2019-04-28T15:33:01Z</time>
      </trkpt>
      <trkpt lat="41.584350" lon="-8.785983">
        <ele>47.717</ele>
        <time>2019-04-28T15:33:13Z</time>
      </trkpt>
      <trkpt lat="41.584509" lon="-8.785788">
        <ele>48.208</ele>
        <time>2019-04-28T15:33:22Z</time>
      </trkpt>
      <trkpt lat="41.584801" lon="-8.785593">
        <ele>48.681</ele>
        <time>2019-04-28T15:33:37Z</time>
      </trkpt>
      <trkpt lat="41.585144" lon="-8.785406">
        <ele>49.654</ele>
        <time>2019-04-28T15:33:48Z</time>
      </trkpt>
      <trkpt lat="41.585492" lon="-8.785103">
        <ele>48.630</ele>
        <time>2019-04-28T15:34:00Z</time>
      </trkpt>
      <trkpt lat="41.585518" lon="-8.785061">
        <ele>48.218</ele>
        <time>2019-04-28T15:34:01Z</time>
      </trkpt>
      <trkpt lat="41.585587" lon="-8.784973">
        <ele>47.266</ele>
        <time>2019-04-28T15:34:03Z</time>
      </trkpt>
      <trkpt lat="41.585748" lon="-8.784828">
        <ele>47.798</ele>
        <time>2019-04-28T15:34:08Z</time>
      </trkpt>
      <trkpt lat="41.585763" lon="-8.784787">
        <ele>47.288</ele>
        <time>2019-04-28T15:34:17Z</time>
      </trkpt>
      <trkpt lat="41.585782" lon="-8.784795">
        <ele>47.282</ele>
        <time>2019-04-28T15:34:19Z</time>
      </trkpt>
      <trkpt lat="41.586278" lon="-8.784627">
        <ele>45.336</ele>
        <time>2019-04-28T15:34:31Z</time>
      </trkpt>
      <trkpt lat="41.587051" lon="-8.784400">
        <ele>42.917</ele>
        <time>2019-04-28T15:34:46Z</time>
      </trkpt>
      <trkpt lat="41.587472" lon="-8.784265">
        <ele>41.918</ele>
        <time>2019-04-28T15:34:57Z</time>
      </trkpt>
      <trkpt lat="41.587757" lon="-8.784052">
        <ele>41.408</ele>
        <time>2019-04-28T15:35:06Z</time>
      </trkpt>
      <trkpt lat="41.587908" lon="-8.783944">
        <ele>40.916</ele>
        <time>2019-04-28T15:35:10Z</time>
      </trkpt>
      <trkpt lat="41.588163" lon="-8.783867">
        <ele>40.969</ele>
        <time>2019-04-28T15:35:16Z</time>
      </trkpt>
      <trkpt lat="41.588528" lon="-8.783660">
        <ele>42.425</ele>
        <time>2019-04-28T15:35:28Z</time>
      </trkpt>
      <trkpt lat="41.588661" lon="-8.783664">
        <ele>46.753</ele>
        <time>2019-04-28T15:35:38Z</time>
      </trkpt>
      <trkpt lat="41.588605" lon="-8.783700">
        <ele>47.721</ele>
        <time>2019-04-28T15:35:49Z</time>
      </trkpt>
      <trkpt lat="41.588607" lon="-8.783736">
        <ele>49.653</ele>
        <time>2019-04-28T15:36:09Z</time>
      </trkpt>
      <trkpt lat="41.588590" lon="-8.783733">
        <ele>50.113</ele>
        <time>2019-04-28T15:36:17Z</time>
      </trkpt>
      <trkpt lat="41.588605" lon="-8.783693">
        <ele>50.147</ele>
        <time>2019-04-28T15:36:22Z</time>
      </trkpt>
      <trkpt lat="41.588797" lon="-8.783699">
        <ele>47.279</ele>
        <time>2019-04-28T15:36:31Z</time>
      </trkpt>
      <trkpt lat="41.589236" lon="-8.783709">
        <ele>47.705</ele>
        <time>2019-04-28T15:36:45Z</time>
      </trkpt>
      <trkpt lat="41.589756" lon="-8.783649">
        <ele>47.725</ele>
        <time>2019-04-28T15:37:01Z</time>
      </trkpt>
      <trkpt lat="41.590233" lon="-8.783603">
        <ele>51.508</ele>
        <time>2019-04-28T15:37:17Z</time>
      </trkpt>
      <trkpt lat="41.590588" lon="-8.783533">
        <ele>53.930</ele>
        <time>2019-04-28T15:37:29Z</time>
      </trkpt>
      <trkpt lat="41.591036" lon="-8.783493">
        <ele>55.463</ele>
        <time>2019-04-28T15:37:44Z</time>
      </trkpt>
      <trkpt lat="41.591436" lon="-8.783479">
        <ele>56.369</ele>
        <time>2019-04-28T15:37:58Z</time>
      </trkpt>
      <trkpt lat="41.591670" lon="-8.783506">
        <ele>53.447</ele>
        <time>2019-04-28T15:38:09Z</time>
      </trkpt>
      <trkpt lat="41.591903" lon="-8.783537">
        <ele>49.165</ele>
        <time>2019-04-28T15:38:18Z</time>
      </trkpt>
      <trkpt lat="41.592057" lon="-8.783568">
        <ele>47.757</ele>
        <time>2019-04-28T15:38:24Z</time>
      </trkpt>
      <trkpt lat="41.592402" lon="-8.783586">
        <ele>47.237</ele>
        <time>2019-04-28T15:38:36Z</time>
      </trkpt>
      <trkpt lat="41.592833" lon="-8.783524">
        <ele>47.781</ele>
        <time>2019-04-28T15:38:51Z</time>
      </trkpt>
      <trkpt lat="41.593205" lon="-8.783519">
        <ele>47.234</ele>
        <time>2019-04-28T15:39:01Z</time>
      </trkpt>
      <trkpt lat="41.593558" lon="-8.783342">
        <ele>46.755</ele>
        <time>2019-04-28T15:39:13Z</time>
      </trkpt>
      <trkpt lat="41.593752" lon="-8.783212">
        <ele>46.710</ele>
        <time>2019-04-28T15:39:28Z</time>
      </trkpt>
      <trkpt lat="41.594031" lon="-8.783034">
        <ele>50.108</ele>
        <time>2019-04-28T15:39:41Z</time>
      </trkpt>
      <trkpt lat="41.594328" lon="-8.782860">
        <ele>52.026</ele>
        <time>2019-04-28T15:39:54Z</time>
      </trkpt>
      <trkpt lat="41.594658" lon="-8.782645">
        <ele>49.669</ele>
        <time>2019-04-28T15:40:06Z</time>
      </trkpt>
      <trkpt lat="41.595034" lon="-8.782523">
        <ele>48.625</ele>
        <time>2019-04-28T15:40:18Z</time>
      </trkpt>
      <trkpt lat="41.595417" lon="-8.782698">
        <ele>51.093</ele>
        <time>2019-04-28T15:40:32Z</time>
      </trkpt>
      <trkpt lat="41.595713" lon="-8.783172">
        <ele>50.631</ele>
        <time>2019-04-28T15:40:44Z</time>
      </trkpt>
      <trkpt lat="41.595844" lon="-8.783309">
        <ele>50.653</ele>
        <time>2019-04-28T15:40:48Z</time>
      </trkpt>
      <trkpt lat="41.596252" lon="-8.783547">
        <ele>50.673</ele>
        <time>2019-04-28T15:40:58Z</time>
      </trkpt>
      <trkpt lat="41.596645" lon="-8.783455">
        <ele>49.127</ele>
        <time>2019-04-28T15:41:09Z</time>
      </trkpt>
      <trkpt lat="41.596984" lon="-8.783208">
        <ele>46.748</ele>
        <time>2019-04-28T15:41:21Z</time>
      </trkpt>
      <trkpt lat="41.597379" lon="-8.782990">
        <ele>45.861</ele>
        <time>2019-04-28T15:41:33Z</time>
      </trkpt>
      <trkpt lat="41.597492" lon="-8.782991">
        <ele>45.817</ele>
        <time>2019-04-28T15:41:36Z</time>
      </trkpt>
      <trkpt lat="41.597882" lon="-8.783198">
        <ele>44.808</ele>
        <time>2019-04-28T15:41:47Z</time>
      </trkpt>
      <trkpt lat="41.598081" lon="-8.783194">
        <ele>44.877</ele>
        <time>2019-04-28T15:41:53Z</time>
      </trkpt>
      <trkpt lat="41.598120" lon="-8.783227">
        <ele>45.810</ele>
        <time>2019-04-28T15:42:04Z</time>
      </trkpt>
      <trkpt lat="41.598122" lon="-8.783219">
        <ele>46.736</ele>
        <time>2019-04-28T15:42:12Z</time>
      </trkpt>
      <trkpt lat="41.598305" lon="-8.783223">
        <ele>47.284</ele>
        <time>2019-04-28T15:42:22Z</time>
      </trkpt>
      <trkpt lat="41.598693" lon="-8.783147">
        <ele>50.112</ele>
        <time>2019-04-28T15:42:35Z</time>
      </trkpt>
      <trkpt lat="41.599165" lon="-8.782888">
        <ele>51.014</ele>
        <time>2019-04-28T15:42:50Z</time>
      </trkpt>
      <trkpt lat="41.599632" lon="-8.782887">
        <ele>51.594</ele>
        <time>2019-04-28T15:43:03Z</time>
      </trkpt>
      <trkpt lat="41.600241" lon="-8.782951">
        <ele>51.528</ele>
        <time>2019-04-28T15:43:18Z</time>
      </trkpt>
      <trkpt lat="41.600469" lon="-8.782977">
        <ele>51.061</ele>
        <time>2019-04-28T15:43:23Z</time>
      </trkpt>
      <trkpt lat="41.600725" lon="-8.782961">
        <ele>50.121</ele>
        <time>2019-04-28T15:43:30Z</time>
      </trkpt>
      <trkpt lat="41.601139" lon="-8.782848">
        <ele>49.113</ele>
        <time>2019-04-28T15:43:44Z</time>
      </trkpt>
      <trkpt lat="41.601406" lon="-8.782639">
        <ele>51.508</ele>
        <time>2019-04-28T15:43:55Z</time>
      </trkpt>
      <trkpt lat="41.601429" lon="-8.782620">
        <ele>52.099</ele>
        <time>2019-04-28T15:43:56Z</time>
      </trkpt>
      <trkpt lat="41.601778" lon="-8.782546">
        <ele>55.832</ele>
        <time>2019-04-28T15:44:08Z</time>
      </trkpt>
      <trkpt lat="41.602064" lon="-8.782473">
        <ele>59.228</ele>
        <time>2019-04-28T15:44:17Z</time>
      </trkpt>
      <trkpt lat="41.602337" lon="-8.782262">
        <ele>63.526</ele>
        <time>2019-04-28T15:44:29Z</time>
      </trkpt>
      <trkpt lat="41.602559" lon="-8.782113">
        <ele>67.964</ele>
        <time>2019-04-28T15:44:39Z</time>
      </trkpt>
      <trkpt lat="41.602819" lon="-8.781898">
        <ele>70.746</ele>
        <time>2019-04-28T15:44:51Z</time>
      </trkpt>
      <trkpt lat="41.603175" lon="-8.781571">
        <ele>72.246</ele>
        <time>2019-04-28T15:45:03Z</time>
      </trkpt>
      <trkpt lat="41.603642" lon="-8.781196">
        <ele>73.630</ele>
        <time>2019-04-28T15:45:17Z</time>
      </trkpt>
      <trkpt lat="41.603677" lon="-8.781170">
        <ele>73.625</ele>
        <time>2019-04-28T15:45:18Z</time>
      </trkpt>
      <trkpt lat="41.603829" lon="-8.781058">
        <ele>72.726</ele>
        <time>2019-04-28T15:45:22Z</time>
      </trkpt>
      <trkpt lat="41.603903" lon="-8.780998">
        <ele>72.208</ele>
        <time>2019-04-28T15:45:24Z</time>
      </trkpt>
      <trkpt lat="41.604175" lon="-8.780774">
        <ele>70.708</ele>
        <time>2019-04-28T15:45:32Z</time>
      </trkpt>
      <trkpt lat="41.604519" lon="-8.780382">
        <ele>60.755</ele>
        <time>2019-04-28T15:45:45Z</time>
      </trkpt>
      <trkpt lat="41.604511" lon="-8.780388">
        <ele>58.378</ele>
        <time>2019-04-28T15:46:01Z</time>
      </trkpt>
      <trkpt lat="41.604546" lon="-8.780347">
        <ele>58.374</ele>
        <time>2019-04-28T15:46:05Z</time>
      </trkpt>
      <trkpt lat="41.604679" lon="-8.780360">
        <ele>57.842</ele>
        <time>2019-04-28T15:46:10Z</time>
      </trkpt>
      <trkpt lat="41.605223" lon="-8.780541">
        <ele>55.830</ele>
        <time>2019-04-28T15:46:24Z</time>
      </trkpt>
      <trkpt lat="41.605954" lon="-8.781177">
        <ele>53.992</ele>
        <time>2019-04-28T15:46:41Z</time>
      </trkpt>
      <trkpt lat="41.606289" lon="-8.781860">
        <ele>51.512</ele>
        <time>2019-04-28T15:46:53Z</time>
      </trkpt>
      <trkpt lat="41.606544" lon="-8.782443">
        <ele>50.146</ele>
        <time>2019-04-28T15:47:07Z</time>
      </trkpt>
      <trkpt lat="41.606556" lon="-8.782456">
        <ele>50.167</ele>
        <time>2019-04-28T15:47:09Z</time>
      </trkpt>
      <trkpt lat="41.606838" lon="-8.782206">
        <ele>50.681</ele>
        <time>2019-04-28T15:47:20Z</time>
      </trkpt>
      <trkpt lat="41.607220" lon="-8.781833">
        <ele>50.119</ele>
        <time>2019-04-28T15:47:33Z</time>
      </trkpt>
      <trkpt lat="41.607455" lon="-8.781362">
        <ele>48.208</ele>
        <time>2019-04-28T15:47:45Z</time>
      </trkpt>
      <trkpt lat="41.607489" lon="-8.781300">
        <ele>48.249</ele>
        <time>2019-04-28T15:47:53Z</time>
      </trkpt>
      <trkpt lat="41.607502" lon="-8.781301">
        <ele>48.212</ele>
        <time>2019-04-28T15:47:55Z</time>
      </trkpt>
      <trkpt lat="41.607591" lon="-8.781360">
        <ele>48.228</ele>
        <time>2019-04-28T15:47:59Z</time>
      </trkpt>
      <trkpt lat="41.607842" lon="-8.781307">
        <ele>46.246</ele>
        <time>2019-04-28T15:48:06Z</time>
      </trkpt>
      <trkpt lat="41.608052" lon="-8.781253">
        <ele>46.234</ele>
        <time>2019-04-28T15:48:10Z</time>
      </trkpt>
      <trkpt lat="41.608271" lon="-8.781241">
        <ele>45.316</ele>
        <time>2019-04-28T15:48:14Z</time>
      </trkpt>
      <trkpt lat="41.608573" lon="-8.781219">
        <ele>44.816</ele>
        <time>2019-04-28T15:48:19Z</time>
      </trkpt>
      <trkpt lat="41.608835" lon="-8.781225">
        <ele>43.490</ele>
        <time>2019-04-28T15:48:23Z</time>
      </trkpt>
      <trkpt lat="41.609394" lon="-8.781514">
        <ele>38.561</ele>
        <time>2019-04-28T15:48:34Z</time>
      </trkpt>
      <trkpt lat="41.609545" lon="-8.781610">
        <ele>37.121</ele>
        <time>2019-04-28T15:48:37Z</time>
      </trkpt>
      <trkpt lat="41.609669" lon="-8.781661">
        <ele>35.713</ele>
        <time>2019-04-28T15:48:39Z</time>
      </trkpt>
      <trkpt lat="41.609791" lon="-8.781691">
        <ele>34.708</ele>
        <time>2019-04-28T15:48:41Z</time>
      </trkpt>
      <trkpt lat="41.610150" lon="-8.781656">
        <ele>32.819</ele>
        <time>2019-04-28T15:48:47Z</time>
      </trkpt>
      <trkpt lat="41.610258" lon="-8.781565">
        <ele>31.842</ele>
        <time>2019-04-28T15:48:49Z</time>
      </trkpt>
      <trkpt lat="41.610638" lon="-8.781521">
        <ele>29.948</ele>
        <time>2019-04-28T15:48:56Z</time>
      </trkpt>
      <trkpt lat="41.611003" lon="-8.781675">
        <ele>28.036</ele>
        <time>2019-04-28T15:49:02Z</time>
      </trkpt>
      <trkpt lat="41.611442" lon="-8.781915">
        <ele>25.164</ele>
        <time>2019-04-28T15:49:10Z</time>
      </trkpt>
      <trkpt lat="41.611524" lon="-8.781971">
        <ele>27.086</ele>
        <time>2019-04-28T15:49:14Z</time>
      </trkpt>
      <trkpt lat="41.611604" lon="-8.782013">
        <ele>27.536</ele>
        <time>2019-04-28T15:49:18Z</time>
      </trkpt>
      <trkpt lat="41.611655" lon="-8.782073">
        <ele>28.520</ele>
        <time>2019-04-28T15:49:31Z</time>
      </trkpt>
      <trkpt lat="41.611687" lon="-8.782083">
        <ele>27.039</ele>
        <time>2019-04-28T15:50:05Z</time>
      </trkpt>
      <trkpt lat="41.611690" lon="-8.782083">
        <ele>26.501</ele>
        <time>2019-04-28T15:50:08Z</time>
      </trkpt>
      <trkpt lat="41.611675" lon="-8.782171">
        <ele>26.521</ele>
        <time>2019-04-28T15:50:13Z</time>
      </trkpt>
      <trkpt lat="41.611612" lon="-8.782397">
        <ele>25.108</ele>
        <time>2019-04-28T15:50:21Z</time>
      </trkpt>
      <trkpt lat="41.611539" lon="-8.782503">
        <ele>23.666</ele>
        <time>2019-04-28T15:50:25Z</time>
      </trkpt>
      <trkpt lat="41.611383" lon="-8.782845">
        <ele>18.869</ele>
        <time>2019-04-28T15:50:33Z</time>
      </trkpt>
      <trkpt lat="41.611389" lon="-8.782847">
        <ele>16.475</ele>
        <time>2019-04-28T15:50:36Z</time>
      </trkpt>
      <trkpt lat="41.611390" lon="-8.783044">
        <ele>14.083</ele>
        <time>2019-04-28T15:50:42Z</time>
      </trkpt>
      <trkpt lat="41.611383" lon="-8.783313">
        <ele>12.191</ele>
        <time>2019-04-28T15:50:50Z</time>
      </trkpt>
      <trkpt lat="41.611398" lon="-8.783434">
        <ele>11.193</ele>
        <time>2019-04-28T15:50:54Z</time>
      </trkpt>
      <trkpt lat="41.611459" lon="-8.783590">
        <ele>10.263</ele>
        <time>2019-04-28T15:51:00Z</time>
      </trkpt>
      <trkpt lat="41.611478" lon="-8.783662">
        <ele>11.187</ele>
        <time>2019-04-28T15:51:12Z</time>
      </trkpt>
      <trkpt lat="41.611448" lon="-8.783722">
        <ele>19.335</ele>
        <time>2019-04-28T15:51:37Z</time>
      </trkpt>
      <trkpt lat="41.611443" lon="-8.783843">
        <ele>25.686</ele>
        <time>2019-04-28T15:51:48Z</time>
      </trkpt>
      <trkpt lat="41.611424" lon="-8.783903">
        <ele>24.614</ele>
        <time>2019-04-28T15:51:53Z</time>
      </trkpt>
      <trkpt lat="41.611441" lon="-8.783997">
        <ele>23.608</ele>
        <time>2019-04-28T15:51:59Z</time>
      </trkpt>
      <trkpt lat="41.611445" lon="-8.784084">
        <ele>28.586</ele>
        <time>2019-04-28T15:52:11Z</time>
      </trkpt>
      <trkpt lat="41.611477" lon="-8.784154">
        <ele>28.059</ele>
        <time>2019-04-28T15:52:17Z</time>
      </trkpt>
      <trkpt lat="41.611488" lon="-8.784230">
        <ele>25.665</ele>
        <time>2019-04-28T15:52:26Z</time>
      </trkpt>
      <trkpt lat="41.611492" lon="-8.784239">
        <ele>24.693</ele>
        <time>2019-04-28T15:52:28Z</time>
      </trkpt>
      <trkpt lat="41.611496" lon="-8.784450">
        <ele>24.191</ele>
        <time>2019-04-28T15:52:37Z</time>
      </trkpt>
      <trkpt lat="41.611493" lon="-8.784594">
        <ele>22.243</ele>
        <time>2019-04-28T15:52:45Z</time>
      </trkpt>
      <trkpt lat="41.611576" lon="-8.784828">
        <ele>20.823</ele>
        <time>2019-04-28T15:52:52Z</time>
      </trkpt>
      <trkpt lat="41.611606" lon="-8.784873">
        <ele>20.817</ele>
        <time>2019-04-28T15:52:54Z</time>
      </trkpt>
      <trkpt lat="41.611622" lon="-8.785042">
        <ele>19.829</ele>
        <time>2019-04-28T15:52:58Z</time>
      </trkpt>
      <trkpt lat="41.611788" lon="-8.785324">
        <ele>18.400</ele>
        <time>2019-04-28T15:53:07Z</time>
      </trkpt>
      <trkpt lat="41.611810" lon="-8.785332">
        <ele>17.920</ele>
        <time>2019-04-28T15:53:08Z</time>
      </trkpt>
      <trkpt lat="41.611863" lon="-8.785416">
        <ele>16.908</ele>
        <time>2019-04-28T15:53:13Z</time>
      </trkpt>
      <trkpt lat="41.611861" lon="-8.785488">
        <ele>16.925</ele>
        <time>2019-04-28T15:53:18Z</time>
      </trkpt>
      <trkpt lat="41.611898" lon="-8.785587">
        <ele>16.988</ele>
        <time>2019-04-28T15:53:23Z</time>
      </trkpt>
      <trkpt lat="41.611954" lon="-8.785668">
        <ele>16.454</ele>
        <time>2019-04-28T15:53:29Z</time>
      </trkpt>
      <trkpt lat="41.612027" lon="-8.785765">
        <ele>16.442</ele>
        <time>2019-04-28T15:53:33Z</time>
      </trkpt>
      <trkpt lat="41.612069" lon="-8.785965">
        <ele>14.570</ele>
        <time>2019-04-28T15:53:45Z</time>
      </trkpt>
      <trkpt lat="41.612135" lon="-8.786043">
        <ele>13.632</ele>
        <time>2019-04-28T15:53:56Z</time>
      </trkpt>
      <trkpt lat="41.612148" lon="-8.786047">
        <ele>15.512</ele>
        <time>2019-04-28T15:54:09Z</time>
      </trkpt>
      <trkpt lat="41.612175" lon="-8.786061">
        <ele>14.566</ele>
        <time>2019-04-28T15:54:34Z</time>
      </trkpt>
      <trkpt lat="41.612174" lon="-8.786063">
        <ele>14.536</ele>
        <time>2019-04-28T15:54:39Z</time>
      </trkpt>
      <trkpt lat="41.612245" lon="-8.786178">
        <ele>14.017</ele>
        <time>2019-04-28T15:54:46Z</time>
      </trkpt>
      <trkpt lat="41.612377" lon="-8.786369">
        <ele>12.618</ele>
        <time>2019-04-28T15:54:54Z</time>
      </trkpt>
      <trkpt lat="41.612349" lon="-8.786373">
        <ele>15.008</ele>
        <time>2019-04-28T15:55:13Z</time>
      </trkpt>
      <trkpt lat="41.612335" lon="-8.786383">
        <ele>15.576</ele>
        <time>2019-04-28T15:55:27Z</time>
      </trkpt>
      <trkpt lat="41.612444" lon="-8.786649">
        <ele>12.179</ele>
        <time>2019-04-28T15:55:38Z</time>
      </trkpt>
      <trkpt lat="41.612448" lon="-8.786737">
        <ele>11.155</ele>
        <time>2019-04-28T15:55:41Z</time>
      </trkpt>
      <trkpt lat="41.612421" lon="-8.786901">
        <ele>9.243</ele>
        <time>2019-04-28T15:55:47Z</time>
      </trkpt>
      <trkpt lat="41.612414" lon="-8.786986">
        <ele>9.291</ele>
        <time>2019-04-28T15:55:50Z</time>
      </trkpt>
      <trkpt lat="41.612421" lon="-8.787134">
        <ele>10.743</ele>
        <time>2019-04-28T15:55:55Z</time>
      </trkpt>
      <trkpt lat="41.612391" lon="-8.787201">
        <ele>10.793</ele>
        <time>2019-04-28T15:55:57Z</time>
      </trkpt>
      <trkpt lat="41.612396" lon="-8.787319">
        <ele>11.147</ele>
        <time>2019-04-28T15:56:01Z</time>
      </trkpt>
      <trkpt lat="41.612411" lon="-8.787670">
        <ele>12.165</ele>
        <time>2019-04-28T15:56:09Z</time>
      </trkpt>
      <trkpt lat="41.612197" lon="-8.787877">
        <ele>11.168</ele>
        <time>2019-04-28T15:56:16Z</time>
      </trkpt>
      <trkpt lat="41.611976" lon="-8.788013">
        <ele>10.714</ele>
        <time>2019-04-28T15:56:27Z</time>
      </trkpt>
      <trkpt lat="41.611876" lon="-8.788103">
        <ele>9.708</ele>
        <time>2019-04-28T15:56:36Z</time>
      </trkpt>
      <trkpt lat="41.611900" lon="-8.788339">
        <ele>9.269</ele>
        <time>2019-04-28T15:56:42Z</time>
      </trkpt>
      <trkpt lat="41.612090" lon="-8.788792">
        <ele>8.362</ele>
        <time>2019-04-28T15:56:55Z</time>
      </trkpt>
      <trkpt lat="41.612137" lon="-8.788779">
        <ele>10.218</ele>
        <time>2019-04-28T15:57:15Z</time>
      </trkpt>
      <trkpt lat="41.612106" lon="-8.788848">
        <ele>15.576</ele>
        <time>2019-04-28T15:57:45Z</time>
      </trkpt>
      <trkpt lat="41.612071" lon="-8.788865">
        <ele>14.024</ele>
        <time>2019-04-28T15:58:17Z</time>
      </trkpt>
      <trkpt lat="41.612059" lon="-8.788850">
        <ele>14.026</ele>
        <time>2019-04-28T15:58:49Z</time>
      </trkpt>
      <trkpt lat="41.612071" lon="-8.788845">
        <ele>13.656</ele>
        <time>2019-04-28T15:59:08Z</time>
      </trkpt>
      <trkpt lat="41.612099" lon="-8.788858">
        <ele>14.090</ele>
        <time>2019-04-28T15:59:22Z</time>
      </trkpt>
      <trkpt lat="41.612120" lon="-8.788850">
        <ele>13.669</ele>
        <time>2019-04-28T15:59:44Z</time>
      </trkpt>
      <trkpt lat="41.612119" lon="-8.788855">
        <ele>13.604</ele>
        <time>2019-04-28T15:59:46Z</time>
      </trkpt>
      <trkpt lat="41.612140" lon="-8.788820">
        <ele>13.624</ele>
        <time>2019-04-28T16:00:03Z</time>
      </trkpt>
      <trkpt lat="41.612205" lon="-8.788774">
        <ele>13.608</ele>
        <time>2019-04-28T16:00:22Z</time>
      </trkpt>
      <trkpt lat="41.612399" lon="-8.788680">
        <ele>13.699</ele>
        <time>2019-04-28T16:00:33Z</time>
      </trkpt>
      <trkpt lat="41.612566" lon="-8.788571">
        <ele>13.692</ele>
        <time>2019-04-28T16:00:42Z</time>
      </trkpt>
      <trkpt lat="41.612689" lon="-8.788479">
        <ele>13.658</ele>
        <time>2019-04-28T16:00:49Z</time>
      </trkpt>
      <trkpt lat="41.612923" lon="-8.788347">
        <ele>15.586</ele>
        <time>2019-04-28T16:01:02Z</time>
      </trkpt>
      <trkpt lat="41.613235" lon="-8.788266">
        <ele>16.094</ele>
        <time>2019-04-28T16:01:17Z</time>
      </trkpt>
      <trkpt lat="41.613537" lon="-8.788351">
        <ele>15.586</ele>
        <time>2019-04-28T16:01:31Z</time>
      </trkpt>
      <trkpt lat="41.613670" lon="-8.788523">
        <ele>16.946</ele>
        <time>2019-04-28T16:01:42Z</time>
      </trkpt>
      <trkpt lat="41.613778" lon="-8.788714">
        <ele>20.850</ele>
        <time>2019-04-28T16:01:52Z</time>
      </trkpt>
      <trkpt lat="41.613858" lon="-8.788769">
        <ele>23.649</ele>
        <time>2019-04-28T16:01:58Z</time>
      </trkpt>
      <trkpt lat="41.614021" lon="-8.788829">
        <ele>28.502</ele>
        <time>2019-04-28T16:02:11Z</time>
      </trkpt>
      <trkpt lat="41.614048" lon="-8.788825">
        <ele>28.922</ele>
        <time>2019-04-28T16:02:13Z</time>
      </trkpt>
      <trkpt lat="41.614137" lon="-8.788850">
        <ele>29.908</ele>
        <time>2019-04-28T16:02:19Z</time>
      </trkpt>
      <trkpt lat="41.614293" lon="-8.788881">
        <ele>32.367</ele>
        <time>2019-04-28T16:02:32Z</time>
      </trkpt>
      <trkpt lat="41.614380" lon="-8.788919">
        <ele>34.740</ele>
        <time>2019-04-28T16:02:39Z</time>
      </trkpt>
      <trkpt lat="41.614479" lon="-8.788967">
        <ele>36.166</ele>
        <time>2019-04-28T16:02:47Z</time>
      </trkpt>
      <trkpt lat="41.614555" lon="-8.788914">
        <ele>36.174</ele>
        <time>2019-04-28T16:02:52Z</time>
      </trkpt>
      <trkpt lat="41.614681" lon="-8.788616">
        <ele>38.562</ele>
        <time>2019-04-28T16:03:06Z</time>
      </trkpt>
      <trkpt lat="41.614829" lon="-8.788395">
        <ele>39.524</ele>
        <time>2019-04-28T16:03:17Z</time>
      </trkpt>
      <trkpt lat="41.615055" lon="-8.788382">
        <ele>41.954</ele>
        <time>2019-04-28T16:03:27Z</time>
      </trkpt>
      <trkpt lat="41.615027" lon="-8.788270">
        <ele>43.828</ele>
        <time>2019-04-28T16:03:37Z</time>
      </trkpt>
      <trkpt lat="41.615007" lon="-8.788220">
        <ele>44.897</ele>
        <time>2019-04-28T16:03:40Z</time>
      </trkpt>
      <trkpt lat="41.615029" lon="-8.788198">
        <ele>45.823</ele>
        <time>2019-04-28T16:03:44Z</time>
      </trkpt>
      <trkpt lat="41.615044" lon="-8.788244">
        <ele>45.825</ele>
        <time>2019-04-28T16:03:46Z</time>
      </trkpt>
      <trkpt lat="41.615165" lon="-8.788394">
        <ele>44.808</ele>
        <time>2019-04-28T16:03:56Z</time>
      </trkpt>
      <trkpt lat="41.615084" lon="-8.788375">
        <ele>44.852</ele>
        <time>2019-04-28T16:04:05Z</time>
      </trkpt>
      <trkpt lat="41.615094" lon="-8.788338">
        <ele>44.335</ele>
        <time>2019-04-28T16:04:10Z</time>
      </trkpt>
      <trkpt lat="41.615214" lon="-8.788405">
        <ele>44.881</ele>
        <time>2019-04-28T16:04:19Z</time>
      </trkpt>
      <trkpt lat="41.615262" lon="-8.788418">
        <ele>46.229</ele>
        <time>2019-04-28T16:04:32Z</time>
      </trkpt>
      <trkpt lat="41.615251" lon="-8.788417">
        <ele>48.297</ele>
        <time>2019-04-28T16:05:01Z</time>
      </trkpt>
      <trkpt lat="41.615257" lon="-8.788428">
        <ele>48.269</ele>
        <time>2019-04-28T16:05:35Z</time>
      </trkpt>
      <trkpt lat="41.615254" lon="-8.788425">
        <ele>48.249</ele>
        <time>2019-04-28T16:06:01Z</time>
      </trkpt>
      <trkpt lat="41.615264" lon="-8.788446">
        <ele>48.223</ele>
        <time>2019-04-28T16:06:26Z</time>
      </trkpt>
      <trkpt lat="41.615271" lon="-8.788442">
        <ele>47.245</ele>
        <time>2019-04-28T16:06:51Z</time>
      </trkpt>
      <trkpt lat="41.615280" lon="-8.788429">
        <ele>46.747</ele>
        <time>2019-04-28T16:07:23Z</time>
      </trkpt>
      <trkpt lat="41.615276" lon="-8.788435">
        <ele>46.711</ele>
        <time>2019-04-28T16:07:53Z</time>
      </trkpt>
      <trkpt lat="41.615277" lon="-8.788445">
        <ele>46.208</ele>
        <time>2019-04-28T16:08:23Z</time>
      </trkpt>
      <trkpt lat="41.615278" lon="-8.788452">
        <ele>46.777</ele>
        <time>2019-04-28T16:08:49Z</time>
      </trkpt>
      <trkpt lat="41.615280" lon="-8.788450">
        <ele>46.710</ele>
        <time>2019-04-28T16:09:17Z</time>
      </trkpt>
      <trkpt lat="41.615278" lon="-8.788455">
        <ele>47.216</ele>
        <time>2019-04-28T16:09:38Z</time>
      </trkpt>
      <trkpt lat="41.615298" lon="-8.788433">
        <ele>47.734</ele>
        <time>2019-04-28T16:09:41Z</time>
      </trkpt>
      <trkpt lat="41.615335" lon="-8.788410">
        <ele>48.232</ele>
        <time>2019-04-28T16:09:44Z</time>
      </trkpt>
      <trkpt lat="41.615461" lon="-8.788400">
        <ele>51.524</ele>
        <time>2019-04-28T16:09:53Z</time>
      </trkpt>
      <trkpt lat="41.615499" lon="-8.788384">
        <ele>51.574</ele>
        <time>2019-04-28T16:09:56Z</time>
      </trkpt>
      <trkpt lat="41.615658" lon="-8.788349">
        <ele>49.648</ele>
        <time>2019-04-28T16:10:09Z</time>
      </trkpt>
      <trkpt lat="41.615685" lon="-8.788358">
        <ele>50.169</ele>
        <time>2019-04-28T16:10:11Z</time>
      </trkpt>
      <trkpt lat="41.615732" lon="-8.788368">
        <ele>51.004</ele>
        <time>2019-04-28T16:10:15Z</time>
      </trkpt>
      <trkpt lat="41.615784" lon="-8.788384">
        <ele>51.024</ele>
        <time>2019-04-28T16:10:20Z</time>
      </trkpt>
      <trkpt lat="41.615853" lon="-8.788400">
        <ele>51.508</ele>
        <time>2019-04-28T16:10:25Z</time>
      </trkpt>
      <trkpt lat="41.615909" lon="-8.788409">
        <ele>51.569</ele>
        <time>2019-04-28T16:10:30Z</time>
      </trkpt>
      <trkpt lat="41.615930" lon="-8.788403">
        <ele>51.582</ele>
        <time>2019-04-28T16:10:32Z</time>
      </trkpt>
      <trkpt lat="41.615972" lon="-8.788419">
        <ele>51.028</ele>
        <time>2019-04-28T16:10:35Z</time>
      </trkpt>
      <trkpt lat="41.616100" lon="-8.788420">
        <ele>50.636</ele>
        <time>2019-04-28T16:10:44Z</time>
      </trkpt>
      <trkpt lat="41.616210" lon="-8.788443">
        <ele>51.584</ele>
        <time>2019-04-28T16:10:52Z</time>
      </trkpt>
      <trkpt lat="41.616339" lon="-8.788513">
        <ele>54.416</ele>
        <time>2019-04-28T16:11:01Z</time>
      </trkpt>
      <trkpt lat="41.616552" lon="-8.788654">
        <ele>55.866</ele>
        <time>2019-04-28T16:11:15Z</time>
      </trkpt>
      <trkpt lat="41.616762" lon="-8.788805">
        <ele>57.380</ele>
        <time>2019-04-28T16:11:28Z</time>
      </trkpt>
      <trkpt lat="41.616882" lon="-8.788873">
        <ele>59.248</ele>
        <time>2019-04-28T16:11:38Z</time>
      </trkpt>
      <trkpt lat="41.616923" lon="-8.788786">
        <ele>59.261</ele>
        <time>2019-04-28T16:11:43Z</time>
      </trkpt>
      <trkpt lat="41.617064" lon="-8.788443">
        <ele>63.117</ele>
        <time>2019-04-28T16:12:00Z</time>
      </trkpt>
      <trkpt lat="41.617317" lon="-8.788193">
        <ele>63.108</ele>
        <time>2019-04-28T16:12:15Z</time>
      </trkpt>
      <trkpt lat="41.617686" lon="-8.787942">
        <ele>61.677</ele>
        <time>2019-04-28T16:12:26Z</time>
      </trkpt>
      <trkpt lat="41.617872" lon="-8.787859">
        <ele>61.160</ele>
        <time>2019-04-28T16:12:30Z</time>
      </trkpt>
      <trkpt lat="41.617898" lon="-8.787749">
        <ele>60.726</ele>
        <time>2019-04-28T16:12:35Z</time>
      </trkpt>
      <trkpt lat="41.618237" lon="-8.787461">
        <ele>58.734</ele>
        <time>2019-04-28T16:12:46Z</time>
      </trkpt>
      <trkpt lat="41.618303" lon="-8.787374">
        <ele>58.382</ele>
        <time>2019-04-28T16:12:48Z</time>
      </trkpt>
      <trkpt lat="41.618520" lon="-8.787283">
        <ele>56.314</ele>
        <time>2019-04-28T16:12:55Z</time>
      </trkpt>
      <trkpt lat="41.618672" lon="-8.787303">
        <ele>54.984</ele>
        <time>2019-04-28T16:13:00Z</time>
      </trkpt>
      <trkpt lat="41.619079" lon="-8.787257">
        <ele>54.478</ele>
        <time>2019-04-28T16:13:12Z</time>
      </trkpt>
      <trkpt lat="41.619361" lon="-8.787265">
        <ele>55.877</ele>
        <time>2019-04-28T16:13:23Z</time>
      </trkpt>
      <trkpt lat="41.619649" lon="-8.787384">
        <ele>60.261</ele>
        <time>2019-04-28T16:13:36Z</time>
      </trkpt>
      <trkpt lat="41.619833" lon="-8.787576">
        <ele>62.627</ele>
        <time>2019-04-28T16:13:48Z</time>
      </trkpt>
      <trkpt lat="41.619874" lon="-8.787620">
        <ele>63.108</ele>
        <time>2019-04-28T16:13:52Z</time>
      </trkpt>
      <trkpt lat="41.620068" lon="-8.787797">
        <ele>63.170</ele>
        <time>2019-04-28T16:14:06Z</time>
      </trkpt>
      <trkpt lat="41.620179" lon="-8.787925">
        <ele>63.153</ele>
        <time>2019-04-28T16:14:14Z</time>
      </trkpt>
      <trkpt lat="41.620281" lon="-8.788126">
        <ele>65.089</ele>
        <time>2019-04-28T16:14:24Z</time>
      </trkpt>
      <trkpt lat="41.620414" lon="-8.788331">
        <ele>65.547</ele>
        <time>2019-04-28T16:14:36Z</time>
      </trkpt>
      <trkpt lat="41.620462" lon="-8.788394">
        <ele>67.495</ele>
        <time>2019-04-28T16:14:50Z</time>
      </trkpt>
      <trkpt lat="41.620705" lon="-8.788473">
        <ele>68.317</ele>
        <time>2019-04-28T16:15:02Z</time>
      </trkpt>
      <trkpt lat="41.620950" lon="-8.788586">
        <ele>70.727</ele>
        <time>2019-04-28T16:15:14Z</time>
      </trkpt>
      <trkpt lat="41.620972" lon="-8.788591">
        <ele>71.231</ele>
        <time>2019-04-28T16:15:15Z</time>
      </trkpt>
      <trkpt lat="41.621325" lon="-8.788739">
        <ele>74.685</ele>
        <time>2019-04-28T16:15:32Z</time>
      </trkpt>
      <trkpt lat="41.621497" lon="-8.788791">
        <ele>76.089</ele>
        <time>2019-04-28T16:15:40Z</time>
      </trkpt>
      <trkpt lat="41.621643" lon="-8.788696">
        <ele>77.517</ele>
        <time>2019-04-28T16:15:49Z</time>
      </trkpt>
      <trkpt lat="41.621658" lon="-8.788624">
        <ele>77.008</ele>
        <time>2019-04-28T16:15:53Z</time>
      </trkpt>
      <trkpt lat="41.621708" lon="-8.788509">
        <ele>75.671</ele>
        <time>2019-04-28T16:16:05Z</time>
      </trkpt>
      <trkpt lat="41.621829" lon="-8.788523">
        <ele>75.114</ele>
        <time>2019-04-28T16:16:11Z</time>
      </trkpt>
      <trkpt lat="41.621912" lon="-8.788557">
        <ele>76.080</ele>
        <time>2019-04-28T16:16:17Z</time>
      </trkpt>
      <trkpt lat="41.621955" lon="-8.788600">
        <ele>77.058</ele>
        <time>2019-04-28T16:16:21Z</time>
      </trkpt>
      <trkpt lat="41.622043" lon="-8.788619">
        <ele>78.496</ele>
        <time>2019-04-28T16:16:29Z</time>
      </trkpt>
      <trkpt lat="41.622081" lon="-8.788592">
        <ele>78.988</ele>
        <time>2019-04-28T16:16:33Z</time>
      </trkpt>
      <trkpt lat="41.622143" lon="-8.788599">
        <ele>79.438</ele>
        <time>2019-04-28T16:16:38Z</time>
      </trkpt>
      <trkpt lat="41.622288" lon="-8.788613">
        <ele>79.932</ele>
        <time>2019-04-28T16:16:50Z</time>
      </trkpt>
      <trkpt lat="41.622400" lon="-8.788616">
        <ele>80.897</ele>
        <time>2019-04-28T16:16:58Z</time>
      </trkpt>
      <trkpt lat="41.622574" lon="-8.788648">
        <ele>82.823</ele>
        <time>2019-04-28T16:17:12Z</time>
      </trkpt>
      <trkpt lat="41.622640" lon="-8.788681">
        <ele>84.225</ele>
        <time>2019-04-28T16:17:26Z</time>
      </trkpt>
      <trkpt lat="41.622798" lon="-8.788751">
        <ele>85.208</ele>
        <time>2019-04-28T16:17:40Z</time>
      </trkpt>
      <trkpt lat="41.622954" lon="-8.788912">
        <ele>86.632</ele>
        <time>2019-04-28T16:17:55Z</time>
      </trkpt>
      <trkpt lat="41.623146" lon="-8.789051">
        <ele>86.645</ele>
        <time>2019-04-28T16:18:09Z</time>
      </trkpt>
      <trkpt lat="41.623287" lon="-8.788972">
        <ele>87.651</ele>
        <time>2019-04-28T16:18:18Z</time>
      </trkpt>
      <trkpt lat="41.623521" lon="-8.788952">
        <ele>89.069</ele>
        <time>2019-04-28T16:18:31Z</time>
      </trkpt>
      <trkpt lat="41.623772" lon="-8.789113">
        <ele>89.597</ele>
        <time>2019-04-28T16:18:47Z</time>
      </trkpt>
      <trkpt lat="41.623960" lon="-8.789105">
        <ele>91.919</ele>
        <time>2019-04-28T16:19:02Z</time>
      </trkpt>
      <trkpt lat="41.624113" lon="-8.788910">
        <ele>91.929</ele>
        <time>2019-04-28T16:19:16Z</time>
      </trkpt>
      <trkpt lat="41.624249" lon="-8.788862">
        <ele>94.313</ele>
        <time>2019-04-28T16:19:29Z</time>
      </trkpt>
      <trkpt lat="41.624250" lon="-8.788859">
        <ele>94.892</ele>
        <time>2019-04-28T16:19:33Z</time>
      </trkpt>
      <trkpt lat="41.624285" lon="-8.788898">
        <ele>95.373</ele>
        <time>2019-04-28T16:19:37Z</time>
      </trkpt>
      <trkpt lat="41.624343" lon="-8.789040">
        <ele>97.720</ele>
        <time>2019-04-28T16:19:48Z</time>
      </trkpt>
      <trkpt lat="41.624384" lon="-8.789146">
        <ele>98.608</ele>
        <time>2019-04-28T16:19:56Z</time>
      </trkpt>
      <trkpt lat="41.624412" lon="-8.789406">
        <ele>99.662</ele>
        <time>2019-04-28T16:20:09Z</time>
      </trkpt>
      <trkpt lat="41.624447" lon="-8.789593">
        <ele>101.025</ele>
        <time>2019-04-28T16:20:21Z</time>
      </trkpt>
      <trkpt lat="41.624418" lon="-8.789733">
        <ele>102.571</ele>
        <time>2019-04-28T16:20:32Z</time>
      </trkpt>
      <trkpt lat="41.624412" lon="-8.789726">
        <ele>102.589</ele>
        <time>2019-04-28T16:20:43Z</time>
      </trkpt>
      <trkpt lat="41.624471" lon="-8.789692">
        <ele>103.917</ele>
        <time>2019-04-28T16:20:49Z</time>
      </trkpt>
      <trkpt lat="41.624514" lon="-8.789690">
        <ele>103.989</ele>
        <time>2019-04-28T16:20:52Z</time>
      </trkpt>
      <trkpt lat="41.624549" lon="-8.789701">
        <ele>104.919</ele>
        <time>2019-04-28T16:20:55Z</time>
      </trkpt>
      <trkpt lat="41.624706" lon="-8.789623">
        <ele>109.263</ele>
        <time>2019-04-28T16:21:08Z</time>
      </trkpt>
      <trkpt lat="41.624788" lon="-8.789524">
        <ele>111.682</ele>
        <time>2019-04-28T16:21:16Z</time>
      </trkpt>
      <trkpt lat="41.624913" lon="-8.789311">
        <ele>114.543</ele>
        <time>2019-04-28T16:21:30Z</time>
      </trkpt>
      <trkpt lat="41.624955" lon="-8.789253">
        <ele>115.017</ele>
        <time>2019-04-28T16:21:34Z</time>
      </trkpt>
      <trkpt lat="41.625099" lon="-8.789000">
        <ele>115.508</ele>
        <time>2019-04-28T16:21:50Z</time>
      </trkpt>
      <trkpt lat="41.625272" lon="-8.788791">
        <ele>116.461</ele>
        <time>2019-04-28T16:22:05Z</time>
      </trkpt>
      <trkpt lat="41.625309" lon="-8.788765">
        <ele>116.474</ele>
        <time>2019-04-28T16:22:08Z</time>
      </trkpt>
      <trkpt lat="41.625259" lon="-8.788537">
        <ele>116.940</ele>
        <time>2019-04-28T16:22:19Z</time>
      </trkpt>
      <trkpt lat="41.625246" lon="-8.788239">
        <ele>117.488</ele>
        <time>2019-04-28T16:22:32Z</time>
      </trkpt>
      <trkpt lat="41.625269" lon="-8.788312">
        <ele>115.516</ele>
        <time>2019-04-28T16:22:41Z</time>
      </trkpt>
      <trkpt lat="41.625296" lon="-8.788558">
        <ele>115.598</ele>
        <time>2019-04-28T16:22:51Z</time>
      </trkpt>
      <trkpt lat="41.625342" lon="-8.788686">
        <ele>115.538</ele>
        <time>2019-04-28T16:22:58Z</time>
      </trkpt>
      <trkpt lat="41.625317" lon="-8.788792">
        <ele>116.942</ele>
        <time>2019-04-28T16:23:12Z</time>
      </trkpt>
      <trkpt lat="41.625320" lon="-8.788791">
        <ele>116.928</ele>
        <time>2019-04-28T16:23:33Z</time>
      </trkpt>
      <trkpt lat="41.625311" lon="-8.788796">
        <ele>116.989</ele>
        <time>2019-04-28T16:23:42Z</time>
      </trkpt>
      <trkpt lat="41.625286" lon="-8.788874">
        <ele>117.917</ele>
        <time>2019-04-28T16:23:55Z</time>
      </trkpt>
      <trkpt lat="41.625261" lon="-8.788881">
        <ele>118.308</ele>
        <time>2019-04-28T16:24:07Z</time>
      </trkpt>
      <trkpt lat="41.625242" lon="-8.788808">
        <ele>117.915</ele>
        <time>2019-04-28T16:24:12Z</time>
      </trkpt>
      <trkpt lat="41.625391" lon="-8.788592">
        <ele>117.448</ele>
        <time>2019-04-28T16:24:26Z</time>
      </trkpt>
      <trkpt lat="41.625410" lon="-8.788585">
        <ele>116.924</ele>
        <time>2019-04-28T16:24:28Z</time>
      </trkpt>
      <trkpt lat="41.625409" lon="-8.788696">
        <ele>116.922</ele>
        <time>2019-04-28T16:24:42Z</time>
      </trkpt>
      <trkpt lat="41.625389" lon="-8.788711">
        <ele>116.920</ele>
        <time>2019-04-28T16:24:54Z</time>
      </trkpt>
      <trkpt lat="41.625463" lon="-8.788747">
        <ele>120.382</ele>
        <time>2019-04-28T16:25:32Z</time>
      </trkpt>
      <trkpt lat="41.625476" lon="-8.788747">
        <ele>120.752</ele>
        <time>2019-04-28T16:26:11Z</time>
      </trkpt>
      <trkpt lat="41.625470" lon="-8.788736">
        <ele>122.766</ele>
        <time>2019-04-28T16:26:38Z</time>
      </trkpt>
      <trkpt lat="41.625435" lon="-8.788740">
        <ele>123.699</ele>
        <time>2019-04-28T16:26:41Z</time>
      </trkpt>
      <trkpt lat="41.625228" lon="-8.789069">
        <ele>120.707</ele>
        <time>2019-04-28T16:26:54Z</time>
      </trkpt>
      <trkpt lat="41.625129" lon="-8.789452">
        <ele>119.827</ele>
        <time>2019-04-28T16:27:07Z</time>
      </trkpt>
      <trkpt lat="41.625054" lon="-8.789748">
        <ele>119.808</ele>
        <time>2019-04-28T16:27:18Z</time>
      </trkpt>
      <trkpt lat="41.625173" lon="-8.789831">
        <ele>120.342</ele>
        <time>2019-04-28T16:27:25Z</time>
      </trkpt>
      <trkpt lat="41.625336" lon="-8.789849">
        <ele>120.755</ele>
        <time>2019-04-28T16:27:34Z</time>
      </trkpt>
      <trkpt lat="41.625398" lon="-8.789816">
        <ele>121.731</ele>
        <time>2019-04-28T16:27:38Z</time>
      </trkpt>
      <trkpt lat="41.625591" lon="-8.789801">
        <ele>122.269</ele>
        <time>2019-04-28T16:27:51Z</time>
      </trkpt>
      <trkpt lat="41.625718" lon="-8.789709">
        <ele>122.257</ele>
        <time>2019-04-28T16:28:04Z</time>
      </trkpt>
      <trkpt lat="41.625791" lon="-8.789602">
        <ele>122.769</ele>
        <time>2019-04-28T16:28:14Z</time>
      </trkpt>
      <trkpt lat="41.625974" lon="-8.789490">
        <ele>124.149</ele>
        <time>2019-04-28T16:28:24Z</time>
      </trkpt>
      <trkpt lat="41.626258" lon="-8.789407">
        <ele>122.223</ele>
        <time>2019-04-28T16:28:35Z</time>
      </trkpt>
      <trkpt lat="41.626517" lon="-8.789298">
        <ele>126.069</ele>
        <time>2019-04-28T16:28:45Z</time>
      </trkpt>
      <trkpt lat="41.626618" lon="-8.789238">
        <ele>125.104</ele>
        <time>2019-04-28T16:28:49Z</time>
      </trkpt>
      <trkpt lat="41.626792" lon="-8.788914">
        <ele>121.724</ele>
        <time>2019-04-28T16:28:59Z</time>
      </trkpt>
      <trkpt lat="41.626796" lon="-8.788731">
        <ele>120.308</ele>
        <time>2019-04-28T16:29:02Z</time>
      </trkpt>
      <trkpt lat="41.626804" lon="-8.788378">
        <ele>116.919</ele>
        <time>2019-04-28T16:29:07Z</time>
      </trkpt>
      <trkpt lat="41.626781" lon="-8.788255">
        <ele>115.582</ele>
        <time>2019-04-28T16:29:10Z</time>
      </trkpt>
      <trkpt lat="41.626497" lon="-8.788051">
        <ele>112.648</ele>
        <time>2019-04-28T16:29:17Z</time>
      </trkpt>
      <trkpt lat="41.626249" lon="-8.788019">
        <ele>110.246</ele>
        <time>2019-04-28T16:29:24Z</time>
      </trkpt>
      <trkpt lat="41.626163" lon="-8.787853">
        <ele>109.274</ele>
        <time>2019-04-28T16:29:30Z</time>
      </trkpt>
      <trkpt lat="41.625975" lon="-8.787577">
        <ele>110.296</ele>
        <time>2019-04-28T16:29:41Z</time>
      </trkpt>
      <trkpt lat="41.625926" lon="-8.787467">
        <ele>109.776</ele>
        <time>2019-04-28T16:29:43Z</time>
      </trkpt>
      <trkpt lat="41.625750" lon="-8.787028">
        <ele>111.110</ele>
        <time>2019-04-28T16:29:53Z</time>
      </trkpt>
      <trkpt lat="41.625683" lon="-8.786845">
        <ele>110.661</ele>
        <time>2019-04-28T16:29:57Z</time>
      </trkpt>
      <trkpt lat="41.625495" lon="-8.786803">
        <ele>109.221</ele>
        <time>2019-04-28T16:30:02Z</time>
      </trkpt>
      <trkpt lat="41.625407" lon="-8.786823">
        <ele>108.713</ele>
        <time>2019-04-28T16:30:04Z</time>
      </trkpt>
      <trkpt lat="41.625292" lon="-8.786734">
        <ele>107.808</ele>
        <time>2019-04-28T16:30:11Z</time>
      </trkpt>
      <trkpt lat="41.625312" lon="-8.786670">
        <ele>106.839</ele>
        <time>2019-04-28T16:30:14Z</time>
      </trkpt>
      <trkpt lat="41.625331" lon="-8.786519">
        <ele>105.832</ele>
        <time>2019-04-28T16:30:17Z</time>
      </trkpt>
      <trkpt lat="41.625497" lon="-8.786244">
        <ele>103.938</ele>
        <time>2019-04-28T16:30:23Z</time>
      </trkpt>
      <trkpt lat="41.625721" lon="-8.785938">
        <ele>105.476</ele>
        <time>2019-04-28T16:30:34Z</time>
      </trkpt>
      <trkpt lat="41.625942" lon="-8.785900">
        <ele>108.284</ele>
        <time>2019-04-28T16:30:45Z</time>
      </trkpt>
      <trkpt lat="41.626143" lon="-8.785879">
        <ele>112.126</ele>
        <time>2019-04-28T16:30:53Z</time>
      </trkpt>
      <trkpt lat="41.626332" lon="-8.785950">
        <ele>113.086</ele>
        <time>2019-04-28T16:31:02Z</time>
      </trkpt>
      <trkpt lat="41.626392" lon="-8.786013">
        <ele>114.020</ele>
        <time>2019-04-28T16:31:06Z</time>
      </trkpt>
      <trkpt lat="41.626518" lon="-8.786098">
        <ele>114.061</ele>
        <time>2019-04-28T16:31:12Z</time>
      </trkpt>
      <trkpt lat="41.626637" lon="-8.786124">
        <ele>112.621</ele>
        <time>2019-04-28T16:31:17Z</time>
      </trkpt>
      <trkpt lat="41.626793" lon="-8.786063">
        <ele>110.613</ele>
        <time>2019-04-28T16:31:21Z</time>
      </trkpt>
      <trkpt lat="41.626902" lon="-8.785850">
        <ele>108.208</ele>
        <time>2019-04-28T16:31:25Z</time>
      </trkpt>
      <trkpt lat="41.626939" lon="-8.785703">
        <ele>107.899</ele>
        <time>2019-04-28T16:31:27Z</time>
      </trkpt>
      <trkpt lat="41.627054" lon="-8.785318">
        <ele>104.962</ele>
        <time>2019-04-28T16:31:32Z</time>
      </trkpt>
      <trkpt lat="41.626933" lon="-8.784953">
        <ele>102.558</ele>
        <time>2019-04-28T16:31:40Z</time>
      </trkpt>
      <trkpt lat="41.626874" lon="-8.784756">
        <ele>101.516</ele>
        <time>2019-04-28T16:31:43Z</time>
      </trkpt>
      <trkpt lat="41.626856" lon="-8.784468">
        <ele>99.614</ele>
        <time>2019-04-28T16:31:50Z</time>
      </trkpt>
      <trkpt lat="41.627086" lon="-8.784420">
        <ele>98.156</ele>
        <time>2019-04-28T16:31:58Z</time>
      </trkpt>
      <trkpt lat="41.627217" lon="-8.784347">
        <ele>97.286</ele>
        <time>2019-04-28T16:32:07Z</time>
      </trkpt>
      <trkpt lat="41.627553" lon="-8.784370">
        <ele>92.410</ele>
        <time>2019-04-28T16:32:18Z</time>
      </trkpt>
      <trkpt lat="41.627644" lon="-8.784398">
        <ele>90.938</ele>
        <time>2019-04-28T16:32:21Z</time>
      </trkpt>
      <trkpt lat="41.627779" lon="-8.784213">
        <ele>88.170</ele>
        <time>2019-04-28T16:32:29Z</time>
      </trkpt>
      <trkpt lat="41.627983" lon="-8.783959">
        <ele>83.717</ele>
        <time>2019-04-28T16:32:39Z</time>
      </trkpt>
      <trkpt lat="41.628117" lon="-8.783582">
        <ele>83.208</ele>
        <time>2019-04-28T16:32:49Z</time>
      </trkpt>
      <trkpt lat="41.628166" lon="-8.783396">
        <ele>85.656</ele>
        <time>2019-04-28T16:32:54Z</time>
      </trkpt>
      <trkpt lat="41.628195" lon="-8.783171">
        <ele>87.159</ele>
        <time>2019-04-28T16:32:59Z</time>
      </trkpt>
      <trkpt lat="41.628230" lon="-8.783110">
        <ele>89.025</ele>
        <time>2019-04-28T16:33:11Z</time>
      </trkpt>
      <trkpt lat="41.628240" lon="-8.783087">
        <ele>91.933</ele>
        <time>2019-04-28T16:33:31Z</time>
      </trkpt>
      <trkpt lat="41.628272" lon="-8.782955">
        <ele>95.391</ele>
        <time>2019-04-28T16:33:38Z</time>
      </trkpt>
      <trkpt lat="41.628312" lon="-8.782835">
        <ele>95.393</ele>
        <time>2019-04-28T16:33:48Z</time>
      </trkpt>
      <trkpt lat="41.628313" lon="-8.782755">
        <ele>94.353</ele>
        <time>2019-04-28T16:33:56Z</time>
      </trkpt>
      <trkpt lat="41.628355" lon="-8.782662">
        <ele>96.297</ele>
        <time>2019-04-28T16:34:06Z</time>
      </trkpt>
      <trkpt lat="41.628390" lon="-8.782487">
        <ele>93.839</ele>
        <time>2019-04-28T16:34:16Z</time>
      </trkpt>
      <trkpt lat="41.628404" lon="-8.782432">
        <ele>93.301</ele>
        <time>2019-04-28T16:34:18Z</time>
      </trkpt>
      <trkpt lat="41.628464" lon="-8.782253">
        <ele>93.321</ele>
        <time>2019-04-28T16:34:29Z</time>
      </trkpt>
      <trkpt lat="41.628510" lon="-8.782127">
        <ele>91.908</ele>
        <time>2019-04-28T16:34:42Z</time>
      </trkpt>
      <trkpt lat="41.628657" lon="-8.781908">
        <ele>88.516</ele>
        <time>2019-04-28T16:34:54Z</time>
      </trkpt>
      <trkpt lat="41.628719" lon="-8.781852">
        <ele>87.659</ele>
        <time>2019-04-28T16:35:00Z</time>
      </trkpt>
      <trkpt lat="41.628747" lon="-8.781786">
        <ele>86.135</ele>
        <time>2019-04-28T16:35:04Z</time>
      </trkpt>
      <trkpt lat="41.628777" lon="-8.781576">
        <ele>85.653</ele>
        <time>2019-04-28T16:35:17Z</time>
      </trkpt>
      <trkpt lat="41.628784" lon="-8.781558">
        <ele>85.651</ele>
        <time>2019-04-28T16:35:37Z</time>
      </trkpt>
      <trkpt lat="41.628797" lon="-8.781554">
        <ele>85.263</ele>
        <time>2019-04-28T16:35:53Z</time>
      </trkpt>
      <trkpt lat="41.628888" lon="-8.781286">
        <ele>84.773</ele>
        <time>2019-04-28T16:36:03Z</time>
      </trkpt>
      <trkpt lat="41.628910" lon="-8.781251">
        <ele>84.287</ele>
        <time>2019-04-28T16:36:04Z</time>
      </trkpt>
      <trkpt lat="41.629284" lon="-8.780975">
        <ele>84.298</ele>
        <time>2019-04-28T16:36:18Z</time>
      </trkpt>
      <trkpt lat="41.629671" lon="-8.780785">
        <ele>84.715</ele>
        <time>2019-04-28T16:36:31Z</time>
      </trkpt>
      <trkpt lat="41.630075" lon="-8.780388">
        <ele>83.726</ele>
        <time>2019-04-28T16:36:47Z</time>
      </trkpt>
      <trkpt lat="41.630451" lon="-8.780114">
        <ele>82.308</ele>
        <time>2019-04-28T16:37:01Z</time>
      </trkpt>
      <trkpt lat="41.630834" lon="-8.779799">
        <ele>80.882</ele>
        <time>2019-04-28T16:37:14Z</time>
      </trkpt>
      <trkpt lat="41.630998" lon="-8.779467">
        <ele>80.855</ele>
        <time>2019-04-28T16:37:22Z</time>
      </trkpt>
      <trkpt lat="41.631034" lon="-8.779469">
        <ele>80.461</ele>
        <time>2019-04-28T16:37:23Z</time>
      </trkpt>
      <trkpt lat="41.631503" lon="-8.779601">
        <ele>81.859</ele>
        <time>2019-04-28T16:37:39Z</time>
      </trkpt>
      <trkpt lat="41.632023" lon="-8.779746">
        <ele>81.857</ele>
        <time>2019-04-28T16:37:55Z</time>
      </trkpt>
      <trkpt lat="41.632547" lon="-8.779921">
        <ele>82.869</ele>
        <time>2019-04-28T16:38:11Z</time>
      </trkpt>
      <trkpt lat="41.632940" lon="-8.780058">
        <ele>83.259</ele>
        <time>2019-04-28T16:38:23Z</time>
      </trkpt>
      <trkpt lat="41.633275" lon="-8.780128">
        <ele>85.643</ele>
        <time>2019-04-28T16:38:35Z</time>
      </trkpt>
      <trkpt lat="41.633390" lon="-8.780167">
        <ele>86.665</ele>
        <time>2019-04-28T16:38:40Z</time>
      </trkpt>
      <trkpt lat="41.633614" lon="-8.780148">
        <ele>86.668</ele>
        <time>2019-04-28T16:38:44Z</time>
      </trkpt>
      <trkpt lat="41.633957" lon="-8.780036">
        <ele>86.114</ele>
        <time>2019-04-28T16:38:49Z</time>
      </trkpt>
      <trkpt lat="41.634369" lon="-8.780137">
        <ele>85.608</ele>
        <time>2019-04-28T16:38:55Z</time>
      </trkpt>
      <trkpt lat="41.634562" lon="-8.780181">
        <ele>85.619</ele>
        <time>2019-04-28T16:38:58Z</time>
      </trkpt>
      <trkpt lat="41.635021" lon="-8.780164">
        <ele>85.642</ele>
        <time>2019-04-28T16:39:08Z</time>
      </trkpt>
      <trkpt lat="41.635135" lon="-8.780232">
        <ele>84.798</ele>
        <time>2019-04-28T16:39:18Z</time>
      </trkpt>
      <trkpt lat="41.635130" lon="-8.780235">
        <ele>84.756</ele>
        <time>2019-04-28T16:39:23Z</time>
      </trkpt>
      <trkpt lat="41.635254" lon="-8.780295">
        <ele>83.224</ele>
        <time>2019-04-28T16:39:29Z</time>
      </trkpt>
      <trkpt lat="41.635413" lon="-8.780402">
        <ele>81.896</ele>
        <time>2019-04-28T16:39:36Z</time>
      </trkpt>
      <trkpt lat="41.635553" lon="-8.780459">
        <ele>80.446</ele>
        <time>2019-04-28T16:39:42Z</time>
      </trkpt>
      <trkpt lat="41.635603" lon="-8.780481">
        <ele>79.930</ele>
        <time>2019-04-28T16:39:45Z</time>
      </trkpt>
      <trkpt lat="41.635808" lon="-8.780589">
        <ele>77.067</ele>
        <time>2019-04-28T16:39:54Z</time>
      </trkpt>
      <trkpt lat="41.636034" lon="-8.780605">
        <ele>72.281</ele>
        <time>2019-04-28T16:40:03Z</time>
      </trkpt>
      <trkpt lat="41.636054" lon="-8.780604">
        <ele>72.219</ele>
        <time>2019-04-28T16:40:04Z</time>
      </trkpt>
      <trkpt lat="41.636123" lon="-8.780616">
        <ele>71.708</ele>
        <time>2019-04-28T16:40:07Z</time>
      </trkpt>
      <trkpt lat="41.636222" lon="-8.780653">
        <ele>70.359</ele>
        <time>2019-04-28T16:40:12Z</time>
      </trkpt>
      <trkpt lat="41.636297" lon="-8.780726">
        <ele>72.262</ele>
        <time>2019-04-28T16:40:17Z</time>
      </trkpt>
      <trkpt lat="41.636366" lon="-8.780769">
        <ele>74.128</ele>
        <time>2019-04-28T16:40:22Z</time>
      </trkpt>
      <trkpt lat="41.636538" lon="-8.780770">
        <ele>78.436</ele>
        <time>2019-04-28T16:40:32Z</time>
      </trkpt>
      <trkpt lat="41.636636" lon="-8.780847">
        <ele>80.484</ele>
        <time>2019-04-28T16:40:39Z</time>
      </trkpt>
      <trkpt lat="41.636744" lon="-8.780902">
        <ele>80.826</ele>
        <time>2019-04-28T16:40:46Z</time>
      </trkpt>
      <trkpt lat="41.636806" lon="-8.780891">
        <ele>82.336</ele>
        <time>2019-04-28T16:40:50Z</time>
      </trkpt>
      <trkpt lat="41.637037" lon="-8.780949">
        <ele>82.310</ele>
        <time>2019-04-28T16:41:04Z</time>
      </trkpt>
      <trkpt lat="41.637085" lon="-8.780974">
        <ele>81.371</ele>
        <time>2019-04-28T16:41:15Z</time>
      </trkpt>
      <trkpt lat="41.637196" lon="-8.781041">
        <ele>79.941</ele>
        <time>2019-04-28T16:41:28Z</time>
      </trkpt>
      <trkpt lat="41.637275" lon="-8.781110">
        <ele>78.415</ele>
        <time>2019-04-28T16:41:35Z</time>
      </trkpt>
      <trkpt lat="41.637350" lon="-8.781136">
        <ele>78.908</ele>
        <time>2019-04-28T16:41:39Z</time>
      </trkpt>
      <trkpt lat="41.637475" lon="-8.781190">
        <ele>76.520</ele>
        <time>2019-04-28T16:41:51Z</time>
      </trkpt>
      <trkpt lat="41.637479" lon="-8.781192">
        <ele>76.593</ele>
        <time>2019-04-28T16:42:11Z</time>
      </trkpt>
      <trkpt lat="41.637486" lon="-8.781197">
        <ele>78.089</ele>
        <time>2019-04-28T16:42:28Z</time>
      </trkpt>
      <trkpt lat="41.637554" lon="-8.781242">
        <ele>78.487</ele>
        <time>2019-04-28T16:42:34Z</time>
      </trkpt>
      <trkpt lat="41.637664" lon="-8.781304">
        <ele>80.485</ele>
        <time>2019-04-28T16:42:40Z</time>
      </trkpt>
      <trkpt lat="41.637767" lon="-8.781310">
        <ele>82.357</ele>
        <time>2019-04-28T16:42:45Z</time>
      </trkpt>
      <trkpt lat="41.637838" lon="-8.781276">
        <ele>83.797</ele>
        <time>2019-04-28T16:42:49Z</time>
      </trkpt>
      <trkpt lat="41.638144" lon="-8.781062">
        <ele>88.141</ele>
        <time>2019-04-28T16:43:02Z</time>
      </trkpt>
      <trkpt lat="41.638302" lon="-8.780985">
        <ele>89.022</ele>
        <time>2019-04-28T16:43:07Z</time>
      </trkpt>
      <trkpt lat="41.638579" lon="-8.780780">
        <ele>88.162</ele>
        <time>2019-04-28T16:43:15Z</time>
      </trkpt>
      <trkpt lat="41.638793" lon="-8.780578">
        <ele>89.008</ele>
        <time>2019-04-28T16:43:23Z</time>
      </trkpt>
      <trkpt lat="41.638819" lon="-8.780512">
        <ele>90.508</ele>
        <time>2019-04-28T16:43:27Z</time>
      </trkpt>
      <trkpt lat="41.638799" lon="-8.780307">
        <ele>90.935</ele>
        <time>2019-04-28T16:43:39Z</time>
      </trkpt>
      <trkpt lat="41.638805" lon="-8.780237">
        <ele>90.538</ele>
        <time>2019-04-28T16:43:50Z</time>
      </trkpt>
      <trkpt lat="41.638670" lon="-8.779950">
        <ele>88.534</ele>
        <time>2019-04-28T16:43:58Z</time>
      </trkpt>
      <trkpt lat="41.638515" lon="-8.779658">
        <ele>87.132</ele>
        <time>2019-04-28T16:44:03Z</time>
      </trkpt>
      <trkpt lat="41.638516" lon="-8.779401">
        <ele>86.160</ele>
        <time>2019-04-28T16:44:06Z</time>
      </trkpt>
      <trkpt lat="41.638568" lon="-8.779117">
        <ele>85.212</ele>
        <time>2019-04-28T16:44:10Z</time>
      </trkpt>
      <trkpt lat="41.638709" lon="-8.778638">
        <ele>85.242</ele>
        <time>2019-04-28T16:44:21Z</time>
      </trkpt>
      <trkpt lat="41.638721" lon="-8.778605">
        <ele>85.296</ele>
        <time>2019-04-28T16:44:22Z</time>
      </trkpt>
      <trkpt lat="41.638733" lon="-8.778445">
        <ele>85.685</ele>
        <time>2019-04-28T16:44:26Z</time>
      </trkpt>
      <trkpt lat="41.638780" lon="-8.777930">
        <ele>84.289</ele>
        <time>2019-04-28T16:44:34Z</time>
      </trkpt>
      <trkpt lat="41.638853" lon="-8.777842">
        <ele>83.717</ele>
        <time>2019-04-28T16:44:36Z</time>
      </trkpt>
      <trkpt lat="41.639050" lon="-8.777656">
        <ele>82.808</ele>
        <time>2019-04-28T16:44:41Z</time>
      </trkpt>
      <trkpt lat="41.639100" lon="-8.777425">
        <ele>80.421</ele>
        <time>2019-04-28T16:44:45Z</time>
      </trkpt>
      <trkpt lat="41.639319" lon="-8.777175">
        <ele>78.014</ele>
        <time>2019-04-28T16:44:53Z</time>
      </trkpt>
      <trkpt lat="41.639536" lon="-8.776923">
        <ele>74.610</ele>
        <time>2019-04-28T16:44:59Z</time>
      </trkpt>
      <trkpt lat="41.639460" lon="-8.776623">
        <ele>72.798</ele>
        <time>2019-04-28T16:45:06Z</time>
      </trkpt>
      <trkpt lat="41.639232" lon="-8.776685">
        <ele>71.246</ele>
        <time>2019-04-28T16:45:12Z</time>
      </trkpt>
      <trkpt lat="41.639207" lon="-8.776744">
        <ele>71.278</ele>
        <time>2019-04-28T16:45:16Z</time>
      </trkpt>
      <trkpt lat="41.639459" lon="-8.776727">
        <ele>71.228</ele>
        <time>2019-04-28T16:45:26Z</time>
      </trkpt>
      <trkpt lat="41.639498" lon="-8.776736">
        <ele>71.292</ele>
        <time>2019-04-28T16:45:27Z</time>
      </trkpt>
      <trkpt lat="41.639619" lon="-8.776819">
        <ele>72.737</ele>
        <time>2019-04-28T16:45:32Z</time>
      </trkpt>
      <trkpt lat="41.639889" lon="-8.776597">
        <ele>73.649</ele>
        <time>2019-04-28T16:45:40Z</time>
      </trkpt>
      <trkpt lat="41.640218" lon="-8.776615">
        <ele>73.613</ele>
        <time>2019-04-28T16:45:49Z</time>
      </trkpt>
      <trkpt lat="41.640514" lon="-8.776840">
        <ele>75.108</ele>
        <time>2019-04-28T16:46:03Z</time>
      </trkpt>
      <trkpt lat="41.640775" lon="-8.776968">
        <ele>74.656</ele>
        <time>2019-04-28T16:46:14Z</time>
      </trkpt>
      <trkpt lat="41.641085" lon="-8.777155">
        <ele>75.699</ele>
        <time>2019-04-28T16:46:28Z</time>
      </trkpt>
      <trkpt lat="41.641136" lon="-8.777196">
        <ele>76.535</ele>
        <time>2019-04-28T16:46:31Z</time>
      </trkpt>
      <trkpt lat="41.641299" lon="-8.777253">
        <ele>77.043</ele>
        <time>2019-04-28T16:46:40Z</time>
      </trkpt>
      <trkpt lat="41.641651" lon="-8.777192">
        <ele>74.691</ele>
        <time>2019-04-28T16:46:53Z</time>
      </trkpt>
      <trkpt lat="41.642039" lon="-8.777013">
        <ele>71.293</ele>
        <time>2019-04-28T16:47:05Z</time>
      </trkpt>
      <trkpt lat="41.642052" lon="-8.777001">
        <ele>70.723</ele>
        <time>2019-04-28T16:47:06Z</time>
      </trkpt>
      <trkpt lat="41.642329" lon="-8.776899">
        <ele>66.457</ele>
        <time>2019-04-28T16:47:19Z</time>
      </trkpt>
      <trkpt lat="41.642367" lon="-8.776896">
        <ele>65.915</ele>
        <time>2019-04-28T16:47:20Z</time>
      </trkpt>
      <trkpt lat="41.642597" lon="-8.776962">
        <ele>63.565</ele>
        <time>2019-04-28T16:47:28Z</time>
      </trkpt>
      <trkpt lat="41.642821" lon="-8.777095">
        <ele>63.511</ele>
        <time>2019-04-28T16:47:36Z</time>
      </trkpt>
      <trkpt lat="41.643288" lon="-8.777334">
        <ele>61.608</ele>
        <time>2019-04-28T16:47:50Z</time>
      </trkpt>
      <trkpt lat="41.643874" lon="-8.777545">
        <ele>58.744</ele>
        <time>2019-04-28T16:48:04Z</time>
      </trkpt>
      <trkpt lat="41.643909" lon="-8.777559">
        <ele>56.817</ele>
        <time>2019-04-28T16:48:16Z</time>
      </trkpt>
      <trkpt lat="41.643941" lon="-8.777564">
        <ele>55.883</ele>
        <time>2019-04-28T16:48:27Z</time>
      </trkpt>
      <trkpt lat="41.643931" lon="-8.777575">
        <ele>55.831</ele>
        <time>2019-04-28T16:48:36Z</time>
      </trkpt>
      <trkpt lat="41.643922" lon="-8.777624">
        <ele>56.389</ele>
        <time>2019-04-28T16:48:45Z</time>
      </trkpt>
      <trkpt lat="41.643930" lon="-8.777635">
        <ele>56.891</ele>
        <time>2019-04-28T16:49:02Z</time>
      </trkpt>
      <trkpt lat="41.644211" lon="-8.777680">
        <ele>56.361</ele>
        <time>2019-04-28T16:49:13Z</time>
      </trkpt>
      <trkpt lat="41.644425" lon="-8.777758">
        <ele>55.475</ele>
        <time>2019-04-28T16:49:20Z</time>
      </trkpt>
      <trkpt lat="41.644986" lon="-8.778319">
        <ele>50.112</ele>
        <time>2019-04-28T16:49:32Z</time>
      </trkpt>
      <trkpt lat="41.645979" lon="-8.779132">
        <ele>44.332</ele>
        <time>2019-04-28T16:49:48Z</time>
      </trkpt>
      <trkpt lat="41.646026" lon="-8.779178">
        <ele>43.805</ele>
        <time>2019-04-28T16:49:49Z</time>
      </trkpt>
      <trkpt lat="41.646122" lon="-8.779334">
        <ele>42.908</ele>
        <time>2019-04-28T16:49:52Z</time>
      </trkpt>
      <trkpt lat="41.646270" lon="-8.779971">
        <ele>40.014</ele>
        <time>2019-04-28T16:50:03Z</time>
      </trkpt>
      <trkpt lat="41.646437" lon="-8.780467">
        <ele>40.097</ele>
        <time>2019-04-28T16:50:13Z</time>
      </trkpt>
      <trkpt lat="41.646497" lon="-8.780955">
        <ele>39.543</ele>
        <time>2019-04-28T16:50:25Z</time>
      </trkpt>
      <trkpt lat="41.646424" lon="-8.781453">
        <ele>37.121</ele>
        <time>2019-04-28T16:50:37Z</time>
      </trkpt>
      <trkpt lat="41.646361" lon="-8.781761">
        <ele>36.669</ele>
        <time>2019-04-28T16:50:44Z</time>
      </trkpt>
      <trkpt lat="41.646313" lon="-8.782145">
        <ele>35.751</ele>
        <time>2019-04-28T16:50:51Z</time>
      </trkpt>
      <trkpt lat="41.646397" lon="-8.782225">
        <ele>35.291</ele>
        <time>2019-04-28T16:50:55Z</time>
      </trkpt>
      <trkpt lat="41.646916" lon="-8.782213">
        <ele>33.785</ele>
        <time>2019-04-28T16:51:13Z</time>
      </trkpt>
      <trkpt lat="41.647335" lon="-8.782213">
        <ele>37.178</ele>
        <time>2019-04-28T16:51:27Z</time>
      </trkpt>
      <trkpt lat="41.647736" lon="-8.782314">
        <ele>40.033</ele>
        <time>2019-04-28T16:51:42Z</time>
      </trkpt>
      <trkpt lat="41.647961" lon="-8.782150">
        <ele>40.026</ele>
        <time>2019-04-28T16:51:51Z</time>
      </trkpt>
      <trkpt lat="41.648363" lon="-8.781911">
        <ele>39.508</ele>
        <time>2019-04-28T16:52:05Z</time>
      </trkpt>
      <trkpt lat="41.648748" lon="-8.781741">
        <ele>38.120</ele>
        <time>2019-04-28T16:52:16Z</time>
      </trkpt>
      <trkpt lat="41.649309" lon="-8.781683">
        <ele>38.563</ele>
        <time>2019-04-28T16:52:30Z</time>
      </trkpt>
      <trkpt lat="41.649488" lon="-8.781733">
        <ele>38.159</ele>
        <time>2019-04-28T16:52:37Z</time>
      </trkpt>
      <trkpt lat="41.649557" lon="-8.781568">
        <ele>39.517</ele>
        <time>2019-04-28T16:52:46Z</time>
      </trkpt>
      <trkpt lat="41.649497" lon="-8.781510">
        <ele>40.085</ele>
        <time>2019-04-28T16:52:52Z</time>
      </trkpt>
      <trkpt lat="41.649510" lon="-8.781435">
        <ele>40.087</ele>
        <time>2019-04-28T16:52:59Z</time>
      </trkpt>
      <trkpt lat="41.649542" lon="-8.781339">
        <ele>39.017</ele>
        <time>2019-04-28T16:53:11Z</time>
      </trkpt>
      <trkpt lat="41.649553" lon="-8.781367">
        <ele>39.541</ele>
        <time>2019-04-28T16:53:15Z</time>
      </trkpt>
      <trkpt lat="41.649542" lon="-8.781615">
        <ele>40.054</ele>
        <time>2019-04-28T16:53:25Z</time>
      </trkpt>
      <trkpt lat="41.649581" lon="-8.781751">
        <ele>39.556</ele>
        <time>2019-04-28T16:53:30Z</time>
      </trkpt>
      <trkpt lat="41.649438" lon="-8.782148">
        <ele>38.511</ele>
        <time>2019-04-28T16:53:41Z</time>
      </trkpt>
      <trkpt lat="41.649336" lon="-8.782575">
        <ele>38.508</ele>
        <time>2019-04-28T16:53:52Z</time>
      </trkpt>
      <trkpt lat="41.649206" lon="-8.782983">
        <ele>37.688</ele>
        <time>2019-04-28T16:54:02Z</time>
      </trkpt>
      <trkpt lat="41.649275" lon="-8.783114">
        <ele>37.181</ele>
        <time>2019-04-28T16:54:06Z</time>
      </trkpt>
      <trkpt lat="41.649823" lon="-8.783456">
        <ele>35.257</ele>
        <time>2019-04-28T16:54:19Z</time>
      </trkpt>
      <trkpt lat="41.650079" lon="-8.783557">
        <ele>35.295</ele>
        <time>2019-04-28T16:54:25Z</time>
      </trkpt>
      <trkpt lat="41.650166" lon="-8.783585">
        <ele>35.253</ele>
        <time>2019-04-28T16:54:27Z</time>
      </trkpt>
      <trkpt lat="41.650772" lon="-8.783841">
        <ele>33.725</ele>
        <time>2019-04-28T16:54:40Z</time>
      </trkpt>
      <trkpt lat="41.651005" lon="-8.783992">
        <ele>32.365</ele>
        <time>2019-04-28T16:54:45Z</time>
      </trkpt>
      <trkpt lat="41.651095" lon="-8.784052">
        <ele>31.319</ele>
        <time>2019-04-28T16:54:47Z</time>
      </trkpt>
      <trkpt lat="41.651195" lon="-8.784189">
        <ele>30.921</ele>
        <time>2019-04-28T16:54:50Z</time>
      </trkpt>
      <trkpt lat="41.651294" lon="-8.784310">
        <ele>30.441</ele>
        <time>2019-04-28T16:54:53Z</time>
      </trkpt>
      <trkpt lat="41.651379" lon="-8.784509">
        <ele>29.905</ele>
        <time>2019-04-28T16:54:57Z</time>
      </trkpt>
      <trkpt lat="41.651359" lon="-8.784913">
        <ele>28.908</ele>
        <time>2019-04-28T16:55:04Z</time>
      </trkpt>
      <trkpt lat="41.651178" lon="-8.785266">
        <ele>29.495</ele>
        <time>2019-04-28T16:55:13Z</time>
      </trkpt>
      <trkpt lat="41.651377" lon="-8.785643">
        <ele>29.978</ele>
        <time>2019-04-28T16:55:23Z</time>
      </trkpt>
      <trkpt lat="41.651690" lon="-8.786213">
        <ele>28.574</ele>
        <time>2019-04-28T16:55:36Z</time>
      </trkpt>
      <trkpt lat="41.651810" lon="-8.786366">
        <ele>28.022</ele>
        <time>2019-04-28T16:55:40Z</time>
      </trkpt>
      <trkpt lat="41.651875" lon="-8.786436">
        <ele>28.060</ele>
        <time>2019-04-28T16:55:42Z</time>
      </trkpt>
      <trkpt lat="41.652411" lon="-8.786851">
        <ele>28.082</ele>
        <time>2019-04-28T16:55:57Z</time>
      </trkpt>
      <trkpt lat="41.652806" lon="-8.787075">
        <ele>28.542</ele>
        <time>2019-04-28T16:56:09Z</time>
      </trkpt>
      <trkpt lat="41.653161" lon="-8.786710">
        <ele>29.466</ele>
        <time>2019-04-28T16:56:21Z</time>
      </trkpt>
      <trkpt lat="41.653588" lon="-8.786665">
        <ele>28.563</ele>
        <time>2019-04-28T16:56:32Z</time>
      </trkpt>
      <trkpt lat="41.653883" lon="-8.786935">
        <ele>27.044</ele>
        <time>2019-04-28T16:56:41Z</time>
      </trkpt>
      <trkpt lat="41.654163" lon="-8.787035">
        <ele>27.518</ele>
        <time>2019-04-28T16:56:49Z</time>
      </trkpt>
      <trkpt lat="41.654248" lon="-8.787038">
        <ele>27.508</ele>
        <time>2019-04-28T16:56:51Z</time>
      </trkpt>
      <trkpt lat="41.654474" lon="-8.787116">
        <ele>26.589</ele>
        <time>2019-04-28T16:57:01Z</time>
      </trkpt>
      <trkpt lat="41.654462" lon="-8.787123">
        <ele>25.142</ele>
        <time>2019-04-28T16:57:26Z</time>
      </trkpt>
      <trkpt lat="41.654507" lon="-8.787137">
        <ele>24.648</ele>
        <time>2019-04-28T16:57:53Z</time>
      </trkpt>
      <trkpt lat="41.654846" lon="-8.787256">
        <ele>24.136</ele>
        <time>2019-04-28T16:58:06Z</time>
      </trkpt>
      <trkpt lat="41.655119" lon="-8.787617">
        <ele>23.654</ele>
        <time>2019-04-28T16:58:17Z</time>
      </trkpt>
      <trkpt lat="41.655590" lon="-8.788018">
        <ele>23.676</ele>
        <time>2019-04-28T16:58:32Z</time>
      </trkpt>
      <trkpt lat="41.656047" lon="-8.788399">
        <ele>24.126</ele>
        <time>2019-04-28T16:58:47Z</time>
      </trkpt>
      <trkpt lat="41.656388" lon="-8.788904">
        <ele>24.140</ele>
        <time>2019-04-28T16:59:00Z</time>
      </trkpt>
      <trkpt lat="41.656417" lon="-8.788952">
        <ele>24.161</ele>
        <time>2019-04-28T16:59:01Z</time>
      </trkpt>
      <trkpt lat="41.656561" lon="-8.789159">
        <ele>23.621</ele>
        <time>2019-04-28T16:59:05Z</time>
      </trkpt>
      <trkpt lat="41.656621" lon="-8.789289">
        <ele>23.213</ele>
        <time>2019-04-28T16:59:07Z</time>
      </trkpt>
      <trkpt lat="41.656737" lon="-8.789914">
        <ele>21.208</ele>
        <time>2019-04-28T16:59:15Z</time>
      </trkpt>
      <trkpt lat="41.656858" lon="-8.790160">
        <ele>20.319</ele>
        <time>2019-04-28T16:59:19Z</time>
      </trkpt>
      <trkpt lat="41.657087" lon="-8.790206">
        <ele>19.842</ele>
        <time>2019-04-28T16:59:24Z</time>
      </trkpt>
      <trkpt lat="41.657415" lon="-8.789954">
        <ele>20.818</ele>
        <time>2019-04-28T16:59:33Z</time>
      </trkpt>
      <trkpt lat="41.657689" lon="-8.789929">
        <ele>20.336</ele>
        <time>2019-04-28T16:59:38Z</time>
      </trkpt>
      <trkpt lat="41.657795" lon="-8.789949">
        <ele>19.834</ele>
        <time>2019-04-28T16:59:40Z</time>
      </trkpt>
      <trkpt lat="41.658017" lon="-8.789960">
        <ele>18.436</ele>
        <time>2019-04-28T16:59:44Z</time>
      </trkpt>
      <trkpt lat="41.658127" lon="-8.789940">
        <ele>17.956</ele>
        <time>2019-04-28T16:59:46Z</time>
      </trkpt>
      <trkpt lat="41.658554" lon="-8.789720">
        <ele>16.460</ele>
        <time>2019-04-28T16:59:55Z</time>
      </trkpt>
      <trkpt lat="41.658767" lon="-8.789409">
        <ele>16.963</ele>
        <time>2019-04-28T17:00:02Z</time>
      </trkpt>
      <trkpt lat="41.658804" lon="-8.789287">
        <ele>16.944</ele>
        <time>2019-04-28T17:00:04Z</time>
      </trkpt>
      <trkpt lat="41.658925" lon="-8.789014">
        <ele>17.918</ele>
        <time>2019-04-28T17:00:09Z</time>
      </trkpt>
      <trkpt lat="41.658954" lon="-8.788752">
        <ele>18.408</ele>
        <time>2019-04-28T17:00:14Z</time>
      </trkpt>
      <trkpt lat="41.658956" lon="-8.788578">
        <ele>19.879</ele>
        <time>2019-04-28T17:00:18Z</time>
      </trkpt>
      <trkpt lat="41.659297" lon="-8.788322">
        <ele>20.872</ele>
        <time>2019-04-28T17:00:28Z</time>
      </trkpt>
      <trkpt lat="41.659561" lon="-8.788136">
        <ele>21.218</ele>
        <time>2019-04-28T17:00:35Z</time>
      </trkpt>
      <trkpt lat="41.659760" lon="-8.788026">
        <ele>21.236</ele>
        <time>2019-04-28T17:00:40Z</time>
      </trkpt>
      <trkpt lat="41.660242" lon="-8.787661">
        <ele>21.714</ele>
        <time>2019-04-28T17:00:54Z</time>
      </trkpt>
      <trkpt lat="41.660411" lon="-8.787571">
        <ele>22.236</ele>
        <time>2019-04-28T17:01:00Z</time>
      </trkpt>
      <trkpt lat="41.660762" lon="-8.788016">
        <ele>20.856</ele>
        <time>2019-04-28T17:01:14Z</time>
      </trkpt>
      <trkpt lat="41.660913" lon="-8.788466">
        <ele>22.790</ele>
        <time>2019-04-28T17:01:27Z</time>
      </trkpt>
      <trkpt lat="41.661057" lon="-8.788848">
        <ele>23.654</ele>
        <time>2019-04-28T17:01:38Z</time>
      </trkpt>
      <trkpt lat="41.661334" lon="-8.789522">
        <ele>22.256</ele>
        <time>2019-04-28T17:01:55Z</time>
      </trkpt>
      <trkpt lat="41.661497" lon="-8.790276">
        <ele>23.211</ele>
        <time>2019-04-28T17:02:11Z</time>
      </trkpt>
      <trkpt lat="41.661724" lon="-8.791015">
        <ele>23.208</ele>
        <time>2019-04-28T17:02:27Z</time>
      </trkpt>
      <trkpt lat="41.662043" lon="-8.791470">
        <ele>23.268</ele>
        <time>2019-04-28T17:02:40Z</time>
      </trkpt>
      <trkpt lat="41.662306" lon="-8.792026">
        <ele>24.671</ele>
        <time>2019-04-28T17:02:55Z</time>
      </trkpt>
      <trkpt lat="41.662399" lon="-8.792318">
        <ele>27.047</ele>
        <time>2019-04-28T17:03:06Z</time>
      </trkpt>
      <trkpt lat="41.662563" lon="-8.792619">
        <ele>27.545</ele>
        <time>2019-04-28T17:03:20Z</time>
      </trkpt>
      <trkpt lat="41.662734" lon="-8.792889">
        <ele>29.953</ele>
        <time>2019-04-28T17:03:35Z</time>
      </trkpt>
      <trkpt lat="41.662748" lon="-8.792900">
        <ele>30.425</ele>
        <time>2019-04-28T17:03:36Z</time>
      </trkpt>
      <trkpt lat="41.662912" lon="-8.792968">
        <ele>33.775</ele>
        <time>2019-04-28T17:03:46Z</time>
      </trkpt>
      <trkpt lat="41.662934" lon="-8.792985">
        <ele>33.749</ele>
        <time>2019-04-28T17:03:48Z</time>
      </trkpt>
      <trkpt lat="41.663001" lon="-8.793059">
        <ele>34.265</ele>
        <time>2019-04-28T17:03:54Z</time>
      </trkpt>
      <trkpt lat="41.663063" lon="-8.793166">
        <ele>35.268</ele>
        <time>2019-04-28T17:03:59Z</time>
      </trkpt>
      <trkpt lat="41.663141" lon="-8.793502">
        <ele>40.914</ele>
        <time>2019-04-28T17:04:13Z</time>
      </trkpt>
      <trkpt lat="41.663211" lon="-8.793546">
        <ele>42.408</ele>
        <time>2019-04-28T17:04:18Z</time>
      </trkpt>
      <trkpt lat="41.663259" lon="-8.793494">
        <ele>43.439</ele>
        <time>2019-04-28T17:04:22Z</time>
      </trkpt>
      <trkpt lat="41.663349" lon="-8.793505">
        <ele>42.912</ele>
        <time>2019-04-28T17:04:33Z</time>
      </trkpt>
      <trkpt lat="41.663351" lon="-8.793503">
        <ele>41.498</ele>
        <time>2019-04-28T17:04:59Z</time>
      </trkpt>
      <trkpt lat="41.663365" lon="-8.793508">
        <ele>40.956</ele>
        <time>2019-04-28T17:05:27Z</time>
      </trkpt>
      <trkpt lat="41.663374" lon="-8.793511">
        <ele>39.574</ele>
        <time>2019-04-28T17:06:01Z</time>
      </trkpt>
      <trkpt lat="41.663365" lon="-8.793500">
        <ele>40.056</ele>
        <time>2019-04-28T17:06:25Z</time>
      </trkpt>
      <trkpt lat="41.663330" lon="-8.793492">
        <ele>40.016</ele>
        <time>2019-04-28T17:06:36Z</time>
      </trkpt>
      <trkpt lat="41.663311" lon="-8.793497">
        <ele>40.050</ele>
        <time>2019-04-28T17:06:39Z</time>
      </trkpt>
      <trkpt lat="41.663322" lon="-8.793547">
        <ele>39.023</ele>
        <time>2019-04-28T17:06:46Z</time>
      </trkpt>
      <trkpt lat="41.663420" lon="-8.793606">
        <ele>37.683</ele>
        <time>2019-04-28T17:06:54Z</time>
      </trkpt>
      <trkpt lat="41.663477" lon="-8.793770">
        <ele>35.711</ele>
        <time>2019-04-28T17:07:01Z</time>
      </trkpt>
      <trkpt lat="41.663555" lon="-8.794250">
        <ele>34.708</ele>
        <time>2019-04-28T17:07:14Z</time>
      </trkpt>
      <trkpt lat="41.663910" lon="-8.794466">
        <ele>35.225</ele>
        <time>2019-04-28T17:07:27Z</time>
      </trkpt>
      <trkpt lat="41.664282" lon="-8.794376">
        <ele>38.558</ele>
        <time>2019-04-28T17:07:40Z</time>
      </trkpt>
      <trkpt lat="41.664331" lon="-8.794360">
        <ele>39.044</ele>
        <time>2019-04-28T17:07:42Z</time>
      </trkpt>
      <trkpt lat="41.664348" lon="-8.794437">
        <ele>40.082</ele>
        <time>2019-04-28T17:07:52Z</time>
      </trkpt>
      <trkpt lat="41.664352" lon="-8.794431">
        <ele>41.470</ele>
        <time>2019-04-28T17:08:17Z</time>
      </trkpt>
      <trkpt lat="41.664355" lon="-8.794423">
        <ele>40.992</ele>
        <time>2019-04-28T17:08:50Z</time>
      </trkpt>
      <trkpt lat="41.664340" lon="-8.794417">
        <ele>40.962</ele>
        <time>2019-04-28T17:09:30Z</time>
      </trkpt>
      <trkpt lat="41.664332" lon="-8.794424">
        <ele>40.946</ele>
        <time>2019-04-28T17:10:06Z</time>
      </trkpt>
      <trkpt lat="41.664335" lon="-8.794427">
        <ele>40.525</ele>
        <time>2019-04-28T17:10:37Z</time>
      </trkpt>
      <trkpt lat="41.664340" lon="-8.794434">
        <ele>41.426</ele>
        <time>2019-04-28T17:11:09Z</time>
      </trkpt>
      <trkpt lat="41.664329" lon="-8.794437">
        <ele>41.908</ele>
        <time>2019-04-28T17:11:42Z</time>
      </trkpt>
      <trkpt lat="41.664322" lon="-8.794428">
        <ele>41.908</ele>
        <time>2019-04-28T17:12:18Z</time>
      </trkpt>
      <trkpt lat="41.664318" lon="-8.794426">
        <ele>42.475</ele>
        <time>2019-04-28T17:12:55Z</time>
      </trkpt>
      <trkpt lat="41.664318" lon="-8.794424">
        <ele>42.438</ele>
        <time>2019-04-28T17:13:32Z</time>
      </trkpt>
      <trkpt lat="41.664321" lon="-8.794426">
        <ele>42.444</ele>
        <time>2019-04-28T17:14:14Z</time>
      </trkpt>
      <trkpt lat="41.664327" lon="-8.794424">
        <ele>40.922</ele>
        <time>2019-04-28T17:14:46Z</time>
      </trkpt>
      <trkpt lat="41.664333" lon="-8.794429">
        <ele>41.470</ele>
        <time>2019-04-28T17:15:19Z</time>
      </trkpt>
      <trkpt lat="41.664343" lon="-8.794434">
        <ele>41.452</ele>
        <time>2019-04-28T17:15:54Z</time>
      </trkpt>
      <trkpt lat="41.664335" lon="-8.794414">
        <ele>40.942</ele>
        <time>2019-04-28T17:16:26Z</time>
      </trkpt>
      <trkpt lat="41.664332" lon="-8.794420">
        <ele>41.496</ele>
        <time>2019-04-28T17:17:08Z</time>
      </trkpt>
      <trkpt lat="41.664331" lon="-8.794431">
        <ele>41.485</ele>
        <time>2019-04-28T17:17:48Z</time>
      </trkpt>
      <trkpt lat="41.664335" lon="-8.794423">
        <ele>41.489</ele>
        <time>2019-04-28T17:18:28Z</time>
      </trkpt>
      <trkpt lat="41.664346" lon="-8.794420">
        <ele>40.917</ele>
        <time>2019-04-28T17:19:02Z</time>
      </trkpt>
      <trkpt lat="41.664347" lon="-8.794426">
        <ele>40.908</ele>
        <time>2019-04-28T17:19:35Z</time>
      </trkpt>
      <trkpt lat="41.664357" lon="-8.794435">
        <ele>40.511</ele>
        <time>2019-04-28T17:20:08Z</time>
      </trkpt>
      <trkpt lat="41.664355" lon="-8.794433">
        <ele>40.074</ele>
        <time>2019-04-28T17:20:42Z</time>
      </trkpt>
      <trkpt lat="41.664359" lon="-8.794426">
        <ele>40.550</ele>
        <time>2019-04-28T17:21:19Z</time>
      </trkpt>
      <trkpt lat="41.664362" lon="-8.794434">
        <ele>40.998</ele>
        <time>2019-04-28T17:21:51Z</time>
      </trkpt>
      <trkpt lat="41.664360" lon="-8.794439">
        <ele>40.956</ele>
        <time>2019-04-28T17:22:26Z</time>
      </trkpt>
      <trkpt lat="41.664350" lon="-8.794432">
        <ele>40.528</ele>
        <time>2019-04-28T17:22:54Z</time>
      </trkpt>
      <trkpt lat="41.664343" lon="-8.794425">
        <ele>41.958</ele>
        <time>2019-04-28T17:23:17Z</time>
      </trkpt>
      <trkpt lat="41.664342" lon="-8.794423">
        <ele>42.972</ele>
        <time>2019-04-28T17:23:48Z</time>
      </trkpt>
      <trkpt lat="41.664338" lon="-8.794417">
        <ele>42.428</ele>
        <time>2019-04-28T17:24:24Z</time>
      </trkpt>
      <trkpt lat="41.664350" lon="-8.794415">
        <ele>42.989</ele>
        <time>2019-04-28T17:24:56Z</time>
      </trkpt>
      <trkpt lat="41.664357" lon="-8.794409">
        <ele>43.417</ele>
        <time>2019-04-28T17:25:31Z</time>
      </trkpt>
      <trkpt lat="41.664360" lon="-8.794406">
        <ele>43.808</ele>
        <time>2019-04-28T17:26:13Z</time>
      </trkpt>
      <trkpt lat="41.664360" lon="-8.794414">
        <ele>43.885</ele>
        <time>2019-04-28T17:26:47Z</time>
      </trkpt>
      <trkpt lat="41.664364" lon="-8.794423">
        <ele>43.818</ele>
        <time>2019-04-28T17:27:19Z</time>
      </trkpt>
      <trkpt lat="41.664356" lon="-8.794442">
        <ele>43.844</ele>
        <time>2019-04-28T17:27:55Z</time>
      </trkpt>
      <trkpt lat="41.664342" lon="-8.794445">
        <ele>43.832</ele>
        <time>2019-04-28T17:28:21Z</time>
      </trkpt>
      <trkpt lat="41.664330" lon="-8.794439">
        <ele>43.820</ele>
        <time>2019-04-28T17:28:55Z</time>
      </trkpt>
      <trkpt lat="41.664330" lon="-8.794440">
        <ele>43.852</ele>
        <time>2019-04-28T17:29:30Z</time>
      </trkpt>
      <trkpt lat="41.664331" lon="-8.794441">
        <ele>44.362</ele>
        <time>2019-04-28T17:30:01Z</time>
      </trkpt>
      <trkpt lat="41.664332" lon="-8.794434">
        <ele>42.936</ele>
        <time>2019-04-28T17:30:31Z</time>
      </trkpt>
      <trkpt lat="41.664333" lon="-8.794438">
        <ele>42.416</ele>
        <time>2019-04-28T17:31:05Z</time>
      </trkpt>
      <trkpt lat="41.664334" lon="-8.794446">
        <ele>41.476</ele>
        <time>2019-04-28T17:31:39Z</time>
      </trkpt>
      <trkpt lat="41.664331" lon="-8.794437">
        <ele>40.513</ele>
        <time>2019-04-28T17:32:11Z</time>
      </trkpt>
      <trkpt lat="41.664335" lon="-8.794426">
        <ele>40.908</ele>
        <time>2019-04-28T17:32:41Z</time>
      </trkpt>
      <trkpt lat="41.664344" lon="-8.794420">
        <ele>40.954</ele>
        <time>2019-04-28T17:33:13Z</time>
      </trkpt>
      <trkpt lat="41.664346" lon="-8.794412">
        <ele>41.447</ele>
        <time>2019-04-28T17:33:45Z</time>
      </trkpt>
      <trkpt lat="41.664347" lon="-8.794415">
        <ele>41.933</ele>
        <time>2019-04-28T17:34:13Z</time>
      </trkpt>
      <trkpt lat="41.664352" lon="-8.794417">
        <ele>41.981</ele>
        <time>2019-04-28T17:34:41Z</time>
      </trkpt>
      <trkpt lat="41.664358" lon="-8.794405">
        <ele>40.939</ele>
        <time>2019-04-28T17:35:09Z</time>
      </trkpt>
      <trkpt lat="41.664359" lon="-8.794402">
        <ele>40.531</ele>
        <time>2019-04-28T17:35:35Z</time>
      </trkpt>
      <trkpt lat="41.664362" lon="-8.794404">
        <ele>40.571</ele>
        <time>2019-04-28T17:36:04Z</time>
      </trkpt>
      <trkpt lat="41.664361" lon="-8.794402">
        <ele>40.595</ele>
        <time>2019-04-28T17:36:36Z</time>
      </trkpt>
      <trkpt lat="41.664357" lon="-8.794412">
        <ele>40.991</ele>
        <time>2019-04-28T17:37:05Z</time>
      </trkpt>
      <trkpt lat="41.664350" lon="-8.794412">
        <ele>40.981</ele>
        <time>2019-04-28T17:37:38Z</time>
      </trkpt>
      <trkpt lat="41.664344" lon="-8.794412">
        <ele>40.519</ele>
        <time>2019-04-28T17:38:07Z</time>
      </trkpt>
      <trkpt lat="41.664338" lon="-8.794418">
        <ele>40.008</ele>
        <time>2019-04-28T17:38:37Z</time>
      </trkpt>
      <trkpt lat="41.664344" lon="-8.794424">
        <ele>40.542</ele>
        <time>2019-04-28T17:39:09Z</time>
      </trkpt>
      <trkpt lat="41.664344" lon="-8.794421">
        <ele>40.945</ele>
        <time>2019-04-28T17:39:47Z</time>
      </trkpt>
      <trkpt lat="41.664347" lon="-8.794429">
        <ele>40.971</ele>
        <time>2019-04-28T17:40:24Z</time>
      </trkpt>
      <trkpt lat="41.664346" lon="-8.794434">
        <ele>41.429</ele>
        <time>2019-04-28T17:40:57Z</time>
      </trkpt>
      <trkpt lat="41.664350" lon="-8.794441">
        <ele>41.937</ele>
        <time>2019-04-28T17:41:24Z</time>
      </trkpt>
      <trkpt lat="41.664341" lon="-8.794422">
        <ele>42.489</ele>
        <time>2019-04-28T17:41:44Z</time>
      </trkpt>
      <trkpt lat="41.664332" lon="-8.794380">
        <ele>42.999</ele>
        <time>2019-04-28T17:41:51Z</time>
      </trkpt>
      <trkpt lat="41.664274" lon="-8.794351">
        <ele>42.973</ele>
        <time>2019-04-28T17:41:56Z</time>
      </trkpt>
      <trkpt lat="41.664202" lon="-8.794398">
        <ele>42.482</ele>
        <time>2019-04-28T17:42:00Z</time>
      </trkpt>
      <trkpt lat="41.664186" lon="-8.794424">
        <ele>41.943</ele>
        <time>2019-04-28T17:42:02Z</time>
      </trkpt>
      <trkpt lat="41.664236" lon="-8.794529">
        <ele>38.117</ele>
        <time>2019-04-28T17:42:11Z</time>
      </trkpt>
      <trkpt lat="41.664229" lon="-8.794539">
        <ele>37.608</ele>
        <time>2019-04-28T17:42:38Z</time>
      </trkpt>
      <trkpt lat="41.664227" lon="-8.794540">
        <ele>37.661</ele>
        <time>2019-04-28T17:42:46Z</time>
      </trkpt>
      <trkpt lat="41.664476" lon="-8.794536">
        <ele>40.584</ele>
        <time>2019-04-28T17:42:57Z</time>
      </trkpt>
      <trkpt lat="41.664974" lon="-8.794670">
        <ele>39.550</ele>
        <time>2019-04-28T17:43:10Z</time>
      </trkpt>
      <trkpt lat="41.665403" lon="-8.794771">
        <ele>39.098</ele>
        <time>2019-04-28T17:43:22Z</time>
      </trkpt>
      <trkpt lat="41.665728" lon="-8.794680">
        <ele>41.456</ele>
        <time>2019-04-28T17:43:34Z</time>
      </trkpt>
      <trkpt lat="41.666064" lon="-8.794617">
        <ele>44.398</ele>
        <time>2019-04-28T17:43:48Z</time>
      </trkpt>
      <trkpt lat="41.666445" lon="-8.794666">
        <ele>49.188</ele>
        <time>2019-04-28T17:44:04Z</time>
      </trkpt>
      <trkpt lat="41.666727" lon="-8.794770">
        <ele>49.162</ele>
        <time>2019-04-28T17:44:16Z</time>
      </trkpt>
      <trkpt lat="41.666874" lon="-8.794834">
        <ele>48.621</ele>
        <time>2019-04-28T17:44:24Z</time>
      </trkpt>
      <trkpt lat="41.667113" lon="-8.794860">
        <ele>52.041</ele>
        <time>2019-04-28T17:44:36Z</time>
      </trkpt>
      <trkpt lat="41.667341" lon="-8.795074">
        <ele>53.405</ele>
        <time>2019-04-28T17:44:48Z</time>
      </trkpt>
      <trkpt lat="41.667605" lon="-8.795320">
        <ele>53.008</ele>
        <time>2019-04-28T17:45:01Z</time>
      </trkpt>
      <trkpt lat="41.667859" lon="-8.795106">
        <ele>53.995</ele>
        <time>2019-04-28T17:45:14Z</time>
      </trkpt>
      <trkpt lat="41.668006" lon="-8.794978">
        <ele>55.468</ele>
        <time>2019-04-28T17:45:25Z</time>
      </trkpt>
      <trkpt lat="41.668014" lon="-8.794975">
        <ele>55.884</ele>
        <time>2019-04-28T17:45:26Z</time>
      </trkpt>
      <trkpt lat="41.668185" lon="-8.794855">
        <ele>58.392</ele>
        <time>2019-04-28T17:45:39Z</time>
      </trkpt>
      <trkpt lat="41.668295" lon="-8.794625">
        <ele>62.610</ele>
        <time>2019-04-28T17:45:52Z</time>
      </trkpt>
      <trkpt lat="41.668373" lon="-8.794499">
        <ele>64.582</ele>
        <time>2019-04-28T17:46:03Z</time>
      </trkpt>
      <trkpt lat="41.668588" lon="-8.794789">
        <ele>65.072</ele>
        <time>2019-04-28T17:46:20Z</time>
      </trkpt>
      <trkpt lat="41.668609" lon="-8.794832">
        <ele>65.076</ele>
        <time>2019-04-28T17:46:22Z</time>
      </trkpt>
      <trkpt lat="41.668758" lon="-8.795188">
        <ele>66.494</ele>
        <time>2019-04-28T17:46:37Z</time>
      </trkpt>
      <trkpt lat="41.669036" lon="-8.795536">
        <ele>65.957</ele>
        <time>2019-04-28T17:46:55Z</time>
      </trkpt>
      <trkpt lat="41.669485" lon="-8.795696">
        <ele>67.422</ele>
        <time>2019-04-28T17:47:15Z</time>
      </trkpt>
      <trkpt lat="41.669804" lon="-8.795847">
        <ele>70.308</ele>
        <time>2019-04-28T17:47:30Z</time>
      </trkpt>
      <trkpt lat="41.670157" lon="-8.796106">
        <ele>72.722</ele>
        <time>2019-04-28T17:47:42Z</time>
      </trkpt>
      <trkpt lat="41.670517" lon="-8.796373">
        <ele>78.935</ele>
        <time>2019-04-28T17:47:55Z</time>
      </trkpt>
      <trkpt lat="41.670860" lon="-8.796598">
        <ele>84.761</ele>
        <time>2019-04-28T17:48:08Z</time>
      </trkpt>
      <trkpt lat="41.671120" lon="-8.796777">
        <ele>90.549</ele>
        <time>2019-04-28T17:48:19Z</time>
      </trkpt>
      <trkpt lat="41.671235" lon="-8.796842">
        <ele>91.457</ele>
        <time>2019-04-28T17:48:26Z</time>
      </trkpt>
      <trkpt lat="41.671155" lon="-8.796811">
        <ele>90.539</ele>
        <time>2019-04-28T17:48:35Z</time>
      </trkpt>
      <trkpt lat="41.671209" lon="-8.796811">
        <ele>90.519</ele>
        <time>2019-04-28T17:48:38Z</time>
      </trkpt>
      <trkpt lat="41.671241" lon="-8.796847">
        <ele>90.583</ele>
        <time>2019-04-28T17:48:40Z</time>
      </trkpt>
      <trkpt lat="41.671247" lon="-8.796905">
        <ele>90.925</ele>
        <time>2019-04-28T17:48:49Z</time>
      </trkpt>
      <trkpt lat="41.671228" lon="-8.796901">
        <ele>90.926</ele>
        <time>2019-04-28T17:48:50Z</time>
      </trkpt>
      <trkpt lat="41.671146" lon="-8.796861">
        <ele>90.908</ele>
        <time>2019-04-28T17:49:07Z</time>
      </trkpt>
      <trkpt lat="41.671134" lon="-8.796855">
        <ele>91.908</ele>
        <time>2019-04-28T17:49:28Z</time>
      </trkpt>
      <trkpt lat="41.671189" lon="-8.796817">
        <ele>91.445</ele>
        <time>2019-04-28T17:49:33Z</time>
      </trkpt>
      <trkpt lat="41.671463" lon="-8.796982">
        <ele>93.338</ele>
        <time>2019-04-28T17:49:47Z</time>
      </trkpt>
      <trkpt lat="41.671726" lon="-8.797148">
        <ele>94.354</ele>
        <time>2019-04-28T17:50:00Z</time>
      </trkpt>
      <trkpt lat="41.671958" lon="-8.797469">
        <ele>98.122</ele>
        <time>2019-04-28T17:50:18Z</time>
      </trkpt>
      <trkpt lat="41.671988" lon="-8.797527">
        <ele>99.150</ele>
        <time>2019-04-28T17:50:21Z</time>
      </trkpt>
      <trkpt lat="41.672181" lon="-8.797809">
        <ele>101.562</ele>
        <time>2019-04-28T17:50:35Z</time>
      </trkpt>
      <trkpt lat="41.672413" lon="-8.798167">
        <ele>102.082</ele>
        <time>2019-04-28T17:50:51Z</time>
      </trkpt>
      <trkpt lat="41.672586" lon="-8.798503">
        <ele>104.996</ele>
        <time>2019-04-28T17:51:05Z</time>
      </trkpt>
      <trkpt lat="41.672742" lon="-8.798799">
        <ele>105.852</ele>
        <time>2019-04-28T17:51:18Z</time>
      </trkpt>
      <trkpt lat="41.672706" lon="-8.798752">
        <ele>104.453</ele>
        <time>2019-04-28T17:51:26Z</time>
      </trkpt>
      <trkpt lat="41.672725" lon="-8.798770">
        <ele>103.908</ele>
        <time>2019-04-28T17:51:27Z</time>
      </trkpt>
      <trkpt lat="41.672938" lon="-8.799248">
        <ele>103.408</ele>
        <time>2019-04-28T17:51:44Z</time>
      </trkpt>
      <trkpt lat="41.673153" lon="-8.799697">
        <ele>105.818</ele>
        <time>2019-04-28T17:52:00Z</time>
      </trkpt>
      <trkpt lat="41.673505" lon="-8.800179">
        <ele>104.411</ele>
        <time>2019-04-28T17:52:12Z</time>
      </trkpt>
      <trkpt lat="41.673980" lon="-8.800780">
        <ele>100.647</ele>
        <time>2019-04-28T17:52:22Z</time>
      </trkpt>
      <trkpt lat="41.674052" lon="-8.800876">
        <ele>100.115</ele>
        <time>2019-04-28T17:52:25Z</time>
      </trkpt>
      <trkpt lat="41.674284" lon="-8.801049">
        <ele>97.713</ele>
        <time>2019-04-28T17:52:32Z</time>
      </trkpt>
      <trkpt lat="41.674364" lon="-8.801087">
        <ele>96.765</ele>
        <time>2019-04-28T17:52:35Z</time>
      </trkpt>
      <trkpt lat="41.674529" lon="-8.801140">
        <ele>93.875</ele>
        <time>2019-04-28T17:52:40Z</time>
      </trkpt>
      <trkpt lat="41.674645" lon="-8.801137">
        <ele>90.929</ele>
        <time>2019-04-28T17:52:51Z</time>
      </trkpt>
      <trkpt lat="41.674701" lon="-8.801176">
        <ele>87.661</ele>
        <time>2019-04-28T17:53:03Z</time>
      </trkpt>
      <trkpt lat="41.674711" lon="-8.801174">
        <ele>87.121</ele>
        <time>2019-04-28T17:53:09Z</time>
      </trkpt>
      <trkpt lat="41.674928" lon="-8.801251">
        <ele>83.213</ele>
        <time>2019-04-28T17:53:18Z</time>
      </trkpt>
      <trkpt lat="41.675128" lon="-8.801243">
        <ele>80.808</ele>
        <time>2019-04-28T17:53:31Z</time>
      </trkpt>
      <trkpt lat="41.675329" lon="-8.801282">
        <ele>78.489</ele>
        <time>2019-04-28T17:53:40Z</time>
      </trkpt>
      <trkpt lat="41.675769" lon="-8.801437">
        <ele>73.692</ele>
        <time>2019-04-28T17:53:52Z</time>
      </trkpt>
      <trkpt lat="41.675795" lon="-8.801475">
        <ele>73.688</ele>
        <time>2019-04-28T17:53:53Z</time>
      </trkpt>
      <trkpt lat="41.675950" lon="-8.801578">
        <ele>74.186</ele>
        <time>2019-04-28T17:53:58Z</time>
      </trkpt>
      <trkpt lat="41.676036" lon="-8.801661">
        <ele>74.624</ele>
        <time>2019-04-28T17:54:00Z</time>
      </trkpt>
      <trkpt lat="41.676379" lon="-8.802055">
        <ele>75.136</ele>
        <time>2019-04-28T17:54:05Z</time>
      </trkpt>
      <trkpt lat="41.676562" lon="-8.802211">
        <ele>74.636</ele>
        <time>2019-04-28T17:54:07Z</time>
      </trkpt>
      <trkpt lat="41.677436" lon="-8.803109">
        <ele>71.730</ele>
        <time>2019-04-28T17:54:19Z</time>
      </trkpt>
      <trkpt lat="41.677838" lon="-8.803440">
        <ele>59.729</ele>
        <time>2019-04-28T17:54:26Z</time>
      </trkpt>
      <trkpt lat="41.677944" lon="-8.803675">
        <ele>55.800</ele>
        <time>2019-04-28T17:54:30Z</time>
      </trkpt>
      <trkpt lat="41.678092" lon="-8.803806">
        <ele>53.020</ele>
        <time>2019-04-28T17:54:34Z</time>
      </trkpt>
      <trkpt lat="41.678266" lon="-8.803986">
        <ele>49.608</ele>
        <time>2019-04-28T17:54:38Z</time>
      </trkpt>
      <trkpt lat="41.678776" lon="-8.804598">
        <ele>42.925</ele>
        <time>2019-04-28T17:54:48Z</time>
      </trkpt>
      <trkpt lat="41.678956" lon="-8.804811">
        <ele>40.978</ele>
        <time>2019-04-28T17:54:51Z</time>
      </trkpt>
      <trkpt lat="41.679211" lon="-8.805138">
        <ele>38.514</ele>
        <time>2019-04-28T17:54:56Z</time>
      </trkpt>
      <trkpt lat="41.679491" lon="-8.805505">
        <ele>34.232</ele>
        <time>2019-04-28T17:55:04Z</time>
      </trkpt>
      <trkpt lat="41.679819" lon="-8.805926">
        <ele>27.580</ele>
        <time>2019-04-28T17:55:17Z</time>
      </trkpt>
      <trkpt lat="41.679880" lon="-8.806005">
        <ele>26.512</ele>
        <time>2019-04-28T17:55:19Z</time>
      </trkpt>
      <trkpt lat="41.680147" lon="-8.806344">
        <ele>24.142</ele>
        <time>2019-04-28T17:55:26Z</time>
      </trkpt>
      <trkpt lat="41.680347" lon="-8.806620">
        <ele>22.246</ele>
        <time>2019-04-28T17:55:31Z</time>
      </trkpt>
      <trkpt lat="41.680523" lon="-8.806832">
        <ele>21.791</ele>
        <time>2019-04-28T17:55:40Z</time>
      </trkpt>
      <trkpt lat="41.680520" lon="-8.806840">
        <ele>21.781</ele>
        <time>2019-04-28T17:56:04Z</time>
      </trkpt>
      <trkpt lat="41.680530" lon="-8.806849">
        <ele>21.719</ele>
        <time>2019-04-28T17:56:08Z</time>
      </trkpt>
      <trkpt lat="41.680726" lon="-8.806906">
        <ele>21.708</ele>
        <time>2019-04-28T17:56:16Z</time>
      </trkpt>
      <trkpt lat="41.680892" lon="-8.807120">
        <ele>21.742</ele>
        <time>2019-04-28T17:56:22Z</time>
      </trkpt>
      <trkpt lat="41.681397" lon="-8.807694">
        <ele>20.875</ele>
        <time>2019-04-28T17:56:39Z</time>
      </trkpt>
      <trkpt lat="41.681848" lon="-8.808220">
        <ele>19.881</ele>
        <time>2019-04-28T17:56:55Z</time>
      </trkpt>
      <trkpt lat="41.682275" lon="-8.808716">
        <ele>18.479</ele>
        <time>2019-04-28T17:57:10Z</time>
      </trkpt>
      <trkpt lat="41.682593" lon="-8.809097">
        <ele>17.917</ele>
        <time>2019-04-28T17:57:21Z</time>
      </trkpt>
      <trkpt lat="41.683204" lon="-8.809818">
        <ele>16.019</ele>
        <time>2019-04-28T17:57:39Z</time>
      </trkpt>
      <trkpt lat="41.683750" lon="-8.810465">
        <ele>16.099</ele>
        <time>2019-04-28T17:57:56Z</time>
      </trkpt>
      <trkpt lat="41.683913" lon="-8.810645">
        <ele>15.073</ele>
        <time>2019-04-28T17:58:01Z</time>
      </trkpt>
      <trkpt lat="41.684530" lon="-8.811247">
        <ele>13.652</ele>
        <time>2019-04-28T17:58:17Z</time>
      </trkpt>
      <trkpt lat="41.684768" lon="-8.811466">
        <ele>13.153</ele>
        <time>2019-04-28T17:58:23Z</time>
      </trkpt>
      <trkpt lat="41.685461" lon="-8.812106">
        <ele>12.108</ele>
        <time>2019-04-28T17:58:39Z</time>
      </trkpt>
      <trkpt lat="41.686083" lon="-8.812613">
        <ele>11.608</ele>
        <time>2019-04-28T17:58:52Z</time>
      </trkpt>
      <trkpt lat="41.686529" lon="-8.812671">
        <ele>11.648</ele>
        <time>2019-04-28T17:59:02Z</time>
      </trkpt>
      <trkpt lat="41.686951" lon="-8.812548">
        <ele>14.561</ele>
        <time>2019-04-28T17:59:17Z</time>
      </trkpt>
      <trkpt lat="41.686996" lon="-8.812525">
        <ele>15.037</ele>
        <time>2019-04-28T17:59:19Z</time>
      </trkpt>
      <trkpt lat="41.687001" lon="-8.812495">
        <ele>14.525</ele>
        <time>2019-04-28T17:59:22Z</time>
      </trkpt>
      <trkpt lat="41.686861" lon="-8.812486">
        <ele>12.153</ele>
        <time>2019-04-28T17:59:33Z</time>
      </trkpt>
      <trkpt lat="41.686543" lon="-8.812606">
        <ele>10.735</ele>
        <time>2019-04-28T17:59:44Z</time>
      </trkpt>
      <trkpt lat="41.686253" lon="-8.812579">
        <ele>8.385</ele>
        <time>2019-04-28T17:59:54Z</time>
      </trkpt>
      <trkpt lat="41.686221" lon="-8.812568">
        <ele>8.319</ele>
        <time>2019-04-28T17:59:55Z</time>
      </trkpt>
      <trkpt lat="41.686163" lon="-8.812578">
        <ele>8.352</ele>
        <time>2019-04-28T17:59:57Z</time>
      </trkpt>
      <trkpt lat="41.686055" lon="-8.812675">
        <ele>10.253</ele>
        <time>2019-04-28T18:00:05Z</time>
      </trkpt>
      <trkpt lat="41.686194" lon="-8.812741">
        <ele>10.208</ele>
        <time>2019-04-28T18:00:09Z</time>
      </trkpt>
      <trkpt lat="41.686408" lon="-8.812947">
        <ele>11.108</ele>
        <time>2019-04-28T18:00:17Z</time>
      </trkpt>
      <trkpt lat="41.686439" lon="-8.812984">
        <ele>11.128</ele>
        <time>2019-04-28T18:00:18Z</time>
      </trkpt>
      <trkpt lat="41.686937" lon="-8.813460">
        <ele>10.291</ele>
        <time>2019-04-28T18:00:32Z</time>
      </trkpt>
      <trkpt lat="41.687009" lon="-8.813444">
        <ele>9.777</ele>
        <time>2019-04-28T18:00:36Z</time>
      </trkpt>
      <trkpt lat="41.687160" lon="-8.813112">
        <ele>8.795</ele>
        <time>2019-04-28T18:00:48Z</time>
      </trkpt>
      <trkpt lat="41.687190" lon="-8.813097">
        <ele>9.783</ele>
        <time>2019-04-28T18:00:50Z</time>
      </trkpt>
      <trkpt lat="41.687219" lon="-8.813074">
        <ele>10.745</ele>
        <time>2019-04-28T18:01:00Z</time>
      </trkpt>
      <trkpt lat="41.687289" lon="-8.813040">
        <ele>9.765</ele>
        <time>2019-04-28T18:01:13Z</time>
      </trkpt>
      <trkpt lat="41.687301" lon="-8.813042">
        <ele>9.759</ele>
        <time>2019-04-28T18:01:15Z</time>
      </trkpt>
      <trkpt lat="41.687366" lon="-8.813020">
        <ele>10.731</ele>
        <time>2019-04-28T18:01:19Z</time>
      </trkpt>
      <trkpt lat="41.687650" lon="-8.812849">
        <ele>10.761</ele>
        <time>2019-04-28T18:01:32Z</time>
      </trkpt>
      <trkpt lat="41.687810" lon="-8.812483">
        <ele>11.607</ele>
        <time>2019-04-28T18:01:43Z</time>
      </trkpt>
      <trkpt lat="41.687963" lon="-8.812523">
        <ele>12.608</ele>
        <time>2019-04-28T18:01:47Z</time>
      </trkpt>
      <trkpt lat="41.687942" lon="-8.812875">
        <ele>12.156</ele>
        <time>2019-04-28T18:01:54Z</time>
      </trkpt>
      <trkpt lat="41.687788" lon="-8.812993">
        <ele>11.199</ele>
        <time>2019-04-28T18:02:02Z</time>
      </trkpt>
      <trkpt lat="41.687800" lon="-8.812989">
        <ele>11.165</ele>
        <time>2019-04-28T18:02:04Z</time>
      </trkpt>
      <trkpt lat="41.688087" lon="-8.812887">
        <ele>10.743</ele>
        <time>2019-04-28T18:02:17Z</time>
      </trkpt>
      <trkpt lat="41.688397" lon="-8.812966">
        <ele>11.161</ele>
        <time>2019-04-28T18:02:28Z</time>
      </trkpt>
      <trkpt lat="41.688723" lon="-8.813375">
        <ele>10.773</ele>
        <time>2019-04-28T18:02:42Z</time>
      </trkpt>
      <trkpt lat="41.689137" lon="-8.813910">
        <ele>9.783</ele>
        <time>2019-04-28T18:02:59Z</time>
      </trkpt>
      <trkpt lat="41.689548" lon="-8.814437">
        <ele>8.337</ele>
        <time>2019-04-28T18:03:16Z</time>
      </trkpt>
      <trkpt lat="41.689664" lon="-8.814584">
        <ele>8.355</ele>
        <time>2019-04-28T18:03:27Z</time>
      </trkpt>
      <trkpt lat="41.689661" lon="-8.814585">
        <ele>10.207</ele>
        <time>2019-04-28T18:03:46Z</time>
      </trkpt>
      <trkpt lat="41.689709" lon="-8.814591">
        <ele>10.217</ele>
        <time>2019-04-28T18:03:48Z</time>
      </trkpt>
      <trkpt lat="41.690088" lon="-8.814964">
        <ele>11.108</ele>
        <time>2019-04-28T18:04:00Z</time>
      </trkpt>
      <trkpt lat="41.690665" lon="-8.815688">
        <ele>16.038</ele>
        <time>2019-04-28T18:04:18Z</time>
      </trkpt>
      <trkpt lat="41.691067" lon="-8.816217">
        <ele>20.811</ele>
        <time>2019-04-28T18:04:31Z</time>
      </trkpt>
      <trkpt lat="41.691313" lon="-8.816431">
        <ele>21.217</ele>
        <time>2019-04-28T18:04:38Z</time>
      </trkpt>
      <trkpt lat="41.692041" lon="-8.817366">
        <ele>21.775</ele>
        <time>2019-04-28T18:04:56Z</time>
      </trkpt>
      <trkpt lat="41.692995" lon="-8.818583">
        <ele>20.833</ele>
        <time>2019-04-28T18:05:16Z</time>
      </trkpt>
      <trkpt lat="41.693998" lon="-8.819897">
        <ele>20.835</ele>
        <time>2019-04-28T18:05:34Z</time>
      </trkpt>
      <trkpt lat="41.694949" lon="-8.821141">
        <ele>21.775</ele>
        <time>2019-04-28T18:05:50Z</time>
      </trkpt>
      <trkpt lat="41.695141" lon="-8.821528">
        <ele>20.829</ele>
        <time>2019-04-28T18:05:55Z</time>
      </trkpt>
      <trkpt lat="41.695734" lon="-8.822294">
        <ele>16.943</ele>
        <time>2019-04-28T18:06:06Z</time>
      </trkpt>
      <trkpt lat="41.696016" lon="-8.822695">
        <ele>15.064</ele>
        <time>2019-04-28T18:06:14Z</time>
      </trkpt>
      <trkpt lat="41.696052" lon="-8.822707">
        <ele>15.510</ele>
        <time>2019-04-28T18:06:16Z</time>
      </trkpt>
      <trkpt lat="41.696088" lon="-8.822756">
        <ele>16.408</ele>
        <time>2019-04-28T18:06:30Z</time>
      </trkpt>
      <trkpt lat="41.696086" lon="-8.822739">
        <ele>15.587</ele>
        <time>2019-04-28T18:07:07Z</time>
      </trkpt>
      <trkpt lat="41.696083" lon="-8.822741">
        <ele>15.060</ele>
        <time>2019-04-28T18:07:40Z</time>
      </trkpt>
      <trkpt lat="41.696145" lon="-8.822824">
        <ele>15.036</ele>
        <time>2019-04-28T18:07:54Z</time>
      </trkpt>
      <trkpt lat="41.696146" lon="-8.822823">
        <ele>14.514</ele>
        <time>2019-04-28T18:07:57Z</time>
      </trkpt>
      <trkpt lat="41.696186" lon="-8.822860">
        <ele>14.592</ele>
        <time>2019-04-28T18:08:08Z</time>
      </trkpt>
      <trkpt lat="41.696377" lon="-8.823126">
        <ele>13.664</ele>
        <time>2019-04-28T18:08:21Z</time>
      </trkpt>
      <trkpt lat="41.696720" lon="-8.823655">
        <ele>15.564</ele>
        <time>2019-04-28T18:08:37Z</time>
      </trkpt>
      <trkpt lat="41.696885" lon="-8.824015">
        <ele>16.048</ele>
        <time>2019-04-28T18:08:50Z</time>
      </trkpt>
      <trkpt lat="41.697040" lon="-8.824361">
        <ele>15.528</ele>
        <time>2019-04-28T18:09:02Z</time>
      </trkpt>
      <trkpt lat="41.697258" lon="-8.825011">
        <ele>14.589</ele>
        <time>2019-04-28T18:09:20Z</time>
      </trkpt>
      <trkpt lat="41.697274" lon="-8.825079">
        <ele>15.517</ele>
        <time>2019-04-28T18:09:30Z</time>
      </trkpt>
      <trkpt lat="41.697286" lon="-8.825076">
        <ele>13.108</ele>
        <time>2019-04-28T18:10:03Z</time>
      </trkpt>
      <trkpt lat="41.697283" lon="-8.825083">
        <ele>13.195</ele>
        <time>2019-04-28T18:10:18Z</time>
      </trkpt>
      <trkpt lat="41.697258" lon="-8.825094">
        <ele>13.198</ele>
        <time>2019-04-28T18:10:30Z</time>
      </trkpt>
      <trkpt lat="41.697257" lon="-8.825094">
        <ele>13.184</ele>
        <time>2019-04-28T18:10:32Z</time>
      </trkpt>
      <trkpt lat="41.697212" lon="-8.825084">
        <ele>13.672</ele>
        <time>2019-04-28T18:10:36Z</time>
      </trkpt>
      <trkpt lat="41.697140" lon="-8.824879">
        <ele>13.160</ele>
        <time>2019-04-28T18:10:42Z</time>
      </trkpt>
      <trkpt lat="41.696819" lon="-8.824001">
        <ele>12.682</ele>
        <time>2019-04-28T18:10:57Z</time>
      </trkpt>
      <trkpt lat="41.696377" lon="-8.823273">
        <ele>12.152</ele>
        <time>2019-04-28T18:11:11Z</time>
      </trkpt>
      <trkpt lat="41.696179" lon="-8.823111">
        <ele>12.126</ele>
        <time>2019-04-28T18:11:20Z</time>
      </trkpt>
      <trkpt lat="41.696175" lon="-8.823113">
        <ele>12.633</ele>
        <time>2019-04-28T18:11:21Z</time>
      </trkpt>
      <trkpt lat="41.695912" lon="-8.823049">
        <ele>13.123</ele>
        <time>2019-04-28T18:11:30Z</time>
      </trkpt>
      <trkpt lat="41.695723" lon="-8.822831">
        <ele>14.015</ele>
        <time>2019-04-28T18:11:36Z</time>
      </trkpt>
      <trkpt lat="41.695639" lon="-8.822684">
        <ele>14.008</ele>
        <time>2019-04-28T18:11:39Z</time>
      </trkpt>
      <trkpt lat="41.695530" lon="-8.822553">
        <ele>14.066</ele>
        <time>2019-04-28T18:11:42Z</time>
      </trkpt>
      <trkpt lat="41.695112" lon="-8.822000">
        <ele>12.189</ele>
        <time>2019-04-28T18:11:53Z</time>
      </trkpt>
      <trkpt lat="41.695033" lon="-8.821708">
        <ele>12.615</ele>
        <time>2019-04-28T18:12:00Z</time>
      </trkpt>
      <trkpt lat="41.694893" lon="-8.821542">
        <ele>11.673</ele>
        <time>2019-04-28T18:12:05Z</time>
      </trkpt>
      <trkpt lat="41.694899" lon="-8.821421">
        <ele>12.651</ele>
        <time>2019-04-28T18:12:09Z</time>
      </trkpt>
      <trkpt lat="41.695017" lon="-8.821264">
        <ele>12.183</ele>
        <time>2019-04-28T18:12:14Z</time>
      </trkpt>
      <trkpt lat="41.694888" lon="-8.820945">
        <ele>11.633</ele>
        <time>2019-04-28T18:12:22Z</time>
      </trkpt>
      <trkpt lat="41.694903" lon="-8.820866">
        <ele>11.687</ele>
        <time>2019-04-28T18:12:24Z</time>
      </trkpt>
      <trkpt lat="41.695070" lon="-8.820461">
        <ele>12.615</ele>
        <time>2019-04-28T18:12:33Z</time>
      </trkpt>
      <trkpt lat="41.695271" lon="-8.820396">
        <ele>12.665</ele>
        <time>2019-04-28T18:12:38Z</time>
      </trkpt>
      <trkpt lat="41.695488" lon="-8.820471">
        <ele>12.111</ele>
        <time>2019-04-28T18:12:43Z</time>
      </trkpt>
      <trkpt lat="41.695823" lon="-8.820624">
        <ele>11.608</ele>
        <time>2019-04-28T18:12:51Z</time>
      </trkpt>
      <trkpt lat="41.696269" lon="-8.820554">
        <ele>13.194</ele>
        <time>2019-04-28T18:13:01Z</time>
      </trkpt>
      <trkpt lat="41.696416" lon="-8.820499">
        <ele>13.167</ele>
        <time>2019-04-28T18:13:04Z</time>
      </trkpt>
      <trkpt lat="41.696597" lon="-8.820264">
        <ele>18.853</ele>
        <time>2019-04-28T18:13:12Z</time>
      </trkpt>
      <trkpt lat="41.696609" lon="-8.820234">
        <ele>19.811</ele>
        <time>2019-04-28T18:13:13Z</time>
      </trkpt>
      <trkpt lat="41.696624" lon="-8.820204">
        <ele>21.749</ele>
        <time>2019-04-28T18:13:15Z</time>
      </trkpt>
      <trkpt lat="41.696672" lon="-8.820242">
        <ele>25.161</ele>
        <time>2019-04-28T18:13:29Z</time>
      </trkpt>
      <trkpt lat="41.696686" lon="-8.820240">
        <ele>24.681</ele>
        <time>2019-04-28T18:13:37Z</time>
      </trkpt>
      <trkpt lat="41.696700" lon="-8.820246">
        <ele>24.675</ele>
        <time>2019-04-28T18:13:39Z</time>
      </trkpt>
      <trkpt lat="41.696821" lon="-8.820181">
        <ele>23.218</ele>
        <time>2019-04-28T18:13:46Z</time>
      </trkpt>
      <trkpt lat="41.696891" lon="-8.819824">
        <ele>19.898</ele>
        <time>2019-04-28T18:13:59Z</time>
      </trkpt>
      <trkpt lat="41.696810" lon="-8.819808">
        <ele>17.917</ele>
        <time>2019-04-28T18:14:11Z</time>
      </trkpt>
      <trkpt lat="41.696810" lon="-8.819810">
        <ele>14.508</ele>
        <time>2019-04-28T18:14:22Z</time>
      </trkpt>
      <trkpt lat="41.696814" lon="-8.819804">
        <ele>14.594</ele>
        <time>2019-04-28T18:14:27Z</time>
      </trkpt>
      <trkpt lat="41.696943" lon="-8.819576">
        <ele>12.117</ele>
        <time>2019-04-29T08:13:22Z</time>
      </trkpt>
      <trkpt lat="41.696993" lon="-8.819610">
        <ele>47.783</ele>
        <time>2019-04-29T08:13:52Z</time>
      </trkpt>
      <trkpt lat="41.697044" lon="-8.819573">
        <ele>55.891</ele>
        <time>2019-04-29T08:14:13Z</time>
      </trkpt>
      <trkpt lat="41.697072" lon="-8.819591">
        <ele>54.489</ele>
        <time>2019-04-29T08:14:40Z</time>
      </trkpt>
      <trkpt lat="41.696941" lon="-8.819613">
        <ele>37.121</ele>
        <time>2019-04-29T08:15:08Z</time>
      </trkpt>
      <trkpt lat="41.696929" lon="-8.819646">
        <ele>32.881</ele>
        <time>2019-04-29T08:15:38Z</time>
      </trkpt>
      <trkpt lat="41.696915" lon="-8.819655">
        <ele>29.925</ele>
        <time>2019-04-29T08:15:56Z</time>
      </trkpt>
      <trkpt lat="41.696871" lon="-8.819666">
        <ele>23.638</ele>
        <time>2019-04-29T08:16:24Z</time>
      </trkpt>
      <trkpt lat="41.696808" lon="-8.819701">
        <ele>17.470</ele>
        <time>2019-04-29T08:16:50Z</time>
      </trkpt>
      <trkpt lat="41.696788" lon="-8.819721">
        <ele>15.517</ele>
        <time>2019-04-29T08:17:17Z</time>
      </trkpt>
      <trkpt lat="41.696759" lon="-8.819740">
        <ele>11.608</ele>
        <time>2019-04-29T08:17:43Z</time>
      </trkpt>
      <trkpt lat="41.696770" lon="-8.819749">
        <ele>9.766</ele>
        <time>2019-04-29T08:17:58Z</time>
      </trkpt>
      <trkpt lat="41.696846" lon="-8.819786">
        <ele>11.119</ele>
        <time>2019-04-29T08:18:02Z</time>
      </trkpt>
      <trkpt lat="41.696787" lon="-8.820178">
        <ele>12.155</ele>
        <time>2019-04-29T08:18:15Z</time>
      </trkpt>
      <trkpt lat="41.696598" lon="-8.820280">
        <ele>10.753</ele>
        <time>2019-04-29T08:18:21Z</time>
      </trkpt>
      <trkpt lat="41.696522" lon="-8.820358">
        <ele>7.391</ele>
        <time>2019-04-29T08:18:27Z</time>
      </trkpt>
      <trkpt lat="41.696452" lon="-8.820389">
        <ele>7.843</ele>
        <time>2019-04-29T08:18:31Z</time>
      </trkpt>
      <trkpt lat="41.696409" lon="-8.820410">
        <ele>7.893</ele>
        <time>2019-04-29T08:18:33Z</time>
      </trkpt>
      <trkpt lat="41.696340" lon="-8.820344">
        <ele>8.737</ele>
        <time>2019-04-29T08:18:37Z</time>
      </trkpt>
      <trkpt lat="41.696293" lon="-8.820295">
        <ele>9.794</ele>
        <time>2019-04-29T08:18:40Z</time>
      </trkpt>
      <trkpt lat="41.696286" lon="-8.820221">
        <ele>9.757</ele>
        <time>2019-04-29T08:18:43Z</time>
      </trkpt>
      <trkpt lat="41.696164" lon="-8.820204">
        <ele>10.722</ele>
        <time>2019-04-29T08:18:51Z</time>
      </trkpt>
      <trkpt lat="41.696147" lon="-8.820294">
        <ele>10.708</ele>
        <time>2019-04-29T08:18:54Z</time>
      </trkpt>
      <trkpt lat="41.696124" lon="-8.820394">
        <ele>10.762</ele>
        <time>2019-04-29T08:18:57Z</time>
      </trkpt>
      <trkpt lat="41.695967" lon="-8.820514">
        <ele>10.225</ele>
        <time>2019-04-29T08:19:04Z</time>
      </trkpt>
      <trkpt lat="41.695915" lon="-8.820587">
        <ele>9.251</ele>
        <time>2019-04-29T08:19:07Z</time>
      </trkpt>
      <trkpt lat="41.695765" lon="-8.820592">
        <ele>12.119</ele>
        <time>2019-04-29T08:19:16Z</time>
      </trkpt>
      <trkpt lat="41.695728" lon="-8.820603">
        <ele>13.187</ele>
        <time>2019-04-29T08:19:19Z</time>
      </trkpt>
      <trkpt lat="41.695744" lon="-8.820661">
        <ele>12.149</ele>
        <time>2019-04-29T08:19:29Z</time>
      </trkpt>
      <trkpt lat="41.695691" lon="-8.820893">
        <ele>11.189</ele>
        <time>2019-04-29T08:19:38Z</time>
      </trkpt>
      <trkpt lat="41.695516" lon="-8.821292">
        <ele>9.283</ele>
        <time>2019-04-29T08:19:51Z</time>
      </trkpt>
      <trkpt lat="41.695491" lon="-8.821336">
        <ele>9.733</ele>
        <time>2019-04-29T08:19:53Z</time>
      </trkpt>
      <trkpt lat="41.695294" lon="-8.821435">
        <ele>9.223</ele>
        <time>2019-04-29T08:20:02Z</time>
      </trkpt>
      <trkpt lat="41.695235" lon="-8.821684">
        <ele>6.815</ele>
        <time>2019-04-29T08:20:10Z</time>
      </trkpt>
      <trkpt lat="41.695003" lon="-8.821985">
        <ele>8.308</ele>
        <time>2019-04-29T08:20:22Z</time>
      </trkpt>
      <trkpt lat="41.694805" lon="-8.822118">
        <ele>8.796</ele>
        <time>2019-04-29T08:20:30Z</time>
      </trkpt>
      <trkpt lat="41.694625" lon="-8.822413">
        <ele>9.299</ele>
        <time>2019-04-29T08:20:41Z</time>
      </trkpt>
      <trkpt lat="41.694474" lon="-8.822781">
        <ele>6.855</ele>
        <time>2019-04-29T08:20:52Z</time>
      </trkpt>
      <trkpt lat="41.694292" lon="-8.823197">
        <ele>5.983</ele>
        <time>2019-04-29T08:21:03Z</time>
      </trkpt>
      <trkpt lat="41.694116" lon="-8.823578">
        <ele>7.391</ele>
        <time>2019-04-29T08:21:13Z</time>
      </trkpt>
      <trkpt lat="41.693777" lon="-8.824224">
        <ele>7.853</ele>
        <time>2019-04-29T08:21:29Z</time>
      </trkpt>
      <trkpt lat="41.693433" lon="-8.824700">
        <ele>10.283</ele>
        <time>2019-04-29T08:21:42Z</time>
      </trkpt>
      <trkpt lat="41.693092" lon="-8.825206">
        <ele>11.117</ele>
        <time>2019-04-29T08:21:56Z</time>
      </trkpt>
      <trkpt lat="41.692722" lon="-8.825677">
        <ele>11.664</ele>
        <time>2019-04-29T08:22:10Z</time>
      </trkpt>
      <trkpt lat="41.692539" lon="-8.826040">
        <ele>10.706</ele>
        <time>2019-04-29T08:22:19Z</time>
      </trkpt>
      <trkpt lat="41.692072" lon="-8.826515">
        <ele>10.216</ele>
        <time>2019-04-29T08:22:35Z</time>
      </trkpt>
      <trkpt lat="41.691684" lon="-8.827098">
        <ele>10.708</ele>
        <time>2019-04-29T08:22:51Z</time>
      </trkpt>
      <trkpt lat="41.691522" lon="-8.827577">
        <ele>10.739</ele>
        <time>2019-04-29T08:23:04Z</time>
      </trkpt>
      <trkpt lat="41.691457" lon="-8.827851">
        <ele>11.642</ele>
        <time>2019-04-29T08:23:17Z</time>
      </trkpt>
      <trkpt lat="41.691373" lon="-8.828141">
        <ele>12.168</ele>
        <time>2019-04-29T08:23:26Z</time>
      </trkpt>
      <trkpt lat="41.691349" lon="-8.828225">
        <ele>12.196</ele>
        <time>2019-04-29T08:23:28Z</time>
      </trkpt>
      <trkpt lat="41.691213" lon="-8.828265">
        <ele>12.664</ele>
        <time>2019-04-29T08:23:33Z</time>
      </trkpt>
      <trkpt lat="41.691070" lon="-8.828135">
        <ele>12.626</ele>
        <time>2019-04-29T08:23:39Z</time>
      </trkpt>
      <trkpt lat="41.691077" lon="-8.828002">
        <ele>11.626</ele>
        <time>2019-04-29T08:23:48Z</time>
      </trkpt>
      <trkpt lat="41.691070" lon="-8.828001">
        <ele>11.640</ele>
        <time>2019-04-29T08:23:49Z</time>
      </trkpt>
      <trkpt lat="41.690983" lon="-8.827974">
        <ele>11.632</ele>
        <time>2019-04-29T08:23:53Z</time>
      </trkpt>
      <trkpt lat="41.690576" lon="-8.827822">
        <ele>10.792</ele>
        <time>2019-04-29T08:24:07Z</time>
      </trkpt>
      <trkpt lat="41.690319" lon="-8.828002">
        <ele>10.211</ele>
        <time>2019-04-29T08:24:17Z</time>
      </trkpt>
      <trkpt lat="41.690016" lon="-8.828689">
        <ele>10.208</ele>
        <time>2019-04-29T08:24:35Z</time>
      </trkpt>
      <trkpt lat="41.689845" lon="-8.829075">
        <ele>9.786</ele>
        <time>2019-04-29T08:24:45Z</time>
      </trkpt>
      <trkpt lat="41.690010" lon="-8.829288">
        <ele>8.749</ele>
        <time>2019-04-29T08:24:54Z</time>
      </trkpt>
      <trkpt lat="41.690030" lon="-8.829303">
        <ele>8.795</ele>
        <time>2019-04-29T08:24:55Z</time>
      </trkpt>
      <trkpt lat="41.690223" lon="-8.829509">
        <ele>9.263</ele>
        <time>2019-04-29T08:25:06Z</time>
      </trkpt>
      <trkpt lat="41.690275" lon="-8.829550">
        <ele>9.711</ele>
        <time>2019-04-29T08:25:20Z</time>
      </trkpt>
      <trkpt lat="41.690411" lon="-8.829608">
        <ele>9.263</ele>
        <time>2019-04-29T08:25:35Z</time>
      </trkpt>
      <trkpt lat="41.690764" lon="-8.829828">
        <ele>8.323</ele>
        <time>2019-04-29T08:25:46Z</time>
      </trkpt>
      <trkpt lat="41.690672" lon="-8.830244">
        <ele>8.377</ele>
        <time>2019-04-29T08:25:56Z</time>
      </trkpt>
      <trkpt lat="41.690476" lon="-8.830762">
        <ele>8.785</ele>
        <time>2019-04-29T08:26:11Z</time>
      </trkpt>
      <trkpt lat="41.690285" lon="-8.831202">
        <ele>9.789</ele>
        <time>2019-04-29T08:26:26Z</time>
      </trkpt>
      <trkpt lat="41.690241" lon="-8.831353">
        <ele>9.717</ele>
        <time>2019-04-29T08:26:38Z</time>
      </trkpt>
      <trkpt lat="41.690254" lon="-8.831344">
        <ele>9.708</ele>
        <time>2019-04-29T08:27:11Z</time>
      </trkpt>
      <trkpt lat="41.690197" lon="-8.831472">
        <ele>9.721</ele>
        <time>2019-04-29T08:27:24Z</time>
      </trkpt>
      <trkpt lat="41.690173" lon="-8.831508">
        <ele>10.294</ele>
        <time>2019-04-29T08:27:28Z</time>
      </trkpt>
      <trkpt lat="41.690171" lon="-8.831536">
        <ele>10.240</ele>
        <time>2019-04-29T08:27:30Z</time>
      </trkpt>
      <trkpt lat="41.690227" lon="-8.831611">
        <ele>8.718</ele>
        <time>2019-04-29T08:27:41Z</time>
      </trkpt>
      <trkpt lat="41.690276" lon="-8.831660">
        <ele>9.286</ele>
        <time>2019-04-29T08:27:45Z</time>
      </trkpt>
      <trkpt lat="41.690292" lon="-8.831916">
        <ele>10.768</ele>
        <time>2019-04-29T08:27:53Z</time>
      </trkpt>
      <trkpt lat="41.690339" lon="-8.831960">
        <ele>10.788</ele>
        <time>2019-04-29T08:27:55Z</time>
      </trkpt>
      <trkpt lat="41.690394" lon="-8.832021">
        <ele>10.792</ele>
        <time>2019-04-29T08:27:58Z</time>
      </trkpt>
      <trkpt lat="41.690394" lon="-8.832134">
        <ele>9.716</ele>
        <time>2019-04-29T08:28:04Z</time>
      </trkpt>
      <trkpt lat="41.690379" lon="-8.832104">
        <ele>8.376</ele>
        <time>2019-04-29T08:28:10Z</time>
      </trkpt>
      <trkpt lat="41.690420" lon="-8.832043">
        <ele>6.813</ele>
        <time>2019-04-29T08:28:14Z</time>
      </trkpt>
      <trkpt lat="41.690529" lon="-8.831772">
        <ele>3.508</ele>
        <time>2019-04-29T08:28:27Z</time>
      </trkpt>
      <trkpt lat="41.690603" lon="-8.831764">
        <ele>3.534</ele>
        <time>2019-04-29T08:28:32Z</time>
      </trkpt>
      <trkpt lat="41.690912" lon="-8.831925">
        <ele>7.377</ele>
        <time>2019-04-29T08:28:46Z</time>
      </trkpt>
      <trkpt lat="41.691151" lon="-8.832071">
        <ele>9.293</ele>
        <time>2019-04-29T08:28:56Z</time>
      </trkpt>
      <trkpt lat="41.691469" lon="-8.832216">
        <ele>12.641</ele>
        <time>2019-04-29T08:29:08Z</time>
      </trkpt>
      <trkpt lat="41.691814" lon="-8.832397">
        <ele>15.029</ele>
        <time>2019-04-29T08:29:22Z</time>
      </trkpt>
      <trkpt lat="41.691823" lon="-8.832466">
        <ele>15.511</ele>
        <time>2019-04-29T08:29:27Z</time>
      </trkpt>
      <trkpt lat="41.691749" lon="-8.832873">
        <ele>20.371</ele>
        <time>2019-04-29T08:29:41Z</time>
      </trkpt>
      <trkpt lat="41.691611" lon="-8.833350">
        <ele>20.325</ele>
        <time>2019-04-29T08:29:54Z</time>
      </trkpt>
      <trkpt lat="41.691598" lon="-8.833643">
        <ele>17.913</ele>
        <time>2019-04-29T08:30:02Z</time>
      </trkpt>
      <trkpt lat="41.691535" lon="-8.833786">
        <ele>16.443</ele>
        <time>2019-04-29T08:30:07Z</time>
      </trkpt>
      <trkpt lat="41.691550" lon="-8.833971">
        <ele>15.007</ele>
        <time>2019-04-29T08:30:19Z</time>
      </trkpt>
      <trkpt lat="41.691543" lon="-8.833978">
        <ele>15.508</ele>
        <time>2019-04-29T08:30:37Z</time>
      </trkpt>
      <trkpt lat="41.691544" lon="-8.833974">
        <ele>15.564</ele>
        <time>2019-04-29T08:31:06Z</time>
      </trkpt>
      <trkpt lat="41.691556" lon="-8.833960">
        <ele>14.537</ele>
        <time>2019-04-29T08:31:36Z</time>
      </trkpt>
      <trkpt lat="41.691543" lon="-8.833961">
        <ele>15.033</ele>
        <time>2019-04-29T08:32:10Z</time>
      </trkpt>
      <trkpt lat="41.691535" lon="-8.833957">
        <ele>16.011</ele>
        <time>2019-04-29T08:32:46Z</time>
      </trkpt>
      <trkpt lat="41.691541" lon="-8.833952">
        <ele>16.979</ele>
        <time>2019-04-29T08:33:18Z</time>
      </trkpt>
      <trkpt lat="41.691556" lon="-8.833979">
        <ele>17.481</ele>
        <time>2019-04-29T08:33:27Z</time>
      </trkpt>
      <trkpt lat="41.691561" lon="-8.833987">
        <ele>18.481</ele>
        <time>2019-04-29T08:33:45Z</time>
      </trkpt>
      <trkpt lat="41.691603" lon="-8.834106">
        <ele>16.465</ele>
        <time>2019-04-29T08:33:59Z</time>
      </trkpt>
      <trkpt lat="41.691703" lon="-8.834514">
        <ele>16.448</ele>
        <time>2019-04-29T08:34:11Z</time>
      </trkpt>
      <trkpt lat="41.691836" lon="-8.834911">
        <ele>16.061</ele>
        <time>2019-04-29T08:34:24Z</time>
      </trkpt>
      <trkpt lat="41.691902" lon="-8.835275">
        <ele>17.417</ele>
        <time>2019-04-29T08:34:35Z</time>
      </trkpt>
      <trkpt lat="41.692131" lon="-8.835223">
        <ele>16.008</ele>
        <time>2019-04-29T08:34:45Z</time>
      </trkpt>
      <trkpt lat="41.692234" lon="-8.835298">
        <ele>15.597</ele>
        <time>2019-04-29T08:34:49Z</time>
      </trkpt>
      <trkpt lat="41.692391" lon="-8.835476">
        <ele>17.980</ele>
        <time>2019-04-29T08:34:57Z</time>
      </trkpt>
      <trkpt lat="41.692400" lon="-8.835665">
        <ele>18.476</ele>
        <time>2019-04-29T08:35:06Z</time>
      </trkpt>
      <trkpt lat="41.692352" lon="-8.835782">
        <ele>18.854</ele>
        <time>2019-04-29T08:35:10Z</time>
      </trkpt>
      <trkpt lat="41.692212" lon="-8.836061">
        <ele>16.042</ele>
        <time>2019-04-29T08:35:22Z</time>
      </trkpt>
      <trkpt lat="41.692217" lon="-8.836087">
        <ele>15.544</ele>
        <time>2019-04-29T08:35:24Z</time>
      </trkpt>
      <trkpt lat="41.692272" lon="-8.836182">
        <ele>15.074</ele>
        <time>2019-04-29T08:35:29Z</time>
      </trkpt>
      <trkpt lat="41.692514" lon="-8.836692">
        <ele>16.918</ele>
        <time>2019-04-29T08:35:45Z</time>
      </trkpt>
      <trkpt lat="41.692730" lon="-8.837136">
        <ele>16.019</ele>
        <time>2019-04-29T08:35:59Z</time>
      </trkpt>
      <trkpt lat="41.692769" lon="-8.837297">
        <ele>18.409</ele>
        <time>2019-04-29T08:36:04Z</time>
      </trkpt>
      <trkpt lat="41.693085" lon="-8.837248">
        <ele>21.719</ele>
        <time>2019-04-29T08:36:18Z</time>
      </trkpt>
      <trkpt lat="41.693255" lon="-8.836970">
        <ele>21.708</ele>
        <time>2019-04-29T08:36:32Z</time>
      </trkpt>
      <trkpt lat="41.693343" lon="-8.836648">
        <ele>22.734</ele>
        <time>2019-04-29T08:36:46Z</time>
      </trkpt>
      <trkpt lat="41.693347" lon="-8.836603">
        <ele>21.297</ele>
        <time>2019-04-29T08:36:57Z</time>
      </trkpt>
      <trkpt lat="41.693343" lon="-8.836596">
        <ele>21.763</ele>
        <time>2019-04-29T08:37:11Z</time>
      </trkpt>
      <trkpt lat="41.693347" lon="-8.836434">
        <ele>21.791</ele>
        <time>2019-04-29T08:37:18Z</time>
      </trkpt>
      <trkpt lat="41.693333" lon="-8.835764">
        <ele>21.239</ele>
        <time>2019-04-29T08:37:36Z</time>
      </trkpt>
      <trkpt lat="41.693433" lon="-8.834806">
        <ele>20.841</ele>
        <time>2019-04-29T08:37:56Z</time>
      </trkpt>
      <trkpt lat="41.693607" lon="-8.833757">
        <ele>17.471</ele>
        <time>2019-04-29T08:38:10Z</time>
      </trkpt>
      <trkpt lat="41.693668" lon="-8.833537">
        <ele>16.475</ele>
        <time>2019-04-29T08:38:14Z</time>
      </trkpt>
      <trkpt lat="41.693747" lon="-8.833541">
        <ele>18.824</ele>
        <time>2019-04-29T08:38:19Z</time>
      </trkpt>
      <trkpt lat="41.693780" lon="-8.833662">
        <ele>22.204</ele>
        <time>2019-04-29T08:38:23Z</time>
      </trkpt>
      <trkpt lat="41.694143" lon="-8.833897">
        <ele>31.314</ele>
        <time>2019-04-29T08:38:36Z</time>
      </trkpt>
      <trkpt lat="41.694221" lon="-8.833897">
        <ele>34.208</ele>
        <time>2019-04-29T08:38:41Z</time>
      </trkpt>
      <trkpt lat="41.694401" lon="-8.833801">
        <ele>40.065</ele>
        <time>2019-04-29T08:38:54Z</time>
      </trkpt>
      <trkpt lat="41.694582" lon="-8.833570">
        <ele>43.458</ele>
        <time>2019-04-29T08:39:08Z</time>
      </trkpt>
      <trkpt lat="41.694729" lon="-8.833366">
        <ele>45.894</ele>
        <time>2019-04-29T08:39:19Z</time>
      </trkpt>
      <trkpt lat="41.694767" lon="-8.833325">
        <ele>46.762</ele>
        <time>2019-04-29T08:39:32Z</time>
      </trkpt>
      <trkpt lat="41.694778" lon="-8.833335">
        <ele>47.290</ele>
        <time>2019-04-29T08:39:44Z</time>
      </trkpt>
      <trkpt lat="41.694839" lon="-8.833256">
        <ele>47.732</ele>
        <time>2019-04-29T08:39:49Z</time>
      </trkpt>
      <trkpt lat="41.694873" lon="-8.833194">
        <ele>48.272</ele>
        <time>2019-04-29T08:39:59Z</time>
      </trkpt>
      <trkpt lat="41.694878" lon="-8.833184">
        <ele>48.246</ele>
        <time>2019-04-29T08:40:04Z</time>
      </trkpt>
      <trkpt lat="41.694914" lon="-8.833135">
        <ele>48.244</ele>
        <time>2019-04-29T08:40:08Z</time>
      </trkpt>
      <trkpt lat="41.695086" lon="-8.832904">
        <ele>45.305</ele>
        <time>2019-04-29T08:40:19Z</time>
      </trkpt>
      <trkpt lat="41.695211" lon="-8.832692">
        <ele>45.815</ele>
        <time>2019-04-29T08:40:29Z</time>
      </trkpt>
      <trkpt lat="41.695209" lon="-8.832685">
        <ele>47.208</ele>
        <time>2019-04-29T08:40:44Z</time>
      </trkpt>
      <trkpt lat="41.695208" lon="-8.832685">
        <ele>47.217</ele>
        <time>2019-04-29T08:40:45Z</time>
      </trkpt>
      <trkpt lat="41.695216" lon="-8.832674">
        <ele>47.260</ele>
        <time>2019-04-29T08:40:47Z</time>
      </trkpt>
      <trkpt lat="41.695405" lon="-8.832376">
        <ele>47.796</ele>
        <time>2019-04-29T08:40:58Z</time>
      </trkpt>
      <trkpt lat="41.695419" lon="-8.832353">
        <ele>47.794</ele>
        <time>2019-04-29T08:40:59Z</time>
      </trkpt>
      <trkpt lat="41.695659" lon="-8.832211">
        <ele>47.782</ele>
        <time>2019-04-29T08:41:10Z</time>
      </trkpt>
      <trkpt lat="41.695742" lon="-8.832214">
        <ele>43.884</ele>
        <time>2019-04-29T08:41:14Z</time>
      </trkpt>
      <trkpt lat="41.695776" lon="-8.832228">
        <ele>42.444</ele>
        <time>2019-04-29T08:41:16Z</time>
      </trkpt>
      <trkpt lat="41.695802" lon="-8.832320">
        <ele>40.598</ele>
        <time>2019-04-29T08:41:26Z</time>
      </trkpt>
      <trkpt lat="41.695794" lon="-8.832349">
        <ele>39.536</ele>
        <time>2019-04-29T08:41:38Z</time>
      </trkpt>
      <trkpt lat="41.695792" lon="-8.832350">
        <ele>39.017</ele>
        <time>2019-04-29T08:41:40Z</time>
      </trkpt>
      <trkpt lat="41.695658" lon="-8.832765">
        <ele>38.118</ele>
        <time>2019-04-29T08:41:55Z</time>
      </trkpt>
      <trkpt lat="41.695492" lon="-8.833241">
        <ele>38.108</ele>
        <time>2019-04-29T08:42:12Z</time>
      </trkpt>
      <trkpt lat="41.695376" lon="-8.833563">
        <ele>39.566</ele>
        <time>2019-04-29T08:42:26Z</time>
      </trkpt>
      <trkpt lat="41.695371" lon="-8.833575">
        <ele>40.039</ele>
        <time>2019-04-29T08:42:40Z</time>
      </trkpt>
      <trkpt lat="41.695365" lon="-8.833578">
        <ele>40.985</ele>
        <time>2019-04-29T08:42:54Z</time>
      </trkpt>
      <trkpt lat="41.695473" lon="-8.833837">
        <ele>42.463</ele>
        <time>2019-04-29T08:43:03Z</time>
      </trkpt>
      <trkpt lat="41.695499" lon="-8.833866">
        <ele>42.491</ele>
        <time>2019-04-29T08:43:04Z</time>
      </trkpt>
      <trkpt lat="41.695745" lon="-8.834174">
        <ele>45.843</ele>
        <time>2019-04-29T08:43:18Z</time>
      </trkpt>
      <trkpt lat="41.695984" lon="-8.834477">
        <ele>48.613</ele>
        <time>2019-04-29T08:43:34Z</time>
      </trkpt>
      <trkpt lat="41.696201" lon="-8.834755">
        <ele>52.077</ele>
        <time>2019-04-29T08:43:48Z</time>
      </trkpt>
      <trkpt lat="41.696392" lon="-8.834988">
        <ele>52.041</ele>
        <time>2019-04-29T08:44:03Z</time>
      </trkpt>
      <trkpt lat="41.696481" lon="-8.835123">
        <ele>53.981</ele>
        <time>2019-04-29T08:44:14Z</time>
      </trkpt>
      <trkpt lat="41.696522" lon="-8.835161">
        <ele>54.409</ele>
        <time>2019-04-29T08:44:18Z</time>
      </trkpt>
      <trkpt lat="41.696544" lon="-8.835165">
        <ele>54.408</ele>
        <time>2019-04-29T08:44:20Z</time>
      </trkpt>
      <trkpt lat="41.696566" lon="-8.835200">
        <ele>54.977</ele>
        <time>2019-04-29T08:44:23Z</time>
      </trkpt>
      <trkpt lat="41.696593" lon="-8.835225">
        <ele>53.980</ele>
        <time>2019-04-29T08:44:34Z</time>
      </trkpt>
      <trkpt lat="41.696602" lon="-8.835250">
        <ele>53.936</ele>
        <time>2019-04-29T08:44:37Z</time>
      </trkpt>
      <trkpt lat="41.696822" lon="-8.835532">
        <ele>54.954</ele>
        <time>2019-04-29T08:44:52Z</time>
      </trkpt>
      <trkpt lat="41.697048" lon="-8.835806">
        <ele>57.372</ele>
        <time>2019-04-29T08:45:08Z</time>
      </trkpt>
      <trkpt lat="41.697309" lon="-8.836128">
        <ele>59.214</ele>
        <time>2019-04-29T08:45:26Z</time>
      </trkpt>
      <trkpt lat="41.697324" lon="-8.836123">
        <ele>59.724</ele>
        <time>2019-04-29T08:45:37Z</time>
      </trkpt>
      <trkpt lat="41.697332" lon="-8.836120">
        <ele>59.278</ele>
        <time>2019-04-29T08:46:12Z</time>
      </trkpt>
      <trkpt lat="41.697340" lon="-8.836119">
        <ele>57.866</ele>
        <time>2019-04-29T08:46:47Z</time>
      </trkpt>
      <trkpt lat="41.697336" lon="-8.836121">
        <ele>58.329</ele>
        <time>2019-04-29T08:46:50Z</time>
      </trkpt>
      <trkpt lat="41.697401" lon="-8.836228">
        <ele>60.221</ele>
        <time>2019-04-29T08:46:56Z</time>
      </trkpt>
      <trkpt lat="41.697677" lon="-8.836688">
        <ele>60.708</ele>
        <time>2019-04-29T08:47:10Z</time>
      </trkpt>
      <trkpt lat="41.698091" lon="-8.837136">
        <ele>60.729</ele>
        <time>2019-04-29T08:47:25Z</time>
      </trkpt>
      <trkpt lat="41.698560" lon="-8.837659">
        <ele>61.162</ele>
        <time>2019-04-29T08:47:42Z</time>
      </trkpt>
      <trkpt lat="41.699013" lon="-8.838183">
        <ele>59.728</ele>
        <time>2019-04-29T08:47:59Z</time>
      </trkpt>
      <trkpt lat="41.699268" lon="-8.838518">
        <ele>58.396</ele>
        <time>2019-04-29T08:48:14Z</time>
      </trkpt>
      <trkpt lat="41.699648" lon="-8.839057">
        <ele>57.334</ele>
        <time>2019-04-29T08:48:31Z</time>
      </trkpt>
      <trkpt lat="41.700130" lon="-8.839729">
        <ele>53.976</ele>
        <time>2019-04-29T08:48:50Z</time>
      </trkpt>
      <trkpt lat="41.700674" lon="-8.840267">
        <ele>54.946</ele>
        <time>2019-04-29T08:49:08Z</time>
      </trkpt>
      <trkpt lat="41.700746" lon="-8.840336">
        <ele>54.980</ele>
        <time>2019-04-29T08:49:10Z</time>
      </trkpt>
      <trkpt lat="41.701464" lon="-8.840869">
        <ele>57.396</ele>
        <time>2019-04-29T08:49:29Z</time>
      </trkpt>
      <trkpt lat="41.701533" lon="-8.840925">
        <ele>57.831</ele>
        <time>2019-04-29T08:49:31Z</time>
      </trkpt>
      <trkpt lat="41.702100" lon="-8.841347">
        <ele>60.224</ele>
        <time>2019-04-29T08:49:47Z</time>
      </trkpt>
      <trkpt lat="41.702767" lon="-8.841777">
        <ele>59.708</ele>
        <time>2019-04-29T08:50:05Z</time>
      </trkpt>
      <trkpt lat="41.703309" lon="-8.842228">
        <ele>60.722</ele>
        <time>2019-04-29T08:50:21Z</time>
      </trkpt>
      <trkpt lat="41.703943" lon="-8.842653">
        <ele>60.715</ele>
        <time>2019-04-29T08:50:39Z</time>
      </trkpt>
      <trkpt lat="41.704504" lon="-8.842961">
        <ele>59.711</ele>
        <time>2019-04-29T08:50:54Z</time>
      </trkpt>
      <trkpt lat="41.705218" lon="-8.843448">
        <ele>57.389</ele>
        <time>2019-04-29T08:51:10Z</time>
      </trkpt>
      <trkpt lat="41.705828" lon="-8.843883">
        <ele>56.837</ele>
        <time>2019-04-29T08:51:26Z</time>
      </trkpt>
      <trkpt lat="41.706244" lon="-8.844069">
        <ele>57.359</ele>
        <time>2019-04-29T08:51:38Z</time>
      </trkpt>
      <trkpt lat="41.706813" lon="-8.844185">
        <ele>58.389</ele>
        <time>2019-04-29T08:51:54Z</time>
      </trkpt>
      <trkpt lat="41.707088" lon="-8.844315">
        <ele>58.723</ele>
        <time>2019-04-29T08:52:04Z</time>
      </trkpt>
      <trkpt lat="41.707133" lon="-8.844461">
        <ele>58.312</ele>
        <time>2019-04-29T08:52:09Z</time>
      </trkpt>
      <trkpt lat="41.707381" lon="-8.844627">
        <ele>58.732</ele>
        <time>2019-04-29T08:52:17Z</time>
      </trkpt>
      <trkpt lat="41.707472" lon="-8.845003">
        <ele>55.805</ele>
        <time>2019-04-29T08:52:25Z</time>
      </trkpt>
      <trkpt lat="41.707654" lon="-8.845079">
        <ele>52.508</ele>
        <time>2019-04-29T08:52:35Z</time>
      </trkpt>
      <trkpt lat="41.707828" lon="-8.845186">
        <ele>51.514</ele>
        <time>2019-04-29T08:52:42Z</time>
      </trkpt>
      <trkpt lat="41.708097" lon="-8.845293">
        <ele>50.197</ele>
        <time>2019-04-29T08:52:48Z</time>
      </trkpt>
      <trkpt lat="41.708264" lon="-8.845430">
        <ele>49.633</ele>
        <time>2019-04-29T08:52:52Z</time>
      </trkpt>
      <trkpt lat="41.708440" lon="-8.845603">
        <ele>48.291</ele>
        <time>2019-04-29T08:52:56Z</time>
      </trkpt>
      <trkpt lat="41.708535" lon="-8.845626">
        <ele>47.779</ele>
        <time>2019-04-29T08:52:58Z</time>
      </trkpt>
      <trkpt lat="41.708889" lon="-8.845630">
        <ele>46.251</ele>
        <time>2019-04-29T08:53:09Z</time>
      </trkpt>
      <trkpt lat="41.708918" lon="-8.845639">
        <ele>46.291</ele>
        <time>2019-04-29T08:53:10Z</time>
      </trkpt>
      <trkpt lat="41.708960" lon="-8.845841">
        <ele>47.235</ele>
        <time>2019-04-29T08:53:15Z</time>
      </trkpt>
      <trkpt lat="41.708897" lon="-8.846046">
        <ele>47.291</ele>
        <time>2019-04-29T08:53:19Z</time>
      </trkpt>
      <trkpt lat="41.708863" lon="-8.846461">
        <ele>46.281</ele>
        <time>2019-04-29T08:53:24Z</time>
      </trkpt>
      <trkpt lat="41.708976" lon="-8.847009">
        <ele>42.919</ele>
        <time>2019-04-29T08:53:33Z</time>
      </trkpt>
      <trkpt lat="41.709016" lon="-8.847028">
        <ele>41.408</ele>
        <time>2019-04-29T08:53:40Z</time>
      </trkpt>
      <trkpt lat="41.708979" lon="-8.847020">
        <ele>42.962</ele>
        <time>2019-04-29T08:53:44Z</time>
      </trkpt>
      <trkpt lat="41.708928" lon="-8.846979">
        <ele>43.865</ele>
        <time>2019-04-29T08:53:47Z</time>
      </trkpt>
      <trkpt lat="41.708942" lon="-8.846936">
        <ele>43.821</ele>
        <time>2019-04-29T08:53:55Z</time>
      </trkpt>
      <trkpt lat="41.708940" lon="-8.846944">
        <ele>45.399</ele>
        <time>2019-04-29T08:54:19Z</time>
      </trkpt>
      <trkpt lat="41.708942" lon="-8.846948">
        <ele>46.217</ele>
        <time>2019-04-29T08:54:54Z</time>
      </trkpt>
      <trkpt lat="41.708941" lon="-8.846950">
        <ele>46.259</ele>
        <time>2019-04-29T08:54:57Z</time>
      </trkpt>
      <trkpt lat="41.708985" lon="-8.847023">
        <ele>45.829</ele>
        <time>2019-04-29T08:55:01Z</time>
      </trkpt>
      <trkpt lat="41.709372" lon="-8.847290">
        <ele>43.873</ele>
        <time>2019-04-29T08:55:12Z</time>
      </trkpt>
      <trkpt lat="41.709716" lon="-8.847145">
        <ele>45.343</ele>
        <time>2019-04-29T08:55:20Z</time>
      </trkpt>
      <trkpt lat="41.709823" lon="-8.847217">
        <ele>45.864</ele>
        <time>2019-04-29T08:55:23Z</time>
      </trkpt>
      <trkpt lat="41.709911" lon="-8.847326">
        <ele>46.210</ele>
        <time>2019-04-29T08:55:26Z</time>
      </trkpt>
      <trkpt lat="41.710227" lon="-8.847262">
        <ele>47.208</ele>
        <time>2019-04-29T08:55:35Z</time>
      </trkpt>
      <trkpt lat="41.710382" lon="-8.847345">
        <ele>48.267</ele>
        <time>2019-04-29T08:55:40Z</time>
      </trkpt>
      <trkpt lat="41.710664" lon="-8.847592">
        <ele>46.720</ele>
        <time>2019-04-29T08:55:48Z</time>
      </trkpt>
      <trkpt lat="41.710925" lon="-8.847766">
        <ele>47.266</ele>
        <time>2019-04-29T08:55:55Z</time>
      </trkpt>
      <trkpt lat="41.711022" lon="-8.848055">
        <ele>46.744</ele>
        <time>2019-04-29T08:56:00Z</time>
      </trkpt>
      <trkpt lat="41.711195" lon="-8.848352">
        <ele>45.852</ele>
        <time>2019-04-29T08:56:05Z</time>
      </trkpt>
      <trkpt lat="41.711286" lon="-8.848428">
        <ele>45.394</ele>
        <time>2019-04-29T08:56:07Z</time>
      </trkpt>
      <trkpt lat="41.711605" lon="-8.848611">
        <ele>45.334</ele>
        <time>2019-04-29T08:56:13Z</time>
      </trkpt>
      <trkpt lat="41.711875" lon="-8.848694">
        <ele>46.238</ele>
        <time>2019-04-29T08:56:19Z</time>
      </trkpt>
      <trkpt lat="41.712247" lon="-8.848509">
        <ele>48.653</ele>
        <time>2019-04-29T08:56:30Z</time>
      </trkpt>
      <trkpt lat="41.712664" lon="-8.848423">
        <ele>53.904</ele>
        <time>2019-04-29T08:56:44Z</time>
      </trkpt>
      <trkpt lat="41.713135" lon="-8.848718">
        <ele>55.814</ele>
        <time>2019-04-29T08:57:00Z</time>
      </trkpt>
      <trkpt lat="41.713568" lon="-8.848950">
        <ele>55.408</ele>
        <time>2019-04-29T08:57:13Z</time>
      </trkpt>
      <trkpt lat="41.714069" lon="-8.849108">
        <ele>55.888</ele>
        <time>2019-04-29T08:57:28Z</time>
      </trkpt>
      <trkpt lat="41.714314" lon="-8.849057">
        <ele>57.391</ele>
        <time>2019-04-29T08:57:39Z</time>
      </trkpt>
      <trkpt lat="41.714434" lon="-8.849024">
        <ele>56.377</ele>
        <time>2019-04-29T08:57:50Z</time>
      </trkpt>
      <trkpt lat="41.714432" lon="-8.849019">
        <ele>57.845</ele>
        <time>2019-04-29T08:58:17Z</time>
      </trkpt>
      <trkpt lat="41.714430" lon="-8.849023">
        <ele>57.313</ele>
        <time>2019-04-29T08:58:38Z</time>
      </trkpt>
      <trkpt lat="41.714479" lon="-8.849078">
        <ele>57.345</ele>
        <time>2019-04-29T08:58:42Z</time>
      </trkpt>
      <trkpt lat="41.714787" lon="-8.849305">
        <ele>57.315</ele>
        <time>2019-04-29T08:58:51Z</time>
      </trkpt>
      <trkpt lat="41.714871" lon="-8.849331">
        <ele>57.349</ele>
        <time>2019-04-29T08:58:53Z</time>
      </trkpt>
      <trkpt lat="41.715065" lon="-8.849494">
        <ele>57.339</ele>
        <time>2019-04-29T08:58:58Z</time>
      </trkpt>
      <trkpt lat="41.715484" lon="-8.849767">
        <ele>57.301</ele>
        <time>2019-04-29T08:59:08Z</time>
      </trkpt>
      <trkpt lat="41.715826" lon="-8.849958">
        <ele>55.421</ele>
        <time>2019-04-29T08:59:18Z</time>
      </trkpt>
      <trkpt lat="41.716350" lon="-8.850108">
        <ele>53.408</ele>
        <time>2019-04-29T08:59:33Z</time>
      </trkpt>
      <trkpt lat="41.716847" lon="-8.850226">
        <ele>52.016</ele>
        <time>2019-04-29T08:59:47Z</time>
      </trkpt>
      <trkpt lat="41.717264" lon="-8.850315">
        <ele>53.049</ele>
        <time>2019-04-29T08:59:58Z</time>
      </trkpt>
      <trkpt lat="41.717677" lon="-8.850406">
        <ele>54.475</ele>
        <time>2019-04-29T09:00:09Z</time>
      </trkpt>
      <trkpt lat="41.717955" lon="-8.850581">
        <ele>53.913</ele>
        <time>2019-04-29T09:00:17Z</time>
      </trkpt>
      <trkpt lat="41.718230" lon="-8.850596">
        <ele>53.441</ele>
        <time>2019-04-29T09:00:26Z</time>
      </trkpt>
      <trkpt lat="41.718351" lon="-8.850300">
        <ele>55.863</ele>
        <time>2019-04-29T09:00:40Z</time>
      </trkpt>
      <trkpt lat="41.718402" lon="-8.850019">
        <ele>60.743</ele>
        <time>2019-04-29T09:00:53Z</time>
      </trkpt>
      <trkpt lat="41.718677" lon="-8.850040">
        <ele>65.057</ele>
        <time>2019-04-29T09:01:05Z</time>
      </trkpt>
      <trkpt lat="41.718962" lon="-8.850038">
        <ele>66.442</ele>
        <time>2019-04-29T09:01:17Z</time>
      </trkpt>
      <trkpt lat="41.719230" lon="-8.849897">
        <ele>66.922</ele>
        <time>2019-04-29T09:01:29Z</time>
      </trkpt>
      <trkpt lat="41.719399" lon="-8.849778">
        <ele>68.314</ele>
        <time>2019-04-29T09:01:40Z</time>
      </trkpt>
      <trkpt lat="41.719463" lon="-8.849797">
        <ele>67.908</ele>
        <time>2019-04-29T09:01:54Z</time>
      </trkpt>
      <trkpt lat="41.719464" lon="-8.849797">
        <ele>67.927</ele>
        <time>2019-04-29T09:01:55Z</time>
      </trkpt>
      <trkpt lat="41.719541" lon="-8.849893">
        <ele>65.510</ele>
        <time>2019-04-29T09:02:06Z</time>
      </trkpt>
      <trkpt lat="41.719597" lon="-8.849975">
        <ele>64.096</ele>
        <time>2019-04-29T09:02:13Z</time>
      </trkpt>
      <trkpt lat="41.719719" lon="-8.850118">
        <ele>62.624</ele>
        <time>2019-04-29T09:02:16Z</time>
      </trkpt>
      <trkpt lat="41.719918" lon="-8.850550">
        <ele>59.212</ele>
        <time>2019-04-29T09:02:22Z</time>
      </trkpt>
      <trkpt lat="41.720210" lon="-8.850631">
        <ele>55.464</ele>
        <time>2019-04-29T09:02:29Z</time>
      </trkpt>
      <trkpt lat="41.720340" lon="-8.850409">
        <ele>52.514</ele>
        <time>2019-04-29T09:02:36Z</time>
      </trkpt>
      <trkpt lat="41.720627" lon="-8.850217">
        <ele>50.118</ele>
        <time>2019-04-29T09:02:47Z</time>
      </trkpt>
      <trkpt lat="41.720840" lon="-8.850078">
        <ele>49.666</ele>
        <time>2019-04-29T09:02:56Z</time>
      </trkpt>
      <trkpt lat="41.720881" lon="-8.849946">
        <ele>50.629</ele>
        <time>2019-04-29T09:03:02Z</time>
      </trkpt>
      <trkpt lat="41.720878" lon="-8.849821">
        <ele>52.021</ele>
        <time>2019-04-29T09:03:08Z</time>
      </trkpt>
      <trkpt lat="41.720871" lon="-8.849691">
        <ele>52.508</ele>
        <time>2019-04-29T09:03:13Z</time>
      </trkpt>
      <trkpt lat="41.720922" lon="-8.849554">
        <ele>52.589</ele>
        <time>2019-04-29T09:03:20Z</time>
      </trkpt>
      <trkpt lat="41.721083" lon="-8.849343">
        <ele>51.052</ele>
        <time>2019-04-29T09:03:30Z</time>
      </trkpt>
      <trkpt lat="41.721165" lon="-8.849286">
        <ele>49.148</ele>
        <time>2019-04-29T09:03:36Z</time>
      </trkpt>
      <trkpt lat="41.721249" lon="-8.849261">
        <ele>48.676</ele>
        <time>2019-04-29T09:03:42Z</time>
      </trkpt>
      <trkpt lat="41.721315" lon="-8.849311">
        <ele>49.184</ele>
        <time>2019-04-29T09:03:47Z</time>
      </trkpt>
      <trkpt lat="41.721882" lon="-8.849325">
        <ele>51.586</ele>
        <time>2019-04-29T09:04:00Z</time>
      </trkpt>
      <trkpt lat="41.722159" lon="-8.849523">
        <ele>51.526</ele>
        <time>2019-04-29T09:04:10Z</time>
      </trkpt>
      <trkpt lat="41.722132" lon="-8.849646">
        <ele>51.060</ele>
        <time>2019-04-29T09:04:19Z</time>
      </trkpt>
      <trkpt lat="41.722137" lon="-8.849647">
        <ele>52.564</ele>
        <time>2019-04-29T09:04:45Z</time>
      </trkpt>
      <trkpt lat="41.722136" lon="-8.849656">
        <ele>52.006</ele>
        <time>2019-04-29T09:05:01Z</time>
      </trkpt>
      <trkpt lat="41.722143" lon="-8.849648">
        <ele>52.516</ele>
        <time>2019-04-29T09:05:29Z</time>
      </trkpt>
      <trkpt lat="41.722137" lon="-8.849656">
        <ele>53.008</ele>
        <time>2019-04-29T09:05:50Z</time>
      </trkpt>
      <trkpt lat="41.722104" lon="-8.849750">
        <ele>53.029</ele>
        <time>2019-04-29T09:05:55Z</time>
      </trkpt>
      <trkpt lat="41.722057" lon="-8.849819">
        <ele>52.572</ele>
        <time>2019-04-29T09:06:06Z</time>
      </trkpt>
      <trkpt lat="41.722049" lon="-8.849836">
        <ele>50.158</ele>
        <time>2019-04-29T09:06:49Z</time>
      </trkpt>
      <trkpt lat="41.722057" lon="-8.849829">
        <ele>50.666</ele>
        <time>2019-04-29T09:07:13Z</time>
      </trkpt>
      <trkpt lat="41.722055" lon="-8.849862">
        <ele>50.684</ele>
        <time>2019-04-29T09:07:25Z</time>
      </trkpt>
      <trkpt lat="41.721986" lon="-8.850240">
        <ele>48.266</ele>
        <time>2019-04-29T09:07:35Z</time>
      </trkpt>
      <trkpt lat="41.721979" lon="-8.850295">
        <ele>47.786</ele>
        <time>2019-04-29T09:07:36Z</time>
      </trkpt>
      <trkpt lat="41.722015" lon="-8.850773">
        <ele>45.380</ele>
        <time>2019-04-29T09:07:43Z</time>
      </trkpt>
      <trkpt lat="41.722111" lon="-8.851057">
        <ele>45.382</ele>
        <time>2019-04-29T09:07:50Z</time>
      </trkpt>
      <trkpt lat="41.722122" lon="-8.851058">
        <ele>45.343</ele>
        <time>2019-04-29T09:07:52Z</time>
      </trkpt>
      <trkpt lat="41.722121" lon="-8.851051">
        <ele>45.817</ele>
        <time>2019-04-29T09:08:11Z</time>
      </trkpt>
      <trkpt lat="41.722127" lon="-8.851055">
        <ele>45.308</ele>
        <time>2019-04-29T09:08:50Z</time>
      </trkpt>
      <trkpt lat="41.722122" lon="-8.851062">
        <ele>45.831</ele>
        <time>2019-04-29T09:08:53Z</time>
      </trkpt>
      <trkpt lat="41.722100" lon="-8.851209">
        <ele>45.834</ele>
        <time>2019-04-29T09:09:00Z</time>
      </trkpt>
      <trkpt lat="41.721937" lon="-8.852049">
        <ele>45.370</ele>
        <time>2019-04-29T09:09:17Z</time>
      </trkpt>
      <trkpt lat="41.721907" lon="-8.852256">
        <ele>45.328</ele>
        <time>2019-04-29T09:09:21Z</time>
      </trkpt>
      <trkpt lat="41.721871" lon="-8.852371">
        <ele>44.386</ele>
        <time>2019-04-29T09:09:23Z</time>
      </trkpt>
      <trkpt lat="41.721899" lon="-8.852546">
        <ele>45.858</ele>
        <time>2019-04-29T09:09:27Z</time>
      </trkpt>
      <trkpt lat="41.722378" lon="-8.852709">
        <ele>50.118</ele>
        <time>2019-04-29T09:09:41Z</time>
      </trkpt>
      <trkpt lat="41.722805" lon="-8.852881">
        <ele>53.422</ele>
        <time>2019-04-29T09:09:54Z</time>
      </trkpt>
      <trkpt lat="41.723196" lon="-8.852900">
        <ele>53.928</ele>
        <time>2019-04-29T09:10:05Z</time>
      </trkpt>
      <trkpt lat="41.723784" lon="-8.853349">
        <ele>53.089</ele>
        <time>2019-04-29T09:10:18Z</time>
      </trkpt>
      <trkpt lat="41.724049" lon="-8.853424">
        <ele>52.517</ele>
        <time>2019-04-29T09:10:23Z</time>
      </trkpt>
      <trkpt lat="41.724697" lon="-8.853515">
        <ele>52.008</ele>
        <time>2019-04-29T09:10:36Z</time>
      </trkpt>
      <trkpt lat="41.724857" lon="-8.853580">
        <ele>52.045</ele>
        <time>2019-04-29T09:10:40Z</time>
      </trkpt>
      <trkpt lat="41.725175" lon="-8.853725">
        <ele>53.068</ele>
        <time>2019-04-29T09:10:48Z</time>
      </trkpt>
      <trkpt lat="41.725315" lon="-8.853825">
        <ele>53.454</ele>
        <time>2019-04-29T09:10:52Z</time>
      </trkpt>
      <trkpt lat="41.725851" lon="-8.854260">
        <ele>55.412</ele>
        <time>2019-04-29T09:11:10Z</time>
      </trkpt>
      <trkpt lat="41.726080" lon="-8.854454">
        <ele>55.420</ele>
        <time>2019-04-29T09:11:17Z</time>
      </trkpt>
      <trkpt lat="41.726655" lon="-8.854689">
        <ele>56.382</ele>
        <time>2019-04-29T09:11:32Z</time>
      </trkpt>
      <trkpt lat="41.727099" lon="-8.854885">
        <ele>60.272</ele>
        <time>2019-04-29T09:11:45Z</time>
      </trkpt>
      <trkpt lat="41.727523" lon="-8.855048">
        <ele>60.736</ele>
        <time>2019-04-29T09:11:56Z</time>
      </trkpt>
      <trkpt lat="41.727990" lon="-8.854972">
        <ele>63.592</ele>
        <time>2019-04-29T09:12:09Z</time>
      </trkpt>
      <trkpt lat="41.728383" lon="-8.854759">
        <ele>66.473</ele>
        <time>2019-04-29T09:12:21Z</time>
      </trkpt>
      <trkpt lat="41.728782" lon="-8.854756">
        <ele>65.520</ele>
        <time>2019-04-29T09:12:33Z</time>
      </trkpt>
      <trkpt lat="41.729185" lon="-8.854654">
        <ele>66.408</ele>
        <time>2019-04-29T09:12:46Z</time>
      </trkpt>
      <trkpt lat="41.729494" lon="-8.854613">
        <ele>62.612</ele>
        <time>2019-04-29T09:12:54Z</time>
      </trkpt>
      <trkpt lat="41.730074" lon="-8.854969">
        <ele>58.795</ele>
        <time>2019-04-29T09:13:07Z</time>
      </trkpt>
      <trkpt lat="41.730464" lon="-8.855205">
        <ele>55.841</ele>
        <time>2019-04-29T09:13:14Z</time>
      </trkpt>
      <trkpt lat="41.730543" lon="-8.855245">
        <ele>54.939</ele>
        <time>2019-04-29T09:13:16Z</time>
      </trkpt>
      <trkpt lat="41.730885" lon="-8.855400">
        <ele>53.097</ele>
        <time>2019-04-29T09:13:25Z</time>
      </trkpt>
      <trkpt lat="41.731001" lon="-8.855523">
        <ele>52.569</ele>
        <time>2019-04-29T09:13:28Z</time>
      </trkpt>
      <trkpt lat="41.731059" lon="-8.855630">
        <ele>52.059</ele>
        <time>2019-04-29T09:13:30Z</time>
      </trkpt>
      <trkpt lat="41.731090" lon="-8.856098">
        <ele>50.633</ele>
        <time>2019-04-29T09:13:37Z</time>
      </trkpt>
      <trkpt lat="41.731228" lon="-8.856273">
        <ele>48.278</ele>
        <time>2019-04-29T09:13:42Z</time>
      </trkpt>
      <trkpt lat="41.731242" lon="-8.857047">
        <ele>47.233</ele>
        <time>2019-04-29T09:13:54Z</time>
      </trkpt>
      <trkpt lat="41.731303" lon="-8.857097">
        <ele>47.726</ele>
        <time>2019-04-29T09:14:04Z</time>
      </trkpt>
      <trkpt lat="41.731298" lon="-8.857098">
        <ele>48.608</ele>
        <time>2019-04-29T09:14:36Z</time>
      </trkpt>
      <trkpt lat="41.731307" lon="-8.857102">
        <ele>48.660</ele>
        <time>2019-04-29T09:14:37Z</time>
      </trkpt>
      <trkpt lat="41.731344" lon="-8.857141">
        <ele>48.643</ele>
        <time>2019-04-29T09:14:47Z</time>
      </trkpt>
      <trkpt lat="41.731347" lon="-8.857140">
        <ele>49.159</ele>
        <time>2019-04-29T09:15:23Z</time>
      </trkpt>
      <trkpt lat="41.731451" lon="-8.857175">
        <ele>48.687</ele>
        <time>2019-04-29T09:15:41Z</time>
      </trkpt>
      <trkpt lat="41.731695" lon="-8.857120">
        <ele>48.695</ele>
        <time>2019-04-29T09:15:52Z</time>
      </trkpt>
      <trkpt lat="41.731781" lon="-8.857123">
        <ele>49.157</ele>
        <time>2019-04-29T09:15:55Z</time>
      </trkpt>
      <trkpt lat="41.731850" lon="-8.857230">
        <ele>49.697</ele>
        <time>2019-04-29T09:15:59Z</time>
      </trkpt>
      <trkpt lat="41.732192" lon="-8.857252">
        <ele>49.631</ele>
        <time>2019-04-29T09:16:11Z</time>
      </trkpt>
      <trkpt lat="41.732608" lon="-8.857265">
        <ele>53.091</ele>
        <time>2019-04-29T09:16:24Z</time>
      </trkpt>
      <trkpt lat="41.732886" lon="-8.857343">
        <ele>56.881</ele>
        <time>2019-04-29T09:16:33Z</time>
      </trkpt>
      <trkpt lat="41.733435" lon="-8.857463">
        <ele>58.319</ele>
        <time>2019-04-29T09:16:48Z</time>
      </trkpt>
      <trkpt lat="41.734019" lon="-8.857488">
        <ele>55.808</ele>
        <time>2019-04-29T09:17:03Z</time>
      </trkpt>
      <trkpt lat="41.734432" lon="-8.857578">
        <ele>55.412</ele>
        <time>2019-04-29T09:17:16Z</time>
      </trkpt>
      <trkpt lat="41.734736" lon="-8.857607">
        <ele>54.425</ele>
        <time>2019-04-29T09:17:28Z</time>
      </trkpt>
      <trkpt lat="41.734984" lon="-8.857402">
        <ele>55.861</ele>
        <time>2019-04-29T09:17:39Z</time>
      </trkpt>
      <trkpt lat="41.735008" lon="-8.857388">
        <ele>56.339</ele>
        <time>2019-04-29T09:17:40Z</time>
      </trkpt>
      <trkpt lat="41.735355" lon="-8.857519">
        <ele>58.357</ele>
        <time>2019-04-29T09:17:53Z</time>
      </trkpt>
      <trkpt lat="41.735770" lon="-8.857537">
        <ele>59.239</ele>
        <time>2019-04-29T09:18:07Z</time>
      </trkpt>
      <trkpt lat="41.736198" lon="-8.857635">
        <ele>58.769</ele>
        <time>2019-04-29T09:18:22Z</time>
      </trkpt>
      <trkpt lat="41.736539" lon="-8.857682">
        <ele>58.373</ele>
        <time>2019-04-29T09:18:34Z</time>
      </trkpt>
      <trkpt lat="41.736952" lon="-8.857797">
        <ele>58.346</ele>
        <time>2019-04-29T09:18:46Z</time>
      </trkpt>
      <trkpt lat="41.737041" lon="-8.857982">
        <ele>57.388</ele>
        <time>2019-04-29T09:18:50Z</time>
      </trkpt>
      <trkpt lat="41.737060" lon="-8.858197">
        <ele>55.816</ele>
        <time>2019-04-29T09:18:53Z</time>
      </trkpt>
      <trkpt lat="41.737205" lon="-8.858802">
        <ele>53.408</ele>
        <time>2019-04-29T09:19:02Z</time>
      </trkpt>
      <trkpt lat="41.737372" lon="-8.859078">
        <ele>51.577</ele>
        <time>2019-04-29T09:19:07Z</time>
      </trkpt>
      <trkpt lat="41.737546" lon="-8.859246">
        <ele>49.690</ele>
        <time>2019-04-29T09:19:11Z</time>
      </trkpt>
      <trkpt lat="41.737854" lon="-8.859544">
        <ele>46.236</ele>
        <time>2019-04-29T09:19:20Z</time>
      </trkpt>
      <trkpt lat="41.738045" lon="-8.859484">
        <ele>44.824</ele>
        <time>2019-04-29T09:19:26Z</time>
      </trkpt>
      <trkpt lat="41.738414" lon="-8.859563">
        <ele>47.772</ele>
        <time>2019-04-29T09:19:40Z</time>
      </trkpt>
      <trkpt lat="41.738786" lon="-8.859698">
        <ele>48.214</ele>
        <time>2019-04-29T09:19:55Z</time>
      </trkpt>
      <trkpt lat="41.739054" lon="-8.859551">
        <ele>50.644</ele>
        <time>2019-04-29T09:20:08Z</time>
      </trkpt>
      <trkpt lat="41.739220" lon="-8.859332">
        <ele>53.428</ele>
        <time>2019-04-29T09:20:19Z</time>
      </trkpt>
      <trkpt lat="41.739299" lon="-8.859317">
        <ele>53.953</ele>
        <time>2019-04-29T09:20:23Z</time>
      </trkpt>
      <trkpt lat="41.739368" lon="-8.859283">
        <ele>55.804</ele>
        <time>2019-04-29T09:20:31Z</time>
      </trkpt>
      <trkpt lat="41.739350" lon="-8.859234">
        <ele>55.414</ele>
        <time>2019-04-29T09:20:33Z</time>
      </trkpt>
      <trkpt lat="41.739460" lon="-8.859191">
        <ele>55.808</ele>
        <time>2019-04-29T09:20:41Z</time>
      </trkpt>
      <trkpt lat="41.739578" lon="-8.859165">
        <ele>55.898</ele>
        <time>2019-04-29T09:20:48Z</time>
      </trkpt>
      <trkpt lat="41.739759" lon="-8.859135">
        <ele>56.311</ele>
        <time>2019-04-29T09:20:58Z</time>
      </trkpt>
      <trkpt lat="41.740197" lon="-8.859271">
        <ele>53.947</ele>
        <time>2019-04-29T09:21:12Z</time>
      </trkpt>
      <trkpt lat="41.740789" lon="-8.859580">
        <ele>54.955</ele>
        <time>2019-04-29T09:21:29Z</time>
      </trkpt>
      <trkpt lat="41.741086" lon="-8.859563">
        <ele>58.723</ele>
        <time>2019-04-29T09:21:41Z</time>
      </trkpt>
      <trkpt lat="41.741124" lon="-8.859571">
        <ele>59.725</ele>
        <time>2019-04-29T09:21:52Z</time>
      </trkpt>
      <trkpt lat="41.741254" lon="-8.859601">
        <ele>60.235</ele>
        <time>2019-04-29T09:22:04Z</time>
      </trkpt>
      <trkpt lat="41.741531" lon="-8.859723">
        <ele>60.269</ele>
        <time>2019-04-29T09:22:13Z</time>
      </trkpt>
      <trkpt lat="41.741771" lon="-8.859927">
        <ele>59.235</ele>
        <time>2019-04-29T09:22:20Z</time>
      </trkpt>
      <trkpt lat="41.742008" lon="-8.860133">
        <ele>56.886</ele>
        <time>2019-04-29T09:22:29Z</time>
      </trkpt>
      <trkpt lat="41.742003" lon="-8.860128">
        <ele>56.814</ele>
        <time>2019-04-29T09:22:53Z</time>
      </trkpt>
      <trkpt lat="41.742006" lon="-8.860129">
        <ele>56.808</ele>
        <time>2019-04-29T09:23:25Z</time>
      </trkpt>
      <trkpt lat="41.742005" lon="-8.860119">
        <ele>57.366</ele>
        <time>2019-04-29T09:23:54Z</time>
      </trkpt>
      <trkpt lat="41.742004" lon="-8.860126">
        <ele>56.859</ele>
        <time>2019-04-29T09:24:14Z</time>
      </trkpt>
      <trkpt lat="41.742050" lon="-8.860136">
        <ele>56.325</ele>
        <time>2019-04-29T09:24:45Z</time>
      </trkpt>
      <trkpt lat="41.742469" lon="-8.860210">
        <ele>55.493</ele>
        <time>2019-04-29T09:24:57Z</time>
      </trkpt>
      <trkpt lat="41.742842" lon="-8.860117">
        <ele>55.871</ele>
        <time>2019-04-29T09:25:09Z</time>
      </trkpt>
      <trkpt lat="41.743142" lon="-8.860113">
        <ele>56.873</ele>
        <time>2019-04-29T09:25:18Z</time>
      </trkpt>
      <trkpt lat="41.743273" lon="-8.860154">
        <ele>56.393</ele>
        <time>2019-04-29T09:25:23Z</time>
      </trkpt>
      <trkpt lat="41.743563" lon="-8.860479">
        <ele>53.487</ele>
        <time>2019-04-29T09:25:34Z</time>
      </trkpt>
      <trkpt lat="41.743638" lon="-8.860501">
        <ele>53.092</ele>
        <time>2019-04-29T09:25:36Z</time>
      </trkpt>
      <trkpt lat="41.743867" lon="-8.860569">
        <ele>51.073</ele>
        <time>2019-04-29T09:25:43Z</time>
      </trkpt>
      <trkpt lat="41.744120" lon="-8.860937">
        <ele>50.120</ele>
        <time>2019-04-29T09:25:50Z</time>
      </trkpt>
      <trkpt lat="41.744284" lon="-8.861073">
        <ele>50.108</ele>
        <time>2019-04-29T09:25:54Z</time>
      </trkpt>
      <trkpt lat="41.744396" lon="-8.861175">
        <ele>50.152</ele>
        <time>2019-04-29T09:25:57Z</time>
      </trkpt>
      <trkpt lat="41.744533" lon="-8.861335">
        <ele>50.645</ele>
        <time>2019-04-29T09:26:01Z</time>
      </trkpt>
      <trkpt lat="41.744715" lon="-8.861960">
        <ele>49.681</ele>
        <time>2019-04-29T09:26:14Z</time>
      </trkpt>
      <trkpt lat="41.744742" lon="-8.862055">
        <ele>49.669</ele>
        <time>2019-04-29T09:26:16Z</time>
      </trkpt>
      <trkpt lat="41.744994" lon="-8.862293">
        <ele>48.267</ele>
        <time>2019-04-29T09:26:22Z</time>
      </trkpt>
      <trkpt lat="41.745327" lon="-8.862275">
        <ele>46.269</ele>
        <time>2019-04-29T09:26:30Z</time>
      </trkpt>
      <trkpt lat="41.745373" lon="-8.862196">
        <ele>46.219</ele>
        <time>2019-04-29T09:26:32Z</time>
      </trkpt>
      <trkpt lat="41.745752" lon="-8.862206">
        <ele>45.863</ele>
        <time>2019-04-29T09:26:41Z</time>
      </trkpt>
      <trkpt lat="41.745924" lon="-8.862122">
        <ele>45.392</ele>
        <time>2019-04-29T09:26:45Z</time>
      </trkpt>
      <trkpt lat="41.746327" lon="-8.861795">
        <ele>48.273</ele>
        <time>2019-04-29T09:26:58Z</time>
      </trkpt>
      <trkpt lat="41.746665" lon="-8.861950">
        <ele>49.620</ele>
        <time>2019-04-29T09:27:09Z</time>
      </trkpt>
      <trkpt lat="41.746783" lon="-8.862050">
        <ele>49.608</ele>
        <time>2019-04-29T09:27:14Z</time>
      </trkpt>
      <trkpt lat="41.746834" lon="-8.862496">
        <ele>48.242</ele>
        <time>2019-04-29T09:27:25Z</time>
      </trkpt>
      <trkpt lat="41.746781" lon="-8.862868">
        <ele>46.235</ele>
        <time>2019-04-29T09:27:33Z</time>
      </trkpt>
      <trkpt lat="41.746784" lon="-8.862897">
        <ele>46.791</ele>
        <time>2019-04-29T09:27:43Z</time>
      </trkpt>
      <trkpt lat="41.746813" lon="-8.862987">
        <ele>46.289</ele>
        <time>2019-04-29T09:27:56Z</time>
      </trkpt>
      <trkpt lat="41.746868" lon="-8.863084">
        <ele>45.357</ele>
        <time>2019-04-29T09:28:00Z</time>
      </trkpt>
      <trkpt lat="41.746941" lon="-8.863169">
        <ele>43.879</ele>
        <time>2019-04-29T09:28:02Z</time>
      </trkpt>
      <trkpt lat="41.747089" lon="-8.863322">
        <ele>43.859</ele>
        <time>2019-04-29T09:28:07Z</time>
      </trkpt>
      <trkpt lat="41.747219" lon="-8.863529">
        <ele>45.853</ele>
        <time>2019-04-29T09:28:16Z</time>
      </trkpt>
      <trkpt lat="41.747301" lon="-8.863592">
        <ele>46.752</ele>
        <time>2019-04-29T09:28:20Z</time>
      </trkpt>
      <trkpt lat="41.747617" lon="-8.863749">
        <ele>48.653</ele>
        <time>2019-04-29T09:28:35Z</time>
      </trkpt>
      <trkpt lat="41.747899" lon="-8.863800">
        <ele>50.108</ele>
        <time>2019-04-29T09:28:48Z</time>
      </trkpt>
      <trkpt lat="41.747855" lon="-8.863954">
        <ele>49.608</ele>
        <time>2019-04-29T09:28:54Z</time>
      </trkpt>
      <trkpt lat="41.747856" lon="-8.864418">
        <ele>45.898</ele>
        <time>2019-04-29T09:29:04Z</time>
      </trkpt>
      <trkpt lat="41.747879" lon="-8.864636">
        <ele>43.481</ele>
        <time>2019-04-29T09:29:13Z</time>
      </trkpt>
      <trkpt lat="41.748035" lon="-8.864684">
        <ele>40.577</ele>
        <time>2019-04-29T09:29:22Z</time>
      </trkpt>
      <trkpt lat="41.748090" lon="-8.864708">
        <ele>39.055</ele>
        <time>2019-04-29T09:29:25Z</time>
      </trkpt>
      <trkpt lat="41.748125" lon="-8.864755">
        <ele>39.023</ele>
        <time>2019-04-29T09:29:37Z</time>
      </trkpt>
      <trkpt lat="41.748112" lon="-8.864764">
        <ele>38.545</ele>
        <time>2019-04-29T09:30:06Z</time>
      </trkpt>
      <trkpt lat="41.748113" lon="-8.864770">
        <ele>39.015</ele>
        <time>2019-04-29T09:30:32Z</time>
      </trkpt>
      <trkpt lat="41.748120" lon="-8.864778">
        <ele>40.069</ele>
        <time>2019-04-29T09:31:01Z</time>
      </trkpt>
      <trkpt lat="41.748114" lon="-8.864763">
        <ele>40.051</ele>
        <time>2019-04-29T09:31:32Z</time>
      </trkpt>
      <trkpt lat="41.748119" lon="-8.864766">
        <ele>40.901</ele>
        <time>2019-04-29T09:31:58Z</time>
      </trkpt>
      <trkpt lat="41.748110" lon="-8.864753">
        <ele>40.911</ele>
        <time>2019-04-29T09:32:28Z</time>
      </trkpt>
      <trkpt lat="41.748120" lon="-8.864753">
        <ele>40.008</ele>
        <time>2019-04-29T09:32:57Z</time>
      </trkpt>
      <trkpt lat="41.748115" lon="-8.864753">
        <ele>39.598</ele>
        <time>2019-04-29T09:33:29Z</time>
      </trkpt>
      <trkpt lat="41.748126" lon="-8.864763">
        <ele>40.541</ele>
        <time>2019-04-29T09:34:03Z</time>
      </trkpt>
      <trkpt lat="41.748124" lon="-8.864760">
        <ele>40.947</ele>
        <time>2019-04-29T09:34:32Z</time>
      </trkpt>
      <trkpt lat="41.748123" lon="-8.864752">
        <ele>40.535</ele>
        <time>2019-04-29T09:34:53Z</time>
      </trkpt>
      <trkpt lat="41.748123" lon="-8.864744">
        <ele>39.533</ele>
        <time>2019-04-29T09:35:21Z</time>
      </trkpt>
      <trkpt lat="41.748118" lon="-8.864730">
        <ele>39.045</ele>
        <time>2019-04-29T09:35:50Z</time>
      </trkpt>
      <trkpt lat="41.748114" lon="-8.864727">
        <ele>38.185</ele>
        <time>2019-04-29T09:36:18Z</time>
      </trkpt>
      <trkpt lat="41.748114" lon="-8.864727">
        <ele>38.149</ele>
        <time>2019-04-29T09:36:19Z</time>
      </trkpt>
      <trkpt lat="41.748231" lon="-8.864791">
        <ele>37.171</ele>
        <time>2019-04-29T09:36:26Z</time>
      </trkpt>
      <trkpt lat="41.748272" lon="-8.864786">
        <ele>37.141</ele>
        <time>2019-04-29T09:36:27Z</time>
      </trkpt>
      <trkpt lat="41.748948" lon="-8.864887">
        <ele>40.015</ele>
        <time>2019-04-29T09:36:45Z</time>
      </trkpt>
      <trkpt lat="41.749375" lon="-8.865178">
        <ele>42.408</ele>
        <time>2019-04-29T09:37:00Z</time>
      </trkpt>
      <trkpt lat="41.749400" lon="-8.865199">
        <ele>42.480</ele>
        <time>2019-04-29T09:37:01Z</time>
      </trkpt>
      <trkpt lat="41.749530" lon="-8.864957">
        <ele>43.823</ele>
        <time>2019-04-29T09:37:10Z</time>
      </trkpt>
      <trkpt lat="41.749606" lon="-8.864396">
        <ele>44.359</ele>
        <time>2019-04-29T09:37:26Z</time>
      </trkpt>
      <trkpt lat="41.749801" lon="-8.863901">
        <ele>48.277</ele>
        <time>2019-04-29T09:37:42Z</time>
      </trkpt>
      <trkpt lat="41.750085" lon="-8.863743">
        <ele>49.645</ele>
        <time>2019-04-29T09:37:55Z</time>
      </trkpt>
      <trkpt lat="41.750446" lon="-8.863771">
        <ele>50.687</ele>
        <time>2019-04-29T09:38:09Z</time>
      </trkpt>
      <trkpt lat="41.750841" lon="-8.863825">
        <ele>50.657</ele>
        <time>2019-04-29T09:38:23Z</time>
      </trkpt>
      <trkpt lat="41.751294" lon="-8.863881">
        <ele>52.521</ele>
        <time>2019-04-29T09:38:40Z</time>
      </trkpt>
      <trkpt lat="41.751671" lon="-8.863878">
        <ele>54.459</ele>
        <time>2019-04-29T09:38:55Z</time>
      </trkpt>
      <trkpt lat="41.752034" lon="-8.863903">
        <ele>55.403</ele>
        <time>2019-04-29T09:39:09Z</time>
      </trkpt>
      <trkpt lat="41.752352" lon="-8.863779">
        <ele>55.823</ele>
        <time>2019-04-29T09:39:23Z</time>
      </trkpt>
      <trkpt lat="41.752320" lon="-8.863310">
        <ele>54.908</ele>
        <time>2019-04-29T09:39:37Z</time>
      </trkpt>
      <trkpt lat="41.752251" lon="-8.862778">
        <ele>55.898</ele>
        <time>2019-04-29T09:39:52Z</time>
      </trkpt>
      <trkpt lat="41.752395" lon="-8.862353">
        <ele>57.311</ele>
        <time>2019-04-29T09:40:06Z</time>
      </trkpt>
      <trkpt lat="41.752645" lon="-8.862143">
        <ele>59.767</ele>
        <time>2019-04-29T09:40:19Z</time>
      </trkpt>
      <trkpt lat="41.752806" lon="-8.861858">
        <ele>63.525</ele>
        <time>2019-04-29T09:40:30Z</time>
      </trkpt>
      <trkpt lat="41.753010" lon="-8.861729">
        <ele>66.913</ele>
        <time>2019-04-29T09:40:41Z</time>
      </trkpt>
      <trkpt lat="41.753336" lon="-8.861619">
        <ele>71.725</ele>
        <time>2019-04-29T09:40:56Z</time>
      </trkpt>
      <trkpt lat="41.753636" lon="-8.861568">
        <ele>71.255</ele>
        <time>2019-04-29T09:41:08Z</time>
      </trkpt>
      <trkpt lat="41.753886" lon="-8.861579">
        <ele>71.789</ele>
        <time>2019-04-29T09:41:19Z</time>
      </trkpt>
      <trkpt lat="41.754171" lon="-8.861305">
        <ele>70.762</ele>
        <time>2019-04-29T09:41:32Z</time>
      </trkpt>
      <trkpt lat="41.754395" lon="-8.861205">
        <ele>70.383</ele>
        <time>2019-04-29T09:41:41Z</time>
      </trkpt>
      <trkpt lat="41.754754" lon="-8.861400">
        <ele>67.411</ele>
        <time>2019-04-29T09:41:52Z</time>
      </trkpt>
      <trkpt lat="41.754799" lon="-8.861402">
        <ele>67.408</ele>
        <time>2019-04-29T09:41:53Z</time>
      </trkpt>
      <trkpt lat="41.755032" lon="-8.861297">
        <ele>66.419</ele>
        <time>2019-04-29T09:41:59Z</time>
      </trkpt>
      <trkpt lat="41.755360" lon="-8.861067">
        <ele>67.412</ele>
        <time>2019-04-29T09:42:12Z</time>
      </trkpt>
      <trkpt lat="41.755738" lon="-8.860948">
        <ele>67.998</ele>
        <time>2019-04-29T09:42:27Z</time>
      </trkpt>
      <trkpt lat="41.756060" lon="-8.860716">
        <ele>66.946</ele>
        <time>2019-04-29T09:42:41Z</time>
      </trkpt>
      <trkpt lat="41.756349" lon="-8.860689">
        <ele>67.454</ele>
        <time>2019-04-29T09:42:53Z</time>
      </trkpt>
      <trkpt lat="41.756830" lon="-8.860915">
        <ele>68.366</ele>
        <time>2019-04-29T09:43:08Z</time>
      </trkpt>
      <trkpt lat="41.757420" lon="-8.861123">
        <ele>67.936</ele>
        <time>2019-04-29T09:43:24Z</time>
      </trkpt>
      <trkpt lat="41.757584" lon="-8.861225">
        <ele>67.450</ele>
        <time>2019-04-29T09:43:29Z</time>
      </trkpt>
      <trkpt lat="41.757741" lon="-8.861232">
        <ele>65.911</ele>
        <time>2019-04-29T09:43:34Z</time>
      </trkpt>
      <trkpt lat="41.757834" lon="-8.861220">
        <ele>65.921</ele>
        <time>2019-04-29T09:43:38Z</time>
      </trkpt>
      <trkpt lat="41.757994" lon="-8.861219">
        <ele>66.403</ele>
        <time>2019-04-29T09:43:45Z</time>
      </trkpt>
      <trkpt lat="41.758276" lon="-8.861676">
        <ele>65.008</ele>
        <time>2019-04-29T09:43:59Z</time>
      </trkpt>
      <trkpt lat="41.758336" lon="-8.861834">
        <ele>64.044</ele>
        <time>2019-04-29T09:44:02Z</time>
      </trkpt>
      <trkpt lat="41.758658" lon="-8.861983">
        <ele>62.157</ele>
        <time>2019-04-29T09:44:11Z</time>
      </trkpt>
      <trkpt lat="41.758762" lon="-8.861992">
        <ele>61.643</ele>
        <time>2019-04-29T09:44:14Z</time>
      </trkpt>
      <trkpt lat="41.758950" lon="-8.861908">
        <ele>61.641</ele>
        <time>2019-04-29T09:44:20Z</time>
      </trkpt>
      <trkpt lat="41.759106" lon="-8.861705">
        <ele>63.529</ele>
        <time>2019-04-29T09:44:33Z</time>
      </trkpt>
      <trkpt lat="41.759354" lon="-8.861594">
        <ele>65.931</ele>
        <time>2019-04-29T09:44:47Z</time>
      </trkpt>
      <trkpt lat="41.759645" lon="-8.861514">
        <ele>67.931</ele>
        <time>2019-04-29T09:45:00Z</time>
      </trkpt>
      <trkpt lat="41.759878" lon="-8.861180">
        <ele>68.365</ele>
        <time>2019-04-29T09:45:15Z</time>
      </trkpt>
      <trkpt lat="41.759909" lon="-8.861158">
        <ele>69.395</ele>
        <time>2019-04-29T09:45:17Z</time>
      </trkpt>
      <trkpt lat="41.759998" lon="-8.861168">
        <ele>69.849</ele>
        <time>2019-04-29T09:45:20Z</time>
      </trkpt>
      <trkpt lat="41.760369" lon="-8.860842">
        <ele>68.823</ele>
        <time>2019-04-29T09:45:32Z</time>
      </trkpt>
      <trkpt lat="41.760553" lon="-8.860518">
        <ele>67.908</ele>
        <time>2019-04-29T09:45:41Z</time>
      </trkpt>
      <trkpt lat="41.760809" lon="-8.860226">
        <ele>66.972</ele>
        <time>2019-04-29T09:45:50Z</time>
      </trkpt>
      <trkpt lat="41.760856" lon="-8.860230">
        <ele>66.975</ele>
        <time>2019-04-29T09:45:51Z</time>
      </trkpt>
      <trkpt lat="41.761008" lon="-8.860230">
        <ele>66.961</ele>
        <time>2019-04-29T09:45:54Z</time>
      </trkpt>
      <trkpt lat="41.761358" lon="-8.860212">
        <ele>66.499</ele>
        <time>2019-04-29T09:46:02Z</time>
      </trkpt>
      <trkpt lat="41.761557" lon="-8.860182">
        <ele>66.457</ele>
        <time>2019-04-29T09:46:07Z</time>
      </trkpt>
      <trkpt lat="41.761883" lon="-8.860032">
        <ele>66.939</ele>
        <time>2019-04-29T09:46:16Z</time>
      </trkpt>
      <trkpt lat="41.762152" lon="-8.859964">
        <ele>67.469</ele>
        <time>2019-04-29T09:46:22Z</time>
      </trkpt>
      <trkpt lat="41.762237" lon="-8.859953">
        <ele>67.423</ele>
        <time>2019-04-29T09:46:24Z</time>
      </trkpt>
      <trkpt lat="41.762377" lon="-8.859914">
        <ele>67.452</ele>
        <time>2019-04-29T09:46:27Z</time>
      </trkpt>
      <trkpt lat="41.762570" lon="-8.859891">
        <ele>66.953</ele>
        <time>2019-04-29T09:46:31Z</time>
      </trkpt>
      <trkpt lat="41.762869" lon="-8.859843">
        <ele>65.908</ele>
        <time>2019-04-29T09:46:38Z</time>
      </trkpt>
      <trkpt lat="41.763094" lon="-8.859940">
        <ele>65.508</ele>
        <time>2019-04-29T09:46:44Z</time>
      </trkpt>
      <trkpt lat="41.763133" lon="-8.859958">
        <ele>65.558</ele>
        <time>2019-04-29T09:46:46Z</time>
      </trkpt>
      <trkpt lat="41.763196" lon="-8.859967">
        <ele>64.581</ele>
        <time>2019-04-29T09:46:51Z</time>
      </trkpt>
      <trkpt lat="41.763267" lon="-8.859966">
        <ele>64.567</ele>
        <time>2019-04-29T09:46:55Z</time>
      </trkpt>
      <trkpt lat="41.763573" lon="-8.860068">
        <ele>69.375</ele>
        <time>2019-04-29T09:47:06Z</time>
      </trkpt>
      <trkpt lat="41.763623" lon="-8.860073">
        <ele>69.843</ele>
        <time>2019-04-29T09:47:15Z</time>
      </trkpt>
      <trkpt lat="41.763683" lon="-8.860081">
        <ele>69.355</ele>
        <time>2019-04-29T09:47:18Z</time>
      </trkpt>
      <trkpt lat="41.763909" lon="-8.860147">
        <ele>70.775</ele>
        <time>2019-04-29T09:47:28Z</time>
      </trkpt>
      <trkpt lat="41.763973" lon="-8.860140">
        <ele>71.299</ele>
        <time>2019-04-29T09:47:32Z</time>
      </trkpt>
      <trkpt lat="41.764044" lon="-8.860118">
        <ele>71.768</ele>
        <time>2019-04-29T09:47:46Z</time>
      </trkpt>
      <trkpt lat="41.764046" lon="-8.860114">
        <ele>70.342</ele>
        <time>2019-04-29T09:48:11Z</time>
      </trkpt>
      <trkpt lat="41.764141" lon="-8.860051">
        <ele>68.826</ele>
        <time>2019-04-29T09:48:25Z</time>
      </trkpt>
      <trkpt lat="41.764272" lon="-8.859903">
        <ele>66.408</ele>
        <time>2019-04-29T09:48:32Z</time>
      </trkpt>
      <trkpt lat="41.764432" lon="-8.859755">
        <ele>64.579</ele>
        <time>2019-04-29T09:48:41Z</time>
      </trkpt>
      <trkpt lat="41.764477" lon="-8.859719">
        <ele>64.032</ele>
        <time>2019-04-29T09:48:43Z</time>
      </trkpt>
      <trkpt lat="41.764611" lon="-8.859580">
        <ele>63.168</ele>
        <time>2019-04-29T09:48:50Z</time>
      </trkpt>
      <trkpt lat="41.764821" lon="-8.859418">
        <ele>62.186</ele>
        <time>2019-04-29T09:48:59Z</time>
      </trkpt>
      <trkpt lat="41.764907" lon="-8.859324">
        <ele>62.164</ele>
        <time>2019-04-29T09:49:03Z</time>
      </trkpt>
      <trkpt lat="41.764953" lon="-8.859242">
        <ele>62.656</ele>
        <time>2019-04-29T09:49:06Z</time>
      </trkpt>
      <trkpt lat="41.765119" lon="-8.858961">
        <ele>63.516</ele>
        <time>2019-04-29T09:49:16Z</time>
      </trkpt>
      <trkpt lat="41.765290" lon="-8.858820">
        <ele>61.140</ele>
        <time>2019-04-29T09:49:22Z</time>
      </trkpt>
      <trkpt lat="41.765478" lon="-8.858601">
        <ele>55.835</ele>
        <time>2019-04-29T09:49:33Z</time>
      </trkpt>
      <trkpt lat="41.765565" lon="-8.858220">
        <ele>55.486</ele>
        <time>2019-04-29T09:49:43Z</time>
      </trkpt>
      <trkpt lat="41.765752" lon="-8.857957">
        <ele>56.814</ele>
        <time>2019-04-29T09:49:53Z</time>
      </trkpt>
      <trkpt lat="41.765796" lon="-8.857890">
        <ele>57.808</ele>
        <time>2019-04-29T09:50:02Z</time>
      </trkpt>
      <trkpt lat="41.765913" lon="-8.857851">
        <ele>60.766</ele>
        <time>2019-04-29T09:50:14Z</time>
      </trkpt>
      <trkpt lat="41.765928" lon="-8.857836">
        <ele>61.129</ele>
        <time>2019-04-29T09:50:16Z</time>
      </trkpt>
      <trkpt lat="41.765956" lon="-8.857796">
        <ele>62.135</ele>
        <time>2019-04-29T09:50:20Z</time>
      </trkpt>
      <trkpt lat="41.766007" lon="-8.857732">
        <ele>65.073</ele>
        <time>2019-04-29T09:50:34Z</time>
      </trkpt>
      <trkpt lat="41.766015" lon="-8.857673">
        <ele>66.981</ele>
        <time>2019-04-29T09:50:49Z</time>
      </trkpt>
      <trkpt lat="41.766028" lon="-8.857669">
        <ele>67.433</ele>
        <time>2019-04-29T09:51:02Z</time>
      </trkpt>
      <trkpt lat="41.766031" lon="-8.857669">
        <ele>67.953</ele>
        <time>2019-04-29T09:51:15Z</time>
      </trkpt>
      <trkpt lat="41.766062" lon="-8.857691">
        <ele>66.417</ele>
        <time>2019-04-29T09:51:27Z</time>
      </trkpt>
      <trkpt lat="41.766064" lon="-8.857691">
        <ele>66.966</ele>
        <time>2019-04-29T09:51:28Z</time>
      </trkpt>
      <trkpt lat="41.766094" lon="-8.857677">
        <ele>65.529</ele>
        <time>2019-04-29T09:51:38Z</time>
      </trkpt>
      <trkpt lat="41.766314" lon="-8.857625">
        <ele>64.521</ele>
        <time>2019-04-29T09:51:50Z</time>
      </trkpt>
      <trkpt lat="41.766552" lon="-8.857572">
        <ele>67.908</ele>
        <time>2019-04-29T09:52:01Z</time>
      </trkpt>
      <trkpt lat="41.766733" lon="-8.857469">
        <ele>69.379</ele>
        <time>2019-04-29T09:52:11Z</time>
      </trkpt>
      <trkpt lat="41.766804" lon="-8.857359">
        <ele>69.342</ele>
        <time>2019-04-29T09:52:18Z</time>
      </trkpt>
      <trkpt lat="41.766870" lon="-8.857284">
        <ele>71.778</ele>
        <time>2019-04-29T09:52:30Z</time>
      </trkpt>
      <trkpt lat="41.766890" lon="-8.857291">
        <ele>73.266</ele>
        <time>2019-04-29T09:52:36Z</time>
      </trkpt>
      <trkpt lat="41.767005" lon="-8.857214">
        <ele>71.214</ele>
        <time>2019-04-29T09:52:43Z</time>
      </trkpt>
      <trkpt lat="41.767071" lon="-8.857168">
        <ele>70.736</ele>
        <time>2019-04-29T09:52:46Z</time>
      </trkpt>
      <trkpt lat="41.767149" lon="-8.856872">
        <ele>71.296</ele>
        <time>2019-04-29T09:52:56Z</time>
      </trkpt>
      <trkpt lat="41.767163" lon="-8.856761">
        <ele>72.230</ele>
        <time>2019-04-29T09:53:01Z</time>
      </trkpt>
      <trkpt lat="41.767185" lon="-8.856599">
        <ele>72.775</ele>
        <time>2019-04-29T09:53:08Z</time>
      </trkpt>
      <trkpt lat="41.767287" lon="-8.856241">
        <ele>70.328</ele>
        <time>2019-04-29T09:53:18Z</time>
      </trkpt>
      <trkpt lat="41.767359" lon="-8.856074">
        <ele>69.320</ele>
        <time>2019-04-29T09:53:21Z</time>
      </trkpt>
      <trkpt lat="41.767331" lon="-8.855812">
        <ele>67.908</ele>
        <time>2019-04-29T09:53:30Z</time>
      </trkpt>
      <trkpt lat="41.767261" lon="-8.855714">
        <ele>67.430</ele>
        <time>2019-04-29T09:53:34Z</time>
      </trkpt>
      <trkpt lat="41.767237" lon="-8.855648">
        <ele>66.963</ele>
        <time>2019-04-29T09:53:37Z</time>
      </trkpt>
      <trkpt lat="41.767206" lon="-8.855580">
        <ele>67.429</ele>
        <time>2019-04-29T09:53:41Z</time>
      </trkpt>
      <trkpt lat="41.767182" lon="-8.855482">
        <ele>68.397</ele>
        <time>2019-04-29T09:53:45Z</time>
      </trkpt>
      <trkpt lat="41.767149" lon="-8.855124">
        <ele>73.255</ele>
        <time>2019-04-29T09:53:57Z</time>
      </trkpt>
      <trkpt lat="41.767100" lon="-8.855022">
        <ele>73.267</ele>
        <time>2019-04-29T09:54:01Z</time>
      </trkpt>
      <trkpt lat="41.767039" lon="-8.854845">
        <ele>74.137</ele>
        <time>2019-04-29T09:54:08Z</time>
      </trkpt>
      <trkpt lat="41.766969" lon="-8.854658">
        <ele>75.131</ele>
        <time>2019-04-29T09:54:16Z</time>
      </trkpt>
      <trkpt lat="41.767024" lon="-8.854421">
        <ele>77.076</ele>
        <time>2019-04-29T09:54:27Z</time>
      </trkpt>
      <trkpt lat="41.767040" lon="-8.854399">
        <ele>77.090</ele>
        <time>2019-04-29T09:54:28Z</time>
      </trkpt>
      <trkpt lat="41.767113" lon="-8.854300">
        <ele>77.019</ele>
        <time>2019-04-29T09:54:39Z</time>
      </trkpt>
      <trkpt lat="41.767177" lon="-8.854284">
        <ele>77.508</ele>
        <time>2019-04-29T09:54:44Z</time>
      </trkpt>
      <trkpt lat="41.767228" lon="-8.854177">
        <ele>78.090</ele>
        <time>2019-04-29T09:54:48Z</time>
      </trkpt>
      <trkpt lat="41.767300" lon="-8.854121">
        <ele>78.053</ele>
        <time>2019-04-29T09:54:59Z</time>
      </trkpt>
      <trkpt lat="41.767393" lon="-8.854058">
        <ele>74.619</ele>
        <time>2019-04-29T09:55:13Z</time>
      </trkpt>
      <trkpt lat="41.767447" lon="-8.854023">
        <ele>72.777</ele>
        <time>2019-04-29T09:55:17Z</time>
      </trkpt>
      <trkpt lat="41.767531" lon="-8.853924">
        <ele>68.375</ele>
        <time>2019-04-29T09:55:25Z</time>
      </trkpt>
      <trkpt lat="41.767524" lon="-8.853758">
        <ele>67.487</ele>
        <time>2019-04-29T09:55:29Z</time>
      </trkpt>
      <trkpt lat="41.767543" lon="-8.853506">
        <ele>65.967</ele>
        <time>2019-04-29T09:55:33Z</time>
      </trkpt>
      <trkpt lat="41.767526" lon="-8.853290">
        <ele>65.591</ele>
        <time>2019-04-29T09:55:37Z</time>
      </trkpt>
      <trkpt lat="41.767557" lon="-8.853153">
        <ele>68.391</ele>
        <time>2019-04-29T09:55:44Z</time>
      </trkpt>
      <trkpt lat="41.767448" lon="-8.852931">
        <ele>72.281</ele>
        <time>2019-04-29T09:55:57Z</time>
      </trkpt>
      <trkpt lat="41.767438" lon="-8.852868">
        <ele>74.119</ele>
        <time>2019-04-29T09:56:01Z</time>
      </trkpt>
      <trkpt lat="41.767424" lon="-8.852791">
        <ele>75.608</ele>
        <time>2019-04-29T09:56:06Z</time>
      </trkpt>
      <trkpt lat="41.767434" lon="-8.852718">
        <ele>76.552</ele>
        <time>2019-04-29T09:56:10Z</time>
      </trkpt>
      <trkpt lat="41.767447" lon="-8.852600">
        <ele>78.465</ele>
        <time>2019-04-29T09:56:16Z</time>
      </trkpt>
      <trkpt lat="41.767481" lon="-8.852336">
        <ele>83.781</ele>
        <time>2019-04-29T09:56:32Z</time>
      </trkpt>
      <trkpt lat="41.767552" lon="-8.852160">
        <ele>83.229</ele>
        <time>2019-04-29T09:56:43Z</time>
      </trkpt>
      <trkpt lat="41.767553" lon="-8.852270">
        <ele>82.337</ele>
        <time>2019-04-29T09:56:51Z</time>
      </trkpt>
      <trkpt lat="41.767454" lon="-8.852397">
        <ele>83.249</ele>
        <time>2019-04-29T09:57:05Z</time>
      </trkpt>
      <trkpt lat="41.767442" lon="-8.852417">
        <ele>82.389</ele>
        <time>2019-04-29T09:57:30Z</time>
      </trkpt>
      <trkpt lat="41.767457" lon="-8.852373">
        <ele>82.323</ele>
        <time>2019-04-29T09:57:39Z</time>
      </trkpt>
      <trkpt lat="41.767542" lon="-8.852278">
        <ele>82.829</ele>
        <time>2019-04-29T09:57:45Z</time>
      </trkpt>
      <trkpt lat="41.767582" lon="-8.852211">
        <ele>82.300</ele>
        <time>2019-04-29T09:57:48Z</time>
      </trkpt>
      <trkpt lat="41.767705" lon="-8.852091">
        <ele>81.820</ele>
        <time>2019-04-29T09:57:54Z</time>
      </trkpt>
      <trkpt lat="41.767869" lon="-8.852020">
        <ele>80.808</ele>
        <time>2019-04-29T09:57:59Z</time>
      </trkpt>
      <trkpt lat="41.767954" lon="-8.852018">
        <ele>79.925</ele>
        <time>2019-04-29T09:58:01Z</time>
      </trkpt>
      <trkpt lat="41.768178" lon="-8.851926">
        <ele>78.918</ele>
        <time>2019-04-29T09:58:06Z</time>
      </trkpt>
      <trkpt lat="41.768364" lon="-8.851770">
        <ele>78.024</ele>
        <time>2019-04-29T09:58:10Z</time>
      </trkpt>
      <trkpt lat="41.768725" lon="-8.851569">
        <ele>77.532</ele>
        <time>2019-04-29T09:58:19Z</time>
      </trkpt>
      <trkpt lat="41.769091" lon="-8.851293">
        <ele>75.150</ele>
        <time>2019-04-29T09:58:28Z</time>
      </trkpt>
      <trkpt lat="41.769386" lon="-8.850841">
        <ele>76.532</ele>
        <time>2019-04-29T09:58:40Z</time>
      </trkpt>
      <trkpt lat="41.769668" lon="-8.850560">
        <ele>76.092</ele>
        <time>2019-04-29T09:58:51Z</time>
      </trkpt>
      <trkpt lat="41.769705" lon="-8.850477">
        <ele>76.066</ele>
        <time>2019-04-29T09:58:54Z</time>
      </trkpt>
      <trkpt lat="41.769909" lon="-8.850277">
        <ele>77.086</ele>
        <time>2019-04-29T09:59:06Z</time>
      </trkpt>
      <trkpt lat="41.769933" lon="-8.850240">
        <ele>77.060</ele>
        <time>2019-04-29T09:59:08Z</time>
      </trkpt>
      <trkpt lat="41.769988" lon="-8.850216">
        <ele>76.526</ele>
        <time>2019-04-29T09:59:11Z</time>
      </trkpt>
      <trkpt lat="41.770223" lon="-8.849916">
        <ele>75.108</ele>
        <time>2019-04-29T09:59:21Z</time>
      </trkpt>
      <trkpt lat="41.770296" lon="-8.849850">
        <ele>75.141</ele>
        <time>2019-04-29T09:59:23Z</time>
      </trkpt>
      <trkpt lat="41.770447" lon="-8.849671">
        <ele>73.624</ele>
        <time>2019-04-29T09:59:27Z</time>
      </trkpt>
      <trkpt lat="41.770596" lon="-8.849533">
        <ele>73.270</ele>
        <time>2019-04-29T09:59:31Z</time>
      </trkpt>
      <trkpt lat="41.770690" lon="-8.849445">
        <ele>73.298</ele>
        <time>2019-04-29T09:59:34Z</time>
      </trkpt>
      <trkpt lat="41.770906" lon="-8.848997">
        <ele>70.326</ele>
        <time>2019-04-29T09:59:43Z</time>
      </trkpt>
      <trkpt lat="41.770941" lon="-8.848946">
        <ele>69.858</ele>
        <time>2019-04-29T09:59:44Z</time>
      </trkpt>
      <trkpt lat="41.771055" lon="-8.848788">
        <ele>67.958</ele>
        <time>2019-04-29T09:59:47Z</time>
      </trkpt>
      <trkpt lat="41.771163" lon="-8.848534">
        <ele>65.582</ele>
        <time>2019-04-29T09:59:51Z</time>
      </trkpt>
      <trkpt lat="41.771296" lon="-8.848265">
        <ele>62.624</ele>
        <time>2019-04-29T09:59:57Z</time>
      </trkpt>
      <trkpt lat="41.771383" lon="-8.848258">
        <ele>62.604</ele>
        <time>2019-04-29T09:59:59Z</time>
      </trkpt>
      <trkpt lat="41.771616" lon="-8.848007">
        <ele>62.114</ele>
        <time>2019-04-29T10:00:06Z</time>
      </trkpt>
      <trkpt lat="41.771867" lon="-8.847578">
        <ele>63.508</ele>
        <time>2019-04-29T10:00:17Z</time>
      </trkpt>
      <trkpt lat="41.772013" lon="-8.847539">
        <ele>65.045</ele>
        <time>2019-04-29T10:00:21Z</time>
      </trkpt>
      <trkpt lat="41.772333" lon="-8.847469">
        <ele>66.488</ele>
        <time>2019-04-29T10:00:32Z</time>
      </trkpt>
      <trkpt lat="41.772485" lon="-8.847304">
        <ele>64.014</ele>
        <time>2019-04-29T10:00:40Z</time>
      </trkpt>
      <trkpt lat="41.772601" lon="-8.847178">
        <ele>63.512</ele>
        <time>2019-04-29T10:00:45Z</time>
      </trkpt>
      <trkpt lat="41.773006" lon="-8.846848">
        <ele>58.390</ele>
        <time>2019-04-29T10:00:56Z</time>
      </trkpt>
      <trkpt lat="41.773038" lon="-8.846816">
        <ele>57.382</ele>
        <time>2019-04-29T10:00:57Z</time>
      </trkpt>
      <trkpt lat="41.773243" lon="-8.846706">
        <ele>56.842</ele>
        <time>2019-04-29T10:01:02Z</time>
      </trkpt>
      <trkpt lat="41.773425" lon="-8.846561">
        <ele>57.836</ele>
        <time>2019-04-29T10:01:07Z</time>
      </trkpt>
      <trkpt lat="41.773269" lon="-8.846263">
        <ele>59.279</ele>
        <time>2019-04-29T10:01:16Z</time>
      </trkpt>
      <trkpt lat="41.773266" lon="-8.846233">
        <ele>60.205</ele>
        <time>2019-04-29T10:01:17Z</time>
      </trkpt>
      <trkpt lat="41.773264" lon="-8.846189">
        <ele>60.725</ele>
        <time>2019-04-29T10:01:19Z</time>
      </trkpt>
      <trkpt lat="41.773222" lon="-8.846080">
        <ele>62.108</ele>
        <time>2019-04-29T10:01:24Z</time>
      </trkpt>
      <trkpt lat="41.773179" lon="-8.845980">
        <ele>63.530</ele>
        <time>2019-04-29T10:01:30Z</time>
      </trkpt>
      <trkpt lat="41.773204" lon="-8.845968">
        <ele>64.073</ele>
        <time>2019-04-29T10:01:33Z</time>
      </trkpt>
      <trkpt lat="41.773208" lon="-8.845965">
        <ele>65.559</ele>
        <time>2019-04-29T10:01:38Z</time>
      </trkpt>
      <trkpt lat="41.773235" lon="-8.845979">
        <ele>67.447</ele>
        <time>2019-04-29T10:01:42Z</time>
      </trkpt>
      <trkpt lat="41.773276" lon="-8.845974">
        <ele>69.315</ele>
        <time>2019-04-29T10:01:49Z</time>
      </trkpt>
      <trkpt lat="41.773301" lon="-8.845958">
        <ele>69.857</ele>
        <time>2019-04-29T10:01:52Z</time>
      </trkpt>
      <trkpt lat="41.773326" lon="-8.845924">
        <ele>69.397</ele>
        <time>2019-04-29T10:01:58Z</time>
      </trkpt>
      <trkpt lat="41.773417" lon="-8.845915">
        <ele>71.271</ele>
        <time>2019-04-29T10:02:11Z</time>
      </trkpt>
      <trkpt lat="41.773440" lon="-8.845885">
        <ele>74.688</ele>
        <time>2019-04-29T10:02:23Z</time>
      </trkpt>
      <trkpt lat="41.773459" lon="-8.845883">
        <ele>76.524</ele>
        <time>2019-04-29T10:02:49Z</time>
      </trkpt>
      <trkpt lat="41.773469" lon="-8.845895">
        <ele>79.426</ele>
        <time>2019-04-29T10:03:09Z</time>
      </trkpt>
      <trkpt lat="41.773463" lon="-8.845916">
        <ele>80.808</ele>
        <time>2019-04-29T10:03:34Z</time>
      </trkpt>
      <trkpt lat="41.773469" lon="-8.845922">
        <ele>81.811</ele>
        <time>2019-04-29T10:03:57Z</time>
      </trkpt>
      <trkpt lat="41.773470" lon="-8.845916">
        <ele>81.834</ele>
        <time>2019-04-29T10:04:22Z</time>
      </trkpt>
      <trkpt lat="41.773480" lon="-8.845894">
        <ele>81.850</ele>
        <time>2019-04-29T10:04:28Z</time>
      </trkpt>
      <trkpt lat="41.773612" lon="-8.845782">
        <ele>82.848</ele>
        <time>2019-04-29T10:04:40Z</time>
      </trkpt>
      <trkpt lat="41.773672" lon="-8.845728">
        <ele>83.776</ele>
        <time>2019-04-29T10:04:52Z</time>
      </trkpt>
      <trkpt lat="41.773699" lon="-8.845702">
        <ele>84.288</ele>
        <time>2019-04-29T10:05:03Z</time>
      </trkpt>
      <trkpt lat="41.773787" lon="-8.845630">
        <ele>85.688</ele>
        <time>2019-04-29T10:05:14Z</time>
      </trkpt>
      <trkpt lat="41.773862" lon="-8.845568">
        <ele>87.672</ele>
        <time>2019-04-29T10:05:24Z</time>
      </trkpt>
      <trkpt lat="41.773889" lon="-8.845558">
        <ele>88.147</ele>
        <time>2019-04-29T10:05:27Z</time>
      </trkpt>
      <trkpt lat="41.773970" lon="-8.845493">
        <ele>89.529</ele>
        <time>2019-04-29T10:05:43Z</time>
      </trkpt>
      <trkpt lat="41.774016" lon="-8.845465">
        <ele>89.021</ele>
        <time>2019-04-29T10:05:55Z</time>
      </trkpt>
      <trkpt lat="41.774011" lon="-8.845444">
        <ele>88.508</ele>
        <time>2019-04-29T10:06:25Z</time>
      </trkpt>
      <trkpt lat="41.774014" lon="-8.845450">
        <ele>90.037</ele>
        <time>2019-04-29T10:06:53Z</time>
      </trkpt>
      <trkpt lat="41.774209" lon="-8.845309">
        <ele>88.590</ele>
        <time>2019-04-29T10:07:03Z</time>
      </trkpt>
      <trkpt lat="41.774377" lon="-8.845187">
        <ele>86.166</ele>
        <time>2019-04-29T10:07:07Z</time>
      </trkpt>
      <trkpt lat="41.774589" lon="-8.845115">
        <ele>83.784</ele>
        <time>2019-04-29T10:07:11Z</time>
      </trkpt>
      <trkpt lat="41.774818" lon="-8.844988">
        <ele>81.852</ele>
        <time>2019-04-29T10:07:16Z</time>
      </trkpt>
      <trkpt lat="41.774923" lon="-8.844907">
        <ele>80.474</ele>
        <time>2019-04-29T10:07:19Z</time>
      </trkpt>
      <trkpt lat="41.775050" lon="-8.845065">
        <ele>78.024</ele>
        <time>2019-04-29T10:07:24Z</time>
      </trkpt>
      <trkpt lat="41.775045" lon="-8.845261">
        <ele>77.068</ele>
        <time>2019-04-29T10:07:27Z</time>
      </trkpt>
      <trkpt lat="41.775046" lon="-8.845874">
        <ele>77.094</ele>
        <time>2019-04-29T10:07:40Z</time>
      </trkpt>
      <trkpt lat="41.775148" lon="-8.846352">
        <ele>79.457</ele>
        <time>2019-04-29T10:07:52Z</time>
      </trkpt>
      <trkpt lat="41.775181" lon="-8.846506">
        <ele>78.922</ele>
        <time>2019-04-29T10:07:56Z</time>
      </trkpt>
      <trkpt lat="41.775208" lon="-8.846601">
        <ele>78.408</ele>
        <time>2019-04-29T10:08:02Z</time>
      </trkpt>
      <trkpt lat="41.775195" lon="-8.846521">
        <ele>78.092</ele>
        <time>2019-04-29T10:08:07Z</time>
      </trkpt>
      <trkpt lat="41.775215" lon="-8.846381">
        <ele>78.995</ele>
        <time>2019-04-29T10:08:17Z</time>
      </trkpt>
      <trkpt lat="41.775222" lon="-8.846372">
        <ele>78.991</ele>
        <time>2019-04-29T10:08:18Z</time>
      </trkpt>
      <trkpt lat="41.775258" lon="-8.846381">
        <ele>79.999</ele>
        <time>2019-04-29T10:08:22Z</time>
      </trkpt>
      <trkpt lat="41.775333" lon="-8.846426">
        <ele>83.727</ele>
        <time>2019-04-29T10:08:36Z</time>
      </trkpt>
      <trkpt lat="41.775406" lon="-8.846469">
        <ele>87.619</ele>
        <time>2019-04-29T10:08:47Z</time>
      </trkpt>
      <trkpt lat="41.775527" lon="-8.846566">
        <ele>88.559</ele>
        <time>2019-04-29T10:08:56Z</time>
      </trkpt>
      <trkpt lat="41.775765" lon="-8.846914">
        <ele>87.613</ele>
        <time>2019-04-29T10:09:08Z</time>
      </trkpt>
      <trkpt lat="41.775810" lon="-8.847201">
        <ele>87.153</ele>
        <time>2019-04-29T10:09:14Z</time>
      </trkpt>
      <trkpt lat="41.776137" lon="-8.847402">
        <ele>84.204</ele>
        <time>2019-04-29T10:09:22Z</time>
      </trkpt>
      <trkpt lat="41.776180" lon="-8.847400">
        <ele>84.214</ele>
        <time>2019-04-29T10:09:23Z</time>
      </trkpt>
      <trkpt lat="41.776563" lon="-8.847561">
        <ele>85.208</ele>
        <time>2019-04-29T10:09:35Z</time>
      </trkpt>
      <trkpt lat="41.776590" lon="-8.847581">
        <ele>85.218</ele>
        <time>2019-04-29T10:09:39Z</time>
      </trkpt>
      <trkpt lat="41.776548" lon="-8.847476">
        <ele>85.241</ele>
        <time>2019-04-29T10:09:49Z</time>
      </trkpt>
      <trkpt lat="41.776627" lon="-8.847791">
        <ele>85.247</ele>
        <time>2019-04-29T10:10:01Z</time>
      </trkpt>
      <trkpt lat="41.776640" lon="-8.847876">
        <ele>86.135</ele>
        <time>2019-04-29T10:10:04Z</time>
      </trkpt>
      <trkpt lat="41.776656" lon="-8.847913">
        <ele>86.643</ele>
        <time>2019-04-29T10:10:06Z</time>
      </trkpt>
      <trkpt lat="41.776697" lon="-8.848040">
        <ele>88.185</ele>
        <time>2019-04-29T10:10:14Z</time>
      </trkpt>
      <trkpt lat="41.776722" lon="-8.848009">
        <ele>88.135</ele>
        <time>2019-04-29T10:10:18Z</time>
      </trkpt>
      <trkpt lat="41.776723" lon="-8.847972">
        <ele>89.079</ele>
        <time>2019-04-29T10:10:28Z</time>
      </trkpt>
      <trkpt lat="41.776707" lon="-8.847830">
        <ele>90.583</ele>
        <time>2019-04-29T10:10:40Z</time>
      </trkpt>
      <trkpt lat="41.776693" lon="-8.847762">
        <ele>91.425</ele>
        <time>2019-04-29T10:10:43Z</time>
      </trkpt>
      <trkpt lat="41.776705" lon="-8.847667">
        <ele>92.917</ele>
        <time>2019-04-29T10:10:47Z</time>
      </trkpt>
      <trkpt lat="41.776748" lon="-8.847565">
        <ele>94.808</ele>
        <time>2019-04-29T10:10:52Z</time>
      </trkpt>
      <trkpt lat="41.776827" lon="-8.847465">
        <ele>94.361</ele>
        <time>2019-04-29T10:10:57Z</time>
      </trkpt>
      <trkpt lat="41.776887" lon="-8.847447">
        <ele>94.854</ele>
        <time>2019-04-29T10:11:00Z</time>
      </trkpt>
      <trkpt lat="41.776915" lon="-8.847457">
        <ele>95.390</ele>
        <time>2019-04-29T10:11:02Z</time>
      </trkpt>
      <trkpt lat="41.777009" lon="-8.847445">
        <ele>94.828</ele>
        <time>2019-04-29T10:11:09Z</time>
      </trkpt>
      <trkpt lat="41.777188" lon="-8.847464">
        <ele>98.136</ele>
        <time>2019-04-29T10:11:22Z</time>
      </trkpt>
      <trkpt lat="41.777375" lon="-8.847534">
        <ele>101.548</ele>
        <time>2019-04-29T10:11:35Z</time>
      </trkpt>
      <trkpt lat="41.777527" lon="-8.847568">
        <ele>102.548</ele>
        <time>2019-04-29T10:11:46Z</time>
      </trkpt>
      <trkpt lat="41.777724" lon="-8.847623">
        <ele>104.952</ele>
        <time>2019-04-29T10:11:58Z</time>
      </trkpt>
      <trkpt lat="41.777827" lon="-8.847660">
        <ele>106.324</ele>
        <time>2019-04-29T10:12:02Z</time>
      </trkpt>
      <trkpt lat="41.778109" lon="-8.847679">
        <ele>111.604</ele>
        <time>2019-04-29T10:12:13Z</time>
      </trkpt>
      <trkpt lat="41.778312" lon="-8.847659">
        <ele>114.514</ele>
        <time>2019-04-29T10:12:26Z</time>
      </trkpt>
      <trkpt lat="41.778331" lon="-8.847657">
        <ele>115.008</ele>
        <time>2019-04-29T10:12:27Z</time>
      </trkpt>
      <trkpt lat="41.778452" lon="-8.847675">
        <ele>114.515</ele>
        <time>2019-04-29T10:12:34Z</time>
      </trkpt>
      <trkpt lat="41.778617" lon="-8.847704">
        <ele>116.928</ele>
        <time>2019-04-29T10:12:46Z</time>
      </trkpt>
      <trkpt lat="41.778705" lon="-8.847746">
        <ele>116.924</ele>
        <time>2019-04-29T10:12:52Z</time>
      </trkpt>
      <trkpt lat="41.778865" lon="-8.847881">
        <ele>116.442</ele>
        <time>2019-04-29T10:13:06Z</time>
      </trkpt>
      <trkpt lat="41.778914" lon="-8.847913">
        <ele>116.480</ele>
        <time>2019-04-29T10:13:21Z</time>
      </trkpt>
      <trkpt lat="41.778912" lon="-8.847942">
        <ele>116.492</ele>
        <time>2019-04-29T10:13:55Z</time>
      </trkpt>
      <trkpt lat="41.778910" lon="-8.847973">
        <ele>117.972</ele>
        <time>2019-04-29T10:14:27Z</time>
      </trkpt>
      <trkpt lat="41.778908" lon="-8.847970">
        <ele>118.386</ele>
        <time>2019-04-29T10:14:58Z</time>
      </trkpt>
      <trkpt lat="41.778908" lon="-8.847971">
        <ele>118.338</ele>
        <time>2019-04-29T10:15:03Z</time>
      </trkpt>
      <trkpt lat="41.778946" lon="-8.847979">
        <ele>118.870</ele>
        <time>2019-04-29T10:15:07Z</time>
      </trkpt>
      <trkpt lat="41.778975" lon="-8.847998">
        <ele>118.817</ele>
        <time>2019-04-29T10:15:09Z</time>
      </trkpt>
      <trkpt lat="41.779163" lon="-8.848018">
        <ele>118.308</ele>
        <time>2019-04-29T10:15:19Z</time>
      </trkpt>
      <trkpt lat="41.779380" lon="-8.848053">
        <ele>117.926</ele>
        <time>2019-04-29T10:15:31Z</time>
      </trkpt>
      <trkpt lat="41.779531" lon="-8.848071">
        <ele>116.469</ele>
        <time>2019-04-29T10:15:40Z</time>
      </trkpt>
      <trkpt lat="41.779583" lon="-8.848088">
        <ele>116.965</ele>
        <time>2019-04-29T10:15:43Z</time>
      </trkpt>
      <trkpt lat="41.779767" lon="-8.848181">
        <ele>120.383</ele>
        <time>2019-04-29T10:15:54Z</time>
      </trkpt>
      <trkpt lat="41.779917" lon="-8.848213">
        <ele>123.151</ele>
        <time>2019-04-29T10:16:05Z</time>
      </trkpt>
      <trkpt lat="41.780006" lon="-8.848234">
        <ele>124.123</ele>
        <time>2019-04-29T10:16:10Z</time>
      </trkpt>
      <trkpt lat="41.780228" lon="-8.848362">
        <ele>127.073</ele>
        <time>2019-04-29T10:16:22Z</time>
      </trkpt>
      <trkpt lat="41.780276" lon="-8.848385">
        <ele>128.947</ele>
        <time>2019-04-29T10:16:25Z</time>
      </trkpt>
      <trkpt lat="41.780342" lon="-8.848410">
        <ele>129.989</ele>
        <time>2019-04-29T10:16:29Z</time>
      </trkpt>
      <trkpt lat="41.780569" lon="-8.848560">
        <ele>131.806</ele>
        <time>2019-04-29T10:16:40Z</time>
      </trkpt>
      <trkpt lat="41.780608" lon="-8.848573">
        <ele>132.826</ele>
        <time>2019-04-29T10:16:43Z</time>
      </trkpt>
      <trkpt lat="41.780718" lon="-8.848633">
        <ele>134.708</ele>
        <time>2019-04-29T10:16:49Z</time>
      </trkpt>
      <trkpt lat="41.781000" lon="-8.848757">
        <ele>134.781</ele>
        <time>2019-04-29T10:17:02Z</time>
      </trkpt>
      <trkpt lat="41.781187" lon="-8.848806">
        <ele>135.694</ele>
        <time>2019-04-29T10:17:12Z</time>
      </trkpt>
      <trkpt lat="41.781231" lon="-8.848818">
        <ele>135.230</ele>
        <time>2019-04-29T10:17:15Z</time>
      </trkpt>
      <trkpt lat="41.781258" lon="-8.848821">
        <ele>135.258</ele>
        <time>2019-04-29T10:17:17Z</time>
      </trkpt>
      <trkpt lat="41.781288" lon="-8.848833">
        <ele>135.696</ele>
        <time>2019-04-29T10:17:19Z</time>
      </trkpt>
      <trkpt lat="41.781400" lon="-8.848888">
        <ele>136.658</ele>
        <time>2019-04-29T10:17:26Z</time>
      </trkpt>
      <trkpt lat="41.781465" lon="-8.848908">
        <ele>138.028</ele>
        <time>2019-04-29T10:17:30Z</time>
      </trkpt>
      <trkpt lat="41.781680" lon="-8.848957">
        <ele>141.492</ele>
        <time>2019-04-29T10:17:41Z</time>
      </trkpt>
      <trkpt lat="41.781990" lon="-8.849039">
        <ele>142.846</ele>
        <time>2019-04-29T10:17:53Z</time>
      </trkpt>
      <trkpt lat="41.782154" lon="-8.849055">
        <ele>142.488</ele>
        <time>2019-04-29T10:18:00Z</time>
      </trkpt>
      <trkpt lat="41.782357" lon="-8.849110">
        <ele>143.316</ele>
        <time>2019-04-29T10:18:12Z</time>
      </trkpt>
      <trkpt lat="41.782406" lon="-8.849126">
        <ele>143.308</ele>
        <time>2019-04-29T10:18:14Z</time>
      </trkpt>
      <trkpt lat="41.782557" lon="-8.849202">
        <ele>140.437</ele>
        <time>2019-04-29T10:18:22Z</time>
      </trkpt>
      <trkpt lat="41.782735" lon="-8.849312">
        <ele>140.450</ele>
        <time>2019-04-29T10:18:33Z</time>
      </trkpt>
      <trkpt lat="41.782744" lon="-8.849320">
        <ele>140.496</ele>
        <time>2019-04-29T10:18:34Z</time>
      </trkpt>
      <trkpt lat="41.782843" lon="-8.849375">
        <ele>140.974</ele>
        <time>2019-04-29T10:18:39Z</time>
      </trkpt>
      <trkpt lat="41.783065" lon="-8.849448">
        <ele>144.892</ele>
        <time>2019-04-29T10:18:51Z</time>
      </trkpt>
      <trkpt lat="41.783187" lon="-8.849470">
        <ele>146.294</ele>
        <time>2019-04-29T10:19:03Z</time>
      </trkpt>
      <trkpt lat="41.783234" lon="-8.849475">
        <ele>146.294</ele>
        <time>2019-04-29T10:19:06Z</time>
      </trkpt>
      <trkpt lat="41.783298" lon="-8.849467">
        <ele>146.758</ele>
        <time>2019-04-29T10:19:10Z</time>
      </trkpt>
      <trkpt lat="41.783528" lon="-8.849444">
        <ele>146.764</ele>
        <time>2019-04-29T10:19:17Z</time>
      </trkpt>
      <trkpt lat="41.783837" lon="-8.849349">
        <ele>145.306</ele>
        <time>2019-04-29T10:19:22Z</time>
      </trkpt>
      <trkpt lat="41.784191" lon="-8.849053">
        <ele>141.916</ele>
        <time>2019-04-29T10:19:28Z</time>
      </trkpt>
      <trkpt lat="41.784289" lon="-8.848994">
        <ele>141.408</ele>
        <time>2019-04-29T10:19:30Z</time>
      </trkpt>
      <trkpt lat="41.784432" lon="-8.848890">
        <ele>140.949</ele>
        <time>2019-04-29T10:19:37Z</time>
      </trkpt>
      <trkpt lat="41.784423" lon="-8.848891">
        <ele>140.412</ele>
        <time>2019-04-29T10:19:38Z</time>
      </trkpt>
      <trkpt lat="41.784427" lon="-8.848998">
        <ele>140.968</ele>
        <time>2019-04-29T10:19:49Z</time>
      </trkpt>
      <trkpt lat="41.784451" lon="-8.849016">
        <ele>140.996</ele>
        <time>2019-04-29T10:19:50Z</time>
      </trkpt>
      <trkpt lat="41.784736" lon="-8.849266">
        <ele>139.054</ele>
        <time>2019-04-29T10:20:01Z</time>
      </trkpt>
      <trkpt lat="41.785049" lon="-8.849564">
        <ele>138.036</ele>
        <time>2019-04-29T10:20:13Z</time>
      </trkpt>
      <trkpt lat="41.785334" lon="-8.850076">
        <ele>138.516</ele>
        <time>2019-04-29T10:20:26Z</time>
      </trkpt>
      <trkpt lat="41.785523" lon="-8.850570">
        <ele>142.440</ele>
        <time>2019-04-29T10:20:39Z</time>
      </trkpt>
      <trkpt lat="41.785530" lon="-8.850648">
        <ele>142.413</ele>
        <time>2019-04-29T10:20:41Z</time>
      </trkpt>
      <trkpt lat="41.785372" lon="-8.851022">
        <ele>140.443</ele>
        <time>2019-04-29T10:20:52Z</time>
      </trkpt>
      <trkpt lat="41.785320" lon="-8.851141">
        <ele>139.507</ele>
        <time>2019-04-29T10:20:56Z</time>
      </trkpt>
      <trkpt lat="41.785302" lon="-8.851292">
        <ele>138.508</ele>
        <time>2019-04-29T10:21:00Z</time>
      </trkpt>
      <trkpt lat="41.785441" lon="-8.851795">
        <ele>137.174</ele>
        <time>2019-04-29T10:21:10Z</time>
      </trkpt>
      <trkpt lat="41.785520" lon="-8.852022">
        <ele>137.697</ele>
        <time>2019-04-29T10:21:14Z</time>
      </trkpt>
      <trkpt lat="41.785676" lon="-8.852296">
        <ele>137.673</ele>
        <time>2019-04-29T10:21:20Z</time>
      </trkpt>
      <trkpt lat="41.785800" lon="-8.852300">
        <ele>137.651</ele>
        <time>2019-04-29T10:21:24Z</time>
      </trkpt>
      <trkpt lat="41.786053" lon="-8.852195">
        <ele>139.519</ele>
        <time>2019-04-29T10:21:33Z</time>
      </trkpt>
      <trkpt lat="41.786163" lon="-8.852137">
        <ele>140.921</ele>
        <time>2019-04-29T10:21:37Z</time>
      </trkpt>
      <trkpt lat="41.786356" lon="-8.852007">
        <ele>141.451</ele>
        <time>2019-04-29T10:21:43Z</time>
      </trkpt>
      <trkpt lat="41.786635" lon="-8.851883">
        <ele>140.445</ele>
        <time>2019-04-29T10:21:49Z</time>
      </trkpt>
      <trkpt lat="41.786731" lon="-8.851769">
        <ele>138.511</ele>
        <time>2019-04-29T10:21:51Z</time>
      </trkpt>
      <trkpt lat="41.786971" lon="-8.851763">
        <ele>133.721</ele>
        <time>2019-04-29T10:21:56Z</time>
      </trkpt>
      <trkpt lat="41.787376" lon="-8.851970">
        <ele>125.503</ele>
        <time>2019-04-29T10:22:05Z</time>
      </trkpt>
      <trkpt lat="41.787509" lon="-8.851998">
        <ele>123.608</ele>
        <time>2019-04-29T10:22:09Z</time>
      </trkpt>
      <trkpt lat="41.787647" lon="-8.852043">
        <ele>121.234</ele>
        <time>2019-04-29T10:22:12Z</time>
      </trkpt>
      <trkpt lat="41.788084" lon="-8.852081">
        <ele>116.937</ele>
        <time>2019-04-29T10:22:20Z</time>
      </trkpt>
      <trkpt lat="41.788119" lon="-8.852031">
        <ele>116.923</ele>
        <time>2019-04-29T10:22:21Z</time>
      </trkpt>
      <trkpt lat="41.788173" lon="-8.851928">
        <ele>116.481</ele>
        <time>2019-04-29T10:22:23Z</time>
      </trkpt>
      <trkpt lat="41.788239" lon="-8.851838">
        <ele>116.439</ele>
        <time>2019-04-29T10:22:25Z</time>
      </trkpt>
      <trkpt lat="41.788388" lon="-8.851738">
        <ele>115.531</ele>
        <time>2019-04-29T10:22:29Z</time>
      </trkpt>
      <trkpt lat="41.788524" lon="-8.851675">
        <ele>114.591</ele>
        <time>2019-04-29T10:22:32Z</time>
      </trkpt>
      <trkpt lat="41.788708" lon="-8.851669">
        <ele>113.515</ele>
        <time>2019-04-29T10:22:36Z</time>
      </trkpt>
      <trkpt lat="41.788973" lon="-8.851711">
        <ele>111.173</ele>
        <time>2019-04-29T10:22:44Z</time>
      </trkpt>
      <trkpt lat="41.789143" lon="-8.851700">
        <ele>107.885</ele>
        <time>2019-04-29T10:22:53Z</time>
      </trkpt>
      <trkpt lat="41.789153" lon="-8.851706">
        <ele>109.213</ele>
        <time>2019-04-29T10:23:00Z</time>
      </trkpt>
      <trkpt lat="41.789230" lon="-8.851644">
        <ele>108.208</ele>
        <time>2019-04-29T10:23:05Z</time>
      </trkpt>
      <trkpt lat="41.789457" lon="-8.851435">
        <ele>102.090</ele>
        <time>2019-04-29T10:23:13Z</time>
      </trkpt>
      <trkpt lat="41.789557" lon="-8.851462">
        <ele>101.053</ele>
        <time>2019-04-29T10:23:15Z</time>
      </trkpt>
      <trkpt lat="41.789912" lon="-8.851560">
        <ele>98.169</ele>
        <time>2019-04-29T10:23:23Z</time>
      </trkpt>
      <trkpt lat="41.790032" lon="-8.851564">
        <ele>97.717</ele>
        <time>2019-04-29T10:23:26Z</time>
      </trkpt>
      <trkpt lat="41.790175" lon="-8.851553">
        <ele>97.275</ele>
        <time>2019-04-29T10:23:29Z</time>
      </trkpt>
      <trkpt lat="41.790285" lon="-8.851538">
        <ele>96.787</ele>
        <time>2019-04-29T10:23:31Z</time>
      </trkpt>
      <trkpt lat="41.790509" lon="-8.851565">
        <ele>95.337</ele>
        <time>2019-04-29T10:23:35Z</time>
      </trkpt>
      <trkpt lat="41.790852" lon="-8.851553">
        <ele>92.981</ele>
        <time>2019-04-29T10:23:40Z</time>
      </trkpt>
      <trkpt lat="41.790974" lon="-8.851512">
        <ele>91.434</ele>
        <time>2019-04-29T10:23:42Z</time>
      </trkpt>
      <trkpt lat="41.791405" lon="-8.851383">
        <ele>88.555</ele>
        <time>2019-04-29T10:23:52Z</time>
      </trkpt>
      <trkpt lat="41.791697" lon="-8.851360">
        <ele>85.610</ele>
        <time>2019-04-29T10:24:06Z</time>
      </trkpt>
      <trkpt lat="41.791778" lon="-8.851325">
        <ele>85.608</ele>
        <time>2019-04-29T10:24:13Z</time>
      </trkpt>
      <trkpt lat="41.791880" lon="-8.851298">
        <ele>85.226</ele>
        <time>2019-04-29T10:24:21Z</time>
      </trkpt>
      <trkpt lat="41.792045" lon="-8.851231">
        <ele>84.789</ele>
        <time>2019-04-29T10:24:27Z</time>
      </trkpt>
      <trkpt lat="41.792418" lon="-8.850864">
        <ele>79.445</ele>
        <time>2019-04-29T10:24:36Z</time>
      </trkpt>
      <trkpt lat="41.792468" lon="-8.850754">
        <ele>78.463</ele>
        <time>2019-04-29T10:24:38Z</time>
      </trkpt>
      <trkpt lat="41.793009" lon="-8.850565">
        <ele>75.191</ele>
        <time>2019-04-29T10:24:50Z</time>
      </trkpt>
      <trkpt lat="41.793074" lon="-8.850550">
        <ele>74.643</ele>
        <time>2019-04-29T10:24:51Z</time>
      </trkpt>
      <trkpt lat="41.793336" lon="-8.850576">
        <ele>73.263</ele>
        <time>2019-04-29T10:24:55Z</time>
      </trkpt>
      <trkpt lat="41.793507" lon="-8.850666">
        <ele>72.767</ele>
        <time>2019-04-29T10:24:58Z</time>
      </trkpt>
      <trkpt lat="41.793739" lon="-8.850694">
        <ele>71.258</ele>
        <time>2019-04-29T10:25:02Z</time>
      </trkpt>
      <trkpt lat="41.794416" lon="-8.850621">
        <ele>67.452</ele>
        <time>2019-04-29T10:25:14Z</time>
      </trkpt>
      <trkpt lat="41.794672" lon="-8.850646">
        <ele>66.417</ele>
        <time>2019-04-29T10:25:20Z</time>
      </trkpt>
      <trkpt lat="41.794776" lon="-8.850607">
        <ele>65.008</ele>
        <time>2019-04-29T10:25:22Z</time>
      </trkpt>
      <trkpt lat="41.794912" lon="-8.850542">
        <ele>62.668</ele>
        <time>2019-04-29T10:25:25Z</time>
      </trkpt>
      <trkpt lat="41.795170" lon="-8.850518">
        <ele>58.791</ele>
        <time>2019-04-29T10:25:34Z</time>
      </trkpt>
      <trkpt lat="41.795203" lon="-8.850603">
        <ele>59.727</ele>
        <time>2019-04-29T10:25:46Z</time>
      </trkpt>
      <trkpt lat="41.795241" lon="-8.850669">
        <ele>60.715</ele>
        <time>2019-04-29T10:25:58Z</time>
      </trkpt>
      <trkpt lat="41.795263" lon="-8.850713">
        <ele>61.683</ele>
        <time>2019-04-29T10:26:14Z</time>
      </trkpt>
      <trkpt lat="41.795325" lon="-8.850773">
        <ele>62.655</ele>
        <time>2019-04-29T10:26:29Z</time>
      </trkpt>
      <trkpt lat="41.795383" lon="-8.850849">
        <ele>64.055</ele>
        <time>2019-04-29T10:26:38Z</time>
      </trkpt>
      <trkpt lat="41.795419" lon="-8.850936">
        <ele>65.559</ele>
        <time>2019-04-29T10:26:52Z</time>
      </trkpt>
      <trkpt lat="41.795420" lon="-8.850937">
        <ele>65.533</ele>
        <time>2019-04-29T10:26:54Z</time>
      </trkpt>
      <trkpt lat="41.795567" lon="-8.851075">
        <ele>65.923</ele>
        <time>2019-04-29T10:27:06Z</time>
      </trkpt>
      <trkpt lat="41.795837" lon="-8.851383">
        <ele>64.015</ele>
        <time>2019-04-29T10:27:18Z</time>
      </trkpt>
      <trkpt lat="41.796006" lon="-8.851505">
        <ele>62.608</ele>
        <time>2019-04-29T10:27:22Z</time>
      </trkpt>
      <trkpt lat="41.796259" lon="-8.851553">
        <ele>59.276</ele>
        <time>2019-04-29T10:27:26Z</time>
      </trkpt>
      <trkpt lat="41.796619" lon="-8.851530">
        <ele>55.849</ele>
        <time>2019-04-29T10:27:31Z</time>
      </trkpt>
      <trkpt lat="41.796960" lon="-8.851525">
        <ele>53.045</ele>
        <time>2019-04-29T10:27:39Z</time>
      </trkpt>
      <trkpt lat="41.797055" lon="-8.851549">
        <ele>52.553</ele>
        <time>2019-04-29T10:27:42Z</time>
      </trkpt>
      <trkpt lat="41.797334" lon="-8.851755">
        <ele>50.141</ele>
        <time>2019-04-29T10:27:48Z</time>
      </trkpt>
      <trkpt lat="41.798203" lon="-8.851947">
        <ele>40.913</ele>
        <time>2019-04-29T10:27:57Z</time>
      </trkpt>
      <trkpt lat="41.800224" lon="-8.852081">
        <ele>24.693</ele>
        <time>2019-04-29T10:28:15Z</time>
      </trkpt>
      <trkpt lat="41.801450" lon="-8.852150">
        <ele>20.367</ele>
        <time>2019-04-29T10:28:29Z</time>
      </trkpt>
      <trkpt lat="41.802505" lon="-8.852216">
        <ele>17.418</ele>
        <time>2019-04-29T10:28:45Z</time>
      </trkpt>
      <trkpt lat="41.803184" lon="-8.852256">
        <ele>16.498</ele>
        <time>2019-04-29T10:28:58Z</time>
      </trkpt>
      <trkpt lat="41.803635" lon="-8.852291">
        <ele>16.417</ele>
        <time>2019-04-29T10:29:07Z</time>
      </trkpt>
      <trkpt lat="41.803853" lon="-8.852027">
        <ele>16.008</ele>
        <time>2019-04-29T10:29:14Z</time>
      </trkpt>
      <trkpt lat="41.804210" lon="-8.851625">
        <ele>15.574</ele>
        <time>2019-04-29T10:29:24Z</time>
      </trkpt>
      <trkpt lat="41.804295" lon="-8.851469">
        <ele>14.557</ele>
        <time>2019-04-29T10:29:27Z</time>
      </trkpt>
      <trkpt lat="41.804458" lon="-8.851343">
        <ele>14.533</ele>
        <time>2019-04-29T10:29:31Z</time>
      </trkpt>
      <trkpt lat="41.804656" lon="-8.851281">
        <ele>15.541</ele>
        <time>2019-04-29T10:29:35Z</time>
      </trkpt>
      <trkpt lat="41.804796" lon="-8.851202">
        <ele>15.069</ele>
        <time>2019-04-29T10:29:38Z</time>
      </trkpt>
      <trkpt lat="41.804946" lon="-8.851039">
        <ele>15.021</ele>
        <time>2019-04-29T10:29:42Z</time>
      </trkpt>
      <trkpt lat="41.804996" lon="-8.850938">
        <ele>15.051</ele>
        <time>2019-04-29T10:29:44Z</time>
      </trkpt>
      <trkpt lat="41.805596" lon="-8.850448">
        <ele>12.675</ele>
        <time>2019-04-29T10:29:59Z</time>
      </trkpt>
      <trkpt lat="41.805647" lon="-8.850415">
        <ele>12.133</ele>
        <time>2019-04-29T10:30:00Z</time>
      </trkpt>
      <trkpt lat="41.805805" lon="-8.850207">
        <ele>11.623</ele>
        <time>2019-04-29T10:30:04Z</time>
      </trkpt>
      <trkpt lat="41.806025" lon="-8.849862">
        <ele>10.715</ele>
        <time>2019-04-29T10:30:11Z</time>
      </trkpt>
      <trkpt lat="41.806397" lon="-8.849827">
        <ele>12.108</ele>
        <time>2019-04-29T10:30:21Z</time>
      </trkpt>
      <trkpt lat="41.806632" lon="-8.849925">
        <ele>11.676</ele>
        <time>2019-04-29T10:30:30Z</time>
      </trkpt>
      <trkpt lat="41.806959" lon="-8.850051">
        <ele>9.779</ele>
        <time>2019-04-29T10:30:41Z</time>
      </trkpt>
      <trkpt lat="41.807186" lon="-8.850228">
        <ele>9.725</ele>
        <time>2019-04-29T10:30:50Z</time>
      </trkpt>
      <trkpt lat="41.807243" lon="-8.850343">
        <ele>11.163</ele>
        <time>2019-04-29T10:30:54Z</time>
      </trkpt>
      <trkpt lat="41.807472" lon="-8.850521">
        <ele>11.671</ele>
        <time>2019-04-29T10:31:04Z</time>
      </trkpt>
      <trkpt lat="41.807690" lon="-8.850588">
        <ele>12.173</ele>
        <time>2019-04-29T10:31:16Z</time>
      </trkpt>
      <trkpt lat="41.807692" lon="-8.850590">
        <ele>12.673</ele>
        <time>2019-04-29T10:31:42Z</time>
      </trkpt>
      <trkpt lat="41.807694" lon="-8.850599">
        <ele>13.667</ele>
        <time>2019-04-29T10:32:16Z</time>
      </trkpt>
      <trkpt lat="41.807693" lon="-8.850600">
        <ele>13.661</ele>
        <time>2019-04-29T10:32:48Z</time>
      </trkpt>
      <trkpt lat="41.807692" lon="-8.850598">
        <ele>13.621</ele>
        <time>2019-04-29T10:33:01Z</time>
      </trkpt>
      <trkpt lat="41.807950" lon="-8.850614">
        <ele>13.613</ele>
        <time>2019-04-29T10:33:13Z</time>
      </trkpt>
      <trkpt lat="41.808320" lon="-8.850649">
        <ele>16.408</ele>
        <time>2019-04-29T10:33:28Z</time>
      </trkpt>
      <trkpt lat="41.808352" lon="-8.850663">
        <ele>16.059</ele>
        <time>2019-04-29T10:33:35Z</time>
      </trkpt>
      <trkpt lat="41.808531" lon="-8.850749">
        <ele>16.422</ele>
        <time>2019-04-29T10:33:44Z</time>
      </trkpt>
      <trkpt lat="41.808829" lon="-8.851053">
        <ele>18.478</ele>
        <time>2019-04-29T10:33:58Z</time>
      </trkpt>
      <trkpt lat="41.809069" lon="-8.851350">
        <ele>19.336</ele>
        <time>2019-04-29T10:34:10Z</time>
      </trkpt>
      <trkpt lat="41.809352" lon="-8.851673">
        <ele>20.894</ele>
        <time>2019-04-29T10:34:22Z</time>
      </trkpt>
      <trkpt lat="41.809419" lon="-8.851829">
        <ele>22.246</ele>
        <time>2019-04-29T10:34:26Z</time>
      </trkpt>
      <trkpt lat="41.809505" lon="-8.852118">
        <ele>21.216</ele>
        <time>2019-04-29T10:34:34Z</time>
      </trkpt>
      <trkpt lat="41.809738" lon="-8.852526">
        <ele>18.830</ele>
        <time>2019-04-29T10:34:47Z</time>
      </trkpt>
      <trkpt lat="41.809966" lon="-8.853033">
        <ele>19.871</ele>
        <time>2019-04-29T10:35:04Z</time>
      </trkpt>
      <trkpt lat="41.810269" lon="-8.853578">
        <ele>18.841</ele>
        <time>2019-04-29T10:35:20Z</time>
      </trkpt>
      <trkpt lat="41.810560" lon="-8.854131">
        <ele>17.915</ele>
        <time>2019-04-29T10:35:35Z</time>
      </trkpt>
      <trkpt lat="41.810647" lon="-8.854598">
        <ele>17.408</ele>
        <time>2019-04-29T10:35:45Z</time>
      </trkpt>
      <trkpt lat="41.810774" lon="-8.855040">
        <ele>16.410</ele>
        <time>2019-04-29T10:35:53Z</time>
      </trkpt>
      <trkpt lat="41.811066" lon="-8.855956">
        <ele>19.393</ele>
        <time>2019-04-29T10:36:08Z</time>
      </trkpt>
      <trkpt lat="41.811261" lon="-8.856520">
        <ele>18.879</ele>
        <time>2019-04-29T10:36:19Z</time>
      </trkpt>
      <trkpt lat="41.811443" lon="-8.856758">
        <ele>17.997</ele>
        <time>2019-04-29T10:36:25Z</time>
      </trkpt>
      <trkpt lat="41.811517" lon="-8.856819">
        <ele>17.475</ele>
        <time>2019-04-29T10:36:27Z</time>
      </trkpt>
      <trkpt lat="41.811932" lon="-8.856840">
        <ele>18.417</ele>
        <time>2019-04-29T10:36:39Z</time>
      </trkpt>
      <trkpt lat="41.812427" lon="-8.856584">
        <ele>22.717</ele>
        <time>2019-04-29T10:36:55Z</time>
      </trkpt>
      <trkpt lat="41.812754" lon="-8.856392">
        <ele>23.671</ele>
        <time>2019-04-29T10:37:08Z</time>
      </trkpt>
      <trkpt lat="41.812800" lon="-8.856380">
        <ele>24.651</ele>
        <time>2019-04-29T10:37:22Z</time>
      </trkpt>
      <trkpt lat="41.812801" lon="-8.856380">
        <ele>24.601</ele>
        <time>2019-04-29T10:37:23Z</time>
      </trkpt>
      <trkpt lat="41.812864" lon="-8.856440">
        <ele>23.211</ele>
        <time>2019-04-29T10:37:28Z</time>
      </trkpt>
      <trkpt lat="41.813140" lon="-8.857093">
        <ele>23.208</ele>
        <time>2019-04-29T10:37:46Z</time>
      </trkpt>
      <trkpt lat="41.813210" lon="-8.857665">
        <ele>24.648</ele>
        <time>2019-04-29T10:37:58Z</time>
      </trkpt>
      <trkpt lat="41.813251" lon="-8.857950">
        <ele>24.151</ele>
        <time>2019-04-29T10:38:04Z</time>
      </trkpt>
      <trkpt lat="41.813491" lon="-8.858833">
        <ele>20.347</ele>
        <time>2019-04-29T10:38:17Z</time>
      </trkpt>
      <trkpt lat="41.813533" lon="-8.859006">
        <ele>19.315</ele>
        <time>2019-04-29T10:38:19Z</time>
      </trkpt>
      <trkpt lat="41.813531" lon="-8.859217">
        <ele>18.433</ele>
        <time>2019-04-29T10:38:22Z</time>
      </trkpt>
      <trkpt lat="41.813510" lon="-8.859513">
        <ele>18.845</ele>
        <time>2019-04-29T10:38:27Z</time>
      </trkpt>
      <trkpt lat="41.813510" lon="-8.859755">
        <ele>19.895</ele>
        <time>2019-04-29T10:38:31Z</time>
      </trkpt>
      <trkpt lat="41.813515" lon="-8.860186">
        <ele>22.789</ele>
        <time>2019-04-29T10:38:41Z</time>
      </trkpt>
      <trkpt lat="41.813543" lon="-8.860259">
        <ele>24.184</ele>
        <time>2019-04-29T10:38:50Z</time>
      </trkpt>
      <trkpt lat="41.813659" lon="-8.860639">
        <ele>23.607</ele>
        <time>2019-04-29T10:39:01Z</time>
      </trkpt>
      <trkpt lat="41.813619" lon="-8.861249">
        <ele>27.517</ele>
        <time>2019-04-29T10:39:13Z</time>
      </trkpt>
      <trkpt lat="41.813567" lon="-8.861691">
        <ele>28.908</ele>
        <time>2019-04-29T10:39:23Z</time>
      </trkpt>
      <trkpt lat="41.813573" lon="-8.861839">
        <ele>27.571</ele>
        <time>2019-04-29T10:39:28Z</time>
      </trkpt>
      <trkpt lat="41.813626" lon="-8.862240">
        <ele>20.314</ele>
        <time>2019-04-29T10:39:40Z</time>
      </trkpt>
      <trkpt lat="41.813653" lon="-8.862286">
        <ele>18.430</ele>
        <time>2019-04-29T10:39:52Z</time>
      </trkpt>
      <trkpt lat="41.813657" lon="-8.862284">
        <ele>17.958</ele>
        <time>2019-04-29T10:40:07Z</time>
      </trkpt>
      <trkpt lat="41.813655" lon="-8.862283">
        <ele>17.426</ele>
        <time>2019-04-29T10:40:29Z</time>
      </trkpt>
      <trkpt lat="41.813651" lon="-8.862288">
        <ele>17.498</ele>
        <time>2019-04-29T10:40:53Z</time>
      </trkpt>
      <trkpt lat="41.813644" lon="-8.862300">
        <ele>19.318</ele>
        <time>2019-04-29T10:41:23Z</time>
      </trkpt>
      <trkpt lat="41.813637" lon="-8.862342">
        <ele>23.232</ele>
        <time>2019-04-29T10:42:00Z</time>
      </trkpt>
      <trkpt lat="41.813645" lon="-8.862362">
        <ele>25.621</ele>
        <time>2019-04-29T10:42:35Z</time>
      </trkpt>
      <trkpt lat="41.813650" lon="-8.862365">
        <ele>25.641</ele>
        <time>2019-04-29T10:43:11Z</time>
      </trkpt>
      <trkpt lat="41.813651" lon="-8.862394">
        <ele>26.005</ele>
        <time>2019-04-29T10:43:43Z</time>
      </trkpt>
      <trkpt lat="41.813624" lon="-8.862402">
        <ele>28.008</ele>
        <time>2019-04-29T10:44:16Z</time>
      </trkpt>
      <trkpt lat="41.813588" lon="-8.862420">
        <ele>31.855</ele>
        <time>2019-04-29T10:44:46Z</time>
      </trkpt>
      <trkpt lat="41.813571" lon="-8.862441">
        <ele>34.738</ele>
        <time>2019-04-29T10:45:18Z</time>
      </trkpt>
      <trkpt lat="41.813543" lon="-8.862472">
        <ele>37.684</ele>
        <time>2019-04-29T10:45:47Z</time>
      </trkpt>
      <trkpt lat="41.813502" lon="-8.862506">
        <ele>41.942</ele>
        <time>2019-04-29T10:46:15Z</time>
      </trkpt>
      <trkpt lat="41.813492" lon="-8.862500">
        <ele>42.490</ele>
        <time>2019-04-29T10:46:52Z</time>
      </trkpt>
      <trkpt lat="41.813468" lon="-8.862521">
        <ele>45.352</ele>
        <time>2019-04-29T10:47:25Z</time>
      </trkpt>
      <trkpt lat="41.813465" lon="-8.862532">
        <ele>47.772</ele>
        <time>2019-04-29T10:47:58Z</time>
      </trkpt>
      <trkpt lat="41.813454" lon="-8.862535">
        <ele>48.246</ele>
        <time>2019-04-29T10:48:28Z</time>
      </trkpt>
      <trkpt lat="41.813442" lon="-8.862544">
        <ele>49.687</ele>
        <time>2019-04-29T10:49:04Z</time>
      </trkpt>
      <trkpt lat="41.813439" lon="-8.862549">
        <ele>50.642</ele>
        <time>2019-04-29T10:49:37Z</time>
      </trkpt>
      <trkpt lat="41.813445" lon="-8.862551">
        <ele>51.026</ele>
        <time>2019-04-29T10:50:08Z</time>
      </trkpt>
      <trkpt lat="41.813454" lon="-8.862545">
        <ele>51.008</ele>
        <time>2019-04-29T10:50:38Z</time>
      </trkpt>
      <trkpt lat="41.813456" lon="-8.862526">
        <ele>51.031</ele>
        <time>2019-04-29T10:51:11Z</time>
      </trkpt>
      <trkpt lat="41.813463" lon="-8.862510">
        <ele>51.544</ele>
        <time>2019-04-29T10:51:41Z</time>
      </trkpt>
      <trkpt lat="41.813467" lon="-8.862502">
        <ele>50.170</ele>
        <time>2019-04-29T10:52:14Z</time>
      </trkpt>
      <trkpt lat="41.813465" lon="-8.862500">
        <ele>49.698</ele>
        <time>2019-04-29T10:52:44Z</time>
      </trkpt>
      <trkpt lat="41.813469" lon="-8.862517">
        <ele>48.236</ele>
        <time>2019-04-29T10:53:19Z</time>
      </trkpt>
      <trkpt lat="41.813476" lon="-8.862512">
        <ele>46.798</ele>
        <time>2019-04-29T10:53:52Z</time>
      </trkpt>
      <trkpt lat="41.813478" lon="-8.862508">
        <ele>45.378</ele>
        <time>2019-04-29T10:54:25Z</time>
      </trkpt>
      <trkpt lat="41.813499" lon="-8.862509">
        <ele>44.332</ele>
        <time>2019-04-29T10:54:54Z</time>
      </trkpt>
      <trkpt lat="41.813495" lon="-8.862619">
        <ele>45.394</ele>
        <time>2019-04-29T10:55:21Z</time>
      </trkpt>
      <trkpt lat="41.813507" lon="-8.862618">
        <ele>45.357</ele>
        <time>2019-04-29T10:55:49Z</time>
      </trkpt>
      <trkpt lat="41.813510" lon="-8.862601">
        <ele>45.322</ele>
        <time>2019-04-29T10:56:18Z</time>
      </trkpt>
      <trkpt lat="41.813504" lon="-8.862603">
        <ele>44.308</ele>
        <time>2019-04-29T10:56:43Z</time>
      </trkpt>
      <trkpt lat="41.813499" lon="-8.862613">
        <ele>42.952</ele>
        <time>2019-04-29T10:57:09Z</time>
      </trkpt>
      <trkpt lat="41.813492" lon="-8.862614">
        <ele>42.915</ele>
        <time>2019-04-29T10:57:37Z</time>
      </trkpt>
      <trkpt lat="41.813502" lon="-8.862596">
        <ele>42.921</ele>
        <time>2019-04-29T10:58:06Z</time>
      </trkpt>
      <trkpt lat="41.813531" lon="-8.862565">
        <ele>43.859</ele>
        <time>2019-04-29T10:58:37Z</time>
      </trkpt>
      <trkpt lat="41.813549" lon="-8.862550">
        <ele>43.457</ele>
        <time>2019-04-29T10:59:10Z</time>
      </trkpt>
      <trkpt lat="41.813560" lon="-8.862543">
        <ele>43.819</ele>
        <time>2019-04-29T10:59:42Z</time>
      </trkpt>
      <trkpt lat="41.813564" lon="-8.862543">
        <ele>43.869</ele>
        <time>2019-04-29T11:00:15Z</time>
      </trkpt>
      <trkpt lat="41.813558" lon="-8.862540">
        <ele>42.973</ele>
        <time>2019-04-29T11:00:40Z</time>
      </trkpt>
      <trkpt lat="41.813549" lon="-8.862542">
        <ele>43.486</ele>
        <time>2019-04-29T11:01:12Z</time>
      </trkpt>
      <trkpt lat="41.813539" lon="-8.862548">
        <ele>43.860</ele>
        <time>2019-04-29T11:01:47Z</time>
      </trkpt>
      <trkpt lat="41.813526" lon="-8.862553">
        <ele>44.326</ele>
        <time>2019-04-29T11:02:15Z</time>
      </trkpt>
      <trkpt lat="41.813520" lon="-8.862552">
        <ele>45.308</ele>
        <time>2019-04-29T11:02:47Z</time>
      </trkpt>
      <trkpt lat="41.813519" lon="-8.862540">
        <ele>45.821</ele>
        <time>2019-04-29T11:03:20Z</time>
      </trkpt>
      <trkpt lat="41.813518" lon="-8.862541">
        <ele>46.274</ele>
        <time>2019-04-29T11:03:45Z</time>
      </trkpt>
      <trkpt lat="41.813522" lon="-8.862532">
        <ele>46.280</ele>
        <time>2019-04-29T11:03:47Z</time>
      </trkpt>
      <trkpt lat="41.813574" lon="-8.862405">
        <ele>45.828</ele>
        <time>2019-04-29T11:04:08Z</time>
      </trkpt>
      <trkpt lat="41.813587" lon="-8.862405">
        <ele>45.886</ele>
        <time>2019-04-29T11:04:35Z</time>
      </trkpt>
      <trkpt lat="41.813583" lon="-8.862407">
        <ele>44.898</ele>
        <time>2019-04-29T11:05:01Z</time>
      </trkpt>
      <trkpt lat="41.813577" lon="-8.862421">
        <ele>45.838</ele>
        <time>2019-04-29T11:05:25Z</time>
      </trkpt>
      <trkpt lat="41.813573" lon="-8.862422">
        <ele>45.862</ele>
        <time>2019-04-29T11:05:49Z</time>
      </trkpt>
      <trkpt lat="41.813578" lon="-8.862411">
        <ele>46.246</ele>
        <time>2019-04-29T11:06:22Z</time>
      </trkpt>
      <trkpt lat="41.813568" lon="-8.862418">
        <ele>48.288</ele>
        <time>2019-04-29T11:06:52Z</time>
      </trkpt>
      <trkpt lat="41.813557" lon="-8.862420">
        <ele>48.616</ele>
        <time>2019-04-29T11:07:15Z</time>
      </trkpt>
      <trkpt lat="41.813549" lon="-8.862418">
        <ele>48.608</ele>
        <time>2019-04-29T11:07:40Z</time>
      </trkpt>
      <trkpt lat="41.813550" lon="-8.862412">
        <ele>48.247</ele>
        <time>2019-04-29T11:08:03Z</time>
      </trkpt>
      <trkpt lat="41.813556" lon="-8.862383">
        <ele>48.240</ele>
        <time>2019-04-29T11:08:30Z</time>
      </trkpt>
      <trkpt lat="41.813557" lon="-8.862394">
        <ele>47.226</ele>
        <time>2019-04-29T11:08:50Z</time>
      </trkpt>
      <trkpt lat="41.813559" lon="-8.862397">
        <ele>45.374</ele>
        <time>2019-04-29T11:09:15Z</time>
      </trkpt>
      <trkpt lat="41.813561" lon="-8.862416">
        <ele>42.982</ele>
        <time>2019-04-29T11:09:36Z</time>
      </trkpt>
      <trkpt lat="41.813592" lon="-8.862303">
        <ele>37.624</ele>
        <time>2019-04-29T11:09:47Z</time>
      </trkpt>
      <trkpt lat="41.813604" lon="-8.862237">
        <ele>32.374</ele>
        <time>2019-04-29T11:10:00Z</time>
      </trkpt>
      <trkpt lat="41.813582" lon="-8.862343">
        <ele>27.528</ele>
        <time>2019-04-29T11:10:09Z</time>
      </trkpt>
      <trkpt lat="41.813561" lon="-8.862343">
        <ele>27.586</ele>
        <time>2019-04-29T11:10:30Z</time>
      </trkpt>
      <trkpt lat="41.813559" lon="-8.862330">
        <ele>27.560</ele>
        <time>2019-04-29T11:10:55Z</time>
      </trkpt>
      <trkpt lat="41.813569" lon="-8.862342">
        <ele>26.026</ele>
        <time>2019-04-29T11:11:16Z</time>
      </trkpt>
      <trkpt lat="41.813518" lon="-8.862397">
        <ele>24.608</ele>
        <time>2019-04-29T11:11:21Z</time>
      </trkpt>
      <trkpt lat="41.813522" lon="-8.862527">
        <ele>24.651</ele>
        <time>2019-04-29T11:11:26Z</time>
      </trkpt>
      <trkpt lat="41.813602" lon="-8.862636">
        <ele>23.684</ele>
        <time>2019-04-29T11:11:30Z</time>
      </trkpt>
      <trkpt lat="41.813739" lon="-8.862825">
        <ele>21.270</ele>
        <time>2019-04-29T11:11:40Z</time>
      </trkpt>
      <trkpt lat="41.813766" lon="-8.862861">
        <ele>20.868</ele>
        <time>2019-04-29T11:11:42Z</time>
      </trkpt>
      <trkpt lat="41.813908" lon="-8.863033">
        <ele>18.456</ele>
        <time>2019-04-29T11:11:50Z</time>
      </trkpt>
      <trkpt lat="41.814117" lon="-8.863305">
        <ele>15.528</ele>
        <time>2019-04-29T11:12:03Z</time>
      </trkpt>
      <trkpt lat="41.814198" lon="-8.863444">
        <ele>14.598</ele>
        <time>2019-04-29T11:12:10Z</time>
      </trkpt>
      <trkpt lat="41.814364" lon="-8.863637">
        <ele>13.172</ele>
        <time>2019-04-29T11:12:21Z</time>
      </trkpt>
      <trkpt lat="41.814575" lon="-8.863934">
        <ele>14.525</ele>
        <time>2019-04-29T11:12:31Z</time>
      </trkpt>
      <trkpt lat="41.814655" lon="-8.864074">
        <ele>14.026</ele>
        <time>2019-04-29T11:12:36Z</time>
      </trkpt>
      <trkpt lat="41.814909" lon="-8.864411">
        <ele>15.008</ele>
        <time>2019-04-29T11:12:48Z</time>
      </trkpt>
      <trkpt lat="41.815100" lon="-8.864759">
        <ele>14.508</ele>
        <time>2019-04-29T11:13:00Z</time>
      </trkpt>
      <trkpt lat="41.815120" lon="-8.864782">
        <ele>14.575</ele>
        <time>2019-04-29T11:13:01Z</time>
      </trkpt>
      <trkpt lat="41.815110" lon="-8.864960">
        <ele>15.588</ele>
        <time>2019-04-29T11:13:06Z</time>
      </trkpt>
      <trkpt lat="41.814945" lon="-8.865158">
        <ele>16.014</ele>
        <time>2019-04-29T11:13:12Z</time>
      </trkpt>
      <trkpt lat="41.815005" lon="-8.865549">
        <ele>13.112</ele>
        <time>2019-04-29T11:13:18Z</time>
      </trkpt>
      <trkpt lat="41.815056" lon="-8.865737">
        <ele>11.640</ele>
        <time>2019-04-29T11:13:21Z</time>
      </trkpt>
      <trkpt lat="41.815147" lon="-8.866276">
        <ele>9.752</ele>
        <time>2019-04-29T11:13:33Z</time>
      </trkpt>
      <trkpt lat="41.815185" lon="-8.866528">
        <ele>9.272</ele>
        <time>2019-04-29T11:13:40Z</time>
      </trkpt>
      <trkpt lat="41.815276" lon="-8.866560">
        <ele>9.256</ele>
        <time>2019-04-29T11:13:44Z</time>
      </trkpt>
      <trkpt lat="41.815426" lon="-8.866521">
        <ele>10.792</ele>
        <time>2019-04-29T11:13:50Z</time>
      </trkpt>
      <trkpt lat="41.815564" lon="-8.866597">
        <ele>13.673</ele>
        <time>2019-04-29T11:13:58Z</time>
      </trkpt>
      <trkpt lat="41.815585" lon="-8.866796">
        <ele>15.520</ele>
        <time>2019-04-29T11:14:06Z</time>
      </trkpt>
      <trkpt lat="41.815602" lon="-8.866809">
        <ele>15.508</ele>
        <time>2019-04-29T11:14:07Z</time>
      </trkpt>
      <trkpt lat="41.815710" lon="-8.866875">
        <ele>15.512</ele>
        <time>2019-04-29T11:14:12Z</time>
      </trkpt>
      <trkpt lat="41.815804" lon="-8.867010">
        <ele>15.025</ele>
        <time>2019-04-29T11:14:18Z</time>
      </trkpt>
      <trkpt lat="41.815921" lon="-8.867245">
        <ele>14.561</ele>
        <time>2019-04-29T11:14:28Z</time>
      </trkpt>
      <trkpt lat="41.815845" lon="-8.867223">
        <ele>14.049</ele>
        <time>2019-04-29T11:14:37Z</time>
      </trkpt>
      <trkpt lat="41.815736" lon="-8.867175">
        <ele>12.697</ele>
        <time>2019-04-29T11:14:44Z</time>
      </trkpt>
      <trkpt lat="41.815548" lon="-8.867143">
        <ele>10.749</ele>
        <time>2019-04-29T11:14:48Z</time>
      </trkpt>
      <trkpt lat="41.815285" lon="-8.866940">
        <ele>7.839</ele>
        <time>2019-04-29T11:14:54Z</time>
      </trkpt>
      <trkpt lat="41.815357" lon="-8.866820">
        <ele>7.863</ele>
        <time>2019-04-29T11:15:01Z</time>
      </trkpt>
      <trkpt lat="41.815578" lon="-8.867049">
        <ele>8.333</ele>
        <time>2019-04-29T11:15:12Z</time>
      </trkpt>
      <trkpt lat="41.815688" lon="-8.867192">
        <ele>9.723</ele>
        <time>2019-04-29T11:15:20Z</time>
      </trkpt>
      <trkpt lat="41.815707" lon="-8.867185">
        <ele>9.715</ele>
        <time>2019-04-29T11:15:21Z</time>
      </trkpt>
      <trkpt lat="41.815785" lon="-8.867129">
        <ele>10.708</ele>
        <time>2019-04-29T11:15:25Z</time>
      </trkpt>
      <trkpt lat="41.815756" lon="-8.867067">
        <ele>12.166</ele>
        <time>2019-04-29T11:15:33Z</time>
      </trkpt>
      <trkpt lat="41.815725" lon="-8.867090">
        <ele>11.689</ele>
        <time>2019-04-29T11:15:50Z</time>
      </trkpt>
      <trkpt lat="41.815703" lon="-8.867088">
        <ele>11.645</ele>
        <time>2019-04-29T11:16:03Z</time>
      </trkpt>
      <trkpt lat="41.815702" lon="-8.867083">
        <ele>12.153</ele>
        <time>2019-04-29T11:16:17Z</time>
      </trkpt>
      <trkpt lat="41.815717" lon="-8.867078">
        <ele>12.171</ele>
        <time>2019-04-29T11:16:27Z</time>
      </trkpt>
      <trkpt lat="41.815720" lon="-8.867092">
        <ele>10.773</ele>
        <time>2019-04-29T11:16:52Z</time>
      </trkpt>
      <trkpt lat="41.815704" lon="-8.867075">
        <ele>12.193</ele>
        <time>2019-04-29T11:17:21Z</time>
      </trkpt>
      <trkpt lat="41.815703" lon="-8.867077">
        <ele>11.117</ele>
        <time>2019-04-29T11:17:53Z</time>
      </trkpt>
      <trkpt lat="41.815702" lon="-8.867079">
        <ele>12.168</ele>
        <time>2019-04-29T11:18:08Z</time>
      </trkpt>
      <trkpt lat="41.815795" lon="-8.867011">
        <ele>12.642</ele>
        <time>2019-04-29T11:18:14Z</time>
      </trkpt>
      <trkpt lat="41.815792" lon="-8.866918">
        <ele>12.626</ele>
        <time>2019-04-29T11:18:20Z</time>
      </trkpt>
      <trkpt lat="41.815737" lon="-8.867015">
        <ele>11.608</ele>
        <time>2019-04-29T11:18:28Z</time>
      </trkpt>
      <trkpt lat="41.815752" lon="-8.867040">
        <ele>11.129</ele>
        <time>2019-04-29T11:18:30Z</time>
      </trkpt>
      <trkpt lat="41.815967" lon="-8.867351">
        <ele>11.122</ele>
        <time>2019-04-29T11:18:42Z</time>
      </trkpt>
      <trkpt lat="41.816253" lon="-8.867962">
        <ele>11.668</ele>
        <time>2019-04-29T11:18:58Z</time>
      </trkpt>
      <trkpt lat="41.816531" lon="-8.868572">
        <ele>11.676</ele>
        <time>2019-04-29T11:19:14Z</time>
      </trkpt>
      <trkpt lat="41.816889" lon="-8.869226">
        <ele>10.754</ele>
        <time>2019-04-29T11:19:32Z</time>
      </trkpt>
      <trkpt lat="41.817229" lon="-8.869833">
        <ele>10.256</ele>
        <time>2019-04-29T11:19:49Z</time>
      </trkpt>
      <trkpt lat="41.817500" lon="-8.870302">
        <ele>10.796</ele>
        <time>2019-04-29T11:20:02Z</time>
      </trkpt>
      <trkpt lat="41.817882" lon="-8.870523">
        <ele>11.670</ele>
        <time>2019-04-29T11:20:14Z</time>
      </trkpt>
      <trkpt lat="41.818448" lon="-8.871050">
        <ele>12.676</ele>
        <time>2019-04-29T11:20:34Z</time>
      </trkpt>
      <trkpt lat="41.818856" lon="-8.871441">
        <ele>11.690</ele>
        <time>2019-04-29T11:20:49Z</time>
      </trkpt>
      <trkpt lat="41.819324" lon="-8.871884">
        <ele>12.119</ele>
        <time>2019-04-29T11:21:07Z</time>
      </trkpt>
      <trkpt lat="41.819654" lon="-8.872184">
        <ele>12.608</ele>
        <time>2019-04-29T11:21:20Z</time>
      </trkpt>
      <trkpt lat="41.820036" lon="-8.872525">
        <ele>12.690</ele>
        <time>2019-04-29T11:21:34Z</time>
      </trkpt>
      <trkpt lat="41.820589" lon="-8.872732">
        <ele>12.673</ele>
        <time>2019-04-29T11:21:51Z</time>
      </trkpt>
      <trkpt lat="41.821244" lon="-8.872876">
        <ele>13.629</ele>
        <time>2019-04-29T11:22:11Z</time>
      </trkpt>
      <trkpt lat="41.821713" lon="-8.872987">
        <ele>13.687</ele>
        <time>2019-04-29T11:22:26Z</time>
      </trkpt>
      <trkpt lat="41.822235" lon="-8.873215">
        <ele>14.035</ele>
        <time>2019-04-29T11:22:42Z</time>
      </trkpt>
      <trkpt lat="41.822889" lon="-8.873507">
        <ele>14.047</ele>
        <time>2019-04-29T11:23:00Z</time>
      </trkpt>
      <trkpt lat="41.823459" lon="-8.873639">
        <ele>14.547</ele>
        <time>2019-04-29T11:23:15Z</time>
      </trkpt>
      <trkpt lat="41.823912" lon="-8.873448">
        <ele>16.911</ele>
        <time>2019-04-29T11:23:28Z</time>
      </trkpt>
      <trkpt lat="41.824328" lon="-8.873488">
        <ele>15.593</ele>
        <time>2019-04-29T11:23:40Z</time>
      </trkpt>
      <trkpt lat="41.824813" lon="-8.873427">
        <ele>13.665</ele>
        <time>2019-04-29T11:23:54Z</time>
      </trkpt>
      <trkpt lat="41.825298" lon="-8.873145">
        <ele>11.621</ele>
        <time>2019-04-29T11:24:08Z</time>
      </trkpt>
      <trkpt lat="41.825983" lon="-8.872809">
        <ele>11.608</ele>
        <time>2019-04-29T11:24:26Z</time>
      </trkpt>
      <trkpt lat="41.826476" lon="-8.872836">
        <ele>12.142</ele>
        <time>2019-04-29T11:24:39Z</time>
      </trkpt>
      <trkpt lat="41.827185" lon="-8.872873">
        <ele>12.625</ele>
        <time>2019-04-29T11:24:57Z</time>
      </trkpt>
      <trkpt lat="41.827789" lon="-8.872914">
        <ele>14.071</ele>
        <time>2019-04-29T11:25:13Z</time>
      </trkpt>
      <trkpt lat="41.828334" lon="-8.872967">
        <ele>16.459</ele>
        <time>2019-04-29T11:25:29Z</time>
      </trkpt>
      <trkpt lat="41.828484" lon="-8.873163">
        <ele>16.477</ele>
        <time>2019-04-29T11:25:35Z</time>
      </trkpt>
      <trkpt lat="41.828602" lon="-8.873335">
        <ele>15.049</ele>
        <time>2019-04-29T11:25:39Z</time>
      </trkpt>
      <trkpt lat="41.828733" lon="-8.873479">
        <ele>14.539</ele>
        <time>2019-04-29T11:25:43Z</time>
      </trkpt>
      <trkpt lat="41.829190" lon="-8.873868">
        <ele>13.153</ele>
        <time>2019-04-29T11:25:56Z</time>
      </trkpt>
      <trkpt lat="41.829552" lon="-8.874002">
        <ele>14.061</ele>
        <time>2019-04-29T11:26:05Z</time>
      </trkpt>
      <trkpt lat="41.829857" lon="-8.874101">
        <ele>15.021</ele>
        <time>2019-04-29T11:26:14Z</time>
      </trkpt>
      <trkpt lat="41.829858" lon="-8.874189">
        <ele>14.513</ele>
        <time>2019-04-29T11:26:18Z</time>
      </trkpt>
      <trkpt lat="41.829786" lon="-8.874708">
        <ele>12.608</ele>
        <time>2019-04-29T11:26:29Z</time>
      </trkpt>
      <trkpt lat="41.829882" lon="-8.874786">
        <ele>13.169</ele>
        <time>2019-04-29T11:26:33Z</time>
      </trkpt>
      <trkpt lat="41.830315" lon="-8.874876">
        <ele>13.632</ele>
        <time>2019-04-29T11:26:45Z</time>
      </trkpt>
      <trkpt lat="41.830922" lon="-8.875028">
        <ele>12.168</ele>
        <time>2019-04-29T11:27:01Z</time>
      </trkpt>
      <trkpt lat="41.831521" lon="-8.875095">
        <ele>12.166</ele>
        <time>2019-04-29T11:27:17Z</time>
      </trkpt>
      <trkpt lat="41.832078" lon="-8.874963">
        <ele>12.624</ele>
        <time>2019-04-29T11:27:33Z</time>
      </trkpt>
      <trkpt lat="41.832646" lon="-8.874940">
        <ele>13.616</ele>
        <time>2019-04-29T11:27:49Z</time>
      </trkpt>
      <trkpt lat="41.833167" lon="-8.875030">
        <ele>13.116</ele>
        <time>2019-04-29T11:28:05Z</time>
      </trkpt>
      <trkpt lat="41.833283" lon="-8.875034">
        <ele>13.110</ele>
        <time>2019-04-29T11:28:08Z</time>
      </trkpt>
      <trkpt lat="41.833934" lon="-8.874895">
        <ele>12.611</ele>
        <time>2019-04-29T11:28:23Z</time>
      </trkpt>
      <trkpt lat="41.833978" lon="-8.874892">
        <ele>12.121</ele>
        <time>2019-04-29T11:28:24Z</time>
      </trkpt>
      <trkpt lat="41.834020" lon="-8.874901">
        <ele>12.103</ele>
        <time>2019-04-29T11:28:25Z</time>
      </trkpt>
      <trkpt lat="41.834190" lon="-8.874942">
        <ele>12.108</ele>
        <time>2019-04-29T11:28:29Z</time>
      </trkpt>
      <trkpt lat="41.834233" lon="-8.874930">
        <ele>12.154</ele>
        <time>2019-04-29T11:28:30Z</time>
      </trkpt>
      <trkpt lat="41.834972" lon="-8.874701">
        <ele>12.147</ele>
        <time>2019-04-29T11:28:48Z</time>
      </trkpt>
      <trkpt lat="41.835095" lon="-8.874655">
        <ele>12.113</ele>
        <time>2019-04-29T11:28:51Z</time>
      </trkpt>
      <trkpt lat="41.835140" lon="-8.874652">
        <ele>12.111</ele>
        <time>2019-04-29T11:28:52Z</time>
      </trkpt>
      <trkpt lat="41.835493" lon="-8.874674">
        <ele>12.169</ele>
        <time>2019-04-29T11:29:00Z</time>
      </trkpt>
      <trkpt lat="41.835537" lon="-8.874667">
        <ele>11.691</ele>
        <time>2019-04-29T11:29:01Z</time>
      </trkpt>
      <trkpt lat="41.835578" lon="-8.874655">
        <ele>11.671</ele>
        <time>2019-04-29T11:29:02Z</time>
      </trkpt>
      <trkpt lat="41.836194" lon="-8.874490">
        <ele>12.655</ele>
        <time>2019-04-29T11:29:17Z</time>
      </trkpt>
      <trkpt lat="41.836529" lon="-8.874443">
        <ele>13.176</ele>
        <time>2019-04-29T11:29:25Z</time>
      </trkpt>
      <trkpt lat="41.836709" lon="-8.874380">
        <ele>13.190</ele>
        <time>2019-04-29T11:29:29Z</time>
      </trkpt>
      <trkpt lat="41.836751" lon="-8.874360">
        <ele>13.119</ele>
        <time>2019-04-29T11:29:30Z</time>
      </trkpt>
      <trkpt lat="41.836792" lon="-8.874331">
        <ele>13.108</ele>
        <time>2019-04-29T11:29:31Z</time>
      </trkpt>
      <trkpt lat="41.836828" lon="-8.874296">
        <ele>13.110</ele>
        <time>2019-04-29T11:29:32Z</time>
      </trkpt>
      <trkpt lat="41.836862" lon="-8.874259">
        <ele>13.193</ele>
        <time>2019-04-29T11:29:33Z</time>
      </trkpt>
      <trkpt lat="41.836899" lon="-8.874224">
        <ele>13.189</ele>
        <time>2019-04-29T11:29:34Z</time>
      </trkpt>
      <trkpt lat="41.836938" lon="-8.874197">
        <ele>13.167</ele>
        <time>2019-04-29T11:29:35Z</time>
      </trkpt>
      <trkpt lat="41.836980" lon="-8.874178">
        <ele>13.115</ele>
        <time>2019-04-29T11:29:36Z</time>
      </trkpt>
      <trkpt lat="41.837024" lon="-8.874170">
        <ele>13.187</ele>
        <time>2019-04-29T11:29:37Z</time>
      </trkpt>
      <trkpt lat="41.837068" lon="-8.874166">
        <ele>13.137</ele>
        <time>2019-04-29T11:29:38Z</time>
      </trkpt>
      <trkpt lat="41.837159" lon="-8.874161">
        <ele>13.191</ele>
        <time>2019-04-29T11:29:40Z</time>
      </trkpt>
      <trkpt lat="41.837203" lon="-8.874170">
        <ele>12.694</ele>
        <time>2019-04-29T11:29:41Z</time>
      </trkpt>
      <trkpt lat="41.837380" lon="-8.874212">
        <ele>12.157</ele>
        <time>2019-04-29T11:29:45Z</time>
      </trkpt>
      <trkpt lat="41.837424" lon="-8.874206">
        <ele>12.122</ele>
        <time>2019-04-29T11:29:46Z</time>
      </trkpt>
      <trkpt lat="41.837467" lon="-8.874191">
        <ele>12.108</ele>
        <time>2019-04-29T11:29:47Z</time>
      </trkpt>
      <trkpt lat="41.838189" lon="-8.873995">
        <ele>12.112</ele>
        <time>2019-04-29T11:30:04Z</time>
      </trkpt>
      <trkpt lat="41.838642" lon="-8.873950">
        <ele>12.125</ele>
        <time>2019-04-29T11:30:15Z</time>
      </trkpt>
      <trkpt lat="41.838681" lon="-8.873944">
        <ele>12.151</ele>
        <time>2019-04-29T11:30:16Z</time>
      </trkpt>
      <trkpt lat="41.839242" lon="-8.873804">
        <ele>12.139</ele>
        <time>2019-04-29T11:30:29Z</time>
      </trkpt>
      <trkpt lat="41.840021" lon="-8.873561">
        <ele>12.127</ele>
        <time>2019-04-29T11:30:48Z</time>
      </trkpt>
      <trkpt lat="41.840227" lon="-8.873497">
        <ele>12.199</ele>
        <time>2019-04-29T11:30:53Z</time>
      </trkpt>
      <trkpt lat="41.840265" lon="-8.873472">
        <ele>12.129</ele>
        <time>2019-04-29T11:30:54Z</time>
      </trkpt>
      <trkpt lat="41.840301" lon="-8.873446">
        <ele>12.133</ele>
        <time>2019-04-29T11:30:55Z</time>
      </trkpt>
      <trkpt lat="41.840952" lon="-8.873025">
        <ele>12.616</ele>
        <time>2019-04-29T11:31:13Z</time>
      </trkpt>
      <trkpt lat="41.840985" lon="-8.872984">
        <ele>12.676</ele>
        <time>2019-04-29T11:31:14Z</time>
      </trkpt>
      <trkpt lat="41.841019" lon="-8.872948">
        <ele>12.113</ele>
        <time>2019-04-29T11:31:15Z</time>
      </trkpt>
      <trkpt lat="41.841610" lon="-8.872438">
        <ele>12.608</ele>
        <time>2019-04-29T11:31:31Z</time>
      </trkpt>
      <trkpt lat="41.842259" lon="-8.871981">
        <ele>14.044</ele>
        <time>2019-04-29T11:31:48Z</time>
      </trkpt>
      <trkpt lat="41.842490" lon="-8.871832">
        <ele>13.147</ele>
        <time>2019-04-29T11:31:54Z</time>
      </trkpt>
      <trkpt lat="41.842594" lon="-8.871733">
        <ele>13.623</ele>
        <time>2019-04-29T11:31:57Z</time>
      </trkpt>
      <trkpt lat="41.842618" lon="-8.871686">
        <ele>13.641</ele>
        <time>2019-04-29T11:31:58Z</time>
      </trkpt>
      <trkpt lat="41.842635" lon="-8.871637">
        <ele>13.689</ele>
        <time>2019-04-29T11:31:59Z</time>
      </trkpt>
      <trkpt lat="41.842878" lon="-8.870991">
        <ele>11.651</ele>
        <time>2019-04-29T11:32:13Z</time>
      </trkpt>
      <trkpt lat="41.843444" lon="-8.870340">
        <ele>12.141</ele>
        <time>2019-04-29T11:32:31Z</time>
      </trkpt>
      <trkpt lat="41.843661" lon="-8.870004">
        <ele>10.265</ele>
        <time>2019-04-29T11:32:39Z</time>
      </trkpt>
      <trkpt lat="41.843972" lon="-8.869257">
        <ele>10.743</ele>
        <time>2019-04-29T11:32:54Z</time>
      </trkpt>
      <trkpt lat="41.843983" lon="-8.869202">
        <ele>10.264</ele>
        <time>2019-04-29T11:32:55Z</time>
      </trkpt>
      <trkpt lat="41.844042" lon="-8.868923">
        <ele>9.210</ele>
        <time>2019-04-29T11:33:00Z</time>
      </trkpt>
      <trkpt lat="41.844263" lon="-8.868287">
        <ele>8.708</ele>
        <time>2019-04-29T11:33:13Z</time>
      </trkpt>
      <trkpt lat="41.844278" lon="-8.868281">
        <ele>9.237</ele>
        <time>2019-04-29T11:33:14Z</time>
      </trkpt>
      <trkpt lat="41.844294" lon="-8.868284">
        <ele>8.350</ele>
        <time>2019-04-29T11:33:26Z</time>
      </trkpt>
      <trkpt lat="41.844303" lon="-8.868286">
        <ele>7.376</ele>
        <time>2019-04-29T11:33:47Z</time>
      </trkpt>
      <trkpt lat="41.844309" lon="-8.868285">
        <ele>6.844</ele>
        <time>2019-04-29T11:34:20Z</time>
      </trkpt>
      <trkpt lat="41.844307" lon="-8.868279">
        <ele>7.832</ele>
        <time>2019-04-29T11:34:45Z</time>
      </trkpt>
      <trkpt lat="41.844307" lon="-8.868279">
        <ele>8.344</ele>
        <time>2019-04-29T11:35:13Z</time>
      </trkpt>
      <trkpt lat="41.844313" lon="-8.868265">
        <ele>8.394</ele>
        <time>2019-04-29T11:35:14Z</time>
      </trkpt>
      <trkpt lat="41.844320" lon="-8.868248">
        <ele>7.898</ele>
        <time>2019-04-29T11:35:15Z</time>
      </trkpt>
      <trkpt lat="41.844327" lon="-8.868229">
        <ele>7.858</ele>
        <time>2019-04-29T11:35:16Z</time>
      </trkpt>
      <trkpt lat="41.844334" lon="-8.868212">
        <ele>7.852</ele>
        <time>2019-04-29T11:35:17Z</time>
      </trkpt>
      <trkpt lat="41.844341" lon="-8.868190">
        <ele>7.817</ele>
        <time>2019-04-29T11:35:18Z</time>
      </trkpt>
      <trkpt lat="41.844355" lon="-8.868163">
        <ele>7.808</ele>
        <time>2019-04-29T11:35:19Z</time>
      </trkpt>
      <trkpt lat="41.844371" lon="-8.868135">
        <ele>7.858</ele>
        <time>2019-04-29T11:35:20Z</time>
      </trkpt>
      <trkpt lat="41.844546" lon="-8.867874">
        <ele>8.321</ele>
        <time>2019-04-29T11:35:31Z</time>
      </trkpt>
      <trkpt lat="41.844773" lon="-8.867657">
        <ele>9.267</ele>
        <time>2019-04-29T11:35:42Z</time>
      </trkpt>
      <trkpt lat="41.844998" lon="-8.867445">
        <ele>9.795</ele>
        <time>2019-04-29T11:35:56Z</time>
      </trkpt>
      <trkpt lat="41.844996" lon="-8.867443">
        <ele>9.783</ele>
        <time>2019-04-29T11:36:01Z</time>
      </trkpt>
      <trkpt lat="41.844956" lon="-8.867382">
        <ele>9.725</ele>
        <time>2019-04-29T11:36:05Z</time>
      </trkpt>
      <trkpt lat="41.844929" lon="-8.867362">
        <ele>9.245</ele>
        <time>2019-04-29T11:36:07Z</time>
      </trkpt>
      <trkpt lat="41.844796" lon="-8.867170">
        <ele>9.279</ele>
        <time>2019-04-29T11:36:15Z</time>
      </trkpt>
      <trkpt lat="41.844628" lon="-8.867167">
        <ele>9.243</ele>
        <time>2019-04-29T11:36:26Z</time>
      </trkpt>
      <trkpt lat="41.844625" lon="-8.867175">
        <ele>9.264</ele>
        <time>2019-04-29T11:36:31Z</time>
      </trkpt>
      <trkpt lat="41.844701" lon="-8.867233">
        <ele>9.710</ele>
        <time>2019-04-29T11:36:36Z</time>
      </trkpt>
      <trkpt lat="41.844764" lon="-8.867179">
        <ele>10.708</ele>
        <time>2019-04-29T11:36:39Z</time>
      </trkpt>
      <trkpt lat="41.844952" lon="-8.867342">
        <ele>10.747</ele>
        <time>2019-04-29T11:36:49Z</time>
      </trkpt>
      <trkpt lat="41.845003" lon="-8.867457">
        <ele>11.680</ele>
        <time>2019-04-29T11:36:59Z</time>
      </trkpt>
      <trkpt lat="41.844998" lon="-8.867460">
        <ele>9.716</ele>
        <time>2019-04-29T11:37:26Z</time>
      </trkpt>
      <trkpt lat="41.844996" lon="-8.867454">
        <ele>10.264</ele>
        <time>2019-04-29T11:37:50Z</time>
      </trkpt>
      <trkpt lat="41.844995" lon="-8.867455">
        <ele>10.772</ele>
        <time>2019-04-29T11:37:58Z</time>
      </trkpt>
      <trkpt lat="41.845200" lon="-8.867261">
        <ele>11.194</ele>
        <time>2019-04-29T11:38:10Z</time>
      </trkpt>
      <trkpt lat="41.845510" lon="-8.866993">
        <ele>11.124</ele>
        <time>2019-04-29T11:38:25Z</time>
      </trkpt>
      <trkpt lat="41.845505" lon="-8.867006">
        <ele>10.748</ele>
        <time>2019-04-29T11:38:47Z</time>
      </trkpt>
      <trkpt lat="41.845615" lon="-8.866908">
        <ele>11.196</ele>
        <time>2019-04-29T11:39:01Z</time>
      </trkpt>
      <trkpt lat="41.846118" lon="-8.866617">
        <ele>10.231</ele>
        <time>2019-04-29T11:39:15Z</time>
      </trkpt>
      <trkpt lat="41.846670" lon="-8.866329">
        <ele>10.224</ele>
        <time>2019-04-29T11:39:30Z</time>
      </trkpt>
      <trkpt lat="41.846702" lon="-8.866340">
        <ele>10.208</ele>
        <time>2019-04-29T11:39:31Z</time>
      </trkpt>
      <trkpt lat="41.846729" lon="-8.866362">
        <ele>10.212</ele>
        <time>2019-04-29T11:39:32Z</time>
      </trkpt>
      <trkpt lat="41.846750" lon="-8.866389">
        <ele>10.255</ele>
        <time>2019-04-29T11:39:33Z</time>
      </trkpt>
      <trkpt lat="41.846773" lon="-8.866419">
        <ele>10.791</ele>
        <time>2019-04-29T11:39:34Z</time>
      </trkpt>
      <trkpt lat="41.846797" lon="-8.866445">
        <ele>10.799</ele>
        <time>2019-04-29T11:39:35Z</time>
      </trkpt>
      <trkpt lat="41.846823" lon="-8.866465">
        <ele>11.137</ele>
        <time>2019-04-29T11:39:36Z</time>
      </trkpt>
      <trkpt lat="41.846853" lon="-8.866477">
        <ele>11.619</ele>
        <time>2019-04-29T11:39:37Z</time>
      </trkpt>
      <trkpt lat="41.846889" lon="-8.866486">
        <ele>12.649</ele>
        <time>2019-04-29T11:39:38Z</time>
      </trkpt>
      <trkpt lat="41.847206" lon="-8.866432">
        <ele>14.093</ele>
        <time>2019-04-29T11:39:49Z</time>
      </trkpt>
      <trkpt lat="41.847249" lon="-8.866416">
        <ele>14.036</ele>
        <time>2019-04-29T11:39:51Z</time>
      </trkpt>
      <trkpt lat="41.847268" lon="-8.866425">
        <ele>13.617</ele>
        <time>2019-04-29T11:39:52Z</time>
      </trkpt>
      <trkpt lat="41.847285" lon="-8.866426">
        <ele>13.618</ele>
        <time>2019-04-29T11:39:53Z</time>
      </trkpt>
      <trkpt lat="41.847578" lon="-8.866268">
        <ele>12.608</ele>
        <time>2019-04-29T11:40:04Z</time>
      </trkpt>
      <trkpt lat="41.847999" lon="-8.866158">
        <ele>13.126</ele>
        <time>2019-04-29T11:40:18Z</time>
      </trkpt>
      <trkpt lat="41.848401" lon="-8.866142">
        <ele>14.079</ele>
        <time>2019-04-29T11:40:31Z</time>
      </trkpt>
      <trkpt lat="41.848669" lon="-8.866134">
        <ele>14.515</ele>
        <time>2019-04-29T11:40:42Z</time>
      </trkpt>
      <trkpt lat="41.849117" lon="-8.866159">
        <ele>15.033</ele>
        <time>2019-04-29T11:40:56Z</time>
      </trkpt>
      <trkpt lat="41.849421" lon="-8.866151">
        <ele>14.061</ele>
        <time>2019-04-29T11:41:09Z</time>
      </trkpt>
      <trkpt lat="41.849609" lon="-8.866167">
        <ele>13.673</ele>
        <time>2019-04-29T11:41:20Z</time>
      </trkpt>
      <trkpt lat="41.849808" lon="-8.866175">
        <ele>13.653</ele>
        <time>2019-04-29T11:41:31Z</time>
      </trkpt>
      <trkpt lat="41.849826" lon="-8.866162">
        <ele>13.667</ele>
        <time>2019-04-29T11:41:32Z</time>
      </trkpt>
      <trkpt lat="41.849837" lon="-8.866141">
        <ele>13.636</ele>
        <time>2019-04-29T11:41:33Z</time>
      </trkpt>
      <trkpt lat="41.849839" lon="-8.866116">
        <ele>13.617</ele>
        <time>2019-04-29T11:41:34Z</time>
      </trkpt>
      <trkpt lat="41.849838" lon="-8.866088">
        <ele>13.618</ele>
        <time>2019-04-29T11:41:35Z</time>
      </trkpt>
      <trkpt lat="41.849842" lon="-8.866057">
        <ele>13.608</ele>
        <time>2019-04-29T11:41:36Z</time>
      </trkpt>
      <trkpt lat="41.849844" lon="-8.866032">
        <ele>13.156</ele>
        <time>2019-04-29T11:41:37Z</time>
      </trkpt>
      <trkpt lat="41.849845" lon="-8.866009">
        <ele>13.689</ele>
        <time>2019-04-29T11:41:38Z</time>
      </trkpt>
      <trkpt lat="41.849844" lon="-8.865987">
        <ele>13.635</ele>
        <time>2019-04-29T11:41:39Z</time>
      </trkpt>
      <trkpt lat="41.849848" lon="-8.865962">
        <ele>13.633</ele>
        <time>2019-04-29T11:41:40Z</time>
      </trkpt>
      <trkpt lat="41.849857" lon="-8.865814">
        <ele>13.691</ele>
        <time>2019-04-29T11:41:46Z</time>
      </trkpt>
      <trkpt lat="41.849872" lon="-8.865799">
        <ele>14.043</ele>
        <time>2019-04-29T11:41:47Z</time>
      </trkpt>
      <trkpt lat="41.850184" lon="-8.865807">
        <ele>13.623</ele>
        <time>2019-04-29T11:41:58Z</time>
      </trkpt>
      <trkpt lat="41.850623" lon="-8.865681">
        <ele>12.147</ele>
        <time>2019-04-29T11:42:10Z</time>
      </trkpt>
      <trkpt lat="41.850826" lon="-8.865654">
        <ele>12.123</ele>
        <time>2019-04-29T11:42:15Z</time>
      </trkpt>
      <trkpt lat="41.851036" lon="-8.865663">
        <ele>11.683</ele>
        <time>2019-04-29T11:42:20Z</time>
      </trkpt>
      <trkpt lat="41.851075" lon="-8.865670">
        <ele>11.611</ele>
        <time>2019-04-29T11:42:21Z</time>
      </trkpt>
      <trkpt lat="41.851713" lon="-8.865809">
        <ele>14.008</ele>
        <time>2019-04-29T11:42:38Z</time>
      </trkpt>
      <trkpt lat="41.852125" lon="-8.865817">
        <ele>12.195</ele>
        <time>2019-04-29T11:42:49Z</time>
      </trkpt>
      <trkpt lat="41.852697" lon="-8.865670">
        <ele>10.758</ele>
        <time>2019-04-29T11:43:04Z</time>
      </trkpt>
      <trkpt lat="41.852876" lon="-8.865600">
        <ele>9.754</ele>
        <time>2019-04-29T11:43:08Z</time>
      </trkpt>
      <trkpt lat="41.852920" lon="-8.865562">
        <ele>9.212</ele>
        <time>2019-04-29T11:43:09Z</time>
      </trkpt>
      <trkpt lat="41.852955" lon="-8.865510">
        <ele>9.280</ele>
        <time>2019-04-29T11:43:10Z</time>
      </trkpt>
      <trkpt lat="41.852968" lon="-8.865446">
        <ele>9.222</ele>
        <time>2019-04-29T11:43:11Z</time>
      </trkpt>
      <trkpt lat="41.852960" lon="-8.865383">
        <ele>8.732</ele>
        <time>2019-04-29T11:43:12Z</time>
      </trkpt>
      <trkpt lat="41.852951" lon="-8.865331">
        <ele>8.746</ele>
        <time>2019-04-29T11:43:13Z</time>
      </trkpt>
      <trkpt lat="41.852942" lon="-8.865288">
        <ele>9.225</ele>
        <time>2019-04-29T11:43:14Z</time>
      </trkpt>
      <trkpt lat="41.852931" lon="-8.865250">
        <ele>9.226</ele>
        <time>2019-04-29T11:43:15Z</time>
      </trkpt>
      <trkpt lat="41.852918" lon="-8.865212">
        <ele>9.208</ele>
        <time>2019-04-29T11:43:16Z</time>
      </trkpt>
      <trkpt lat="41.852901" lon="-8.865174">
        <ele>9.208</ele>
        <time>2019-04-29T11:43:17Z</time>
      </trkpt>
      <trkpt lat="41.852886" lon="-8.865136">
        <ele>9.735</ele>
        <time>2019-04-29T11:43:18Z</time>
      </trkpt>
      <trkpt lat="41.852872" lon="-8.865096">
        <ele>9.738</ele>
        <time>2019-04-29T11:43:19Z</time>
      </trkpt>
      <trkpt lat="41.852746" lon="-8.864811">
        <ele>8.314</ele>
        <time>2019-04-29T11:43:30Z</time>
      </trkpt>
      <trkpt lat="41.852603" lon="-8.864470">
        <ele>5.932</ele>
        <time>2019-04-29T11:43:39Z</time>
      </trkpt>
      <trkpt lat="41.852613" lon="-8.864233">
        <ele>5.460</ele>
        <time>2019-04-29T11:43:47Z</time>
      </trkpt>
      <trkpt lat="41.852822" lon="-8.864098">
        <ele>5.922</ele>
        <time>2019-04-29T11:43:55Z</time>
      </trkpt>
      <trkpt lat="41.852980" lon="-8.864032">
        <ele>4.992</ele>
        <time>2019-04-29T11:43:59Z</time>
      </trkpt>
      <trkpt lat="41.853018" lon="-8.864016">
        <ele>4.966</ele>
        <time>2019-04-29T11:44:00Z</time>
      </trkpt>
      <trkpt lat="41.853056" lon="-8.863998">
        <ele>4.417</ele>
        <time>2019-04-29T11:44:01Z</time>
      </trkpt>
      <trkpt lat="41.853091" lon="-8.863976">
        <ele>3.987</ele>
        <time>2019-04-29T11:44:02Z</time>
      </trkpt>
      <trkpt lat="41.853124" lon="-8.863956">
        <ele>3.515</ele>
        <time>2019-04-29T11:44:03Z</time>
      </trkpt>
      <trkpt lat="41.853159" lon="-8.863940">
        <ele>3.008</ele>
        <time>2019-04-29T11:44:04Z</time>
      </trkpt>
      <trkpt lat="41.853195" lon="-8.863927">
        <ele>2.564</ele>
        <time>2019-04-29T11:44:05Z</time>
      </trkpt>
      <trkpt lat="41.853231" lon="-8.863913">
        <ele>2.017</ele>
        <time>2019-04-29T11:44:06Z</time>
      </trkpt>
      <trkpt lat="41.853267" lon="-8.863900">
        <ele>1.583</ele>
        <time>2019-04-29T11:44:07Z</time>
      </trkpt>
      <trkpt lat="41.853304" lon="-8.863891">
        <ele>1.541</ele>
        <time>2019-04-29T11:44:08Z</time>
      </trkpt>
      <trkpt lat="41.853416" lon="-8.863877">
        <ele>1.169</ele>
        <time>2019-04-29T11:44:11Z</time>
      </trkpt>
      <trkpt lat="41.853545" lon="-8.863839">
        <ele>1.131</ele>
        <time>2019-04-29T11:44:14Z</time>
      </trkpt>
      <trkpt lat="41.853594" lon="-8.863827">
        <ele>1.581</ele>
        <time>2019-04-29T11:44:15Z</time>
      </trkpt>
      <trkpt lat="41.853779" lon="-8.863746">
        <ele>2.555</ele>
        <time>2019-04-29T11:44:19Z</time>
      </trkpt>
      <trkpt lat="41.853864" lon="-8.863707">
        <ele>3.012</ele>
        <time>2019-04-29T11:44:21Z</time>
      </trkpt>
      <trkpt lat="41.853898" lon="-8.863683">
        <ele>3.532</ele>
        <time>2019-04-29T11:44:22Z</time>
      </trkpt>
      <trkpt lat="41.853929" lon="-8.863660">
        <ele>3.905</ele>
        <time>2019-04-29T11:44:23Z</time>
      </trkpt>
      <trkpt lat="41.853967" lon="-8.863635">
        <ele>4.908</ele>
        <time>2019-04-29T11:44:24Z</time>
      </trkpt>
      <trkpt lat="41.854005" lon="-8.863607">
        <ele>5.974</ele>
        <time>2019-04-29T11:44:25Z</time>
      </trkpt>
      <trkpt lat="41.854037" lon="-8.863576">
        <ele>6.337</ele>
        <time>2019-04-29T11:44:26Z</time>
      </trkpt>
      <trkpt lat="41.854068" lon="-8.863547">
        <ele>6.843</ele>
        <time>2019-04-29T11:44:27Z</time>
      </trkpt>
      <trkpt lat="41.854099" lon="-8.863523">
        <ele>7.341</ele>
        <time>2019-04-29T11:44:28Z</time>
      </trkpt>
      <trkpt lat="41.854133" lon="-8.863502">
        <ele>8.399</ele>
        <time>2019-04-29T11:44:29Z</time>
      </trkpt>
      <trkpt lat="41.854172" lon="-8.863484">
        <ele>8.791</ele>
        <time>2019-04-29T11:44:30Z</time>
      </trkpt>
      <trkpt lat="41.854317" lon="-8.863440">
        <ele>10.241</ele>
        <time>2019-04-29T11:44:33Z</time>
      </trkpt>
      <trkpt lat="41.854371" lon="-8.863433">
        <ele>11.165</ele>
        <time>2019-04-29T11:44:34Z</time>
      </trkpt>
      <trkpt lat="41.854413" lon="-8.863415">
        <ele>11.627</ele>
        <time>2019-04-29T11:44:35Z</time>
      </trkpt>
      <trkpt lat="41.854455" lon="-8.863390">
        <ele>11.668</ele>
        <time>2019-04-29T11:44:36Z</time>
      </trkpt>
      <trkpt lat="41.854496" lon="-8.863361">
        <ele>12.114</ele>
        <time>2019-04-29T11:44:37Z</time>
      </trkpt>
      <trkpt lat="41.854538" lon="-8.863332">
        <ele>12.608</ele>
        <time>2019-04-29T11:44:38Z</time>
      </trkpt>
      <trkpt lat="41.855038" lon="-8.863078">
        <ele>16.485</ele>
        <time>2019-04-29T11:44:50Z</time>
      </trkpt>
      <trkpt lat="41.855104" lon="-8.863023">
        <ele>17.438</ele>
        <time>2019-04-29T11:44:52Z</time>
      </trkpt>
      <trkpt lat="41.855149" lon="-8.863005">
        <ele>17.494</ele>
        <time>2019-04-29T11:44:53Z</time>
      </trkpt>
      <trkpt lat="41.855194" lon="-8.862993">
        <ele>17.462</ele>
        <time>2019-04-29T11:44:54Z</time>
      </trkpt>
      <trkpt lat="41.855245" lon="-8.862982">
        <ele>17.920</ele>
        <time>2019-04-29T11:44:55Z</time>
      </trkpt>
      <trkpt lat="41.855277" lon="-8.862958">
        <ele>17.942</ele>
        <time>2019-04-29T11:44:56Z</time>
      </trkpt>
      <trkpt lat="41.855340" lon="-8.862932">
        <ele>19.892</ele>
        <time>2019-04-29T11:45:03Z</time>
      </trkpt>
      <trkpt lat="41.855351" lon="-8.862956">
        <ele>19.316</ele>
        <time>2019-04-29T11:45:35Z</time>
      </trkpt>
      <trkpt lat="41.855403" lon="-8.863010">
        <ele>20.899</ele>
        <time>2019-04-29T11:45:58Z</time>
      </trkpt>
      <trkpt lat="41.855425" lon="-8.863007">
        <ele>20.307</ele>
        <time>2019-04-29T11:46:16Z</time>
      </trkpt>
      <trkpt lat="41.855440" lon="-8.863005">
        <ele>20.327</ele>
        <time>2019-04-29T11:46:17Z</time>
      </trkpt>
      <trkpt lat="41.855460" lon="-8.863000">
        <ele>19.808</ele>
        <time>2019-04-29T11:46:18Z</time>
      </trkpt>
      <trkpt lat="41.855483" lon="-8.862992">
        <ele>19.322</ele>
        <time>2019-04-29T11:46:19Z</time>
      </trkpt>
      <trkpt lat="41.855502" lon="-8.862984">
        <ele>18.845</ele>
        <time>2019-04-29T11:46:20Z</time>
      </trkpt>
      <trkpt lat="41.855524" lon="-8.862968">
        <ele>18.451</ele>
        <time>2019-04-29T11:46:21Z</time>
      </trkpt>
      <trkpt lat="41.855614" lon="-8.862898">
        <ele>17.429</ele>
        <time>2019-04-29T11:46:24Z</time>
      </trkpt>
      <trkpt lat="41.855647" lon="-8.862887">
        <ele>17.457</ele>
        <time>2019-04-29T11:46:25Z</time>
      </trkpt>
      <trkpt lat="41.855684" lon="-8.862868">
        <ele>17.469</ele>
        <time>2019-04-29T11:46:26Z</time>
      </trkpt>
      <trkpt lat="41.855805" lon="-8.862805">
        <ele>17.429</ele>
        <time>2019-04-29T11:46:29Z</time>
      </trkpt>
      <trkpt lat="41.855847" lon="-8.862789">
        <ele>17.953</ele>
        <time>2019-04-29T11:46:30Z</time>
      </trkpt>
      <trkpt lat="41.855892" lon="-8.862772">
        <ele>18.492</ele>
        <time>2019-04-29T11:46:31Z</time>
      </trkpt>
      <trkpt lat="41.856164" lon="-8.862635">
        <ele>21.773</ele>
        <time>2019-04-29T11:46:38Z</time>
      </trkpt>
      <trkpt lat="41.856207" lon="-8.862618">
        <ele>22.220</ele>
        <time>2019-04-29T11:46:39Z</time>
      </trkpt>
      <trkpt lat="41.856520" lon="-8.862477">
        <ele>25.608</ele>
        <time>2019-04-29T11:46:47Z</time>
      </trkpt>
      <trkpt lat="41.856914" lon="-8.862281">
        <ele>28.522</ele>
        <time>2019-04-29T11:46:57Z</time>
      </trkpt>
      <trkpt lat="41.856952" lon="-8.862260">
        <ele>28.965</ele>
        <time>2019-04-29T11:46:58Z</time>
      </trkpt>
      <trkpt lat="41.856997" lon="-8.862237">
        <ele>29.441</ele>
        <time>2019-04-29T11:46:59Z</time>
      </trkpt>
      <trkpt lat="41.857322" lon="-8.862079">
        <ele>33.769</ele>
        <time>2019-04-29T11:47:07Z</time>
      </trkpt>
      <trkpt lat="41.857375" lon="-8.862067">
        <ele>33.327</ele>
        <time>2019-04-29T11:47:08Z</time>
      </trkpt>
      <trkpt lat="41.857431" lon="-8.862053">
        <ele>32.819</ele>
        <time>2019-04-29T11:47:09Z</time>
      </trkpt>
      <trkpt lat="41.857480" lon="-8.862035">
        <ele>33.359</ele>
        <time>2019-04-29T11:47:10Z</time>
      </trkpt>
      <trkpt lat="41.857535" lon="-8.862013">
        <ele>33.723</ele>
        <time>2019-04-29T11:47:11Z</time>
      </trkpt>
      <trkpt lat="41.857999" lon="-8.861859">
        <ele>36.685</ele>
        <time>2019-04-29T11:47:18Z</time>
      </trkpt>
      <trkpt lat="41.858125" lon="-8.861778">
        <ele>37.689</ele>
        <time>2019-04-29T11:47:20Z</time>
      </trkpt>
      <trkpt lat="41.858232" lon="-8.861701">
        <ele>38.517</ele>
        <time>2019-04-29T11:47:22Z</time>
      </trkpt>
      <trkpt lat="41.858286" lon="-8.861676">
        <ele>39.508</ele>
        <time>2019-04-29T11:47:23Z</time>
      </trkpt>
      <trkpt lat="41.858376" lon="-8.861638">
        <ele>40.941</ele>
        <time>2019-04-29T11:47:25Z</time>
      </trkpt>
      <trkpt lat="41.858636" lon="-8.861521">
        <ele>41.414</ele>
        <time>2019-04-29T11:47:32Z</time>
      </trkpt>
      <trkpt lat="41.858808" lon="-8.861465">
        <ele>40.950</ele>
        <time>2019-04-29T11:47:35Z</time>
      </trkpt>
      <trkpt lat="41.859313" lon="-8.861278">
        <ele>39.518</ele>
        <time>2019-04-29T11:47:43Z</time>
      </trkpt>
      <trkpt lat="41.859355" lon="-8.861247">
        <ele>38.556</ele>
        <time>2019-04-29T11:47:44Z</time>
      </trkpt>
      <trkpt lat="41.859402" lon="-8.861217">
        <ele>38.198</ele>
        <time>2019-04-29T11:47:45Z</time>
      </trkpt>
      <trkpt lat="41.859454" lon="-8.861192">
        <ele>37.158</ele>
        <time>2019-04-29T11:47:46Z</time>
      </trkpt>
      <trkpt lat="41.859510" lon="-8.861176">
        <ele>36.612</ele>
        <time>2019-04-29T11:47:47Z</time>
      </trkpt>
      <trkpt lat="41.859570" lon="-8.861160">
        <ele>36.663</ele>
        <time>2019-04-29T11:47:48Z</time>
      </trkpt>
      <trkpt lat="41.859630" lon="-8.861139">
        <ele>36.144</ele>
        <time>2019-04-29T11:47:49Z</time>
      </trkpt>
      <trkpt lat="41.860193" lon="-8.860836">
        <ele>34.218</ele>
        <time>2019-04-29T11:48:00Z</time>
      </trkpt>
      <trkpt lat="41.860343" lon="-8.860771">
        <ele>34.208</ele>
        <time>2019-04-29T11:48:03Z</time>
      </trkpt>
      <trkpt lat="41.860385" lon="-8.860750">
        <ele>33.739</ele>
        <time>2019-04-29T11:48:04Z</time>
      </trkpt>
      <trkpt lat="41.860424" lon="-8.860730">
        <ele>33.342</ele>
        <time>2019-04-29T11:48:05Z</time>
      </trkpt>
      <trkpt lat="41.860458" lon="-8.860712">
        <ele>32.818</ele>
        <time>2019-04-29T11:48:06Z</time>
      </trkpt>
      <trkpt lat="41.860488" lon="-8.860694">
        <ele>32.326</ele>
        <time>2019-04-29T11:48:07Z</time>
      </trkpt>
      <trkpt lat="41.860624" lon="-8.860640">
        <ele>32.364</ele>
        <time>2019-04-29T11:48:11Z</time>
      </trkpt>
      <trkpt lat="41.860674" lon="-8.860619">
        <ele>32.376</ele>
        <time>2019-04-29T11:48:12Z</time>
      </trkpt>
      <trkpt lat="41.860725" lon="-8.860599">
        <ele>32.386</ele>
        <time>2019-04-29T11:48:13Z</time>
      </trkpt>
      <trkpt lat="41.861151" lon="-8.860371">
        <ele>31.870</ele>
        <time>2019-04-29T11:48:23Z</time>
      </trkpt>
      <trkpt lat="41.861352" lon="-8.860277">
        <ele>32.813</ele>
        <time>2019-04-29T11:48:28Z</time>
      </trkpt>
      <trkpt lat="41.861395" lon="-8.860254">
        <ele>32.843</ele>
        <time>2019-04-29T11:48:29Z</time>
      </trkpt>
      <trkpt lat="41.861445" lon="-8.860239">
        <ele>32.807</ele>
        <time>2019-04-29T11:48:30Z</time>
      </trkpt>
      <trkpt lat="41.861496" lon="-8.860220">
        <ele>32.808</ele>
        <time>2019-04-29T11:48:31Z</time>
      </trkpt>
      <trkpt lat="41.861557" lon="-8.860198">
        <ele>33.334</ele>
        <time>2019-04-29T11:48:32Z</time>
      </trkpt>
      <trkpt lat="41.861807" lon="-8.860112">
        <ele>32.337</ele>
        <time>2019-04-29T11:48:36Z</time>
      </trkpt>
      <trkpt lat="41.861864" lon="-8.860096">
        <ele>31.833</ele>
        <time>2019-04-29T11:48:37Z</time>
      </trkpt>
      <trkpt lat="41.862021" lon="-8.860042">
        <ele>30.991</ele>
        <time>2019-04-29T11:48:40Z</time>
      </trkpt>
      <trkpt lat="41.862632" lon="-8.859798">
        <ele>31.849</ele>
        <time>2019-04-29T11:48:52Z</time>
      </trkpt>
      <trkpt lat="41.862838" lon="-8.859694">
        <ele>32.381</ele>
        <time>2019-04-29T11:48:57Z</time>
      </trkpt>
      <trkpt lat="41.862984" lon="-8.859641">
        <ele>32.861</ele>
        <time>2019-04-29T11:49:00Z</time>
      </trkpt>
      <trkpt lat="41.863066" lon="-8.859597">
        <ele>32.315</ele>
        <time>2019-04-29T11:49:02Z</time>
      </trkpt>
      <trkpt lat="41.863118" lon="-8.859585">
        <ele>32.322</ele>
        <time>2019-04-29T11:49:03Z</time>
      </trkpt>
      <trkpt lat="41.863172" lon="-8.859573">
        <ele>32.362</ele>
        <time>2019-04-29T11:49:04Z</time>
      </trkpt>
      <trkpt lat="41.863221" lon="-8.859553">
        <ele>31.808</ele>
        <time>2019-04-29T11:49:05Z</time>
      </trkpt>
      <trkpt lat="41.863266" lon="-8.859530">
        <ele>31.808</ele>
        <time>2019-04-29T11:49:06Z</time>
      </trkpt>
      <trkpt lat="41.863834" lon="-8.859206">
        <ele>31.365</ele>
        <time>2019-04-29T11:49:18Z</time>
      </trkpt>
      <trkpt lat="41.863898" lon="-8.859177">
        <ele>30.928</ele>
        <time>2019-04-29T11:49:19Z</time>
      </trkpt>
      <trkpt lat="41.863952" lon="-8.859147">
        <ele>30.974</ele>
        <time>2019-04-29T11:49:20Z</time>
      </trkpt>
      <trkpt lat="41.864362" lon="-8.858925">
        <ele>27.562</ele>
        <time>2019-04-29T11:49:27Z</time>
      </trkpt>
      <trkpt lat="41.864424" lon="-8.858895">
        <ele>28.080</ele>
        <time>2019-04-29T11:49:28Z</time>
      </trkpt>
      <trkpt lat="41.865090" lon="-8.858566">
        <ele>26.072</ele>
        <time>2019-04-29T11:49:40Z</time>
      </trkpt>
      <trkpt lat="41.865383" lon="-8.858431">
        <ele>24.692</ele>
        <time>2019-04-29T11:49:46Z</time>
      </trkpt>
      <trkpt lat="41.865468" lon="-8.858375">
        <ele>24.176</ele>
        <time>2019-04-29T11:49:48Z</time>
      </trkpt>
      <trkpt lat="41.865514" lon="-8.858357">
        <ele>23.677</ele>
        <time>2019-04-29T11:49:49Z</time>
      </trkpt>
      <trkpt lat="41.865560" lon="-8.858345">
        <ele>23.261</ele>
        <time>2019-04-29T11:49:50Z</time>
      </trkpt>
      <trkpt lat="41.865605" lon="-8.858337">
        <ele>22.727</ele>
        <time>2019-04-29T11:49:51Z</time>
      </trkpt>
      <trkpt lat="41.865651" lon="-8.858327">
        <ele>22.708</ele>
        <time>2019-04-29T11:49:52Z</time>
      </trkpt>
      <trkpt lat="41.865820" lon="-8.858272">
        <ele>21.270</ele>
        <time>2019-04-29T11:49:56Z</time>
      </trkpt>
      <trkpt lat="41.866313" lon="-8.858078">
        <ele>17.453</ele>
        <time>2019-04-29T11:50:07Z</time>
      </trkpt>
      <trkpt lat="41.866362" lon="-8.858063">
        <ele>17.449</ele>
        <time>2019-04-29T11:50:08Z</time>
      </trkpt>
      <trkpt lat="41.866396" lon="-8.858038">
        <ele>17.447</ele>
        <time>2019-04-29T11:50:09Z</time>
      </trkpt>
      <trkpt lat="41.866434" lon="-8.858013">
        <ele>17.425</ele>
        <time>2019-04-29T11:50:10Z</time>
      </trkpt>
      <trkpt lat="41.866471" lon="-8.857992">
        <ele>17.427</ele>
        <time>2019-04-29T11:50:11Z</time>
      </trkpt>
      <trkpt lat="41.866513" lon="-8.857976">
        <ele>17.457</ele>
        <time>2019-04-29T11:50:12Z</time>
      </trkpt>
      <trkpt lat="41.866553" lon="-8.857964">
        <ele>17.941</ele>
        <time>2019-04-29T11:50:13Z</time>
      </trkpt>
      <trkpt lat="41.866721" lon="-8.857874">
        <ele>20.372</ele>
        <time>2019-04-29T11:50:19Z</time>
      </trkpt>
      <trkpt lat="41.866755" lon="-8.857832">
        <ele>20.313</ele>
        <time>2019-04-29T11:50:20Z</time>
      </trkpt>
      <trkpt lat="41.866793" lon="-8.857771">
        <ele>19.314</ele>
        <time>2019-04-29T11:50:21Z</time>
      </trkpt>
      <trkpt lat="41.866822" lon="-8.857698">
        <ele>19.308</ele>
        <time>2019-04-29T11:50:22Z</time>
      </trkpt>
      <trkpt lat="41.866837" lon="-8.857625">
        <ele>19.320</ele>
        <time>2019-04-29T11:50:23Z</time>
      </trkpt>
      <trkpt lat="41.866842" lon="-8.857555">
        <ele>18.833</ele>
        <time>2019-04-29T11:50:24Z</time>
      </trkpt>
      <trkpt lat="41.866838" lon="-8.857488">
        <ele>18.419</ele>
        <time>2019-04-29T11:50:25Z</time>
      </trkpt>
      <trkpt lat="41.866821" lon="-8.856820">
        <ele>15.097</ele>
        <time>2019-04-29T11:50:36Z</time>
      </trkpt>
      <trkpt lat="41.866814" lon="-8.856762">
        <ele>15.065</ele>
        <time>2019-04-29T11:50:37Z</time>
      </trkpt>
      <trkpt lat="41.866806" lon="-8.856703">
        <ele>15.047</ele>
        <time>2019-04-29T11:50:38Z</time>
      </trkpt>
      <trkpt lat="41.866788" lon="-8.856519">
        <ele>15.027</ele>
        <time>2019-04-29T11:50:41Z</time>
      </trkpt>
      <trkpt lat="41.866727" lon="-8.855945">
        <ele>15.511</ele>
        <time>2019-04-29T11:50:50Z</time>
      </trkpt>
      <trkpt lat="41.866715" lon="-8.855894">
        <ele>15.044</ele>
        <time>2019-04-29T11:50:51Z</time>
      </trkpt>
      <trkpt lat="41.866710" lon="-8.855856">
        <ele>14.505</ele>
        <time>2019-04-29T11:50:52Z</time>
      </trkpt>
      <trkpt lat="41.866705" lon="-8.855775">
        <ele>12.115</ele>
        <time>2019-04-29T11:51:03Z</time>
      </trkpt>
      <trkpt lat="41.866696" lon="-8.855765">
        <ele>9.708</ele>
        <time>2019-04-29T11:51:24Z</time>
      </trkpt>
      <trkpt lat="41.866696" lon="-8.855760">
        <ele>9.247</ele>
        <time>2019-04-29T11:51:38Z</time>
      </trkpt>
      <trkpt lat="41.866681" lon="-8.855632">
        <ele>8.390</ele>
        <time>2019-04-29T11:51:51Z</time>
      </trkpt>
      <trkpt lat="41.866640" lon="-8.855295">
        <ele>8.376</ele>
        <time>2019-04-29T11:51:57Z</time>
      </trkpt>
      <trkpt lat="41.866474" lon="-8.854615">
        <ele>8.714</ele>
        <time>2019-04-29T11:52:10Z</time>
      </trkpt>
      <trkpt lat="41.866353" lon="-8.854242">
        <ele>9.742</ele>
        <time>2019-04-29T11:52:22Z</time>
      </trkpt>
      <trkpt lat="41.866278" lon="-8.854000">
        <ele>11.684</ele>
        <time>2019-04-29T11:52:35Z</time>
      </trkpt>
      <trkpt lat="41.866135" lon="-8.853636">
        <ele>10.734</ele>
        <time>2019-04-29T11:52:45Z</time>
      </trkpt>
      <trkpt lat="41.866063" lon="-8.853235">
        <ele>12.158</ele>
        <time>2019-04-29T11:52:55Z</time>
      </trkpt>
      <trkpt lat="41.865997" lon="-8.852535">
        <ele>16.015</ele>
        <time>2019-04-29T11:53:06Z</time>
      </trkpt>
      <trkpt lat="41.865968" lon="-8.852310">
        <ele>18.465</ele>
        <time>2019-04-29T11:53:10Z</time>
      </trkpt>
      <trkpt lat="41.865959" lon="-8.852252">
        <ele>18.811</ele>
        <time>2019-04-29T11:53:11Z</time>
      </trkpt>
      <trkpt lat="41.865955" lon="-8.852192">
        <ele>19.308</ele>
        <time>2019-04-29T11:53:12Z</time>
      </trkpt>
      <trkpt lat="41.865947" lon="-8.852021">
        <ele>20.884</ele>
        <time>2019-04-29T11:53:15Z</time>
      </trkpt>
      <trkpt lat="41.865940" lon="-8.851777">
        <ele>22.257</ele>
        <time>2019-04-29T11:53:19Z</time>
      </trkpt>
      <trkpt lat="41.865946" lon="-8.851709">
        <ele>22.213</ele>
        <time>2019-04-29T11:53:20Z</time>
      </trkpt>
      <trkpt lat="41.865959" lon="-8.851327">
        <ele>23.621</ele>
        <time>2019-04-29T11:53:26Z</time>
      </trkpt>
      <trkpt lat="41.865989" lon="-8.851067">
        <ele>23.239</ele>
        <time>2019-04-29T11:53:30Z</time>
      </trkpt>
      <trkpt lat="41.865986" lon="-8.851007">
        <ele>23.221</ele>
        <time>2019-04-29T11:53:31Z</time>
      </trkpt>
      <trkpt lat="41.865974" lon="-8.850942">
        <ele>22.731</ele>
        <time>2019-04-29T11:53:32Z</time>
      </trkpt>
      <trkpt lat="41.865923" lon="-8.850606">
        <ele>22.755</ele>
        <time>2019-04-29T11:53:37Z</time>
      </trkpt>
      <trkpt lat="41.865907" lon="-8.850539">
        <ele>22.249</ele>
        <time>2019-04-29T11:53:38Z</time>
      </trkpt>
      <trkpt lat="41.865740" lon="-8.849904">
        <ele>16.402</ele>
        <time>2019-04-29T11:53:48Z</time>
      </trkpt>
      <trkpt lat="41.865714" lon="-8.849852">
        <ele>16.422</ele>
        <time>2019-04-29T11:53:49Z</time>
      </trkpt>
      <trkpt lat="41.865685" lon="-8.849803">
        <ele>16.008</ele>
        <time>2019-04-29T11:53:50Z</time>
      </trkpt>
      <trkpt lat="41.865654" lon="-8.849758">
        <ele>16.017</ele>
        <time>2019-04-29T11:53:51Z</time>
      </trkpt>
      <trkpt lat="41.865626" lon="-8.849715">
        <ele>15.530</ele>
        <time>2019-04-29T11:53:52Z</time>
      </trkpt>
      <trkpt lat="41.865598" lon="-8.849671">
        <ele>15.566</ele>
        <time>2019-04-29T11:53:53Z</time>
      </trkpt>
      <trkpt lat="41.865480" lon="-8.849429">
        <ele>13.654</ele>
        <time>2019-04-29T11:54:00Z</time>
      </trkpt>
      <trkpt lat="41.865489" lon="-8.849404">
        <ele>13.122</ele>
        <time>2019-04-29T11:54:01Z</time>
      </trkpt>
      <trkpt lat="41.865504" lon="-8.849382">
        <ele>13.144</ele>
        <time>2019-04-29T11:54:02Z</time>
      </trkpt>
      <trkpt lat="41.865673" lon="-8.848966">
        <ele>11.154</ele>
        <time>2019-04-29T11:54:13Z</time>
      </trkpt>
      <trkpt lat="41.865916" lon="-8.848563">
        <ele>11.178</ele>
        <time>2019-04-29T11:54:28Z</time>
      </trkpt>
      <trkpt lat="41.866095" lon="-8.848399">
        <ele>11.688</ele>
        <time>2019-04-29T11:54:40Z</time>
      </trkpt>
      <trkpt lat="41.866106" lon="-8.848407">
        <ele>11.124</ele>
        <time>2019-04-29T11:54:50Z</time>
      </trkpt>
      <trkpt lat="41.866108" lon="-8.848400">
        <ele>11.126</ele>
        <time>2019-04-29T11:54:53Z</time>
      </trkpt>
      <trkpt lat="41.866113" lon="-8.848400">
        <ele>11.108</ele>
        <time>2019-04-29T11:55:07Z</time>
      </trkpt>
      <trkpt lat="41.866119" lon="-8.848380">
        <ele>10.761</ele>
        <time>2019-04-29T11:55:25Z</time>
      </trkpt>
      <trkpt lat="41.866125" lon="-8.848356">
        <ele>10.734</ele>
        <time>2019-04-29T11:55:26Z</time>
      </trkpt>
      <trkpt lat="41.866349" lon="-8.848058">
        <ele>9.710</ele>
        <time>2019-04-29T11:55:37Z</time>
      </trkpt>
      <trkpt lat="41.867036" lon="-8.847404">
        <ele>8.328</ele>
        <time>2019-04-29T11:55:57Z</time>
      </trkpt>
      <trkpt lat="41.867107" lon="-8.847328">
        <ele>8.356</ele>
        <time>2019-04-29T11:55:59Z</time>
      </trkpt>
      <trkpt lat="41.867702" lon="-8.846741">
        <ele>7.818</ele>
        <time>2019-04-29T11:56:16Z</time>
      </trkpt>
      <trkpt lat="41.868364" lon="-8.846137">
        <ele>7.828</ele>
        <time>2019-04-29T11:56:33Z</time>
      </trkpt>
      <trkpt lat="41.869200" lon="-8.845421">
        <ele>6.872</ele>
        <time>2019-04-29T11:56:54Z</time>
      </trkpt>
      <trkpt lat="41.870038" lon="-8.844768">
        <ele>7.397</ele>
        <time>2019-04-29T11:57:11Z</time>
      </trkpt>
      <trkpt lat="41.870767" lon="-8.844225">
        <ele>8.323</ele>
        <time>2019-04-29T11:57:26Z</time>
      </trkpt>
      <trkpt lat="41.871596" lon="-8.843620">
        <ele>6.325</ele>
        <time>2019-04-29T11:57:45Z</time>
      </trkpt>
      <trkpt lat="41.872375" lon="-8.843030">
        <ele>5.908</ele>
        <time>2019-04-29T11:58:03Z</time>
      </trkpt>
      <trkpt lat="41.873333" lon="-8.842332">
        <ele>5.952</ele>
        <time>2019-04-29T11:58:23Z</time>
      </trkpt>
      <trkpt lat="41.874448" lon="-8.841620">
        <ele>5.475</ele>
        <time>2019-04-29T11:58:43Z</time>
      </trkpt>
      <trkpt lat="41.875451" lon="-8.841067">
        <ele>6.311</ele>
        <time>2019-04-29T11:58:59Z</time>
      </trkpt>
      <trkpt lat="41.876643" lon="-8.840507">
        <ele>6.869</ele>
        <time>2019-04-29T11:59:19Z</time>
      </trkpt>
      <trkpt lat="41.877434" lon="-8.840183">
        <ele>7.397</ele>
        <time>2019-04-29T11:59:34Z</time>
      </trkpt>
      <trkpt lat="41.878402" lon="-8.839859">
        <ele>7.319</ele>
        <time>2019-04-29T11:59:52Z</time>
      </trkpt>
      <trkpt lat="41.878508" lon="-8.839814">
        <ele>7.339</ele>
        <time>2019-04-29T11:59:54Z</time>
      </trkpt>
      <trkpt lat="41.878557" lon="-8.839785">
        <ele>7.313</ele>
        <time>2019-04-29T11:59:55Z</time>
      </trkpt>
      <trkpt lat="41.878962" lon="-8.839344">
        <ele>7.377</ele>
        <time>2019-04-29T12:00:05Z</time>
      </trkpt>
      <trkpt lat="41.878989" lon="-8.839289">
        <ele>7.361</ele>
        <time>2019-04-29T12:00:06Z</time>
      </trkpt>
      <trkpt lat="41.879017" lon="-8.839234">
        <ele>6.827</ele>
        <time>2019-04-29T12:00:07Z</time>
      </trkpt>
      <trkpt lat="41.879221" lon="-8.838469">
        <ele>7.808</ele>
        <time>2019-04-29T12:00:21Z</time>
      </trkpt>
      <trkpt lat="41.879222" lon="-8.838193">
        <ele>8.330</ele>
        <time>2019-04-29T12:00:26Z</time>
      </trkpt>
      <trkpt lat="41.879193" lon="-8.837970">
        <ele>7.853</ele>
        <time>2019-04-29T12:00:30Z</time>
      </trkpt>
      <trkpt lat="41.878944" lon="-8.837309">
        <ele>6.339</ele>
        <time>2019-04-29T12:00:44Z</time>
      </trkpt>
      <trkpt lat="41.878801" lon="-8.837116">
        <ele>7.377</ele>
        <time>2019-04-29T12:00:49Z</time>
      </trkpt>
      <trkpt lat="41.878769" lon="-8.837082">
        <ele>7.385</ele>
        <time>2019-04-29T12:00:50Z</time>
      </trkpt>
      <trkpt lat="41.878741" lon="-8.837045">
        <ele>7.357</ele>
        <time>2019-04-29T12:00:51Z</time>
      </trkpt>
      <trkpt lat="41.878667" lon="-8.836900">
        <ele>6.837</ele>
        <time>2019-04-29T12:00:55Z</time>
      </trkpt>
      <trkpt lat="41.878676" lon="-8.836850">
        <ele>6.371</ele>
        <time>2019-04-29T12:00:56Z</time>
      </trkpt>
      <trkpt lat="41.878697" lon="-8.836800">
        <ele>6.347</ele>
        <time>2019-04-29T12:00:57Z</time>
      </trkpt>
      <trkpt lat="41.878723" lon="-8.836760">
        <ele>5.929</ele>
        <time>2019-04-29T12:00:58Z</time>
      </trkpt>
      <trkpt lat="41.878746" lon="-8.836727">
        <ele>5.921</ele>
        <time>2019-04-29T12:00:59Z</time>
      </trkpt>
      <trkpt lat="41.878761" lon="-8.836693">
        <ele>5.908</ele>
        <time>2019-04-29T12:01:00Z</time>
      </trkpt>
      <trkpt lat="41.878769" lon="-8.836660">
        <ele>5.957</ele>
        <time>2019-04-29T12:01:01Z</time>
      </trkpt>
      <trkpt lat="41.878774" lon="-8.836626">
        <ele>5.470</ele>
        <time>2019-04-29T12:01:02Z</time>
      </trkpt>
      <trkpt lat="41.878780" lon="-8.836594">
        <ele>5.446</ele>
        <time>2019-04-29T12:01:03Z</time>
      </trkpt>
      <trkpt lat="41.878795" lon="-8.836577">
        <ele>5.444</ele>
        <time>2019-04-29T12:01:04Z</time>
      </trkpt>
      <trkpt lat="41.878812" lon="-8.836577">
        <ele>5.432</ele>
        <time>2019-04-29T12:01:05Z</time>
      </trkpt>
      <trkpt lat="41.878823" lon="-8.836600">
        <ele>5.474</ele>
        <time>2019-04-29T12:01:06Z</time>
      </trkpt>
      <trkpt lat="41.878825" lon="-8.836629">
        <ele>5.444</ele>
        <time>2019-04-29T12:01:07Z</time>
      </trkpt>
      <trkpt lat="41.878825" lon="-8.836657">
        <ele>5.418</ele>
        <time>2019-04-29T12:01:08Z</time>
      </trkpt>
      <trkpt lat="41.878885" lon="-8.836982">
        <ele>4.419</ele>
        <time>2019-04-29T12:01:20Z</time>
      </trkpt>
      <trkpt lat="41.878938" lon="-8.837013">
        <ele>4.909</ele>
        <time>2019-04-29T12:01:23Z</time>
      </trkpt>
      <trkpt lat="41.878958" lon="-8.837005">
        <ele>4.919</ele>
        <time>2019-04-29T12:01:24Z</time>
      </trkpt>
      <trkpt lat="41.878975" lon="-8.836983">
        <ele>5.408</ele>
        <time>2019-04-29T12:01:25Z</time>
      </trkpt>
      <trkpt lat="41.879074" lon="-8.836781">
        <ele>5.454</ele>
        <time>2019-04-29T12:01:36Z</time>
      </trkpt>
      <trkpt lat="41.879042" lon="-8.836757">
        <ele>4.467</ele>
        <time>2019-04-29T12:01:39Z</time>
      </trkpt>
      <trkpt lat="41.879016" lon="-8.836710">
        <ele>6.323</ele>
        <time>2019-04-29T12:01:51Z</time>
      </trkpt>
      <trkpt lat="41.879020" lon="-8.836710">
        <ele>7.341</ele>
        <time>2019-04-29T12:02:18Z</time>
      </trkpt>
      <trkpt lat="41.879020" lon="-8.836711">
        <ele>8.399</ele>
        <time>2019-04-29T12:02:48Z</time>
      </trkpt>
      <trkpt lat="41.878980" lon="-8.836679">
        <ele>7.331</ele>
        <time>2019-04-29T12:03:05Z</time>
      </trkpt>
      <trkpt lat="41.878966" lon="-8.836673">
        <ele>6.311</ele>
        <time>2019-04-29T12:03:38Z</time>
      </trkpt>
      <trkpt lat="41.878965" lon="-8.836674">
        <ele>5.955</ele>
        <time>2019-04-29T12:03:57Z</time>
      </trkpt>
      <trkpt lat="41.879008" lon="-8.836726">
        <ele>5.928</ele>
        <time>2019-04-29T12:04:13Z</time>
      </trkpt>
      <trkpt lat="41.879011" lon="-8.836742">
        <ele>4.989</ele>
        <time>2019-04-29T12:04:48Z</time>
      </trkpt>
      <trkpt lat="41.879015" lon="-8.836749">
        <ele>4.917</ele>
        <time>2019-04-29T12:05:21Z</time>
      </trkpt>
      <trkpt lat="41.879021" lon="-8.836758">
        <ele>3.908</ele>
        <time>2019-04-29T12:05:45Z</time>
      </trkpt>
      <trkpt lat="41.879023" lon="-8.836754">
        <ele>3.575</ele>
        <time>2019-04-29T12:06:16Z</time>
      </trkpt>
      <trkpt lat="41.879027" lon="-8.836764">
        <ele>1.568</ele>
        <time>2019-04-29T12:06:52Z</time>
      </trkpt>
      <trkpt lat="41.879028" lon="-8.836761">
        <ele>1.524</ele>
        <time>2019-04-29T12:07:20Z</time>
      </trkpt>
      <trkpt lat="41.879027" lon="-8.836772">
        <ele>2.012</ele>
        <time>2019-04-29T12:07:50Z</time>
      </trkpt>
      <trkpt lat="41.879035" lon="-8.836817">
        <ele>2.590</ele>
        <time>2019-04-29T12:08:13Z</time>
      </trkpt>
      <trkpt lat="41.879018" lon="-8.836874">
        <ele>2.552</ele>
        <time>2019-04-29T12:08:22Z</time>
      </trkpt>
      <trkpt lat="41.878971" lon="-8.837044">
        <ele>2.512</ele>
        <time>2019-04-29T12:08:37Z</time>
      </trkpt>
      <trkpt lat="41.878973" lon="-8.837107">
        <ele>3.026</ele>
        <time>2019-04-29T12:08:53Z</time>
      </trkpt>
      <trkpt lat="41.878989" lon="-8.837108">
        <ele>4.965</ele>
        <time>2019-04-29T12:09:26Z</time>
      </trkpt>
      <trkpt lat="41.878980" lon="-8.837151">
        <ele>4.468</ele>
        <time>2019-04-29T12:09:34Z</time>
      </trkpt>
      <trkpt lat="41.879003" lon="-8.837140">
        <ele>4.414</ele>
        <time>2019-04-29T12:09:37Z</time>
      </trkpt>
      <trkpt lat="41.879039" lon="-8.837197">
        <ele>4.908</ele>
        <time>2019-04-29T12:09:49Z</time>
      </trkpt>
      <trkpt lat="41.879048" lon="-8.837200">
        <ele>4.929</ele>
        <time>2019-04-29T12:09:50Z</time>
      </trkpt>
      <trkpt lat="41.879168" lon="-8.837325">
        <ele>4.932</ele>
        <time>2019-04-29T12:10:08Z</time>
      </trkpt>
      <trkpt lat="41.879145" lon="-8.837348">
        <ele>4.968</ele>
        <time>2019-04-29T12:10:21Z</time>
      </trkpt>
      <trkpt lat="41.879130" lon="-8.837346">
        <ele>5.926</ele>
        <time>2019-04-29T12:10:40Z</time>
      </trkpt>
      <trkpt lat="41.879130" lon="-8.837349">
        <ele>6.364</ele>
        <time>2019-04-29T12:11:01Z</time>
      </trkpt>
      <trkpt lat="41.879127" lon="-8.837341">
        <ele>5.996</ele>
        <time>2019-04-29T12:11:22Z</time>
      </trkpt>
      <trkpt lat="41.879124" lon="-8.837346">
        <ele>5.946</ele>
        <time>2019-04-29T12:11:40Z</time>
      </trkpt>
      <trkpt lat="41.879120" lon="-8.837350">
        <ele>5.450</ele>
        <time>2019-04-29T12:12:04Z</time>
      </trkpt>
      <trkpt lat="41.879149" lon="-8.837382">
        <ele>4.983</ele>
        <time>2019-04-29T12:12:27Z</time>
      </trkpt>
      <trkpt lat="41.879290" lon="-8.837514">
        <ele>5.425</ele>
        <time>2019-04-29T12:12:43Z</time>
      </trkpt>
      <trkpt lat="41.879467" lon="-8.837633">
        <ele>4.917</ele>
        <time>2019-04-29T12:12:59Z</time>
      </trkpt>
      <trkpt lat="41.879509" lon="-8.837630">
        <ele>4.908</ele>
        <time>2019-04-29T12:13:05Z</time>
      </trkpt>
      <trkpt lat="41.879546" lon="-8.837770">
        <ele>4.461</ele>
        <time>2019-04-29T12:13:10Z</time>
      </trkpt>
      <trkpt lat="41.879837" lon="-8.838622">
        <ele>3.964</ele>
        <time>2019-04-29T12:13:22Z</time>
      </trkpt>
      <trkpt lat="41.880355" lon="-8.839599">
        <ele>3.530</ele>
        <time>2019-04-29T12:13:32Z</time>
      </trkpt>
      <trkpt lat="41.881408" lon="-8.840998">
        <ele>2.078</ele>
        <time>2019-04-29T12:13:47Z</time>
      </trkpt>
      <trkpt lat="41.882423" lon="-8.842507">
        <ele>2.066</ele>
        <time>2019-04-29T12:14:02Z</time>
      </trkpt>
      <trkpt lat="41.883679" lon="-8.844258">
        <ele>1.538</ele>
        <time>2019-04-29T12:14:20Z</time>
      </trkpt>
      <trkpt lat="41.885005" lon="-8.846244">
        <ele>1.158</ele>
        <time>2019-04-29T12:14:40Z</time>
      </trkpt>
      <trkpt lat="41.885710" lon="-8.847625">
        <ele>0.682</ele>
        <time>2019-04-29T12:14:53Z</time>
      </trkpt>
      <trkpt lat="41.885755" lon="-8.848393">
        <ele>1.116</ele>
        <time>2019-04-29T12:14:59Z</time>
      </trkpt>
      <trkpt lat="41.886128" lon="-8.849038">
        <ele>0.676</ele>
        <time>2019-04-29T12:15:06Z</time>
      </trkpt>
      <trkpt lat="41.887664" lon="-8.849584">
        <ele>0.113</ele>
        <time>2019-04-29T12:15:23Z</time>
      </trkpt>
      <trkpt lat="41.888053" lon="-8.849662">
        <ele>-0.908</ele>
        <time>2019-04-29T12:15:30Z</time>
      </trkpt>
      <trkpt lat="41.888285" lon="-8.849721">
        <ele>-0.914</ele>
        <time>2019-04-29T12:15:48Z</time>
      </trkpt>
      <trkpt lat="41.888362" lon="-8.849789">
        <ele>0.177</ele>
        <time>2019-04-29T12:16:09Z</time>
      </trkpt>
      <trkpt lat="41.888371" lon="-8.849810">
        <ele>1.143</ele>
        <time>2019-04-29T12:16:33Z</time>
      </trkpt>
      <trkpt lat="41.888398" lon="-8.849815">
        <ele>1.581</ele>
        <time>2019-04-29T12:16:44Z</time>
      </trkpt>
      <trkpt lat="41.888413" lon="-8.849811">
        <ele>2.099</ele>
        <time>2019-04-29T12:16:56Z</time>
      </trkpt>
      <trkpt lat="41.888400" lon="-8.849817">
        <ele>2.021</ele>
        <time>2019-04-29T12:17:20Z</time>
      </trkpt>
      <trkpt lat="41.888422" lon="-8.849802">
        <ele>1.171</ele>
        <time>2019-04-29T12:17:42Z</time>
      </trkpt>
      <trkpt lat="41.888428" lon="-8.849793">
        <ele>2.555</ele>
        <time>2019-04-29T12:18:05Z</time>
      </trkpt>
      <trkpt lat="41.888418" lon="-8.849795">
        <ele>1.585</ele>
        <time>2019-04-29T12:18:34Z</time>
      </trkpt>
      <trkpt lat="41.888429" lon="-8.849780">
        <ele>1.589</ele>
        <time>2019-04-29T12:18:44Z</time>
      </trkpt>
      <trkpt lat="41.888770" lon="-8.849721">
        <ele>2.017</ele>
        <time>2019-04-29T12:18:56Z</time>
      </trkpt>
      <trkpt lat="41.889006" lon="-8.849829">
        <ele>3.008</ele>
        <time>2019-04-29T12:19:06Z</time>
      </trkpt>
      <trkpt lat="41.889005" lon="-8.849911">
        <ele>2.531</ele>
        <time>2019-04-29T12:19:09Z</time>
      </trkpt>
      <trkpt lat="41.889040" lon="-8.850126">
        <ele>3.564</ele>
        <time>2019-04-29T12:19:19Z</time>
      </trkpt>
      <trkpt lat="41.889038" lon="-8.850155">
        <ele>3.560</ele>
        <time>2019-04-29T12:19:20Z</time>
      </trkpt>
      <trkpt lat="41.889043" lon="-8.850317">
        <ele>3.098</ele>
        <time>2019-04-29T12:19:26Z</time>
      </trkpt>
      <trkpt lat="41.889048" lon="-8.850658">
        <ele>3.566</ele>
        <time>2019-04-29T12:19:37Z</time>
      </trkpt>
      <trkpt lat="41.888928" lon="-8.850738">
        <ele>3.548</ele>
        <time>2019-04-29T12:19:42Z</time>
      </trkpt>
      <trkpt lat="41.888462" lon="-8.850689">
        <ele>3.018</ele>
        <time>2019-04-29T12:19:57Z</time>
      </trkpt>
      <trkpt lat="41.888432" lon="-8.850719">
        <ele>2.552</ele>
        <time>2019-04-29T12:19:59Z</time>
      </trkpt>
      <trkpt lat="41.888426" lon="-8.850786">
        <ele>1.124</ele>
        <time>2019-04-29T12:20:12Z</time>
      </trkpt>
      <trkpt lat="41.888429" lon="-8.850778">
        <ele>1.504</ele>
        <time>2019-04-29T12:20:39Z</time>
      </trkpt>
      <trkpt lat="41.888428" lon="-8.850775">
        <ele>2.014</ele>
        <time>2019-04-29T12:21:01Z</time>
      </trkpt>
      <trkpt lat="41.888422" lon="-8.850914">
        <ele>3.008</ele>
        <time>2019-04-29T12:21:07Z</time>
      </trkpt>
      <trkpt lat="41.888421" lon="-8.851258">
        <ele>4.465</ele>
        <time>2019-04-29T12:21:20Z</time>
      </trkpt>
      <trkpt lat="41.888409" lon="-8.851529">
        <ele>5.478</ele>
        <time>2019-04-29T12:21:31Z</time>
      </trkpt>
      <trkpt lat="41.888385" lon="-8.851777">
        <ele>8.314</ele>
        <time>2019-04-29T12:21:41Z</time>
      </trkpt>
      <trkpt lat="41.888380" lon="-8.851997">
        <ele>11.152</ele>
        <time>2019-04-29T12:21:52Z</time>
      </trkpt>
      <trkpt lat="41.888469" lon="-8.852140">
        <ele>12.110</ele>
        <time>2019-04-29T12:22:02Z</time>
      </trkpt>
      <trkpt lat="41.888609" lon="-8.852249">
        <ele>13.172</ele>
        <time>2019-04-29T12:22:13Z</time>
      </trkpt>
      <trkpt lat="41.888751" lon="-8.852365">
        <ele>13.192</ele>
        <time>2019-04-29T12:22:23Z</time>
      </trkpt>
      <trkpt lat="41.888828" lon="-8.852675">
        <ele>18.426</ele>
        <time>2019-04-29T12:22:35Z</time>
      </trkpt>
      <trkpt lat="41.888777" lon="-8.852720">
        <ele>19.362</ele>
        <time>2019-04-29T12:22:38Z</time>
      </trkpt>
      <trkpt lat="41.888569" lon="-8.852945">
        <ele>21.283</ele>
        <time>2019-04-29T12:22:53Z</time>
      </trkpt>
      <trkpt lat="41.888594" lon="-8.853080">
        <ele>21.711</ele>
        <time>2019-04-29T12:23:00Z</time>
      </trkpt>
      <trkpt lat="41.888691" lon="-8.853350">
        <ele>23.608</ele>
        <time>2019-04-29T12:23:10Z</time>
      </trkpt>
      <trkpt lat="41.888695" lon="-8.853373">
        <ele>23.689</ele>
        <time>2019-04-29T12:23:11Z</time>
      </trkpt>
      <trkpt lat="41.888679" lon="-8.853419">
        <ele>24.612</ele>
        <time>2019-04-29T12:23:13Z</time>
      </trkpt>
      <trkpt lat="41.888728" lon="-8.853509">
        <ele>28.948</ele>
        <time>2019-04-29T12:23:20Z</time>
      </trkpt>
      <trkpt lat="41.888742" lon="-8.853590">
        <ele>29.986</ele>
        <time>2019-04-29T12:23:24Z</time>
      </trkpt>
      <trkpt lat="41.888765" lon="-8.853660">
        <ele>31.374</ele>
        <time>2019-04-29T12:23:28Z</time>
      </trkpt>
      <trkpt lat="41.888780" lon="-8.853738">
        <ele>31.856</ele>
        <time>2019-04-29T12:23:32Z</time>
      </trkpt>
      <trkpt lat="41.888780" lon="-8.854025">
        <ele>35.756</ele>
        <time>2019-04-29T12:23:43Z</time>
      </trkpt>
      <trkpt lat="41.888760" lon="-8.854426">
        <ele>36.690</ele>
        <time>2019-04-29T12:23:57Z</time>
      </trkpt>
      <trkpt lat="41.888769" lon="-8.854754">
        <ele>37.692</ele>
        <time>2019-04-29T12:24:07Z</time>
      </trkpt>
      <trkpt lat="41.888773" lon="-8.855168">
        <ele>38.173</ele>
        <time>2019-04-29T12:24:20Z</time>
      </trkpt>
      <trkpt lat="41.888748" lon="-8.855633">
        <ele>39.520</ele>
        <time>2019-04-29T12:24:35Z</time>
      </trkpt>
      <trkpt lat="41.888854" lon="-8.856052">
        <ele>39.008</ele>
        <time>2019-04-29T12:24:49Z</time>
      </trkpt>
      <trkpt lat="41.888966" lon="-8.856487">
        <ele>40.022</ele>
        <time>2019-04-29T12:25:04Z</time>
      </trkpt>
      <trkpt lat="41.889082" lon="-8.856916">
        <ele>40.095</ele>
        <time>2019-04-29T12:25:18Z</time>
      </trkpt>
      <trkpt lat="41.889194" lon="-8.857366">
        <ele>40.911</ele>
        <time>2019-04-29T12:25:33Z</time>
      </trkpt>
      <trkpt lat="41.889128" lon="-8.857478">
        <ele>40.569</ele>
        <time>2019-04-29T12:25:44Z</time>
      </trkpt>
      <trkpt lat="41.888658" lon="-8.857647">
        <ele>37.677</ele>
        <time>2019-04-29T12:25:55Z</time>
      </trkpt>
      <trkpt lat="41.888465" lon="-8.857734">
        <ele>37.139</ele>
        <time>2019-04-29T12:25:59Z</time>
      </trkpt>
      <trkpt lat="41.888422" lon="-8.857766">
        <ele>37.149</ele>
        <time>2019-04-29T12:26:00Z</time>
      </trkpt>
      <trkpt lat="41.888378" lon="-8.857795">
        <ele>36.633</ele>
        <time>2019-04-29T12:26:01Z</time>
      </trkpt>
      <trkpt lat="41.888272" lon="-8.857879">
        <ele>35.717</ele>
        <time>2019-04-29T12:26:04Z</time>
      </trkpt>
      <trkpt lat="41.888268" lon="-8.857910">
        <ele>35.787</ele>
        <time>2019-04-29T12:26:05Z</time>
      </trkpt>
      <trkpt lat="41.888272" lon="-8.857935">
        <ele>35.215</ele>
        <time>2019-04-29T12:26:06Z</time>
      </trkpt>
      <trkpt lat="41.888282" lon="-8.857955">
        <ele>35.208</ele>
        <time>2019-04-29T12:26:07Z</time>
      </trkpt>
      <trkpt lat="41.888299" lon="-8.857971">
        <ele>35.244</ele>
        <time>2019-04-29T12:26:08Z</time>
      </trkpt>
      <trkpt lat="41.888318" lon="-8.857984">
        <ele>35.787</ele>
        <time>2019-04-29T12:26:09Z</time>
      </trkpt>
      <trkpt lat="41.888331" lon="-8.858005">
        <ele>35.223</ele>
        <time>2019-04-29T12:26:10Z</time>
      </trkpt>
      <trkpt lat="41.888343" lon="-8.858025">
        <ele>35.221</ele>
        <time>2019-04-29T12:26:11Z</time>
      </trkpt>
      <trkpt lat="41.888357" lon="-8.858046">
        <ele>35.279</ele>
        <time>2019-04-29T12:26:12Z</time>
      </trkpt>
      <trkpt lat="41.888369" lon="-8.858063">
        <ele>34.791</ele>
        <time>2019-04-29T12:26:13Z</time>
      </trkpt>
      <trkpt lat="41.888381" lon="-8.858070">
        <ele>34.711</ele>
        <time>2019-04-29T12:26:14Z</time>
      </trkpt>
      <trkpt lat="41.888410" lon="-8.858069">
        <ele>36.655</ele>
        <time>2019-04-29T12:26:26Z</time>
      </trkpt>
      <trkpt lat="41.888431" lon="-8.858065">
        <ele>37.644</ele>
        <time>2019-04-29T12:26:34Z</time>
      </trkpt>
      <trkpt lat="41.888444" lon="-8.858067">
        <ele>38.105</ele>
        <time>2019-04-29T12:26:35Z</time>
      </trkpt>
      <trkpt lat="41.888680" lon="-8.858130">
        <ele>39.515</ele>
        <time>2019-04-29T12:26:46Z</time>
      </trkpt>
      <trkpt lat="41.888978" lon="-8.858169">
        <ele>37.608</ele>
        <time>2019-04-29T12:26:59Z</time>
      </trkpt>
      <trkpt lat="41.889277" lon="-8.858249">
        <ele>43.497</ele>
        <time>2019-04-29T12:27:13Z</time>
      </trkpt>
      <trkpt lat="41.889539" lon="-8.858467">
        <ele>48.270</ele>
        <time>2019-04-29T12:27:27Z</time>
      </trkpt>
      <trkpt lat="41.889764" lon="-8.858744">
        <ele>52.066</ele>
        <time>2019-04-29T12:27:41Z</time>
      </trkpt>
      <trkpt lat="41.889954" lon="-8.858986">
        <ele>53.474</ele>
        <time>2019-04-29T12:27:53Z</time>
      </trkpt>
      <trkpt lat="41.890255" lon="-8.859235">
        <ele>53.472</ele>
        <time>2019-04-29T12:28:08Z</time>
      </trkpt>
      <trkpt lat="41.890365" lon="-8.859343">
        <ele>53.034</ele>
        <time>2019-04-29T12:28:12Z</time>
      </trkpt>
      <trkpt lat="41.890410" lon="-8.859365">
        <ele>52.554</ele>
        <time>2019-04-29T12:28:13Z</time>
      </trkpt>
      <trkpt lat="41.890462" lon="-8.859378">
        <ele>52.058</ele>
        <time>2019-04-29T12:28:14Z</time>
      </trkpt>
      <trkpt lat="41.890520" lon="-8.859393">
        <ele>52.079</ele>
        <time>2019-04-29T12:28:15Z</time>
      </trkpt>
      <trkpt lat="41.890583" lon="-8.859414">
        <ele>51.505</ele>
        <time>2019-04-29T12:28:16Z</time>
      </trkpt>
      <trkpt lat="41.890854" lon="-8.859521">
        <ele>49.625</ele>
        <time>2019-04-29T12:28:20Z</time>
      </trkpt>
      <trkpt lat="41.890898" lon="-8.859549">
        <ele>49.608</ele>
        <time>2019-04-29T12:28:21Z</time>
      </trkpt>
      <trkpt lat="41.890933" lon="-8.859580">
        <ele>49.140</ele>
        <time>2019-04-29T12:28:22Z</time>
      </trkpt>
      <trkpt lat="41.890961" lon="-8.859607">
        <ele>49.163</ele>
        <time>2019-04-29T12:28:23Z</time>
      </trkpt>
      <trkpt lat="41.890983" lon="-8.859628">
        <ele>48.699</ele>
        <time>2019-04-29T12:28:24Z</time>
      </trkpt>
      <trkpt lat="41.891144" lon="-8.859847">
        <ele>49.157</ele>
        <time>2019-04-29T12:28:36Z</time>
      </trkpt>
      <trkpt lat="41.891326" lon="-8.860058">
        <ele>49.625</ele>
        <time>2019-04-29T12:28:50Z</time>
      </trkpt>
      <trkpt lat="41.891441" lon="-8.860248">
        <ele>53.087</ele>
        <time>2019-04-29T12:29:00Z</time>
      </trkpt>
      <trkpt lat="41.891476" lon="-8.860332">
        <ele>53.957</ele>
        <time>2019-04-29T12:29:05Z</time>
      </trkpt>
      <trkpt lat="41.891483" lon="-8.860351">
        <ele>53.941</ele>
        <time>2019-04-29T12:29:06Z</time>
      </trkpt>
      <trkpt lat="41.891489" lon="-8.860371">
        <ele>54.469</ele>
        <time>2019-04-29T12:29:07Z</time>
      </trkpt>
      <trkpt lat="41.891492" lon="-8.860389">
        <ele>54.404</ele>
        <time>2019-04-29T12:29:08Z</time>
      </trkpt>
      <trkpt lat="41.891490" lon="-8.860407">
        <ele>54.924</ele>
        <time>2019-04-29T12:29:09Z</time>
      </trkpt>
      <trkpt lat="41.891487" lon="-8.860428">
        <ele>54.908</ele>
        <time>2019-04-29T12:29:10Z</time>
      </trkpt>
      <trkpt lat="41.891488" lon="-8.860451">
        <ele>54.959</ele>
        <time>2019-04-29T12:29:11Z</time>
      </trkpt>
      <trkpt lat="41.891487" lon="-8.860475">
        <ele>55.422</ele>
        <time>2019-04-29T12:29:12Z</time>
      </trkpt>
      <trkpt lat="41.891482" lon="-8.860497">
        <ele>55.488</ele>
        <time>2019-04-29T12:29:13Z</time>
      </trkpt>
      <trkpt lat="41.891472" lon="-8.860520">
        <ele>55.436</ele>
        <time>2019-04-29T12:29:14Z</time>
      </trkpt>
      <trkpt lat="41.891390" lon="-8.860666">
        <ele>57.364</ele>
        <time>2019-04-29T12:29:23Z</time>
      </trkpt>
      <trkpt lat="41.891476" lon="-8.860964">
        <ele>55.416</ele>
        <time>2019-04-29T12:29:31Z</time>
      </trkpt>
      <trkpt lat="41.891502" lon="-8.861082">
        <ele>54.946</ele>
        <time>2019-04-29T12:29:33Z</time>
      </trkpt>
      <trkpt lat="41.891518" lon="-8.861213">
        <ele>54.980</ele>
        <time>2019-04-29T12:29:35Z</time>
      </trkpt>
      <trkpt lat="41.891593" lon="-8.861686">
        <ele>56.312</ele>
        <time>2019-04-29T12:29:45Z</time>
      </trkpt>
      <trkpt lat="41.891613" lon="-8.861711">
        <ele>56.832</ele>
        <time>2019-04-29T12:30:01Z</time>
      </trkpt>
      <trkpt lat="41.891598" lon="-8.861707">
        <ele>56.805</ele>
        <time>2019-04-29T12:30:18Z</time>
      </trkpt>
      <trkpt lat="41.891594" lon="-8.861707">
        <ele>56.308</ele>
        <time>2019-04-29T12:30:34Z</time>
      </trkpt>
      <trkpt lat="41.891600" lon="-8.861714">
        <ele>55.884</ele>
        <time>2019-04-29T12:30:45Z</time>
      </trkpt>
      <trkpt lat="41.891561" lon="-8.861777">
        <ele>55.877</ele>
        <time>2019-04-29T12:30:57Z</time>
      </trkpt>
      <trkpt lat="41.891537" lon="-8.861774">
        <ele>55.433</ele>
        <time>2019-04-29T12:31:08Z</time>
      </trkpt>
      <trkpt lat="41.891552" lon="-8.861788">
        <ele>55.491</ele>
        <time>2019-04-29T12:31:31Z</time>
      </trkpt>
      <trkpt lat="41.891556" lon="-8.861797">
        <ele>56.869</ele>
        <time>2019-04-29T12:31:57Z</time>
      </trkpt>
      <trkpt lat="41.891550" lon="-8.861800">
        <ele>58.751</ele>
        <time>2019-04-29T12:32:19Z</time>
      </trkpt>
      <trkpt lat="41.891533" lon="-8.861794">
        <ele>59.291</ele>
        <time>2019-04-29T12:32:40Z</time>
      </trkpt>
      <trkpt lat="41.891526" lon="-8.861791">
        <ele>59.785</ele>
        <time>2019-04-29T12:33:08Z</time>
      </trkpt>
      <trkpt lat="41.891524" lon="-8.861787">
        <ele>59.787</ele>
        <time>2019-04-29T12:33:26Z</time>
      </trkpt>
      <trkpt lat="41.891521" lon="-8.861790">
        <ele>60.242</ele>
        <time>2019-04-29T12:33:46Z</time>
      </trkpt>
      <trkpt lat="41.891516" lon="-8.861795">
        <ele>59.226</ele>
        <time>2019-04-29T12:34:09Z</time>
      </trkpt>
      <trkpt lat="41.891514" lon="-8.861791">
        <ele>59.708</ele>
        <time>2019-04-29T12:34:31Z</time>
      </trkpt>
      <trkpt lat="41.891513" lon="-8.861791">
        <ele>59.721</ele>
        <time>2019-04-29T12:34:35Z</time>
      </trkpt>
      <trkpt lat="41.891495" lon="-8.861804">
        <ele>59.254</ele>
        <time>2019-04-29T12:34:38Z</time>
      </trkpt>
      <trkpt lat="41.891461" lon="-8.861811">
        <ele>59.720</ele>
        <time>2019-04-29T12:34:41Z</time>
      </trkpt>
      <trkpt lat="41.891399" lon="-8.861870">
        <ele>61.188</ele>
        <time>2019-04-29T12:34:46Z</time>
      </trkpt>
      <trkpt lat="41.891352" lon="-8.861905">
        <ele>61.166</ele>
        <time>2019-04-29T12:34:50Z</time>
      </trkpt>
      <trkpt lat="41.891337" lon="-8.861924">
        <ele>61.178</ele>
        <time>2019-04-29T12:34:52Z</time>
      </trkpt>
      <trkpt lat="41.891432" lon="-8.862025">
        <ele>62.118</ele>
        <time>2019-04-29T12:35:02Z</time>
      </trkpt>
      <trkpt lat="41.891482" lon="-8.862037">
        <ele>61.652</ele>
        <time>2019-04-29T12:35:12Z</time>
      </trkpt>
      <trkpt lat="41.891493" lon="-8.862036">
        <ele>61.686</ele>
        <time>2019-04-29T12:35:25Z</time>
      </trkpt>
      <trkpt lat="41.891668" lon="-8.862062">
        <ele>62.660</ele>
        <time>2019-04-29T12:35:37Z</time>
      </trkpt>
      <trkpt lat="41.891805" lon="-8.862109">
        <ele>67.426</ele>
        <time>2019-04-29T12:35:47Z</time>
      </trkpt>
      <trkpt lat="41.892048" lon="-8.862071">
        <ele>70.708</ele>
        <time>2019-04-29T12:35:57Z</time>
      </trkpt>
      <trkpt lat="41.892076" lon="-8.862057">
        <ele>71.251</ele>
        <time>2019-04-29T12:35:58Z</time>
      </trkpt>
      <trkpt lat="41.892189" lon="-8.862054">
        <ele>70.754</ele>
        <time>2019-04-29T12:36:02Z</time>
      </trkpt>
      <trkpt lat="41.892490" lon="-8.862059">
        <ele>71.230</ele>
        <time>2019-04-29T12:36:12Z</time>
      </trkpt>
      <trkpt lat="41.892574" lon="-8.862030">
        <ele>71.288</ele>
        <time>2019-04-29T12:36:15Z</time>
      </trkpt>
      <trkpt lat="41.892666" lon="-8.861984">
        <ele>71.736</ele>
        <time>2019-04-29T12:36:19Z</time>
      </trkpt>
      <trkpt lat="41.892895" lon="-8.861897">
        <ele>72.798</ele>
        <time>2019-04-29T12:36:32Z</time>
      </trkpt>
      <trkpt lat="41.892945" lon="-8.861884">
        <ele>73.248</ele>
        <time>2019-04-29T12:36:35Z</time>
      </trkpt>
      <trkpt lat="41.893207" lon="-8.861896">
        <ele>72.752</ele>
        <time>2019-04-29T12:36:45Z</time>
      </trkpt>
      <trkpt lat="41.893572" lon="-8.861906">
        <ele>73.232</ele>
        <time>2019-04-29T12:36:57Z</time>
      </trkpt>
      <trkpt lat="41.893614" lon="-8.861900">
        <ele>73.292</ele>
        <time>2019-04-29T12:36:58Z</time>
      </trkpt>
      <trkpt lat="41.893871" lon="-8.861746">
        <ele>71.211</ele>
        <time>2019-04-29T12:37:04Z</time>
      </trkpt>
      <trkpt lat="41.894231" lon="-8.861769">
        <ele>70.708</ele>
        <time>2019-04-29T12:37:14Z</time>
      </trkpt>
      <trkpt lat="41.894310" lon="-8.861816">
        <ele>70.336</ele>
        <time>2019-04-29T12:37:17Z</time>
      </trkpt>
      <trkpt lat="41.894461" lon="-8.861999">
        <ele>68.819</ele>
        <time>2019-04-29T12:37:23Z</time>
      </trkpt>
      <trkpt lat="41.894552" lon="-8.862030">
        <ele>68.885</ele>
        <time>2019-04-29T12:37:25Z</time>
      </trkpt>
      <trkpt lat="41.894866" lon="-8.862151">
        <ele>69.373</ele>
        <time>2019-04-29T12:37:34Z</time>
      </trkpt>
      <trkpt lat="41.895114" lon="-8.862031">
        <ele>72.241</ele>
        <time>2019-04-29T12:37:43Z</time>
      </trkpt>
      <trkpt lat="41.895456" lon="-8.861771">
        <ele>70.723</ele>
        <time>2019-04-29T12:37:56Z</time>
      </trkpt>
      <trkpt lat="41.895828" lon="-8.861617">
        <ele>68.843</ele>
        <time>2019-04-29T12:38:08Z</time>
      </trkpt>
      <trkpt lat="41.896131" lon="-8.861476">
        <ele>65.997</ele>
        <time>2019-04-29T12:38:19Z</time>
      </trkpt>
      <trkpt lat="41.896208" lon="-8.861428">
        <ele>65.091</ele>
        <time>2019-04-29T12:38:23Z</time>
      </trkpt>
      <trkpt lat="41.896266" lon="-8.861267">
        <ele>63.581</ele>
        <time>2019-04-29T12:38:29Z</time>
      </trkpt>
      <trkpt lat="41.896368" lon="-8.861137">
        <ele>61.619</ele>
        <time>2019-04-29T12:38:35Z</time>
      </trkpt>
      <trkpt lat="41.896493" lon="-8.861100">
        <ele>60.708</ele>
        <time>2019-04-29T12:38:39Z</time>
      </trkpt>
      <trkpt lat="41.896615" lon="-8.861051">
        <ele>58.762</ele>
        <time>2019-04-29T12:38:43Z</time>
      </trkpt>
      <trkpt lat="41.896906" lon="-8.860927">
        <ele>58.385</ele>
        <time>2019-04-29T12:38:51Z</time>
      </trkpt>
      <trkpt lat="41.896932" lon="-8.860925">
        <ele>58.391</ele>
        <time>2019-04-29T12:38:52Z</time>
      </trkpt>
      <trkpt lat="41.897068" lon="-8.860975">
        <ele>57.869</ele>
        <time>2019-04-29T12:38:57Z</time>
      </trkpt>
      <trkpt lat="41.897243" lon="-8.861043">
        <ele>56.847</ele>
        <time>2019-04-29T12:39:01Z</time>
      </trkpt>
      <trkpt lat="41.897466" lon="-8.861168">
        <ele>54.989</ele>
        <time>2019-04-29T12:39:06Z</time>
      </trkpt>
      <trkpt lat="41.897664" lon="-8.861253">
        <ele>53.099</ele>
        <time>2019-04-29T12:39:10Z</time>
      </trkpt>
      <trkpt lat="41.897776" lon="-8.861288">
        <ele>52.083</ele>
        <time>2019-04-29T12:39:12Z</time>
      </trkpt>
      <trkpt lat="41.897971" lon="-8.861338">
        <ele>50.172</ele>
        <time>2019-04-29T12:39:15Z</time>
      </trkpt>
      <trkpt lat="41.898035" lon="-8.861352">
        <ele>49.113</ele>
        <time>2019-04-29T12:39:16Z</time>
      </trkpt>
      <trkpt lat="41.898095" lon="-8.861376">
        <ele>48.614</ele>
        <time>2019-04-29T12:39:17Z</time>
      </trkpt>
      <trkpt lat="41.898196" lon="-8.861424">
        <ele>47.208</ele>
        <time>2019-04-29T12:39:19Z</time>
      </trkpt>
      <trkpt lat="41.898241" lon="-8.861434">
        <ele>46.750</ele>
        <time>2019-04-29T12:39:20Z</time>
      </trkpt>
      <trkpt lat="41.898286" lon="-8.861433">
        <ele>46.223</ele>
        <time>2019-04-29T12:39:21Z</time>
      </trkpt>
      <trkpt lat="41.898343" lon="-8.861429">
        <ele>45.879</ele>
        <time>2019-04-29T12:39:22Z</time>
      </trkpt>
      <trkpt lat="41.898458" lon="-8.861387">
        <ele>43.897</ele>
        <time>2019-04-29T12:39:29Z</time>
      </trkpt>
      <trkpt lat="41.898529" lon="-8.861364">
        <ele>46.755</ele>
        <time>2019-04-29T12:39:43Z</time>
      </trkpt>
      <trkpt lat="41.898548" lon="-8.861370">
        <ele>46.737</ele>
        <time>2019-04-29T12:39:44Z</time>
      </trkpt>
      <trkpt lat="41.898569" lon="-8.861382">
        <ele>46.797</ele>
        <time>2019-04-29T12:39:45Z</time>
      </trkpt>
      <trkpt lat="41.898589" lon="-8.861398">
        <ele>46.761</ele>
        <time>2019-04-29T12:39:46Z</time>
      </trkpt>
      <trkpt lat="41.898605" lon="-8.861416">
        <ele>46.214</ele>
        <time>2019-04-29T12:39:47Z</time>
      </trkpt>
      <trkpt lat="41.898618" lon="-8.861437">
        <ele>45.854</ele>
        <time>2019-04-29T12:39:48Z</time>
      </trkpt>
      <trkpt lat="41.898634" lon="-8.861462">
        <ele>45.809</ele>
        <time>2019-04-29T12:39:49Z</time>
      </trkpt>
      <trkpt lat="41.898971" lon="-8.861856">
        <ele>43.808</ele>
        <time>2019-04-29T12:40:01Z</time>
      </trkpt>
      <trkpt lat="41.899437" lon="-8.862128">
        <ele>44.824</ele>
        <time>2019-04-29T12:40:13Z</time>
      </trkpt>
      <trkpt lat="41.900031" lon="-8.862390">
        <ele>47.227</ele>
        <time>2019-04-29T12:40:29Z</time>
      </trkpt>
      <trkpt lat="41.900448" lon="-8.862680">
        <ele>48.263</ele>
        <time>2019-04-29T12:40:43Z</time>
      </trkpt>
      <trkpt lat="41.900839" lon="-8.863089">
        <ele>48.251</ele>
        <time>2019-04-29T12:40:58Z</time>
      </trkpt>
      <trkpt lat="41.901137" lon="-8.863422">
        <ele>52.069</ele>
        <time>2019-04-29T12:41:11Z</time>
      </trkpt>
      <trkpt lat="41.901540" lon="-8.863883">
        <ele>53.011</ele>
        <time>2019-04-29T12:41:25Z</time>
      </trkpt>
      <trkpt lat="41.901579" lon="-8.863916">
        <ele>53.041</ele>
        <time>2019-04-29T12:41:26Z</time>
      </trkpt>
      <trkpt lat="41.901619" lon="-8.863947">
        <ele>52.575</ele>
        <time>2019-04-29T12:41:27Z</time>
      </trkpt>
      <trkpt lat="41.902332" lon="-8.864208">
        <ele>51.523</ele>
        <time>2019-04-29T12:41:43Z</time>
      </trkpt>
      <trkpt lat="41.902943" lon="-8.864463">
        <ele>51.583</ele>
        <time>2019-04-29T12:41:59Z</time>
      </trkpt>
      <trkpt lat="41.903151" lon="-8.864811">
        <ele>51.511</ele>
        <time>2019-04-29T12:42:11Z</time>
      </trkpt>
      <trkpt lat="41.903154" lon="-8.865590">
        <ele>49.608</ele>
        <time>2019-04-29T12:42:25Z</time>
      </trkpt>
      <trkpt lat="41.903081" lon="-8.866209">
        <ele>47.735</ele>
        <time>2019-04-29T12:42:34Z</time>
      </trkpt>
      <trkpt lat="41.903090" lon="-8.866349">
        <ele>47.268</ele>
        <time>2019-04-29T12:42:36Z</time>
      </trkpt>
      <trkpt lat="41.903101" lon="-8.866414">
        <ele>46.744</ele>
        <time>2019-04-29T12:42:37Z</time>
      </trkpt>
      <trkpt lat="41.903298" lon="-8.867385">
        <ele>44.332</ele>
        <time>2019-04-29T12:42:52Z</time>
      </trkpt>
      <trkpt lat="41.903327" lon="-8.867499">
        <ele>44.380</ele>
        <time>2019-04-29T12:42:54Z</time>
      </trkpt>
      <trkpt lat="41.903347" lon="-8.867543">
        <ele>44.372</ele>
        <time>2019-04-29T12:42:55Z</time>
      </trkpt>
      <trkpt lat="41.903366" lon="-8.867574">
        <ele>43.842</ele>
        <time>2019-04-29T12:42:56Z</time>
      </trkpt>
      <trkpt lat="41.903397" lon="-8.867621">
        <ele>43.856</ele>
        <time>2019-04-29T12:43:07Z</time>
      </trkpt>
      <trkpt lat="41.903407" lon="-8.867642">
        <ele>43.422</ele>
        <time>2019-04-29T12:43:11Z</time>
      </trkpt>
      <trkpt lat="41.903412" lon="-8.867665">
        <ele>43.462</ele>
        <time>2019-04-29T12:43:12Z</time>
      </trkpt>
      <trkpt lat="41.903412" lon="-8.867698">
        <ele>43.408</ele>
        <time>2019-04-29T12:43:13Z</time>
      </trkpt>
      <trkpt lat="41.903406" lon="-8.867737">
        <ele>43.408</ele>
        <time>2019-04-29T12:43:14Z</time>
      </trkpt>
      <trkpt lat="41.903394" lon="-8.867776">
        <ele>42.985</ele>
        <time>2019-04-29T12:43:15Z</time>
      </trkpt>
      <trkpt lat="41.903380" lon="-8.867813">
        <ele>42.968</ele>
        <time>2019-04-29T12:43:16Z</time>
      </trkpt>
      <trkpt lat="41.903109" lon="-8.868360">
        <ele>40.074</ele>
        <time>2019-04-29T12:43:28Z</time>
      </trkpt>
      <trkpt lat="41.902944" lon="-8.868701">
        <ele>38.132</ele>
        <time>2019-04-29T12:43:35Z</time>
      </trkpt>
      <trkpt lat="41.902930" lon="-8.868755">
        <ele>38.170</ele>
        <time>2019-04-29T12:43:36Z</time>
      </trkpt>
      <trkpt lat="41.902876" lon="-8.868996">
        <ele>38.152</ele>
        <time>2019-04-29T12:43:40Z</time>
      </trkpt>
      <trkpt lat="41.902856" lon="-8.869059">
        <ele>37.682</ele>
        <time>2019-04-29T12:43:41Z</time>
      </trkpt>
      <trkpt lat="41.902786" lon="-8.869370">
        <ele>36.136</ele>
        <time>2019-04-29T12:43:46Z</time>
      </trkpt>
      <trkpt lat="41.902708" lon="-8.869733">
        <ele>35.244</ele>
        <time>2019-04-29T12:43:52Z</time>
      </trkpt>
      <trkpt lat="41.902700" lon="-8.869792">
        <ele>34.705</ele>
        <time>2019-04-29T12:43:53Z</time>
      </trkpt>
      <trkpt lat="41.902687" lon="-8.869852">
        <ele>34.715</ele>
        <time>2019-04-29T12:43:54Z</time>
      </trkpt>
      <trkpt lat="41.902676" lon="-8.869910">
        <ele>34.708</ele>
        <time>2019-04-29T12:43:55Z</time>
      </trkpt>
      <trkpt lat="41.902662" lon="-8.869967">
        <ele>34.237</ele>
        <time>2019-04-29T12:43:56Z</time>
      </trkpt>
      <trkpt lat="41.902606" lon="-8.870239">
        <ele>34.240</ele>
        <time>2019-04-29T12:44:01Z</time>
      </trkpt>
      <trkpt lat="41.902589" lon="-8.870292">
        <ele>33.766</ele>
        <time>2019-04-29T12:44:02Z</time>
      </trkpt>
      <trkpt lat="41.902576" lon="-8.870349">
        <ele>33.774</ele>
        <time>2019-04-29T12:44:03Z</time>
      </trkpt>
      <trkpt lat="41.902543" lon="-8.870524">
        <ele>33.312</ele>
        <time>2019-04-29T12:44:06Z</time>
      </trkpt>
      <trkpt lat="41.902533" lon="-8.870582">
        <ele>33.334</ele>
        <time>2019-04-29T12:44:07Z</time>
      </trkpt>
      <trkpt lat="41.902523" lon="-8.870640">
        <ele>33.314</ele>
        <time>2019-04-29T12:44:08Z</time>
      </trkpt>
      <trkpt lat="41.902518" lon="-8.870698">
        <ele>33.318</ele>
        <time>2019-04-29T12:44:09Z</time>
      </trkpt>
      <trkpt lat="41.902515" lon="-8.870753">
        <ele>33.345</ele>
        <time>2019-04-29T12:44:10Z</time>
      </trkpt>
      <trkpt lat="41.902484" lon="-8.871003">
        <ele>33.347</ele>
        <time>2019-04-29T12:44:15Z</time>
      </trkpt>
      <trkpt lat="41.902462" lon="-8.871057">
        <ele>33.711</ele>
        <time>2019-04-29T12:44:16Z</time>
      </trkpt>
      <trkpt lat="41.902448" lon="-8.871110">
        <ele>34.208</ele>
        <time>2019-04-29T12:44:17Z</time>
      </trkpt>
      <trkpt lat="41.902433" lon="-8.871162">
        <ele>34.287</ele>
        <time>2019-04-29T12:44:18Z</time>
      </trkpt>
      <trkpt lat="41.902412" lon="-8.871210">
        <ele>33.780</ele>
        <time>2019-04-29T12:44:19Z</time>
      </trkpt>
      <trkpt lat="41.902392" lon="-8.871255">
        <ele>33.776</ele>
        <time>2019-04-29T12:44:20Z</time>
      </trkpt>
      <trkpt lat="41.902219" lon="-8.871692">
        <ele>31.324</ele>
        <time>2019-04-29T12:44:31Z</time>
      </trkpt>
      <trkpt lat="41.902221" lon="-8.871734">
        <ele>30.962</ele>
        <time>2019-04-29T12:44:32Z</time>
      </trkpt>
      <trkpt lat="41.902220" lon="-8.871780">
        <ele>30.994</ele>
        <time>2019-04-29T12:44:33Z</time>
      </trkpt>
      <trkpt lat="41.902214" lon="-8.871826">
        <ele>30.974</ele>
        <time>2019-04-29T12:44:34Z</time>
      </trkpt>
      <trkpt lat="41.902206" lon="-8.871873">
        <ele>30.988</ele>
        <time>2019-04-29T12:44:35Z</time>
      </trkpt>
      <trkpt lat="41.902193" lon="-8.871919">
        <ele>30.419</ele>
        <time>2019-04-29T12:44:36Z</time>
      </trkpt>
      <trkpt lat="41.902143" lon="-8.872049">
        <ele>30.409</ele>
        <time>2019-04-29T12:44:39Z</time>
      </trkpt>
      <trkpt lat="41.902119" lon="-8.872088">
        <ele>29.919</ele>
        <time>2019-04-29T12:44:40Z</time>
      </trkpt>
      <trkpt lat="41.902101" lon="-8.872130">
        <ele>29.908</ele>
        <time>2019-04-29T12:44:41Z</time>
      </trkpt>
      <trkpt lat="41.901815" lon="-8.872673">
        <ele>29.924</ele>
        <time>2019-04-29T12:44:55Z</time>
      </trkpt>
      <trkpt lat="41.901564" lon="-8.873101">
        <ele>28.977</ele>
        <time>2019-04-29T12:45:07Z</time>
      </trkpt>
      <trkpt lat="41.901308" lon="-8.873283">
        <ele>31.813</ele>
        <time>2019-04-29T12:45:19Z</time>
      </trkpt>
      <trkpt lat="41.901228" lon="-8.873295">
        <ele>32.811</ele>
        <time>2019-04-29T12:45:21Z</time>
      </trkpt>
      <trkpt lat="41.901175" lon="-8.873434">
        <ele>33.319</ele>
        <time>2019-04-29T12:45:29Z</time>
      </trkpt>
      <trkpt lat="41.901177" lon="-8.873489">
        <ele>35.261</ele>
        <time>2019-04-29T12:45:33Z</time>
      </trkpt>
      <trkpt lat="41.901198" lon="-8.873592">
        <ele>36.171</ele>
        <time>2019-04-29T12:45:37Z</time>
      </trkpt>
      <trkpt lat="41.901129" lon="-8.873859">
        <ele>36.135</ele>
        <time>2019-04-29T12:45:49Z</time>
      </trkpt>
      <trkpt lat="41.901003" lon="-8.873897">
        <ele>36.147</ele>
        <time>2019-04-29T12:46:02Z</time>
      </trkpt>
      <trkpt lat="41.900907" lon="-8.873868">
        <ele>36.629</ele>
        <time>2019-04-29T12:46:16Z</time>
      </trkpt>
      <trkpt lat="41.900855" lon="-8.873870">
        <ele>37.121</ele>
        <time>2019-04-29T12:46:41Z</time>
      </trkpt>
      <trkpt lat="41.900840" lon="-8.873877">
        <ele>37.108</ele>
        <time>2019-04-29T12:47:10Z</time>
      </trkpt>
      <trkpt lat="41.900820" lon="-8.873864">
        <ele>36.687</ele>
        <time>2019-04-29T12:47:32Z</time>
      </trkpt>
      <trkpt lat="41.900816" lon="-8.873851">
        <ele>36.660</ele>
        <time>2019-04-29T12:47:40Z</time>
      </trkpt>
      <trkpt lat="41.900846" lon="-8.873896">
        <ele>39.546</ele>
        <time>2019-04-29T14:08:11Z</time>
      </trkpt>
      <trkpt lat="41.900865" lon="-8.873877">
        <ele>43.424</ele>
        <time>2019-04-29T14:08:16Z</time>
      </trkpt>
      <trkpt lat="41.900881" lon="-8.873868">
        <ele>44.362</ele>
        <time>2019-04-29T14:08:18Z</time>
      </trkpt>
      <trkpt lat="41.900940" lon="-8.873877">
        <ele>43.824</ele>
        <time>2019-04-29T14:08:22Z</time>
      </trkpt>
      <trkpt lat="41.901069" lon="-8.873987">
        <ele>36.684</ele>
        <time>2019-04-29T14:08:30Z</time>
      </trkpt>
      <trkpt lat="41.901293" lon="-8.874059">
        <ele>48.688</ele>
        <time>2019-04-29T14:08:41Z</time>
      </trkpt>
      <trkpt lat="41.901403" lon="-8.874079">
        <ele>47.218</ele>
        <time>2019-04-29T14:08:53Z</time>
      </trkpt>
      <trkpt lat="41.901570" lon="-8.874048">
        <ele>45.898</ele>
        <time>2019-04-29T14:09:07Z</time>
      </trkpt>
      <trkpt lat="41.901587" lon="-8.874064">
        <ele>45.817</ele>
        <time>2019-04-29T14:09:09Z</time>
      </trkpt>
      <trkpt lat="41.901756" lon="-8.874004">
        <ele>47.208</ele>
        <time>2019-04-29T14:09:19Z</time>
      </trkpt>
      <trkpt lat="41.901930" lon="-8.873925">
        <ele>46.284</ele>
        <time>2019-04-29T14:09:31Z</time>
      </trkpt>
      <trkpt lat="41.902017" lon="-8.874077">
        <ele>43.877</ele>
        <time>2019-04-29T14:09:45Z</time>
      </trkpt>
      <trkpt lat="41.902015" lon="-8.874116">
        <ele>42.443</ele>
        <time>2019-04-29T14:10:11Z</time>
      </trkpt>
      <trkpt lat="41.902028" lon="-8.874125">
        <ele>41.921</ele>
        <time>2019-04-29T14:10:31Z</time>
      </trkpt>
      <trkpt lat="41.902034" lon="-8.874138">
        <ele>41.999</ele>
        <time>2019-04-29T14:10:55Z</time>
      </trkpt>
      <trkpt lat="41.902028" lon="-8.874143">
        <ele>41.951</ele>
        <time>2019-04-29T14:11:25Z</time>
      </trkpt>
      <trkpt lat="41.902029" lon="-8.874153">
        <ele>41.971</ele>
        <time>2019-04-29T14:11:55Z</time>
      </trkpt>
      <trkpt lat="41.902023" lon="-8.874197">
        <ele>45.885</ele>
        <time>2019-04-29T14:12:21Z</time>
      </trkpt>
      <trkpt lat="41.902024" lon="-8.874198">
        <ele>47.288</ele>
        <time>2019-04-29T14:12:46Z</time>
      </trkpt>
      <trkpt lat="41.902014" lon="-8.874208">
        <ele>48.624</ele>
        <time>2019-04-29T14:13:04Z</time>
      </trkpt>
      <trkpt lat="41.902006" lon="-8.874196">
        <ele>52.526</ele>
        <time>2019-04-29T14:13:26Z</time>
      </trkpt>
      <trkpt lat="41.902068" lon="-8.874119">
        <ele>53.908</ele>
        <time>2019-04-29T14:13:52Z</time>
      </trkpt>
      <trkpt lat="41.902071" lon="-8.874124">
        <ele>55.881</ele>
        <time>2019-04-29T14:14:09Z</time>
      </trkpt>
      <trkpt lat="41.902077" lon="-8.874138">
        <ele>59.224</ele>
        <time>2019-04-29T14:14:26Z</time>
      </trkpt>
      <trkpt lat="41.902084" lon="-8.874124">
        <ele>58.360</ele>
        <time>2019-04-29T14:14:42Z</time>
      </trkpt>
      <trkpt lat="41.902065" lon="-8.874155">
        <ele>57.828</ele>
        <time>2019-04-29T14:15:10Z</time>
      </trkpt>
      <trkpt lat="41.902060" lon="-8.874166">
        <ele>58.736</ele>
        <time>2019-04-29T14:15:20Z</time>
      </trkpt>
      <trkpt lat="41.902074" lon="-8.874171">
        <ele>58.748</ele>
        <time>2019-04-29T14:15:22Z</time>
      </trkpt>
      <trkpt lat="41.902205" lon="-8.873983">
        <ele>56.358</ele>
        <time>2019-04-29T14:15:27Z</time>
      </trkpt>
      <trkpt lat="41.902484" lon="-8.874228">
        <ele>47.742</ele>
        <time>2019-04-29T14:15:39Z</time>
      </trkpt>
      <trkpt lat="41.902745" lon="-8.874591">
        <ele>41.995</ele>
        <time>2019-04-29T14:15:51Z</time>
      </trkpt>
      <trkpt lat="41.902758" lon="-8.874623">
        <ele>41.949</ele>
        <time>2019-04-29T14:15:52Z</time>
      </trkpt>
      <trkpt lat="41.902841" lon="-8.874722">
        <ele>41.423</ele>
        <time>2019-04-29T14:15:56Z</time>
      </trkpt>
      <trkpt lat="41.903094" lon="-8.875057">
        <ele>40.008</ele>
        <time>2019-04-29T14:16:07Z</time>
      </trkpt>
      <trkpt lat="41.903230" lon="-8.875215">
        <ele>42.492</ele>
        <time>2019-04-29T14:16:13Z</time>
      </trkpt>
      <trkpt lat="41.903490" lon="-8.875284">
        <ele>44.385</ele>
        <time>2019-04-29T14:16:24Z</time>
      </trkpt>
      <trkpt lat="41.903803" lon="-8.875334">
        <ele>46.281</ele>
        <time>2019-04-29T14:16:35Z</time>
      </trkpt>
      <trkpt lat="41.904058" lon="-8.875451">
        <ele>47.219</ele>
        <time>2019-04-29T14:16:45Z</time>
      </trkpt>
      <trkpt lat="41.904185" lon="-8.875684">
        <ele>45.877</ele>
        <time>2019-04-29T14:16:51Z</time>
      </trkpt>
      <trkpt lat="41.904261" lon="-8.875772">
        <ele>44.889</ele>
        <time>2019-04-29T14:16:53Z</time>
      </trkpt>
      <trkpt lat="41.904409" lon="-8.875910">
        <ele>43.419</ele>
        <time>2019-04-29T14:16:56Z</time>
      </trkpt>
      <trkpt lat="41.905010" lon="-8.876317">
        <ele>40.093</ele>
        <time>2019-04-29T14:17:09Z</time>
      </trkpt>
      <trkpt lat="41.905384" lon="-8.876472">
        <ele>40.925</ele>
        <time>2019-04-29T14:17:20Z</time>
      </trkpt>
      <trkpt lat="41.905616" lon="-8.876400">
        <ele>41.426</ele>
        <time>2019-04-29T14:17:29Z</time>
      </trkpt>
      <trkpt lat="41.905618" lon="-8.876379">
        <ele>40.908</ele>
        <time>2019-04-29T14:17:30Z</time>
      </trkpt>
      <trkpt lat="41.905618" lon="-8.876356">
        <ele>40.908</ele>
        <time>2019-04-29T14:17:31Z</time>
      </trkpt>
      <trkpt lat="41.905609" lon="-8.876337">
        <ele>40.925</ele>
        <time>2019-04-29T14:17:32Z</time>
      </trkpt>
      <trkpt lat="41.905596" lon="-8.876315">
        <ele>41.468</ele>
        <time>2019-04-29T14:17:33Z</time>
      </trkpt>
      <trkpt lat="41.905578" lon="-8.876293">
        <ele>41.444</ele>
        <time>2019-04-29T14:17:34Z</time>
      </trkpt>
      <trkpt lat="41.905511" lon="-8.876191">
        <ele>41.492</ele>
        <time>2019-04-29T14:17:38Z</time>
      </trkpt>
      <trkpt lat="41.905512" lon="-8.876155">
        <ele>41.990</ele>
        <time>2019-04-29T14:17:39Z</time>
      </trkpt>
      <trkpt lat="41.905520" lon="-8.876118">
        <ele>41.962</ele>
        <time>2019-04-29T14:17:40Z</time>
      </trkpt>
      <trkpt lat="41.905534" lon="-8.876084">
        <ele>42.472</ele>
        <time>2019-04-29T14:17:41Z</time>
      </trkpt>
      <trkpt lat="41.905550" lon="-8.876052">
        <ele>42.956</ele>
        <time>2019-04-29T14:17:42Z</time>
      </trkpt>
      <trkpt lat="41.905787" lon="-8.875826">
        <ele>45.376</ele>
        <time>2019-04-29T14:17:52Z</time>
      </trkpt>
      <trkpt lat="41.906135" lon="-8.875672">
        <ele>44.890</ele>
        <time>2019-04-29T14:18:04Z</time>
      </trkpt>
      <trkpt lat="41.906168" lon="-8.875650">
        <ele>40.919</ele>
        <time>2019-04-29T14:18:18Z</time>
      </trkpt>
      <trkpt lat="41.906161" lon="-8.875650">
        <ele>40.008</ele>
        <time>2019-04-29T14:18:56Z</time>
      </trkpt>
      <trkpt lat="41.906159" lon="-8.875653">
        <ele>39.590</ele>
        <time>2019-04-29T14:19:21Z</time>
      </trkpt>
      <trkpt lat="41.906174" lon="-8.875657">
        <ele>39.573</ele>
        <time>2019-04-29T14:19:49Z</time>
      </trkpt>
      <trkpt lat="41.906339" lon="-8.875647">
        <ele>39.089</ele>
        <time>2019-04-29T14:20:01Z</time>
      </trkpt>
      <trkpt lat="41.906397" lon="-8.875664">
        <ele>39.537</ele>
        <time>2019-04-29T14:20:14Z</time>
      </trkpt>
      <trkpt lat="41.906523" lon="-8.875660">
        <ele>40.045</ele>
        <time>2019-04-29T14:20:36Z</time>
      </trkpt>
      <trkpt lat="41.906983" lon="-8.875775">
        <ele>37.697</ele>
        <time>2019-04-29T14:20:50Z</time>
      </trkpt>
      <trkpt lat="41.907111" lon="-8.875863">
        <ele>36.117</ele>
        <time>2019-04-29T14:21:00Z</time>
      </trkpt>
      <trkpt lat="41.907123" lon="-8.875869">
        <ele>36.171</ele>
        <time>2019-04-29T14:21:01Z</time>
      </trkpt>
      <trkpt lat="41.907139" lon="-8.875874">
        <ele>36.188</ele>
        <time>2019-04-29T14:21:02Z</time>
      </trkpt>
      <trkpt lat="41.907150" lon="-8.875879">
        <ele>36.124</ele>
        <time>2019-04-29T14:21:03Z</time>
      </trkpt>
      <trkpt lat="41.907161" lon="-8.875886">
        <ele>36.126</ele>
        <time>2019-04-29T14:21:04Z</time>
      </trkpt>
      <trkpt lat="41.907171" lon="-8.875893">
        <ele>36.108</ele>
        <time>2019-04-29T14:21:05Z</time>
      </trkpt>
      <trkpt lat="41.907182" lon="-8.875903">
        <ele>35.791</ele>
        <time>2019-04-29T14:21:06Z</time>
      </trkpt>
      <trkpt lat="41.907193" lon="-8.875914">
        <ele>35.754</ele>
        <time>2019-04-29T14:21:07Z</time>
      </trkpt>
      <trkpt lat="41.907321" lon="-8.875978">
        <ele>30.980</ele>
        <time>2019-04-29T14:21:21Z</time>
      </trkpt>
      <trkpt lat="41.907383" lon="-8.876054">
        <ele>27.528</ele>
        <time>2019-04-29T14:21:33Z</time>
      </trkpt>
      <trkpt lat="41.907236" lon="-8.876311">
        <ele>25.116</ele>
        <time>2019-04-29T14:21:43Z</time>
      </trkpt>
      <trkpt lat="41.907109" lon="-8.876483">
        <ele>24.128</ele>
        <time>2019-04-29T14:21:48Z</time>
      </trkpt>
      <trkpt lat="41.907131" lon="-8.876547">
        <ele>24.118</ele>
        <time>2019-04-29T14:21:52Z</time>
      </trkpt>
      <trkpt lat="41.907176" lon="-8.876522">
        <ele>23.692</ele>
        <time>2019-04-29T14:21:53Z</time>
      </trkpt>
      <trkpt lat="41.907223" lon="-8.876494">
        <ele>23.222</ele>
        <time>2019-04-29T14:21:54Z</time>
      </trkpt>
      <trkpt lat="41.907429" lon="-8.876349">
        <ele>19.362</ele>
        <time>2019-04-29T14:22:04Z</time>
      </trkpt>
      <trkpt lat="41.907510" lon="-8.876282">
        <ele>16.908</ele>
        <time>2019-04-29T14:22:14Z</time>
      </trkpt>
      <trkpt lat="41.907712" lon="-8.876007">
        <ele>12.108</ele>
        <time>2019-04-29T14:22:23Z</time>
      </trkpt>
      <trkpt lat="41.907733" lon="-8.876004">
        <ele>11.115</ele>
        <time>2019-04-29T14:22:24Z</time>
      </trkpt>
      <trkpt lat="41.907762" lon="-8.876009">
        <ele>11.188</ele>
        <time>2019-04-29T14:22:25Z</time>
      </trkpt>
      <trkpt lat="41.907791" lon="-8.876028">
        <ele>11.154</ele>
        <time>2019-04-29T14:22:26Z</time>
      </trkpt>
      <trkpt lat="41.907814" lon="-8.876050">
        <ele>11.192</ele>
        <time>2019-04-29T14:22:27Z</time>
      </trkpt>
      <trkpt lat="41.907833" lon="-8.876063">
        <ele>11.120</ele>
        <time>2019-04-29T14:22:28Z</time>
      </trkpt>
      <trkpt lat="41.907848" lon="-8.876062">
        <ele>11.682</ele>
        <time>2019-04-29T14:22:29Z</time>
      </trkpt>
      <trkpt lat="41.907862" lon="-8.876044">
        <ele>11.632</ele>
        <time>2019-04-29T14:22:30Z</time>
      </trkpt>
      <trkpt lat="41.907880" lon="-8.876022">
        <ele>12.156</ele>
        <time>2019-04-29T14:22:31Z</time>
      </trkpt>
      <trkpt lat="41.907905" lon="-8.875985">
        <ele>12.134</ele>
        <time>2019-04-29T14:22:32Z</time>
      </trkpt>
      <trkpt lat="41.907927" lon="-8.875950">
        <ele>12.155</ele>
        <time>2019-04-29T14:22:33Z</time>
      </trkpt>
      <trkpt lat="41.907953" lon="-8.875923">
        <ele>12.110</ele>
        <time>2019-04-29T14:22:34Z</time>
      </trkpt>
      <trkpt lat="41.907982" lon="-8.875903">
        <ele>12.108</ele>
        <time>2019-04-29T14:22:35Z</time>
      </trkpt>
      <trkpt lat="41.908012" lon="-8.875891">
        <ele>11.666</ele>
        <time>2019-04-29T14:22:36Z</time>
      </trkpt>
      <trkpt lat="41.908045" lon="-8.875883">
        <ele>11.619</ele>
        <time>2019-04-29T14:22:37Z</time>
      </trkpt>
      <trkpt lat="41.908079" lon="-8.875880">
        <ele>11.655</ele>
        <time>2019-04-29T14:22:38Z</time>
      </trkpt>
      <trkpt lat="41.908114" lon="-8.875883">
        <ele>12.153</ele>
        <time>2019-04-29T14:22:39Z</time>
      </trkpt>
      <trkpt lat="41.908151" lon="-8.875890">
        <ele>12.681</ele>
        <time>2019-04-29T14:22:40Z</time>
      </trkpt>
      <trkpt lat="41.908187" lon="-8.875904">
        <ele>12.643</ele>
        <time>2019-04-29T14:22:41Z</time>
      </trkpt>
      <trkpt lat="41.908222" lon="-8.875920">
        <ele>12.683</ele>
        <time>2019-04-29T14:22:42Z</time>
      </trkpt>
      <trkpt lat="41.908257" lon="-8.875939">
        <ele>12.697</ele>
        <time>2019-04-29T14:22:43Z</time>
      </trkpt>
      <trkpt lat="41.908292" lon="-8.875961">
        <ele>12.659</ele>
        <time>2019-04-29T14:22:44Z</time>
      </trkpt>
      <trkpt lat="41.908325" lon="-8.875990">
        <ele>12.103</ele>
        <time>2019-04-29T14:22:45Z</time>
      </trkpt>
      <trkpt lat="41.908357" lon="-8.876025">
        <ele>12.123</ele>
        <time>2019-04-29T14:22:46Z</time>
      </trkpt>
      <trkpt lat="41.908802" lon="-8.876606">
        <ele>10.208</ele>
        <time>2019-04-29T14:23:02Z</time>
      </trkpt>
      <trkpt lat="41.909070" lon="-8.876935">
        <ele>8.368</ele>
        <time>2019-04-29T14:23:15Z</time>
      </trkpt>
      <trkpt lat="41.909328" lon="-8.876801">
        <ele>8.791</ele>
        <time>2019-04-29T14:23:25Z</time>
      </trkpt>
      <trkpt lat="41.909674" lon="-8.876351">
        <ele>8.737</ele>
        <time>2019-04-29T14:23:39Z</time>
      </trkpt>
      <trkpt lat="41.909921" lon="-8.875953">
        <ele>9.295</ele>
        <time>2019-04-29T14:23:51Z</time>
      </trkpt>
      <trkpt lat="41.910156" lon="-8.875984">
        <ele>9.783</ele>
        <time>2019-04-29T14:23:57Z</time>
      </trkpt>
      <trkpt lat="41.910196" lon="-8.876001">
        <ele>10.225</ele>
        <time>2019-04-29T14:23:58Z</time>
      </trkpt>
      <trkpt lat="41.910237" lon="-8.876023">
        <ele>10.215</ele>
        <time>2019-04-29T14:23:59Z</time>
      </trkpt>
      <trkpt lat="41.910381" lon="-8.876143">
        <ele>9.799</ele>
        <time>2019-04-29T14:24:03Z</time>
      </trkpt>
      <trkpt lat="41.910409" lon="-8.876181">
        <ele>9.723</ele>
        <time>2019-04-29T14:24:04Z</time>
      </trkpt>
      <trkpt lat="41.910437" lon="-8.876225">
        <ele>9.783</ele>
        <time>2019-04-29T14:24:05Z</time>
      </trkpt>
      <trkpt lat="41.910461" lon="-8.876271">
        <ele>9.711</ele>
        <time>2019-04-29T14:24:06Z</time>
      </trkpt>
      <trkpt lat="41.910479" lon="-8.876323">
        <ele>9.708</ele>
        <time>2019-04-29T14:24:07Z</time>
      </trkpt>
      <trkpt lat="41.910494" lon="-8.876378">
        <ele>9.755</ele>
        <time>2019-04-29T14:24:08Z</time>
      </trkpt>
      <trkpt lat="41.910505" lon="-8.876436">
        <ele>9.788</ele>
        <time>2019-04-29T14:24:09Z</time>
      </trkpt>
      <trkpt lat="41.910510" lon="-8.876495">
        <ele>9.724</ele>
        <time>2019-04-29T14:24:10Z</time>
      </trkpt>
      <trkpt lat="41.910507" lon="-8.876558">
        <ele>9.782</ele>
        <time>2019-04-29T14:24:11Z</time>
      </trkpt>
      <trkpt lat="41.910495" lon="-8.876623">
        <ele>9.290</ele>
        <time>2019-04-29T14:24:12Z</time>
      </trkpt>
      <trkpt lat="41.910476" lon="-8.876686">
        <ele>9.752</ele>
        <time>2019-04-29T14:24:13Z</time>
      </trkpt>
      <trkpt lat="41.910405" lon="-8.876929">
        <ele>9.212</ele>
        <time>2019-04-29T14:24:17Z</time>
      </trkpt>
      <trkpt lat="41.910420" lon="-8.877231">
        <ele>10.766</ele>
        <time>2019-04-29T14:24:23Z</time>
      </trkpt>
      <trkpt lat="41.910440" lon="-8.877324">
        <ele>10.752</ele>
        <time>2019-04-29T14:24:25Z</time>
      </trkpt>
      <trkpt lat="41.910807" lon="-8.877746">
        <ele>10.753</ele>
        <time>2019-04-29T14:24:40Z</time>
      </trkpt>
      <trkpt lat="41.910898" lon="-8.878144">
        <ele>11.608</ele>
        <time>2019-04-29T14:24:50Z</time>
      </trkpt>
      <trkpt lat="41.910908" lon="-8.878183">
        <ele>11.608</ele>
        <time>2019-04-29T14:24:51Z</time>
      </trkpt>
      <trkpt lat="41.911319" lon="-8.878437">
        <ele>11.138</ele>
        <time>2019-04-29T14:25:05Z</time>
      </trkpt>
      <trkpt lat="41.911636" lon="-8.878592">
        <ele>11.121</ele>
        <time>2019-04-29T14:25:18Z</time>
      </trkpt>
      <trkpt lat="41.911760" lon="-8.878991">
        <ele>9.767</ele>
        <time>2019-04-29T14:25:30Z</time>
      </trkpt>
      <trkpt lat="41.911864" lon="-8.879222">
        <ele>8.335</ele>
        <time>2019-04-29T14:25:42Z</time>
      </trkpt>
      <trkpt lat="41.911864" lon="-8.879167">
        <ele>8.313</ele>
        <time>2019-04-29T14:25:57Z</time>
      </trkpt>
      <trkpt lat="41.911845" lon="-8.879108">
        <ele>7.895</ele>
        <time>2019-04-29T14:26:01Z</time>
      </trkpt>
      <trkpt lat="41.911822" lon="-8.879059">
        <ele>8.395</ele>
        <time>2019-04-29T14:26:03Z</time>
      </trkpt>
      <trkpt lat="41.911709" lon="-8.878923">
        <ele>8.359</ele>
        <time>2019-04-29T14:26:13Z</time>
      </trkpt>
      <trkpt lat="41.911702" lon="-8.878905">
        <ele>8.318</ele>
        <time>2019-04-29T14:26:15Z</time>
      </trkpt>
      <trkpt lat="41.911642" lon="-8.878608">
        <ele>8.798</ele>
        <time>2019-04-29T14:26:26Z</time>
      </trkpt>
      <trkpt lat="41.911557" lon="-8.878258">
        <ele>11.117</ele>
        <time>2019-04-29T14:26:39Z</time>
      </trkpt>
      <trkpt lat="41.911544" lon="-8.878048">
        <ele>12.608</ele>
        <time>2019-04-29T14:26:50Z</time>
      </trkpt>
      <trkpt lat="41.911523" lon="-8.877711">
        <ele>15.054</ele>
        <time>2019-04-29T14:27:03Z</time>
      </trkpt>
      <trkpt lat="41.911531" lon="-8.877327">
        <ele>16.957</ele>
        <time>2019-04-29T14:27:19Z</time>
      </trkpt>
      <trkpt lat="41.911553" lon="-8.877218">
        <ele>17.933</ele>
        <time>2019-04-29T14:27:24Z</time>
      </trkpt>
      <trkpt lat="41.911648" lon="-8.877248">
        <ele>19.831</ele>
        <time>2019-04-29T14:27:30Z</time>
      </trkpt>
      <trkpt lat="41.911763" lon="-8.877305">
        <ele>22.769</ele>
        <time>2019-04-29T14:27:41Z</time>
      </trkpt>
      <trkpt lat="41.911823" lon="-8.877340">
        <ele>23.631</ele>
        <time>2019-04-29T14:27:46Z</time>
      </trkpt>
      <trkpt lat="41.911874" lon="-8.877378">
        <ele>24.651</ele>
        <time>2019-04-29T14:27:51Z</time>
      </trkpt>
      <trkpt lat="41.911991" lon="-8.877430">
        <ele>26.595</ele>
        <time>2019-04-29T14:28:02Z</time>
      </trkpt>
      <trkpt lat="41.912145" lon="-8.877489">
        <ele>30.457</ele>
        <time>2019-04-29T14:28:17Z</time>
      </trkpt>
      <trkpt lat="41.912320" lon="-8.877587">
        <ele>34.200</ele>
        <time>2019-04-29T14:28:32Z</time>
      </trkpt>
      <trkpt lat="41.912415" lon="-8.877648">
        <ele>36.120</ele>
        <time>2019-04-29T14:28:40Z</time>
      </trkpt>
      <trkpt lat="41.912439" lon="-8.877702">
        <ele>37.108</ele>
        <time>2019-04-29T14:28:44Z</time>
      </trkpt>
      <trkpt lat="41.912465" lon="-8.877708">
        <ele>37.678</ele>
        <time>2019-04-29T14:28:46Z</time>
      </trkpt>
      <trkpt lat="41.912503" lon="-8.877779">
        <ele>39.011</ele>
        <time>2019-04-29T14:28:51Z</time>
      </trkpt>
      <trkpt lat="41.912552" lon="-8.877840">
        <ele>39.557</ele>
        <time>2019-04-29T14:28:56Z</time>
      </trkpt>
      <trkpt lat="41.912658" lon="-8.878086">
        <ele>40.545</ele>
        <time>2019-04-29T14:29:12Z</time>
      </trkpt>
      <trkpt lat="41.912751" lon="-8.878330">
        <ele>44.813</ele>
        <time>2019-04-29T14:29:26Z</time>
      </trkpt>
      <trkpt lat="41.912757" lon="-8.878351">
        <ele>44.885</ele>
        <time>2019-04-29T14:29:27Z</time>
      </trkpt>
      <trkpt lat="41.912760" lon="-8.878448">
        <ele>45.335</ele>
        <time>2019-04-29T14:29:31Z</time>
      </trkpt>
      <trkpt lat="41.912900" lon="-8.878901">
        <ele>45.879</ele>
        <time>2019-04-29T14:29:49Z</time>
      </trkpt>
      <trkpt lat="41.913111" lon="-8.879243">
        <ele>45.393</ele>
        <time>2019-04-29T14:30:05Z</time>
      </trkpt>
      <trkpt lat="41.913230" lon="-8.879389">
        <ele>45.865</ele>
        <time>2019-04-29T14:30:13Z</time>
      </trkpt>
      <trkpt lat="41.913667" lon="-8.879435">
        <ele>45.321</ele>
        <time>2019-04-29T14:30:31Z</time>
      </trkpt>
      <trkpt lat="41.914100" lon="-8.879468">
        <ele>44.808</ele>
        <time>2019-04-29T14:30:48Z</time>
      </trkpt>
      <trkpt lat="41.914610" lon="-8.879406">
        <ele>43.812</ele>
        <time>2019-04-29T14:31:05Z</time>
      </trkpt>
      <trkpt lat="41.915203" lon="-8.879398">
        <ele>42.955</ele>
        <time>2019-04-29T14:31:22Z</time>
      </trkpt>
      <trkpt lat="41.915828" lon="-8.879489">
        <ele>43.851</ele>
        <time>2019-04-29T14:31:40Z</time>
      </trkpt>
      <trkpt lat="41.916378" lon="-8.879586">
        <ele>43.859</ele>
        <time>2019-04-29T14:31:57Z</time>
      </trkpt>
      <trkpt lat="41.916924" lon="-8.879674">
        <ele>45.817</ele>
        <time>2019-04-29T14:32:13Z</time>
      </trkpt>
      <trkpt lat="41.917799" lon="-8.879821">
        <ele>47.729</ele>
        <time>2019-04-29T14:32:36Z</time>
      </trkpt>
      <trkpt lat="41.918282" lon="-8.879897">
        <ele>49.199</ele>
        <time>2019-04-29T14:32:49Z</time>
      </trkpt>
      <trkpt lat="41.918852" lon="-8.880017">
        <ele>50.643</ele>
        <time>2019-04-29T14:33:04Z</time>
      </trkpt>
      <trkpt lat="41.919323" lon="-8.880082">
        <ele>51.567</ele>
        <time>2019-04-29T14:33:17Z</time>
      </trkpt>
      <trkpt lat="41.919759" lon="-8.880168">
        <ele>52.081</ele>
        <time>2019-04-29T14:33:29Z</time>
      </trkpt>
      <trkpt lat="41.919780" lon="-8.880201">
        <ele>52.019</ele>
        <time>2019-04-29T14:33:30Z</time>
      </trkpt>
      <trkpt lat="41.919790" lon="-8.880243">
        <ele>51.508</ele>
        <time>2019-04-29T14:33:31Z</time>
      </trkpt>
      <trkpt lat="41.919797" lon="-8.880280">
        <ele>51.059</ele>
        <time>2019-04-29T14:33:32Z</time>
      </trkpt>
      <trkpt lat="41.919812" lon="-8.880305">
        <ele>50.622</ele>
        <time>2019-04-29T14:33:33Z</time>
      </trkpt>
      <trkpt lat="41.919825" lon="-8.880317">
        <ele>50.688</ele>
        <time>2019-04-29T14:33:34Z</time>
      </trkpt>
      <trkpt lat="41.919829" lon="-8.880318">
        <ele>50.186</ele>
        <time>2019-04-29T14:33:51Z</time>
      </trkpt>
      <trkpt lat="41.919828" lon="-8.880309">
        <ele>49.664</ele>
        <time>2019-04-29T14:33:53Z</time>
      </trkpt>
      <trkpt lat="41.919825" lon="-8.880296">
        <ele>49.636</ele>
        <time>2019-04-29T14:33:54Z</time>
      </trkpt>
      <trkpt lat="41.919816" lon="-8.880286">
        <ele>49.666</ele>
        <time>2019-04-29T14:33:55Z</time>
      </trkpt>
      <trkpt lat="41.919807" lon="-8.880275">
        <ele>49.640</ele>
        <time>2019-04-29T14:33:56Z</time>
      </trkpt>
      <trkpt lat="41.919801" lon="-8.880260">
        <ele>49.696</ele>
        <time>2019-04-29T14:33:57Z</time>
      </trkpt>
      <trkpt lat="41.919797" lon="-8.880245">
        <ele>49.631</ele>
        <time>2019-04-29T14:33:58Z</time>
      </trkpt>
      <trkpt lat="41.919771" lon="-8.880173">
        <ele>50.124</ele>
        <time>2019-04-29T14:34:01Z</time>
      </trkpt>
      <trkpt lat="41.919777" lon="-8.880147">
        <ele>50.108</ele>
        <time>2019-04-29T14:34:02Z</time>
      </trkpt>
      <trkpt lat="41.919791" lon="-8.880139">
        <ele>50.132</ele>
        <time>2019-04-29T14:34:03Z</time>
      </trkpt>
      <trkpt lat="41.920051" lon="-8.880185">
        <ele>51.095</ele>
        <time>2019-04-29T14:34:13Z</time>
      </trkpt>
      <trkpt lat="41.920355" lon="-8.880253">
        <ele>51.071</ele>
        <time>2019-04-29T14:34:23Z</time>
      </trkpt>
      <trkpt lat="41.921001" lon="-8.880363">
        <ele>52.559</ele>
        <time>2019-04-29T14:34:42Z</time>
      </trkpt>
      <trkpt lat="41.921534" lon="-8.880456">
        <ele>54.917</ele>
        <time>2019-04-29T14:34:57Z</time>
      </trkpt>
      <trkpt lat="41.922141" lon="-8.880553">
        <ele>53.929</ele>
        <time>2019-04-29T14:35:13Z</time>
      </trkpt>
      <trkpt lat="41.922876" lon="-8.880684">
        <ele>54.469</ele>
        <time>2019-04-29T14:35:31Z</time>
      </trkpt>
      <trkpt lat="41.923671" lon="-8.880804">
        <ele>53.443</ele>
        <time>2019-04-29T14:35:47Z</time>
      </trkpt>
      <trkpt lat="41.924012" lon="-8.880868">
        <ele>52.554</ele>
        <time>2019-04-29T14:35:53Z</time>
      </trkpt>
      <trkpt lat="41.924070" lon="-8.880880">
        <ele>52.556</ele>
        <time>2019-04-29T14:35:54Z</time>
      </trkpt>
      <trkpt lat="41.924127" lon="-8.880888">
        <ele>52.511</ele>
        <time>2019-04-29T14:35:55Z</time>
      </trkpt>
      <trkpt lat="41.924795" lon="-8.880975">
        <ele>52.008</ele>
        <time>2019-04-29T14:36:06Z</time>
      </trkpt>
      <trkpt lat="41.925120" lon="-8.881043">
        <ele>51.528</ele>
        <time>2019-04-29T14:36:11Z</time>
      </trkpt>
      <trkpt lat="41.925186" lon="-8.881047">
        <ele>51.571</ele>
        <time>2019-04-29T14:36:12Z</time>
      </trkpt>
      <trkpt lat="41.925251" lon="-8.881052">
        <ele>51.037</ele>
        <time>2019-04-29T14:36:13Z</time>
      </trkpt>
      <trkpt lat="41.926409" lon="-8.881234">
        <ele>49.645</ele>
        <time>2019-04-29T14:36:31Z</time>
      </trkpt>
      <trkpt lat="41.927024" lon="-8.881337">
        <ele>50.123</ele>
        <time>2019-04-29T14:36:42Z</time>
      </trkpt>
      <trkpt lat="41.927078" lon="-8.881351">
        <ele>50.635</ele>
        <time>2019-04-29T14:36:43Z</time>
      </trkpt>
      <trkpt lat="41.928032" lon="-8.881494">
        <ele>51.555</ele>
        <time>2019-04-29T14:37:02Z</time>
      </trkpt>
      <trkpt lat="41.928080" lon="-8.881502">
        <ele>51.519</ele>
        <time>2019-04-29T14:37:03Z</time>
      </trkpt>
      <trkpt lat="41.928127" lon="-8.881511">
        <ele>51.576</ele>
        <time>2019-04-29T14:37:04Z</time>
      </trkpt>
      <trkpt lat="41.928894" lon="-8.881630">
        <ele>51.590</ele>
        <time>2019-04-29T14:37:20Z</time>
      </trkpt>
      <trkpt lat="41.928942" lon="-8.881639">
        <ele>51.019</ele>
        <time>2019-04-29T14:37:21Z</time>
      </trkpt>
      <trkpt lat="41.928988" lon="-8.881649">
        <ele>51.008</ele>
        <time>2019-04-29T14:37:22Z</time>
      </trkpt>
      <trkpt lat="41.929707" lon="-8.881771">
        <ele>52.020</ele>
        <time>2019-04-29T14:37:37Z</time>
      </trkpt>
      <trkpt lat="41.930399" lon="-8.881918">
        <ele>53.063</ele>
        <time>2019-04-29T14:37:51Z</time>
      </trkpt>
      <trkpt lat="41.930445" lon="-8.881936">
        <ele>53.439</ele>
        <time>2019-04-29T14:37:52Z</time>
      </trkpt>
      <trkpt lat="41.930492" lon="-8.881953">
        <ele>53.477</ele>
        <time>2019-04-29T14:37:53Z</time>
      </trkpt>
      <trkpt lat="41.930537" lon="-8.881970">
        <ele>53.465</ele>
        <time>2019-04-29T14:37:54Z</time>
      </trkpt>
      <trkpt lat="41.930579" lon="-8.881985">
        <ele>53.417</ele>
        <time>2019-04-29T14:37:55Z</time>
      </trkpt>
      <trkpt lat="41.930622" lon="-8.882004">
        <ele>53.467</ele>
        <time>2019-04-29T14:37:56Z</time>
      </trkpt>
      <trkpt lat="41.930988" lon="-8.882168">
        <ele>55.411</ele>
        <time>2019-04-29T14:38:04Z</time>
      </trkpt>
      <trkpt lat="41.931034" lon="-8.882191">
        <ele>55.472</ele>
        <time>2019-04-29T14:38:05Z</time>
      </trkpt>
      <trkpt lat="41.931081" lon="-8.882213">
        <ele>55.813</ele>
        <time>2019-04-29T14:38:06Z</time>
      </trkpt>
      <trkpt lat="41.931130" lon="-8.882236">
        <ele>55.814</ele>
        <time>2019-04-29T14:38:07Z</time>
      </trkpt>
      <trkpt lat="41.931181" lon="-8.882256">
        <ele>55.808</ele>
        <time>2019-04-29T14:38:08Z</time>
      </trkpt>
      <trkpt lat="41.932049" lon="-8.882662">
        <ele>56.870</ele>
        <time>2019-04-29T14:38:26Z</time>
      </trkpt>
      <trkpt lat="41.932757" lon="-8.883001">
        <ele>53.953</ele>
        <time>2019-04-29T14:38:41Z</time>
      </trkpt>
      <trkpt lat="41.933175" lon="-8.883190">
        <ele>51.089</ele>
        <time>2019-04-29T14:38:54Z</time>
      </trkpt>
      <trkpt lat="41.933655" lon="-8.883407">
        <ele>52.517</ele>
        <time>2019-04-29T14:39:07Z</time>
      </trkpt>
      <trkpt lat="41.934237" lon="-8.883710">
        <ele>53.915</ele>
        <time>2019-04-29T14:39:24Z</time>
      </trkpt>
      <trkpt lat="41.934723" lon="-8.883935">
        <ele>53.947</ele>
        <time>2019-04-29T14:39:38Z</time>
      </trkpt>
      <trkpt lat="41.935283" lon="-8.884196">
        <ele>53.437</ele>
        <time>2019-04-29T14:39:55Z</time>
      </trkpt>
      <trkpt lat="41.935866" lon="-8.884475">
        <ele>54.991</ele>
        <time>2019-04-29T14:40:12Z</time>
      </trkpt>
      <trkpt lat="41.936293" lon="-8.884694">
        <ele>55.872</ele>
        <time>2019-04-29T14:40:26Z</time>
      </trkpt>
      <trkpt lat="41.936737" lon="-8.884913">
        <ele>54.413</ele>
        <time>2019-04-29T14:40:42Z</time>
      </trkpt>
      <trkpt lat="41.937251" lon="-8.885054">
        <ele>53.914</ele>
        <time>2019-04-29T14:40:59Z</time>
      </trkpt>
      <trkpt lat="41.937339" lon="-8.885147">
        <ele>54.408</ele>
        <time>2019-04-29T14:41:03Z</time>
      </trkpt>
      <trkpt lat="41.937366" lon="-8.885161">
        <ele>54.480</ele>
        <time>2019-04-29T14:41:04Z</time>
      </trkpt>
      <trkpt lat="41.937395" lon="-8.885167">
        <ele>54.453</ele>
        <time>2019-04-29T14:41:05Z</time>
      </trkpt>
      <trkpt lat="41.937426" lon="-8.885163">
        <ele>54.459</ele>
        <time>2019-04-29T14:41:06Z</time>
      </trkpt>
      <trkpt lat="41.937455" lon="-8.885163">
        <ele>54.447</ele>
        <time>2019-04-29T14:41:07Z</time>
      </trkpt>
      <trkpt lat="41.937485" lon="-8.885162">
        <ele>54.445</ele>
        <time>2019-04-29T14:41:08Z</time>
      </trkpt>
      <trkpt lat="41.937511" lon="-8.885158">
        <ele>54.437</ele>
        <time>2019-04-29T14:41:09Z</time>
      </trkpt>
      <trkpt lat="41.937794" lon="-8.885117">
        <ele>53.927</ele>
        <time>2019-04-29T14:41:21Z</time>
      </trkpt>
      <trkpt lat="41.938015" lon="-8.885107">
        <ele>53.991</ele>
        <time>2019-04-29T14:41:30Z</time>
      </trkpt>
      <trkpt lat="41.938225" lon="-8.884857">
        <ele>53.089</ele>
        <time>2019-04-29T14:41:41Z</time>
      </trkpt>
      <trkpt lat="41.938646" lon="-8.884699">
        <ele>52.006</ele>
        <time>2019-04-29T14:41:54Z</time>
      </trkpt>
      <trkpt lat="41.939206" lon="-8.884530">
        <ele>53.026</ele>
        <time>2019-04-29T14:42:10Z</time>
      </trkpt>
      <trkpt lat="41.939883" lon="-8.884329">
        <ele>53.908</ele>
        <time>2019-04-29T14:42:29Z</time>
      </trkpt>
      <trkpt lat="41.940531" lon="-8.884168">
        <ele>53.961</ele>
        <time>2019-04-29T14:42:48Z</time>
      </trkpt>
      <trkpt lat="41.940722" lon="-8.884117">
        <ele>53.934</ele>
        <time>2019-04-29T14:43:00Z</time>
      </trkpt>
      <trkpt lat="41.940973" lon="-8.884050">
        <ele>53.950</ele>
        <time>2019-04-29T14:43:15Z</time>
      </trkpt>
      <trkpt lat="41.941221" lon="-8.883955">
        <ele>54.948</ele>
        <time>2019-04-29T14:43:27Z</time>
      </trkpt>
      <trkpt lat="41.941357" lon="-8.883864">
        <ele>54.986</ele>
        <time>2019-04-29T14:43:35Z</time>
      </trkpt>
      <trkpt lat="41.941377" lon="-8.883854">
        <ele>54.978</ele>
        <time>2019-04-29T14:43:36Z</time>
      </trkpt>
      <trkpt lat="41.941401" lon="-8.883842">
        <ele>54.968</ele>
        <time>2019-04-29T14:43:37Z</time>
      </trkpt>
      <trkpt lat="41.941465" lon="-8.883764">
        <ele>55.472</ele>
        <time>2019-04-29T14:43:40Z</time>
      </trkpt>
      <trkpt lat="41.941731" lon="-8.883520">
        <ele>54.417</ele>
        <time>2019-04-29T14:43:49Z</time>
      </trkpt>
      <trkpt lat="41.942488" lon="-8.882991">
        <ele>53.487</ele>
        <time>2019-04-29T14:44:10Z</time>
      </trkpt>
      <trkpt lat="41.943294" lon="-8.882427">
        <ele>53.915</ele>
        <time>2019-04-29T14:44:30Z</time>
      </trkpt>
      <trkpt lat="41.944036" lon="-8.881926">
        <ele>54.908</ele>
        <time>2019-04-29T14:44:49Z</time>
      </trkpt>
      <trkpt lat="41.944706" lon="-8.881647">
        <ele>55.814</ele>
        <time>2019-04-29T14:45:07Z</time>
      </trkpt>
      <trkpt lat="41.945322" lon="-8.881656">
        <ele>57.397</ele>
        <time>2019-04-29T14:45:22Z</time>
      </trkpt>
      <trkpt lat="41.946140" lon="-8.881932">
        <ele>54.443</ele>
        <time>2019-04-29T14:45:37Z</time>
      </trkpt>
      <trkpt lat="41.946908" lon="-8.882230">
        <ele>52.011</ele>
        <time>2019-04-29T14:45:54Z</time>
      </trkpt>
      <trkpt lat="41.946954" lon="-8.882244">
        <ele>51.599</ele>
        <time>2019-04-29T14:45:55Z</time>
      </trkpt>
      <trkpt lat="41.947821" lon="-8.882569">
        <ele>50.111</ele>
        <time>2019-04-29T14:46:13Z</time>
      </trkpt>
      <trkpt lat="41.948726" lon="-8.882917">
        <ele>47.711</ele>
        <time>2019-04-29T14:46:33Z</time>
      </trkpt>
      <trkpt lat="41.949515" lon="-8.883195">
        <ele>45.315</ele>
        <time>2019-04-29T14:46:50Z</time>
      </trkpt>
      <trkpt lat="41.949803" lon="-8.883212">
        <ele>44.389</ele>
        <time>2019-04-29T14:46:56Z</time>
      </trkpt>
      <trkpt lat="41.949850" lon="-8.883204">
        <ele>44.306</ele>
        <time>2019-04-29T14:46:57Z</time>
      </trkpt>
      <trkpt lat="41.950506" lon="-8.882986">
        <ele>42.426</ele>
        <time>2019-04-29T14:47:12Z</time>
      </trkpt>
      <trkpt lat="41.950548" lon="-8.882969">
        <ele>41.908</ele>
        <time>2019-04-29T14:47:13Z</time>
      </trkpt>
      <trkpt lat="41.950586" lon="-8.882945">
        <ele>41.951</ele>
        <time>2019-04-29T14:47:14Z</time>
      </trkpt>
      <trkpt lat="41.950701" lon="-8.882857">
        <ele>41.484</ele>
        <time>2019-04-29T14:47:18Z</time>
      </trkpt>
      <trkpt lat="41.950712" lon="-8.882880">
        <ele>42.460</ele>
        <time>2019-04-29T14:47:31Z</time>
      </trkpt>
      <trkpt lat="41.950729" lon="-8.882885">
        <ele>42.958</ele>
        <time>2019-04-29T14:47:48Z</time>
      </trkpt>
      <trkpt lat="41.950736" lon="-8.882890">
        <ele>42.986</ele>
        <time>2019-04-29T14:48:00Z</time>
      </trkpt>
      <trkpt lat="41.950741" lon="-8.882908">
        <ele>42.498</ele>
        <time>2019-04-29T14:48:02Z</time>
      </trkpt>
      <trkpt lat="41.950744" lon="-8.882933">
        <ele>42.498</ele>
        <time>2019-04-29T14:48:03Z</time>
      </trkpt>
      <trkpt lat="41.950742" lon="-8.882959">
        <ele>42.492</ele>
        <time>2019-04-29T14:48:04Z</time>
      </trkpt>
      <trkpt lat="41.950733" lon="-8.882989">
        <ele>42.442</ele>
        <time>2019-04-29T14:48:05Z</time>
      </trkpt>
      <trkpt lat="41.950718" lon="-8.883021">
        <ele>42.422</ele>
        <time>2019-04-29T14:48:06Z</time>
      </trkpt>
      <trkpt lat="41.950695" lon="-8.883048">
        <ele>42.414</ele>
        <time>2019-04-29T14:48:07Z</time>
      </trkpt>
      <trkpt lat="41.950668" lon="-8.883072">
        <ele>42.408</ele>
        <time>2019-04-29T14:48:08Z</time>
      </trkpt>
      <trkpt lat="41.950533" lon="-8.883163">
        <ele>41.917</ele>
        <time>2019-04-29T14:48:12Z</time>
      </trkpt>
      <trkpt lat="41.950361" lon="-8.883254">
        <ele>40.970</ele>
        <time>2019-04-29T14:48:17Z</time>
      </trkpt>
      <trkpt lat="41.950350" lon="-8.883292">
        <ele>40.526</ele>
        <time>2019-04-29T14:48:18Z</time>
      </trkpt>
      <trkpt lat="41.950359" lon="-8.883328">
        <ele>40.054</ele>
        <time>2019-04-29T14:48:19Z</time>
      </trkpt>
      <trkpt lat="41.950382" lon="-8.883347">
        <ele>40.062</ele>
        <time>2019-04-29T14:48:20Z</time>
      </trkpt>
      <trkpt lat="41.950413" lon="-8.883343">
        <ele>40.024</ele>
        <time>2019-04-29T14:48:21Z</time>
      </trkpt>
      <trkpt lat="41.950445" lon="-8.883331">
        <ele>39.524</ele>
        <time>2019-04-29T14:48:22Z</time>
      </trkpt>
      <trkpt lat="41.950482" lon="-8.883319">
        <ele>39.028</ele>
        <time>2019-04-29T14:48:23Z</time>
      </trkpt>
      <trkpt lat="41.950521" lon="-8.883309">
        <ele>39.052</ele>
        <time>2019-04-29T14:48:24Z</time>
      </trkpt>
      <trkpt lat="41.950564" lon="-8.883297">
        <ele>38.553</ele>
        <time>2019-04-29T14:48:25Z</time>
      </trkpt>
      <trkpt lat="41.950768" lon="-8.883242">
        <ele>37.108</ele>
        <time>2019-04-29T14:48:29Z</time>
      </trkpt>
      <trkpt lat="41.950819" lon="-8.883225">
        <ele>36.608</ele>
        <time>2019-04-29T14:48:30Z</time>
      </trkpt>
      <trkpt lat="41.950869" lon="-8.883209">
        <ele>36.668</ele>
        <time>2019-04-29T14:48:31Z</time>
      </trkpt>
      <trkpt lat="41.951066" lon="-8.883125">
        <ele>35.781</ele>
        <time>2019-04-29T14:48:35Z</time>
      </trkpt>
      <trkpt lat="41.951110" lon="-8.883092">
        <ele>35.267</ele>
        <time>2019-04-29T14:48:36Z</time>
      </trkpt>
      <trkpt lat="41.951780" lon="-8.882737">
        <ele>34.785</ele>
        <time>2019-04-29T14:48:52Z</time>
      </trkpt>
      <trkpt lat="41.952417" lon="-8.882652">
        <ele>32.373</ele>
        <time>2019-04-29T14:49:05Z</time>
      </trkpt>
      <trkpt lat="41.952495" lon="-8.882670">
        <ele>31.835</ele>
        <time>2019-04-29T14:49:06Z</time>
      </trkpt>
      <trkpt lat="41.952573" lon="-8.882696">
        <ele>31.395</ele>
        <time>2019-04-29T14:49:07Z</time>
      </trkpt>
      <trkpt lat="41.952648" lon="-8.882733">
        <ele>30.419</ele>
        <time>2019-04-29T14:49:08Z</time>
      </trkpt>
      <trkpt lat="41.952722" lon="-8.882772">
        <ele>29.931</ele>
        <time>2019-04-29T14:49:09Z</time>
      </trkpt>
      <trkpt lat="41.952796" lon="-8.882805">
        <ele>29.461</ele>
        <time>2019-04-29T14:49:10Z</time>
      </trkpt>
      <trkpt lat="41.953486" lon="-8.883144">
        <ele>25.607</ele>
        <time>2019-04-29T14:49:20Z</time>
      </trkpt>
      <trkpt lat="41.953755" lon="-8.883250">
        <ele>24.108</ele>
        <time>2019-04-29T14:49:24Z</time>
      </trkpt>
      <trkpt lat="41.953813" lon="-8.883304">
        <ele>24.186</ele>
        <time>2019-04-29T14:49:25Z</time>
      </trkpt>
      <trkpt lat="41.953862" lon="-8.883376">
        <ele>23.699</ele>
        <time>2019-04-29T14:49:26Z</time>
      </trkpt>
      <trkpt lat="41.953949" lon="-8.883542">
        <ele>22.285</ele>
        <time>2019-04-29T14:49:28Z</time>
      </trkpt>
      <trkpt lat="41.954000" lon="-8.883615">
        <ele>21.793</ele>
        <time>2019-04-29T14:49:29Z</time>
      </trkpt>
      <trkpt lat="41.954057" lon="-8.883676">
        <ele>21.211</ele>
        <time>2019-04-29T14:49:30Z</time>
      </trkpt>
      <trkpt lat="41.954323" lon="-8.883917">
        <ele>18.883</ele>
        <time>2019-04-29T14:49:35Z</time>
      </trkpt>
      <trkpt lat="41.954373" lon="-8.883950">
        <ele>18.473</ele>
        <time>2019-04-29T14:49:36Z</time>
      </trkpt>
      <trkpt lat="41.954469" lon="-8.883993">
        <ele>18.467</ele>
        <time>2019-04-29T14:49:38Z</time>
      </trkpt>
      <trkpt lat="41.954516" lon="-8.884004">
        <ele>17.949</ele>
        <time>2019-04-29T14:49:39Z</time>
      </trkpt>
      <trkpt lat="41.954972" lon="-8.884067">
        <ele>17.902</ele>
        <time>2019-04-29T14:49:51Z</time>
      </trkpt>
      <trkpt lat="41.955613" lon="-8.884154">
        <ele>19.822</ele>
        <time>2019-04-29T14:50:08Z</time>
      </trkpt>
      <trkpt lat="41.956259" lon="-8.884260">
        <ele>20.808</ele>
        <time>2019-04-29T14:50:26Z</time>
      </trkpt>
      <trkpt lat="41.956652" lon="-8.884335">
        <ele>22.777</ele>
        <time>2019-04-29T14:50:39Z</time>
      </trkpt>
      <trkpt lat="41.956880" lon="-8.884324">
        <ele>24.680</ele>
        <time>2019-04-29T14:50:49Z</time>
      </trkpt>
      <trkpt lat="41.956953" lon="-8.884327">
        <ele>24.686</ele>
        <time>2019-04-29T14:50:59Z</time>
      </trkpt>
      <trkpt lat="41.956934" lon="-8.884333">
        <ele>24.694</ele>
        <time>2019-04-29T14:51:27Z</time>
      </trkpt>
      <trkpt lat="41.956950" lon="-8.884327">
        <ele>23.252</ele>
        <time>2019-04-29T14:51:55Z</time>
      </trkpt>
      <trkpt lat="41.956952" lon="-8.884319">
        <ele>23.234</ele>
        <time>2019-04-29T14:52:20Z</time>
      </trkpt>
      <trkpt lat="41.956952" lon="-8.884316">
        <ele>24.644</ele>
        <time>2019-04-29T14:52:44Z</time>
      </trkpt>
      <trkpt lat="41.956956" lon="-8.884322">
        <ele>25.188</ele>
        <time>2019-04-29T14:52:53Z</time>
      </trkpt>
      <trkpt lat="41.956970" lon="-8.884334">
        <ele>25.147</ele>
        <time>2019-04-29T14:52:54Z</time>
      </trkpt>
      <trkpt lat="41.956989" lon="-8.884344">
        <ele>25.129</ele>
        <time>2019-04-29T14:52:55Z</time>
      </trkpt>
      <trkpt lat="41.957016" lon="-8.884345">
        <ele>25.121</ele>
        <time>2019-04-29T14:52:57Z</time>
      </trkpt>
      <trkpt lat="41.957246" lon="-8.884346">
        <ele>26.508</ele>
        <time>2019-04-29T14:53:08Z</time>
      </trkpt>
      <trkpt lat="41.957575" lon="-8.884352">
        <ele>27.547</ele>
        <time>2019-04-29T14:53:20Z</time>
      </trkpt>
      <trkpt lat="41.957908" lon="-8.884271">
        <ele>29.450</ele>
        <time>2019-04-29T14:53:32Z</time>
      </trkpt>
      <trkpt lat="41.958321" lon="-8.884313">
        <ele>31.856</ele>
        <time>2019-04-29T14:53:45Z</time>
      </trkpt>
      <trkpt lat="41.958845" lon="-8.884260">
        <ele>34.714</ele>
        <time>2019-04-29T14:53:57Z</time>
      </trkpt>
      <trkpt lat="41.959329" lon="-8.884173">
        <ele>37.612</ele>
        <time>2019-04-29T14:54:10Z</time>
      </trkpt>
      <trkpt lat="41.959743" lon="-8.884091">
        <ele>40.094</ele>
        <time>2019-04-29T14:54:22Z</time>
      </trkpt>
      <trkpt lat="41.960055" lon="-8.884200">
        <ele>40.064</ele>
        <time>2019-04-29T14:54:30Z</time>
      </trkpt>
      <trkpt lat="41.960097" lon="-8.884192">
        <ele>40.548</ele>
        <time>2019-04-29T14:54:31Z</time>
      </trkpt>
      <trkpt lat="41.960135" lon="-8.884178">
        <ele>40.593</ele>
        <time>2019-04-29T14:54:32Z</time>
      </trkpt>
      <trkpt lat="41.960173" lon="-8.884159">
        <ele>40.965</ele>
        <time>2019-04-29T14:54:33Z</time>
      </trkpt>
      <trkpt lat="41.960211" lon="-8.884138">
        <ele>40.521</ele>
        <time>2019-04-29T14:54:34Z</time>
      </trkpt>
      <trkpt lat="41.960661" lon="-8.883917">
        <ele>41.408</ele>
        <time>2019-04-29T14:54:47Z</time>
      </trkpt>
      <trkpt lat="41.960934" lon="-8.883885">
        <ele>43.832</ele>
        <time>2019-04-29T14:54:58Z</time>
      </trkpt>
      <trkpt lat="41.961254" lon="-8.883881">
        <ele>44.335</ele>
        <time>2019-04-29T14:55:08Z</time>
      </trkpt>
      <trkpt lat="41.961503" lon="-8.883917">
        <ele>45.351</ele>
        <time>2019-04-29T14:55:14Z</time>
      </trkpt>
      <trkpt lat="41.961959" lon="-8.883958">
        <ele>45.399</ele>
        <time>2019-04-29T14:55:23Z</time>
      </trkpt>
      <trkpt lat="41.962591" lon="-8.884186">
        <ele>41.927</ele>
        <time>2019-04-29T14:55:33Z</time>
      </trkpt>
      <trkpt lat="41.963407" lon="-8.884361">
        <ele>40.019</ele>
        <time>2019-04-29T14:55:45Z</time>
      </trkpt>
      <trkpt lat="41.964103" lon="-8.884365">
        <ele>40.059</ele>
        <time>2019-04-29T14:55:56Z</time>
      </trkpt>
      <trkpt lat="41.964277" lon="-8.884342">
        <ele>40.553</ele>
        <time>2019-04-29T14:55:59Z</time>
      </trkpt>
      <trkpt lat="41.964446" lon="-8.884293">
        <ele>40.522</ele>
        <time>2019-04-29T14:56:02Z</time>
      </trkpt>
      <trkpt lat="41.964497" lon="-8.884292">
        <ele>40.962</ele>
        <time>2019-04-29T14:56:03Z</time>
      </trkpt>
      <trkpt lat="41.964899" lon="-8.884187">
        <ele>41.908</ele>
        <time>2019-04-29T14:56:14Z</time>
      </trkpt>
      <trkpt lat="41.965271" lon="-8.884170">
        <ele>40.908</ele>
        <time>2019-04-29T14:56:26Z</time>
      </trkpt>
      <trkpt lat="41.965608" lon="-8.884323">
        <ele>41.935</ele>
        <time>2019-04-29T14:56:37Z</time>
      </trkpt>
      <trkpt lat="41.965829" lon="-8.884316">
        <ele>41.458</ele>
        <time>2019-04-29T14:56:43Z</time>
      </trkpt>
      <trkpt lat="41.966317" lon="-8.884177">
        <ele>42.464</ele>
        <time>2019-04-29T14:56:56Z</time>
      </trkpt>
      <trkpt lat="41.966691" lon="-8.884086">
        <ele>44.872</ele>
        <time>2019-04-29T14:57:07Z</time>
      </trkpt>
      <trkpt lat="41.966731" lon="-8.884071">
        <ele>44.350</ele>
        <time>2019-04-29T14:57:08Z</time>
      </trkpt>
      <trkpt lat="41.967239" lon="-8.883858">
        <ele>42.982</ele>
        <time>2019-04-29T14:57:20Z</time>
      </trkpt>
      <trkpt lat="41.967283" lon="-8.883846">
        <ele>42.952</ele>
        <time>2019-04-29T14:57:21Z</time>
      </trkpt>
      <trkpt lat="41.967674" lon="-8.883860">
        <ele>42.426</ele>
        <time>2019-04-29T14:57:29Z</time>
      </trkpt>
      <trkpt lat="41.967735" lon="-8.883878">
        <ele>41.997</ele>
        <time>2019-04-29T14:57:30Z</time>
      </trkpt>
      <trkpt lat="41.967790" lon="-8.883890">
        <ele>42.423</ele>
        <time>2019-04-29T14:57:31Z</time>
      </trkpt>
      <trkpt lat="41.967838" lon="-8.883895">
        <ele>42.425</ele>
        <time>2019-04-29T14:57:32Z</time>
      </trkpt>
      <trkpt lat="41.967878" lon="-8.883894">
        <ele>42.408</ele>
        <time>2019-04-29T14:57:33Z</time>
      </trkpt>
      <trkpt lat="41.968156" lon="-8.883869">
        <ele>43.882</ele>
        <time>2019-04-29T14:57:43Z</time>
      </trkpt>
      <trkpt lat="41.968524" lon="-8.883903">
        <ele>47.755</ele>
        <time>2019-04-29T14:57:53Z</time>
      </trkpt>
      <trkpt lat="41.969031" lon="-8.883986">
        <ele>49.691</ele>
        <time>2019-04-29T14:58:07Z</time>
      </trkpt>
      <trkpt lat="41.969725" lon="-8.884014">
        <ele>46.789</ele>
        <time>2019-04-29T14:58:25Z</time>
      </trkpt>
      <trkpt lat="41.970169" lon="-8.884052">
        <ele>46.227</ele>
        <time>2019-04-29T14:58:38Z</time>
      </trkpt>
      <trkpt lat="41.970724" lon="-8.884119">
        <ele>45.869</ele>
        <time>2019-04-29T14:58:54Z</time>
      </trkpt>
      <trkpt lat="41.971278" lon="-8.884209">
        <ele>46.779</ele>
        <time>2019-04-29T14:59:10Z</time>
      </trkpt>
      <trkpt lat="41.971363" lon="-8.884268">
        <ele>46.713</ele>
        <time>2019-04-29T14:59:13Z</time>
      </trkpt>
      <trkpt lat="41.971398" lon="-8.884354">
        <ele>46.228</ele>
        <time>2019-04-29T14:59:15Z</time>
      </trkpt>
      <trkpt lat="41.971431" lon="-8.884379">
        <ele>46.289</ele>
        <time>2019-04-29T14:59:16Z</time>
      </trkpt>
      <trkpt lat="41.971470" lon="-8.884388">
        <ele>46.217</ele>
        <time>2019-04-29T14:59:17Z</time>
      </trkpt>
      <trkpt lat="41.971813" lon="-8.884543">
        <ele>47.208</ele>
        <time>2019-04-29T14:59:27Z</time>
      </trkpt>
      <trkpt lat="41.971925" lon="-8.884432">
        <ele>47.225</ele>
        <time>2019-04-29T14:59:31Z</time>
      </trkpt>
      <trkpt lat="41.971959" lon="-8.884421">
        <ele>47.248</ele>
        <time>2019-04-29T14:59:32Z</time>
      </trkpt>
      <trkpt lat="41.972111" lon="-8.884326">
        <ele>46.224</ele>
        <time>2019-04-29T14:59:37Z</time>
      </trkpt>
      <trkpt lat="41.972145" lon="-8.884328">
        <ele>46.722</ele>
        <time>2019-04-29T14:59:38Z</time>
      </trkpt>
      <trkpt lat="41.972180" lon="-8.884333">
        <ele>46.760</ele>
        <time>2019-04-29T14:59:39Z</time>
      </trkpt>
      <trkpt lat="41.972665" lon="-8.884353">
        <ele>49.182</ele>
        <time>2019-04-29T14:59:53Z</time>
      </trkpt>
      <trkpt lat="41.973320" lon="-8.884406">
        <ele>51.022</ele>
        <time>2019-04-29T15:00:11Z</time>
      </trkpt>
      <trkpt lat="41.973917" lon="-8.884463">
        <ele>52.566</ele>
        <time>2019-04-29T15:00:28Z</time>
      </trkpt>
      <trkpt lat="41.974425" lon="-8.884513">
        <ele>52.044</ele>
        <time>2019-04-29T15:00:42Z</time>
      </trkpt>
      <trkpt lat="41.975179" lon="-8.884604">
        <ele>51.505</ele>
        <time>2019-04-29T15:01:01Z</time>
      </trkpt>
      <trkpt lat="41.975920" lon="-8.884679">
        <ele>50.115</ele>
        <time>2019-04-29T15:01:18Z</time>
      </trkpt>
      <trkpt lat="41.976720" lon="-8.884773">
        <ele>48.208</ele>
        <time>2019-04-29T15:01:36Z</time>
      </trkpt>
      <trkpt lat="41.976809" lon="-8.884782">
        <ele>48.237</ele>
        <time>2019-04-29T15:01:38Z</time>
      </trkpt>
      <trkpt lat="41.977477" lon="-8.884862">
        <ele>47.780</ele>
        <time>2019-04-29T15:01:53Z</time>
      </trkpt>
      <trkpt lat="41.978203" lon="-8.884938">
        <ele>49.176</ele>
        <time>2019-04-29T15:02:10Z</time>
      </trkpt>
      <trkpt lat="41.978885" lon="-8.884912">
        <ele>50.184</ele>
        <time>2019-04-29T15:02:26Z</time>
      </trkpt>
      <trkpt lat="41.979723" lon="-8.884821">
        <ele>49.632</ele>
        <time>2019-04-29T15:02:45Z</time>
      </trkpt>
      <trkpt lat="41.980284" lon="-8.884761">
        <ele>50.124</ele>
        <time>2019-04-29T15:02:58Z</time>
      </trkpt>
      <trkpt lat="41.980762" lon="-8.884714">
        <ele>50.634</ele>
        <time>2019-04-29T15:03:09Z</time>
      </trkpt>
      <trkpt lat="41.981540" lon="-8.884627">
        <ele>51.538</ele>
        <time>2019-04-29T15:03:27Z</time>
      </trkpt>
      <trkpt lat="41.982275" lon="-8.884557">
        <ele>51.035</ele>
        <time>2019-04-29T15:03:44Z</time>
      </trkpt>
      <trkpt lat="41.983091" lon="-8.884469">
        <ele>50.186</ele>
        <time>2019-04-29T15:04:02Z</time>
      </trkpt>
      <trkpt lat="41.984061" lon="-8.884376">
        <ele>50.614</ele>
        <time>2019-04-29T15:04:23Z</time>
      </trkpt>
      <trkpt lat="41.984825" lon="-8.884300">
        <ele>50.108</ele>
        <time>2019-04-29T15:04:40Z</time>
      </trkpt>
      <trkpt lat="41.985618" lon="-8.884225">
        <ele>50.686</ele>
        <time>2019-04-29T15:04:57Z</time>
      </trkpt>
      <trkpt lat="41.986359" lon="-8.884164">
        <ele>49.119</ele>
        <time>2019-04-29T15:05:14Z</time>
      </trkpt>
      <trkpt lat="41.987173" lon="-8.884100">
        <ele>49.655</ele>
        <time>2019-04-29T15:05:32Z</time>
      </trkpt>
      <trkpt lat="41.987390" lon="-8.884050">
        <ele>48.653</ele>
        <time>2019-04-29T15:05:37Z</time>
      </trkpt>
      <trkpt lat="41.987431" lon="-8.884064">
        <ele>49.171</ele>
        <time>2019-04-29T15:05:38Z</time>
      </trkpt>
      <trkpt lat="41.987469" lon="-8.884090">
        <ele>49.143</ele>
        <time>2019-04-29T15:05:39Z</time>
      </trkpt>
      <trkpt lat="41.987506" lon="-8.884112">
        <ele>49.163</ele>
        <time>2019-04-29T15:05:40Z</time>
      </trkpt>
      <trkpt lat="41.987549" lon="-8.884111">
        <ele>49.167</ele>
        <time>2019-04-29T15:05:41Z</time>
      </trkpt>
      <trkpt lat="41.987592" lon="-8.884099">
        <ele>49.159</ele>
        <time>2019-04-29T15:05:42Z</time>
      </trkpt>
      <trkpt lat="41.987632" lon="-8.884105">
        <ele>49.103</ele>
        <time>2019-04-29T15:05:43Z</time>
      </trkpt>
      <trkpt lat="41.987668" lon="-8.884131">
        <ele>49.123</ele>
        <time>2019-04-29T15:05:44Z</time>
      </trkpt>
      <trkpt lat="41.987705" lon="-8.884156">
        <ele>48.608</ele>
        <time>2019-04-29T15:05:45Z</time>
      </trkpt>
      <trkpt lat="41.987749" lon="-8.884158">
        <ele>48.658</ele>
        <time>2019-04-29T15:05:46Z</time>
      </trkpt>
      <trkpt lat="41.987791" lon="-8.884144">
        <ele>48.611</ele>
        <time>2019-04-29T15:05:47Z</time>
      </trkpt>
      <trkpt lat="41.987829" lon="-8.884113">
        <ele>48.257</ele>
        <time>2019-04-29T15:05:48Z</time>
      </trkpt>
      <trkpt lat="41.987856" lon="-8.884062">
        <ele>48.295</ele>
        <time>2019-04-29T15:05:49Z</time>
      </trkpt>
      <trkpt lat="41.987875" lon="-8.884009">
        <ele>48.213</ele>
        <time>2019-04-29T15:05:50Z</time>
      </trkpt>
      <trkpt lat="41.987905" lon="-8.883966">
        <ele>48.255</ele>
        <time>2019-04-29T15:05:51Z</time>
      </trkpt>
      <trkpt lat="41.987946" lon="-8.883943">
        <ele>47.735</ele>
        <time>2019-04-29T15:05:52Z</time>
      </trkpt>
      <trkpt lat="41.988196" lon="-8.883790">
        <ele>47.219</ele>
        <time>2019-04-29T15:05:58Z</time>
      </trkpt>
      <trkpt lat="41.988305" lon="-8.883680">
        <ele>47.779</ele>
        <time>2019-04-29T15:06:01Z</time>
      </trkpt>
      <trkpt lat="41.988327" lon="-8.883625">
        <ele>47.705</ele>
        <time>2019-04-29T15:06:02Z</time>
      </trkpt>
      <trkpt lat="41.988352" lon="-8.883571">
        <ele>47.725</ele>
        <time>2019-04-29T15:06:03Z</time>
      </trkpt>
      <trkpt lat="41.988388" lon="-8.883530">
        <ele>47.708</ele>
        <time>2019-04-29T15:06:04Z</time>
      </trkpt>
      <trkpt lat="41.988430" lon="-8.883499">
        <ele>47.280</ele>
        <time>2019-04-29T15:06:05Z</time>
      </trkpt>
      <trkpt lat="41.988471" lon="-8.883472">
        <ele>47.293</ele>
        <time>2019-04-29T15:06:06Z</time>
      </trkpt>
      <trkpt lat="41.989280" lon="-8.882877">
        <ele>46.289</ele>
        <time>2019-04-29T15:06:25Z</time>
      </trkpt>
      <trkpt lat="41.990065" lon="-8.882303">
        <ele>47.717</ele>
        <time>2019-04-29T15:06:44Z</time>
      </trkpt>
      <trkpt lat="41.990839" lon="-8.881750">
        <ele>50.665</ele>
        <time>2019-04-29T15:07:05Z</time>
      </trkpt>
      <trkpt lat="41.991341" lon="-8.881396">
        <ele>51.017</ele>
        <time>2019-04-29T15:07:18Z</time>
      </trkpt>
      <trkpt lat="41.991431" lon="-8.881325">
        <ele>51.537</ele>
        <time>2019-04-29T15:07:20Z</time>
      </trkpt>
      <trkpt lat="41.992150" lon="-8.880802">
        <ele>47.781</ele>
        <time>2019-04-29T15:07:33Z</time>
      </trkpt>
      <trkpt lat="41.992900" lon="-8.880271">
        <ele>45.823</ele>
        <time>2019-04-29T15:07:49Z</time>
      </trkpt>
      <trkpt lat="41.993254" lon="-8.880183">
        <ele>46.283</ele>
        <time>2019-04-29T15:08:01Z</time>
      </trkpt>
      <trkpt lat="41.993312" lon="-8.880186">
        <ele>45.311</ele>
        <time>2019-04-29T15:08:02Z</time>
      </trkpt>
      <trkpt lat="41.993374" lon="-8.880183">
        <ele>44.808</ele>
        <time>2019-04-29T15:08:03Z</time>
      </trkpt>
      <trkpt lat="41.993975" lon="-8.880132">
        <ele>43.855</ele>
        <time>2019-04-29T15:08:16Z</time>
      </trkpt>
      <trkpt lat="41.994670" lon="-8.880282">
        <ele>40.948</ele>
        <time>2019-04-29T15:08:30Z</time>
      </trkpt>
      <trkpt lat="41.994963" lon="-8.880335">
        <ele>39.554</ele>
        <time>2019-04-29T15:08:35Z</time>
      </trkpt>
      <trkpt lat="41.995766" lon="-8.880113">
        <ele>33.712</ele>
        <time>2019-04-29T15:08:47Z</time>
      </trkpt>
      <trkpt lat="41.996734" lon="-8.879448">
        <ele>29.430</ele>
        <time>2019-04-29T15:09:03Z</time>
      </trkpt>
      <trkpt lat="41.997610" lon="-8.878999">
        <ele>25.152</ele>
        <time>2019-04-29T15:09:17Z</time>
      </trkpt>
      <trkpt lat="41.998005" lon="-8.878900">
        <ele>22.782</ele>
        <time>2019-04-29T15:09:22Z</time>
      </trkpt>
      <trkpt lat="41.998079" lon="-8.878856">
        <ele>22.236</ele>
        <time>2019-04-29T15:09:23Z</time>
      </trkpt>
      <trkpt lat="41.998141" lon="-8.878791">
        <ele>21.759</ele>
        <time>2019-04-29T15:09:24Z</time>
      </trkpt>
      <trkpt lat="41.998251" lon="-8.878654">
        <ele>21.203</ele>
        <time>2019-04-29T15:09:26Z</time>
      </trkpt>
      <trkpt lat="41.998310" lon="-8.878603">
        <ele>20.823</ele>
        <time>2019-04-29T15:09:27Z</time>
      </trkpt>
      <trkpt lat="41.998370" lon="-8.878564">
        <ele>20.808</ele>
        <time>2019-04-29T15:09:28Z</time>
      </trkpt>
      <trkpt lat="41.998431" lon="-8.878535">
        <ele>20.818</ele>
        <time>2019-04-29T15:09:29Z</time>
      </trkpt>
      <trkpt lat="41.998491" lon="-8.878512">
        <ele>20.811</ele>
        <time>2019-04-29T15:09:30Z</time>
      </trkpt>
      <trkpt lat="41.998978" lon="-8.878266">
        <ele>20.867</ele>
        <time>2019-04-29T15:09:39Z</time>
      </trkpt>
      <trkpt lat="41.999025" lon="-8.878225">
        <ele>20.875</ele>
        <time>2019-04-29T15:09:40Z</time>
      </trkpt>
      <trkpt lat="41.999170" lon="-8.878101">
        <ele>20.843</ele>
        <time>2019-04-29T15:09:43Z</time>
      </trkpt>
      <trkpt lat="41.999222" lon="-8.878074">
        <ele>20.845</ele>
        <time>2019-04-29T15:09:44Z</time>
      </trkpt>
      <trkpt lat="41.999818" lon="-8.877856">
        <ele>18.445</ele>
        <time>2019-04-29T15:09:54Z</time>
      </trkpt>
      <trkpt lat="41.999872" lon="-8.877811">
        <ele>17.919</ele>
        <time>2019-04-29T15:09:55Z</time>
      </trkpt>
      <trkpt lat="41.999913" lon="-8.877749">
        <ele>17.436</ele>
        <time>2019-04-29T15:09:56Z</time>
      </trkpt>
      <trkpt lat="41.999937" lon="-8.877675">
        <ele>16.917</ele>
        <time>2019-04-29T15:09:57Z</time>
      </trkpt>
      <trkpt lat="41.999950" lon="-8.877599">
        <ele>16.418</ele>
        <time>2019-04-29T15:09:58Z</time>
      </trkpt>
      <trkpt lat="41.999962" lon="-8.877525">
        <ele>16.008</ele>
        <time>2019-04-29T15:09:59Z</time>
      </trkpt>
      <trkpt lat="41.999980" lon="-8.877462">
        <ele>16.036</ele>
        <time>2019-04-29T15:10:00Z</time>
      </trkpt>
      <trkpt lat="42.000010" lon="-8.877412">
        <ele>15.549</ele>
        <time>2019-04-29T15:10:01Z</time>
      </trkpt>
      <trkpt lat="42.000046" lon="-8.877370">
        <ele>15.565</ele>
        <time>2019-04-29T15:10:02Z</time>
      </trkpt>
      <trkpt lat="42.000086" lon="-8.877340">
        <ele>15.563</ele>
        <time>2019-04-29T15:10:03Z</time>
      </trkpt>
      <trkpt lat="42.000127" lon="-8.877313">
        <ele>15.531</ele>
        <time>2019-04-29T15:10:04Z</time>
      </trkpt>
      <trkpt lat="42.000176" lon="-8.877289">
        <ele>15.543</ele>
        <time>2019-04-29T15:10:05Z</time>
      </trkpt>
      <trkpt lat="42.000227" lon="-8.877271">
        <ele>15.593</ele>
        <time>2019-04-29T15:10:06Z</time>
      </trkpt>
      <trkpt lat="42.000358" lon="-8.877229">
        <ele>15.517</ele>
        <time>2019-04-29T15:10:09Z</time>
      </trkpt>
      <trkpt lat="42.000400" lon="-8.877227">
        <ele>15.593</ele>
        <time>2019-04-29T15:10:10Z</time>
      </trkpt>
      <trkpt lat="42.000485" lon="-8.877231">
        <ele>15.565</ele>
        <time>2019-04-29T15:10:12Z</time>
      </trkpt>
      <trkpt lat="42.000523" lon="-8.877231">
        <ele>15.521</ele>
        <time>2019-04-29T15:10:13Z</time>
      </trkpt>
      <trkpt lat="42.000827" lon="-8.877106">
        <ele>16.408</ele>
        <time>2019-04-29T15:10:23Z</time>
      </trkpt>
      <trkpt lat="42.001221" lon="-8.877029">
        <ele>17.962</ele>
        <time>2019-04-29T15:10:33Z</time>
      </trkpt>
      <trkpt lat="42.001426" lon="-8.876912">
        <ele>17.955</ele>
        <time>2019-04-29T15:10:38Z</time>
      </trkpt>
      <trkpt lat="42.001476" lon="-8.876898">
        <ele>17.991</ele>
        <time>2019-04-29T15:10:39Z</time>
      </trkpt>
      <trkpt lat="42.001530" lon="-8.876890">
        <ele>17.969</ele>
        <time>2019-04-29T15:10:40Z</time>
      </trkpt>
      <trkpt lat="42.001741" lon="-8.876874">
        <ele>16.917</ele>
        <time>2019-04-29T15:10:44Z</time>
      </trkpt>
      <trkpt lat="42.001787" lon="-8.876838">
        <ele>16.089</ele>
        <time>2019-04-29T15:10:45Z</time>
      </trkpt>
      <trkpt lat="42.002080" lon="-8.876613">
        <ele>12.639</ele>
        <time>2019-04-29T15:10:50Z</time>
      </trkpt>
      <trkpt lat="42.002160" lon="-8.876588">
        <ele>11.673</ele>
        <time>2019-04-29T15:10:51Z</time>
      </trkpt>
      <trkpt lat="42.002244" lon="-8.876579">
        <ele>11.139</ele>
        <time>2019-04-29T15:10:52Z</time>
      </trkpt>
      <trkpt lat="42.002333" lon="-8.876585">
        <ele>10.701</ele>
        <time>2019-04-29T15:10:53Z</time>
      </trkpt>
      <trkpt lat="42.002422" lon="-8.876588">
        <ele>9.721</ele>
        <time>2019-04-29T15:10:54Z</time>
      </trkpt>
      <trkpt lat="42.002509" lon="-8.876590">
        <ele>8.708</ele>
        <time>2019-04-29T15:10:55Z</time>
      </trkpt>
      <trkpt lat="42.002595" lon="-8.876599">
        <ele>8.396</ele>
        <time>2019-04-29T15:10:56Z</time>
      </trkpt>
      <trkpt lat="42.002677" lon="-8.876615">
        <ele>7.359</ele>
        <time>2019-04-29T15:10:57Z</time>
      </trkpt>
      <trkpt lat="42.002753" lon="-8.876641">
        <ele>6.855</ele>
        <time>2019-04-29T15:10:58Z</time>
      </trkpt>
      <trkpt lat="42.002822" lon="-8.876673">
        <ele>6.333</ele>
        <time>2019-04-29T15:10:59Z</time>
      </trkpt>
      <trkpt lat="42.003241" lon="-8.876953">
        <ele>3.061</ele>
        <time>2019-04-29T15:11:07Z</time>
      </trkpt>
      <trkpt lat="42.003322" lon="-8.877031">
        <ele>2.033</ele>
        <time>2019-04-29T15:11:09Z</time>
      </trkpt>
      <trkpt lat="42.003663" lon="-8.877424">
        <ele>4.933</ele>
        <time>2019-04-29T15:11:21Z</time>
      </trkpt>
      <trkpt lat="42.003820" lon="-8.877632">
        <ele>9.237</ele>
        <time>2019-04-29T15:11:31Z</time>
      </trkpt>
      <trkpt lat="42.003966" lon="-8.877859">
        <ele>11.632</ele>
        <time>2019-04-29T15:11:41Z</time>
      </trkpt>
      <trkpt lat="42.004046" lon="-8.877971">
        <ele>12.692</ele>
        <time>2019-04-29T15:11:46Z</time>
      </trkpt>
      <trkpt lat="42.004059" lon="-8.877995">
        <ele>13.111</ele>
        <time>2019-04-29T15:11:47Z</time>
      </trkpt>
      <trkpt lat="42.004072" lon="-8.878020">
        <ele>13.608</ele>
        <time>2019-04-29T15:11:48Z</time>
      </trkpt>
      <trkpt lat="42.004081" lon="-8.878048">
        <ele>14.046</ele>
        <time>2019-04-29T15:11:49Z</time>
      </trkpt>
      <trkpt lat="42.004083" lon="-8.878093">
        <ele>15.059</ele>
        <time>2019-04-29T15:11:50Z</time>
      </trkpt>
      <trkpt lat="42.004087" lon="-8.878119">
        <ele>15.585</ele>
        <time>2019-04-29T15:11:51Z</time>
      </trkpt>
      <trkpt lat="42.004094" lon="-8.878139">
        <ele>15.513</ele>
        <time>2019-04-29T15:11:52Z</time>
      </trkpt>
      <trkpt lat="42.004099" lon="-8.878151">
        <ele>15.561</ele>
        <time>2019-04-29T15:11:53Z</time>
      </trkpt>
      <trkpt lat="42.004104" lon="-8.878167">
        <ele>15.573</ele>
        <time>2019-04-29T15:11:54Z</time>
      </trkpt>
      <trkpt lat="42.004110" lon="-8.878195">
        <ele>15.523</ele>
        <time>2019-04-29T15:11:55Z</time>
      </trkpt>
      <trkpt lat="42.004119" lon="-8.878233">
        <ele>15.557</ele>
        <time>2019-04-29T15:11:56Z</time>
      </trkpt>
      <trkpt lat="42.004292" lon="-8.878621">
        <ele>14.069</ele>
        <time>2019-04-29T15:12:06Z</time>
      </trkpt>
      <trkpt lat="42.004434" lon="-8.879222">
        <ele>14.004</ele>
        <time>2019-04-29T15:12:19Z</time>
      </trkpt>
      <trkpt lat="42.004725" lon="-8.879770">
        <ele>15.024</ele>
        <time>2019-04-29T15:12:32Z</time>
      </trkpt>
      <trkpt lat="42.005164" lon="-8.879994">
        <ele>15.008</ele>
        <time>2019-04-29T15:12:46Z</time>
      </trkpt>
      <trkpt lat="42.005376" lon="-8.880041">
        <ele>14.089</ele>
        <time>2019-04-29T15:12:51Z</time>
      </trkpt>
      <trkpt lat="42.005957" lon="-8.880369">
        <ele>14.012</ele>
        <time>2019-04-29T15:13:06Z</time>
      </trkpt>
      <trkpt lat="42.006492" lon="-8.880689">
        <ele>14.078</ele>
        <time>2019-04-29T15:13:21Z</time>
      </trkpt>
      <trkpt lat="42.007127" lon="-8.880979">
        <ele>14.056</ele>
        <time>2019-04-29T15:13:38Z</time>
      </trkpt>
      <trkpt lat="42.007679" lon="-8.881188">
        <ele>15.514</ele>
        <time>2019-04-29T15:13:55Z</time>
      </trkpt>
      <trkpt lat="42.008124" lon="-8.881502">
        <ele>14.516</ele>
        <time>2019-04-29T15:14:08Z</time>
      </trkpt>
      <trkpt lat="42.008677" lon="-8.881757">
        <ele>13.696</ele>
        <time>2019-04-29T15:14:23Z</time>
      </trkpt>
      <trkpt lat="42.008713" lon="-8.881785">
        <ele>13.690</ele>
        <time>2019-04-29T15:14:24Z</time>
      </trkpt>
      <trkpt lat="42.009301" lon="-8.882028">
        <ele>13.616</ele>
        <time>2019-04-29T15:14:39Z</time>
      </trkpt>
      <trkpt lat="42.009832" lon="-8.882155">
        <ele>13.176</ele>
        <time>2019-04-29T15:14:53Z</time>
      </trkpt>
      <trkpt lat="42.010534" lon="-8.882077">
        <ele>13.613</ele>
        <time>2019-04-29T15:15:13Z</time>
      </trkpt>
      <trkpt lat="42.011029" lon="-8.882111">
        <ele>16.008</ele>
        <time>2019-04-29T15:15:28Z</time>
      </trkpt>
      <trkpt lat="42.011273" lon="-8.882021">
        <ele>16.964</ele>
        <time>2019-04-29T15:15:40Z</time>
      </trkpt>
      <trkpt lat="42.011597" lon="-8.881757">
        <ele>20.397</ele>
        <time>2019-04-29T15:15:56Z</time>
      </trkpt>
      <trkpt lat="42.011702" lon="-8.881698">
        <ele>21.213</ele>
        <time>2019-04-29T15:16:01Z</time>
      </trkpt>
      <trkpt lat="42.011725" lon="-8.881700">
        <ele>21.211</ele>
        <time>2019-04-29T15:16:02Z</time>
      </trkpt>
      <trkpt lat="42.011751" lon="-8.881709">
        <ele>21.219</ele>
        <time>2019-04-29T15:16:03Z</time>
      </trkpt>
      <trkpt lat="42.011777" lon="-8.881724">
        <ele>21.281</ele>
        <time>2019-04-29T15:16:04Z</time>
      </trkpt>
      <trkpt lat="42.011804" lon="-8.881739">
        <ele>21.711</ele>
        <time>2019-04-29T15:16:05Z</time>
      </trkpt>
      <trkpt lat="42.011836" lon="-8.881754">
        <ele>21.725</ele>
        <time>2019-04-29T15:16:06Z</time>
      </trkpt>
      <trkpt lat="42.011860" lon="-8.881771">
        <ele>21.757</ele>
        <time>2019-04-29T15:16:07Z</time>
      </trkpt>
      <trkpt lat="42.012217" lon="-8.881953">
        <ele>23.600</ele>
        <time>2019-04-29T15:16:21Z</time>
      </trkpt>
      <trkpt lat="42.012684" lon="-8.882045">
        <ele>23.220</ele>
        <time>2019-04-29T15:16:35Z</time>
      </trkpt>
      <trkpt lat="42.013152" lon="-8.882135">
        <ele>22.708</ele>
        <time>2019-04-29T15:16:49Z</time>
      </trkpt>
      <trkpt lat="42.013575" lon="-8.882301">
        <ele>21.238</ele>
        <time>2019-04-29T15:17:02Z</time>
      </trkpt>
      <trkpt lat="42.013785" lon="-8.882710">
        <ele>21.221</ele>
        <time>2019-04-29T15:17:13Z</time>
      </trkpt>
      <trkpt lat="42.013891" lon="-8.882869">
        <ele>20.837</ele>
        <time>2019-04-29T15:17:17Z</time>
      </trkpt>
      <trkpt lat="42.013931" lon="-8.882891">
        <ele>20.825</ele>
        <time>2019-04-29T15:17:18Z</time>
      </trkpt>
      <trkpt lat="42.014384" lon="-8.883130">
        <ele>20.873</ele>
        <time>2019-04-29T15:17:31Z</time>
      </trkpt>
      <trkpt lat="42.014688" lon="-8.883482">
        <ele>21.215</ele>
        <time>2019-04-29T15:17:42Z</time>
      </trkpt>
      <trkpt lat="42.014727" lon="-8.883514">
        <ele>21.235</ele>
        <time>2019-04-29T15:17:43Z</time>
      </trkpt>
      <trkpt lat="42.014773" lon="-8.883534">
        <ele>20.889</ele>
        <time>2019-04-29T15:17:44Z</time>
      </trkpt>
      <trkpt lat="42.014819" lon="-8.883546">
        <ele>20.852</ele>
        <time>2019-04-29T15:17:45Z</time>
      </trkpt>
      <trkpt lat="42.014866" lon="-8.883549">
        <ele>20.353</ele>
        <time>2019-04-29T15:17:46Z</time>
      </trkpt>
      <trkpt lat="42.014918" lon="-8.883552">
        <ele>20.308</ele>
        <time>2019-04-29T15:17:47Z</time>
      </trkpt>
      <trkpt lat="42.014971" lon="-8.883562">
        <ele>19.808</ele>
        <time>2019-04-29T15:17:48Z</time>
      </trkpt>
      <trkpt lat="42.015023" lon="-8.883580">
        <ele>19.898</ele>
        <time>2019-04-29T15:17:49Z</time>
      </trkpt>
      <trkpt lat="42.015695" lon="-8.883793">
        <ele>16.491</ele>
        <time>2019-04-29T15:18:02Z</time>
      </trkpt>
      <trkpt lat="42.015877" lon="-8.883799">
        <ele>16.077</ele>
        <time>2019-04-29T15:18:06Z</time>
      </trkpt>
      <trkpt lat="42.016201" lon="-8.883754">
        <ele>15.515</ele>
        <time>2019-04-29T15:18:13Z</time>
      </trkpt>
      <trkpt lat="42.016248" lon="-8.883762">
        <ele>15.583</ele>
        <time>2019-04-29T15:18:14Z</time>
      </trkpt>
      <trkpt lat="42.016294" lon="-8.883778">
        <ele>15.595</ele>
        <time>2019-04-29T15:18:15Z</time>
      </trkpt>
      <trkpt lat="42.016938" lon="-8.884038">
        <ele>15.045</ele>
        <time>2019-04-29T15:18:31Z</time>
      </trkpt>
      <trkpt lat="42.016978" lon="-8.884039">
        <ele>15.039</ele>
        <time>2019-04-29T15:18:32Z</time>
      </trkpt>
      <trkpt lat="42.017056" lon="-8.884038">
        <ele>15.546</ele>
        <time>2019-04-29T15:18:34Z</time>
      </trkpt>
      <trkpt lat="42.017097" lon="-8.884031">
        <ele>15.588</ele>
        <time>2019-04-29T15:18:35Z</time>
      </trkpt>
      <trkpt lat="42.017555" lon="-8.883927">
        <ele>15.516</ele>
        <time>2019-04-29T15:18:48Z</time>
      </trkpt>
      <trkpt lat="42.018202" lon="-8.883853">
        <ele>15.508</ele>
        <time>2019-04-29T15:19:06Z</time>
      </trkpt>
      <trkpt lat="42.018414" lon="-8.883803">
        <ele>16.077</ele>
        <time>2019-04-29T15:19:12Z</time>
      </trkpt>
      <trkpt lat="42.018438" lon="-8.883782">
        <ele>16.420</ele>
        <time>2019-04-29T15:19:13Z</time>
      </trkpt>
      <trkpt lat="42.018461" lon="-8.883779">
        <ele>16.496</ele>
        <time>2019-04-29T15:19:14Z</time>
      </trkpt>
      <trkpt lat="42.018488" lon="-8.883790">
        <ele>16.444</ele>
        <time>2019-04-29T15:19:15Z</time>
      </trkpt>
      <trkpt lat="42.018518" lon="-8.883797">
        <ele>16.912</ele>
        <time>2019-04-29T15:19:16Z</time>
      </trkpt>
      <trkpt lat="42.018551" lon="-8.883798">
        <ele>16.984</ele>
        <time>2019-04-29T15:19:17Z</time>
      </trkpt>
      <trkpt lat="42.018585" lon="-8.883798">
        <ele>16.914</ele>
        <time>2019-04-29T15:19:18Z</time>
      </trkpt>
      <trkpt lat="42.018619" lon="-8.883800">
        <ele>16.988</ele>
        <time>2019-04-29T15:19:19Z</time>
      </trkpt>
      <trkpt lat="42.019166" lon="-8.883881">
        <ele>16.923</ele>
        <time>2019-04-29T15:19:34Z</time>
      </trkpt>
      <trkpt lat="42.019609" lon="-8.883877">
        <ele>17.983</ele>
        <time>2019-04-29T15:19:47Z</time>
      </trkpt>
      <trkpt lat="42.020011" lon="-8.883820">
        <ele>19.811</ele>
        <time>2019-04-29T15:20:00Z</time>
      </trkpt>
      <trkpt lat="42.020421" lon="-8.883799">
        <ele>20.308</ele>
        <time>2019-04-29T15:20:12Z</time>
      </trkpt>
      <trkpt lat="42.020891" lon="-8.883812">
        <ele>19.895</ele>
        <time>2019-04-29T15:20:23Z</time>
      </trkpt>
      <trkpt lat="42.020934" lon="-8.883822">
        <ele>19.898</ele>
        <time>2019-04-29T15:20:24Z</time>
      </trkpt>
      <trkpt lat="42.020982" lon="-8.883837">
        <ele>20.364</ele>
        <time>2019-04-29T15:20:25Z</time>
      </trkpt>
      <trkpt lat="42.021361" lon="-8.884014">
        <ele>19.812</ele>
        <time>2019-04-29T15:20:34Z</time>
      </trkpt>
      <trkpt lat="42.021408" lon="-8.884021">
        <ele>19.840</ele>
        <time>2019-04-29T15:20:35Z</time>
      </trkpt>
      <trkpt lat="42.021456" lon="-8.884024">
        <ele>19.872</ele>
        <time>2019-04-29T15:20:36Z</time>
      </trkpt>
      <trkpt lat="42.021765" lon="-8.884056">
        <ele>20.372</ele>
        <time>2019-04-29T15:20:43Z</time>
      </trkpt>
      <trkpt lat="42.021858" lon="-8.884068">
        <ele>20.836</ele>
        <time>2019-04-29T15:20:45Z</time>
      </trkpt>
      <trkpt lat="42.021904" lon="-8.884082">
        <ele>21.261</ele>
        <time>2019-04-29T15:20:46Z</time>
      </trkpt>
      <trkpt lat="42.022415" lon="-8.884273">
        <ele>18.821</ele>
        <time>2019-04-29T15:20:57Z</time>
      </trkpt>
      <trkpt lat="42.022461" lon="-8.884282">
        <ele>18.813</ele>
        <time>2019-04-29T15:20:58Z</time>
      </trkpt>
      <trkpt lat="42.022509" lon="-8.884285">
        <ele>18.808</ele>
        <time>2019-04-29T15:20:59Z</time>
      </trkpt>
      <trkpt lat="42.022937" lon="-8.884259">
        <ele>18.899</ele>
        <time>2019-04-29T15:21:08Z</time>
      </trkpt>
      <trkpt lat="42.023523" lon="-8.884143">
        <ele>18.862</ele>
        <time>2019-04-29T15:21:23Z</time>
      </trkpt>
      <trkpt lat="42.023682" lon="-8.884085">
        <ele>18.478</ele>
        <time>2019-04-29T15:21:27Z</time>
      </trkpt>
      <trkpt lat="42.023724" lon="-8.884077">
        <ele>18.476</ele>
        <time>2019-04-29T15:21:28Z</time>
      </trkpt>
      <trkpt lat="42.024500" lon="-8.884070">
        <ele>18.854</ele>
        <time>2019-04-29T15:21:46Z</time>
      </trkpt>
      <trkpt lat="42.025117" lon="-8.884156">
        <ele>19.896</ele>
        <time>2019-04-29T15:22:02Z</time>
      </trkpt>
      <trkpt lat="42.025553" lon="-8.884259">
        <ele>21.266</ele>
        <time>2019-04-29T15:22:16Z</time>
      </trkpt>
      <trkpt lat="42.025850" lon="-8.884569">
        <ele>24.110</ele>
        <time>2019-04-29T15:22:28Z</time>
      </trkpt>
      <trkpt lat="42.026282" lon="-8.884818">
        <ele>24.639</ele>
        <time>2019-04-29T15:22:43Z</time>
      </trkpt>
      <trkpt lat="42.026776" lon="-8.884805">
        <ele>24.601</ele>
        <time>2019-04-29T15:22:58Z</time>
      </trkpt>
      <trkpt lat="42.027332" lon="-8.884583">
        <ele>23.621</ele>
        <time>2019-04-29T15:23:13Z</time>
      </trkpt>
      <trkpt lat="42.028358" lon="-8.884131">
        <ele>20.808</ele>
        <time>2019-04-29T15:23:35Z</time>
      </trkpt>
      <trkpt lat="42.029372" lon="-8.883691">
        <ele>19.356</ele>
        <time>2019-04-29T15:23:56Z</time>
      </trkpt>
      <trkpt lat="42.030201" lon="-8.883335">
        <ele>19.319</ele>
        <time>2019-04-29T15:24:14Z</time>
      </trkpt>
      <trkpt lat="42.030859" lon="-8.883046">
        <ele>19.885</ele>
        <time>2019-04-29T15:24:30Z</time>
      </trkpt>
      <trkpt lat="42.031609" lon="-8.882715">
        <ele>19.863</ele>
        <time>2019-04-29T15:24:49Z</time>
      </trkpt>
      <trkpt lat="42.032395" lon="-8.882381">
        <ele>19.891</ele>
        <time>2019-04-29T15:25:09Z</time>
      </trkpt>
      <trkpt lat="42.033134" lon="-8.882103">
        <ele>20.373</ele>
        <time>2019-04-29T15:25:27Z</time>
      </trkpt>
      <trkpt lat="42.033761" lon="-8.881969">
        <ele>21.263</ele>
        <time>2019-04-29T15:25:43Z</time>
      </trkpt>
      <trkpt lat="42.033878" lon="-8.881947">
        <ele>21.297</ele>
        <time>2019-04-29T15:25:48Z</time>
      </trkpt>
      <trkpt lat="42.033883" lon="-8.881932">
        <ele>21.216</ele>
        <time>2019-04-29T15:25:49Z</time>
      </trkpt>
      <trkpt lat="42.033888" lon="-8.881721">
        <ele>21.776</ele>
        <time>2019-04-29T15:25:55Z</time>
      </trkpt>
      <trkpt lat="42.033905" lon="-8.881702">
        <ele>21.713</ele>
        <time>2019-04-29T15:25:56Z</time>
      </trkpt>
      <trkpt lat="42.033929" lon="-8.881692">
        <ele>22.208</ele>
        <time>2019-04-29T15:25:57Z</time>
      </trkpt>
      <trkpt lat="42.033953" lon="-8.881681">
        <ele>22.214</ele>
        <time>2019-04-29T15:25:58Z</time>
      </trkpt>
      <trkpt lat="42.033978" lon="-8.881664">
        <ele>22.777</ele>
        <time>2019-04-29T15:25:59Z</time>
      </trkpt>
      <trkpt lat="42.034003" lon="-8.881641">
        <ele>22.793</ele>
        <time>2019-04-29T15:26:00Z</time>
      </trkpt>
      <trkpt lat="42.034397" lon="-8.881365">
        <ele>25.161</ele>
        <time>2019-04-29T15:26:15Z</time>
      </trkpt>
      <trkpt lat="42.034549" lon="-8.881189">
        <ele>26.539</ele>
        <time>2019-04-29T15:26:22Z</time>
      </trkpt>
      <trkpt lat="42.034549" lon="-8.881154">
        <ele>26.531</ele>
        <time>2019-04-29T15:26:23Z</time>
      </trkpt>
      <trkpt lat="42.034547" lon="-8.881123">
        <ele>26.521</ele>
        <time>2019-04-29T15:26:24Z</time>
      </trkpt>
      <trkpt lat="42.034569" lon="-8.881024">
        <ele>26.575</ele>
        <time>2019-04-29T15:26:27Z</time>
      </trkpt>
      <trkpt lat="42.034586" lon="-8.880999">
        <ele>26.533</ele>
        <time>2019-04-29T15:26:28Z</time>
      </trkpt>
      <trkpt lat="42.034602" lon="-8.880983">
        <ele>27.023</ele>
        <time>2019-04-29T15:26:29Z</time>
      </trkpt>
      <trkpt lat="42.034615" lon="-8.880968">
        <ele>27.015</ele>
        <time>2019-04-29T15:26:30Z</time>
      </trkpt>
      <trkpt lat="42.034624" lon="-8.880951">
        <ele>27.508</ele>
        <time>2019-04-29T15:26:31Z</time>
      </trkpt>
      <trkpt lat="42.034632" lon="-8.880922">
        <ele>28.096</ele>
        <time>2019-04-29T15:26:45Z</time>
      </trkpt>
      <trkpt lat="42.034773" lon="-8.880739">
        <ele>27.529</ele>
        <time>2019-04-29T15:26:54Z</time>
      </trkpt>
      <trkpt lat="42.035071" lon="-8.880605">
        <ele>26.535</ele>
        <time>2019-04-29T15:27:06Z</time>
      </trkpt>
      <trkpt lat="42.035324" lon="-8.880502">
        <ele>25.163</ele>
        <time>2019-04-29T15:27:16Z</time>
      </trkpt>
      <trkpt lat="42.035524" lon="-8.880360">
        <ele>25.621</ele>
        <time>2019-04-29T15:27:25Z</time>
      </trkpt>
      <trkpt lat="42.035570" lon="-8.880320">
        <ele>25.693</ele>
        <time>2019-04-29T15:27:28Z</time>
      </trkpt>
      <trkpt lat="42.035806" lon="-8.880238">
        <ele>27.033</ele>
        <time>2019-04-29T15:27:37Z</time>
      </trkpt>
      <trkpt lat="42.036228" lon="-8.880160">
        <ele>29.467</ele>
        <time>2019-04-29T15:27:50Z</time>
      </trkpt>
      <trkpt lat="42.036626" lon="-8.879951">
        <ele>31.316</ele>
        <time>2019-04-29T15:28:03Z</time>
      </trkpt>
      <trkpt lat="42.037025" lon="-8.879852">
        <ele>33.376</ele>
        <time>2019-04-29T15:28:16Z</time>
      </trkpt>
      <trkpt lat="42.037338" lon="-8.879800">
        <ele>32.313</ele>
        <time>2019-04-29T15:28:24Z</time>
      </trkpt>
      <trkpt lat="42.037437" lon="-8.879780">
        <ele>31.808</ele>
        <time>2019-04-29T15:28:26Z</time>
      </trkpt>
      <trkpt lat="42.037482" lon="-8.879761">
        <ele>31.874</ele>
        <time>2019-04-29T15:28:27Z</time>
      </trkpt>
      <trkpt lat="42.037529" lon="-8.879747">
        <ele>31.857</ele>
        <time>2019-04-29T15:28:28Z</time>
      </trkpt>
      <trkpt lat="42.037693" lon="-8.879703">
        <ele>30.463</ele>
        <time>2019-04-29T15:28:31Z</time>
      </trkpt>
      <trkpt lat="42.037749" lon="-8.879707">
        <ele>29.911</ele>
        <time>2019-04-29T15:28:32Z</time>
      </trkpt>
      <trkpt lat="42.037801" lon="-8.879728">
        <ele>29.939</ele>
        <time>2019-04-29T15:28:33Z</time>
      </trkpt>
      <trkpt lat="42.037838" lon="-8.879765">
        <ele>29.481</ele>
        <time>2019-04-29T15:28:34Z</time>
      </trkpt>
      <trkpt lat="42.037858" lon="-8.879811">
        <ele>29.491</ele>
        <time>2019-04-29T15:28:35Z</time>
      </trkpt>
      <trkpt lat="42.037875" lon="-8.879861">
        <ele>28.945</ele>
        <time>2019-04-29T15:28:36Z</time>
      </trkpt>
      <trkpt lat="42.037895" lon="-8.879911">
        <ele>28.555</ele>
        <time>2019-04-29T15:28:37Z</time>
      </trkpt>
      <trkpt lat="42.037918" lon="-8.879956">
        <ele>28.507</ele>
        <time>2019-04-29T15:28:38Z</time>
      </trkpt>
      <trkpt lat="42.038218" lon="-8.880285">
        <ele>27.517</ele>
        <time>2019-04-29T15:28:49Z</time>
      </trkpt>
      <trkpt lat="42.038565" lon="-8.880591">
        <ele>29.408</ele>
        <time>2019-04-29T15:29:01Z</time>
      </trkpt>
      <trkpt lat="42.038597" lon="-8.880595">
        <ele>29.428</ele>
        <time>2019-04-29T15:29:02Z</time>
      </trkpt>
      <trkpt lat="42.038630" lon="-8.880578">
        <ele>29.461</ele>
        <time>2019-04-29T15:29:03Z</time>
      </trkpt>
      <trkpt lat="42.038658" lon="-8.880552">
        <ele>29.457</ele>
        <time>2019-04-29T15:29:04Z</time>
      </trkpt>
      <trkpt lat="42.038681" lon="-8.880527">
        <ele>29.435</ele>
        <time>2019-04-29T15:29:05Z</time>
      </trkpt>
      <trkpt lat="42.038706" lon="-8.880505">
        <ele>29.413</ele>
        <time>2019-04-29T15:29:06Z</time>
      </trkpt>
      <trkpt lat="42.038730" lon="-8.880482">
        <ele>29.925</ele>
        <time>2019-04-29T15:29:07Z</time>
      </trkpt>
      <trkpt lat="42.038754" lon="-8.880460">
        <ele>29.925</ele>
        <time>2019-04-29T15:29:08Z</time>
      </trkpt>
      <trkpt lat="42.038776" lon="-8.880447">
        <ele>30.469</ele>
        <time>2019-04-29T15:29:09Z</time>
      </trkpt>
      <trkpt lat="42.038795" lon="-8.880437">
        <ele>30.428</ele>
        <time>2019-04-29T15:29:10Z</time>
      </trkpt>
      <trkpt lat="42.038811" lon="-8.880414">
        <ele>29.989</ele>
        <time>2019-04-29T15:29:11Z</time>
      </trkpt>
      <trkpt lat="42.038817" lon="-8.880396">
        <ele>29.917</ele>
        <time>2019-04-29T15:29:12Z</time>
      </trkpt>
      <trkpt lat="42.038820" lon="-8.880370">
        <ele>29.908</ele>
        <time>2019-04-29T15:29:13Z</time>
      </trkpt>
      <trkpt lat="42.038828" lon="-8.880339">
        <ele>29.915</ele>
        <time>2019-04-29T15:29:14Z</time>
      </trkpt>
      <trkpt lat="42.038923" lon="-8.879924">
        <ele>31.348</ele>
        <time>2019-04-29T15:29:27Z</time>
      </trkpt>
      <trkpt lat="42.039175" lon="-8.879645">
        <ele>32.864</ele>
        <time>2019-04-29T15:29:38Z</time>
      </trkpt>
      <trkpt lat="42.039431" lon="-8.879347">
        <ele>34.762</ele>
        <time>2019-04-29T15:29:50Z</time>
      </trkpt>
      <trkpt lat="42.039753" lon="-8.879025">
        <ele>36.120</ele>
        <time>2019-04-29T15:30:04Z</time>
      </trkpt>
      <trkpt lat="42.040140" lon="-8.878946">
        <ele>37.682</ele>
        <time>2019-04-29T15:30:18Z</time>
      </trkpt>
      <trkpt lat="42.040605" lon="-8.878819">
        <ele>37.672</ele>
        <time>2019-04-29T15:30:33Z</time>
      </trkpt>
      <trkpt lat="42.041009" lon="-8.878705">
        <ele>36.686</ele>
        <time>2019-04-29T15:30:46Z</time>
      </trkpt>
      <trkpt lat="42.041306" lon="-8.878403">
        <ele>39.088</ele>
        <time>2019-04-29T15:31:00Z</time>
      </trkpt>
      <trkpt lat="42.041434" lon="-8.878129">
        <ele>42.424</ele>
        <time>2019-04-29T15:31:11Z</time>
      </trkpt>
      <trkpt lat="42.041455" lon="-8.877920">
        <ele>44.326</ele>
        <time>2019-04-29T15:31:18Z</time>
      </trkpt>
      <trkpt lat="42.041473" lon="-8.877904">
        <ele>44.808</ele>
        <time>2019-04-29T15:31:19Z</time>
      </trkpt>
      <trkpt lat="42.041500" lon="-8.877899">
        <ele>44.881</ele>
        <time>2019-04-29T15:31:20Z</time>
      </trkpt>
      <trkpt lat="42.041528" lon="-8.877903">
        <ele>44.834</ele>
        <time>2019-04-29T15:31:21Z</time>
      </trkpt>
      <trkpt lat="42.041556" lon="-8.877915">
        <ele>44.870</ele>
        <time>2019-04-29T15:31:22Z</time>
      </trkpt>
      <trkpt lat="42.041585" lon="-8.877930">
        <ele>44.898</ele>
        <time>2019-04-29T15:31:23Z</time>
      </trkpt>
      <trkpt lat="42.042120" lon="-8.878121">
        <ele>44.856</ele>
        <time>2019-04-29T15:31:38Z</time>
      </trkpt>
      <trkpt lat="42.042631" lon="-8.878488">
        <ele>44.858</ele>
        <time>2019-04-29T15:31:54Z</time>
      </trkpt>
      <trkpt lat="42.043208" lon="-8.878658">
        <ele>47.238</ele>
        <time>2019-04-29T15:32:11Z</time>
      </trkpt>
      <trkpt lat="42.043768" lon="-8.878974">
        <ele>46.262</ele>
        <time>2019-04-29T15:32:26Z</time>
      </trkpt>
      <trkpt lat="42.044344" lon="-8.879504">
        <ele>44.318</ele>
        <time>2019-04-29T15:32:41Z</time>
      </trkpt>
      <trkpt lat="42.044377" lon="-8.879534">
        <ele>44.398</ele>
        <time>2019-04-29T15:32:42Z</time>
      </trkpt>
      <trkpt lat="42.044774" lon="-8.879893">
        <ele>45.817</ele>
        <time>2019-04-29T15:32:54Z</time>
      </trkpt>
      <trkpt lat="42.044780" lon="-8.879942">
        <ele>45.808</ele>
        <time>2019-04-29T15:32:55Z</time>
      </trkpt>
      <trkpt lat="42.044783" lon="-8.880104">
        <ele>45.814</ele>
        <time>2019-04-29T15:32:58Z</time>
      </trkpt>
      <trkpt lat="42.044796" lon="-8.880155">
        <ele>45.837</ele>
        <time>2019-04-29T15:32:59Z</time>
      </trkpt>
      <trkpt lat="42.044815" lon="-8.880203">
        <ele>45.863</ele>
        <time>2019-04-29T15:33:00Z</time>
      </trkpt>
      <trkpt lat="42.044838" lon="-8.880252">
        <ele>45.341</ele>
        <time>2019-04-29T15:33:01Z</time>
      </trkpt>
      <trkpt lat="42.044863" lon="-8.880304">
        <ele>45.329</ele>
        <time>2019-04-29T15:33:02Z</time>
      </trkpt>
      <trkpt lat="42.044946" lon="-8.880454">
        <ele>44.821</ele>
        <time>2019-04-29T15:33:05Z</time>
      </trkpt>
      <trkpt lat="42.044983" lon="-8.880493">
        <ele>44.381</ele>
        <time>2019-04-29T15:33:06Z</time>
      </trkpt>
      <trkpt lat="42.045022" lon="-8.880523">
        <ele>44.385</ele>
        <time>2019-04-29T15:33:07Z</time>
      </trkpt>
      <trkpt lat="42.045064" lon="-8.880548">
        <ele>44.363</ele>
        <time>2019-04-29T15:33:08Z</time>
      </trkpt>
      <trkpt lat="42.045109" lon="-8.880568">
        <ele>44.344</ele>
        <time>2019-04-29T15:33:09Z</time>
      </trkpt>
      <trkpt lat="42.045155" lon="-8.880582">
        <ele>43.818</ele>
        <time>2019-04-29T15:33:10Z</time>
      </trkpt>
      <trkpt lat="42.045197" lon="-8.880594">
        <ele>43.808</ele>
        <time>2019-04-29T15:33:11Z</time>
      </trkpt>
      <trkpt lat="42.045256" lon="-8.880608">
        <ele>42.959</ele>
        <time>2019-04-29T15:33:13Z</time>
      </trkpt>
      <trkpt lat="42.045281" lon="-8.880602">
        <ele>42.932</ele>
        <time>2019-04-29T15:33:14Z</time>
      </trkpt>
      <trkpt lat="42.045307" lon="-8.880586">
        <ele>42.978</ele>
        <time>2019-04-29T15:33:15Z</time>
      </trkpt>
      <trkpt lat="42.045480" lon="-8.880457">
        <ele>41.996</ele>
        <time>2019-04-29T15:33:22Z</time>
      </trkpt>
      <trkpt lat="42.045511" lon="-8.880469">
        <ele>41.934</ele>
        <time>2019-04-29T15:33:23Z</time>
      </trkpt>
      <trkpt lat="42.045538" lon="-8.880499">
        <ele>41.956</ele>
        <time>2019-04-29T15:33:24Z</time>
      </trkpt>
      <trkpt lat="42.045556" lon="-8.880548">
        <ele>41.486</ele>
        <time>2019-04-29T15:33:25Z</time>
      </trkpt>
      <trkpt lat="42.045559" lon="-8.880610">
        <ele>41.450</ele>
        <time>2019-04-29T15:33:26Z</time>
      </trkpt>
      <trkpt lat="42.045555" lon="-8.880681">
        <ele>40.965</ele>
        <time>2019-04-29T15:33:27Z</time>
      </trkpt>
      <trkpt lat="42.045557" lon="-8.881795">
        <ele>35.268</ele>
        <time>2019-04-29T15:33:39Z</time>
      </trkpt>
      <trkpt lat="42.045610" lon="-8.882468">
        <ele>32.314</ele>
        <time>2019-04-29T15:33:46Z</time>
      </trkpt>
      <trkpt lat="42.045654" lon="-8.882652">
        <ele>32.308</ele>
        <time>2019-04-29T15:33:48Z</time>
      </trkpt>
      <trkpt lat="42.045680" lon="-8.882735">
        <ele>32.339</ele>
        <time>2019-04-29T15:33:49Z</time>
      </trkpt>
      <trkpt lat="42.045699" lon="-8.882819">
        <ele>32.362</ele>
        <time>2019-04-29T15:33:50Z</time>
      </trkpt>
      <trkpt lat="42.045706" lon="-8.882902">
        <ele>31.848</ele>
        <time>2019-04-29T15:33:51Z</time>
      </trkpt>
      <trkpt lat="42.045704" lon="-8.882986">
        <ele>31.376</ele>
        <time>2019-04-29T15:33:52Z</time>
      </trkpt>
      <trkpt lat="42.045709" lon="-8.883147">
        <ele>30.424</ele>
        <time>2019-04-29T15:33:54Z</time>
      </trkpt>
      <trkpt lat="42.045734" lon="-8.883204">
        <ele>29.976</ele>
        <time>2019-04-29T15:33:55Z</time>
      </trkpt>
      <trkpt lat="42.045771" lon="-8.883243">
        <ele>29.476</ele>
        <time>2019-04-29T15:33:56Z</time>
      </trkpt>
      <trkpt lat="42.045815" lon="-8.883271">
        <ele>28.980</ele>
        <time>2019-04-29T15:33:57Z</time>
      </trkpt>
      <trkpt lat="42.045869" lon="-8.883292">
        <ele>28.935</ele>
        <time>2019-04-29T15:33:58Z</time>
      </trkpt>
      <trkpt lat="42.045935" lon="-8.883307">
        <ele>28.586</ele>
        <time>2019-04-29T15:33:59Z</time>
      </trkpt>
      <trkpt lat="42.046074" lon="-8.883325">
        <ele>27.014</ele>
        <time>2019-04-29T15:34:01Z</time>
      </trkpt>
      <trkpt lat="42.046148" lon="-8.883320">
        <ele>26.508</ele>
        <time>2019-04-29T15:34:02Z</time>
      </trkpt>
      <trkpt lat="42.046550" lon="-8.883310">
        <ele>24.686</ele>
        <time>2019-04-29T15:34:07Z</time>
      </trkpt>
      <trkpt lat="42.046631" lon="-8.883292">
        <ele>23.639</ele>
        <time>2019-04-29T15:34:08Z</time>
      </trkpt>
      <trkpt lat="42.046941" lon="-8.883225">
        <ele>21.745</ele>
        <time>2019-04-29T15:34:12Z</time>
      </trkpt>
      <trkpt lat="42.047004" lon="-8.883230">
        <ele>21.743</ele>
        <time>2019-04-29T15:34:13Z</time>
      </trkpt>
      <trkpt lat="42.047069" lon="-8.883243">
        <ele>21.251</ele>
        <time>2019-04-29T15:34:14Z</time>
      </trkpt>
      <trkpt lat="42.047678" lon="-8.883454">
        <ele>17.443</ele>
        <time>2019-04-29T15:34:24Z</time>
      </trkpt>
      <trkpt lat="42.047724" lon="-8.883481">
        <ele>16.913</ele>
        <time>2019-04-29T15:34:25Z</time>
      </trkpt>
      <trkpt lat="42.048255" lon="-8.883825">
        <ele>14.577</ele>
        <time>2019-04-29T15:34:38Z</time>
      </trkpt>
      <trkpt lat="42.048356" lon="-8.884095">
        <ele>13.696</ele>
        <time>2019-04-29T15:34:46Z</time>
      </trkpt>
      <trkpt lat="42.048386" lon="-8.884111">
        <ele>13.631</ele>
        <time>2019-04-29T15:34:47Z</time>
      </trkpt>
      <trkpt lat="42.048652" lon="-8.884166">
        <ele>13.124</ele>
        <time>2019-04-29T15:34:54Z</time>
      </trkpt>
      <trkpt lat="42.048968" lon="-8.884424">
        <ele>12.608</ele>
        <time>2019-04-29T15:35:04Z</time>
      </trkpt>
      <trkpt lat="42.049053" lon="-8.884450">
        <ele>12.622</ele>
        <time>2019-04-29T15:35:06Z</time>
      </trkpt>
      <trkpt lat="42.049838" lon="-8.884682">
        <ele>11.655</ele>
        <time>2019-04-29T15:35:23Z</time>
      </trkpt>
      <trkpt lat="42.050015" lon="-8.884755">
        <ele>10.711</ele>
        <time>2019-04-29T15:35:27Z</time>
      </trkpt>
      <trkpt lat="42.050063" lon="-8.884761">
        <ele>10.749</ele>
        <time>2019-04-29T15:35:28Z</time>
      </trkpt>
      <trkpt lat="42.050110" lon="-8.884754">
        <ele>10.237</ele>
        <time>2019-04-29T15:35:29Z</time>
      </trkpt>
      <trkpt lat="42.050287" lon="-8.884712">
        <ele>10.279</ele>
        <time>2019-04-29T15:35:33Z</time>
      </trkpt>
      <trkpt lat="42.050324" lon="-8.884683">
        <ele>10.259</ele>
        <time>2019-04-29T15:35:34Z</time>
      </trkpt>
      <trkpt lat="42.050348" lon="-8.884638">
        <ele>10.253</ele>
        <time>2019-04-29T15:35:35Z</time>
      </trkpt>
      <trkpt lat="42.050362" lon="-8.884589">
        <ele>10.743</ele>
        <time>2019-04-29T15:35:36Z</time>
      </trkpt>
      <trkpt lat="42.050376" lon="-8.884549">
        <ele>11.164</ele>
        <time>2019-04-29T15:35:37Z</time>
      </trkpt>
      <trkpt lat="42.050394" lon="-8.884525">
        <ele>11.610</ele>
        <time>2019-04-29T15:35:38Z</time>
      </trkpt>
      <trkpt lat="42.050418" lon="-8.884520">
        <ele>12.108</ele>
        <time>2019-04-29T15:35:39Z</time>
      </trkpt>
      <trkpt lat="42.050446" lon="-8.884520">
        <ele>12.187</ele>
        <time>2019-04-29T15:35:40Z</time>
      </trkpt>
      <trkpt lat="42.051038" lon="-8.884649">
        <ele>13.190</ele>
        <time>2019-04-29T15:35:57Z</time>
      </trkpt>
      <trkpt lat="42.051469" lon="-8.884762">
        <ele>16.066</ele>
        <time>2019-04-29T15:36:09Z</time>
      </trkpt>
      <trkpt lat="42.051601" lon="-8.884929">
        <ele>16.024</ele>
        <time>2019-04-29T15:36:14Z</time>
      </trkpt>
      <trkpt lat="42.051656" lon="-8.885105">
        <ele>15.532</ele>
        <time>2019-04-29T15:36:17Z</time>
      </trkpt>
      <trkpt lat="42.051741" lon="-8.885495">
        <ele>14.524</ele>
        <time>2019-04-29T15:36:24Z</time>
      </trkpt>
      <trkpt lat="42.051753" lon="-8.885549">
        <ele>14.584</ele>
        <time>2019-04-29T15:36:25Z</time>
      </trkpt>
      <trkpt lat="42.051783" lon="-8.885711">
        <ele>14.028</ele>
        <time>2019-04-29T15:36:28Z</time>
      </trkpt>
      <trkpt lat="42.051924" lon="-8.886384">
        <ele>13.624</ele>
        <time>2019-04-29T15:36:42Z</time>
      </trkpt>
      <trkpt lat="42.051937" lon="-8.886390">
        <ele>13.104</ele>
        <time>2019-04-29T15:36:51Z</time>
      </trkpt>
      <trkpt lat="42.051939" lon="-8.886355">
        <ele>14.014</ele>
        <time>2019-04-29T15:37:03Z</time>
      </trkpt>
      <trkpt lat="42.051931" lon="-8.886359">
        <ele>14.508</ele>
        <time>2019-04-29T15:37:24Z</time>
      </trkpt>
      <trkpt lat="42.051922" lon="-8.886364">
        <ele>14.595</ele>
        <time>2019-04-29T15:37:52Z</time>
      </trkpt>
      <trkpt lat="42.051923" lon="-8.886361">
        <ele>13.628</ele>
        <time>2019-04-29T15:38:25Z</time>
      </trkpt>
      <trkpt lat="42.051926" lon="-8.886353">
        <ele>13.694</ele>
        <time>2019-04-29T15:38:53Z</time>
      </trkpt>
      <trkpt lat="42.051927" lon="-8.886353">
        <ele>13.622</ele>
        <time>2019-04-29T15:39:24Z</time>
      </trkpt>
      <trkpt lat="42.051928" lon="-8.886354">
        <ele>13.170</ele>
        <time>2019-04-29T15:40:02Z</time>
      </trkpt>
      <trkpt lat="42.051933" lon="-8.886357">
        <ele>13.632</ele>
        <time>2019-04-29T15:40:40Z</time>
      </trkpt>
      <trkpt lat="42.051932" lon="-8.886357">
        <ele>14.012</ele>
        <time>2019-04-29T15:41:09Z</time>
      </trkpt>
      <trkpt lat="42.051930" lon="-8.886353">
        <ele>14.066</ele>
        <time>2019-04-29T15:41:42Z</time>
      </trkpt>
      <trkpt lat="42.051927" lon="-8.886350">
        <ele>13.679</ele>
        <time>2019-04-29T15:42:13Z</time>
      </trkpt>
      <trkpt lat="42.051920" lon="-8.886347">
        <ele>13.605</ele>
        <time>2019-04-29T15:42:47Z</time>
      </trkpt>
      <trkpt lat="42.051918" lon="-8.886348">
        <ele>14.025</ele>
        <time>2019-04-29T15:43:16Z</time>
      </trkpt>
      <trkpt lat="42.051919" lon="-8.886352">
        <ele>14.508</ele>
        <time>2019-04-29T15:43:54Z</time>
      </trkpt>
      <trkpt lat="42.051920" lon="-8.886357">
        <ele>14.030</ele>
        <time>2019-04-29T15:44:30Z</time>
      </trkpt>
      <trkpt lat="42.051919" lon="-8.886366">
        <ele>13.623</ele>
        <time>2019-04-29T15:45:02Z</time>
      </trkpt>
      <trkpt lat="42.051923" lon="-8.886367">
        <ele>13.159</ele>
        <time>2019-04-29T15:45:35Z</time>
      </trkpt>
      <trkpt lat="42.051934" lon="-8.886368">
        <ele>12.617</ele>
        <time>2019-04-29T15:46:08Z</time>
      </trkpt>
      <trkpt lat="42.051940" lon="-8.886370">
        <ele>11.615</ele>
        <time>2019-04-29T15:46:44Z</time>
      </trkpt>
      <trkpt lat="42.051930" lon="-8.886369">
        <ele>12.157</ele>
        <time>2019-04-29T15:47:25Z</time>
      </trkpt>
      <trkpt lat="42.051925" lon="-8.886370">
        <ele>11.697</ele>
        <time>2019-04-29T15:48:03Z</time>
      </trkpt>
      <trkpt lat="42.051928" lon="-8.886372">
        <ele>11.651</ele>
        <time>2019-04-29T15:48:30Z</time>
      </trkpt>
      <trkpt lat="42.051919" lon="-8.886357">
        <ele>10.788</ele>
        <time>2019-04-29T15:49:10Z</time>
      </trkpt>
      <trkpt lat="42.051927" lon="-8.886357">
        <ele>10.224</ele>
        <time>2019-04-29T15:49:49Z</time>
      </trkpt>
      <trkpt lat="42.051930" lon="-8.886356">
        <ele>10.226</ele>
        <time>2019-04-29T15:50:26Z</time>
      </trkpt>
      <trkpt lat="42.051932" lon="-8.886357">
        <ele>10.708</ele>
        <time>2019-04-29T15:51:05Z</time>
      </trkpt>
      <trkpt lat="42.051943" lon="-8.886350">
        <ele>10.711</ele>
        <time>2019-04-29T15:51:42Z</time>
      </trkpt>
      <trkpt lat="42.051945" lon="-8.886346">
        <ele>11.194</ele>
        <time>2019-04-29T15:52:16Z</time>
      </trkpt>
      <trkpt lat="42.051948" lon="-8.886345">
        <ele>11.110</ele>
        <time>2019-04-29T15:52:53Z</time>
      </trkpt>
      <trkpt lat="42.051956" lon="-8.886351">
        <ele>10.768</ele>
        <time>2019-04-29T15:53:31Z</time>
      </trkpt>
      <trkpt lat="42.051956" lon="-8.886351">
        <ele>10.296</ele>
        <time>2019-04-29T15:54:08Z</time>
      </trkpt>
      <trkpt lat="42.051949" lon="-8.886348">
        <ele>9.798</ele>
        <time>2019-04-29T15:54:44Z</time>
      </trkpt>
      <trkpt lat="42.051942" lon="-8.886344">
        <ele>9.258</ele>
        <time>2019-04-29T15:55:18Z</time>
      </trkpt>
      <trkpt lat="42.051936" lon="-8.886347">
        <ele>9.252</ele>
        <time>2019-04-29T15:55:49Z</time>
      </trkpt>
      <trkpt lat="42.051932" lon="-8.886348">
        <ele>9.234</ele>
        <time>2019-04-29T15:56:22Z</time>
      </trkpt>
      <trkpt lat="42.051933" lon="-8.886354">
        <ele>9.755</ele>
        <time>2019-04-29T15:56:52Z</time>
      </trkpt>
      <trkpt lat="42.051934" lon="-8.886363">
        <ele>10.710</ele>
        <time>2019-04-29T15:57:26Z</time>
      </trkpt>
      <trkpt lat="42.051935" lon="-8.886368">
        <ele>11.608</ele>
        <time>2019-04-29T15:58:00Z</time>
      </trkpt>
      <trkpt lat="42.051933" lon="-8.886364">
        <ele>11.696</ele>
        <time>2019-04-29T15:58:36Z</time>
      </trkpt>
      <trkpt lat="42.051931" lon="-8.886366">
        <ele>11.189</ele>
        <time>2019-04-29T15:59:05Z</time>
      </trkpt>
      <trkpt lat="42.051937" lon="-8.886366">
        <ele>11.625</ele>
        <time>2019-04-29T15:59:38Z</time>
      </trkpt>
      <trkpt lat="42.051940" lon="-8.886360">
        <ele>11.653</ele>
        <time>2019-04-29T16:00:08Z</time>
      </trkpt>
      <trkpt lat="42.051940" lon="-8.886355">
        <ele>12.111</ele>
        <time>2019-04-29T16:00:42Z</time>
      </trkpt>
      <trkpt lat="42.051939" lon="-8.886351">
        <ele>12.193</ele>
        <time>2019-04-29T16:01:17Z</time>
      </trkpt>
      <trkpt lat="42.051935" lon="-8.886352">
        <ele>11.183</ele>
        <time>2019-04-29T16:01:52Z</time>
      </trkpt>
      <trkpt lat="42.051935" lon="-8.886354">
        <ele>11.147</ele>
        <time>2019-04-29T16:02:27Z</time>
      </trkpt>
      <trkpt lat="42.051937" lon="-8.886361">
        <ele>10.762</ele>
        <time>2019-04-29T16:03:03Z</time>
      </trkpt>
      <trkpt lat="42.051941" lon="-8.886359">
        <ele>10.283</ele>
        <time>2019-04-29T16:03:41Z</time>
      </trkpt>
      <trkpt lat="42.051934" lon="-8.886365">
        <ele>11.111</ele>
        <time>2019-04-29T16:04:19Z</time>
      </trkpt>
      <trkpt lat="42.051931" lon="-8.886370">
        <ele>12.108</ele>
        <time>2019-04-29T16:04:58Z</time>
      </trkpt>
      <trkpt lat="42.051925" lon="-8.886376">
        <ele>13.139</ele>
        <time>2019-04-29T16:05:34Z</time>
      </trkpt>
      <trkpt lat="42.051923" lon="-8.886375">
        <ele>13.672</ele>
        <time>2019-04-29T16:06:07Z</time>
      </trkpt>
      <trkpt lat="42.051924" lon="-8.886370">
        <ele>14.528</ele>
        <time>2019-04-29T16:06:45Z</time>
      </trkpt>
      <trkpt lat="42.051930" lon="-8.886371">
        <ele>14.516</ele>
        <time>2019-04-29T16:07:25Z</time>
      </trkpt>
      <trkpt lat="42.051930" lon="-8.886370">
        <ele>14.564</ele>
        <time>2019-04-29T16:08:07Z</time>
      </trkpt>
      <trkpt lat="42.051924" lon="-8.886378">
        <ele>14.096</ele>
        <time>2019-04-29T16:08:43Z</time>
      </trkpt>
      <trkpt lat="42.051924" lon="-8.886370">
        <ele>14.546</ele>
        <time>2019-04-29T16:09:13Z</time>
      </trkpt>
      <trkpt lat="42.051919" lon="-8.886359">
        <ele>14.550</ele>
        <time>2019-04-29T16:09:44Z</time>
      </trkpt>
      <trkpt lat="42.051922" lon="-8.886362">
        <ele>15.052</ele>
        <time>2019-04-29T16:10:00Z</time>
      </trkpt>
      <trkpt lat="42.051919" lon="-8.886378">
        <ele>15.053</ele>
        <time>2019-04-29T16:10:03Z</time>
      </trkpt>
      <trkpt lat="42.051914" lon="-8.886401">
        <ele>15.008</ele>
        <time>2019-04-29T16:10:16Z</time>
      </trkpt>
      <trkpt lat="42.051917" lon="-8.886414">
        <ele>14.508</ele>
        <time>2019-04-29T16:10:24Z</time>
      </trkpt>
      <trkpt lat="42.051963" lon="-8.886719">
        <ele>15.018</ele>
        <time>2019-04-29T16:10:33Z</time>
      </trkpt>
      <trkpt lat="42.052117" lon="-8.887190">
        <ele>15.511</ele>
        <time>2019-04-29T16:10:45Z</time>
      </trkpt>
      <trkpt lat="42.052556" lon="-8.887629">
        <ele>16.427</ele>
        <time>2019-04-29T16:11:01Z</time>
      </trkpt>
      <trkpt lat="42.053078" lon="-8.888167">
        <ele>16.415</ele>
        <time>2019-04-29T16:11:20Z</time>
      </trkpt>
      <trkpt lat="42.053555" lon="-8.888664">
        <ele>16.463</ele>
        <time>2019-04-29T16:11:37Z</time>
      </trkpt>
      <trkpt lat="42.053999" lon="-8.888744">
        <ele>14.525</ele>
        <time>2019-04-29T16:11:49Z</time>
      </trkpt>
      <trkpt lat="42.054037" lon="-8.888725">
        <ele>14.545</ele>
        <time>2019-04-29T16:11:50Z</time>
      </trkpt>
      <trkpt lat="42.054073" lon="-8.888700">
        <ele>14.029</ele>
        <time>2019-04-29T16:11:51Z</time>
      </trkpt>
      <trkpt lat="42.054632" lon="-8.888274">
        <ele>14.028</ele>
        <time>2019-04-29T16:12:07Z</time>
      </trkpt>
      <trkpt lat="42.054741" lon="-8.888187">
        <ele>13.189</ele>
        <time>2019-04-29T16:12:10Z</time>
      </trkpt>
      <trkpt lat="42.055333" lon="-8.888069">
        <ele>13.117</ele>
        <time>2019-04-29T16:12:26Z</time>
      </trkpt>
      <trkpt lat="42.055881" lon="-8.888291">
        <ele>13.608</ele>
        <time>2019-04-29T16:12:41Z</time>
      </trkpt>
      <trkpt lat="42.056605" lon="-8.888570">
        <ele>13.655</ele>
        <time>2019-04-29T16:13:00Z</time>
      </trkpt>
      <trkpt lat="42.057310" lon="-8.888863">
        <ele>14.578</ele>
        <time>2019-04-29T16:13:19Z</time>
      </trkpt>
      <trkpt lat="42.057827" lon="-8.889170">
        <ele>15.594</ele>
        <time>2019-04-29T16:13:36Z</time>
      </trkpt>
      <trkpt lat="42.058411" lon="-8.889408">
        <ele>16.442</ele>
        <time>2019-04-29T16:13:55Z</time>
      </trkpt>
      <trkpt lat="42.059098" lon="-8.889656">
        <ele>19.850</ele>
        <time>2019-04-29T16:14:17Z</time>
      </trkpt>
      <trkpt lat="42.059598" lon="-8.889761">
        <ele>20.352</ele>
        <time>2019-04-29T16:14:33Z</time>
      </trkpt>
      <trkpt lat="42.060105" lon="-8.889985">
        <ele>20.862</ele>
        <time>2019-04-29T16:14:49Z</time>
      </trkpt>
      <trkpt lat="42.060183" lon="-8.890017">
        <ele>20.386</ele>
        <time>2019-04-29T16:14:51Z</time>
      </trkpt>
      <trkpt lat="42.060223" lon="-8.890031">
        <ele>20.836</ele>
        <time>2019-04-29T16:14:52Z</time>
      </trkpt>
      <trkpt lat="42.060768" lon="-8.890243">
        <ele>18.817</ele>
        <time>2019-04-29T16:15:06Z</time>
      </trkpt>
      <trkpt lat="42.061426" lon="-8.890471">
        <ele>17.418</ele>
        <time>2019-04-29T16:15:23Z</time>
      </trkpt>
      <trkpt lat="42.062123" lon="-8.890788">
        <ele>16.008</ele>
        <time>2019-04-29T16:15:41Z</time>
      </trkpt>
      <trkpt lat="42.062632" lon="-8.890997">
        <ele>17.496</ele>
        <time>2019-04-29T16:15:56Z</time>
      </trkpt>
      <trkpt lat="42.063193" lon="-8.891243">
        <ele>20.389</ele>
        <time>2019-04-29T16:16:14Z</time>
      </trkpt>
      <trkpt lat="42.063735" lon="-8.891484">
        <ele>23.215</ele>
        <time>2019-04-29T16:16:32Z</time>
      </trkpt>
      <trkpt lat="42.064212" lon="-8.891694">
        <ele>23.643</ele>
        <time>2019-04-29T16:16:49Z</time>
      </trkpt>
      <trkpt lat="42.064605" lon="-8.891871">
        <ele>26.561</ele>
        <time>2019-04-29T16:17:04Z</time>
      </trkpt>
      <trkpt lat="42.065172" lon="-8.892111">
        <ele>27.083</ele>
        <time>2019-04-29T16:17:22Z</time>
      </trkpt>
      <trkpt lat="42.065811" lon="-8.892363">
        <ele>27.523</ele>
        <time>2019-04-29T16:17:42Z</time>
      </trkpt>
      <trkpt lat="42.066415" lon="-8.892611">
        <ele>26.577</ele>
        <time>2019-04-29T16:18:00Z</time>
      </trkpt>
      <trkpt lat="42.067134" lon="-8.892896">
        <ele>26.047</ele>
        <time>2019-04-29T16:18:21Z</time>
      </trkpt>
      <trkpt lat="42.067823" lon="-8.893150">
        <ele>28.029</ele>
        <time>2019-04-29T16:18:42Z</time>
      </trkpt>
      <trkpt lat="42.068402" lon="-8.893146">
        <ele>29.921</ele>
        <time>2019-04-29T16:19:00Z</time>
      </trkpt>
      <trkpt lat="42.069022" lon="-8.893003">
        <ele>29.908</ele>
        <time>2019-04-29T16:19:18Z</time>
      </trkpt>
      <trkpt lat="42.069628" lon="-8.892945">
        <ele>30.477</ele>
        <time>2019-04-29T16:19:36Z</time>
      </trkpt>
      <trkpt lat="42.070049" lon="-8.892952">
        <ele>30.950</ele>
        <time>2019-04-29T16:19:49Z</time>
      </trkpt>
      <trkpt lat="42.070081" lon="-8.892955">
        <ele>30.916</ele>
        <time>2019-04-29T16:19:50Z</time>
      </trkpt>
      <trkpt lat="42.070111" lon="-8.892973">
        <ele>30.924</ele>
        <time>2019-04-29T16:19:51Z</time>
      </trkpt>
      <trkpt lat="42.070365" lon="-8.892912">
        <ele>31.312</ele>
        <time>2019-04-29T16:20:00Z</time>
      </trkpt>
      <trkpt lat="42.070387" lon="-8.892884">
        <ele>31.394</ele>
        <time>2019-04-29T16:20:01Z</time>
      </trkpt>
      <trkpt lat="42.070415" lon="-8.892865">
        <ele>31.864</ele>
        <time>2019-04-29T16:20:02Z</time>
      </trkpt>
      <trkpt lat="42.070442" lon="-8.892845">
        <ele>32.348</ele>
        <time>2019-04-29T16:20:03Z</time>
      </trkpt>
      <trkpt lat="42.070467" lon="-8.892820">
        <ele>32.359</ele>
        <time>2019-04-29T16:20:04Z</time>
      </trkpt>
      <trkpt lat="42.070487" lon="-8.892788">
        <ele>32.803</ele>
        <time>2019-04-29T16:20:05Z</time>
      </trkpt>
      <trkpt lat="42.070508" lon="-8.892756">
        <ele>32.823</ele>
        <time>2019-04-29T16:20:06Z</time>
      </trkpt>
      <trkpt lat="42.070531" lon="-8.892731">
        <ele>32.808</ele>
        <time>2019-04-29T16:20:07Z</time>
      </trkpt>
      <trkpt lat="42.070558" lon="-8.892714">
        <ele>32.888</ele>
        <time>2019-04-29T16:20:08Z</time>
      </trkpt>
      <trkpt lat="42.070592" lon="-8.892705">
        <ele>32.841</ele>
        <time>2019-04-29T16:20:09Z</time>
      </trkpt>
      <trkpt lat="42.071172" lon="-8.892572">
        <ele>32.337</ele>
        <time>2019-04-29T16:20:26Z</time>
      </trkpt>
      <trkpt lat="42.071853" lon="-8.892470">
        <ele>32.895</ele>
        <time>2019-04-29T16:20:44Z</time>
      </trkpt>
      <trkpt lat="42.072784" lon="-8.892528">
        <ele>32.873</ele>
        <time>2019-04-29T16:21:06Z</time>
      </trkpt>
      <trkpt lat="42.073517" lon="-8.892584">
        <ele>32.325</ele>
        <time>2019-04-29T16:21:26Z</time>
      </trkpt>
      <trkpt lat="42.074095" lon="-8.892623">
        <ele>33.785</ele>
        <time>2019-04-29T16:21:42Z</time>
      </trkpt>
      <trkpt lat="42.074539" lon="-8.892659">
        <ele>34.299</ele>
        <time>2019-04-29T16:21:55Z</time>
      </trkpt>
      <trkpt lat="42.075138" lon="-8.892721">
        <ele>35.768</ele>
        <time>2019-04-29T16:22:12Z</time>
      </trkpt>
      <trkpt lat="42.075756" lon="-8.892858">
        <ele>37.142</ele>
        <time>2019-04-29T16:22:30Z</time>
      </trkpt>
      <trkpt lat="42.076199" lon="-8.893000">
        <ele>39.026</ele>
        <time>2019-04-29T16:22:44Z</time>
      </trkpt>
      <trkpt lat="42.076905" lon="-8.893277">
        <ele>40.508</ele>
        <time>2019-04-29T16:23:06Z</time>
      </trkpt>
      <trkpt lat="42.077444" lon="-8.893621">
        <ele>42.949</ele>
        <time>2019-04-29T16:23:24Z</time>
      </trkpt>
      <trkpt lat="42.077949" lon="-8.893722">
        <ele>44.362</ele>
        <time>2019-04-29T16:23:40Z</time>
      </trkpt>
      <trkpt lat="42.078525" lon="-8.893532">
        <ele>43.498</ele>
        <time>2019-04-29T16:23:56Z</time>
      </trkpt>
      <trkpt lat="42.078663" lon="-8.893437">
        <ele>42.436</ele>
        <time>2019-04-29T16:24:00Z</time>
      </trkpt>
      <trkpt lat="42.079209" lon="-8.892888">
        <ele>38.564</ele>
        <time>2019-04-29T16:24:11Z</time>
      </trkpt>
      <trkpt lat="42.080217" lon="-8.891609">
        <ele>34.276</ele>
        <time>2019-04-29T16:24:31Z</time>
      </trkpt>
      <trkpt lat="42.080714" lon="-8.890966">
        <ele>34.226</ele>
        <time>2019-04-29T16:24:44Z</time>
      </trkpt>
      <trkpt lat="42.081146" lon="-8.890627">
        <ele>37.660</ele>
        <time>2019-04-29T16:24:59Z</time>
      </trkpt>
      <trkpt lat="42.081580" lon="-8.890279">
        <ele>42.424</ele>
        <time>2019-04-29T16:25:15Z</time>
      </trkpt>
      <trkpt lat="42.081936" lon="-8.890087">
        <ele>45.804</ele>
        <time>2019-04-29T16:25:30Z</time>
      </trkpt>
      <trkpt lat="42.082292" lon="-8.890002">
        <ele>49.114</ele>
        <time>2019-04-29T16:25:44Z</time>
      </trkpt>
      <trkpt lat="42.082652" lon="-8.890039">
        <ele>48.208</ele>
        <time>2019-04-29T16:25:58Z</time>
      </trkpt>
      <trkpt lat="42.083108" lon="-8.890190">
        <ele>47.265</ele>
        <time>2019-04-29T16:26:14Z</time>
      </trkpt>
      <trkpt lat="42.083464" lon="-8.890419">
        <ele>45.398</ele>
        <time>2019-04-29T16:26:27Z</time>
      </trkpt>
      <trkpt lat="42.083546" lon="-8.890522">
        <ele>44.864</ele>
        <time>2019-04-29T16:26:30Z</time>
      </trkpt>
      <trkpt lat="42.083583" lon="-8.890524">
        <ele>44.812</ele>
        <time>2019-04-29T16:26:31Z</time>
      </trkpt>
      <trkpt lat="42.083617" lon="-8.890507">
        <ele>44.850</ele>
        <time>2019-04-29T16:26:32Z</time>
      </trkpt>
      <trkpt lat="42.083650" lon="-8.890489">
        <ele>44.892</ele>
        <time>2019-04-29T16:26:33Z</time>
      </trkpt>
      <trkpt lat="42.083685" lon="-8.890489">
        <ele>44.892</ele>
        <time>2019-04-29T16:26:34Z</time>
      </trkpt>
      <trkpt lat="42.083716" lon="-8.890511">
        <ele>44.386</ele>
        <time>2019-04-29T16:26:35Z</time>
      </trkpt>
      <trkpt lat="42.083743" lon="-8.890544">
        <ele>44.386</ele>
        <time>2019-04-29T16:26:36Z</time>
      </trkpt>
      <trkpt lat="42.083774" lon="-8.890575">
        <ele>44.360</ele>
        <time>2019-04-29T16:26:37Z</time>
      </trkpt>
      <trkpt lat="42.083811" lon="-8.890594">
        <ele>44.326</ele>
        <time>2019-04-29T16:26:38Z</time>
      </trkpt>
      <trkpt lat="42.083850" lon="-8.890594">
        <ele>44.308</ele>
        <time>2019-04-29T16:26:39Z</time>
      </trkpt>
      <trkpt lat="42.083887" lon="-8.890576">
        <ele>44.351</ele>
        <time>2019-04-29T16:26:40Z</time>
      </trkpt>
      <trkpt lat="42.083922" lon="-8.890552">
        <ele>44.324</ele>
        <time>2019-04-29T16:26:41Z</time>
      </trkpt>
      <trkpt lat="42.084363" lon="-8.890579">
        <ele>44.320</ele>
        <time>2019-04-29T16:26:52Z</time>
      </trkpt>
      <trkpt lat="42.085180" lon="-8.890836">
        <ele>41.918</ele>
        <time>2019-04-29T16:27:09Z</time>
      </trkpt>
      <trkpt lat="42.085897" lon="-8.891071">
        <ele>40.056</ele>
        <time>2019-04-29T16:27:23Z</time>
      </trkpt>
      <trkpt lat="42.086795" lon="-8.891170">
        <ele>37.658</ele>
        <time>2019-04-29T16:27:40Z</time>
      </trkpt>
      <trkpt lat="42.087668" lon="-8.891307">
        <ele>36.158</ele>
        <time>2019-04-29T16:27:55Z</time>
      </trkpt>
      <trkpt lat="42.088679" lon="-8.891886">
        <ele>32.852</ele>
        <time>2019-04-29T16:28:15Z</time>
      </trkpt>
      <trkpt lat="42.089501" lon="-8.892372">
        <ele>30.479</ele>
        <time>2019-04-29T16:28:33Z</time>
      </trkpt>
      <trkpt lat="42.090312" lon="-8.892723">
        <ele>28.905</ele>
        <time>2019-04-29T16:28:51Z</time>
      </trkpt>
      <trkpt lat="42.091130" lon="-8.893035">
        <ele>26.525</ele>
        <time>2019-04-29T16:29:08Z</time>
      </trkpt>
      <trkpt lat="42.091623" lon="-8.893238">
        <ele>26.008</ele>
        <time>2019-04-29T16:29:23Z</time>
      </trkpt>
      <trkpt lat="42.091619" lon="-8.893246">
        <ele>26.510</ele>
        <time>2019-04-29T16:29:44Z</time>
      </trkpt>
      <trkpt lat="42.091633" lon="-8.893239">
        <ele>26.063</ele>
        <time>2019-04-29T16:30:23Z</time>
      </trkpt>
      <trkpt lat="42.091632" lon="-8.893240">
        <ele>27.589</ele>
        <time>2019-04-29T16:30:55Z</time>
      </trkpt>
      <trkpt lat="42.091629" lon="-8.893240">
        <ele>28.047</ele>
        <time>2019-04-29T16:31:27Z</time>
      </trkpt>
      <trkpt lat="42.091629" lon="-8.893243">
        <ele>28.015</ele>
        <time>2019-04-29T16:31:57Z</time>
      </trkpt>
      <trkpt lat="42.091629" lon="-8.893245">
        <ele>27.587</ele>
        <time>2019-04-29T16:32:32Z</time>
      </trkpt>
      <trkpt lat="42.091626" lon="-8.893250">
        <ele>27.577</ele>
        <time>2019-04-29T16:33:05Z</time>
      </trkpt>
      <trkpt lat="42.091640" lon="-8.893254">
        <ele>27.521</ele>
        <time>2019-04-29T16:33:09Z</time>
      </trkpt>
      <trkpt lat="42.091655" lon="-8.893260">
        <ele>27.526</ele>
        <time>2019-04-29T16:33:10Z</time>
      </trkpt>
      <trkpt lat="42.091675" lon="-8.893266">
        <ele>27.547</ele>
        <time>2019-04-29T16:33:11Z</time>
      </trkpt>
      <trkpt lat="42.091703" lon="-8.893273">
        <ele>27.511</ele>
        <time>2019-04-29T16:33:12Z</time>
      </trkpt>
      <trkpt lat="42.091733" lon="-8.893286">
        <ele>27.508</ele>
        <time>2019-04-29T16:33:13Z</time>
      </trkpt>
      <trkpt lat="42.091769" lon="-8.893300">
        <ele>27.565</ele>
        <time>2019-04-29T16:33:14Z</time>
      </trkpt>
      <trkpt lat="42.091810" lon="-8.893313">
        <ele>27.548</ele>
        <time>2019-04-29T16:33:15Z</time>
      </trkpt>
      <trkpt lat="42.091850" lon="-8.893327">
        <ele>27.554</ele>
        <time>2019-04-29T16:33:16Z</time>
      </trkpt>
      <trkpt lat="42.091887" lon="-8.893344">
        <ele>27.082</ele>
        <time>2019-04-29T16:33:17Z</time>
      </trkpt>
      <trkpt lat="42.091926" lon="-8.893355">
        <ele>27.090</ele>
        <time>2019-04-29T16:33:18Z</time>
      </trkpt>
      <trkpt lat="42.091963" lon="-8.893367">
        <ele>27.012</ele>
        <time>2019-04-29T16:33:19Z</time>
      </trkpt>
      <trkpt lat="42.092523" lon="-8.893509">
        <ele>26.532</ele>
        <time>2019-04-29T16:33:34Z</time>
      </trkpt>
      <trkpt lat="42.093412" lon="-8.893564">
        <ele>23.616</ele>
        <time>2019-04-29T16:33:53Z</time>
      </trkpt>
      <trkpt lat="42.094261" lon="-8.893612">
        <ele>22.293</ele>
        <time>2019-04-29T16:34:13Z</time>
      </trkpt>
      <trkpt lat="42.095062" lon="-8.893640">
        <ele>21.265</ele>
        <time>2019-04-29T16:34:31Z</time>
      </trkpt>
      <trkpt lat="42.095756" lon="-8.893676">
        <ele>23.221</ele>
        <time>2019-04-29T16:34:47Z</time>
      </trkpt>
      <trkpt lat="42.096446" lon="-8.893710">
        <ele>25.608</ele>
        <time>2019-04-29T16:35:04Z</time>
      </trkpt>
      <trkpt lat="42.097163" lon="-8.893741">
        <ele>23.212</ele>
        <time>2019-04-29T16:35:19Z</time>
      </trkpt>
      <trkpt lat="42.098160" lon="-8.893789">
        <ele>18.815</ele>
        <time>2019-04-29T16:35:35Z</time>
      </trkpt>
      <trkpt lat="42.098994" lon="-8.894006">
        <ele>16.061</ele>
        <time>2019-04-29T16:35:49Z</time>
      </trkpt>
      <trkpt lat="42.100004" lon="-8.894134">
        <ele>14.569</ele>
        <time>2019-04-29T16:36:07Z</time>
      </trkpt>
      <trkpt lat="42.100107" lon="-8.894138">
        <ele>14.017</ele>
        <time>2019-04-29T16:36:09Z</time>
      </trkpt>
      <trkpt lat="42.100255" lon="-8.894172">
        <ele>14.099</ele>
        <time>2019-04-29T16:36:12Z</time>
      </trkpt>
      <trkpt lat="42.100766" lon="-8.894613">
        <ele>13.649</ele>
        <time>2019-04-29T16:36:24Z</time>
      </trkpt>
      <trkpt lat="42.100825" lon="-8.894727">
        <ele>14.063</ele>
        <time>2019-04-29T16:36:26Z</time>
      </trkpt>
      <trkpt lat="42.100848" lon="-8.894795">
        <ele>14.585</ele>
        <time>2019-04-29T16:36:27Z</time>
      </trkpt>
      <trkpt lat="42.100896" lon="-8.894926">
        <ele>15.089</ele>
        <time>2019-04-29T16:36:29Z</time>
      </trkpt>
      <trkpt lat="42.100925" lon="-8.894984">
        <ele>15.517</ele>
        <time>2019-04-29T16:36:30Z</time>
      </trkpt>
      <trkpt lat="42.100987" lon="-8.895086">
        <ele>15.508</ele>
        <time>2019-04-29T16:36:32Z</time>
      </trkpt>
      <trkpt lat="42.101014" lon="-8.895140">
        <ele>15.581</ele>
        <time>2019-04-29T16:36:33Z</time>
      </trkpt>
      <trkpt lat="42.101037" lon="-8.895197">
        <ele>15.514</ele>
        <time>2019-04-29T16:36:34Z</time>
      </trkpt>
      <trkpt lat="42.101472" lon="-8.896077">
        <ele>15.590</ele>
        <time>2019-04-29T16:36:50Z</time>
      </trkpt>
      <trkpt lat="42.101732" lon="-8.896386">
        <ele>14.518</ele>
        <time>2019-04-29T16:36:57Z</time>
      </trkpt>
      <trkpt lat="42.102330" lon="-8.897019">
        <ele>16.426</ele>
        <time>2019-04-29T16:37:15Z</time>
      </trkpt>
      <trkpt lat="42.103067" lon="-8.897629">
        <ele>16.928</ele>
        <time>2019-04-29T16:37:36Z</time>
      </trkpt>
      <trkpt lat="42.103818" lon="-8.898087">
        <ele>17.918</ele>
        <time>2019-04-29T16:37:57Z</time>
      </trkpt>
      <trkpt lat="42.104466" lon="-8.897984">
        <ele>18.462</ele>
        <time>2019-04-29T16:38:14Z</time>
      </trkpt>
      <trkpt lat="42.105096" lon="-8.897753">
        <ele>18.421</ele>
        <time>2019-04-29T16:38:31Z</time>
      </trkpt>
      <trkpt lat="42.105609" lon="-8.897563">
        <ele>18.441</ele>
        <time>2019-04-29T16:38:45Z</time>
      </trkpt>
      <trkpt lat="42.106261" lon="-8.897340">
        <ele>19.805</ele>
        <time>2019-04-29T16:39:03Z</time>
      </trkpt>
      <trkpt lat="42.106749" lon="-8.897185">
        <ele>20.308</ele>
        <time>2019-04-29T16:39:16Z</time>
      </trkpt>
      <trkpt lat="42.107314" lon="-8.897023">
        <ele>23.685</ele>
        <time>2019-04-29T16:39:33Z</time>
      </trkpt>
      <trkpt lat="42.107959" lon="-8.896952">
        <ele>25.638</ele>
        <time>2019-04-29T16:39:51Z</time>
      </trkpt>
      <trkpt lat="42.108604" lon="-8.896961">
        <ele>27.544</ele>
        <time>2019-04-29T16:40:09Z</time>
      </trkpt>
      <trkpt lat="42.109350" lon="-8.896984">
        <ele>28.062</ele>
        <time>2019-04-29T16:40:29Z</time>
      </trkpt>
      <trkpt lat="42.110036" lon="-8.897016">
        <ele>28.090</ele>
        <time>2019-04-29T16:40:47Z</time>
      </trkpt>
      <trkpt lat="42.110309" lon="-8.897118">
        <ele>27.542</ele>
        <time>2019-04-29T16:40:55Z</time>
      </trkpt>
      <trkpt lat="42.110339" lon="-8.897092">
        <ele>27.512</ele>
        <time>2019-04-29T16:40:56Z</time>
      </trkpt>
      <trkpt lat="42.110361" lon="-8.897052">
        <ele>27.566</ele>
        <time>2019-04-29T16:40:57Z</time>
      </trkpt>
      <trkpt lat="42.110377" lon="-8.897007">
        <ele>27.599</ele>
        <time>2019-04-29T16:40:58Z</time>
      </trkpt>
      <trkpt lat="42.110389" lon="-8.896960">
        <ele>27.507</ele>
        <time>2019-04-29T16:40:59Z</time>
      </trkpt>
      <trkpt lat="42.110533" lon="-8.896659">
        <ele>27.527</ele>
        <time>2019-04-29T16:41:06Z</time>
      </trkpt>
      <trkpt lat="42.110564" lon="-8.896618">
        <ele>27.508</ele>
        <time>2019-04-29T16:41:07Z</time>
      </trkpt>
      <trkpt lat="42.110598" lon="-8.896578">
        <ele>27.592</ele>
        <time>2019-04-29T16:41:08Z</time>
      </trkpt>
      <trkpt lat="42.111285" lon="-8.895934">
        <ele>25.145</ele>
        <time>2019-04-29T16:41:24Z</time>
      </trkpt>
      <trkpt lat="42.111804" lon="-8.895115">
        <ele>23.671</ele>
        <time>2019-04-29T16:41:40Z</time>
      </trkpt>
      <trkpt lat="42.112032" lon="-8.894139">
        <ele>23.219</ele>
        <time>2019-04-29T16:41:55Z</time>
      </trkpt>
      <trkpt lat="42.112029" lon="-8.894075">
        <ele>23.227</ele>
        <time>2019-04-29T16:41:56Z</time>
      </trkpt>
      <trkpt lat="42.112016" lon="-8.894011">
        <ele>23.659</ele>
        <time>2019-04-29T16:41:57Z</time>
      </trkpt>
      <trkpt lat="42.111994" lon="-8.893949">
        <ele>23.639</ele>
        <time>2019-04-29T16:41:58Z</time>
      </trkpt>
      <trkpt lat="42.111969" lon="-8.893888">
        <ele>23.683</ele>
        <time>2019-04-29T16:41:59Z</time>
      </trkpt>
      <trkpt lat="42.111942" lon="-8.893825">
        <ele>23.242</ele>
        <time>2019-04-29T16:42:00Z</time>
      </trkpt>
      <trkpt lat="42.111396" lon="-8.893042">
        <ele>22.222</ele>
        <time>2019-04-29T16:42:14Z</time>
      </trkpt>
      <trkpt lat="42.111358" lon="-8.892985">
        <ele>21.714</ele>
        <time>2019-04-29T16:42:15Z</time>
      </trkpt>
      <trkpt lat="42.111327" lon="-8.892923">
        <ele>21.708</ele>
        <time>2019-04-29T16:42:16Z</time>
      </trkpt>
      <trkpt lat="42.111302" lon="-8.892857">
        <ele>21.777</ele>
        <time>2019-04-29T16:42:17Z</time>
      </trkpt>
      <trkpt lat="42.111280" lon="-8.892789">
        <ele>21.740</ele>
        <time>2019-04-29T16:42:18Z</time>
      </trkpt>
      <trkpt lat="42.111262" lon="-8.892717">
        <ele>21.266</ele>
        <time>2019-04-29T16:42:19Z</time>
      </trkpt>
      <trkpt lat="42.111230" lon="-8.892496">
        <ele>20.824</ele>
        <time>2019-04-29T16:42:22Z</time>
      </trkpt>
      <trkpt lat="42.111253" lon="-8.892120">
        <ele>19.852</ele>
        <time>2019-04-29T16:42:27Z</time>
      </trkpt>
      <trkpt lat="42.111272" lon="-8.892052">
        <ele>19.814</ele>
        <time>2019-04-29T16:42:28Z</time>
      </trkpt>
      <trkpt lat="42.111297" lon="-8.891991">
        <ele>19.814</ele>
        <time>2019-04-29T16:42:29Z</time>
      </trkpt>
      <trkpt lat="42.111333" lon="-8.891939">
        <ele>20.348</ele>
        <time>2019-04-29T16:42:30Z</time>
      </trkpt>
      <trkpt lat="42.111372" lon="-8.891894">
        <ele>20.377</ele>
        <time>2019-04-29T16:42:31Z</time>
      </trkpt>
      <trkpt lat="42.112173" lon="-8.890940">
        <ele>19.361</ele>
        <time>2019-04-29T16:42:52Z</time>
      </trkpt>
      <trkpt lat="42.112592" lon="-8.890377">
        <ele>18.427</ele>
        <time>2019-04-29T16:43:04Z</time>
      </trkpt>
      <trkpt lat="42.112638" lon="-8.890254">
        <ele>18.408</ele>
        <time>2019-04-29T16:43:06Z</time>
      </trkpt>
      <trkpt lat="42.112652" lon="-8.890189">
        <ele>18.480</ele>
        <time>2019-04-29T16:43:07Z</time>
      </trkpt>
      <trkpt lat="42.112687" lon="-8.889924">
        <ele>18.473</ele>
        <time>2019-04-29T16:43:11Z</time>
      </trkpt>
      <trkpt lat="42.112687" lon="-8.889799">
        <ele>18.849</ele>
        <time>2019-04-29T16:43:13Z</time>
      </trkpt>
      <trkpt lat="42.112678" lon="-8.889737">
        <ele>18.897</ele>
        <time>2019-04-29T16:43:14Z</time>
      </trkpt>
      <trkpt lat="42.112662" lon="-8.889679">
        <ele>18.895</ele>
        <time>2019-04-29T16:43:15Z</time>
      </trkpt>
      <trkpt lat="42.112643" lon="-8.889625">
        <ele>18.477</ele>
        <time>2019-04-29T16:43:16Z</time>
      </trkpt>
      <trkpt lat="42.112619" lon="-8.889571">
        <ele>18.487</ele>
        <time>2019-04-29T16:43:17Z</time>
      </trkpt>
      <trkpt lat="42.112593" lon="-8.889516">
        <ele>18.411</ele>
        <time>2019-04-29T16:43:18Z</time>
      </trkpt>
      <trkpt lat="42.112217" lon="-8.888637">
        <ele>15.586</ele>
        <time>2019-04-29T16:43:32Z</time>
      </trkpt>
      <trkpt lat="42.112113" lon="-8.887443">
        <ele>15.060</ele>
        <time>2019-04-29T16:43:47Z</time>
      </trkpt>
      <trkpt lat="42.112223" lon="-8.885932">
        <ele>14.026</ele>
        <time>2019-04-29T16:44:06Z</time>
      </trkpt>
      <trkpt lat="42.112307" lon="-8.884805">
        <ele>15.008</ele>
        <time>2019-04-29T16:44:22Z</time>
      </trkpt>
      <trkpt lat="42.111972" lon="-8.883751">
        <ele>16.081</ele>
        <time>2019-04-29T16:44:39Z</time>
      </trkpt>
      <trkpt lat="42.111389" lon="-8.882694">
        <ele>17.944</ele>
        <time>2019-04-29T16:44:59Z</time>
      </trkpt>
      <trkpt lat="42.110509" lon="-8.881836">
        <ele>18.860</ele>
        <time>2019-04-29T16:45:21Z</time>
      </trkpt>
      <trkpt lat="42.110107" lon="-8.881414">
        <ele>18.818</ele>
        <time>2019-04-29T16:45:33Z</time>
      </trkpt>
      <trkpt lat="42.110077" lon="-8.881372">
        <ele>18.856</ele>
        <time>2019-04-29T16:45:34Z</time>
      </trkpt>
      <trkpt lat="42.110052" lon="-8.881326">
        <ele>18.848</ele>
        <time>2019-04-29T16:45:35Z</time>
      </trkpt>
      <trkpt lat="42.110032" lon="-8.881274">
        <ele>19.388</ele>
        <time>2019-04-29T16:45:36Z</time>
      </trkpt>
      <trkpt lat="42.110018" lon="-8.881221">
        <ele>19.312</ele>
        <time>2019-04-29T16:45:37Z</time>
      </trkpt>
      <trkpt lat="42.110009" lon="-8.881164">
        <ele>18.828</ele>
        <time>2019-04-29T16:45:38Z</time>
      </trkpt>
      <trkpt lat="42.110004" lon="-8.881106">
        <ele>18.889</ele>
        <time>2019-04-29T16:45:39Z</time>
      </trkpt>
      <trkpt lat="42.110001" lon="-8.881046">
        <ele>19.317</ele>
        <time>2019-04-29T16:45:40Z</time>
      </trkpt>
      <trkpt lat="42.109995" lon="-8.880603">
        <ele>19.308</ele>
        <time>2019-04-29T16:45:47Z</time>
      </trkpt>
      <trkpt lat="42.110003" lon="-8.880538">
        <ele>19.355</ele>
        <time>2019-04-29T16:45:48Z</time>
      </trkpt>
      <trkpt lat="42.110013" lon="-8.880476">
        <ele>18.878</ele>
        <time>2019-04-29T16:45:49Z</time>
      </trkpt>
      <trkpt lat="42.110026" lon="-8.880416">
        <ele>18.864</ele>
        <time>2019-04-29T16:45:50Z</time>
      </trkpt>
      <trkpt lat="42.110044" lon="-8.880357">
        <ele>18.812</ele>
        <time>2019-04-29T16:45:51Z</time>
      </trkpt>
      <trkpt lat="42.110064" lon="-8.880299">
        <ele>18.840</ele>
        <time>2019-04-29T16:45:52Z</time>
      </trkpt>
      <trkpt lat="42.110576" lon="-8.879492">
        <ele>18.892</ele>
        <time>2019-04-29T16:46:08Z</time>
      </trkpt>
      <trkpt lat="42.110784" lon="-8.879186">
        <ele>18.872</ele>
        <time>2019-04-29T16:46:14Z</time>
      </trkpt>
      <trkpt lat="42.110809" lon="-8.879126">
        <ele>18.886</ele>
        <time>2019-04-29T16:46:15Z</time>
      </trkpt>
      <trkpt lat="42.110830" lon="-8.879063">
        <ele>18.889</ele>
        <time>2019-04-29T16:46:16Z</time>
      </trkpt>
      <trkpt lat="42.110846" lon="-8.878997">
        <ele>18.806</ele>
        <time>2019-04-29T16:46:17Z</time>
      </trkpt>
      <trkpt lat="42.110860" lon="-8.878928">
        <ele>18.826</ele>
        <time>2019-04-29T16:46:18Z</time>
      </trkpt>
      <trkpt lat="42.110870" lon="-8.878859">
        <ele>19.308</ele>
        <time>2019-04-29T16:46:19Z</time>
      </trkpt>
      <trkpt lat="42.110876" lon="-8.878788">
        <ele>19.371</ele>
        <time>2019-04-29T16:46:20Z</time>
      </trkpt>
      <trkpt lat="42.110881" lon="-8.878718">
        <ele>19.344</ele>
        <time>2019-04-29T16:46:21Z</time>
      </trkpt>
      <trkpt lat="42.110881" lon="-8.878647">
        <ele>18.830</ele>
        <time>2019-04-29T16:46:22Z</time>
      </trkpt>
      <trkpt lat="42.110876" lon="-8.878578">
        <ele>18.898</ele>
        <time>2019-04-29T16:46:23Z</time>
      </trkpt>
      <trkpt lat="42.110867" lon="-8.878512">
        <ele>18.846</ele>
        <time>2019-04-29T16:46:24Z</time>
      </trkpt>
      <trkpt lat="42.110853" lon="-8.878446">
        <ele>18.838</ele>
        <time>2019-04-29T16:46:25Z</time>
      </trkpt>
      <trkpt lat="42.110839" lon="-8.878382">
        <ele>18.498</ele>
        <time>2019-04-29T16:46:26Z</time>
      </trkpt>
      <trkpt lat="42.110828" lon="-8.878314">
        <ele>18.822</ele>
        <time>2019-04-29T16:46:27Z</time>
      </trkpt>
      <trkpt lat="42.110820" lon="-8.878243">
        <ele>18.846</ele>
        <time>2019-04-29T16:46:28Z</time>
      </trkpt>
      <trkpt lat="42.110817" lon="-8.878173">
        <ele>18.888</ele>
        <time>2019-04-29T16:46:29Z</time>
      </trkpt>
      <trkpt lat="42.110820" lon="-8.878100">
        <ele>18.816</ele>
        <time>2019-04-29T16:46:30Z</time>
      </trkpt>
      <trkpt lat="42.110827" lon="-8.878026">
        <ele>18.808</ele>
        <time>2019-04-29T16:46:31Z</time>
      </trkpt>
      <trkpt lat="42.111196" lon="-8.876965">
        <ele>17.457</ele>
        <time>2019-04-29T16:46:46Z</time>
      </trkpt>
      <trkpt lat="42.111948" lon="-8.875889">
        <ele>16.440</ele>
        <time>2019-04-29T16:47:05Z</time>
      </trkpt>
      <trkpt lat="42.112761" lon="-8.874705">
        <ele>15.076</ele>
        <time>2019-04-29T16:47:26Z</time>
      </trkpt>
      <trkpt lat="42.113488" lon="-8.873688">
        <ele>14.514</ele>
        <time>2019-04-29T16:47:46Z</time>
      </trkpt>
      <trkpt lat="42.113920" lon="-8.873163">
        <ele>15.032</ele>
        <time>2019-04-29T16:47:59Z</time>
      </trkpt>
      <trkpt lat="42.113942" lon="-8.873119">
        <ele>15.054</ele>
        <time>2019-04-29T16:48:00Z</time>
      </trkpt>
      <trkpt lat="42.113963" lon="-8.873071">
        <ele>15.094</ele>
        <time>2019-04-29T16:48:01Z</time>
      </trkpt>
      <trkpt lat="42.113982" lon="-8.873018">
        <ele>15.088</ele>
        <time>2019-04-29T16:48:02Z</time>
      </trkpt>
      <trkpt lat="42.114000" lon="-8.872965">
        <ele>15.085</ele>
        <time>2019-04-29T16:48:03Z</time>
      </trkpt>
      <trkpt lat="42.114328" lon="-8.871799">
        <ele>15.589</ele>
        <time>2019-04-29T16:48:23Z</time>
      </trkpt>
      <trkpt lat="42.114491" lon="-8.870803">
        <ele>16.017</ele>
        <time>2019-04-29T16:48:39Z</time>
      </trkpt>
      <trkpt lat="42.114540" lon="-8.869551">
        <ele>16.008</ele>
        <time>2019-04-29T16:48:57Z</time>
      </trkpt>
      <trkpt lat="42.114680" lon="-8.868395">
        <ele>16.091</ele>
        <time>2019-04-29T16:49:14Z</time>
      </trkpt>
      <trkpt lat="42.114774" lon="-8.868156">
        <ele>15.594</ele>
        <time>2019-04-29T16:49:18Z</time>
      </trkpt>
      <trkpt lat="42.114802" lon="-8.868101">
        <ele>15.510</ele>
        <time>2019-04-29T16:49:19Z</time>
      </trkpt>
      <trkpt lat="42.115377" lon="-8.867449">
        <ele>16.498</ele>
        <time>2019-04-29T16:49:34Z</time>
      </trkpt>
      <trkpt lat="42.116344" lon="-8.866753">
        <ele>16.946</ele>
        <time>2019-04-29T16:49:55Z</time>
      </trkpt>
      <trkpt lat="42.117189" lon="-8.866169">
        <ele>17.938</ele>
        <time>2019-04-29T16:50:14Z</time>
      </trkpt>
      <trkpt lat="42.117228" lon="-8.866156">
        <ele>17.938</ele>
        <time>2019-04-29T16:50:15Z</time>
      </trkpt>
      <trkpt lat="42.117268" lon="-8.866148">
        <ele>17.492</ele>
        <time>2019-04-29T16:50:16Z</time>
      </trkpt>
      <trkpt lat="42.117590" lon="-8.866185">
        <ele>16.455</ele>
        <time>2019-04-29T16:50:28Z</time>
      </trkpt>
      <trkpt lat="42.117589" lon="-8.866197">
        <ele>17.407</ele>
        <time>2019-04-29T16:50:44Z</time>
      </trkpt>
      <trkpt lat="42.117584" lon="-8.866178">
        <ele>18.817</ele>
        <time>2019-04-29T16:51:19Z</time>
      </trkpt>
      <trkpt lat="42.117586" lon="-8.866177">
        <ele>18.808</ele>
        <time>2019-04-29T16:51:42Z</time>
      </trkpt>
      <trkpt lat="42.117599" lon="-8.866173">
        <ele>18.848</ele>
        <time>2019-04-29T16:51:43Z</time>
      </trkpt>
      <trkpt lat="42.117612" lon="-8.866173">
        <ele>18.881</ele>
        <time>2019-04-29T16:51:44Z</time>
      </trkpt>
      <trkpt lat="42.117627" lon="-8.866175">
        <ele>18.847</ele>
        <time>2019-04-29T16:51:45Z</time>
      </trkpt>
      <trkpt lat="42.117648" lon="-8.866179">
        <ele>18.855</ele>
        <time>2019-04-29T16:51:46Z</time>
      </trkpt>
      <trkpt lat="42.117673" lon="-8.866185">
        <ele>18.473</ele>
        <time>2019-04-29T16:51:47Z</time>
      </trkpt>
      <trkpt lat="42.117985" lon="-8.866180">
        <ele>18.435</ele>
        <time>2019-04-29T16:51:59Z</time>
      </trkpt>
      <trkpt lat="42.118179" lon="-8.865990">
        <ele>17.495</ele>
        <time>2019-04-29T16:52:11Z</time>
      </trkpt>
      <trkpt lat="42.118200" lon="-8.865754">
        <ele>16.929</ele>
        <time>2019-04-29T16:52:21Z</time>
      </trkpt>
      <trkpt lat="42.118102" lon="-8.865407">
        <ele>17.482</ele>
        <time>2019-04-29T16:52:32Z</time>
      </trkpt>
      <trkpt lat="42.118011" lon="-8.864942">
        <ele>17.943</ele>
        <time>2019-04-29T16:52:44Z</time>
      </trkpt>
      <trkpt lat="42.118006" lon="-8.864325">
        <ele>19.817</ele>
        <time>2019-04-29T16:52:57Z</time>
      </trkpt>
      <trkpt lat="42.118289" lon="-8.863798">
        <ele>24.108</ele>
        <time>2019-04-29T16:53:11Z</time>
      </trkpt>
      <trkpt lat="42.118752" lon="-8.863422">
        <ele>28.041</ele>
        <time>2019-04-29T16:53:29Z</time>
      </trkpt>
      <trkpt lat="42.119340" lon="-8.863206">
        <ele>26.064</ele>
        <time>2019-04-29T16:53:46Z</time>
      </trkpt>
      <trkpt lat="42.120221" lon="-8.862919">
        <ele>22.710</ele>
        <time>2019-04-29T16:54:04Z</time>
      </trkpt>
      <trkpt lat="42.120276" lon="-8.862906">
        <ele>22.758</ele>
        <time>2019-04-29T16:54:05Z</time>
      </trkpt>
      <trkpt lat="42.120329" lon="-8.862886">
        <ele>22.216</ele>
        <time>2019-04-29T16:54:06Z</time>
      </trkpt>
      <trkpt lat="42.120380" lon="-8.862860">
        <ele>22.258</ele>
        <time>2019-04-29T16:54:07Z</time>
      </trkpt>
      <trkpt lat="42.120432" lon="-8.862830">
        <ele>21.788</ele>
        <time>2019-04-29T16:54:08Z</time>
      </trkpt>
      <trkpt lat="42.120481" lon="-8.862798">
        <ele>21.262</ele>
        <time>2019-04-29T16:54:09Z</time>
      </trkpt>
      <trkpt lat="42.120529" lon="-8.862758">
        <ele>21.261</ele>
        <time>2019-04-29T16:54:10Z</time>
      </trkpt>
      <trkpt lat="42.120571" lon="-8.862706">
        <ele>20.821</ele>
        <time>2019-04-29T16:54:11Z</time>
      </trkpt>
      <trkpt lat="42.120608" lon="-8.862647">
        <ele>20.813</ele>
        <time>2019-04-29T16:54:12Z</time>
      </trkpt>
      <trkpt lat="42.120633" lon="-8.862581">
        <ele>20.308</ele>
        <time>2019-04-29T16:54:13Z</time>
      </trkpt>
      <trkpt lat="42.120657" lon="-8.862516">
        <ele>20.349</ele>
        <time>2019-04-29T16:54:14Z</time>
      </trkpt>
      <trkpt lat="42.120711" lon="-8.862312">
        <ele>20.342</ele>
        <time>2019-04-29T16:54:17Z</time>
      </trkpt>
      <trkpt lat="42.120712" lon="-8.862238">
        <ele>19.838</ele>
        <time>2019-04-29T16:54:18Z</time>
      </trkpt>
      <trkpt lat="42.120710" lon="-8.862163">
        <ele>19.816</ele>
        <time>2019-04-29T16:54:19Z</time>
      </trkpt>
      <trkpt lat="42.120726" lon="-8.862090">
        <ele>19.354</ele>
        <time>2019-04-29T16:54:20Z</time>
      </trkpt>
      <trkpt lat="42.120755" lon="-8.862025">
        <ele>19.346</ele>
        <time>2019-04-29T16:54:21Z</time>
      </trkpt>
      <trkpt lat="42.120788" lon="-8.861965">
        <ele>19.356</ele>
        <time>2019-04-29T16:54:22Z</time>
      </trkpt>
      <trkpt lat="42.120825" lon="-8.861909">
        <ele>19.370</ele>
        <time>2019-04-29T16:54:23Z</time>
      </trkpt>
      <trkpt lat="42.120972" lon="-8.861704">
        <ele>19.328</ele>
        <time>2019-04-29T16:54:27Z</time>
      </trkpt>
      <trkpt lat="42.120991" lon="-8.861638">
        <ele>19.389</ele>
        <time>2019-04-29T16:54:28Z</time>
      </trkpt>
      <trkpt lat="42.121005" lon="-8.861569">
        <ele>19.317</ele>
        <time>2019-04-29T16:54:29Z</time>
      </trkpt>
      <trkpt lat="42.121079" lon="-8.861131">
        <ele>18.808</ele>
        <time>2019-04-29T16:54:35Z</time>
      </trkpt>
      <trkpt lat="42.121084" lon="-8.861054">
        <ele>18.835</ele>
        <time>2019-04-29T16:54:36Z</time>
      </trkpt>
      <trkpt lat="42.121097" lon="-8.860825">
        <ele>18.858</ele>
        <time>2019-04-29T16:54:39Z</time>
      </trkpt>
      <trkpt lat="42.121115" lon="-8.860754">
        <ele>18.474</ele>
        <time>2019-04-29T16:54:40Z</time>
      </trkpt>
      <trkpt lat="42.121142" lon="-8.860687">
        <ele>18.472</ele>
        <time>2019-04-29T16:54:41Z</time>
      </trkpt>
      <trkpt lat="42.121639" lon="-8.859752">
        <ele>17.480</ele>
        <time>2019-04-29T16:54:57Z</time>
      </trkpt>
      <trkpt lat="42.122228" lon="-8.858527">
        <ele>16.432</ele>
        <time>2019-04-29T16:55:17Z</time>
      </trkpt>
      <trkpt lat="42.122256" lon="-8.858385">
        <ele>16.442</ele>
        <time>2019-04-29T16:55:19Z</time>
      </trkpt>
      <trkpt lat="42.122258" lon="-8.858312">
        <ele>16.466</ele>
        <time>2019-04-29T16:55:20Z</time>
      </trkpt>
      <trkpt lat="42.122250" lon="-8.858239">
        <ele>16.478</ele>
        <time>2019-04-29T16:55:21Z</time>
      </trkpt>
      <trkpt lat="42.122236" lon="-8.858167">
        <ele>16.033</ele>
        <time>2019-04-29T16:55:22Z</time>
      </trkpt>
      <trkpt lat="42.122220" lon="-8.858092">
        <ele>16.026</ele>
        <time>2019-04-29T16:55:23Z</time>
      </trkpt>
      <trkpt lat="42.121888" lon="-8.856558">
        <ele>14.508</ele>
        <time>2019-04-29T16:55:44Z</time>
      </trkpt>
      <trkpt lat="42.121625" lon="-8.855349">
        <ele>13.640</ele>
        <time>2019-04-29T16:56:01Z</time>
      </trkpt>
      <trkpt lat="42.121536" lon="-8.854362">
        <ele>13.653</ele>
        <time>2019-04-29T16:56:15Z</time>
      </trkpt>
      <trkpt lat="42.121561" lon="-8.854324">
        <ele>14.059</ele>
        <time>2019-04-29T16:56:16Z</time>
      </trkpt>
      <trkpt lat="42.121596" lon="-8.854303">
        <ele>14.597</ele>
        <time>2019-04-29T16:56:17Z</time>
      </trkpt>
      <trkpt lat="42.121631" lon="-8.854281">
        <ele>14.535</ele>
        <time>2019-04-29T16:56:18Z</time>
      </trkpt>
      <trkpt lat="42.121663" lon="-8.854249">
        <ele>15.097</ele>
        <time>2019-04-29T16:56:19Z</time>
      </trkpt>
      <trkpt lat="42.121689" lon="-8.854217">
        <ele>15.097</ele>
        <time>2019-04-29T16:56:20Z</time>
      </trkpt>
      <trkpt lat="42.121885" lon="-8.853968">
        <ele>15.541</ele>
        <time>2019-04-29T16:56:31Z</time>
      </trkpt>
      <trkpt lat="42.121898" lon="-8.853976">
        <ele>13.129</ele>
        <time>2019-04-29T16:56:50Z</time>
      </trkpt>
      <trkpt lat="42.121891" lon="-8.853967">
        <ele>16.000</ele>
        <time>2019-04-29T16:57:27Z</time>
      </trkpt>
      <trkpt lat="42.121890" lon="-8.853968">
        <ele>14.520</ele>
        <time>2019-04-29T16:58:02Z</time>
      </trkpt>
      <trkpt lat="42.121885" lon="-8.853785">
        <ele>15.008</ele>
        <time>2019-04-29T16:58:16Z</time>
      </trkpt>
      <trkpt lat="42.121895" lon="-8.853684">
        <ele>15.025</ele>
        <time>2019-04-29T16:58:18Z</time>
      </trkpt>
      <trkpt lat="42.121913" lon="-8.853634">
        <ele>15.068</ele>
        <time>2019-04-29T16:58:19Z</time>
      </trkpt>
      <trkpt lat="42.121934" lon="-8.853590">
        <ele>14.524</ele>
        <time>2019-04-29T16:58:20Z</time>
      </trkpt>
      <trkpt lat="42.122109" lon="-8.852995">
        <ele>13.612</ele>
        <time>2019-04-29T16:58:33Z</time>
      </trkpt>
      <trkpt lat="42.122189" lon="-8.852406">
        <ele>12.690</ele>
        <time>2019-04-29T16:58:44Z</time>
      </trkpt>
      <trkpt lat="42.122156" lon="-8.852263">
        <ele>12.692</ele>
        <time>2019-04-29T16:58:47Z</time>
      </trkpt>
      <trkpt lat="42.122127" lon="-8.852227">
        <ele>12.642</ele>
        <time>2019-04-29T16:58:48Z</time>
      </trkpt>
      <trkpt lat="42.122098" lon="-8.852202">
        <ele>12.616</ele>
        <time>2019-04-29T16:58:49Z</time>
      </trkpt>
      <trkpt lat="42.122069" lon="-8.852183">
        <ele>13.125</ele>
        <time>2019-04-29T16:58:50Z</time>
      </trkpt>
      <trkpt lat="42.122041" lon="-8.852166">
        <ele>13.126</ele>
        <time>2019-04-29T16:58:51Z</time>
      </trkpt>
      <trkpt lat="42.122017" lon="-8.852145">
        <ele>13.108</ele>
        <time>2019-04-29T16:58:52Z</time>
      </trkpt>
      <trkpt lat="42.121995" lon="-8.852124">
        <ele>13.108</ele>
        <time>2019-04-29T16:58:53Z</time>
      </trkpt>
      <trkpt lat="42.121974" lon="-8.852104">
        <ele>13.195</ele>
        <time>2019-04-29T16:58:54Z</time>
      </trkpt>
      <trkpt lat="42.121960" lon="-8.852079">
        <ele>13.178</ele>
        <time>2019-04-29T16:58:55Z</time>
      </trkpt>
      <trkpt lat="42.121951" lon="-8.852051">
        <ele>13.624</ele>
        <time>2019-04-29T16:58:56Z</time>
      </trkpt>
      <trkpt lat="42.121947" lon="-8.852021">
        <ele>13.692</ele>
        <time>2019-04-29T16:58:57Z</time>
      </trkpt>
      <trkpt lat="42.121947" lon="-8.851994">
        <ele>14.020</ele>
        <time>2019-04-29T16:58:58Z</time>
      </trkpt>
      <trkpt lat="42.121947" lon="-8.851969">
        <ele>14.032</ele>
        <time>2019-04-29T16:58:59Z</time>
      </trkpt>
      <trkpt lat="42.121780" lon="-8.851575">
        <ele>16.452</ele>
        <time>2019-04-29T16:59:12Z</time>
      </trkpt>
      <trkpt lat="42.121521" lon="-8.851058">
        <ele>15.586</ele>
        <time>2019-04-29T16:59:26Z</time>
      </trkpt>
      <trkpt lat="42.121252" lon="-8.850421">
        <ele>13.613</ele>
        <time>2019-04-29T16:59:41Z</time>
      </trkpt>
      <trkpt lat="42.121171" lon="-8.850230">
        <ele>12.643</ele>
        <time>2019-04-29T16:59:46Z</time>
      </trkpt>
      <trkpt lat="42.121173" lon="-8.850190">
        <ele>12.607</ele>
        <time>2019-04-29T16:59:47Z</time>
      </trkpt>
      <trkpt lat="42.121182" lon="-8.850161">
        <ele>12.108</ele>
        <time>2019-04-29T16:59:48Z</time>
      </trkpt>
      <trkpt lat="42.121195" lon="-8.850139">
        <ele>12.194</ele>
        <time>2019-04-29T16:59:49Z</time>
      </trkpt>
      <trkpt lat="42.121210" lon="-8.850121">
        <ele>12.177</ele>
        <time>2019-04-29T16:59:50Z</time>
      </trkpt>
      <trkpt lat="42.121230" lon="-8.850097">
        <ele>12.193</ele>
        <time>2019-04-29T16:59:51Z</time>
      </trkpt>
      <trkpt lat="42.121244" lon="-8.850062">
        <ele>12.171</ele>
        <time>2019-04-29T16:59:52Z</time>
      </trkpt>
      <trkpt lat="42.121246" lon="-8.850025">
        <ele>11.659</ele>
        <time>2019-04-29T16:59:53Z</time>
      </trkpt>
      <trkpt lat="42.121240" lon="-8.849990">
        <ele>11.641</ele>
        <time>2019-04-29T16:59:54Z</time>
      </trkpt>
      <trkpt lat="42.121229" lon="-8.849955">
        <ele>11.131</ele>
        <time>2019-04-29T16:59:55Z</time>
      </trkpt>
      <trkpt lat="42.121215" lon="-8.849925">
        <ele>11.115</ele>
        <time>2019-04-29T16:59:56Z</time>
      </trkpt>
      <trkpt lat="42.121191" lon="-8.849916">
        <ele>11.173</ele>
        <time>2019-04-29T16:59:57Z</time>
      </trkpt>
      <trkpt lat="42.121169" lon="-8.849919">
        <ele>11.185</ele>
        <time>2019-04-29T16:59:58Z</time>
      </trkpt>
      <trkpt lat="42.120870" lon="-8.849830">
        <ele>11.113</ele>
        <time>2019-04-29T17:00:09Z</time>
      </trkpt>
      <trkpt lat="42.120546" lon="-8.849471">
        <ele>9.708</ele>
        <time>2019-04-29T17:00:21Z</time>
      </trkpt>
      <trkpt lat="42.120305" lon="-8.849155">
        <ele>9.210</ele>
        <time>2019-04-29T17:00:33Z</time>
      </trkpt>
      <trkpt lat="42.120214" lon="-8.849023">
        <ele>10.283</ele>
        <time>2019-04-29T17:00:51Z</time>
      </trkpt>
      <trkpt lat="42.120007" lon="-8.848758">
        <ele>10.719</ele>
        <time>2019-04-29T17:01:05Z</time>
      </trkpt>
      <trkpt lat="42.119959" lon="-8.848699">
        <ele>10.727</ele>
        <time>2019-04-29T17:01:20Z</time>
      </trkpt>
      <trkpt lat="42.119946" lon="-8.848701">
        <ele>10.775</ele>
        <time>2019-04-29T17:01:46Z</time>
      </trkpt>
      <trkpt lat="42.119904" lon="-8.848758">
        <ele>10.257</ele>
        <time>2019-04-29T17:01:51Z</time>
      </trkpt>
      <trkpt lat="42.119922" lon="-8.848942">
        <ele>10.787</ele>
        <time>2019-04-29T17:02:01Z</time>
      </trkpt>
      <trkpt lat="42.119740" lon="-8.849198">
        <ele>10.251</ele>
        <time>2019-04-29T17:02:14Z</time>
      </trkpt>
      <trkpt lat="42.119702" lon="-8.849240">
        <ele>11.666</ele>
        <time>2019-04-29T17:02:18Z</time>
      </trkpt>
      <trkpt lat="42.119609" lon="-8.849337">
        <ele>14.529</ele>
        <time>2019-04-29T17:02:30Z</time>
      </trkpt>
      <trkpt lat="42.119604" lon="-8.849338">
        <ele>14.521</ele>
        <time>2019-04-29T17:02:49Z</time>
      </trkpt>
      <trkpt lat="42.119642" lon="-8.849441">
        <ele>16.008</ele>
        <time>2019-04-29T17:03:27Z</time>
      </trkpt>
      <trkpt lat="42.119645" lon="-8.849456">
        <ele>16.489</ele>
        <time>2019-04-29T17:03:57Z</time>
      </trkpt>
      <trkpt lat="42.119650" lon="-8.849459">
        <ele>17.412</ele>
        <time>2019-04-29T17:04:35Z</time>
      </trkpt>
      <trkpt lat="42.119646" lon="-8.849466">
        <ele>17.468</ele>
        <time>2019-04-29T17:05:11Z</time>
      </trkpt>
      <trkpt lat="42.119635" lon="-8.849480">
        <ele>17.476</ele>
        <time>2019-04-29T17:05:49Z</time>
      </trkpt>
      <trkpt lat="42.119631" lon="-8.849488">
        <ele>17.444</ele>
        <time>2019-04-29T17:06:25Z</time>
      </trkpt>
      <trkpt lat="42.119627" lon="-8.849488">
        <ele>19.356</ele>
        <time>2019-04-29T17:06:51Z</time>
      </trkpt>
      <trkpt lat="42.119625" lon="-8.849485">
        <ele>19.856</ele>
        <time>2019-04-29T17:07:06Z</time>
      </trkpt>
      <trkpt lat="42.119481" lon="-8.849549">
        <ele>20.390</ele>
        <time>2019-04-29T17:07:21Z</time>
      </trkpt>
      <trkpt lat="42.119390" lon="-8.849618">
        <ele>20.337</ele>
        <time>2019-04-29T17:07:26Z</time>
      </trkpt>
      <trkpt lat="42.119394" lon="-8.849674">
        <ele>26.049</ele>
        <time>2019-04-29T17:07:36Z</time>
      </trkpt>
      <trkpt lat="42.119463" lon="-8.849704">
        <ele>31.813</ele>
        <time>2019-04-29T17:07:48Z</time>
      </trkpt>
      <trkpt lat="42.119362" lon="-8.849691">
        <ele>28.008</ele>
        <time>2019-04-29T17:08:00Z</time>
      </trkpt>
      <trkpt lat="42.119300" lon="-8.849754">
        <ele>26.596</ele>
        <time>2019-04-29T17:08:05Z</time>
      </trkpt>
      <trkpt lat="42.119181" lon="-8.849812">
        <ele>28.559</ele>
        <time>2019-04-29T17:08:11Z</time>
      </trkpt>
      <trkpt lat="42.118987" lon="-8.849893">
        <ele>28.525</ele>
        <time>2019-04-29T17:08:22Z</time>
      </trkpt>
      <trkpt lat="42.118917" lon="-8.849905">
        <ele>28.953</ele>
        <time>2019-04-29T17:08:28Z</time>
      </trkpt>
      <trkpt lat="42.118829" lon="-8.849882">
        <ele>27.511</ele>
        <time>2019-04-29T17:08:34Z</time>
      </trkpt>
      <trkpt lat="42.118821" lon="-8.849986">
        <ele>25.133</ele>
        <time>2019-04-29T17:08:40Z</time>
      </trkpt>
      <trkpt lat="42.118798" lon="-8.850112">
        <ele>21.723</ele>
        <time>2019-04-29T17:08:46Z</time>
      </trkpt>
      <trkpt lat="42.118796" lon="-8.850271">
        <ele>21.737</ele>
        <time>2019-04-29T17:08:56Z</time>
      </trkpt>
      <trkpt lat="42.118807" lon="-8.850294">
        <ele>21.771</ele>
        <time>2019-04-29T17:08:58Z</time>
      </trkpt>
      <trkpt lat="42.118856" lon="-8.850427">
        <ele>21.741</ele>
        <time>2019-04-29T17:09:06Z</time>
      </trkpt>
      <trkpt lat="42.118899" lon="-8.850568">
        <ele>20.315</ele>
        <time>2019-04-29T17:09:13Z</time>
      </trkpt>
      <trkpt lat="42.118771" lon="-8.850739">
        <ele>19.808</ele>
        <time>2019-04-29T17:09:26Z</time>
      </trkpt>
      <trkpt lat="42.118729" lon="-8.850790">
        <ele>20.330</ele>
        <time>2019-04-29T17:09:30Z</time>
      </trkpt>
      <trkpt lat="42.118651" lon="-8.850840">
        <ele>20.353</ele>
        <time>2019-04-29T17:09:35Z</time>
      </trkpt>
      <trkpt lat="42.118630" lon="-8.850866">
        <ele>19.829</ele>
        <time>2019-04-29T17:09:37Z</time>
      </trkpt>
      <trkpt lat="42.118341" lon="-8.850964">
        <ele>18.847</ele>
        <time>2019-04-29T17:09:49Z</time>
      </trkpt>
      <trkpt lat="42.118281" lon="-8.850961">
        <ele>18.825</ele>
        <time>2019-04-29T17:09:52Z</time>
      </trkpt>
      <trkpt lat="42.118206" lon="-8.851069">
        <ele>19.837</ele>
        <time>2019-04-29T17:09:58Z</time>
      </trkpt>
      <trkpt lat="42.118186" lon="-8.851229">
        <ele>21.747</ele>
        <time>2019-04-29T17:10:03Z</time>
      </trkpt>
      <trkpt lat="42.118052" lon="-8.851186">
        <ele>22.721</ele>
        <time>2019-04-29T17:10:11Z</time>
      </trkpt>
      <trkpt lat="42.118043" lon="-8.851008">
        <ele>23.616</ele>
        <time>2019-04-29T17:10:19Z</time>
      </trkpt>
      <trkpt lat="42.118038" lon="-8.850914">
        <ele>24.676</ele>
        <time>2019-04-29T17:10:24Z</time>
      </trkpt>
      <trkpt lat="42.118013" lon="-8.850805">
        <ele>24.113</ele>
        <time>2019-04-29T17:10:34Z</time>
      </trkpt>
      <trkpt lat="42.118042" lon="-8.850753">
        <ele>24.608</ele>
        <time>2019-04-29T17:10:59Z</time>
      </trkpt>
      <trkpt lat="42.118044" lon="-8.850741">
        <ele>23.624</ele>
        <time>2019-04-29T17:11:27Z</time>
      </trkpt>
      <trkpt lat="42.118047" lon="-8.850730">
        <ele>23.697</ele>
        <time>2019-04-29T17:11:50Z</time>
      </trkpt>
      <trkpt lat="42.118023" lon="-8.850722">
        <ele>24.133</ele>
        <time>2019-04-29T17:12:07Z</time>
      </trkpt>
      <trkpt lat="42.117904" lon="-8.850709">
        <ele>24.671</ele>
        <time>2019-04-29T17:12:14Z</time>
      </trkpt>
      <trkpt lat="42.117892" lon="-8.850691">
        <ele>25.199</ele>
        <time>2019-04-29T17:12:18Z</time>
      </trkpt>
      <trkpt lat="42.117896" lon="-8.850732">
        <ele>25.641</ele>
        <time>2019-04-29T17:12:31Z</time>
      </trkpt>
      <trkpt lat="42.117910" lon="-8.850717">
        <ele>25.631</ele>
        <time>2019-04-29T17:13:01Z</time>
      </trkpt>
      <trkpt lat="42.117904" lon="-8.850718">
        <ele>25.655</ele>
        <time>2019-04-29T17:13:27Z</time>
      </trkpt>
      <trkpt lat="42.117902" lon="-8.850724">
        <ele>26.599</ele>
        <time>2019-04-29T17:13:50Z</time>
      </trkpt>
      <trkpt lat="42.117900" lon="-8.850735">
        <ele>27.007</ele>
        <time>2019-04-29T17:14:19Z</time>
      </trkpt>
      <trkpt lat="42.117899" lon="-8.850735">
        <ele>27.027</ele>
        <time>2019-04-29T17:14:35Z</time>
      </trkpt>
      <trkpt lat="42.117897" lon="-8.850770">
        <ele>26.508</ele>
        <time>2019-04-29T17:14:46Z</time>
      </trkpt>
      <trkpt lat="42.117903" lon="-8.850779">
        <ele>28.022</ele>
        <time>2019-04-29T17:15:11Z</time>
      </trkpt>
      <trkpt lat="42.117906" lon="-8.850785">
        <ele>27.565</ele>
        <time>2019-04-29T17:15:33Z</time>
      </trkpt>
      <trkpt lat="42.117906" lon="-8.850777">
        <ele>28.041</ele>
        <time>2019-04-29T17:16:00Z</time>
      </trkpt>
      <trkpt lat="42.117906" lon="-8.850779">
        <ele>28.029</ele>
        <time>2019-04-29T17:16:21Z</time>
      </trkpt>
      <trkpt lat="42.117996" lon="-8.850948">
        <ele>34.217</ele>
        <time>2019-04-29T17:16:31Z</time>
      </trkpt>
      <trkpt lat="42.118030" lon="-8.851036">
        <ele>34.279</ele>
        <time>2019-04-29T17:16:43Z</time>
      </trkpt>
      <trkpt lat="42.118032" lon="-8.851043">
        <ele>33.759</ele>
        <time>2019-04-29T17:16:51Z</time>
      </trkpt>
      <trkpt lat="42.118042" lon="-8.851109">
        <ele>32.383</ele>
        <time>2019-04-29T17:16:55Z</time>
      </trkpt>
      <trkpt lat="42.118039" lon="-8.851217">
        <ele>30.497</ele>
        <time>2019-04-29T17:16:58Z</time>
      </trkpt>
      <trkpt lat="42.118123" lon="-8.851189">
        <ele>26.523</ele>
        <time>2019-04-29T17:17:05Z</time>
      </trkpt>
      <trkpt lat="42.118133" lon="-8.851108">
        <ele>25.125</ele>
        <time>2019-04-29T17:17:15Z</time>
      </trkpt>
      <trkpt lat="42.118200" lon="-8.850660">
        <ele>24.108</ele>
        <time>2019-04-29T17:17:26Z</time>
      </trkpt>
      <trkpt lat="42.118218" lon="-8.850172">
        <ele>22.752</ele>
        <time>2019-04-29T17:17:38Z</time>
      </trkpt>
      <trkpt lat="42.118220" lon="-8.850152">
        <ele>22.265</ele>
        <time>2019-04-29T17:17:39Z</time>
      </trkpt>
      <trkpt lat="42.118229" lon="-8.850043">
        <ele>22.241</ele>
        <time>2019-04-29T17:17:45Z</time>
      </trkpt>
      <trkpt lat="42.118224" lon="-8.850066">
        <ele>22.239</ele>
        <time>2019-04-29T17:17:54Z</time>
      </trkpt>
      <trkpt lat="42.118238" lon="-8.850019">
        <ele>22.717</ele>
        <time>2019-04-29T17:17:59Z</time>
      </trkpt>
      <trkpt lat="42.118209" lon="-8.850137">
        <ele>22.769</ele>
        <time>2019-04-29T17:18:08Z</time>
      </trkpt>
      <trkpt lat="42.118213" lon="-8.850160">
        <ele>22.749</ele>
        <time>2019-04-29T17:18:09Z</time>
      </trkpt>
      <trkpt lat="42.118345" lon="-8.850132">
        <ele>23.683</ele>
        <time>2019-04-29T17:18:22Z</time>
      </trkpt>
      <trkpt lat="42.118470" lon="-8.850054">
        <ele>23.268</ele>
        <time>2019-04-29T17:18:43Z</time>
      </trkpt>
      <trkpt lat="42.118767" lon="-8.849939">
        <ele>20.842</ele>
        <time>2019-04-29T17:18:54Z</time>
      </trkpt>
      <trkpt lat="42.118800" lon="-8.849961">
        <ele>19.826</ele>
        <time>2019-04-29T17:18:57Z</time>
      </trkpt>
      <trkpt lat="42.118800" lon="-8.849857">
        <ele>18.808</ele>
        <time>2019-04-29T17:19:02Z</time>
      </trkpt>
      <trkpt lat="42.118803" lon="-8.849573">
        <ele>17.929</ele>
        <time>2019-04-29T17:19:11Z</time>
      </trkpt>
      <trkpt lat="42.118787" lon="-8.849483">
        <ele>17.492</ele>
        <time>2019-04-29T17:19:15Z</time>
      </trkpt>
      <trkpt lat="42.118788" lon="-8.849206">
        <ele>17.468</ele>
        <time>2019-04-29T17:19:25Z</time>
      </trkpt>
      <trkpt lat="42.118739" lon="-8.848813">
        <ele>15.546</ele>
        <time>2019-04-29T17:19:37Z</time>
      </trkpt>
      <trkpt lat="42.118697" lon="-8.848309">
        <ele>17.974</ele>
        <time>2019-04-29T17:19:50Z</time>
      </trkpt>
      <trkpt lat="42.118560" lon="-8.847913">
        <ele>18.876</ele>
        <time>2019-04-29T17:20:02Z</time>
      </trkpt>
      <trkpt lat="42.118423" lon="-8.847636">
        <ele>16.966</ele>
        <time>2019-04-29T17:20:14Z</time>
      </trkpt>
      <trkpt lat="42.118344" lon="-8.847560">
        <ele>15.050</ele>
        <time>2019-04-29T17:20:22Z</time>
      </trkpt>
      <trkpt lat="42.118502" lon="-8.847274">
        <ele>12.652</ele>
        <time>2019-04-29T17:20:31Z</time>
      </trkpt>
      <trkpt lat="42.118549" lon="-8.847173">
        <ele>10.753</ele>
        <time>2019-04-29T17:20:37Z</time>
      </trkpt>
      <trkpt lat="42.118599" lon="-8.846964">
        <ele>10.708</ele>
        <time>2019-04-29T17:20:46Z</time>
      </trkpt>
      <trkpt lat="42.118563" lon="-8.846881">
        <ele>10.208</ele>
        <time>2019-04-29T17:20:50Z</time>
      </trkpt>
      <trkpt lat="42.118337" lon="-8.846434">
        <ele>9.758</ele>
        <time>2019-04-29T17:21:04Z</time>
      </trkpt>
      <trkpt lat="42.118316" lon="-8.846389">
        <ele>9.781</ele>
        <time>2019-04-29T17:21:05Z</time>
      </trkpt>
      <trkpt lat="42.118043" lon="-8.845794">
        <ele>8.347</ele>
        <time>2019-04-29T17:21:21Z</time>
      </trkpt>
      <trkpt lat="42.117755" lon="-8.845208">
        <ele>8.345</ele>
        <time>2019-04-29T17:21:36Z</time>
      </trkpt>
      <trkpt lat="42.117474" lon="-8.844606">
        <ele>9.763</ele>
        <time>2019-04-29T17:21:52Z</time>
      </trkpt>
      <trkpt lat="42.117213" lon="-8.844203">
        <ele>10.245</ele>
        <time>2019-04-29T17:22:04Z</time>
      </trkpt>
      <trkpt lat="42.116860" lon="-8.843773">
        <ele>10.785</ele>
        <time>2019-04-29T17:22:16Z</time>
      </trkpt>
      <trkpt lat="42.116349" lon="-8.843195">
        <ele>10.749</ele>
        <time>2019-04-29T17:22:33Z</time>
      </trkpt>
      <trkpt lat="42.115937" lon="-8.842700">
        <ele>10.727</ele>
        <time>2019-04-29T17:22:49Z</time>
      </trkpt>
      <trkpt lat="42.115516" lon="-8.842206">
        <ele>10.768</ele>
        <time>2019-04-29T17:23:04Z</time>
      </trkpt>
      <trkpt lat="42.115126" lon="-8.841744">
        <ele>11.114</ele>
        <time>2019-04-29T17:23:18Z</time>
      </trkpt>
      <trkpt lat="42.114808" lon="-8.841299">
        <ele>12.108</ele>
        <time>2019-04-29T17:23:33Z</time>
      </trkpt>
      <trkpt lat="42.114537" lon="-8.840948">
        <ele>12.665</ele>
        <time>2019-04-29T17:23:45Z</time>
      </trkpt>
      <trkpt lat="42.114334" lon="-8.840223">
        <ele>11.158</ele>
        <time>2019-04-29T17:24:01Z</time>
      </trkpt>
      <trkpt lat="42.114129" lon="-8.839484">
        <ele>9.754</ele>
        <time>2019-04-29T17:24:17Z</time>
      </trkpt>
      <trkpt lat="42.113993" lon="-8.839007">
        <ele>9.212</ele>
        <time>2019-04-29T17:24:31Z</time>
      </trkpt>
      <trkpt lat="42.113999" lon="-8.838981">
        <ele>9.770</ele>
        <time>2019-04-29T17:24:32Z</time>
      </trkpt>
      <trkpt lat="42.114008" lon="-8.838960">
        <ele>9.792</ele>
        <time>2019-04-29T17:24:33Z</time>
      </trkpt>
      <trkpt lat="42.114004" lon="-8.838974">
        <ele>9.772</ele>
        <time>2019-04-29T17:24:41Z</time>
      </trkpt>
      <trkpt lat="42.113986" lon="-8.838985">
        <ele>9.786</ele>
        <time>2019-04-29T17:24:43Z</time>
      </trkpt>
      <trkpt lat="42.113978" lon="-8.839000">
        <ele>10.745</ele>
        <time>2019-04-29T17:24:55Z</time>
      </trkpt>
      <trkpt lat="42.113984" lon="-8.838991">
        <ele>10.747</ele>
        <time>2019-04-29T17:25:13Z</time>
      </trkpt>
      <trkpt lat="42.113991" lon="-8.838994">
        <ele>9.711</ele>
        <time>2019-04-29T17:25:41Z</time>
      </trkpt>
      <trkpt lat="42.113992" lon="-8.838988">
        <ele>9.708</ele>
        <time>2019-04-29T17:26:03Z</time>
      </trkpt>
      <trkpt lat="42.113996" lon="-8.838988">
        <ele>9.767</ele>
        <time>2019-04-29T17:26:22Z</time>
      </trkpt>
      <trkpt lat="42.114005" lon="-8.838965">
        <ele>9.720</ele>
        <time>2019-04-29T17:26:24Z</time>
      </trkpt>
      <trkpt lat="42.114015" lon="-8.838955">
        <ele>9.776</ele>
        <time>2019-04-29T17:26:25Z</time>
      </trkpt>
      <trkpt lat="42.114023" lon="-8.838943">
        <ele>9.754</ele>
        <time>2019-04-29T17:26:26Z</time>
      </trkpt>
      <trkpt lat="42.114017" lon="-8.838906">
        <ele>12.172</ele>
        <time>2019-04-29T17:26:40Z</time>
      </trkpt>
      <trkpt lat="42.114047" lon="-8.838849">
        <ele>11.684</ele>
        <time>2019-04-29T17:26:55Z</time>
      </trkpt>
      <trkpt lat="42.114053" lon="-8.838825">
        <ele>11.654</ele>
        <time>2019-04-29T17:26:56Z</time>
      </trkpt>
      <trkpt lat="42.114058" lon="-8.838806">
        <ele>11.678</ele>
        <time>2019-04-29T17:26:57Z</time>
      </trkpt>
      <trkpt lat="42.114095" lon="-8.838703">
        <ele>10.258</ele>
        <time>2019-04-29T17:27:09Z</time>
      </trkpt>
      <trkpt lat="42.114104" lon="-8.838673">
        <ele>8.752</ele>
        <time>2019-04-29T17:27:25Z</time>
      </trkpt>
      <trkpt lat="42.114200" lon="-8.838361">
        <ele>7.317</ele>
        <time>2019-04-29T17:27:37Z</time>
      </trkpt>
      <trkpt lat="42.114261" lon="-8.837965">
        <ele>9.208</ele>
        <time>2019-04-29T17:27:48Z</time>
      </trkpt>
      <trkpt lat="42.114402" lon="-8.837484">
        <ele>8.788</ele>
        <time>2019-04-29T17:27:59Z</time>
      </trkpt>
      <trkpt lat="42.114429" lon="-8.837294">
        <ele>8.741</ele>
        <time>2019-04-29T17:28:04Z</time>
      </trkpt>
      <trkpt lat="42.114418" lon="-8.837257">
        <ele>8.387</ele>
        <time>2019-04-29T17:28:05Z</time>
      </trkpt>
      <trkpt lat="42.114401" lon="-8.837220">
        <ele>8.365</ele>
        <time>2019-04-29T17:28:06Z</time>
      </trkpt>
      <trkpt lat="42.114379" lon="-8.837188">
        <ele>7.853</ele>
        <time>2019-04-29T17:28:07Z</time>
      </trkpt>
      <trkpt lat="42.114354" lon="-8.837163">
        <ele>7.815</ele>
        <time>2019-04-29T17:28:08Z</time>
      </trkpt>
      <trkpt lat="42.114329" lon="-8.837139">
        <ele>7.895</ele>
        <time>2019-04-29T17:28:09Z</time>
      </trkpt>
      <trkpt lat="42.114025" lon="-8.836781">
        <ele>7.379</ele>
        <time>2019-04-29T17:28:21Z</time>
      </trkpt>
      <trkpt lat="42.113716" lon="-8.836696">
        <ele>6.826</ele>
        <time>2019-04-29T17:28:31Z</time>
      </trkpt>
      <trkpt lat="42.113382" lon="-8.836642">
        <ele>7.347</ele>
        <time>2019-04-29T17:28:41Z</time>
      </trkpt>
      <trkpt lat="42.113013" lon="-8.836500">
        <ele>9.211</ele>
        <time>2019-04-29T17:28:54Z</time>
      </trkpt>
      <trkpt lat="42.112757" lon="-8.836311">
        <ele>8.708</ele>
        <time>2019-04-29T17:29:07Z</time>
      </trkpt>
      <trkpt lat="42.112519" lon="-8.836118">
        <ele>8.765</ele>
        <time>2019-04-29T17:29:20Z</time>
      </trkpt>
      <trkpt lat="42.112287" lon="-8.835866">
        <ele>8.338</ele>
        <time>2019-04-29T17:29:29Z</time>
      </trkpt>
      <trkpt lat="42.112139" lon="-8.835501">
        <ele>9.244</ele>
        <time>2019-04-29T17:29:41Z</time>
      </trkpt>
      <trkpt lat="42.112041" lon="-8.835034">
        <ele>10.252</ele>
        <time>2019-04-29T17:29:53Z</time>
      </trkpt>
      <trkpt lat="42.111997" lon="-8.834408">
        <ele>10.270</ele>
        <time>2019-04-29T17:30:08Z</time>
      </trkpt>
      <trkpt lat="42.111987" lon="-8.833869">
        <ele>10.212</ele>
        <time>2019-04-29T17:30:22Z</time>
      </trkpt>
      <trkpt lat="42.111982" lon="-8.833310">
        <ele>10.772</ele>
        <time>2019-04-29T17:30:36Z</time>
      </trkpt>
      <trkpt lat="42.111981" lon="-8.832857">
        <ele>11.186</ele>
        <time>2019-04-29T17:30:48Z</time>
      </trkpt>
      <trkpt lat="42.111980" lon="-8.832221">
        <ele>11.125</ele>
        <time>2019-04-29T17:31:02Z</time>
      </trkpt>
      <trkpt lat="42.112002" lon="-8.831750">
        <ele>10.226</ele>
        <time>2019-04-29T17:31:12Z</time>
      </trkpt>
      <trkpt lat="42.112001" lon="-8.831696">
        <ele>10.208</ele>
        <time>2019-04-29T17:31:13Z</time>
      </trkpt>
      <trkpt lat="42.112003" lon="-8.831576">
        <ele>9.708</ele>
        <time>2019-04-29T17:31:15Z</time>
      </trkpt>
      <trkpt lat="42.112005" lon="-8.831509">
        <ele>9.755</ele>
        <time>2019-04-29T17:31:16Z</time>
      </trkpt>
      <trkpt lat="42.112003" lon="-8.831446">
        <ele>9.228</ele>
        <time>2019-04-29T17:31:17Z</time>
      </trkpt>
      <trkpt lat="42.111973" lon="-8.830663">
        <ele>8.344</ele>
        <time>2019-04-29T17:31:29Z</time>
      </trkpt>
      <trkpt lat="42.111967" lon="-8.830570">
        <ele>8.352</ele>
        <time>2019-04-29T17:31:30Z</time>
      </trkpt>
      <trkpt lat="42.111950" lon="-8.829734">
        <ele>7.330</ele>
        <time>2019-04-29T17:31:41Z</time>
      </trkpt>
      <trkpt lat="42.111956" lon="-8.829608">
        <ele>7.322</ele>
        <time>2019-04-29T17:31:43Z</time>
      </trkpt>
      <trkpt lat="42.111951" lon="-8.829546">
        <ele>7.392</ele>
        <time>2019-04-29T17:31:44Z</time>
      </trkpt>
      <trkpt lat="42.111942" lon="-8.829491">
        <ele>7.886</ele>
        <time>2019-04-29T17:31:45Z</time>
      </trkpt>
      <trkpt lat="42.111935" lon="-8.829016">
        <ele>9.223</ele>
        <time>2019-04-29T17:31:56Z</time>
      </trkpt>
      <trkpt lat="42.111875" lon="-8.828724">
        <ele>9.783</ele>
        <time>2019-04-29T17:32:07Z</time>
      </trkpt>
      <trkpt lat="42.111853" lon="-8.828417">
        <ele>11.111</ele>
        <time>2019-04-29T17:32:16Z</time>
      </trkpt>
      <trkpt lat="42.111822" lon="-8.827768">
        <ele>11.608</ele>
        <time>2019-04-29T17:32:29Z</time>
      </trkpt>
      <trkpt lat="42.111989" lon="-8.827279">
        <ele>10.775</ele>
        <time>2019-04-29T17:32:40Z</time>
      </trkpt>
      <trkpt lat="42.112077" lon="-8.827097">
        <ele>11.158</ele>
        <time>2019-04-29T17:32:44Z</time>
      </trkpt>
      <trkpt lat="42.112267" lon="-8.826597">
        <ele>10.754</ele>
        <time>2019-04-29T17:32:56Z</time>
      </trkpt>
      <trkpt lat="42.112272" lon="-8.826495">
        <ele>10.222</ele>
        <time>2019-04-29T17:32:58Z</time>
      </trkpt>
      <trkpt lat="42.112276" lon="-8.826440">
        <ele>9.730</ele>
        <time>2019-04-29T17:32:59Z</time>
      </trkpt>
      <trkpt lat="42.112280" lon="-8.826386">
        <ele>9.752</ele>
        <time>2019-04-29T17:33:00Z</time>
      </trkpt>
      <trkpt lat="42.112340" lon="-8.825778">
        <ele>8.332</ele>
        <time>2019-04-29T17:33:13Z</time>
      </trkpt>
      <trkpt lat="42.112411" lon="-8.825135">
        <ele>7.396</ele>
        <time>2019-04-29T17:33:26Z</time>
      </trkpt>
      <trkpt lat="42.112542" lon="-8.824750">
        <ele>7.886</ele>
        <time>2019-04-29T17:33:35Z</time>
      </trkpt>
      <trkpt lat="42.112658" lon="-8.824212">
        <ele>7.360</ele>
        <time>2019-04-29T17:33:47Z</time>
      </trkpt>
      <trkpt lat="42.112686" lon="-8.824093">
        <ele>7.826</ele>
        <time>2019-04-29T17:33:50Z</time>
      </trkpt>
      <trkpt lat="42.112712" lon="-8.824081">
        <ele>7.808</ele>
        <time>2019-04-29T17:33:51Z</time>
      </trkpt>
      <trkpt lat="42.112733" lon="-8.824072">
        <ele>7.861</ele>
        <time>2019-04-29T17:33:52Z</time>
      </trkpt>
      <trkpt lat="42.112785" lon="-8.824032">
        <ele>6.834</ele>
        <time>2019-04-29T17:33:55Z</time>
      </trkpt>
      <trkpt lat="42.112796" lon="-8.823998">
        <ele>6.840</ele>
        <time>2019-04-29T17:33:56Z</time>
      </trkpt>
      <trkpt lat="42.112817" lon="-8.823574">
        <ele>6.388</ele>
        <time>2019-04-29T17:34:06Z</time>
      </trkpt>
      <trkpt lat="42.112849" lon="-8.822711">
        <ele>6.856</ele>
        <time>2019-04-29T17:34:23Z</time>
      </trkpt>
      <trkpt lat="42.112838" lon="-8.822687">
        <ele>6.878</ele>
        <time>2019-04-29T17:34:24Z</time>
      </trkpt>
      <trkpt lat="42.112815" lon="-8.822679">
        <ele>6.848</ele>
        <time>2019-04-29T17:34:25Z</time>
      </trkpt>
      <trkpt lat="42.112398" lon="-8.822618">
        <ele>6.342</ele>
        <time>2019-04-29T17:34:38Z</time>
      </trkpt>
      <trkpt lat="42.112378" lon="-8.822585">
        <ele>6.335</ele>
        <time>2019-04-29T17:34:39Z</time>
      </trkpt>
      <trkpt lat="42.112369" lon="-8.822542">
        <ele>6.386</ele>
        <time>2019-04-29T17:34:40Z</time>
      </trkpt>
      <trkpt lat="42.112428" lon="-8.822166">
        <ele>7.314</ele>
        <time>2019-04-29T17:34:49Z</time>
      </trkpt>
      <trkpt lat="42.112469" lon="-8.821924">
        <ele>6.308</ele>
        <time>2019-04-29T17:34:54Z</time>
      </trkpt>
      <trkpt lat="42.112469" lon="-8.821864">
        <ele>6.886</ele>
        <time>2019-04-29T17:34:55Z</time>
      </trkpt>
      <trkpt lat="42.112471" lon="-8.821644">
        <ele>6.339</ele>
        <time>2019-04-29T17:34:59Z</time>
      </trkpt>
      <trkpt lat="42.112478" lon="-8.821589">
        <ele>6.375</ele>
        <time>2019-04-29T17:35:00Z</time>
      </trkpt>
      <trkpt lat="42.112697" lon="-8.820818">
        <ele>6.813</ele>
        <time>2019-04-29T17:35:15Z</time>
      </trkpt>
      <trkpt lat="42.112984" lon="-8.819889">
        <ele>8.761</ele>
        <time>2019-04-29T17:35:28Z</time>
      </trkpt>
      <trkpt lat="42.113096" lon="-8.819529">
        <ele>8.373</ele>
        <time>2019-04-29T17:35:34Z</time>
      </trkpt>
      <trkpt lat="42.113115" lon="-8.819469">
        <ele>7.813</ele>
        <time>2019-04-29T17:35:35Z</time>
      </trkpt>
      <trkpt lat="42.113134" lon="-8.819409">
        <ele>7.317</ele>
        <time>2019-04-29T17:35:36Z</time>
      </trkpt>
      <trkpt lat="42.113172" lon="-8.819296">
        <ele>6.826</ele>
        <time>2019-04-29T17:35:38Z</time>
      </trkpt>
      <trkpt lat="42.113415" lon="-8.818515">
        <ele>7.347</ele>
        <time>2019-04-29T17:35:53Z</time>
      </trkpt>
      <trkpt lat="42.113771" lon="-8.817659">
        <ele>8.711</ele>
        <time>2019-04-29T17:36:09Z</time>
      </trkpt>
      <trkpt lat="42.113798" lon="-8.817614">
        <ele>8.708</ele>
        <time>2019-04-29T17:36:10Z</time>
      </trkpt>
      <trkpt lat="42.113826" lon="-8.817575">
        <ele>8.775</ele>
        <time>2019-04-29T17:36:11Z</time>
      </trkpt>
      <trkpt lat="42.113853" lon="-8.817537">
        <ele>8.728</ele>
        <time>2019-04-29T17:36:12Z</time>
      </trkpt>
      <trkpt lat="42.114364" lon="-8.816915">
        <ele>10.274</ele>
        <time>2019-04-29T17:36:28Z</time>
      </trkpt>
      <trkpt lat="42.114884" lon="-8.816323">
        <ele>10.212</ele>
        <time>2019-04-29T17:36:44Z</time>
      </trkpt>
      <trkpt lat="42.115080" lon="-8.816078">
        <ele>10.790</ele>
        <time>2019-04-29T17:36:50Z</time>
      </trkpt>
      <trkpt lat="42.115100" lon="-8.816029">
        <ele>10.762</ele>
        <time>2019-04-29T17:36:51Z</time>
      </trkpt>
      <trkpt lat="42.115221" lon="-8.815659">
        <ele>10.242</ele>
        <time>2019-04-29T17:36:59Z</time>
      </trkpt>
      <trkpt lat="42.115227" lon="-8.815607">
        <ele>10.296</ele>
        <time>2019-04-29T17:37:00Z</time>
      </trkpt>
      <trkpt lat="42.115270" lon="-8.815071">
        <ele>10.742</ele>
        <time>2019-04-29T17:37:10Z</time>
      </trkpt>
      <trkpt lat="42.115286" lon="-8.815022">
        <ele>10.722</ele>
        <time>2019-04-29T17:37:11Z</time>
      </trkpt>
      <trkpt lat="42.115303" lon="-8.814973">
        <ele>10.714</ele>
        <time>2019-04-29T17:37:12Z</time>
      </trkpt>
      <trkpt lat="42.115322" lon="-8.814927">
        <ele>10.708</ele>
        <time>2019-04-29T17:37:13Z</time>
      </trkpt>
      <trkpt lat="42.115341" lon="-8.814883">
        <ele>10.737</ele>
        <time>2019-04-29T17:37:14Z</time>
      </trkpt>
      <trkpt lat="42.115390" lon="-8.814539">
        <ele>10.260</ele>
        <time>2019-04-29T17:37:21Z</time>
      </trkpt>
      <trkpt lat="42.115383" lon="-8.814483">
        <ele>10.216</ele>
        <time>2019-04-29T17:37:22Z</time>
      </trkpt>
      <trkpt lat="42.115371" lon="-8.814430">
        <ele>10.254</ele>
        <time>2019-04-29T17:37:23Z</time>
      </trkpt>
      <trkpt lat="42.115355" lon="-8.814378">
        <ele>10.212</ele>
        <time>2019-04-29T17:37:24Z</time>
      </trkpt>
      <trkpt lat="42.115334" lon="-8.814326">
        <ele>10.244</ele>
        <time>2019-04-29T17:37:25Z</time>
      </trkpt>
      <trkpt lat="42.115314" lon="-8.814275">
        <ele>10.234</ele>
        <time>2019-04-29T17:37:26Z</time>
      </trkpt>
      <trkpt lat="42.115250" lon="-8.814055">
        <ele>9.728</ele>
        <time>2019-04-29T17:37:30Z</time>
      </trkpt>
      <trkpt lat="42.115247" lon="-8.813994">
        <ele>9.742</ele>
        <time>2019-04-29T17:37:31Z</time>
      </trkpt>
      <trkpt lat="42.115248" lon="-8.813933">
        <ele>9.722</ele>
        <time>2019-04-29T17:37:32Z</time>
      </trkpt>
      <trkpt lat="42.115353" lon="-8.813298">
        <ele>10.714</ele>
        <time>2019-04-29T17:37:45Z</time>
      </trkpt>
      <trkpt lat="42.115852" lon="-8.813061">
        <ele>10.708</ele>
        <time>2019-04-29T17:37:59Z</time>
      </trkpt>
      <trkpt lat="42.116146" lon="-8.812944">
        <ele>10.757</ele>
        <time>2019-04-29T17:38:09Z</time>
      </trkpt>
      <trkpt lat="42.116339" lon="-8.813105">
        <ele>10.230</ele>
        <time>2019-04-29T17:38:21Z</time>
      </trkpt>
      <trkpt lat="42.116354" lon="-8.813136">
        <ele>10.246</ele>
        <time>2019-04-29T17:38:42Z</time>
      </trkpt>
      <trkpt lat="42.116354" lon="-8.813149">
        <ele>10.264</ele>
        <time>2019-04-29T17:38:49Z</time>
      </trkpt>
      <trkpt lat="42.116352" lon="-8.813164">
        <ele>9.792</ele>
        <time>2019-04-29T17:38:50Z</time>
      </trkpt>
      <trkpt lat="42.116354" lon="-8.813198">
        <ele>9.754</ele>
        <time>2019-04-29T17:38:52Z</time>
      </trkpt>
      <trkpt lat="42.116363" lon="-8.813219">
        <ele>9.734</ele>
        <time>2019-04-29T17:38:53Z</time>
      </trkpt>
      <trkpt lat="42.116371" lon="-8.813277">
        <ele>11.148</ele>
        <time>2019-04-29T17:39:01Z</time>
      </trkpt>
      <trkpt lat="42.116359" lon="-8.813249">
        <ele>11.136</ele>
        <time>2019-04-29T17:39:14Z</time>
      </trkpt>
      <trkpt lat="42.116360" lon="-8.813232">
        <ele>11.117</ele>
        <time>2019-04-29T17:39:32Z</time>
      </trkpt>
      <trkpt lat="42.116362" lon="-8.813222">
        <ele>11.118</ele>
        <time>2019-04-29T17:40:03Z</time>
      </trkpt>
      <trkpt lat="42.116364" lon="-8.813219">
        <ele>10.708</ele>
        <time>2019-04-29T17:40:28Z</time>
      </trkpt>
      <trkpt lat="42.116362" lon="-8.813215">
        <ele>10.746</ele>
        <time>2019-04-29T17:41:01Z</time>
      </trkpt>
      <trkpt lat="42.116368" lon="-8.813230">
        <ele>10.259</ele>
        <time>2019-04-29T17:41:09Z</time>
      </trkpt>
      <trkpt lat="42.116372" lon="-8.813251">
        <ele>10.285</ele>
        <time>2019-04-29T17:41:10Z</time>
      </trkpt>
      <trkpt lat="42.116379" lon="-8.813273">
        <ele>10.243</ele>
        <time>2019-04-29T17:41:11Z</time>
      </trkpt>
      <trkpt lat="42.116482" lon="-8.813585">
        <ele>10.791</ele>
        <time>2019-04-29T17:41:21Z</time>
      </trkpt>
      <trkpt lat="42.116615" lon="-8.813954">
        <ele>11.173</ele>
        <time>2019-04-29T17:41:31Z</time>
      </trkpt>
      <trkpt lat="42.116921" lon="-8.814374">
        <ele>11.153</ele>
        <time>2019-04-29T17:41:44Z</time>
      </trkpt>
      <trkpt lat="42.117164" lon="-8.814681">
        <ele>11.167</ele>
        <time>2019-04-29T17:41:54Z</time>
      </trkpt>
      <trkpt lat="42.117501" lon="-8.815108">
        <ele>10.734</ele>
        <time>2019-04-29T17:42:07Z</time>
      </trkpt>
      <trkpt lat="42.118092" lon="-8.815374">
        <ele>13.155</ele>
        <time>2019-04-29T17:42:24Z</time>
      </trkpt>
      <trkpt lat="42.118662" lon="-8.815566">
        <ele>12.110</ele>
        <time>2019-04-29T17:42:39Z</time>
      </trkpt>
      <trkpt lat="42.118854" lon="-8.815617">
        <ele>12.108</ele>
        <time>2019-04-29T17:42:44Z</time>
      </trkpt>
      <trkpt lat="42.119587" lon="-8.815955">
        <ele>12.666</ele>
        <time>2019-04-29T17:43:04Z</time>
      </trkpt>
      <trkpt lat="42.120307" lon="-8.816368">
        <ele>12.179</ele>
        <time>2019-04-29T17:43:24Z</time>
      </trkpt>
      <trkpt lat="42.120895" lon="-8.816931">
        <ele>10.725</ele>
        <time>2019-04-29T17:43:39Z</time>
      </trkpt>
      <trkpt lat="42.121731" lon="-8.817805">
        <ele>10.233</ele>
        <time>2019-04-29T17:44:00Z</time>
      </trkpt>
      <trkpt lat="42.122078" lon="-8.818175">
        <ele>11.631</ele>
        <time>2019-04-29T17:44:10Z</time>
      </trkpt>
      <trkpt lat="42.122587" lon="-8.818733">
        <ele>14.593</ele>
        <time>2019-04-29T17:44:26Z</time>
      </trkpt>
      <trkpt lat="42.122965" lon="-8.819050">
        <ele>15.573</ele>
        <time>2019-04-29T17:44:37Z</time>
      </trkpt>
      <trkpt lat="42.123582" lon="-8.819399">
        <ele>16.997</ele>
        <time>2019-04-29T17:44:53Z</time>
      </trkpt>
      <trkpt lat="42.124234" lon="-8.819695">
        <ele>18.851</ele>
        <time>2019-04-29T17:45:10Z</time>
      </trkpt>
      <trkpt lat="42.124425" lon="-8.819800">
        <ele>20.301</ele>
        <time>2019-04-29T17:45:17Z</time>
      </trkpt>
      <trkpt lat="42.124428" lon="-8.819822">
        <ele>20.311</ele>
        <time>2019-04-29T17:45:18Z</time>
      </trkpt>
      <trkpt lat="42.124423" lon="-8.819842">
        <ele>19.808</ele>
        <time>2019-04-29T17:45:19Z</time>
      </trkpt>
      <trkpt lat="42.124397" lon="-8.819878">
        <ele>18.448</ele>
        <time>2019-04-29T17:45:35Z</time>
      </trkpt>
      <trkpt lat="42.124400" lon="-8.819908">
        <ele>17.931</ele>
        <time>2019-04-29T17:45:48Z</time>
      </trkpt>
      <trkpt lat="42.124411" lon="-8.819925">
        <ele>17.927</ele>
        <time>2019-04-29T17:45:49Z</time>
      </trkpt>
      <trkpt lat="42.124425" lon="-8.819940">
        <ele>18.415</ele>
        <time>2019-04-29T17:45:50Z</time>
      </trkpt>
      <trkpt lat="42.124443" lon="-8.819947">
        <ele>18.453</ele>
        <time>2019-04-29T17:45:51Z</time>
      </trkpt>
      <trkpt lat="42.124463" lon="-8.819950">
        <ele>18.835</ele>
        <time>2019-04-29T17:45:52Z</time>
      </trkpt>
      <trkpt lat="42.124483" lon="-8.819952">
        <ele>18.815</ele>
        <time>2019-04-29T17:45:53Z</time>
      </trkpt>
      <trkpt lat="42.124503" lon="-8.819943">
        <ele>18.879</ele>
        <time>2019-04-29T17:45:54Z</time>
      </trkpt>
      <trkpt lat="42.124523" lon="-8.819927">
        <ele>18.871</ele>
        <time>2019-04-29T17:45:55Z</time>
      </trkpt>
      <trkpt lat="42.124547" lon="-8.819913">
        <ele>18.841</ele>
        <time>2019-04-29T17:45:56Z</time>
      </trkpt>
      <trkpt lat="42.124570" lon="-8.819905">
        <ele>19.315</ele>
        <time>2019-04-29T17:45:57Z</time>
      </trkpt>
      <trkpt lat="42.124593" lon="-8.819902">
        <ele>19.308</ele>
        <time>2019-04-29T17:45:58Z</time>
      </trkpt>
      <trkpt lat="42.124618" lon="-8.819901">
        <ele>19.310</ele>
        <time>2019-04-29T17:45:59Z</time>
      </trkpt>
      <trkpt lat="42.124892" lon="-8.819850">
        <ele>19.853</ele>
        <time>2019-04-29T17:46:10Z</time>
      </trkpt>
      <trkpt lat="42.124981" lon="-8.819883">
        <ele>19.829</ele>
        <time>2019-04-29T17:46:14Z</time>
      </trkpt>
      <trkpt lat="42.125000" lon="-8.819881">
        <ele>19.857</ele>
        <time>2019-04-29T17:46:15Z</time>
      </trkpt>
      <trkpt lat="42.125211" lon="-8.819832">
        <ele>20.315</ele>
        <time>2019-04-29T17:46:26Z</time>
      </trkpt>
      <trkpt lat="42.125223" lon="-8.819840">
        <ele>20.827</ele>
        <time>2019-04-29T17:46:59Z</time>
      </trkpt>
      <trkpt lat="42.125225" lon="-8.819833">
        <ele>20.867</ele>
        <time>2019-04-29T17:47:31Z</time>
      </trkpt>
      <trkpt lat="42.125223" lon="-8.819835">
        <ele>19.341</ele>
        <time>2019-04-29T17:48:01Z</time>
      </trkpt>
      <trkpt lat="42.125260" lon="-8.819807">
        <ele>20.392</ele>
        <time>2019-04-29T17:48:27Z</time>
      </trkpt>
      <trkpt lat="42.125261" lon="-8.819794">
        <ele>20.373</ele>
        <time>2019-04-29T17:48:28Z</time>
      </trkpt>
      <trkpt lat="42.125264" lon="-8.819775">
        <ele>20.320</ele>
        <time>2019-04-29T17:48:29Z</time>
      </trkpt>
      <trkpt lat="42.125266" lon="-8.819754">
        <ele>20.308</ele>
        <time>2019-04-29T17:48:30Z</time>
      </trkpt>
      <trkpt lat="42.125264" lon="-8.819693">
        <ele>20.342</ele>
        <time>2019-04-29T17:48:32Z</time>
      </trkpt>
      <trkpt lat="42.125260" lon="-8.819614">
        <ele>19.855</ele>
        <time>2019-04-29T17:48:34Z</time>
      </trkpt>
      <trkpt lat="42.125494" lon="-8.819447">
        <ele>16.911</ele>
        <time>2019-04-29T17:48:44Z</time>
      </trkpt>
      <trkpt lat="42.125899" lon="-8.819197">
        <ele>16.069</ele>
        <time>2019-04-29T17:48:57Z</time>
      </trkpt>
      <trkpt lat="42.126340" lon="-8.818943">
        <ele>16.477</ele>
        <time>2019-04-29T17:49:12Z</time>
      </trkpt>
      <trkpt lat="42.126607" lon="-8.818709">
        <ele>15.529</ele>
        <time>2019-04-29T17:49:26Z</time>
      </trkpt>
      <trkpt lat="42.126664" lon="-8.818675">
        <ele>14.519</ele>
        <time>2019-04-29T17:49:39Z</time>
      </trkpt>
      <trkpt lat="42.126669" lon="-8.818661">
        <ele>15.033</ele>
        <time>2019-04-29T17:50:08Z</time>
      </trkpt>
      <trkpt lat="42.126670" lon="-8.818663">
        <ele>15.026</ele>
        <time>2019-04-29T17:50:37Z</time>
      </trkpt>
      <trkpt lat="42.126665" lon="-8.818663">
        <ele>15.047</ele>
        <time>2019-04-29T17:51:08Z</time>
      </trkpt>
      <trkpt lat="42.126658" lon="-8.818652">
        <ele>15.511</ele>
        <time>2019-04-29T17:51:38Z</time>
      </trkpt>
      <trkpt lat="42.126658" lon="-8.818663">
        <ele>15.508</ele>
        <time>2019-04-29T17:52:06Z</time>
      </trkpt>
      <trkpt lat="42.126664" lon="-8.818675">
        <ele>16.075</ele>
        <time>2019-04-29T17:52:38Z</time>
      </trkpt>
      <trkpt lat="42.126730" lon="-8.818641">
        <ele>15.018</ele>
        <time>2019-04-29T17:53:11Z</time>
      </trkpt>
      <trkpt lat="42.126961" lon="-8.818555">
        <ele>16.024</ele>
        <time>2019-04-29T17:53:18Z</time>
      </trkpt>
      <trkpt lat="42.127596" lon="-8.818162">
        <ele>16.932</ele>
        <time>2019-04-29T17:53:34Z</time>
      </trkpt>
      <trkpt lat="42.128154" lon="-8.817815">
        <ele>16.440</ele>
        <time>2019-04-29T17:53:49Z</time>
      </trkpt>
      <trkpt lat="42.128280" lon="-8.817741">
        <ele>16.972</ele>
        <time>2019-04-29T17:53:53Z</time>
      </trkpt>
      <trkpt lat="42.128320" lon="-8.817722">
        <ele>17.462</ele>
        <time>2019-04-29T17:53:54Z</time>
      </trkpt>
      <trkpt lat="42.128701" lon="-8.817469">
        <ele>15.566</ele>
        <time>2019-04-29T17:54:05Z</time>
      </trkpt>
      <trkpt lat="42.129177" lon="-8.817200">
        <ele>16.495</ele>
        <time>2019-04-29T17:54:17Z</time>
      </trkpt>
      <trkpt lat="42.129376" lon="-8.817063">
        <ele>16.949</ele>
        <time>2019-04-29T17:54:22Z</time>
      </trkpt>
      <trkpt lat="42.129726" lon="-8.816836">
        <ele>16.923</ele>
        <time>2019-04-29T17:54:33Z</time>
      </trkpt>
      <trkpt lat="42.129980" lon="-8.816689">
        <ele>16.408</ele>
        <time>2019-04-29T17:54:44Z</time>
      </trkpt>
      <trkpt lat="42.130040" lon="-8.816661">
        <ele>17.452</ele>
        <time>2019-04-29T17:54:56Z</time>
      </trkpt>
      <trkpt lat="42.130015" lon="-8.816653">
        <ele>17.465</ele>
        <time>2019-04-29T17:55:09Z</time>
      </trkpt>
      <trkpt lat="42.129855" lon="-8.816717">
        <ele>16.411</ele>
        <time>2019-04-29T17:55:20Z</time>
      </trkpt>
      <trkpt lat="42.129616" lon="-8.816859">
        <ele>16.499</ele>
        <time>2019-04-29T17:55:31Z</time>
      </trkpt>
      <trkpt lat="42.129395" lon="-8.817004">
        <ele>18.427</ele>
        <time>2019-04-29T17:55:43Z</time>
      </trkpt>
      <trkpt lat="42.129042" lon="-8.817214">
        <ele>18.419</ele>
        <time>2019-04-29T17:55:55Z</time>
      </trkpt>
      <trkpt lat="42.128661" lon="-8.817464">
        <ele>17.459</ele>
        <time>2019-04-29T17:56:07Z</time>
      </trkpt>
      <trkpt lat="42.128361" lon="-8.817639">
        <ele>16.033</ele>
        <time>2019-04-29T17:56:19Z</time>
      </trkpt>
      <trkpt lat="42.128102" lon="-8.817806">
        <ele>15.059</ele>
        <time>2019-04-29T17:56:30Z</time>
      </trkpt>
      <trkpt lat="42.127824" lon="-8.817965">
        <ele>16.903</ele>
        <time>2019-04-29T17:56:43Z</time>
      </trkpt>
      <trkpt lat="42.127544" lon="-8.818138">
        <ele>17.423</ele>
        <time>2019-04-29T17:56:55Z</time>
      </trkpt>
      <trkpt lat="42.127327" lon="-8.818266">
        <ele>17.408</ele>
        <time>2019-04-29T17:57:06Z</time>
      </trkpt>
      <trkpt lat="42.127069" lon="-8.818418">
        <ele>16.928</ele>
        <time>2019-04-29T17:57:18Z</time>
      </trkpt>
      <trkpt lat="42.126916" lon="-8.818513">
        <ele>17.991</ele>
        <time>2019-04-29T17:57:27Z</time>
      </trkpt>
      <trkpt lat="42.126779" lon="-8.818623">
        <ele>16.967</ele>
        <time>2019-04-29T17:57:35Z</time>
      </trkpt>
      <trkpt lat="42.126761" lon="-8.818593">
        <ele>16.095</ele>
        <time>2019-04-29T17:57:44Z</time>
      </trkpt>
      <trkpt lat="42.126760" lon="-8.818582">
        <ele>15.543</ele>
        <time>2019-04-29T17:57:57Z</time>
      </trkpt>
      <trkpt lat="42.126761" lon="-8.818578">
        <ele>15.575</ele>
        <time>2019-04-29T17:58:00Z</time>
      </trkpt>
      <trkpt lat="42.126746" lon="-8.818692">
        <ele>16.015</ele>
        <time>2019-04-30T07:27:32Z</time>
      </trkpt>
      <trkpt lat="42.126729" lon="-8.818631">
        <ele>24.119</ele>
        <time>2019-04-30T07:27:58Z</time>
      </trkpt>
      <trkpt lat="42.126744" lon="-8.818613">
        <ele>22.254</ele>
        <time>2019-04-30T07:28:26Z</time>
      </trkpt>
      <trkpt lat="42.126726" lon="-8.818635">
        <ele>22.256</ele>
        <time>2019-04-30T07:28:49Z</time>
      </trkpt>
      <trkpt lat="42.126734" lon="-8.818669">
        <ele>23.211</ele>
        <time>2019-04-30T07:29:13Z</time>
      </trkpt>
      <trkpt lat="42.126744" lon="-8.818670">
        <ele>23.608</ele>
        <time>2019-04-30T07:29:31Z</time>
      </trkpt>
      <trkpt lat="42.126777" lon="-8.818646">
        <ele>22.798</ele>
        <time>2019-04-30T07:29:45Z</time>
      </trkpt>
      <trkpt lat="42.126793" lon="-8.818648">
        <ele>22.731</ele>
        <time>2019-04-30T07:29:58Z</time>
      </trkpt>
      <trkpt lat="42.126818" lon="-8.818626">
        <ele>21.297</ele>
        <time>2019-04-30T07:30:07Z</time>
      </trkpt>
      <trkpt lat="42.126885" lon="-8.818560">
        <ele>18.895</ele>
        <time>2019-04-30T07:30:12Z</time>
      </trkpt>
      <trkpt lat="42.127009" lon="-8.818520">
        <ele>18.433</ele>
        <time>2019-04-30T07:30:17Z</time>
      </trkpt>
      <trkpt lat="42.127468" lon="-8.818214">
        <ele>17.485</ele>
        <time>2019-04-30T07:30:31Z</time>
      </trkpt>
      <trkpt lat="42.128008" lon="-8.817897">
        <ele>16.455</ele>
        <time>2019-04-30T07:30:45Z</time>
      </trkpt>
      <trkpt lat="42.128541" lon="-8.817561">
        <ele>15.599</ele>
        <time>2019-04-30T07:30:59Z</time>
      </trkpt>
      <trkpt lat="42.129216" lon="-8.817158">
        <ele>16.031</ele>
        <time>2019-04-30T07:31:16Z</time>
      </trkpt>
      <trkpt lat="42.129793" lon="-8.816766">
        <ele>17.961</ele>
        <time>2019-04-30T07:31:32Z</time>
      </trkpt>
      <trkpt lat="42.129827" lon="-8.816737">
        <ele>18.407</ele>
        <time>2019-04-30T07:31:40Z</time>
      </trkpt>
      <trkpt lat="42.129817" lon="-8.816729">
        <ele>20.308</ele>
        <time>2019-04-30T07:32:10Z</time>
      </trkpt>
      <trkpt lat="42.129832" lon="-8.816740">
        <ele>20.396</ele>
        <time>2019-04-30T07:32:37Z</time>
      </trkpt>
      <trkpt lat="42.129831" lon="-8.816739">
        <ele>20.399</ele>
        <time>2019-04-30T07:33:06Z</time>
      </trkpt>
      <trkpt lat="42.129924" lon="-8.816697">
        <ele>20.375</ele>
        <time>2019-04-30T07:33:17Z</time>
      </trkpt>
      <trkpt lat="42.130027" lon="-8.816656">
        <ele>19.823</ele>
        <time>2019-04-30T07:33:28Z</time>
      </trkpt>
      <trkpt lat="42.130042" lon="-8.816643">
        <ele>19.831</ele>
        <time>2019-04-30T07:33:29Z</time>
      </trkpt>
      <trkpt lat="42.130056" lon="-8.816633">
        <ele>19.813</ele>
        <time>2019-04-30T07:33:30Z</time>
      </trkpt>
      <trkpt lat="42.130314" lon="-8.816547">
        <ele>20.833</ele>
        <time>2019-04-30T07:33:37Z</time>
      </trkpt>
      <trkpt lat="42.130364" lon="-8.816511">
        <ele>20.317</ele>
        <time>2019-04-30T07:33:38Z</time>
      </trkpt>
      <trkpt lat="42.130620" lon="-8.816336">
        <ele>20.814</ele>
        <time>2019-04-30T07:33:44Z</time>
      </trkpt>
      <trkpt lat="42.130655" lon="-8.816300">
        <ele>20.854</ele>
        <time>2019-04-30T07:33:45Z</time>
      </trkpt>
      <trkpt lat="42.130716" lon="-8.816217">
        <ele>20.309</ele>
        <time>2019-04-30T07:33:47Z</time>
      </trkpt>
      <trkpt lat="42.130743" lon="-8.816169">
        <ele>20.308</ele>
        <time>2019-04-30T07:33:48Z</time>
      </trkpt>
      <trkpt lat="42.130777" lon="-8.816132">
        <ele>20.344</ele>
        <time>2019-04-30T07:33:49Z</time>
      </trkpt>
      <trkpt lat="42.130816" lon="-8.816113">
        <ele>20.397</ele>
        <time>2019-04-30T07:33:50Z</time>
      </trkpt>
      <trkpt lat="42.130856" lon="-8.816118">
        <ele>20.363</ele>
        <time>2019-04-30T07:33:51Z</time>
      </trkpt>
      <trkpt lat="42.130894" lon="-8.816144">
        <ele>20.361</ele>
        <time>2019-04-30T07:33:52Z</time>
      </trkpt>
      <trkpt lat="42.130927" lon="-8.816184">
        <ele>20.369</ele>
        <time>2019-04-30T07:33:53Z</time>
      </trkpt>
      <trkpt lat="42.130949" lon="-8.816238">
        <ele>20.321</ele>
        <time>2019-04-30T07:33:54Z</time>
      </trkpt>
      <trkpt lat="42.130958" lon="-8.816297">
        <ele>19.841</ele>
        <time>2019-04-30T07:33:55Z</time>
      </trkpt>
      <trkpt lat="42.130966" lon="-8.816361">
        <ele>19.875</ele>
        <time>2019-04-30T07:33:56Z</time>
      </trkpt>
      <trkpt lat="42.130982" lon="-8.816427">
        <ele>19.345</ele>
        <time>2019-04-30T07:33:57Z</time>
      </trkpt>
      <trkpt lat="42.131013" lon="-8.816488">
        <ele>18.847</ele>
        <time>2019-04-30T07:33:58Z</time>
      </trkpt>
      <trkpt lat="42.131056" lon="-8.816543">
        <ele>17.911</ele>
        <time>2019-04-30T07:33:59Z</time>
      </trkpt>
      <trkpt lat="42.131102" lon="-8.816598">
        <ele>17.408</ele>
        <time>2019-04-30T07:34:00Z</time>
      </trkpt>
      <trkpt lat="42.131141" lon="-8.816668">
        <ele>16.917</ele>
        <time>2019-04-30T07:34:01Z</time>
      </trkpt>
      <trkpt lat="42.131173" lon="-8.816744">
        <ele>16.960</ele>
        <time>2019-04-30T07:34:02Z</time>
      </trkpt>
      <trkpt lat="42.131197" lon="-8.816822">
        <ele>16.946</ele>
        <time>2019-04-30T07:34:03Z</time>
      </trkpt>
      <trkpt lat="42.131217" lon="-8.816898">
        <ele>16.414</ele>
        <time>2019-04-30T07:34:04Z</time>
      </trkpt>
      <trkpt lat="42.131417" lon="-8.817660">
        <ele>16.082</ele>
        <time>2019-04-30T07:34:17Z</time>
      </trkpt>
      <trkpt lat="42.131498" lon="-8.817871">
        <ele>16.014</ele>
        <time>2019-04-30T07:34:24Z</time>
      </trkpt>
      <trkpt lat="42.131513" lon="-8.817875">
        <ele>15.594</ele>
        <time>2019-04-30T07:34:25Z</time>
      </trkpt>
      <trkpt lat="42.131535" lon="-8.817868">
        <ele>15.568</ele>
        <time>2019-04-30T07:34:26Z</time>
      </trkpt>
      <trkpt lat="42.131564" lon="-8.817856">
        <ele>15.565</ele>
        <time>2019-04-30T07:34:27Z</time>
      </trkpt>
      <trkpt lat="42.131598" lon="-8.817842">
        <ele>15.068</ele>
        <time>2019-04-30T07:34:28Z</time>
      </trkpt>
      <trkpt lat="42.131853" lon="-8.817834">
        <ele>14.514</ele>
        <time>2019-04-30T07:34:35Z</time>
      </trkpt>
      <trkpt lat="42.132430" lon="-8.817646">
        <ele>14.008</ele>
        <time>2019-04-30T07:34:50Z</time>
      </trkpt>
      <trkpt lat="42.133217" lon="-8.817370">
        <ele>12.629</ele>
        <time>2019-04-30T07:35:10Z</time>
      </trkpt>
      <trkpt lat="42.133630" lon="-8.817070">
        <ele>11.672</ele>
        <time>2019-04-30T07:35:22Z</time>
      </trkpt>
      <trkpt lat="42.133671" lon="-8.817076">
        <ele>11.698</ele>
        <time>2019-04-30T07:35:23Z</time>
      </trkpt>
      <trkpt lat="42.133713" lon="-8.817077">
        <ele>11.136</ele>
        <time>2019-04-30T07:35:24Z</time>
      </trkpt>
      <trkpt lat="42.133755" lon="-8.817071">
        <ele>11.184</ele>
        <time>2019-04-30T07:35:25Z</time>
      </trkpt>
      <trkpt lat="42.133792" lon="-8.817064">
        <ele>11.146</ele>
        <time>2019-04-30T07:35:26Z</time>
      </trkpt>
      <trkpt lat="42.134121" lon="-8.816783">
        <ele>11.156</ele>
        <time>2019-04-30T07:35:37Z</time>
      </trkpt>
      <trkpt lat="42.134423" lon="-8.816706">
        <ele>11.180</ele>
        <time>2019-04-30T07:35:46Z</time>
      </trkpt>
      <trkpt lat="42.134909" lon="-8.816689">
        <ele>10.262</ele>
        <time>2019-04-30T07:36:00Z</time>
      </trkpt>
      <trkpt lat="42.135305" lon="-8.816758">
        <ele>10.783</ele>
        <time>2019-04-30T07:36:11Z</time>
      </trkpt>
      <trkpt lat="42.135957" lon="-8.816759">
        <ele>11.111</ele>
        <time>2019-04-30T07:36:28Z</time>
      </trkpt>
      <trkpt lat="42.136597" lon="-8.816664">
        <ele>10.708</ele>
        <time>2019-04-30T07:36:45Z</time>
      </trkpt>
      <trkpt lat="42.137307" lon="-8.816529">
        <ele>11.179</ele>
        <time>2019-04-30T07:37:04Z</time>
      </trkpt>
      <trkpt lat="42.137493" lon="-8.816499">
        <ele>10.752</ele>
        <time>2019-04-30T07:37:09Z</time>
      </trkpt>
      <trkpt lat="42.137532" lon="-8.816506">
        <ele>10.768</ele>
        <time>2019-04-30T07:37:10Z</time>
      </trkpt>
      <trkpt lat="42.137962" lon="-8.816647">
        <ele>11.186</ele>
        <time>2019-04-30T07:37:22Z</time>
      </trkpt>
      <trkpt lat="42.138450" lon="-8.817251">
        <ele>11.114</ele>
        <time>2019-04-30T07:37:41Z</time>
      </trkpt>
      <trkpt lat="42.138509" lon="-8.817307">
        <ele>11.146</ele>
        <time>2019-04-30T07:37:46Z</time>
      </trkpt>
      <trkpt lat="42.138521" lon="-8.817309">
        <ele>11.126</ele>
        <time>2019-04-30T07:37:47Z</time>
      </trkpt>
      <trkpt lat="42.138560" lon="-8.817273">
        <ele>11.660</ele>
        <time>2019-04-30T07:37:52Z</time>
      </trkpt>
      <trkpt lat="42.138570" lon="-8.817255">
        <ele>11.113</ele>
        <time>2019-04-30T07:37:53Z</time>
      </trkpt>
      <trkpt lat="42.138586" lon="-8.817237">
        <ele>11.143</ele>
        <time>2019-04-30T07:37:54Z</time>
      </trkpt>
      <trkpt lat="42.138608" lon="-8.817235">
        <ele>11.107</ele>
        <time>2019-04-30T07:37:55Z</time>
      </trkpt>
      <trkpt lat="42.138626" lon="-8.817254">
        <ele>11.108</ele>
        <time>2019-04-30T07:37:56Z</time>
      </trkpt>
      <trkpt lat="42.138644" lon="-8.817280">
        <ele>11.124</ele>
        <time>2019-04-30T07:37:57Z</time>
      </trkpt>
      <trkpt lat="42.138665" lon="-8.817307">
        <ele>11.117</ele>
        <time>2019-04-30T07:37:58Z</time>
      </trkpt>
      <trkpt lat="42.139143" lon="-8.817859">
        <ele>11.643</ele>
        <time>2019-04-30T07:38:16Z</time>
      </trkpt>
      <trkpt lat="42.139549" lon="-8.818179">
        <ele>12.141</ele>
        <time>2019-04-30T07:38:29Z</time>
      </trkpt>
      <trkpt lat="42.140054" lon="-8.818430">
        <ele>13.619</ele>
        <time>2019-04-30T07:38:45Z</time>
      </trkpt>
      <trkpt lat="42.140391" lon="-8.818681">
        <ele>13.121</ele>
        <time>2019-04-30T07:38:56Z</time>
      </trkpt>
      <trkpt lat="42.140465" lon="-8.818699">
        <ele>13.131</ele>
        <time>2019-04-30T07:38:58Z</time>
      </trkpt>
      <trkpt lat="42.140578" lon="-8.818694">
        <ele>13.115</ele>
        <time>2019-04-30T07:39:01Z</time>
      </trkpt>
      <trkpt lat="42.140611" lon="-8.818710">
        <ele>13.139</ele>
        <time>2019-04-30T07:39:02Z</time>
      </trkpt>
      <trkpt lat="42.141042" lon="-8.818936">
        <ele>13.101</ele>
        <time>2019-04-30T07:39:17Z</time>
      </trkpt>
      <trkpt lat="42.141440" lon="-8.819132">
        <ele>13.621</ele>
        <time>2019-04-30T07:39:32Z</time>
      </trkpt>
      <trkpt lat="42.141839" lon="-8.819354">
        <ele>14.508</ele>
        <time>2019-04-30T07:39:45Z</time>
      </trkpt>
      <trkpt lat="42.141864" lon="-8.819393">
        <ele>15.056</ele>
        <time>2019-04-30T07:39:46Z</time>
      </trkpt>
      <trkpt lat="42.142086" lon="-8.819585">
        <ele>16.439</ele>
        <time>2019-04-30T07:39:55Z</time>
      </trkpt>
      <trkpt lat="42.142326" lon="-8.819741">
        <ele>18.455</ele>
        <time>2019-04-30T07:40:06Z</time>
      </trkpt>
      <trkpt lat="42.142623" lon="-8.819860">
        <ele>19.313</ele>
        <time>2019-04-30T07:40:17Z</time>
      </trkpt>
      <trkpt lat="42.142841" lon="-8.819721">
        <ele>18.491</ele>
        <time>2019-04-30T07:40:28Z</time>
      </trkpt>
      <trkpt lat="42.142934" lon="-8.819503">
        <ele>20.393</ele>
        <time>2019-04-30T07:40:38Z</time>
      </trkpt>
      <trkpt lat="42.143008" lon="-8.819310">
        <ele>21.773</ele>
        <time>2019-04-30T07:40:47Z</time>
      </trkpt>
      <trkpt lat="42.143024" lon="-8.819319">
        <ele>21.737</ele>
        <time>2019-04-30T07:40:48Z</time>
      </trkpt>
      <trkpt lat="42.143037" lon="-8.819334">
        <ele>22.236</ele>
        <time>2019-04-30T07:40:49Z</time>
      </trkpt>
      <trkpt lat="42.143048" lon="-8.819350">
        <ele>22.217</ele>
        <time>2019-04-30T07:40:50Z</time>
      </trkpt>
      <trkpt lat="42.143058" lon="-8.819368">
        <ele>22.218</ele>
        <time>2019-04-30T07:40:51Z</time>
      </trkpt>
      <trkpt lat="42.143066" lon="-8.819384">
        <ele>21.708</ele>
        <time>2019-04-30T07:40:52Z</time>
      </trkpt>
      <trkpt lat="42.143075" lon="-8.819402">
        <ele>21.746</ele>
        <time>2019-04-30T07:40:53Z</time>
      </trkpt>
      <trkpt lat="42.143085" lon="-8.819422">
        <ele>21.759</ele>
        <time>2019-04-30T07:40:54Z</time>
      </trkpt>
      <trkpt lat="42.143095" lon="-8.819443">
        <ele>21.725</ele>
        <time>2019-04-30T07:40:55Z</time>
      </trkpt>
      <trkpt lat="42.143107" lon="-8.819459">
        <ele>21.793</ele>
        <time>2019-04-30T07:40:56Z</time>
      </trkpt>
      <trkpt lat="42.143117" lon="-8.819472">
        <ele>21.731</ele>
        <time>2019-04-30T07:40:57Z</time>
      </trkpt>
      <trkpt lat="42.143125" lon="-8.819490">
        <ele>21.723</ele>
        <time>2019-04-30T07:40:58Z</time>
      </trkpt>
      <trkpt lat="42.143135" lon="-8.819511">
        <ele>21.773</ele>
        <time>2019-04-30T07:40:59Z</time>
      </trkpt>
      <trkpt lat="42.143151" lon="-8.819532">
        <ele>21.767</ele>
        <time>2019-04-30T07:41:00Z</time>
      </trkpt>
      <trkpt lat="42.143171" lon="-8.819554">
        <ele>21.755</ele>
        <time>2019-04-30T07:41:01Z</time>
      </trkpt>
      <trkpt lat="42.143195" lon="-8.819571">
        <ele>21.707</ele>
        <time>2019-04-30T07:41:02Z</time>
      </trkpt>
      <trkpt lat="42.143224" lon="-8.819590">
        <ele>21.217</ele>
        <time>2019-04-30T07:41:03Z</time>
      </trkpt>
      <trkpt lat="42.143253" lon="-8.819609">
        <ele>21.208</ele>
        <time>2019-04-30T07:41:04Z</time>
      </trkpt>
      <trkpt lat="42.143283" lon="-8.819623">
        <ele>20.848</ele>
        <time>2019-04-30T07:41:05Z</time>
      </trkpt>
      <trkpt lat="42.143316" lon="-8.819631">
        <ele>20.821</ele>
        <time>2019-04-30T07:41:06Z</time>
      </trkpt>
      <trkpt lat="42.143688" lon="-8.819834">
        <ele>21.227</ele>
        <time>2019-04-30T07:41:18Z</time>
      </trkpt>
      <trkpt lat="42.143954" lon="-8.820322">
        <ele>20.835</ele>
        <time>2019-04-30T07:41:31Z</time>
      </trkpt>
      <trkpt lat="42.144199" lon="-8.820822">
        <ele>21.233</ele>
        <time>2019-04-30T07:41:45Z</time>
      </trkpt>
      <trkpt lat="42.144223" lon="-8.820882">
        <ele>21.265</ele>
        <time>2019-04-30T07:41:49Z</time>
      </trkpt>
      <trkpt lat="42.144218" lon="-8.820903">
        <ele>20.845</ele>
        <time>2019-04-30T07:41:50Z</time>
      </trkpt>
      <trkpt lat="42.144220" lon="-8.820926">
        <ele>20.869</ele>
        <time>2019-04-30T07:41:51Z</time>
      </trkpt>
      <trkpt lat="42.144237" lon="-8.820949">
        <ele>20.813</ele>
        <time>2019-04-30T07:41:52Z</time>
      </trkpt>
      <trkpt lat="42.144255" lon="-8.820974">
        <ele>20.843</ele>
        <time>2019-04-30T07:41:53Z</time>
      </trkpt>
      <trkpt lat="42.144533" lon="-8.821550">
        <ele>21.207</ele>
        <time>2019-04-30T07:42:06Z</time>
      </trkpt>
      <trkpt lat="42.144555" lon="-8.821600">
        <ele>21.208</ele>
        <time>2019-04-30T07:42:07Z</time>
      </trkpt>
      <trkpt lat="42.144577" lon="-8.821650">
        <ele>21.224</ele>
        <time>2019-04-30T07:42:08Z</time>
      </trkpt>
      <trkpt lat="42.144598" lon="-8.821696">
        <ele>21.217</ele>
        <time>2019-04-30T07:42:09Z</time>
      </trkpt>
      <trkpt lat="42.144622" lon="-8.821744">
        <ele>20.893</ele>
        <time>2019-04-30T07:42:10Z</time>
      </trkpt>
      <trkpt lat="42.144667" lon="-8.821845">
        <ele>20.881</ele>
        <time>2019-04-30T07:42:12Z</time>
      </trkpt>
      <trkpt lat="42.144688" lon="-8.821894">
        <ele>20.889</ele>
        <time>2019-04-30T07:42:13Z</time>
      </trkpt>
      <trkpt lat="42.144959" lon="-8.822467">
        <ele>21.781</ele>
        <time>2019-04-30T07:42:26Z</time>
      </trkpt>
      <trkpt lat="42.145085" lon="-8.822784">
        <ele>23.281</ele>
        <time>2019-04-30T07:42:36Z</time>
      </trkpt>
      <trkpt lat="42.145155" lon="-8.822836">
        <ele>24.145</ele>
        <time>2019-04-30T07:42:40Z</time>
      </trkpt>
      <trkpt lat="42.145324" lon="-8.822675">
        <ele>24.646</ele>
        <time>2019-04-30T07:42:50Z</time>
      </trkpt>
      <trkpt lat="42.145392" lon="-8.822435">
        <ele>25.688</ele>
        <time>2019-04-30T07:43:01Z</time>
      </trkpt>
      <trkpt lat="42.145393" lon="-8.822378">
        <ele>25.116</ele>
        <time>2019-04-30T07:43:12Z</time>
      </trkpt>
      <trkpt lat="42.145400" lon="-8.822359">
        <ele>25.608</ele>
        <time>2019-04-30T07:43:13Z</time>
      </trkpt>
      <trkpt lat="42.145406" lon="-8.822336">
        <ele>25.627</ele>
        <time>2019-04-30T07:43:14Z</time>
      </trkpt>
      <trkpt lat="42.145408" lon="-8.822288">
        <ele>25.680</ele>
        <time>2019-04-30T07:43:18Z</time>
      </trkpt>
      <trkpt lat="42.145418" lon="-8.822285">
        <ele>25.186</ele>
        <time>2019-04-30T07:43:19Z</time>
      </trkpt>
      <trkpt lat="42.145428" lon="-8.822293">
        <ele>25.194</ele>
        <time>2019-04-30T07:43:20Z</time>
      </trkpt>
      <trkpt lat="42.145435" lon="-8.822311">
        <ele>24.632</ele>
        <time>2019-04-30T07:43:21Z</time>
      </trkpt>
      <trkpt lat="42.145439" lon="-8.822337">
        <ele>24.184</ele>
        <time>2019-04-30T07:43:22Z</time>
      </trkpt>
      <trkpt lat="42.145444" lon="-8.822365">
        <ele>24.134</ele>
        <time>2019-04-30T07:43:23Z</time>
      </trkpt>
      <trkpt lat="42.145456" lon="-8.822393">
        <ele>23.698</ele>
        <time>2019-04-30T07:43:24Z</time>
      </trkpt>
      <trkpt lat="42.145475" lon="-8.822407">
        <ele>23.665</ele>
        <time>2019-04-30T07:43:25Z</time>
      </trkpt>
      <trkpt lat="42.145497" lon="-8.822403">
        <ele>24.168</ele>
        <time>2019-04-30T07:43:26Z</time>
      </trkpt>
      <trkpt lat="42.145521" lon="-8.822395">
        <ele>24.114</ele>
        <time>2019-04-30T07:43:27Z</time>
      </trkpt>
      <trkpt lat="42.145546" lon="-8.822387">
        <ele>24.108</ele>
        <time>2019-04-30T07:43:28Z</time>
      </trkpt>
      <trkpt lat="42.145754" lon="-8.822291">
        <ele>26.049</ele>
        <time>2019-04-30T07:43:40Z</time>
      </trkpt>
      <trkpt lat="42.145778" lon="-8.822283">
        <ele>26.062</ele>
        <time>2019-04-30T07:43:42Z</time>
      </trkpt>
      <trkpt lat="42.145793" lon="-8.822278">
        <ele>26.598</ele>
        <time>2019-04-30T07:43:43Z</time>
      </trkpt>
      <trkpt lat="42.145909" lon="-8.822241">
        <ele>28.956</ele>
        <time>2019-04-30T07:43:51Z</time>
      </trkpt>
      <trkpt lat="42.145922" lon="-8.822231">
        <ele>28.994</ele>
        <time>2019-04-30T07:43:52Z</time>
      </trkpt>
      <trkpt lat="42.145936" lon="-8.822222">
        <ele>28.926</ele>
        <time>2019-04-30T07:43:53Z</time>
      </trkpt>
      <trkpt lat="42.146128" lon="-8.822009">
        <ele>32.396</ele>
        <time>2019-04-30T07:44:07Z</time>
      </trkpt>
      <trkpt lat="42.146175" lon="-8.821813">
        <ele>33.320</ele>
        <time>2019-04-30T07:44:16Z</time>
      </trkpt>
      <trkpt lat="42.146174" lon="-8.821793">
        <ele>33.314</ele>
        <time>2019-04-30T07:44:17Z</time>
      </trkpt>
      <trkpt lat="42.146180" lon="-8.821768">
        <ele>33.754</ele>
        <time>2019-04-30T07:44:18Z</time>
      </trkpt>
      <trkpt lat="42.146184" lon="-8.821746">
        <ele>33.709</ele>
        <time>2019-04-30T07:44:19Z</time>
      </trkpt>
      <trkpt lat="42.146182" lon="-8.821728">
        <ele>33.708</ele>
        <time>2019-04-30T07:44:20Z</time>
      </trkpt>
      <trkpt lat="42.146181" lon="-8.821707">
        <ele>34.234</ele>
        <time>2019-04-30T07:44:21Z</time>
      </trkpt>
      <trkpt lat="42.146183" lon="-8.821687">
        <ele>34.267</ele>
        <time>2019-04-30T07:44:22Z</time>
      </trkpt>
      <trkpt lat="42.146189" lon="-8.821667">
        <ele>34.723</ele>
        <time>2019-04-30T07:44:23Z</time>
      </trkpt>
      <trkpt lat="42.146201" lon="-8.821647">
        <ele>34.771</ele>
        <time>2019-04-30T07:44:24Z</time>
      </trkpt>
      <trkpt lat="42.146225" lon="-8.821626">
        <ele>34.769</ele>
        <time>2019-04-30T07:44:25Z</time>
      </trkpt>
      <trkpt lat="42.146244" lon="-8.821609">
        <ele>34.781</ele>
        <time>2019-04-30T07:44:26Z</time>
      </trkpt>
      <trkpt lat="42.146268" lon="-8.821593">
        <ele>34.711</ele>
        <time>2019-04-30T07:44:27Z</time>
      </trkpt>
      <trkpt lat="42.146294" lon="-8.821575">
        <ele>35.285</ele>
        <time>2019-04-30T07:44:28Z</time>
      </trkpt>
      <trkpt lat="42.146316" lon="-8.821565">
        <ele>35.217</ele>
        <time>2019-04-30T07:44:29Z</time>
      </trkpt>
      <trkpt lat="42.146337" lon="-8.821562">
        <ele>35.287</ele>
        <time>2019-04-30T07:44:30Z</time>
      </trkpt>
      <trkpt lat="42.146357" lon="-8.821565">
        <ele>35.215</ele>
        <time>2019-04-30T07:44:31Z</time>
      </trkpt>
      <trkpt lat="42.146370" lon="-8.821571">
        <ele>35.708</ele>
        <time>2019-04-30T07:44:32Z</time>
      </trkpt>
      <trkpt lat="42.146539" lon="-8.821580">
        <ele>37.624</ele>
        <time>2019-04-30T07:44:42Z</time>
      </trkpt>
      <trkpt lat="42.146550" lon="-8.821566">
        <ele>37.627</ele>
        <time>2019-04-30T07:44:43Z</time>
      </trkpt>
      <trkpt lat="42.146556" lon="-8.821550">
        <ele>38.193</ele>
        <time>2019-04-30T07:44:44Z</time>
      </trkpt>
      <trkpt lat="42.146559" lon="-8.821534">
        <ele>38.591</ele>
        <time>2019-04-30T07:44:45Z</time>
      </trkpt>
      <trkpt lat="42.146559" lon="-8.821519">
        <ele>38.569</ele>
        <time>2019-04-30T07:44:46Z</time>
      </trkpt>
      <trkpt lat="42.146560" lon="-8.821504">
        <ele>39.051</ele>
        <time>2019-04-30T07:44:47Z</time>
      </trkpt>
      <trkpt lat="42.146561" lon="-8.821486">
        <ele>39.531</ele>
        <time>2019-04-30T07:44:48Z</time>
      </trkpt>
      <trkpt lat="42.146560" lon="-8.821466">
        <ele>40.085</ele>
        <time>2019-04-30T07:44:49Z</time>
      </trkpt>
      <trkpt lat="42.146557" lon="-8.821447">
        <ele>40.019</ele>
        <time>2019-04-30T07:44:50Z</time>
      </trkpt>
      <trkpt lat="42.146554" lon="-8.821427">
        <ele>40.009</ele>
        <time>2019-04-30T07:44:51Z</time>
      </trkpt>
      <trkpt lat="42.146544" lon="-8.821368">
        <ele>40.519</ele>
        <time>2019-04-30T07:44:54Z</time>
      </trkpt>
      <trkpt lat="42.146552" lon="-8.821349">
        <ele>40.508</ele>
        <time>2019-04-30T07:44:55Z</time>
      </trkpt>
      <trkpt lat="42.146597" lon="-8.821251">
        <ele>40.514</ele>
        <time>2019-04-30T07:45:00Z</time>
      </trkpt>
      <trkpt lat="42.146603" lon="-8.821216">
        <ele>40.927</ele>
        <time>2019-04-30T07:45:02Z</time>
      </trkpt>
      <trkpt lat="42.146613" lon="-8.821175">
        <ele>41.933</ele>
        <time>2019-04-30T07:45:14Z</time>
      </trkpt>
      <trkpt lat="42.146635" lon="-8.821139">
        <ele>41.951</ele>
        <time>2019-04-30T07:45:30Z</time>
      </trkpt>
      <trkpt lat="42.146650" lon="-8.821130">
        <ele>41.919</ele>
        <time>2019-04-30T07:45:31Z</time>
      </trkpt>
      <trkpt lat="42.146668" lon="-8.821127">
        <ele>41.971</ele>
        <time>2019-04-30T07:45:32Z</time>
      </trkpt>
      <trkpt lat="42.146687" lon="-8.821130">
        <ele>41.981</ele>
        <time>2019-04-30T07:45:33Z</time>
      </trkpt>
      <trkpt lat="42.146709" lon="-8.821139">
        <ele>41.915</ele>
        <time>2019-04-30T07:45:34Z</time>
      </trkpt>
      <trkpt lat="42.146734" lon="-8.821151">
        <ele>41.996</ele>
        <time>2019-04-30T07:45:35Z</time>
      </trkpt>
      <trkpt lat="42.146756" lon="-8.821164">
        <ele>41.931</ele>
        <time>2019-04-30T07:45:36Z</time>
      </trkpt>
      <trkpt lat="42.147139" lon="-8.821343">
        <ele>41.924</ele>
        <time>2019-04-30T07:45:50Z</time>
      </trkpt>
      <trkpt lat="42.147614" lon="-8.821556">
        <ele>41.908</ele>
        <time>2019-04-30T07:46:05Z</time>
      </trkpt>
      <trkpt lat="42.147654" lon="-8.821569">
        <ele>41.942</ele>
        <time>2019-04-30T07:46:06Z</time>
      </trkpt>
      <trkpt lat="42.147693" lon="-8.821583">
        <ele>41.975</ele>
        <time>2019-04-30T07:46:07Z</time>
      </trkpt>
      <trkpt lat="42.148101" lon="-8.821751">
        <ele>40.591</ele>
        <time>2019-04-30T07:46:17Z</time>
      </trkpt>
      <trkpt lat="42.148146" lon="-8.821756">
        <ele>40.069</ele>
        <time>2019-04-30T07:46:18Z</time>
      </trkpt>
      <trkpt lat="42.148879" lon="-8.821578">
        <ele>41.467</ele>
        <time>2019-04-30T07:46:35Z</time>
      </trkpt>
      <trkpt lat="42.148953" lon="-8.821525">
        <ele>41.439</ele>
        <time>2019-04-30T07:46:37Z</time>
      </trkpt>
      <trkpt lat="42.149432" lon="-8.821007">
        <ele>42.949</ele>
        <time>2019-04-30T07:46:51Z</time>
      </trkpt>
      <trkpt lat="42.149655" lon="-8.820720">
        <ele>42.993</ele>
        <time>2019-04-30T07:46:59Z</time>
      </trkpt>
      <trkpt lat="42.149690" lon="-8.820684">
        <ele>42.957</ele>
        <time>2019-04-30T07:47:00Z</time>
      </trkpt>
      <trkpt lat="42.149724" lon="-8.820649">
        <ele>42.900</ele>
        <time>2019-04-30T07:47:01Z</time>
      </trkpt>
      <trkpt lat="42.149762" lon="-8.820619">
        <ele>42.920</ele>
        <time>2019-04-30T07:47:02Z</time>
      </trkpt>
      <trkpt lat="42.149804" lon="-8.820590">
        <ele>42.908</ele>
        <time>2019-04-30T07:47:03Z</time>
      </trkpt>
      <trkpt lat="42.150456" lon="-8.820393">
        <ele>41.938</ele>
        <time>2019-04-30T07:47:17Z</time>
      </trkpt>
      <trkpt lat="42.151009" lon="-8.820577">
        <ele>40.521</ele>
        <time>2019-04-30T07:47:29Z</time>
      </trkpt>
      <trkpt lat="42.151218" lon="-8.820735">
        <ele>40.927</ele>
        <time>2019-04-30T07:47:34Z</time>
      </trkpt>
      <trkpt lat="42.151335" lon="-8.820835">
        <ele>40.925</ele>
        <time>2019-04-30T07:47:37Z</time>
      </trkpt>
      <trkpt lat="42.151374" lon="-8.820862">
        <ele>40.953</ele>
        <time>2019-04-30T07:47:38Z</time>
      </trkpt>
      <trkpt lat="42.151413" lon="-8.820889">
        <ele>40.575</ele>
        <time>2019-04-30T07:47:39Z</time>
      </trkpt>
      <trkpt lat="42.151452" lon="-8.820916">
        <ele>40.595</ele>
        <time>2019-04-30T07:47:40Z</time>
      </trkpt>
      <trkpt lat="42.151490" lon="-8.820952">
        <ele>40.519</ele>
        <time>2019-04-30T07:47:41Z</time>
      </trkpt>
      <trkpt lat="42.152073" lon="-8.821391">
        <ele>40.988</ele>
        <time>2019-04-30T07:47:56Z</time>
      </trkpt>
      <trkpt lat="42.152242" lon="-8.821445">
        <ele>40.024</ele>
        <time>2019-04-30T07:48:00Z</time>
      </trkpt>
      <trkpt lat="42.152327" lon="-8.821456">
        <ele>40.026</ele>
        <time>2019-04-30T07:48:02Z</time>
      </trkpt>
      <trkpt lat="42.152456" lon="-8.821463">
        <ele>40.508</ele>
        <time>2019-04-30T07:48:05Z</time>
      </trkpt>
      <trkpt lat="42.152499" lon="-8.821461">
        <ele>40.961</ele>
        <time>2019-04-30T07:48:06Z</time>
      </trkpt>
      <trkpt lat="42.152782" lon="-8.821408">
        <ele>40.584</ele>
        <time>2019-04-30T07:48:13Z</time>
      </trkpt>
      <trkpt lat="42.152825" lon="-8.821393">
        <ele>40.570</ele>
        <time>2019-04-30T07:48:14Z</time>
      </trkpt>
      <trkpt lat="42.153236" lon="-8.821274">
        <ele>41.448</ele>
        <time>2019-04-30T07:48:28Z</time>
      </trkpt>
      <trkpt lat="42.153563" lon="-8.821162">
        <ele>43.486</ele>
        <time>2019-04-30T07:48:39Z</time>
      </trkpt>
      <trkpt lat="42.153641" lon="-8.821128">
        <ele>43.428</ele>
        <time>2019-04-30T07:48:41Z</time>
      </trkpt>
      <trkpt lat="42.153680" lon="-8.821106">
        <ele>43.818</ele>
        <time>2019-04-30T07:48:42Z</time>
      </trkpt>
      <trkpt lat="42.154227" lon="-8.820686">
        <ele>42.472</ele>
        <time>2019-04-30T07:48:58Z</time>
      </trkpt>
      <trkpt lat="42.154770" lon="-8.820213">
        <ele>40.566</ele>
        <time>2019-04-30T07:49:14Z</time>
      </trkpt>
      <trkpt lat="42.155388" lon="-8.819784">
        <ele>43.429</ele>
        <time>2019-04-30T07:49:31Z</time>
      </trkpt>
      <trkpt lat="42.155986" lon="-8.819484">
        <ele>43.421</ele>
        <time>2019-04-30T07:49:47Z</time>
      </trkpt>
      <trkpt lat="42.156452" lon="-8.819267">
        <ele>42.408</ele>
        <time>2019-04-30T07:49:59Z</time>
      </trkpt>
      <trkpt lat="42.157094" lon="-8.818830">
        <ele>41.469</ele>
        <time>2019-04-30T07:50:16Z</time>
      </trkpt>
      <trkpt lat="42.157433" lon="-8.818151">
        <ele>43.872</ele>
        <time>2019-04-30T07:50:32Z</time>
      </trkpt>
      <trkpt lat="42.157706" lon="-8.817561">
        <ele>44.358</ele>
        <time>2019-04-30T07:50:47Z</time>
      </trkpt>
      <trkpt lat="42.158116" lon="-8.817081">
        <ele>45.316</ele>
        <time>2019-04-30T07:51:01Z</time>
      </trkpt>
      <trkpt lat="42.158211" lon="-8.816977">
        <ele>45.864</ele>
        <time>2019-04-30T07:51:04Z</time>
      </trkpt>
      <trkpt lat="42.158238" lon="-8.816938">
        <ele>45.846</ele>
        <time>2019-04-30T07:51:05Z</time>
      </trkpt>
      <trkpt lat="42.158266" lon="-8.816908">
        <ele>45.816</ele>
        <time>2019-04-30T07:51:06Z</time>
      </trkpt>
      <trkpt lat="42.158747" lon="-8.816469">
        <ele>45.360</ele>
        <time>2019-04-30T07:51:21Z</time>
      </trkpt>
      <trkpt lat="42.159397" lon="-8.815887">
        <ele>46.281</ele>
        <time>2019-04-30T07:51:40Z</time>
      </trkpt>
      <trkpt lat="42.159495" lon="-8.815791">
        <ele>45.861</ele>
        <time>2019-04-30T07:51:43Z</time>
      </trkpt>
      <trkpt lat="42.159526" lon="-8.815755">
        <ele>46.217</ele>
        <time>2019-04-30T07:51:44Z</time>
      </trkpt>
      <trkpt lat="42.160047" lon="-8.815258">
        <ele>49.108</ele>
        <time>2019-04-30T07:52:00Z</time>
      </trkpt>
      <trkpt lat="42.160214" lon="-8.815097">
        <ele>49.171</ele>
        <time>2019-04-30T07:52:05Z</time>
      </trkpt>
      <trkpt lat="42.160493" lon="-8.814793">
        <ele>49.684</ele>
        <time>2019-04-30T07:52:15Z</time>
      </trkpt>
      <trkpt lat="42.160538" lon="-8.814801">
        <ele>49.610</ele>
        <time>2019-04-30T07:52:16Z</time>
      </trkpt>
      <trkpt lat="42.160628" lon="-8.814817">
        <ele>49.138</ele>
        <time>2019-04-30T07:52:18Z</time>
      </trkpt>
      <trkpt lat="42.160674" lon="-8.814811">
        <ele>49.126</ele>
        <time>2019-04-30T07:52:19Z</time>
      </trkpt>
      <trkpt lat="42.160720" lon="-8.814793">
        <ele>48.638</ele>
        <time>2019-04-30T07:52:20Z</time>
      </trkpt>
      <trkpt lat="42.160767" lon="-8.814764">
        <ele>48.628</ele>
        <time>2019-04-30T07:52:21Z</time>
      </trkpt>
      <trkpt lat="42.160814" lon="-8.814734">
        <ele>48.662</ele>
        <time>2019-04-30T07:52:22Z</time>
      </trkpt>
      <trkpt lat="42.160860" lon="-8.814709">
        <ele>48.239</ele>
        <time>2019-04-30T07:52:23Z</time>
      </trkpt>
      <trkpt lat="42.161554" lon="-8.814524">
        <ele>45.301</ele>
        <time>2019-04-30T07:52:38Z</time>
      </trkpt>
      <trkpt lat="42.162381" lon="-8.814357">
        <ele>46.221</ele>
        <time>2019-04-30T07:52:56Z</time>
      </trkpt>
      <trkpt lat="42.162585" lon="-8.814311">
        <ele>46.708</ele>
        <time>2019-04-30T07:53:01Z</time>
      </trkpt>
      <trkpt lat="42.163177" lon="-8.814014">
        <ele>48.256</ele>
        <time>2019-04-30T07:53:17Z</time>
      </trkpt>
      <trkpt lat="42.163516" lon="-8.813674">
        <ele>47.779</ele>
        <time>2019-04-30T07:53:28Z</time>
      </trkpt>
      <trkpt lat="42.163846" lon="-8.813284">
        <ele>47.265</ele>
        <time>2019-04-30T07:53:39Z</time>
      </trkpt>
      <trkpt lat="42.164051" lon="-8.813066">
        <ele>47.743</ele>
        <time>2019-04-30T07:53:45Z</time>
      </trkpt>
      <trkpt lat="42.164465" lon="-8.812720">
        <ele>48.251</ele>
        <time>2019-04-30T07:53:56Z</time>
      </trkpt>
      <trkpt lat="42.164508" lon="-8.812701">
        <ele>48.213</ele>
        <time>2019-04-30T07:53:57Z</time>
      </trkpt>
      <trkpt lat="42.165056" lon="-8.812606">
        <ele>48.273</ele>
        <time>2019-04-30T07:54:09Z</time>
      </trkpt>
      <trkpt lat="42.165671" lon="-8.812861">
        <ele>48.257</ele>
        <time>2019-04-30T07:54:23Z</time>
      </trkpt>
      <trkpt lat="42.165708" lon="-8.812894">
        <ele>48.252</ele>
        <time>2019-04-30T07:54:24Z</time>
      </trkpt>
      <trkpt lat="42.166320" lon="-8.813485">
        <ele>49.153</ele>
        <time>2019-04-30T07:54:41Z</time>
      </trkpt>
      <trkpt lat="42.166567" lon="-8.813711">
        <ele>49.108</ele>
        <time>2019-04-30T07:54:48Z</time>
      </trkpt>
      <trkpt lat="42.166862" lon="-8.813857">
        <ele>48.608</ele>
        <time>2019-04-30T07:54:55Z</time>
      </trkpt>
      <trkpt lat="42.166907" lon="-8.813864">
        <ele>48.688</ele>
        <time>2019-04-30T07:54:56Z</time>
      </trkpt>
      <trkpt lat="42.167543" lon="-8.813772">
        <ele>47.251</ele>
        <time>2019-04-30T07:55:11Z</time>
      </trkpt>
      <trkpt lat="42.168279" lon="-8.813563">
        <ele>47.777</ele>
        <time>2019-04-30T07:55:28Z</time>
      </trkpt>
      <trkpt lat="42.169034" lon="-8.813333">
        <ele>52.045</ele>
        <time>2019-04-30T07:55:45Z</time>
      </trkpt>
      <trkpt lat="42.169435" lon="-8.813248">
        <ele>53.423</ele>
        <time>2019-04-30T07:55:55Z</time>
      </trkpt>
      <trkpt lat="42.169655" lon="-8.813191">
        <ele>53.925</ele>
        <time>2019-04-30T07:56:00Z</time>
      </trkpt>
      <trkpt lat="42.170019" lon="-8.813087">
        <ele>55.455</ele>
        <time>2019-04-30T07:56:09Z</time>
      </trkpt>
      <trkpt lat="42.170456" lon="-8.812930">
        <ele>57.319</ele>
        <time>2019-04-30T07:56:20Z</time>
      </trkpt>
      <trkpt lat="42.171077" lon="-8.812675">
        <ele>57.838</ele>
        <time>2019-04-30T07:56:35Z</time>
      </trkpt>
      <trkpt lat="42.171722" lon="-8.812402">
        <ele>58.370</ele>
        <time>2019-04-30T07:56:51Z</time>
      </trkpt>
      <trkpt lat="42.172361" lon="-8.812114">
        <ele>58.717</ele>
        <time>2019-04-30T07:57:07Z</time>
      </trkpt>
      <trkpt lat="42.172846" lon="-8.811667">
        <ele>59.208</ele>
        <time>2019-04-30T07:57:21Z</time>
      </trkpt>
      <trkpt lat="42.173043" lon="-8.811288">
        <ele>60.226</ele>
        <time>2019-04-30T07:57:32Z</time>
      </trkpt>
      <trkpt lat="42.173227" lon="-8.811197">
        <ele>59.719</ele>
        <time>2019-04-30T07:57:38Z</time>
      </trkpt>
      <trkpt lat="42.173266" lon="-8.811172">
        <ele>59.715</ele>
        <time>2019-04-30T07:57:39Z</time>
      </trkpt>
      <trkpt lat="42.173871" lon="-8.810589">
        <ele>58.723</ele>
        <time>2019-04-30T07:57:56Z</time>
      </trkpt>
      <trkpt lat="42.174135" lon="-8.810310">
        <ele>58.741</ele>
        <time>2019-04-30T07:58:04Z</time>
      </trkpt>
      <trkpt lat="42.174334" lon="-8.810094">
        <ele>59.213</ele>
        <time>2019-04-30T07:58:10Z</time>
      </trkpt>
      <trkpt lat="42.174409" lon="-8.810027">
        <ele>58.723</ele>
        <time>2019-04-30T07:58:12Z</time>
      </trkpt>
      <trkpt lat="42.174488" lon="-8.809951">
        <ele>59.277</ele>
        <time>2019-04-30T07:58:14Z</time>
      </trkpt>
      <trkpt lat="42.174844" lon="-8.809422">
        <ele>59.242</ele>
        <time>2019-04-30T07:58:25Z</time>
      </trkpt>
      <trkpt lat="42.174875" lon="-8.809369">
        <ele>58.722</ele>
        <time>2019-04-30T07:58:26Z</time>
      </trkpt>
      <trkpt lat="42.174905" lon="-8.809316">
        <ele>58.714</ele>
        <time>2019-04-30T07:58:27Z</time>
      </trkpt>
      <trkpt lat="42.174932" lon="-8.809261">
        <ele>58.708</ele>
        <time>2019-04-30T07:58:28Z</time>
      </trkpt>
      <trkpt lat="42.174958" lon="-8.809205">
        <ele>58.757</ele>
        <time>2019-04-30T07:58:29Z</time>
      </trkpt>
      <trkpt lat="42.175160" lon="-8.808660">
        <ele>58.740</ele>
        <time>2019-04-30T07:58:39Z</time>
      </trkpt>
      <trkpt lat="42.175361" lon="-8.807780">
        <ele>61.666</ele>
        <time>2019-04-30T07:58:54Z</time>
      </trkpt>
      <trkpt lat="42.175708" lon="-8.806909">
        <ele>61.654</ele>
        <time>2019-04-30T07:59:10Z</time>
      </trkpt>
      <trkpt lat="42.176136" lon="-8.806569">
        <ele>61.182</ele>
        <time>2019-04-30T07:59:21Z</time>
      </trkpt>
      <trkpt lat="42.176262" lon="-8.806525">
        <ele>61.134</ele>
        <time>2019-04-30T07:59:24Z</time>
      </trkpt>
      <trkpt lat="42.176883" lon="-8.806604">
        <ele>61.124</ele>
        <time>2019-04-30T07:59:39Z</time>
      </trkpt>
      <trkpt lat="42.177566" lon="-8.806823">
        <ele>61.118</ele>
        <time>2019-04-30T07:59:57Z</time>
      </trkpt>
      <trkpt lat="42.178186" lon="-8.806810">
        <ele>64.521</ele>
        <time>2019-04-30T08:00:13Z</time>
      </trkpt>
      <trkpt lat="42.178822" lon="-8.806384">
        <ele>64.041</ele>
        <time>2019-04-30T08:00:30Z</time>
      </trkpt>
      <trkpt lat="42.178858" lon="-8.806358">
        <ele>64.005</ele>
        <time>2019-04-30T08:00:31Z</time>
      </trkpt>
      <trkpt lat="42.179443" lon="-8.805980">
        <ele>62.608</ele>
        <time>2019-04-30T08:00:45Z</time>
      </trkpt>
      <trkpt lat="42.179494" lon="-8.805966">
        <ele>62.675</ele>
        <time>2019-04-30T08:00:46Z</time>
      </trkpt>
      <trkpt lat="42.180268" lon="-8.806012">
        <ele>59.248</ele>
        <time>2019-04-30T08:01:01Z</time>
      </trkpt>
      <trkpt lat="42.180311" lon="-8.806046">
        <ele>59.254</ele>
        <time>2019-04-30T08:01:02Z</time>
      </trkpt>
      <trkpt lat="42.180345" lon="-8.806095">
        <ele>59.232</ele>
        <time>2019-04-30T08:01:03Z</time>
      </trkpt>
      <trkpt lat="42.180374" lon="-8.806153">
        <ele>59.230</ele>
        <time>2019-04-30T08:01:04Z</time>
      </trkpt>
      <trkpt lat="42.180402" lon="-8.806214">
        <ele>59.222</ele>
        <time>2019-04-30T08:01:05Z</time>
      </trkpt>
      <trkpt lat="42.180553" lon="-8.806510">
        <ele>58.342</ele>
        <time>2019-04-30T08:01:10Z</time>
      </trkpt>
      <trkpt lat="42.180982" lon="-8.807370">
        <ele>58.316</ele>
        <time>2019-04-30T08:01:25Z</time>
      </trkpt>
      <trkpt lat="42.181005" lon="-8.807421">
        <ele>58.367</ele>
        <time>2019-04-30T08:01:26Z</time>
      </trkpt>
      <trkpt lat="42.181445" lon="-8.808318">
        <ele>59.281</ele>
        <time>2019-04-30T08:01:43Z</time>
      </trkpt>
      <trkpt lat="42.181543" lon="-8.808470">
        <ele>59.219</ele>
        <time>2019-04-30T08:01:50Z</time>
      </trkpt>
      <trkpt lat="42.181548" lon="-8.808477">
        <ele>56.808</ele>
        <time>2019-04-30T08:02:14Z</time>
      </trkpt>
      <trkpt lat="42.181549" lon="-8.808472">
        <ele>55.859</ele>
        <time>2019-04-30T08:02:50Z</time>
      </trkpt>
      <trkpt lat="42.181580" lon="-8.808519">
        <ele>56.812</ele>
        <time>2019-04-30T08:03:21Z</time>
      </trkpt>
      <trkpt lat="42.181748" lon="-8.808898">
        <ele>57.888</ele>
        <time>2019-04-30T08:03:32Z</time>
      </trkpt>
      <trkpt lat="42.182081" lon="-8.809322">
        <ele>57.876</ele>
        <time>2019-04-30T08:03:45Z</time>
      </trkpt>
      <trkpt lat="42.182682" lon="-8.809469">
        <ele>55.824</ele>
        <time>2019-04-30T08:03:57Z</time>
      </trkpt>
      <trkpt lat="42.183064" lon="-8.809322">
        <ele>53.946</ele>
        <time>2019-04-30T08:04:03Z</time>
      </trkpt>
      <trkpt lat="42.183123" lon="-8.809275">
        <ele>53.466</ele>
        <time>2019-04-30T08:04:04Z</time>
      </trkpt>
      <trkpt lat="42.183592" lon="-8.808513">
        <ele>50.670</ele>
        <time>2019-04-30T08:04:15Z</time>
      </trkpt>
      <trkpt lat="42.184011" lon="-8.807294">
        <ele>48.644</ele>
        <time>2019-04-30T08:04:31Z</time>
      </trkpt>
      <trkpt lat="42.184631" lon="-8.806498">
        <ele>47.205</ele>
        <time>2019-04-30T08:04:45Z</time>
      </trkpt>
      <trkpt lat="42.184693" lon="-8.806471">
        <ele>47.215</ele>
        <time>2019-04-30T08:04:46Z</time>
      </trkpt>
      <trkpt lat="42.184757" lon="-8.806450">
        <ele>46.708</ele>
        <time>2019-04-30T08:04:47Z</time>
      </trkpt>
      <trkpt lat="42.185519" lon="-8.806306">
        <ele>44.327</ele>
        <time>2019-04-30T08:04:59Z</time>
      </trkpt>
      <trkpt lat="42.185712" lon="-8.806241">
        <ele>43.440</ele>
        <time>2019-04-30T08:05:02Z</time>
      </trkpt>
      <trkpt lat="42.186664" lon="-8.806120">
        <ele>40.566</ele>
        <time>2019-04-30T08:05:18Z</time>
      </trkpt>
      <trkpt lat="42.187191" lon="-8.805937">
        <ele>40.554</ele>
        <time>2019-04-30T08:05:27Z</time>
      </trkpt>
      <trkpt lat="42.187648" lon="-8.805424">
        <ele>39.022</ele>
        <time>2019-04-30T08:05:36Z</time>
      </trkpt>
      <trkpt lat="42.188077" lon="-8.804552">
        <ele>38.144</ele>
        <time>2019-04-30T08:05:49Z</time>
      </trkpt>
      <trkpt lat="42.188356" lon="-8.803977">
        <ele>37.114</ele>
        <time>2019-04-30T08:06:03Z</time>
      </trkpt>
      <trkpt lat="42.188411" lon="-8.803866">
        <ele>36.148</ele>
        <time>2019-04-30T08:06:11Z</time>
      </trkpt>
      <trkpt lat="42.188491" lon="-8.803975">
        <ele>35.732</ele>
        <time>2019-04-30T08:06:17Z</time>
      </trkpt>
      <trkpt lat="42.188539" lon="-8.804048">
        <ele>34.792</ele>
        <time>2019-04-30T08:06:27Z</time>
      </trkpt>
      <trkpt lat="42.188549" lon="-8.804041">
        <ele>34.711</ele>
        <time>2019-04-30T08:06:53Z</time>
      </trkpt>
      <trkpt lat="42.188543" lon="-8.804035">
        <ele>35.708</ele>
        <time>2019-04-30T08:07:27Z</time>
      </trkpt>
      <trkpt lat="42.188537" lon="-8.804051">
        <ele>36.646</ele>
        <time>2019-04-30T08:07:59Z</time>
      </trkpt>
      <trkpt lat="42.188530" lon="-8.804054">
        <ele>37.629</ele>
        <time>2019-04-30T08:08:22Z</time>
      </trkpt>
      <trkpt lat="42.188525" lon="-8.804068">
        <ele>39.545</ele>
        <time>2019-04-30T08:08:53Z</time>
      </trkpt>
      <trkpt lat="42.188514" lon="-8.804086">
        <ele>40.083</ele>
        <time>2019-04-30T08:09:18Z</time>
      </trkpt>
      <trkpt lat="42.188509" lon="-8.804087">
        <ele>38.111</ele>
        <time>2019-04-30T08:09:45Z</time>
      </trkpt>
      <trkpt lat="42.188522" lon="-8.804075">
        <ele>37.163</ele>
        <time>2019-04-30T08:10:14Z</time>
      </trkpt>
      <trkpt lat="42.188538" lon="-8.804055">
        <ele>37.173</ele>
        <time>2019-04-30T08:10:25Z</time>
      </trkpt>
      <trkpt lat="42.188539" lon="-8.804053">
        <ele>37.127</ele>
        <time>2019-04-30T08:10:26Z</time>
      </trkpt>
      <trkpt lat="42.188535" lon="-8.803994">
        <ele>38.545</ele>
        <time>2019-04-30T08:10:29Z</time>
      </trkpt>
      <trkpt lat="42.188576" lon="-8.803866">
        <ele>39.047</ele>
        <time>2019-04-30T08:10:37Z</time>
      </trkpt>
      <trkpt lat="42.188566" lon="-8.803952">
        <ele>38.111</ele>
        <time>2019-04-30T08:10:41Z</time>
      </trkpt>
      <trkpt lat="42.188538" lon="-8.803979">
        <ele>38.108</ele>
        <time>2019-04-30T08:10:44Z</time>
      </trkpt>
      <trkpt lat="42.188569" lon="-8.803934">
        <ele>38.157</ele>
        <time>2019-04-30T08:10:52Z</time>
      </trkpt>
      <trkpt lat="42.188548" lon="-8.803983">
        <ele>37.170</ele>
        <time>2019-04-30T08:10:57Z</time>
      </trkpt>
      <trkpt lat="42.188598" lon="-8.803874">
        <ele>37.166</ele>
        <time>2019-04-30T08:11:06Z</time>
      </trkpt>
      <trkpt lat="42.188561" lon="-8.803972">
        <ele>36.644</ele>
        <time>2019-04-30T08:11:13Z</time>
      </trkpt>
      <trkpt lat="42.188553" lon="-8.803970">
        <ele>35.762</ele>
        <time>2019-04-30T08:11:28Z</time>
      </trkpt>
      <trkpt lat="42.188564" lon="-8.803938">
        <ele>36.694</ele>
        <time>2019-04-30T08:11:31Z</time>
      </trkpt>
      <trkpt lat="42.188573" lon="-8.803979">
        <ele>37.184</ele>
        <time>2019-04-30T08:11:41Z</time>
      </trkpt>
      <trkpt lat="42.188564" lon="-8.804018">
        <ele>37.678</ele>
        <time>2019-04-30T08:12:09Z</time>
      </trkpt>
      <trkpt lat="42.188593" lon="-8.804017">
        <ele>34.764</ele>
        <time>2019-04-30T08:12:26Z</time>
      </trkpt>
      <trkpt lat="42.188623" lon="-8.804017">
        <ele>34.706</ele>
        <time>2019-04-30T08:12:57Z</time>
      </trkpt>
      <trkpt lat="42.188631" lon="-8.804022">
        <ele>34.216</ele>
        <time>2019-04-30T08:13:31Z</time>
      </trkpt>
      <trkpt lat="42.188650" lon="-8.803998">
        <ele>34.708</ele>
        <time>2019-04-30T08:14:07Z</time>
      </trkpt>
      <trkpt lat="42.188655" lon="-8.803957">
        <ele>38.169</ele>
        <time>2019-04-30T08:14:38Z</time>
      </trkpt>
      <trkpt lat="42.188655" lon="-8.803939">
        <ele>40.072</ele>
        <time>2019-04-30T08:15:16Z</time>
      </trkpt>
      <trkpt lat="42.188648" lon="-8.803921">
        <ele>40.578</ele>
        <time>2019-04-30T08:15:52Z</time>
      </trkpt>
      <trkpt lat="42.188637" lon="-8.803917">
        <ele>40.936</ele>
        <time>2019-04-30T08:16:26Z</time>
      </trkpt>
      <trkpt lat="42.188633" lon="-8.803900">
        <ele>38.534</ele>
        <time>2019-04-30T08:17:03Z</time>
      </trkpt>
      <trkpt lat="42.188609" lon="-8.803904">
        <ele>39.016</ele>
        <time>2019-04-30T08:17:37Z</time>
      </trkpt>
      <trkpt lat="42.188609" lon="-8.803911">
        <ele>40.566</ele>
        <time>2019-04-30T08:18:12Z</time>
      </trkpt>
      <trkpt lat="42.188611" lon="-8.803916">
        <ele>42.950</ele>
        <time>2019-04-30T08:18:49Z</time>
      </trkpt>
      <trkpt lat="42.188615" lon="-8.803901">
        <ele>42.416</ele>
        <time>2019-04-30T08:19:19Z</time>
      </trkpt>
      <trkpt lat="42.188613" lon="-8.803910">
        <ele>41.976</ele>
        <time>2019-04-30T08:19:48Z</time>
      </trkpt>
      <trkpt lat="42.188616" lon="-8.803912">
        <ele>41.913</ele>
        <time>2019-04-30T08:20:14Z</time>
      </trkpt>
      <trkpt lat="42.188623" lon="-8.803913">
        <ele>40.908</ele>
        <time>2019-04-30T08:20:45Z</time>
      </trkpt>
      <trkpt lat="42.188632" lon="-8.803920">
        <ele>40.994</ele>
        <time>2019-04-30T08:21:09Z</time>
      </trkpt>
      <trkpt lat="42.188634" lon="-8.803920">
        <ele>40.997</ele>
        <time>2019-04-30T08:21:12Z</time>
      </trkpt>
      <trkpt lat="42.188589" lon="-8.803881">
        <ele>41.923</ele>
        <time>2019-04-30T08:21:21Z</time>
      </trkpt>
      <trkpt lat="42.188486" lon="-8.803878">
        <ele>44.311</ele>
        <time>2019-04-30T08:21:31Z</time>
      </trkpt>
      <trkpt lat="42.188452" lon="-8.803778">
        <ele>42.499</ele>
        <time>2019-04-30T08:21:40Z</time>
      </trkpt>
      <trkpt lat="42.188693" lon="-8.803270">
        <ele>39.571</ele>
        <time>2019-04-30T08:21:54Z</time>
      </trkpt>
      <trkpt lat="42.189072" lon="-8.802485">
        <ele>36.671</ele>
        <time>2019-04-30T08:22:11Z</time>
      </trkpt>
      <trkpt lat="42.189519" lon="-8.801583">
        <ele>32.845</ele>
        <time>2019-04-30T08:22:27Z</time>
      </trkpt>
      <trkpt lat="42.190023" lon="-8.800513">
        <ele>30.932</ele>
        <time>2019-04-30T08:22:44Z</time>
      </trkpt>
      <trkpt lat="42.190303" lon="-8.799994">
        <ele>30.992</ele>
        <time>2019-04-30T08:22:54Z</time>
      </trkpt>
      <trkpt lat="42.190322" lon="-8.799933">
        <ele>30.411</ele>
        <time>2019-04-30T08:22:55Z</time>
      </trkpt>
      <trkpt lat="42.190334" lon="-8.799870">
        <ele>30.408</ele>
        <time>2019-04-30T08:22:56Z</time>
      </trkpt>
      <trkpt lat="42.190341" lon="-8.799805">
        <ele>30.496</ele>
        <time>2019-04-30T08:22:57Z</time>
      </trkpt>
      <trkpt lat="42.190360" lon="-8.799743">
        <ele>30.429</ele>
        <time>2019-04-30T08:22:58Z</time>
      </trkpt>
      <trkpt lat="42.190386" lon="-8.799684">
        <ele>30.485</ele>
        <time>2019-04-30T08:22:59Z</time>
      </trkpt>
      <trkpt lat="42.190416" lon="-8.799626">
        <ele>30.433</ele>
        <time>2019-04-30T08:23:00Z</time>
      </trkpt>
      <trkpt lat="42.190988" lon="-8.798521">
        <ele>29.441</ele>
        <time>2019-04-30T08:23:18Z</time>
      </trkpt>
      <trkpt lat="42.191254" lon="-8.797426">
        <ele>28.093</ele>
        <time>2019-04-30T08:23:32Z</time>
      </trkpt>
      <trkpt lat="42.191332" lon="-8.795850">
        <ele>25.113</ele>
        <time>2019-04-30T08:23:50Z</time>
      </trkpt>
      <trkpt lat="42.191235" lon="-8.795506">
        <ele>24.177</ele>
        <time>2019-04-30T08:23:54Z</time>
      </trkpt>
      <trkpt lat="42.190892" lon="-8.794930">
        <ele>22.772</ele>
        <time>2019-04-30T08:24:02Z</time>
      </trkpt>
      <trkpt lat="42.190719" lon="-8.794771">
        <ele>23.613</ele>
        <time>2019-04-30T08:24:05Z</time>
      </trkpt>
      <trkpt lat="42.189854" lon="-8.794481">
        <ele>21.214</ele>
        <time>2019-04-30T08:24:18Z</time>
      </trkpt>
      <trkpt lat="42.189059" lon="-8.794123">
        <ele>19.808</ele>
        <time>2019-04-30T08:24:31Z</time>
      </trkpt>
      <trkpt lat="42.188551" lon="-8.793250">
        <ele>16.910</ele>
        <time>2019-04-30T08:24:43Z</time>
      </trkpt>
      <trkpt lat="42.188486" lon="-8.792178">
        <ele>16.453</ele>
        <time>2019-04-30T08:24:55Z</time>
      </trkpt>
      <trkpt lat="42.188830" lon="-8.791308">
        <ele>17.419</ele>
        <time>2019-04-30T08:25:07Z</time>
      </trkpt>
      <trkpt lat="42.189383" lon="-8.790603">
        <ele>17.947</ele>
        <time>2019-04-30T08:25:20Z</time>
      </trkpt>
      <trkpt lat="42.190027" lon="-8.789727">
        <ele>18.495</ele>
        <time>2019-04-30T08:25:36Z</time>
      </trkpt>
      <trkpt lat="42.190304" lon="-8.789016">
        <ele>18.867</ele>
        <time>2019-04-30T08:25:47Z</time>
      </trkpt>
      <trkpt lat="42.190502" lon="-8.787738">
        <ele>17.497</ele>
        <time>2019-04-30T08:26:05Z</time>
      </trkpt>
      <trkpt lat="42.190521" lon="-8.787219">
        <ele>16.991</ele>
        <time>2019-04-30T08:26:13Z</time>
      </trkpt>
      <trkpt lat="42.190517" lon="-8.787158">
        <ele>16.997</ele>
        <time>2019-04-30T08:26:14Z</time>
      </trkpt>
      <trkpt lat="42.190517" lon="-8.786136">
        <ele>19.323</ele>
        <time>2019-04-30T08:26:30Z</time>
      </trkpt>
      <trkpt lat="42.190750" lon="-8.785115">
        <ele>20.825</ele>
        <time>2019-04-30T08:26:47Z</time>
      </trkpt>
      <trkpt lat="42.191299" lon="-8.784390">
        <ele>21.208</ele>
        <time>2019-04-30T08:27:04Z</time>
      </trkpt>
      <trkpt lat="42.192020" lon="-8.783861">
        <ele>22.782</ele>
        <time>2019-04-30T08:27:22Z</time>
      </trkpt>
      <trkpt lat="42.192472" lon="-8.783511">
        <ele>23.255</ele>
        <time>2019-04-30T08:27:34Z</time>
      </trkpt>
      <trkpt lat="42.192786" lon="-8.783108">
        <ele>23.681</ele>
        <time>2019-04-30T08:27:44Z</time>
      </trkpt>
      <trkpt lat="42.193289" lon="-8.782121">
        <ele>24.619</ele>
        <time>2019-04-30T08:28:05Z</time>
      </trkpt>
      <trkpt lat="42.193626" lon="-8.781413">
        <ele>26.597</ele>
        <time>2019-04-30T08:28:19Z</time>
      </trkpt>
      <trkpt lat="42.193858" lon="-8.780976">
        <ele>26.089</ele>
        <time>2019-04-30T08:28:28Z</time>
      </trkpt>
      <trkpt lat="42.193882" lon="-8.780924">
        <ele>26.029</ele>
        <time>2019-04-30T08:28:29Z</time>
      </trkpt>
      <trkpt lat="42.194303" lon="-8.780101">
        <ele>25.663</ele>
        <time>2019-04-30T08:28:45Z</time>
      </trkpt>
      <trkpt lat="42.194318" lon="-8.780047">
        <ele>25.674</ele>
        <time>2019-04-30T08:28:46Z</time>
      </trkpt>
      <trkpt lat="42.194320" lon="-8.779989">
        <ele>25.656</ele>
        <time>2019-04-30T08:28:47Z</time>
      </trkpt>
      <trkpt lat="42.194324" lon="-8.779929">
        <ele>25.121</ele>
        <time>2019-04-30T08:28:48Z</time>
      </trkpt>
      <trkpt lat="42.194342" lon="-8.779873">
        <ele>25.108</ele>
        <time>2019-04-30T08:28:49Z</time>
      </trkpt>
      <trkpt lat="42.194368" lon="-8.779824">
        <ele>25.130</ele>
        <time>2019-04-30T08:28:50Z</time>
      </trkpt>
      <trkpt lat="42.194399" lon="-8.779779">
        <ele>24.633</ele>
        <time>2019-04-30T08:28:51Z</time>
      </trkpt>
      <trkpt lat="42.194434" lon="-8.779740">
        <ele>24.629</ele>
        <time>2019-04-30T08:28:52Z</time>
      </trkpt>
      <trkpt lat="42.194471" lon="-8.779699">
        <ele>24.647</ele>
        <time>2019-04-30T08:28:53Z</time>
      </trkpt>
      <trkpt lat="42.194506" lon="-8.779650">
        <ele>24.655</ele>
        <time>2019-04-30T08:28:54Z</time>
      </trkpt>
      <trkpt lat="42.194532" lon="-8.779591">
        <ele>24.617</ele>
        <time>2019-04-30T08:28:55Z</time>
      </trkpt>
      <trkpt lat="42.194554" lon="-8.779527">
        <ele>24.647</ele>
        <time>2019-04-30T08:28:56Z</time>
      </trkpt>
      <trkpt lat="42.194686" lon="-8.778483">
        <ele>25.131</ele>
        <time>2019-04-30T08:29:10Z</time>
      </trkpt>
      <trkpt lat="42.194661" lon="-8.777085">
        <ele>23.657</ele>
        <time>2019-04-30T08:29:27Z</time>
      </trkpt>
      <trkpt lat="42.194962" lon="-8.775887">
        <ele>22.200</ele>
        <time>2019-04-30T08:29:41Z</time>
      </trkpt>
      <trkpt lat="42.195329" lon="-8.774633">
        <ele>20.820</ele>
        <time>2019-04-30T08:29:57Z</time>
      </trkpt>
      <trkpt lat="42.195691" lon="-8.773761">
        <ele>19.808</ele>
        <time>2019-04-30T08:30:12Z</time>
      </trkpt>
      <trkpt lat="42.195758" lon="-8.773678">
        <ele>20.338</ele>
        <time>2019-04-30T08:30:14Z</time>
      </trkpt>
      <trkpt lat="42.196094" lon="-8.773403">
        <ele>20.831</ele>
        <time>2019-04-30T08:30:23Z</time>
      </trkpt>
      <trkpt lat="42.196141" lon="-8.773383">
        <ele>20.877</ele>
        <time>2019-04-30T08:30:24Z</time>
      </trkpt>
      <trkpt lat="42.196843" lon="-8.773236">
        <ele>20.815</ele>
        <time>2019-04-30T08:30:38Z</time>
      </trkpt>
      <trkpt lat="42.197559" lon="-8.773029">
        <ele>20.883</ele>
        <time>2019-04-30T08:30:52Z</time>
      </trkpt>
      <trkpt lat="42.197658" lon="-8.772982">
        <ele>20.815</ele>
        <time>2019-04-30T08:30:54Z</time>
      </trkpt>
      <trkpt lat="42.197708" lon="-8.772957">
        <ele>20.865</ele>
        <time>2019-04-30T08:30:55Z</time>
      </trkpt>
      <trkpt lat="42.197759" lon="-8.772930">
        <ele>20.319</ele>
        <time>2019-04-30T08:30:56Z</time>
      </trkpt>
      <trkpt lat="42.197811" lon="-8.772903">
        <ele>20.356</ele>
        <time>2019-04-30T08:30:57Z</time>
      </trkpt>
      <trkpt lat="42.197862" lon="-8.772877">
        <ele>20.359</ele>
        <time>2019-04-30T08:30:58Z</time>
      </trkpt>
      <trkpt lat="42.197912" lon="-8.772847">
        <ele>20.314</ele>
        <time>2019-04-30T08:30:59Z</time>
      </trkpt>
      <trkpt lat="42.198572" lon="-8.772306">
        <ele>18.408</ele>
        <time>2019-04-30T08:31:13Z</time>
      </trkpt>
      <trkpt lat="42.198702" lon="-8.772135">
        <ele>17.458</ele>
        <time>2019-04-30T08:31:16Z</time>
      </trkpt>
      <trkpt lat="42.199105" lon="-8.771144">
        <ele>17.471</ele>
        <time>2019-04-30T08:31:31Z</time>
      </trkpt>
      <trkpt lat="42.199613" lon="-8.769726">
        <ele>19.857</ele>
        <time>2019-04-30T08:31:53Z</time>
      </trkpt>
      <trkpt lat="42.200065" lon="-8.768530">
        <ele>19.395</ele>
        <time>2019-04-30T08:32:12Z</time>
      </trkpt>
      <trkpt lat="42.200546" lon="-8.767225">
        <ele>16.473</ele>
        <time>2019-04-30T08:32:32Z</time>
      </trkpt>
      <trkpt lat="42.200600" lon="-8.767046">
        <ele>16.045</ele>
        <time>2019-04-30T08:32:35Z</time>
      </trkpt>
      <trkpt lat="42.200622" lon="-8.766932">
        <ele>15.555</ele>
        <time>2019-04-30T08:32:42Z</time>
      </trkpt>
      <trkpt lat="42.200616" lon="-8.766948">
        <ele>15.069</ele>
        <time>2019-04-30T08:33:03Z</time>
      </trkpt>
      <trkpt lat="42.200615" lon="-8.766949">
        <ele>16.095</ele>
        <time>2019-04-30T08:33:19Z</time>
      </trkpt>
      <trkpt lat="42.200616" lon="-8.766850">
        <ele>16.049</ele>
        <time>2019-04-30T08:33:30Z</time>
      </trkpt>
      <trkpt lat="42.200617" lon="-8.766813">
        <ele>16.023</ele>
        <time>2019-04-30T08:33:31Z</time>
      </trkpt>
      <trkpt lat="42.200610" lon="-8.766772">
        <ele>16.008</ele>
        <time>2019-04-30T08:33:32Z</time>
      </trkpt>
      <trkpt lat="42.200602" lon="-8.766760">
        <ele>15.552</ele>
        <time>2019-04-30T08:33:41Z</time>
      </trkpt>
      <trkpt lat="42.200593" lon="-8.766483">
        <ele>14.035</ele>
        <time>2019-04-30T08:33:56Z</time>
      </trkpt>
      <trkpt lat="42.200608" lon="-8.766426">
        <ele>14.071</ele>
        <time>2019-04-30T08:33:57Z</time>
      </trkpt>
      <trkpt lat="42.200629" lon="-8.766361">
        <ele>13.699</ele>
        <time>2019-04-30T08:33:58Z</time>
      </trkpt>
      <trkpt lat="42.200654" lon="-8.766303">
        <ele>13.647</ele>
        <time>2019-04-30T08:33:59Z</time>
      </trkpt>
      <trkpt lat="42.200684" lon="-8.766255">
        <ele>13.189</ele>
        <time>2019-04-30T08:34:00Z</time>
      </trkpt>
      <trkpt lat="42.200724" lon="-8.766215">
        <ele>13.169</ele>
        <time>2019-04-30T08:34:01Z</time>
      </trkpt>
      <trkpt lat="42.200769" lon="-8.766183">
        <ele>13.193</ele>
        <time>2019-04-30T08:34:02Z</time>
      </trkpt>
      <trkpt lat="42.200816" lon="-8.766158">
        <ele>13.176</ele>
        <time>2019-04-30T08:34:03Z</time>
      </trkpt>
      <trkpt lat="42.200864" lon="-8.766142">
        <ele>13.190</ele>
        <time>2019-04-30T08:34:04Z</time>
      </trkpt>
      <trkpt lat="42.200914" lon="-8.766141">
        <ele>13.119</ele>
        <time>2019-04-30T08:34:05Z</time>
      </trkpt>
      <trkpt lat="42.200966" lon="-8.766147">
        <ele>13.108</ele>
        <time>2019-04-30T08:34:06Z</time>
      </trkpt>
      <trkpt lat="42.201016" lon="-8.766151">
        <ele>13.640</ele>
        <time>2019-04-30T08:34:07Z</time>
      </trkpt>
      <trkpt lat="42.201064" lon="-8.766148">
        <ele>13.183</ele>
        <time>2019-04-30T08:34:08Z</time>
      </trkpt>
      <trkpt lat="42.201112" lon="-8.766138">
        <ele>13.639</ele>
        <time>2019-04-30T08:34:09Z</time>
      </trkpt>
      <trkpt lat="42.201156" lon="-8.766124">
        <ele>13.157</ele>
        <time>2019-04-30T08:34:10Z</time>
      </trkpt>
      <trkpt lat="42.201200" lon="-8.766109">
        <ele>13.115</ele>
        <time>2019-04-30T08:34:11Z</time>
      </trkpt>
      <trkpt lat="42.201327" lon="-8.766064">
        <ele>13.697</ele>
        <time>2019-04-30T08:34:14Z</time>
      </trkpt>
      <trkpt lat="42.201909" lon="-8.765736">
        <ele>14.027</ele>
        <time>2019-04-30T08:34:29Z</time>
      </trkpt>
      <trkpt lat="42.201946" lon="-8.765704">
        <ele>14.071</ele>
        <time>2019-04-30T08:34:30Z</time>
      </trkpt>
      <trkpt lat="42.202047" lon="-8.765587">
        <ele>13.616</ele>
        <time>2019-04-30T08:34:33Z</time>
      </trkpt>
      <trkpt lat="42.202193" lon="-8.765359">
        <ele>14.076</ele>
        <time>2019-04-30T08:34:38Z</time>
      </trkpt>
      <trkpt lat="42.202222" lon="-8.765320">
        <ele>13.613</ele>
        <time>2019-04-30T08:34:39Z</time>
      </trkpt>
      <trkpt lat="42.202328" lon="-8.765164">
        <ele>14.008</ele>
        <time>2019-04-30T08:34:49Z</time>
      </trkpt>
      <trkpt lat="42.202325" lon="-8.765143">
        <ele>12.194</ele>
        <time>2019-04-30T08:35:19Z</time>
      </trkpt>
      <trkpt lat="42.202336" lon="-8.765164">
        <ele>12.667</ele>
        <time>2019-04-30T08:35:49Z</time>
      </trkpt>
      <trkpt lat="42.202337" lon="-8.765171">
        <ele>14.073</ele>
        <time>2019-04-30T08:36:20Z</time>
      </trkpt>
      <trkpt lat="42.202334" lon="-8.765174">
        <ele>14.071</ele>
        <time>2019-04-30T08:36:51Z</time>
      </trkpt>
      <trkpt lat="42.202328" lon="-8.765169">
        <ele>13.649</ele>
        <time>2019-04-30T08:37:20Z</time>
      </trkpt>
      <trkpt lat="42.202333" lon="-8.765180">
        <ele>14.041</ele>
        <time>2019-04-30T08:37:48Z</time>
      </trkpt>
      <trkpt lat="42.202330" lon="-8.765174">
        <ele>13.671</ele>
        <time>2019-04-30T08:38:21Z</time>
      </trkpt>
      <trkpt lat="42.202332" lon="-8.765163">
        <ele>14.095</ele>
        <time>2019-04-30T08:38:51Z</time>
      </trkpt>
      <trkpt lat="42.202323" lon="-8.765156">
        <ele>13.683</ele>
        <time>2019-04-30T08:39:25Z</time>
      </trkpt>
      <trkpt lat="42.202321" lon="-8.765159">
        <ele>13.625</ele>
        <time>2019-04-30T08:39:55Z</time>
      </trkpt>
      <trkpt lat="42.202322" lon="-8.765170">
        <ele>14.017</ele>
        <time>2019-04-30T08:40:26Z</time>
      </trkpt>
      <trkpt lat="42.202353" lon="-8.765129">
        <ele>14.008</ele>
        <time>2019-04-30T08:40:31Z</time>
      </trkpt>
      <trkpt lat="42.202379" lon="-8.765118">
        <ele>13.681</ele>
        <time>2019-04-30T08:40:35Z</time>
      </trkpt>
      <trkpt lat="42.202627" lon="-8.764780">
        <ele>14.094</ele>
        <time>2019-04-30T08:40:45Z</time>
      </trkpt>
      <trkpt lat="42.203106" lon="-8.763916">
        <ele>15.540</ele>
        <time>2019-04-30T08:41:03Z</time>
      </trkpt>
      <trkpt lat="42.203515" lon="-8.762857">
        <ele>16.048</ele>
        <time>2019-04-30T08:41:23Z</time>
      </trkpt>
      <trkpt lat="42.203715" lon="-8.762244">
        <ele>16.496</ele>
        <time>2019-04-30T08:41:39Z</time>
      </trkpt>
      <trkpt lat="42.203721" lon="-8.762260">
        <ele>16.078</ele>
        <time>2019-04-30T08:41:58Z</time>
      </trkpt>
      <trkpt lat="42.203727" lon="-8.762262">
        <ele>16.018</ele>
        <time>2019-04-30T08:42:16Z</time>
      </trkpt>
      <trkpt lat="42.203742" lon="-8.762256">
        <ele>16.082</ele>
        <time>2019-04-30T08:42:18Z</time>
      </trkpt>
      <trkpt lat="42.203762" lon="-8.762237">
        <ele>16.465</ele>
        <time>2019-04-30T08:42:19Z</time>
      </trkpt>
      <trkpt lat="42.203781" lon="-8.762208">
        <ele>16.468</ele>
        <time>2019-04-30T08:42:20Z</time>
      </trkpt>
      <trkpt lat="42.203800" lon="-8.762175">
        <ele>16.914</ele>
        <time>2019-04-30T08:42:21Z</time>
      </trkpt>
      <trkpt lat="42.203818" lon="-8.762138">
        <ele>16.908</ele>
        <time>2019-04-30T08:42:22Z</time>
      </trkpt>
      <trkpt lat="42.203836" lon="-8.762094">
        <ele>17.439</ele>
        <time>2019-04-30T08:42:23Z</time>
      </trkpt>
      <trkpt lat="42.203853" lon="-8.762051">
        <ele>17.482</ele>
        <time>2019-04-30T08:42:24Z</time>
      </trkpt>
      <trkpt lat="42.203867" lon="-8.762008">
        <ele>17.438</ele>
        <time>2019-04-30T08:42:25Z</time>
      </trkpt>
      <trkpt lat="42.203879" lon="-8.761971">
        <ele>17.496</ele>
        <time>2019-04-30T08:42:26Z</time>
      </trkpt>
      <trkpt lat="42.203953" lon="-8.761820">
        <ele>17.974</ele>
        <time>2019-04-30T08:42:31Z</time>
      </trkpt>
      <trkpt lat="42.203979" lon="-8.761806">
        <ele>17.976</ele>
        <time>2019-04-30T08:42:32Z</time>
      </trkpt>
      <trkpt lat="42.204010" lon="-8.761802">
        <ele>17.946</ele>
        <time>2019-04-30T08:42:33Z</time>
      </trkpt>
      <trkpt lat="42.204043" lon="-8.761800">
        <ele>17.960</ele>
        <time>2019-04-30T08:42:34Z</time>
      </trkpt>
      <trkpt lat="42.204073" lon="-8.761805">
        <ele>17.948</ele>
        <time>2019-04-30T08:42:35Z</time>
      </trkpt>
      <trkpt lat="42.204101" lon="-8.761815">
        <ele>17.461</ele>
        <time>2019-04-30T08:42:36Z</time>
      </trkpt>
      <trkpt lat="42.204538" lon="-8.761887">
        <ele>19.317</ele>
        <time>2019-04-30T08:42:50Z</time>
      </trkpt>
      <trkpt lat="42.204717" lon="-8.761906">
        <ele>23.608</ele>
        <time>2019-04-30T08:43:02Z</time>
      </trkpt>
      <trkpt lat="42.204868" lon="-8.761958">
        <ele>23.267</ele>
        <time>2019-04-30T08:43:13Z</time>
      </trkpt>
      <trkpt lat="42.205159" lon="-8.762099">
        <ele>24.140</ele>
        <time>2019-04-30T08:43:27Z</time>
      </trkpt>
      <trkpt lat="42.205506" lon="-8.762274">
        <ele>26.056</ele>
        <time>2019-04-30T08:43:41Z</time>
      </trkpt>
      <trkpt lat="42.205786" lon="-8.762456">
        <ele>28.984</ele>
        <time>2019-04-30T08:43:55Z</time>
      </trkpt>
      <trkpt lat="42.206100" lon="-8.762634">
        <ele>33.712</ele>
        <time>2019-04-30T08:44:10Z</time>
      </trkpt>
      <trkpt lat="42.206449" lon="-8.762785">
        <ele>36.184</ele>
        <time>2019-04-30T08:44:25Z</time>
      </trkpt>
      <trkpt lat="42.206798" lon="-8.762973">
        <ele>35.734</ele>
        <time>2019-04-30T08:44:40Z</time>
      </trkpt>
      <trkpt lat="42.207259" lon="-8.763175">
        <ele>38.188</ele>
        <time>2019-04-30T08:44:59Z</time>
      </trkpt>
      <trkpt lat="42.207699" lon="-8.763609">
        <ele>39.058</ele>
        <time>2019-04-30T08:45:20Z</time>
      </trkpt>
      <trkpt lat="42.208031" lon="-8.763859">
        <ele>40.952</ele>
        <time>2019-04-30T08:45:35Z</time>
      </trkpt>
      <trkpt lat="42.208325" lon="-8.764009">
        <ele>42.917</ele>
        <time>2019-04-30T08:45:48Z</time>
      </trkpt>
      <trkpt lat="42.208724" lon="-8.764115">
        <ele>47.208</ele>
        <time>2019-04-30T08:46:04Z</time>
      </trkpt>
      <trkpt lat="42.208943" lon="-8.764123">
        <ele>53.438</ele>
        <time>2019-04-30T08:46:16Z</time>
      </trkpt>
      <trkpt lat="42.209020" lon="-8.764098">
        <ele>54.461</ele>
        <time>2019-04-30T08:46:32Z</time>
      </trkpt>
      <trkpt lat="42.209035" lon="-8.764103">
        <ele>54.987</ele>
        <time>2019-04-30T08:46:39Z</time>
      </trkpt>
      <trkpt lat="42.209052" lon="-8.764107">
        <ele>54.995</ele>
        <time>2019-04-30T08:46:40Z</time>
      </trkpt>
      <trkpt lat="42.209072" lon="-8.764102">
        <ele>55.473</ele>
        <time>2019-04-30T08:46:41Z</time>
      </trkpt>
      <trkpt lat="42.209089" lon="-8.764090">
        <ele>55.425</ele>
        <time>2019-04-30T08:46:42Z</time>
      </trkpt>
      <trkpt lat="42.209113" lon="-8.764080">
        <ele>55.425</ele>
        <time>2019-04-30T08:46:43Z</time>
      </trkpt>
      <trkpt lat="42.209151" lon="-8.764042">
        <ele>54.419</ele>
        <time>2019-04-30T08:46:44Z</time>
      </trkpt>
      <trkpt lat="42.209175" lon="-8.764012">
        <ele>53.912</ele>
        <time>2019-04-30T08:46:45Z</time>
      </trkpt>
      <trkpt lat="42.209190" lon="-8.763985">
        <ele>53.932</ele>
        <time>2019-04-30T08:46:46Z</time>
      </trkpt>
      <trkpt lat="42.209199" lon="-8.763951">
        <ele>53.905</ele>
        <time>2019-04-30T08:46:47Z</time>
      </trkpt>
      <trkpt lat="42.209207" lon="-8.763915">
        <ele>53.408</ele>
        <time>2019-04-30T08:46:48Z</time>
      </trkpt>
      <trkpt lat="42.209227" lon="-8.763878">
        <ele>53.054</ele>
        <time>2019-04-30T08:46:49Z</time>
      </trkpt>
      <trkpt lat="42.209249" lon="-8.763839">
        <ele>53.017</ele>
        <time>2019-04-30T08:46:50Z</time>
      </trkpt>
      <trkpt lat="42.209265" lon="-8.763798">
        <ele>53.023</ele>
        <time>2019-04-30T08:46:51Z</time>
      </trkpt>
      <trkpt lat="42.209278" lon="-8.763754">
        <ele>52.521</ele>
        <time>2019-04-30T08:46:52Z</time>
      </trkpt>
      <trkpt lat="42.209295" lon="-8.763712">
        <ele>52.579</ele>
        <time>2019-04-30T08:46:53Z</time>
      </trkpt>
      <trkpt lat="42.209380" lon="-8.763523">
        <ele>51.081</ele>
        <time>2019-04-30T08:46:57Z</time>
      </trkpt>
      <trkpt lat="42.209410" lon="-8.763474">
        <ele>51.081</ele>
        <time>2019-04-30T08:46:58Z</time>
      </trkpt>
      <trkpt lat="42.209444" lon="-8.763427">
        <ele>51.085</ele>
        <time>2019-04-30T08:46:59Z</time>
      </trkpt>
      <trkpt lat="42.210122" lon="-8.762651">
        <ele>49.613</ele>
        <time>2019-04-30T08:47:17Z</time>
      </trkpt>
      <trkpt lat="42.210671" lon="-8.762094">
        <ele>50.143</ele>
        <time>2019-04-30T08:47:31Z</time>
      </trkpt>
      <trkpt lat="42.211250" lon="-8.761462">
        <ele>50.607</ele>
        <time>2019-04-30T08:47:46Z</time>
      </trkpt>
      <trkpt lat="42.211491" lon="-8.761317">
        <ele>51.508</ele>
        <time>2019-04-30T08:47:52Z</time>
      </trkpt>
      <trkpt lat="42.212118" lon="-8.760923">
        <ele>52.064</ele>
        <time>2019-04-30T08:48:07Z</time>
      </trkpt>
      <trkpt lat="42.212959" lon="-8.760742">
        <ele>52.557</ele>
        <time>2019-04-30T08:48:26Z</time>
      </trkpt>
      <trkpt lat="42.213039" lon="-8.760734">
        <ele>53.043</ele>
        <time>2019-04-30T08:48:28Z</time>
      </trkpt>
      <trkpt lat="42.213197" lon="-8.760696">
        <ele>53.961</ele>
        <time>2019-04-30T08:48:32Z</time>
      </trkpt>
      <trkpt lat="42.213237" lon="-8.760689">
        <ele>53.969</ele>
        <time>2019-04-30T08:48:33Z</time>
      </trkpt>
      <trkpt lat="42.213899" lon="-8.760670">
        <ele>53.091</ele>
        <time>2019-04-30T08:48:49Z</time>
      </trkpt>
      <trkpt lat="42.214096" lon="-8.760677">
        <ele>53.451</ele>
        <time>2019-04-30T08:48:54Z</time>
      </trkpt>
      <trkpt lat="42.214139" lon="-8.760682">
        <ele>53.465</ele>
        <time>2019-04-30T08:48:55Z</time>
      </trkpt>
      <trkpt lat="42.214350" lon="-8.760650">
        <ele>53.941</ele>
        <time>2019-04-30T08:49:00Z</time>
      </trkpt>
      <trkpt lat="42.214389" lon="-8.760634">
        <ele>53.981</ele>
        <time>2019-04-30T08:49:01Z</time>
      </trkpt>
      <trkpt lat="42.214428" lon="-8.760616">
        <ele>53.909</ele>
        <time>2019-04-30T08:49:02Z</time>
      </trkpt>
      <trkpt lat="42.215022" lon="-8.760457">
        <ele>57.308</ele>
        <time>2019-04-30T08:49:18Z</time>
      </trkpt>
      <trkpt lat="42.215438" lon="-8.760389">
        <ele>62.127</ele>
        <time>2019-04-30T08:49:31Z</time>
      </trkpt>
      <trkpt lat="42.215648" lon="-8.760395">
        <ele>66.990</ele>
        <time>2019-04-30T08:49:41Z</time>
      </trkpt>
      <trkpt lat="42.215644" lon="-8.760407">
        <ele>68.866</ele>
        <time>2019-04-30T08:50:04Z</time>
      </trkpt>
      <trkpt lat="42.215652" lon="-8.760415">
        <ele>69.384</ele>
        <time>2019-04-30T08:50:22Z</time>
      </trkpt>
      <trkpt lat="42.215618" lon="-8.760383">
        <ele>67.992</ele>
        <time>2019-04-30T08:50:42Z</time>
      </trkpt>
      <trkpt lat="42.215632" lon="-8.760376">
        <ele>67.484</ele>
        <time>2019-04-30T08:51:17Z</time>
      </trkpt>
      <trkpt lat="42.215626" lon="-8.760378">
        <ele>66.914</ele>
        <time>2019-04-30T08:51:48Z</time>
      </trkpt>
      <trkpt lat="42.215626" lon="-8.760394">
        <ele>67.428</ele>
        <time>2019-04-30T08:52:20Z</time>
      </trkpt>
      <trkpt lat="42.215623" lon="-8.760404">
        <ele>67.419</ele>
        <time>2019-04-30T08:52:54Z</time>
      </trkpt>
      <trkpt lat="42.215622" lon="-8.760417">
        <ele>67.409</ele>
        <time>2019-04-30T08:53:29Z</time>
      </trkpt>
      <trkpt lat="42.215627" lon="-8.760420">
        <ele>68.319</ele>
        <time>2019-04-30T08:53:57Z</time>
      </trkpt>
      <trkpt lat="42.215633" lon="-8.760415">
        <ele>68.808</ele>
        <time>2019-04-30T08:54:27Z</time>
      </trkpt>
      <trkpt lat="42.215634" lon="-8.760421">
        <ele>69.894</ele>
        <time>2019-04-30T08:55:05Z</time>
      </trkpt>
      <trkpt lat="42.215635" lon="-8.760425">
        <ele>70.327</ele>
        <time>2019-04-30T08:55:34Z</time>
      </trkpt>
      <trkpt lat="42.215638" lon="-8.760425">
        <ele>70.753</ele>
        <time>2019-04-30T08:56:03Z</time>
      </trkpt>
      <trkpt lat="42.215642" lon="-8.760421">
        <ele>70.771</ele>
        <time>2019-04-30T08:56:27Z</time>
      </trkpt>
      <trkpt lat="42.215643" lon="-8.760421">
        <ele>70.729</ele>
        <time>2019-04-30T08:56:59Z</time>
      </trkpt>
      <trkpt lat="42.215644" lon="-8.760421">
        <ele>71.271</ele>
        <time>2019-04-30T08:57:15Z</time>
      </trkpt>
      <trkpt lat="42.215644" lon="-8.760412">
        <ele>71.731</ele>
        <time>2019-04-30T08:57:45Z</time>
      </trkpt>
      <trkpt lat="42.215776" lon="-8.760431">
        <ele>71.765</ele>
        <time>2019-04-30T08:57:54Z</time>
      </trkpt>
      <trkpt lat="42.215914" lon="-8.760474">
        <ele>70.315</ele>
        <time>2019-04-30T08:57:59Z</time>
      </trkpt>
      <trkpt lat="42.215936" lon="-8.760473">
        <ele>69.865</ele>
        <time>2019-04-30T08:58:00Z</time>
      </trkpt>
      <trkpt lat="42.215963" lon="-8.760478">
        <ele>68.811</ele>
        <time>2019-04-30T08:58:01Z</time>
      </trkpt>
      <trkpt lat="42.216410" lon="-8.760600">
        <ele>65.908</ele>
        <time>2019-04-30T08:58:16Z</time>
      </trkpt>
      <trkpt lat="42.216800" lon="-8.760586">
        <ele>65.994</ele>
        <time>2019-04-30T08:58:29Z</time>
      </trkpt>
      <trkpt lat="42.217322" lon="-8.760647">
        <ele>65.947</ele>
        <time>2019-04-30T08:58:45Z</time>
      </trkpt>
      <trkpt lat="42.217876" lon="-8.760723">
        <ele>63.563</ele>
        <time>2019-04-30T08:58:59Z</time>
      </trkpt>
      <trkpt lat="42.218710" lon="-8.760840">
        <ele>60.781</ele>
        <time>2019-04-30T08:59:13Z</time>
      </trkpt>
      <trkpt lat="42.219533" lon="-8.760746">
        <ele>58.389</ele>
        <time>2019-04-30T08:59:25Z</time>
      </trkpt>
      <trkpt lat="42.219604" lon="-8.760732">
        <ele>58.381</ele>
        <time>2019-04-30T08:59:26Z</time>
      </trkpt>
      <trkpt lat="42.219677" lon="-8.760719">
        <ele>57.851</ele>
        <time>2019-04-30T08:59:27Z</time>
      </trkpt>
      <trkpt lat="42.220514" lon="-8.760758">
        <ele>52.525</ele>
        <time>2019-04-30T08:59:39Z</time>
      </trkpt>
      <trkpt lat="42.221155" lon="-8.760819">
        <ele>44.364</ele>
        <time>2019-04-30T08:59:48Z</time>
      </trkpt>
      <trkpt lat="42.221223" lon="-8.760802">
        <ele>43.406</ele>
        <time>2019-04-30T08:59:49Z</time>
      </trkpt>
      <trkpt lat="42.221291" lon="-8.760774">
        <ele>42.916</ele>
        <time>2019-04-30T08:59:50Z</time>
      </trkpt>
      <trkpt lat="42.221356" lon="-8.760739">
        <ele>41.908</ele>
        <time>2019-04-30T08:59:51Z</time>
      </trkpt>
      <trkpt lat="42.221421" lon="-8.760700">
        <ele>40.989</ele>
        <time>2019-04-30T08:59:52Z</time>
      </trkpt>
      <trkpt lat="42.221718" lon="-8.760509">
        <ele>37.122</ele>
        <time>2019-04-30T08:59:57Z</time>
      </trkpt>
      <trkpt lat="42.221762" lon="-8.760494">
        <ele>36.688</ele>
        <time>2019-04-30T08:59:58Z</time>
      </trkpt>
      <trkpt lat="42.221846" lon="-8.760463">
        <ele>35.226</ele>
        <time>2019-04-30T09:00:03Z</time>
      </trkpt>
      <trkpt lat="42.221857" lon="-8.760442">
        <ele>34.724</ele>
        <time>2019-04-30T09:00:04Z</time>
      </trkpt>
      <trkpt lat="42.221857" lon="-8.760416">
        <ele>34.296</ele>
        <time>2019-04-30T09:00:05Z</time>
      </trkpt>
      <trkpt lat="42.221850" lon="-8.760388">
        <ele>34.276</ele>
        <time>2019-04-30T09:00:06Z</time>
      </trkpt>
      <trkpt lat="42.221840" lon="-8.760360">
        <ele>34.280</ele>
        <time>2019-04-30T09:00:07Z</time>
      </trkpt>
      <trkpt lat="42.221831" lon="-8.760330">
        <ele>34.279</ele>
        <time>2019-04-30T09:00:08Z</time>
      </trkpt>
      <trkpt lat="42.221821" lon="-8.760297">
        <ele>34.205</ele>
        <time>2019-04-30T09:00:09Z</time>
      </trkpt>
      <trkpt lat="42.221811" lon="-8.760262">
        <ele>34.225</ele>
        <time>2019-04-30T09:00:10Z</time>
      </trkpt>
      <trkpt lat="42.221804" lon="-8.760223">
        <ele>34.208</ele>
        <time>2019-04-30T09:00:11Z</time>
      </trkpt>
      <trkpt lat="42.221799" lon="-8.760181">
        <ele>34.720</ele>
        <time>2019-04-30T09:00:12Z</time>
      </trkpt>
      <trkpt lat="42.221754" lon="-8.759979">
        <ele>35.753</ele>
        <time>2019-04-30T09:00:17Z</time>
      </trkpt>
      <trkpt lat="42.221738" lon="-8.759941">
        <ele>35.759</ele>
        <time>2019-04-30T09:00:18Z</time>
      </trkpt>
      <trkpt lat="42.221732" lon="-8.759905">
        <ele>36.147</ele>
        <time>2019-04-30T09:00:19Z</time>
      </trkpt>
      <trkpt lat="42.221741" lon="-8.759843">
        <ele>36.625</ele>
        <time>2019-04-30T09:00:23Z</time>
      </trkpt>
      <trkpt lat="42.221744" lon="-8.759815">
        <ele>36.197</ele>
        <time>2019-04-30T09:00:24Z</time>
      </trkpt>
      <trkpt lat="42.221744" lon="-8.759785">
        <ele>36.137</ele>
        <time>2019-04-30T09:00:25Z</time>
      </trkpt>
      <trkpt lat="42.221740" lon="-8.759670">
        <ele>38.111</ele>
        <time>2019-04-30T09:00:34Z</time>
      </trkpt>
      <trkpt lat="42.221737" lon="-8.759633">
        <ele>39.043</ele>
        <time>2019-04-30T09:00:38Z</time>
      </trkpt>
      <trkpt lat="42.221747" lon="-8.759610">
        <ele>38.564</ele>
        <time>2019-04-30T09:00:39Z</time>
      </trkpt>
      <trkpt lat="42.221729" lon="-8.759525">
        <ele>37.610</ele>
        <time>2019-04-30T09:00:42Z</time>
      </trkpt>
      <trkpt lat="42.221702" lon="-8.758868">
        <ele>40.008</ele>
        <time>2019-04-30T09:00:56Z</time>
      </trkpt>
      <trkpt lat="42.221744" lon="-8.758511">
        <ele>40.067</ele>
        <time>2019-04-30T09:01:03Z</time>
      </trkpt>
      <trkpt lat="42.221975" lon="-8.757862">
        <ele>39.070</ele>
        <time>2019-04-30T09:01:18Z</time>
      </trkpt>
      <trkpt lat="42.222002" lon="-8.757711">
        <ele>39.036</ele>
        <time>2019-04-30T09:01:21Z</time>
      </trkpt>
      <trkpt lat="42.221997" lon="-8.757650">
        <ele>38.524</ele>
        <time>2019-04-30T09:01:22Z</time>
      </trkpt>
      <trkpt lat="42.221977" lon="-8.757590">
        <ele>38.542</ele>
        <time>2019-04-30T09:01:23Z</time>
      </trkpt>
      <trkpt lat="42.221948" lon="-8.757535">
        <ele>38.154</ele>
        <time>2019-04-30T09:01:24Z</time>
      </trkpt>
      <trkpt lat="42.221920" lon="-8.757477">
        <ele>38.134</ele>
        <time>2019-04-30T09:01:25Z</time>
      </trkpt>
      <trkpt lat="42.221904" lon="-8.757415">
        <ele>38.138</ele>
        <time>2019-04-30T09:01:26Z</time>
      </trkpt>
      <trkpt lat="42.221901" lon="-8.757352">
        <ele>38.128</ele>
        <time>2019-04-30T09:01:27Z</time>
      </trkpt>
      <trkpt lat="42.221910" lon="-8.757292">
        <ele>38.189</ele>
        <time>2019-04-30T09:01:28Z</time>
      </trkpt>
      <trkpt lat="42.221925" lon="-8.757235">
        <ele>37.617</ele>
        <time>2019-04-30T09:01:29Z</time>
      </trkpt>
      <trkpt lat="42.221946" lon="-8.757180">
        <ele>37.608</ele>
        <time>2019-04-30T09:01:30Z</time>
      </trkpt>
      <trkpt lat="42.221969" lon="-8.757128">
        <ele>37.695</ele>
        <time>2019-04-30T09:01:31Z</time>
      </trkpt>
      <trkpt lat="42.221994" lon="-8.757079">
        <ele>37.138</ele>
        <time>2019-04-30T09:01:32Z</time>
      </trkpt>
      <trkpt lat="42.222027" lon="-8.757037">
        <ele>37.194</ele>
        <time>2019-04-30T09:01:33Z</time>
      </trkpt>
      <trkpt lat="42.222065" lon="-8.756998">
        <ele>36.652</ele>
        <time>2019-04-30T09:01:34Z</time>
      </trkpt>
      <trkpt lat="42.222109" lon="-8.756968">
        <ele>36.190</ele>
        <time>2019-04-30T09:01:35Z</time>
      </trkpt>
      <trkpt lat="42.222157" lon="-8.756952">
        <ele>36.182</ele>
        <time>2019-04-30T09:01:36Z</time>
      </trkpt>
      <trkpt lat="42.222208" lon="-8.756959">
        <ele>35.712</ele>
        <time>2019-04-30T09:01:37Z</time>
      </trkpt>
      <trkpt lat="42.222256" lon="-8.756989">
        <ele>35.296</ele>
        <time>2019-04-30T09:01:38Z</time>
      </trkpt>
      <trkpt lat="42.222297" lon="-8.757038">
        <ele>35.265</ele>
        <time>2019-04-30T09:01:39Z</time>
      </trkpt>
      <trkpt lat="42.222331" lon="-8.757101">
        <ele>35.268</ele>
        <time>2019-04-30T09:01:40Z</time>
      </trkpt>
      <trkpt lat="42.222355" lon="-8.757166">
        <ele>35.214</ele>
        <time>2019-04-30T09:01:41Z</time>
      </trkpt>
      <trkpt lat="42.222372" lon="-8.757227">
        <ele>35.208</ele>
        <time>2019-04-30T09:01:42Z</time>
      </trkpt>
      <trkpt lat="42.222395" lon="-8.757309">
        <ele>35.269</ele>
        <time>2019-04-30T09:01:44Z</time>
      </trkpt>
      <trkpt lat="42.222403" lon="-8.757325">
        <ele>35.222</ele>
        <time>2019-04-30T09:01:45Z</time>
      </trkpt>
      <trkpt lat="42.222410" lon="-8.757332">
        <ele>36.168</ele>
        <time>2019-04-30T09:01:56Z</time>
      </trkpt>
      <trkpt lat="42.222411" lon="-8.757327">
        <ele>36.656</ele>
        <time>2019-04-30T09:02:21Z</time>
      </trkpt>
      <trkpt lat="42.222503" lon="-8.757517">
        <ele>36.134</ele>
        <time>2019-04-30T09:02:34Z</time>
      </trkpt>
      <trkpt lat="42.222519" lon="-8.757622">
        <ele>35.746</ele>
        <time>2019-04-30T09:02:36Z</time>
      </trkpt>
      <trkpt lat="42.222493" lon="-8.758094">
        <ele>29.476</ele>
        <time>2019-04-30T09:02:43Z</time>
      </trkpt>
      <trkpt lat="42.222506" lon="-8.758153">
        <ele>28.980</ele>
        <time>2019-04-30T09:02:44Z</time>
      </trkpt>
      <trkpt lat="42.222536" lon="-8.758195">
        <ele>28.545</ele>
        <time>2019-04-30T09:02:45Z</time>
      </trkpt>
      <trkpt lat="42.222625" lon="-8.758238">
        <ele>28.047</ele>
        <time>2019-04-30T09:02:47Z</time>
      </trkpt>
      <trkpt lat="42.223047" lon="-8.758417">
        <ele>23.611</ele>
        <time>2019-04-30T09:02:56Z</time>
      </trkpt>
      <trkpt lat="42.223150" lon="-8.758416">
        <ele>21.208</ele>
        <time>2019-04-30T09:03:02Z</time>
      </trkpt>
      <trkpt lat="42.223204" lon="-8.758477">
        <ele>19.337</ele>
        <time>2019-04-30T09:03:07Z</time>
      </trkpt>
      <trkpt lat="42.223185" lon="-8.758664">
        <ele>18.850</ele>
        <time>2019-04-30T09:03:12Z</time>
      </trkpt>
      <trkpt lat="42.223257" lon="-8.758466">
        <ele>14.556</ele>
        <time>2019-04-30T09:03:19Z</time>
      </trkpt>
      <trkpt lat="42.223274" lon="-8.758449">
        <ele>14.084</ele>
        <time>2019-04-30T09:03:21Z</time>
      </trkpt>
      <trkpt lat="42.223266" lon="-8.758512">
        <ele>13.692</ele>
        <time>2019-04-30T09:03:24Z</time>
      </trkpt>
      <trkpt lat="42.223247" lon="-8.758661">
        <ele>11.634</ele>
        <time>2019-04-30T09:03:27Z</time>
      </trkpt>
      <trkpt lat="42.223470" lon="-8.758639">
        <ele>10.284</ele>
        <time>2019-04-30T09:03:34Z</time>
      </trkpt>
      <trkpt lat="42.223600" lon="-8.758375">
        <ele>10.258</ele>
        <time>2019-04-30T09:03:39Z</time>
      </trkpt>
      <trkpt lat="42.223660" lon="-8.758205">
        <ele>9.772</ele>
        <time>2019-04-30T09:03:42Z</time>
      </trkpt>
      <trkpt lat="42.223705" lon="-8.758098">
        <ele>9.713</ele>
        <time>2019-04-30T09:03:44Z</time>
      </trkpt>
      <trkpt lat="42.223747" lon="-8.757603">
        <ele>9.214</ele>
        <time>2019-04-30T09:03:53Z</time>
      </trkpt>
      <trkpt lat="42.223719" lon="-8.757538">
        <ele>8.708</ele>
        <time>2019-04-30T09:03:54Z</time>
      </trkpt>
      <trkpt lat="42.223682" lon="-8.757471">
        <ele>8.780</ele>
        <time>2019-04-30T09:03:55Z</time>
      </trkpt>
      <trkpt lat="42.223653" lon="-8.757330">
        <ele>8.313</ele>
        <time>2019-04-30T09:03:57Z</time>
      </trkpt>
      <trkpt lat="42.223663" lon="-8.757264">
        <ele>8.319</ele>
        <time>2019-04-30T09:03:58Z</time>
      </trkpt>
      <trkpt lat="42.223689" lon="-8.757214">
        <ele>7.857</ele>
        <time>2019-04-30T09:03:59Z</time>
      </trkpt>
      <trkpt lat="42.223724" lon="-8.757178">
        <ele>7.885</ele>
        <time>2019-04-30T09:04:00Z</time>
      </trkpt>
      <trkpt lat="42.223813" lon="-8.757069">
        <ele>7.347</ele>
        <time>2019-04-30T09:04:03Z</time>
      </trkpt>
      <trkpt lat="42.223907" lon="-8.756851">
        <ele>6.357</ele>
        <time>2019-04-30T09:04:08Z</time>
      </trkpt>
      <trkpt lat="42.224217" lon="-8.756318">
        <ele>8.351</ele>
        <time>2019-04-30T09:04:21Z</time>
      </trkpt>
      <trkpt lat="42.224533" lon="-8.755835">
        <ele>9.211</ele>
        <time>2019-04-30T09:04:34Z</time>
      </trkpt>
      <trkpt lat="42.224735" lon="-8.755553">
        <ele>8.721</ele>
        <time>2019-04-30T09:04:42Z</time>
      </trkpt>
      <trkpt lat="42.225125" lon="-8.755064">
        <ele>7.803</ele>
        <time>2019-04-30T09:04:54Z</time>
      </trkpt>
      <trkpt lat="42.225287" lon="-8.754829">
        <ele>8.308</ele>
        <time>2019-04-30T09:05:00Z</time>
      </trkpt>
      <trkpt lat="42.225631" lon="-8.754351">
        <ele>6.844</ele>
        <time>2019-04-30T09:05:13Z</time>
      </trkpt>
      <trkpt lat="42.226190" lon="-8.753971">
        <ele>10.267</ele>
        <time>2019-04-30T09:05:28Z</time>
      </trkpt>
      <trkpt lat="42.226702" lon="-8.753640">
        <ele>10.733</ele>
        <time>2019-04-30T09:05:44Z</time>
      </trkpt>
      <trkpt lat="42.226700" lon="-8.753645">
        <ele>10.231</ele>
        <time>2019-04-30T09:05:58Z</time>
      </trkpt>
      <trkpt lat="42.226695" lon="-8.753648">
        <ele>9.759</ele>
        <time>2019-04-30T09:06:06Z</time>
      </trkpt>
      <trkpt lat="42.226744" lon="-8.753653">
        <ele>9.761</ele>
        <time>2019-04-30T09:06:10Z</time>
      </trkpt>
      <trkpt lat="42.226780" lon="-8.753546">
        <ele>9.741</ele>
        <time>2019-04-30T09:06:18Z</time>
      </trkpt>
      <trkpt lat="42.226720" lon="-8.753457">
        <ele>9.795</ele>
        <time>2019-04-30T09:06:25Z</time>
      </trkpt>
      <trkpt lat="42.226747" lon="-8.753366">
        <ele>9.212</ele>
        <time>2019-04-30T09:06:30Z</time>
      </trkpt>
      <trkpt lat="42.226771" lon="-8.753345">
        <ele>9.732</ele>
        <time>2019-04-30T09:06:32Z</time>
      </trkpt>
      <trkpt lat="42.226751" lon="-8.753246">
        <ele>9.205</ele>
        <time>2019-04-30T09:06:37Z</time>
      </trkpt>
      <trkpt lat="42.226618" lon="-8.753140">
        <ele>9.208</ele>
        <time>2019-04-30T09:06:44Z</time>
      </trkpt>
      <trkpt lat="42.226573" lon="-8.753361">
        <ele>10.264</ele>
        <time>2019-04-30T09:06:51Z</time>
      </trkpt>
      <trkpt lat="42.226516" lon="-8.753642">
        <ele>10.757</ele>
        <time>2019-04-30T09:07:00Z</time>
      </trkpt>
      <trkpt lat="42.226485" lon="-8.753635">
        <ele>12.153</ele>
        <time>2019-04-30T09:07:11Z</time>
      </trkpt>
      <trkpt lat="42.226490" lon="-8.753638">
        <ele>12.671</ele>
        <time>2019-04-30T09:07:22Z</time>
      </trkpt>
      <trkpt lat="42.226562" lon="-8.753607">
        <ele>13.689</ele>
        <time>2019-04-30T09:07:28Z</time>
      </trkpt>
      <trkpt lat="42.226651" lon="-8.753456">
        <ele>13.121</ele>
        <time>2019-04-30T09:07:33Z</time>
      </trkpt>
      <trkpt lat="42.226660" lon="-8.753328">
        <ele>12.641</ele>
        <time>2019-04-30T09:07:41Z</time>
      </trkpt>
      <trkpt lat="42.226680" lon="-8.753316">
        <ele>13.145</ele>
        <time>2019-04-30T09:07:44Z</time>
      </trkpt>
      <trkpt lat="42.226649" lon="-8.753311">
        <ele>12.139</ele>
        <time>2019-04-30T09:07:52Z</time>
      </trkpt>
      <trkpt lat="42.226649" lon="-8.753290">
        <ele>12.101</ele>
        <time>2019-04-30T09:08:04Z</time>
      </trkpt>
      <trkpt lat="42.226649" lon="-8.753309">
        <ele>12.121</ele>
        <time>2019-04-30T09:08:50Z</time>
      </trkpt>
      <trkpt lat="42.226656" lon="-8.753320">
        <ele>11.108</ele>
        <time>2019-04-30T09:09:19Z</time>
      </trkpt>
      <trkpt lat="42.226656" lon="-8.753306">
        <ele>10.726</ele>
        <time>2019-04-30T09:09:32Z</time>
      </trkpt>
      <trkpt lat="42.226659" lon="-8.753297">
        <ele>10.769</ele>
        <time>2019-04-30T09:09:35Z</time>
      </trkpt>
      <trkpt lat="42.226728" lon="-8.753062">
        <ele>10.295</ele>
        <time>2019-04-30T09:09:49Z</time>
      </trkpt>
      <trkpt lat="42.226765" lon="-8.752872">
        <ele>9.223</ele>
        <time>2019-04-30T09:10:01Z</time>
      </trkpt>
      <trkpt lat="42.226647" lon="-8.752738">
        <ele>9.291</ele>
        <time>2019-04-30T09:10:07Z</time>
      </trkpt>
      <trkpt lat="42.226281" lon="-8.752572">
        <ele>8.353</ele>
        <time>2019-04-30T09:10:22Z</time>
      </trkpt>
      <trkpt lat="42.226066" lon="-8.752509">
        <ele>9.753</ele>
        <time>2019-04-30T09:10:31Z</time>
      </trkpt>
      <trkpt lat="42.225776" lon="-8.752373">
        <ele>11.157</ele>
        <time>2019-04-30T09:10:43Z</time>
      </trkpt>
      <trkpt lat="42.225525" lon="-8.752187">
        <ele>9.281</ele>
        <time>2019-04-30T09:10:54Z</time>
      </trkpt>
      <trkpt lat="42.225265" lon="-8.751859">
        <ele>9.761</ele>
        <time>2019-04-30T09:11:06Z</time>
      </trkpt>
      <trkpt lat="42.225173" lon="-8.751659">
        <ele>10.217</ele>
        <time>2019-04-30T09:11:13Z</time>
      </trkpt>
      <trkpt lat="42.225131" lon="-8.751561">
        <ele>9.208</ele>
        <time>2019-04-30T09:11:24Z</time>
      </trkpt>
      <trkpt lat="42.225010" lon="-8.751296">
        <ele>8.711</ele>
        <time>2019-04-30T09:11:34Z</time>
      </trkpt>
      <trkpt lat="42.224877" lon="-8.750888">
        <ele>7.354</ele>
        <time>2019-04-30T09:11:46Z</time>
      </trkpt>
      <trkpt lat="42.224802" lon="-8.750562">
        <ele>5.930</ele>
        <time>2019-04-30T09:11:56Z</time>
      </trkpt>
      <trkpt lat="42.224796" lon="-8.750487">
        <ele>5.488</ele>
        <time>2019-04-30T09:11:59Z</time>
      </trkpt>
      <trkpt lat="42.224820" lon="-8.750363">
        <ele>3.926</ele>
        <time>2019-04-30T09:12:03Z</time>
      </trkpt>
      <trkpt lat="42.224894" lon="-8.749951">
        <ele>3.918</ele>
        <time>2019-04-30T09:12:15Z</time>
      </trkpt>
      <trkpt lat="42.224893" lon="-8.749761">
        <ele>5.938</ele>
        <time>2019-04-30T09:12:25Z</time>
      </trkpt>
      <trkpt lat="42.224885" lon="-8.749680">
        <ele>5.472</ele>
        <time>2019-04-30T09:12:30Z</time>
      </trkpt>
      <trkpt lat="42.224850" lon="-8.749621">
        <ele>4.972</ele>
        <time>2019-04-30T09:12:32Z</time>
      </trkpt>
      <trkpt lat="42.224834" lon="-8.749441">
        <ele>4.413</ele>
        <time>2019-04-30T09:12:36Z</time>
      </trkpt>
      <trkpt lat="42.224846" lon="-8.749331">
        <ele>4.414</ele>
        <time>2019-04-30T09:12:38Z</time>
      </trkpt>
      <trkpt lat="42.224848" lon="-8.749274">
        <ele>4.408</ele>
        <time>2019-04-30T09:12:39Z</time>
      </trkpt>
      <trkpt lat="42.224854" lon="-8.749155">
        <ele>4.940</ele>
        <time>2019-04-30T09:12:41Z</time>
      </trkpt>
      <trkpt lat="42.224863" lon="-8.749098">
        <ele>4.943</ele>
        <time>2019-04-30T09:12:42Z</time>
      </trkpt>
      <trkpt lat="42.224871" lon="-8.749042">
        <ele>4.969</ele>
        <time>2019-04-30T09:12:43Z</time>
      </trkpt>
      <trkpt lat="42.224895" lon="-8.748750">
        <ele>4.947</ele>
        <time>2019-04-30T09:12:48Z</time>
      </trkpt>
      <trkpt lat="42.224902" lon="-8.748632">
        <ele>4.915</ele>
        <time>2019-04-30T09:12:50Z</time>
      </trkpt>
      <trkpt lat="42.224900" lon="-8.748573">
        <ele>4.987</ele>
        <time>2019-04-30T09:12:51Z</time>
      </trkpt>
      <trkpt lat="42.224909" lon="-8.748452">
        <ele>4.997</ele>
        <time>2019-04-30T09:12:53Z</time>
      </trkpt>
      <trkpt lat="42.224917" lon="-8.748389">
        <ele>4.931</ele>
        <time>2019-04-30T09:12:54Z</time>
      </trkpt>
      <trkpt lat="42.224922" lon="-8.748325">
        <ele>5.467</ele>
        <time>2019-04-30T09:12:55Z</time>
      </trkpt>
      <trkpt lat="42.224964" lon="-8.747891">
        <ele>5.481</ele>
        <time>2019-04-30T09:13:02Z</time>
      </trkpt>
      <trkpt lat="42.224969" lon="-8.747830">
        <ele>5.419</ele>
        <time>2019-04-30T09:13:03Z</time>
      </trkpt>
      <trkpt lat="42.224975" lon="-8.747769">
        <ele>5.908</ele>
        <time>2019-04-30T09:13:04Z</time>
      </trkpt>
      <trkpt lat="42.225002" lon="-8.747584">
        <ele>5.969</ele>
        <time>2019-04-30T09:13:07Z</time>
      </trkpt>
      <trkpt lat="42.225005" lon="-8.747523">
        <ele>5.912</ele>
        <time>2019-04-30T09:13:08Z</time>
      </trkpt>
      <trkpt lat="42.225010" lon="-8.747462">
        <ele>6.398</ele>
        <time>2019-04-30T09:13:09Z</time>
      </trkpt>
      <trkpt lat="42.225016" lon="-8.747403">
        <ele>6.396</ele>
        <time>2019-04-30T09:13:10Z</time>
      </trkpt>
      <trkpt lat="42.225021" lon="-8.747345">
        <ele>6.334</ele>
        <time>2019-04-30T09:13:11Z</time>
      </trkpt>
      <trkpt lat="42.225047" lon="-8.747014">
        <ele>6.836</ele>
        <time>2019-04-30T09:13:17Z</time>
      </trkpt>
      <trkpt lat="42.225067" lon="-8.746837">
        <ele>6.866</ele>
        <time>2019-04-30T09:13:20Z</time>
      </trkpt>
      <trkpt lat="42.225079" lon="-8.746780">
        <ele>6.890</ele>
        <time>2019-04-30T09:13:21Z</time>
      </trkpt>
      <trkpt lat="42.225089" lon="-8.746720">
        <ele>7.352</ele>
        <time>2019-04-30T09:13:22Z</time>
      </trkpt>
      <trkpt lat="42.225315" lon="-8.746003">
        <ele>8.353</ele>
        <time>2019-04-30T09:13:34Z</time>
      </trkpt>
      <trkpt lat="42.225684" lon="-8.744937">
        <ele>11.608</ele>
        <time>2019-04-30T09:13:51Z</time>
      </trkpt>
      <trkpt lat="42.225823" lon="-8.744494">
        <ele>12.108</ele>
        <time>2019-04-30T09:13:58Z</time>
      </trkpt>
      <trkpt lat="42.225837" lon="-8.744429">
        <ele>12.188</ele>
        <time>2019-04-30T09:13:59Z</time>
      </trkpt>
      <trkpt lat="42.225860" lon="-8.744231">
        <ele>12.141</ele>
        <time>2019-04-30T09:14:02Z</time>
      </trkpt>
      <trkpt lat="42.225790" lon="-8.743561">
        <ele>13.187</ele>
        <time>2019-04-30T09:14:12Z</time>
      </trkpt>
      <trkpt lat="42.225766" lon="-8.743494">
        <ele>12.615</ele>
        <time>2019-04-30T09:14:13Z</time>
      </trkpt>
      <trkpt lat="42.225212" lon="-8.742436">
        <ele>13.193</ele>
        <time>2019-04-30T09:14:30Z</time>
      </trkpt>
      <trkpt lat="42.225013" lon="-8.742027">
        <ele>13.185</ele>
        <time>2019-04-30T09:14:37Z</time>
      </trkpt>
      <trkpt lat="42.224991" lon="-8.741965">
        <ele>13.155</ele>
        <time>2019-04-30T09:14:38Z</time>
      </trkpt>
      <trkpt lat="42.224975" lon="-8.741902">
        <ele>13.199</ele>
        <time>2019-04-30T09:14:39Z</time>
      </trkpt>
      <trkpt lat="42.224935" lon="-8.741636">
        <ele>14.528</ele>
        <time>2019-04-30T09:14:43Z</time>
      </trkpt>
      <trkpt lat="42.224944" lon="-8.741299">
        <ele>16.089</ele>
        <time>2019-04-30T09:14:48Z</time>
      </trkpt>
      <trkpt lat="42.224970" lon="-8.741173">
        <ele>16.017</ele>
        <time>2019-04-30T09:14:50Z</time>
      </trkpt>
      <trkpt lat="42.225016" lon="-8.741051">
        <ele>16.008</ele>
        <time>2019-04-30T09:14:52Z</time>
      </trkpt>
      <trkpt lat="42.225307" lon="-8.740261">
        <ele>16.025</ele>
        <time>2019-04-30T09:15:05Z</time>
      </trkpt>
      <trkpt lat="42.225415" lon="-8.740026">
        <ele>16.468</ele>
        <time>2019-04-30T09:15:09Z</time>
      </trkpt>
      <trkpt lat="42.225649" lon="-8.739575">
        <ele>16.984</ele>
        <time>2019-04-30T09:15:20Z</time>
      </trkpt>
      <trkpt lat="42.225636" lon="-8.739576">
        <ele>14.562</ele>
        <time>2019-04-30T09:15:39Z</time>
      </trkpt>
      <trkpt lat="42.225754" lon="-8.739376">
        <ele>14.080</ele>
        <time>2019-04-30T09:15:48Z</time>
      </trkpt>
      <trkpt lat="42.226029" lon="-8.738937">
        <ele>13.652</ele>
        <time>2019-04-30T09:15:59Z</time>
      </trkpt>
      <trkpt lat="42.226458" lon="-8.738256">
        <ele>14.062</ele>
        <time>2019-04-30T09:16:14Z</time>
      </trkpt>
      <trkpt lat="42.226636" lon="-8.737953">
        <ele>14.596</ele>
        <time>2019-04-30T09:16:20Z</time>
      </trkpt>
      <trkpt lat="42.226659" lon="-8.737896">
        <ele>14.585</ele>
        <time>2019-04-30T09:16:21Z</time>
      </trkpt>
      <trkpt lat="42.226682" lon="-8.737839">
        <ele>14.089</ele>
        <time>2019-04-30T09:16:22Z</time>
      </trkpt>
      <trkpt lat="42.226706" lon="-8.737778">
        <ele>13.617</ele>
        <time>2019-04-30T09:16:23Z</time>
      </trkpt>
      <trkpt lat="42.226734" lon="-8.737723">
        <ele>13.108</ele>
        <time>2019-04-30T09:16:24Z</time>
      </trkpt>
      <trkpt lat="42.226772" lon="-8.737677">
        <ele>13.171</ele>
        <time>2019-04-30T09:16:25Z</time>
      </trkpt>
      <trkpt lat="42.226818" lon="-8.737644">
        <ele>13.674</ele>
        <time>2019-04-30T09:16:26Z</time>
      </trkpt>
      <trkpt lat="42.226867" lon="-8.737623">
        <ele>13.670</ele>
        <time>2019-04-30T09:16:27Z</time>
      </trkpt>
      <trkpt lat="42.226919" lon="-8.737617">
        <ele>13.178</ele>
        <time>2019-04-30T09:16:28Z</time>
      </trkpt>
      <trkpt lat="42.226969" lon="-8.737627">
        <ele>13.196</ele>
        <time>2019-04-30T09:16:29Z</time>
      </trkpt>
      <trkpt lat="42.227017" lon="-8.737649">
        <ele>13.188</ele>
        <time>2019-04-30T09:16:30Z</time>
      </trkpt>
      <trkpt lat="42.227061" lon="-8.737680">
        <ele>12.618</ele>
        <time>2019-04-30T09:16:31Z</time>
      </trkpt>
      <trkpt lat="42.227101" lon="-8.737722">
        <ele>12.662</ele>
        <time>2019-04-30T09:16:32Z</time>
      </trkpt>
      <trkpt lat="42.227138" lon="-8.737771">
        <ele>12.664</ele>
        <time>2019-04-30T09:16:33Z</time>
      </trkpt>
      <trkpt lat="42.227171" lon="-8.737820">
        <ele>12.606</ele>
        <time>2019-04-30T09:16:34Z</time>
      </trkpt>
      <trkpt lat="42.227205" lon="-8.737867">
        <ele>12.116</ele>
        <time>2019-04-30T09:16:35Z</time>
      </trkpt>
      <trkpt lat="42.227244" lon="-8.737906">
        <ele>12.108</ele>
        <time>2019-04-30T09:16:36Z</time>
      </trkpt>
      <trkpt lat="42.227285" lon="-8.737935">
        <ele>12.149</ele>
        <time>2019-04-30T09:16:37Z</time>
      </trkpt>
      <trkpt lat="42.227329" lon="-8.737953">
        <ele>12.192</ele>
        <time>2019-04-30T09:16:38Z</time>
      </trkpt>
      <trkpt lat="42.227372" lon="-8.737961">
        <ele>12.198</ele>
        <time>2019-04-30T09:16:39Z</time>
      </trkpt>
      <trkpt lat="42.227407" lon="-8.737959">
        <ele>11.656</ele>
        <time>2019-04-30T09:16:40Z</time>
      </trkpt>
      <trkpt lat="42.227437" lon="-8.737950">
        <ele>11.154</ele>
        <time>2019-04-30T09:16:41Z</time>
      </trkpt>
      <trkpt lat="42.227459" lon="-8.737940">
        <ele>11.126</ele>
        <time>2019-04-30T09:16:42Z</time>
      </trkpt>
      <trkpt lat="42.227497" lon="-8.737909">
        <ele>11.646</ele>
        <time>2019-04-30T09:16:50Z</time>
      </trkpt>
      <trkpt lat="42.227513" lon="-8.737905">
        <ele>11.620</ele>
        <time>2019-04-30T09:16:51Z</time>
      </trkpt>
      <trkpt lat="42.227530" lon="-8.737895">
        <ele>11.688</ele>
        <time>2019-04-30T09:16:52Z</time>
      </trkpt>
      <trkpt lat="42.227550" lon="-8.737876">
        <ele>11.624</ele>
        <time>2019-04-30T09:16:53Z</time>
      </trkpt>
      <trkpt lat="42.227573" lon="-8.737849">
        <ele>11.126</ele>
        <time>2019-04-30T09:16:54Z</time>
      </trkpt>
      <trkpt lat="42.227921" lon="-8.737525">
        <ele>11.608</ele>
        <time>2019-04-30T09:17:04Z</time>
      </trkpt>
      <trkpt lat="42.228600" lon="-8.736907">
        <ele>11.671</ele>
        <time>2019-04-30T09:17:19Z</time>
      </trkpt>
      <trkpt lat="42.229128" lon="-8.736482">
        <ele>9.294</ele>
        <time>2019-04-30T09:17:32Z</time>
      </trkpt>
      <trkpt lat="42.229852" lon="-8.735983">
        <ele>8.310</ele>
        <time>2019-04-30T09:17:46Z</time>
      </trkpt>
      <trkpt lat="42.230583" lon="-8.735493">
        <ele>10.258</ele>
        <time>2019-04-30T09:18:00Z</time>
      </trkpt>
      <trkpt lat="42.231351" lon="-8.734964">
        <ele>10.226</ele>
        <time>2019-04-30T09:18:15Z</time>
      </trkpt>
      <trkpt lat="42.232205" lon="-8.734410">
        <ele>12.688</ele>
        <time>2019-04-30T09:18:32Z</time>
      </trkpt>
      <trkpt lat="42.232855" lon="-8.733980">
        <ele>14.578</ele>
        <time>2019-04-30T09:18:45Z</time>
      </trkpt>
      <trkpt lat="42.232907" lon="-8.733947">
        <ele>14.522</ele>
        <time>2019-04-30T09:18:46Z</time>
      </trkpt>
      <trkpt lat="42.233366" lon="-8.733653">
        <ele>15.085</ele>
        <time>2019-04-30T09:18:55Z</time>
      </trkpt>
      <trkpt lat="42.234168" lon="-8.733192">
        <ele>15.089</ele>
        <time>2019-04-30T09:19:12Z</time>
      </trkpt>
      <trkpt lat="42.234393" lon="-8.733036">
        <ele>16.417</ele>
        <time>2019-04-30T09:19:19Z</time>
      </trkpt>
      <trkpt lat="42.234443" lon="-8.733012">
        <ele>16.408</ele>
        <time>2019-04-30T09:19:20Z</time>
      </trkpt>
      <trkpt lat="42.234543" lon="-8.732973">
        <ele>16.411</ele>
        <time>2019-04-30T09:19:22Z</time>
      </trkpt>
      <trkpt lat="42.234673" lon="-8.732890">
        <ele>16.954</ele>
        <time>2019-04-30T09:19:25Z</time>
      </trkpt>
      <trkpt lat="42.234716" lon="-8.732858">
        <ele>16.920</ele>
        <time>2019-04-30T09:19:26Z</time>
      </trkpt>
      <trkpt lat="42.235079" lon="-8.732617">
        <ele>16.438</ele>
        <time>2019-04-30T09:19:34Z</time>
      </trkpt>
      <trkpt lat="42.235124" lon="-8.732577">
        <ele>16.486</ele>
        <time>2019-04-30T09:19:35Z</time>
      </trkpt>
      <trkpt lat="42.235307" lon="-8.732440">
        <ele>16.038</ele>
        <time>2019-04-30T09:19:39Z</time>
      </trkpt>
      <trkpt lat="42.235357" lon="-8.732412">
        <ele>16.048</ele>
        <time>2019-04-30T09:19:40Z</time>
      </trkpt>
      <trkpt lat="42.235502" lon="-8.732326">
        <ele>16.072</ele>
        <time>2019-04-30T09:19:43Z</time>
      </trkpt>
      <trkpt lat="42.236127" lon="-8.731880">
        <ele>12.618</ele>
        <time>2019-04-30T09:19:59Z</time>
      </trkpt>
      <trkpt lat="42.236152" lon="-8.731842">
        <ele>12.198</ele>
        <time>2019-04-30T09:20:01Z</time>
      </trkpt>
      <trkpt lat="42.236159" lon="-8.731813">
        <ele>11.117</ele>
        <time>2019-04-30T09:20:12Z</time>
      </trkpt>
      <trkpt lat="42.236155" lon="-8.731810">
        <ele>11.108</ele>
        <time>2019-04-30T09:20:39Z</time>
      </trkpt>
      <trkpt lat="42.236161" lon="-8.731800">
        <ele>11.124</ele>
        <time>2019-04-30T09:20:41Z</time>
      </trkpt>
      <trkpt lat="42.236171" lon="-8.731788">
        <ele>11.197</ele>
        <time>2019-04-30T09:20:42Z</time>
      </trkpt>
      <trkpt lat="42.236387" lon="-8.731529">
        <ele>11.613</ele>
        <time>2019-04-30T09:20:54Z</time>
      </trkpt>
      <trkpt lat="42.236543" lon="-8.731365">
        <ele>10.731</ele>
        <time>2019-04-30T09:20:59Z</time>
      </trkpt>
      <trkpt lat="42.236574" lon="-8.731319">
        <ele>10.799</ele>
        <time>2019-04-30T09:21:00Z</time>
      </trkpt>
      <trkpt lat="42.236602" lon="-8.731269">
        <ele>10.711</ele>
        <time>2019-04-30T09:21:01Z</time>
      </trkpt>
      <trkpt lat="42.236693" lon="-8.731051">
        <ele>10.791</ele>
        <time>2019-04-30T09:21:05Z</time>
      </trkpt>
      <trkpt lat="42.236713" lon="-8.730995">
        <ele>10.715</ele>
        <time>2019-04-30T09:21:06Z</time>
      </trkpt>
      <trkpt lat="42.236733" lon="-8.730939">
        <ele>10.784</ele>
        <time>2019-04-30T09:21:07Z</time>
      </trkpt>
      <trkpt lat="42.236822" lon="-8.730620">
        <ele>10.707</ele>
        <time>2019-04-30T09:21:12Z</time>
      </trkpt>
      <trkpt lat="42.236864" lon="-8.730492">
        <ele>11.117</ele>
        <time>2019-04-30T09:21:14Z</time>
      </trkpt>
      <trkpt lat="42.236887" lon="-8.730432">
        <ele>11.108</ele>
        <time>2019-04-30T09:21:15Z</time>
      </trkpt>
      <trkpt lat="42.237095" lon="-8.729940">
        <ele>11.681</ele>
        <time>2019-04-30T09:21:25Z</time>
      </trkpt>
      <trkpt lat="42.237127" lon="-8.729892">
        <ele>11.614</ele>
        <time>2019-04-30T09:21:26Z</time>
      </trkpt>
      <trkpt lat="42.237165" lon="-8.729848">
        <ele>11.620</ele>
        <time>2019-04-30T09:21:27Z</time>
      </trkpt>
      <trkpt lat="42.237209" lon="-8.729804">
        <ele>12.128</ele>
        <time>2019-04-30T09:21:28Z</time>
      </trkpt>
      <trkpt lat="42.237258" lon="-8.729765">
        <ele>12.116</ele>
        <time>2019-04-30T09:21:29Z</time>
      </trkpt>
      <trkpt lat="42.238005" lon="-8.729373">
        <ele>12.128</ele>
        <time>2019-04-30T09:21:44Z</time>
      </trkpt>
      <trkpt lat="42.238051" lon="-8.729344">
        <ele>12.678</ele>
        <time>2019-04-30T09:21:45Z</time>
      </trkpt>
      <trkpt lat="42.238142" lon="-8.729271">
        <ele>12.182</ele>
        <time>2019-04-30T09:21:47Z</time>
      </trkpt>
      <trkpt lat="42.238178" lon="-8.729223">
        <ele>12.198</ele>
        <time>2019-04-30T09:21:48Z</time>
      </trkpt>
      <trkpt lat="42.238214" lon="-8.729177">
        <ele>12.115</ele>
        <time>2019-04-30T09:21:49Z</time>
      </trkpt>
      <trkpt lat="42.238258" lon="-8.729149">
        <ele>12.126</ele>
        <time>2019-04-30T09:21:50Z</time>
      </trkpt>
      <trkpt lat="42.238303" lon="-8.729144">
        <ele>12.108</ele>
        <time>2019-04-30T09:21:51Z</time>
      </trkpt>
      <trkpt lat="42.238341" lon="-8.729153">
        <ele>11.652</ele>
        <time>2019-04-30T09:21:52Z</time>
      </trkpt>
      <trkpt lat="42.238378" lon="-8.729174">
        <ele>11.665</ele>
        <time>2019-04-30T09:21:53Z</time>
      </trkpt>
      <trkpt lat="42.238407" lon="-8.729190">
        <ele>11.171</ele>
        <time>2019-04-30T09:21:54Z</time>
      </trkpt>
      <trkpt lat="42.238432" lon="-8.729182">
        <ele>11.199</ele>
        <time>2019-04-30T09:21:55Z</time>
      </trkpt>
      <trkpt lat="42.238442" lon="-8.729157">
        <ele>11.147</ele>
        <time>2019-04-30T09:21:56Z</time>
      </trkpt>
      <trkpt lat="42.238442" lon="-8.729128">
        <ele>11.159</ele>
        <time>2019-04-30T09:22:07Z</time>
      </trkpt>
      <trkpt lat="42.238431" lon="-8.729134">
        <ele>11.139</ele>
        <time>2019-04-30T09:22:11Z</time>
      </trkpt>
      <trkpt lat="42.238422" lon="-8.729157">
        <ele>11.683</ele>
        <time>2019-04-30T09:22:12Z</time>
      </trkpt>
      <trkpt lat="42.238488" lon="-8.729198">
        <ele>11.114</ele>
        <time>2019-04-30T09:22:16Z</time>
      </trkpt>
      <trkpt lat="42.238794" lon="-8.729068">
        <ele>10.754</ele>
        <time>2019-04-30T09:22:23Z</time>
      </trkpt>
      <trkpt lat="42.239000" lon="-8.728889">
        <ele>11.109</ele>
        <time>2019-04-30T09:22:29Z</time>
      </trkpt>
      <trkpt lat="42.239028" lon="-8.728843">
        <ele>11.108</ele>
        <time>2019-04-30T09:22:30Z</time>
      </trkpt>
      <trkpt lat="42.239056" lon="-8.728794">
        <ele>11.184</ele>
        <time>2019-04-30T09:22:31Z</time>
      </trkpt>
      <trkpt lat="42.239407" lon="-8.728141">
        <ele>10.757</ele>
        <time>2019-04-30T09:22:43Z</time>
      </trkpt>
      <trkpt lat="42.239891" lon="-8.727353">
        <ele>11.623</ele>
        <time>2019-04-30T09:22:58Z</time>
      </trkpt>
      <trkpt lat="42.239937" lon="-8.727333">
        <ele>11.681</ele>
        <time>2019-04-30T09:22:59Z</time>
      </trkpt>
      <trkpt lat="42.239985" lon="-8.727346">
        <ele>11.639</ele>
        <time>2019-04-30T09:23:00Z</time>
      </trkpt>
      <trkpt lat="42.240079" lon="-8.727497">
        <ele>11.671</ele>
        <time>2019-04-30T09:23:03Z</time>
      </trkpt>
      <trkpt lat="42.240102" lon="-8.727557">
        <ele>11.631</ele>
        <time>2019-04-30T09:23:04Z</time>
      </trkpt>
      <trkpt lat="42.240141" lon="-8.727674">
        <ele>11.635</ele>
        <time>2019-04-30T09:23:06Z</time>
      </trkpt>
      <trkpt lat="42.240166" lon="-8.727727">
        <ele>11.618</ele>
        <time>2019-04-30T09:23:07Z</time>
      </trkpt>
      <trkpt lat="42.240214" lon="-8.727812">
        <ele>11.698</ele>
        <time>2019-04-30T09:23:09Z</time>
      </trkpt>
      <trkpt lat="42.240363" lon="-8.728378">
        <ele>11.117</ele>
        <time>2019-04-30T09:23:21Z</time>
      </trkpt>
      <trkpt lat="42.240425" lon="-8.728638">
        <ele>11.608</ele>
        <time>2019-04-30T09:23:26Z</time>
      </trkpt>
      <trkpt lat="42.240569" lon="-8.729013">
        <ele>13.664</ele>
        <time>2019-04-30T09:23:39Z</time>
      </trkpt>
      <trkpt lat="42.240573" lon="-8.729012">
        <ele>13.197</ele>
        <time>2019-04-30T09:23:41Z</time>
      </trkpt>
      <trkpt lat="42.240639" lon="-8.729009">
        <ele>12.673</ele>
        <time>2019-04-30T09:23:45Z</time>
      </trkpt>
      <trkpt lat="42.240898" lon="-8.728787">
        <ele>11.111</ele>
        <time>2019-04-30T09:23:57Z</time>
      </trkpt>
      <trkpt lat="42.241132" lon="-8.728393">
        <ele>10.219</ele>
        <time>2019-04-30T09:24:08Z</time>
      </trkpt>
      <trkpt lat="42.241312" lon="-8.728053">
        <ele>10.241</ele>
        <time>2019-04-30T09:24:18Z</time>
      </trkpt>
      <trkpt lat="42.241083" lon="-8.727631">
        <ele>10.251</ele>
        <time>2019-04-30T09:24:29Z</time>
      </trkpt>
      <trkpt lat="42.240766" lon="-8.727001">
        <ele>11.185</ele>
        <time>2019-04-30T09:24:44Z</time>
      </trkpt>
      <trkpt lat="42.240691" lon="-8.726346">
        <ele>11.631</ele>
        <time>2019-04-30T09:24:57Z</time>
      </trkpt>
      <trkpt lat="42.240875" lon="-8.725819">
        <ele>11.161</ele>
        <time>2019-04-30T09:25:08Z</time>
      </trkpt>
      <trkpt lat="42.240887" lon="-8.725550">
        <ele>12.107</ele>
        <time>2019-04-30T09:25:13Z</time>
      </trkpt>
      <trkpt lat="42.240922" lon="-8.724682">
        <ele>11.608</ele>
        <time>2019-04-30T09:25:29Z</time>
      </trkpt>
      <trkpt lat="42.240939" lon="-8.724355">
        <ele>11.696</ele>
        <time>2019-04-30T09:25:35Z</time>
      </trkpt>
      <trkpt lat="42.240963" lon="-8.723910">
        <ele>11.149</ele>
        <time>2019-04-30T09:25:43Z</time>
      </trkpt>
      <trkpt lat="42.240967" lon="-8.723856">
        <ele>11.615</ele>
        <time>2019-04-30T09:25:44Z</time>
      </trkpt>
      <trkpt lat="42.241017" lon="-8.722895">
        <ele>9.763</ele>
        <time>2019-04-30T09:26:02Z</time>
      </trkpt>
      <trkpt lat="42.241079" lon="-8.722026">
        <ele>10.211</ele>
        <time>2019-04-30T09:26:19Z</time>
      </trkpt>
      <trkpt lat="42.241106" lon="-8.721289">
        <ele>10.723</ele>
        <time>2019-04-30T09:26:35Z</time>
      </trkpt>
      <trkpt lat="42.241095" lon="-8.721241">
        <ele>10.293</ele>
        <time>2019-04-30T09:26:36Z</time>
      </trkpt>
      <trkpt lat="42.241091" lon="-8.721192">
        <ele>10.277</ele>
        <time>2019-04-30T09:26:37Z</time>
      </trkpt>
      <trkpt lat="42.241094" lon="-8.721140">
        <ele>10.235</ele>
        <time>2019-04-30T09:26:38Z</time>
      </trkpt>
      <trkpt lat="42.241100" lon="-8.721088">
        <ele>10.286</ele>
        <time>2019-04-30T09:26:39Z</time>
      </trkpt>
      <trkpt lat="42.241105" lon="-8.721039">
        <ele>10.214</ele>
        <time>2019-04-30T09:26:40Z</time>
      </trkpt>
      <trkpt lat="42.241100" lon="-8.720807">
        <ele>10.708</ele>
        <time>2019-04-30T09:26:45Z</time>
      </trkpt>
      <trkpt lat="42.241072" lon="-8.720777">
        <ele>10.716</ele>
        <time>2019-04-30T09:26:46Z</time>
      </trkpt>
      <trkpt lat="42.241039" lon="-8.720752">
        <ele>10.779</ele>
        <time>2019-04-30T09:26:47Z</time>
      </trkpt>
      <trkpt lat="42.241004" lon="-8.720736">
        <ele>10.745</ele>
        <time>2019-04-30T09:26:48Z</time>
      </trkpt>
      <trkpt lat="42.240967" lon="-8.720729">
        <ele>10.733</ele>
        <time>2019-04-30T09:26:49Z</time>
      </trkpt>
      <trkpt lat="42.240932" lon="-8.720730">
        <ele>10.751</ele>
        <time>2019-04-30T09:26:50Z</time>
      </trkpt>
      <trkpt lat="42.240900" lon="-8.720729">
        <ele>10.783</ele>
        <time>2019-04-30T09:26:51Z</time>
      </trkpt>
      <trkpt lat="42.240869" lon="-8.720739">
        <ele>10.743</ele>
        <time>2019-04-30T09:26:52Z</time>
      </trkpt>
      <trkpt lat="42.240843" lon="-8.720761">
        <ele>10.717</ele>
        <time>2019-04-30T09:26:53Z</time>
      </trkpt>
      <trkpt lat="42.240822" lon="-8.720784">
        <ele>10.279</ele>
        <time>2019-04-30T09:26:54Z</time>
      </trkpt>
      <trkpt lat="42.240799" lon="-8.720794">
        <ele>10.205</ele>
        <time>2019-04-30T09:26:55Z</time>
      </trkpt>
      <trkpt lat="42.240775" lon="-8.720793">
        <ele>10.725</ele>
        <time>2019-04-30T09:26:56Z</time>
      </trkpt>
      <trkpt lat="42.240753" lon="-8.720787">
        <ele>10.708</ele>
        <time>2019-04-30T09:26:57Z</time>
      </trkpt>
      <trkpt lat="42.240733" lon="-8.720785">
        <ele>10.790</ele>
        <time>2019-04-30T09:26:58Z</time>
      </trkpt>
      <trkpt lat="42.240718" lon="-8.720781">
        <ele>10.793</ele>
        <time>2019-04-30T09:26:59Z</time>
      </trkpt>
      <trkpt lat="42.240705" lon="-8.720777">
        <ele>10.749</ele>
        <time>2019-04-30T09:27:00Z</time>
      </trkpt>
      <trkpt lat="42.240642" lon="-8.720773">
        <ele>10.247</ele>
        <time>2019-04-30T09:27:13Z</time>
      </trkpt>
      <trkpt lat="42.240630" lon="-8.720768">
        <ele>10.775</ele>
        <time>2019-04-30T09:27:14Z</time>
      </trkpt>
      <trkpt lat="42.240558" lon="-8.720741">
        <ele>9.267</ele>
        <time>2019-04-30T09:27:24Z</time>
      </trkpt>
      <trkpt lat="42.240546" lon="-8.720741">
        <ele>10.237</ele>
        <time>2019-04-30T09:27:36Z</time>
      </trkpt>
      <trkpt lat="42.240550" lon="-8.720707">
        <ele>11.131</ele>
        <time>2019-04-30T09:27:59Z</time>
      </trkpt>
      <trkpt lat="42.240561" lon="-8.720722">
        <ele>12.128</ele>
        <time>2019-04-30T09:28:11Z</time>
      </trkpt>
      <trkpt lat="42.240571" lon="-8.720726">
        <ele>12.689</ele>
        <time>2019-04-30T09:28:12Z</time>
      </trkpt>
      <trkpt lat="42.240584" lon="-8.720730">
        <ele>12.617</ele>
        <time>2019-04-30T09:28:13Z</time>
      </trkpt>
      <trkpt lat="42.240613" lon="-8.720755">
        <ele>14.508</ele>
        <time>2019-04-30T09:28:23Z</time>
      </trkpt>
      <trkpt lat="42.240624" lon="-8.720781">
        <ele>14.065</ele>
        <time>2019-04-30T09:28:56Z</time>
      </trkpt>
      <trkpt lat="42.240620" lon="-8.720769">
        <ele>15.068</ele>
        <time>2019-04-30T09:29:29Z</time>
      </trkpt>
      <trkpt lat="42.240604" lon="-8.720754">
        <ele>15.564</ele>
        <time>2019-04-30T09:30:04Z</time>
      </trkpt>
      <trkpt lat="42.240599" lon="-8.720770">
        <ele>14.592</ele>
        <time>2019-04-30T09:30:16Z</time>
      </trkpt>
      <trkpt lat="42.240612" lon="-8.720809">
        <ele>12.670</ele>
        <time>2019-04-30T09:30:49Z</time>
      </trkpt>
      <trkpt lat="42.240615" lon="-8.720812">
        <ele>11.622</ele>
        <time>2019-04-30T09:31:26Z</time>
      </trkpt>
      <trkpt lat="42.240598" lon="-8.720826">
        <ele>10.742</ele>
        <time>2019-04-30T09:32:02Z</time>
      </trkpt>
      <trkpt lat="42.240589" lon="-8.720853">
        <ele>13.186</ele>
        <time>2019-04-30T09:32:39Z</time>
      </trkpt>
      <trkpt lat="42.240575" lon="-8.720834">
        <ele>15.047</ele>
        <time>2019-04-30T09:33:16Z</time>
      </trkpt>
      <trkpt lat="42.240573" lon="-8.720852">
        <ele>15.529</ele>
        <time>2019-04-30T09:33:51Z</time>
      </trkpt>
      <trkpt lat="42.240573" lon="-8.720854">
        <ele>14.521</ele>
        <time>2019-04-30T09:34:20Z</time>
      </trkpt>
      <trkpt lat="42.240574" lon="-8.720853">
        <ele>14.008</ele>
        <time>2019-04-30T09:34:48Z</time>
      </trkpt>
      <trkpt lat="42.240594" lon="-8.720854">
        <ele>14.087</ele>
        <time>2019-04-30T09:35:13Z</time>
      </trkpt>
      <trkpt lat="42.240611" lon="-8.720831">
        <ele>16.470</ele>
        <time>2019-04-30T09:35:41Z</time>
      </trkpt>
      <trkpt lat="42.240601" lon="-8.720816">
        <ele>17.986</ele>
        <time>2019-04-30T09:36:10Z</time>
      </trkpt>
      <trkpt lat="42.240614" lon="-8.720827">
        <ele>16.964</ele>
        <time>2019-04-30T09:36:38Z</time>
      </trkpt>
      <trkpt lat="42.240612" lon="-8.720838">
        <ele>15.072</ele>
        <time>2019-04-30T09:37:06Z</time>
      </trkpt>
      <trkpt lat="42.240611" lon="-8.720845">
        <ele>13.134</ele>
        <time>2019-04-30T09:37:37Z</time>
      </trkpt>
      <trkpt lat="42.240616" lon="-8.720843">
        <ele>14.594</ele>
        <time>2019-04-30T09:38:07Z</time>
      </trkpt>
      <trkpt lat="42.240622" lon="-8.720809">
        <ele>16.478</ele>
        <time>2019-04-30T09:38:40Z</time>
      </trkpt>
      <trkpt lat="42.240615" lon="-8.720800">
        <ele>16.994</ele>
        <time>2019-04-30T09:39:05Z</time>
      </trkpt>
      <trkpt lat="42.240614" lon="-8.720808">
        <ele>15.557</ele>
        <time>2019-04-30T09:39:35Z</time>
      </trkpt>
      <trkpt lat="42.240621" lon="-8.720809">
        <ele>13.122</ele>
        <time>2019-04-30T09:40:09Z</time>
      </trkpt>
      <trkpt lat="42.240621" lon="-8.720775">
        <ele>13.108</ele>
        <time>2019-04-30T09:40:37Z</time>
      </trkpt>
      <trkpt lat="42.240638" lon="-8.720759">
        <ele>14.572</ele>
        <time>2019-04-30T09:41:09Z</time>
      </trkpt>
      <trkpt lat="42.240666" lon="-8.720770">
        <ele>16.475</ele>
        <time>2019-04-30T09:41:38Z</time>
      </trkpt>
      <trkpt lat="42.240664" lon="-8.720796">
        <ele>17.441</ele>
        <time>2019-04-30T09:42:05Z</time>
      </trkpt>
      <trkpt lat="42.240670" lon="-8.720839">
        <ele>18.839</ele>
        <time>2019-04-30T09:42:33Z</time>
      </trkpt>
      <trkpt lat="42.240677" lon="-8.720861">
        <ele>20.327</ele>
        <time>2019-04-30T09:42:59Z</time>
      </trkpt>
      <trkpt lat="42.240671" lon="-8.720848">
        <ele>21.769</ele>
        <time>2019-04-30T09:43:28Z</time>
      </trkpt>
      <trkpt lat="42.240677" lon="-8.720818">
        <ele>22.779</ele>
        <time>2019-04-30T09:43:58Z</time>
      </trkpt>
      <trkpt lat="42.240678" lon="-8.720818">
        <ele>22.213</ele>
        <time>2019-04-30T09:44:25Z</time>
      </trkpt>
      <trkpt lat="42.240667" lon="-8.720825">
        <ele>21.247</ele>
        <time>2019-04-30T09:44:54Z</time>
      </trkpt>
      <trkpt lat="42.240660" lon="-8.720826">
        <ele>21.729</ele>
        <time>2019-04-30T09:45:20Z</time>
      </trkpt>
      <trkpt lat="42.240655" lon="-8.720832">
        <ele>21.721</ele>
        <time>2019-04-30T09:45:46Z</time>
      </trkpt>
      <trkpt lat="42.240661" lon="-8.720836">
        <ele>20.308</ele>
        <time>2019-04-30T09:46:16Z</time>
      </trkpt>
      <trkpt lat="42.240668" lon="-8.720838">
        <ele>19.357</ele>
        <time>2019-04-30T09:46:47Z</time>
      </trkpt>
      <trkpt lat="42.240663" lon="-8.720840">
        <ele>19.340</ele>
        <time>2019-04-30T09:47:16Z</time>
      </trkpt>
      <trkpt lat="42.240639" lon="-8.720826">
        <ele>21.286</ele>
        <time>2019-04-30T09:47:40Z</time>
      </trkpt>
      <trkpt lat="42.240621" lon="-8.720841">
        <ele>19.364</ele>
        <time>2019-04-30T09:48:05Z</time>
      </trkpt>
      <trkpt lat="42.240626" lon="-8.720830">
        <ele>15.512</ele>
        <time>2019-04-30T09:48:36Z</time>
      </trkpt>
      <trkpt lat="42.240621" lon="-8.720830">
        <ele>13.674</ele>
        <time>2019-04-30T09:49:02Z</time>
      </trkpt>
      <trkpt lat="42.240611" lon="-8.720818">
        <ele>15.054</ele>
        <time>2019-04-30T09:49:29Z</time>
      </trkpt>
      <trkpt lat="42.240623" lon="-8.720835">
        <ele>16.988</ele>
        <time>2019-04-30T09:50:01Z</time>
      </trkpt>
      <trkpt lat="42.240608" lon="-8.720834">
        <ele>16.427</ele>
        <time>2019-04-30T09:50:31Z</time>
      </trkpt>
      <trkpt lat="42.240598" lon="-8.720825">
        <ele>15.568</ele>
        <time>2019-04-30T09:50:54Z</time>
      </trkpt>
      <trkpt lat="42.240595" lon="-8.720816">
        <ele>14.014</ele>
        <time>2019-04-30T09:51:22Z</time>
      </trkpt>
      <trkpt lat="42.240606" lon="-8.720807">
        <ele>12.608</ele>
        <time>2019-04-30T09:51:52Z</time>
      </trkpt>
      <trkpt lat="42.240614" lon="-8.720786">
        <ele>12.135</ele>
        <time>2019-04-30T09:52:24Z</time>
      </trkpt>
      <trkpt lat="42.240620" lon="-8.720745">
        <ele>12.648</ele>
        <time>2019-04-30T09:53:00Z</time>
      </trkpt>
      <trkpt lat="42.240628" lon="-8.720732">
        <ele>13.194</ele>
        <time>2019-04-30T09:53:32Z</time>
      </trkpt>
      <trkpt lat="42.240638" lon="-8.720684">
        <ele>13.142</ele>
        <time>2019-04-30T09:54:04Z</time>
      </trkpt>
      <trkpt lat="42.240652" lon="-8.720645">
        <ele>12.610</ele>
        <time>2019-04-30T09:54:39Z</time>
      </trkpt>
      <trkpt lat="42.240672" lon="-8.720646">
        <ele>11.612</ele>
        <time>2019-04-30T09:55:13Z</time>
      </trkpt>
      <trkpt lat="42.240695" lon="-8.720643">
        <ele>10.742</ele>
        <time>2019-04-30T09:55:46Z</time>
      </trkpt>
      <trkpt lat="42.240699" lon="-8.720639">
        <ele>12.656</ele>
        <time>2019-04-30T09:56:21Z</time>
      </trkpt>
      <trkpt lat="42.240712" lon="-8.720667">
        <ele>12.161</ele>
        <time>2019-04-30T09:56:51Z</time>
      </trkpt>
      <trkpt lat="42.240703" lon="-8.720680">
        <ele>13.621</ele>
        <time>2019-04-30T09:57:13Z</time>
      </trkpt>
      <trkpt lat="42.240689" lon="-8.720685">
        <ele>15.013</ele>
        <time>2019-04-30T09:57:39Z</time>
      </trkpt>
      <trkpt lat="42.240677" lon="-8.720687">
        <ele>15.008</ele>
        <time>2019-04-30T09:57:55Z</time>
      </trkpt>
      <trkpt lat="42.240662" lon="-8.720690">
        <ele>14.049</ele>
        <time>2019-04-30T09:58:11Z</time>
      </trkpt>
      <trkpt lat="42.240632" lon="-8.720707">
        <ele>12.612</ele>
        <time>2019-04-30T09:58:36Z</time>
      </trkpt>
      <trkpt lat="42.240636" lon="-8.720686">
        <ele>12.198</ele>
        <time>2019-04-30T09:58:42Z</time>
      </trkpt>
      <trkpt lat="42.240642" lon="-8.720674">
        <ele>12.176</ele>
        <time>2019-04-30T09:58:43Z</time>
      </trkpt>
      <trkpt lat="42.240652" lon="-8.720658">
        <ele>12.174</ele>
        <time>2019-04-30T09:58:44Z</time>
      </trkpt>
      <trkpt lat="42.240668" lon="-8.720638">
        <ele>12.116</ele>
        <time>2019-04-30T09:58:45Z</time>
      </trkpt>
      <trkpt lat="42.240688" lon="-8.720630">
        <ele>11.646</ele>
        <time>2019-04-30T09:58:46Z</time>
      </trkpt>
      <trkpt lat="42.240710" lon="-8.720622">
        <ele>11.620</ele>
        <time>2019-04-30T09:58:47Z</time>
      </trkpt>
      <trkpt lat="42.240742" lon="-8.720606">
        <ele>11.177</ele>
        <time>2019-04-30T09:58:48Z</time>
      </trkpt>
      <trkpt lat="42.240772" lon="-8.720593">
        <ele>11.161</ele>
        <time>2019-04-30T09:58:49Z</time>
      </trkpt>
      <trkpt lat="42.240797" lon="-8.720587">
        <ele>10.727</ele>
        <time>2019-04-30T09:58:50Z</time>
      </trkpt>
      <trkpt lat="42.240823" lon="-8.720591">
        <ele>10.708</ele>
        <time>2019-04-30T09:58:51Z</time>
      </trkpt>
      <trkpt lat="42.240850" lon="-8.720601">
        <ele>10.270</ele>
        <time>2019-04-30T09:58:52Z</time>
      </trkpt>
      <trkpt lat="42.240876" lon="-8.720615">
        <ele>10.223</ele>
        <time>2019-04-30T09:58:53Z</time>
      </trkpt>
      <trkpt lat="42.240904" lon="-8.720630">
        <ele>9.789</ele>
        <time>2019-04-30T09:58:54Z</time>
      </trkpt>
      <trkpt lat="42.240932" lon="-8.720643">
        <ele>9.767</ele>
        <time>2019-04-30T09:58:55Z</time>
      </trkpt>
      <trkpt lat="42.240964" lon="-8.720656">
        <ele>9.715</ele>
        <time>2019-04-30T09:58:56Z</time>
      </trkpt>
      <trkpt lat="42.240994" lon="-8.720658">
        <ele>9.747</ele>
        <time>2019-04-30T09:58:57Z</time>
      </trkpt>
      <trkpt lat="42.241023" lon="-8.720657">
        <ele>9.767</ele>
        <time>2019-04-30T09:58:58Z</time>
      </trkpt>
      <trkpt lat="42.241241" lon="-8.720685">
        <ele>11.671</ele>
        <time>2019-04-30T09:59:07Z</time>
      </trkpt>
      <trkpt lat="42.241308" lon="-8.720726">
        <ele>11.191</ele>
        <time>2019-04-30T09:59:18Z</time>
      </trkpt>
      <trkpt lat="42.241308" lon="-8.720715">
        <ele>12.681</ele>
        <time>2019-04-30T09:59:32Z</time>
      </trkpt>
      <trkpt lat="42.241333" lon="-8.720695">
        <ele>12.619</ele>
        <time>2019-04-30T09:59:35Z</time>
      </trkpt>
      <trkpt lat="42.241339" lon="-8.720683">
        <ele>12.608</ele>
        <time>2019-04-30T09:59:36Z</time>
      </trkpt>
      <trkpt lat="42.241316" lon="-8.720601">
        <ele>12.162</ele>
        <time>2019-04-30T09:59:40Z</time>
      </trkpt>
      <trkpt lat="42.241184" lon="-8.720212">
        <ele>11.685</ele>
        <time>2019-04-30T09:59:53Z</time>
      </trkpt>
      <trkpt lat="42.241150" lon="-8.720095">
        <ele>11.111</ele>
        <time>2019-04-30T09:59:57Z</time>
      </trkpt>
      <trkpt lat="42.241065" lon="-8.719542">
        <ele>12.119</ele>
        <time>2019-04-30T10:00:11Z</time>
      </trkpt>
      <trkpt lat="42.240900" lon="-8.718996">
        <ele>10.737</ele>
        <time>2019-04-30T10:00:23Z</time>
      </trkpt>
      <trkpt lat="42.240690" lon="-8.718428">
        <ele>8.729</ele>
        <time>2019-04-30T10:00:37Z</time>
      </trkpt>
      <trkpt lat="42.240679" lon="-8.718398">
        <ele>8.749</ele>
        <time>2019-04-30T10:00:38Z</time>
      </trkpt>
      <trkpt lat="42.240724" lon="-8.718374">
        <ele>8.353</ele>
        <time>2019-04-30T10:00:42Z</time>
      </trkpt>
      <trkpt lat="42.240699" lon="-8.718473">
        <ele>8.794</ele>
        <time>2019-04-30T10:00:51Z</time>
      </trkpt>
      <trkpt lat="42.240672" lon="-8.718492">
        <ele>8.757</ele>
        <time>2019-04-30T10:00:59Z</time>
      </trkpt>
      <trkpt lat="42.240674" lon="-8.718476">
        <ele>9.222</ele>
        <time>2019-04-30T10:01:01Z</time>
      </trkpt>
      <trkpt lat="42.240691" lon="-8.718477">
        <ele>9.708</ele>
        <time>2019-04-30T10:01:03Z</time>
      </trkpt>
      <trkpt lat="42.240736" lon="-8.718630">
        <ele>9.742</ele>
        <time>2019-04-30T10:01:08Z</time>
      </trkpt>
      <trkpt lat="42.240875" lon="-8.719053">
        <ele>11.175</ele>
        <time>2019-04-30T10:01:20Z</time>
      </trkpt>
      <trkpt lat="42.240931" lon="-8.719251">
        <ele>11.191</ele>
        <time>2019-04-30T10:01:26Z</time>
      </trkpt>
      <trkpt lat="42.240806" lon="-8.719274">
        <ele>11.169</ele>
        <time>2019-04-30T10:01:31Z</time>
      </trkpt>
      <trkpt lat="42.240397" lon="-8.719146">
        <ele>12.127</ele>
        <time>2019-04-30T10:01:45Z</time>
      </trkpt>
      <trkpt lat="42.240163" lon="-8.719111">
        <ele>13.619</ele>
        <time>2019-04-30T10:01:53Z</time>
      </trkpt>
      <trkpt lat="42.240098" lon="-8.719176">
        <ele>13.699</ele>
        <time>2019-04-30T10:01:57Z</time>
      </trkpt>
      <trkpt lat="42.240087" lon="-8.719281">
        <ele>13.693</ele>
        <time>2019-04-30T10:02:00Z</time>
      </trkpt>
      <trkpt lat="42.239983" lon="-8.719302">
        <ele>14.014</ele>
        <time>2019-04-30T10:02:05Z</time>
      </trkpt>
      <trkpt lat="42.239777" lon="-8.719283">
        <ele>14.054</ele>
        <time>2019-04-30T10:02:13Z</time>
      </trkpt>
      <trkpt lat="42.239748" lon="-8.719230">
        <ele>13.609</ele>
        <time>2019-04-30T10:02:25Z</time>
      </trkpt>
      <trkpt lat="42.239747" lon="-8.719209">
        <ele>13.608</ele>
        <time>2019-04-30T10:02:29Z</time>
      </trkpt>
      <trkpt lat="42.239754" lon="-8.719046">
        <ele>12.694</ele>
        <time>2019-04-30T10:02:36Z</time>
      </trkpt>
      <trkpt lat="42.239766" lon="-8.718727">
        <ele>9.717</ele>
        <time>2019-04-30T10:02:47Z</time>
      </trkpt>
      <trkpt lat="42.239707" lon="-8.718525">
        <ele>9.263</ele>
        <time>2019-04-30T10:02:53Z</time>
      </trkpt>
      <trkpt lat="42.239737" lon="-8.718187">
        <ele>10.261</ele>
        <time>2019-04-30T10:03:04Z</time>
      </trkpt>
      <trkpt lat="42.239643" lon="-8.718119">
        <ele>10.799</ele>
        <time>2019-04-30T10:03:09Z</time>
      </trkpt>
      <trkpt lat="42.239502" lon="-8.718127">
        <ele>12.651</ele>
        <time>2019-04-30T10:03:17Z</time>
      </trkpt>
      <trkpt lat="42.239491" lon="-8.718367">
        <ele>13.191</ele>
        <time>2019-04-30T10:03:25Z</time>
      </trkpt>
      <trkpt lat="42.239433" lon="-8.718374">
        <ele>12.655</ele>
        <time>2019-04-30T10:03:34Z</time>
      </trkpt>
      <trkpt lat="42.239412" lon="-8.718360">
        <ele>12.693</ele>
        <time>2019-04-30T10:03:35Z</time>
      </trkpt>
      <trkpt lat="42.239376" lon="-8.718099">
        <ele>12.665</ele>
        <time>2019-04-30T10:03:41Z</time>
      </trkpt>
      <trkpt lat="42.239370" lon="-8.718042">
        <ele>12.121</ele>
        <time>2019-04-30T10:03:42Z</time>
      </trkpt>
      <trkpt lat="42.239366" lon="-8.717983">
        <ele>12.108</ele>
        <time>2019-04-30T10:03:43Z</time>
      </trkpt>
      <trkpt lat="42.239356" lon="-8.717922">
        <ele>12.182</ele>
        <time>2019-04-30T10:03:44Z</time>
      </trkpt>
      <trkpt lat="42.239342" lon="-8.717866">
        <ele>11.685</ele>
        <time>2019-04-30T10:03:45Z</time>
      </trkpt>
      <trkpt lat="42.239323" lon="-8.717814">
        <ele>11.651</ele>
        <time>2019-04-30T10:03:46Z</time>
      </trkpt>
      <trkpt lat="42.239263" lon="-8.717644">
        <ele>11.699</ele>
        <time>2019-04-30T10:03:49Z</time>
      </trkpt>
      <trkpt lat="42.239169" lon="-8.717253">
        <ele>11.177</ele>
        <time>2019-04-30T10:03:55Z</time>
      </trkpt>
      <trkpt lat="42.239010" lon="-8.716447">
        <ele>8.339</ele>
        <time>2019-04-30T10:04:08Z</time>
      </trkpt>
      <trkpt lat="42.238993" lon="-8.716371">
        <ele>8.369</ele>
        <time>2019-04-30T10:04:11Z</time>
      </trkpt>
      <trkpt lat="42.238997" lon="-8.716339">
        <ele>10.263</ele>
        <time>2019-04-30T10:04:23Z</time>
      </trkpt>
      <trkpt lat="42.239014" lon="-8.716330">
        <ele>11.191</ele>
        <time>2019-04-30T10:04:31Z</time>
      </trkpt>
      <trkpt lat="42.239014" lon="-8.716310">
        <ele>11.181</ele>
        <time>2019-04-30T10:04:32Z</time>
      </trkpt>
      <trkpt lat="42.239015" lon="-8.716284">
        <ele>11.119</ele>
        <time>2019-04-30T10:04:33Z</time>
      </trkpt>
      <trkpt lat="42.239013" lon="-8.716249">
        <ele>11.608</ele>
        <time>2019-04-30T10:04:34Z</time>
      </trkpt>
      <trkpt lat="42.239009" lon="-8.716207">
        <ele>11.682</ele>
        <time>2019-04-30T10:04:35Z</time>
      </trkpt>
      <trkpt lat="42.238997" lon="-8.716152">
        <ele>12.125</ele>
        <time>2019-04-30T10:04:36Z</time>
      </trkpt>
      <trkpt lat="42.238833" lon="-8.715044">
        <ele>13.121</ele>
        <time>2019-04-30T10:04:51Z</time>
      </trkpt>
      <trkpt lat="42.238812" lon="-8.714896">
        <ele>13.679</ele>
        <time>2019-04-30T10:04:53Z</time>
      </trkpt>
      <trkpt lat="42.238801" lon="-8.714822">
        <ele>13.657</ele>
        <time>2019-04-30T10:04:54Z</time>
      </trkpt>
      <trkpt lat="42.238765" lon="-8.713961">
        <ele>13.159</ele>
        <time>2019-04-30T10:05:06Z</time>
      </trkpt>
      <trkpt lat="42.238764" lon="-8.713688">
        <ele>13.139</ele>
        <time>2019-04-30T10:05:10Z</time>
      </trkpt>
      <trkpt lat="42.238758" lon="-8.713214">
        <ele>12.643</ele>
        <time>2019-04-30T10:05:17Z</time>
      </trkpt>
      <trkpt lat="42.238726" lon="-8.712259">
        <ele>10.788</ele>
        <time>2019-04-30T10:05:32Z</time>
      </trkpt>
      <trkpt lat="42.238783" lon="-8.711902">
        <ele>13.124</ele>
        <time>2019-04-30T10:05:37Z</time>
      </trkpt>
      <trkpt lat="42.238817" lon="-8.711767">
        <ele>13.626</ele>
        <time>2019-04-30T10:05:39Z</time>
      </trkpt>
      <trkpt lat="42.238843" lon="-8.711701">
        <ele>13.608</ele>
        <time>2019-04-30T10:05:40Z</time>
      </trkpt>
      <trkpt lat="42.239147" lon="-8.711005">
        <ele>12.151</ele>
        <time>2019-04-30T10:05:54Z</time>
      </trkpt>
      <trkpt lat="42.239320" lon="-8.710612">
        <ele>11.114</ele>
        <time>2019-04-30T10:06:05Z</time>
      </trkpt>
      <trkpt lat="42.239540" lon="-8.710109">
        <ele>10.290</ele>
        <time>2019-04-30T10:06:15Z</time>
      </trkpt>
      <trkpt lat="42.239552" lon="-8.710046">
        <ele>9.798</ele>
        <time>2019-04-30T10:06:16Z</time>
      </trkpt>
      <trkpt lat="42.239553" lon="-8.709982">
        <ele>9.796</ele>
        <time>2019-04-30T10:06:17Z</time>
      </trkpt>
      <trkpt lat="42.239542" lon="-8.709933">
        <ele>9.288</ele>
        <time>2019-04-30T10:06:18Z</time>
      </trkpt>
      <trkpt lat="42.239517" lon="-8.709889">
        <ele>9.218</ele>
        <time>2019-04-30T10:06:19Z</time>
      </trkpt>
      <trkpt lat="42.239492" lon="-8.709846">
        <ele>9.232</ele>
        <time>2019-04-30T10:06:20Z</time>
      </trkpt>
      <trkpt lat="42.239306" lon="-8.709588">
        <ele>8.731</ele>
        <time>2019-04-30T10:06:30Z</time>
      </trkpt>
      <trkpt lat="42.239239" lon="-8.709513">
        <ele>8.361</ele>
        <time>2019-04-30T10:06:41Z</time>
      </trkpt>
      <trkpt lat="42.239107" lon="-8.709362">
        <ele>7.807</ele>
        <time>2019-04-30T10:06:50Z</time>
      </trkpt>
      <trkpt lat="42.239086" lon="-8.709319">
        <ele>9.208</ele>
        <time>2019-04-30T10:07:01Z</time>
      </trkpt>
      <trkpt lat="42.239245" lon="-8.709288">
        <ele>26.066</ele>
        <time>2019-04-30T10:07:20Z</time>
      </trkpt>
      <trkpt lat="42.239356" lon="-8.709270">
        <ele>39.039</ele>
        <time>2019-04-30T10:07:43Z</time>
      </trkpt>
      <trkpt lat="42.239380" lon="-8.709248">
        <ele>40.555</ele>
        <time>2019-04-30T10:08:09Z</time>
      </trkpt>
      <trkpt lat="42.239366" lon="-8.709247">
        <ele>39.013</ele>
        <time>2019-04-30T10:08:35Z</time>
      </trkpt>
      <trkpt lat="42.239346" lon="-8.709221">
        <ele>38.151</ele>
        <time>2019-04-30T10:08:45Z</time>
      </trkpt>
      <trkpt lat="42.239342" lon="-8.709204">
        <ele>38.193</ele>
        <time>2019-04-30T10:08:46Z</time>
      </trkpt>
      <trkpt lat="42.239341" lon="-8.709187">
        <ele>37.613</ele>
        <time>2019-04-30T10:08:47Z</time>
      </trkpt>
      <trkpt lat="42.239337" lon="-8.709172">
        <ele>37.657</ele>
        <time>2019-04-30T10:08:48Z</time>
      </trkpt>
      <trkpt lat="42.239314" lon="-8.709135">
        <ele>37.631</ele>
        <time>2019-04-30T10:08:51Z</time>
      </trkpt>
      <trkpt lat="42.239301" lon="-8.709120">
        <ele>37.661</ele>
        <time>2019-04-30T10:08:52Z</time>
      </trkpt>
      <trkpt lat="42.239286" lon="-8.709100">
        <ele>37.107</ele>
        <time>2019-04-30T10:08:53Z</time>
      </trkpt>
      <trkpt lat="42.239267" lon="-8.709082">
        <ele>37.108</ele>
        <time>2019-04-30T10:08:54Z</time>
      </trkpt>
      <trkpt lat="42.239246" lon="-8.709058">
        <ele>37.126</ele>
        <time>2019-04-30T10:08:55Z</time>
      </trkpt>
      <trkpt lat="42.239219" lon="-8.709034">
        <ele>37.179</ele>
        <time>2019-04-30T10:08:56Z</time>
      </trkpt>
      <trkpt lat="42.239189" lon="-8.709012">
        <ele>37.175</ele>
        <time>2019-04-30T10:08:57Z</time>
      </trkpt>
      <trkpt lat="42.239146" lon="-8.708989">
        <ele>37.163</ele>
        <time>2019-04-30T10:08:58Z</time>
      </trkpt>
      <trkpt lat="42.239105" lon="-8.708957">
        <ele>37.121</ele>
        <time>2019-04-30T10:08:59Z</time>
      </trkpt>
      <trkpt lat="42.239078" lon="-8.708917">
        <ele>37.133</ele>
        <time>2019-04-30T10:09:00Z</time>
      </trkpt>
      <trkpt lat="42.239059" lon="-8.708871">
        <ele>37.133</ele>
        <time>2019-04-30T10:09:01Z</time>
      </trkpt>
      <trkpt lat="42.239049" lon="-8.708822">
        <ele>36.667</ele>
        <time>2019-04-30T10:09:02Z</time>
      </trkpt>
      <trkpt lat="42.239045" lon="-8.708769">
        <ele>36.672</ele>
        <time>2019-04-30T10:09:03Z</time>
      </trkpt>
      <trkpt lat="42.239050" lon="-8.708716">
        <ele>36.613</ele>
        <time>2019-04-30T10:09:04Z</time>
      </trkpt>
      <trkpt lat="42.239055" lon="-8.708667">
        <ele>36.114</ele>
        <time>2019-04-30T10:09:05Z</time>
      </trkpt>
      <trkpt lat="42.239063" lon="-8.708623">
        <ele>36.108</ele>
        <time>2019-04-30T10:09:06Z</time>
      </trkpt>
      <trkpt lat="42.239085" lon="-8.708585">
        <ele>35.730</ele>
        <time>2019-04-30T10:09:07Z</time>
      </trkpt>
      <trkpt lat="42.239119" lon="-8.708561">
        <ele>35.793</ele>
        <time>2019-04-30T10:09:08Z</time>
      </trkpt>
      <trkpt lat="42.239158" lon="-8.708550">
        <ele>35.249</ele>
        <time>2019-04-30T10:09:09Z</time>
      </trkpt>
      <trkpt lat="42.239198" lon="-8.708547">
        <ele>35.227</ele>
        <time>2019-04-30T10:09:10Z</time>
      </trkpt>
      <trkpt lat="42.239364" lon="-8.708529">
        <ele>34.255</ele>
        <time>2019-04-30T10:09:14Z</time>
      </trkpt>
      <trkpt lat="42.239396" lon="-8.708513">
        <ele>33.717</ele>
        <time>2019-04-30T10:09:15Z</time>
      </trkpt>
      <trkpt lat="42.239839" lon="-8.708198">
        <ele>27.077</ele>
        <time>2019-04-30T10:09:28Z</time>
      </trkpt>
      <trkpt lat="42.239874" lon="-8.708169">
        <ele>26.531</ele>
        <time>2019-04-30T10:09:29Z</time>
      </trkpt>
      <trkpt lat="42.239942" lon="-8.708112">
        <ele>26.089</ele>
        <time>2019-04-30T10:09:31Z</time>
      </trkpt>
      <trkpt lat="42.239978" lon="-8.708083">
        <ele>26.006</ele>
        <time>2019-04-30T10:09:32Z</time>
      </trkpt>
      <trkpt lat="42.240435" lon="-8.707768">
        <ele>26.026</ele>
        <time>2019-04-30T10:09:45Z</time>
      </trkpt>
      <trkpt lat="42.240988" lon="-8.707405">
        <ele>29.908</ele>
        <time>2019-04-30T10:10:00Z</time>
      </trkpt>
      <trkpt lat="42.241057" lon="-8.707359">
        <ele>30.411</ele>
        <time>2019-04-30T10:10:02Z</time>
      </trkpt>
      <trkpt lat="42.241480" lon="-8.707058">
        <ele>29.934</ele>
        <time>2019-04-30T10:10:14Z</time>
      </trkpt>
      <trkpt lat="42.241573" lon="-8.706964">
        <ele>29.940</ele>
        <time>2019-04-30T10:10:21Z</time>
      </trkpt>
      <trkpt lat="42.241579" lon="-8.706952">
        <ele>27.548</ele>
        <time>2019-04-30T10:10:50Z</time>
      </trkpt>
      <trkpt lat="42.241589" lon="-8.706939">
        <ele>27.556</ele>
        <time>2019-04-30T10:10:55Z</time>
      </trkpt>
      <trkpt lat="42.241606" lon="-8.706924">
        <ele>27.028</ele>
        <time>2019-04-30T10:10:56Z</time>
      </trkpt>
      <trkpt lat="42.241625" lon="-8.706893">
        <ele>26.078</ele>
        <time>2019-04-30T10:10:57Z</time>
      </trkpt>
      <trkpt lat="42.241653" lon="-8.706878">
        <ele>26.042</ele>
        <time>2019-04-30T10:10:58Z</time>
      </trkpt>
      <trkpt lat="42.241685" lon="-8.706868">
        <ele>26.038</ele>
        <time>2019-04-30T10:10:59Z</time>
      </trkpt>
      <trkpt lat="42.241717" lon="-8.706848">
        <ele>26.070</ele>
        <time>2019-04-30T10:11:00Z</time>
      </trkpt>
      <trkpt lat="42.241752" lon="-8.706820">
        <ele>26.517</ele>
        <time>2019-04-30T10:11:01Z</time>
      </trkpt>
      <trkpt lat="42.241789" lon="-8.706797">
        <ele>27.008</ele>
        <time>2019-04-30T10:11:02Z</time>
      </trkpt>
      <trkpt lat="42.241916" lon="-8.706746">
        <ele>28.586</ele>
        <time>2019-04-30T10:11:05Z</time>
      </trkpt>
      <trkpt lat="42.241964" lon="-8.706739">
        <ele>28.949</ele>
        <time>2019-04-30T10:11:06Z</time>
      </trkpt>
      <trkpt lat="42.242625" lon="-8.706700">
        <ele>28.045</ele>
        <time>2019-04-30T10:11:21Z</time>
      </trkpt>
      <trkpt lat="42.242991" lon="-8.706505">
        <ele>26.033</ele>
        <time>2019-04-30T10:11:32Z</time>
      </trkpt>
      <trkpt lat="42.243157" lon="-8.706278">
        <ele>26.051</ele>
        <time>2019-04-30T10:11:41Z</time>
      </trkpt>
      <trkpt lat="42.243206" lon="-8.706243">
        <ele>25.153</ele>
        <time>2019-04-30T10:11:47Z</time>
      </trkpt>
      <trkpt lat="42.243220" lon="-8.706223">
        <ele>25.193</ele>
        <time>2019-04-30T10:11:48Z</time>
      </trkpt>
      <trkpt lat="42.243447" lon="-8.705926">
        <ele>22.247</ele>
        <time>2019-04-30T10:12:00Z</time>
      </trkpt>
      <trkpt lat="42.243606" lon="-8.705621">
        <ele>21.797</ele>
        <time>2019-04-30T10:12:11Z</time>
      </trkpt>
      <trkpt lat="42.243836" lon="-8.705244">
        <ele>23.223</ele>
        <time>2019-04-30T10:12:23Z</time>
      </trkpt>
      <trkpt lat="42.244146" lon="-8.704790">
        <ele>27.025</ele>
        <time>2019-04-30T10:12:36Z</time>
      </trkpt>
      <trkpt lat="42.244328" lon="-8.704420">
        <ele>27.508</ele>
        <time>2019-04-30T10:12:46Z</time>
      </trkpt>
      <trkpt lat="42.244345" lon="-8.704384">
        <ele>28.052</ele>
        <time>2019-04-30T10:12:47Z</time>
      </trkpt>
      <trkpt lat="42.244367" lon="-8.704354">
        <ele>28.035</ele>
        <time>2019-04-30T10:12:48Z</time>
      </trkpt>
      <trkpt lat="42.244395" lon="-8.704332">
        <ele>28.061</ele>
        <time>2019-04-30T10:12:49Z</time>
      </trkpt>
      <trkpt lat="42.244425" lon="-8.704314">
        <ele>28.079</ele>
        <time>2019-04-30T10:12:50Z</time>
      </trkpt>
      <trkpt lat="42.244459" lon="-8.704295">
        <ele>28.097</ele>
        <time>2019-04-30T10:12:51Z</time>
      </trkpt>
      <trkpt lat="42.244488" lon="-8.704267">
        <ele>28.059</ele>
        <time>2019-04-30T10:12:52Z</time>
      </trkpt>
      <trkpt lat="42.244514" lon="-8.704236">
        <ele>28.599</ele>
        <time>2019-04-30T10:12:53Z</time>
      </trkpt>
      <trkpt lat="42.244540" lon="-8.704205">
        <ele>28.533</ele>
        <time>2019-04-30T10:12:54Z</time>
      </trkpt>
      <trkpt lat="42.244568" lon="-8.704178">
        <ele>28.958</ele>
        <time>2019-04-30T10:12:55Z</time>
      </trkpt>
      <trkpt lat="42.244595" lon="-8.704151">
        <ele>28.952</ele>
        <time>2019-04-30T10:12:56Z</time>
      </trkpt>
      <trkpt lat="42.244767" lon="-8.703745">
        <ele>32.317</ele>
        <time>2019-04-30T10:13:06Z</time>
      </trkpt>
      <trkpt lat="42.244962" lon="-8.703369">
        <ele>33.708</ele>
        <time>2019-04-30T10:13:16Z</time>
      </trkpt>
      <trkpt lat="42.245179" lon="-8.703076">
        <ele>34.788</ele>
        <time>2019-04-30T10:13:25Z</time>
      </trkpt>
      <trkpt lat="42.245261" lon="-8.702890">
        <ele>37.171</ele>
        <time>2019-04-30T10:13:35Z</time>
      </trkpt>
      <trkpt lat="42.245417" lon="-8.702639">
        <ele>37.177</ele>
        <time>2019-04-30T10:13:44Z</time>
      </trkpt>
      <trkpt lat="42.245474" lon="-8.702582">
        <ele>37.185</ele>
        <time>2019-04-30T10:13:49Z</time>
      </trkpt>
      <trkpt lat="42.245485" lon="-8.702589">
        <ele>36.633</ele>
        <time>2019-04-30T10:14:03Z</time>
      </trkpt>
      <trkpt lat="42.245483" lon="-8.702589">
        <ele>37.645</ele>
        <time>2019-04-30T10:14:14Z</time>
      </trkpt>
      <trkpt lat="42.245502" lon="-8.702561">
        <ele>37.655</ele>
        <time>2019-04-30T10:14:18Z</time>
      </trkpt>
      <trkpt lat="42.245507" lon="-8.702514">
        <ele>38.139</ele>
        <time>2019-04-30T10:14:33Z</time>
      </trkpt>
      <trkpt lat="42.245514" lon="-8.702505">
        <ele>38.518</ele>
        <time>2019-04-30T10:14:44Z</time>
      </trkpt>
      <trkpt lat="42.245524" lon="-8.702497">
        <ele>38.598</ele>
        <time>2019-04-30T10:14:45Z</time>
      </trkpt>
      <trkpt lat="42.245535" lon="-8.702486">
        <ele>38.517</ele>
        <time>2019-04-30T10:14:46Z</time>
      </trkpt>
      <trkpt lat="42.245547" lon="-8.702470">
        <ele>38.508</ele>
        <time>2019-04-30T10:14:47Z</time>
      </trkpt>
      <trkpt lat="42.245559" lon="-8.702458">
        <ele>38.524</ele>
        <time>2019-04-30T10:14:48Z</time>
      </trkpt>
      <trkpt lat="42.245581" lon="-8.702438">
        <ele>38.197</ele>
        <time>2019-04-30T10:15:01Z</time>
      </trkpt>
      <trkpt lat="42.245693" lon="-8.702278">
        <ele>38.543</ele>
        <time>2019-04-30T10:15:16Z</time>
      </trkpt>
      <trkpt lat="42.245733" lon="-8.702184">
        <ele>38.591</ele>
        <time>2019-04-30T10:15:18Z</time>
      </trkpt>
      <trkpt lat="42.245757" lon="-8.702137">
        <ele>38.529</ele>
        <time>2019-04-30T10:15:19Z</time>
      </trkpt>
      <trkpt lat="42.245783" lon="-8.702087">
        <ele>39.071</ele>
        <time>2019-04-30T10:15:20Z</time>
      </trkpt>
      <trkpt lat="42.245878" lon="-8.701959">
        <ele>39.541</ele>
        <time>2019-04-30T10:15:23Z</time>
      </trkpt>
      <trkpt lat="42.245910" lon="-8.701920">
        <ele>39.565</ele>
        <time>2019-04-30T10:15:24Z</time>
      </trkpt>
      <trkpt lat="42.246017" lon="-8.701739">
        <ele>40.564</ele>
        <time>2019-04-30T10:15:28Z</time>
      </trkpt>
      <trkpt lat="42.246261" lon="-8.701342">
        <ele>41.906</ele>
        <time>2019-04-30T10:15:40Z</time>
      </trkpt>
      <trkpt lat="42.246252" lon="-8.701314">
        <ele>43.416</ele>
        <time>2019-04-30T10:15:52Z</time>
      </trkpt>
      <trkpt lat="42.246252" lon="-8.701303">
        <ele>43.808</ele>
        <time>2019-04-30T10:16:16Z</time>
      </trkpt>
      <trkpt lat="42.246261" lon="-8.701289">
        <ele>43.859</ele>
        <time>2019-04-30T10:16:17Z</time>
      </trkpt>
      <trkpt lat="42.246277" lon="-8.701268">
        <ele>43.492</ele>
        <time>2019-04-30T10:16:18Z</time>
      </trkpt>
      <trkpt lat="42.246511" lon="-8.700902">
        <ele>41.978</ele>
        <time>2019-04-30T10:16:29Z</time>
      </trkpt>
      <trkpt lat="42.246587" lon="-8.700798">
        <ele>41.986</ele>
        <time>2019-04-30T10:16:32Z</time>
      </trkpt>
      <trkpt lat="42.246927" lon="-8.700371">
        <ele>42.974</ele>
        <time>2019-04-30T10:16:44Z</time>
      </trkpt>
      <trkpt lat="42.247151" lon="-8.699910">
        <ele>43.476</ele>
        <time>2019-04-30T10:16:55Z</time>
      </trkpt>
      <trkpt lat="42.247366" lon="-8.699546">
        <ele>44.326</ele>
        <time>2019-04-30T10:17:05Z</time>
      </trkpt>
      <trkpt lat="42.247375" lon="-8.699511">
        <ele>44.320</ele>
        <time>2019-04-30T10:17:06Z</time>
      </trkpt>
      <trkpt lat="42.247393" lon="-8.699469">
        <ele>44.892</ele>
        <time>2019-04-30T10:17:07Z</time>
      </trkpt>
      <trkpt lat="42.247703" lon="-8.698950">
        <ele>49.173</ele>
        <time>2019-04-30T10:17:20Z</time>
      </trkpt>
      <trkpt lat="42.247968" lon="-8.698698">
        <ele>52.520</ele>
        <time>2019-04-30T10:17:29Z</time>
      </trkpt>
      <trkpt lat="42.248321" lon="-8.698366">
        <ele>53.008</ele>
        <time>2019-04-30T10:17:41Z</time>
      </trkpt>
      <trkpt lat="42.248330" lon="-8.698278">
        <ele>53.482</ele>
        <time>2019-04-30T10:17:43Z</time>
      </trkpt>
      <trkpt lat="42.248293" lon="-8.698064">
        <ele>53.945</ele>
        <time>2019-04-30T10:17:48Z</time>
      </trkpt>
      <trkpt lat="42.248297" lon="-8.698024">
        <ele>53.951</ele>
        <time>2019-04-30T10:17:49Z</time>
      </trkpt>
      <trkpt lat="42.248307" lon="-8.697985">
        <ele>53.979</ele>
        <time>2019-04-30T10:17:50Z</time>
      </trkpt>
      <trkpt lat="42.248332" lon="-8.697961">
        <ele>53.957</ele>
        <time>2019-04-30T10:17:51Z</time>
      </trkpt>
      <trkpt lat="42.248361" lon="-8.697939">
        <ele>53.449</ele>
        <time>2019-04-30T10:17:52Z</time>
      </trkpt>
      <trkpt lat="42.248385" lon="-8.697916">
        <ele>53.439</ele>
        <time>2019-04-30T10:17:53Z</time>
      </trkpt>
      <trkpt lat="42.248416" lon="-8.697896">
        <ele>53.073</ele>
        <time>2019-04-30T10:17:54Z</time>
      </trkpt>
      <trkpt lat="42.248445" lon="-8.697880">
        <ele>53.029</ele>
        <time>2019-04-30T10:17:55Z</time>
      </trkpt>
      <trkpt lat="42.248481" lon="-8.697877">
        <ele>53.000</ele>
        <time>2019-04-30T10:17:56Z</time>
      </trkpt>
      <trkpt lat="42.248532" lon="-8.697897">
        <ele>53.020</ele>
        <time>2019-04-30T10:17:57Z</time>
      </trkpt>
      <trkpt lat="42.248587" lon="-8.697906">
        <ele>53.408</ele>
        <time>2019-04-30T10:17:58Z</time>
      </trkpt>
      <trkpt lat="42.248934" lon="-8.697721">
        <ele>53.985</ele>
        <time>2019-04-30T10:18:08Z</time>
      </trkpt>
      <trkpt lat="42.249051" lon="-8.697678">
        <ele>54.968</ele>
        <time>2019-04-30T10:18:14Z</time>
      </trkpt>
      <trkpt lat="42.249039" lon="-8.697630">
        <ele>55.424</ele>
        <time>2019-04-30T10:18:15Z</time>
      </trkpt>
      <trkpt lat="42.248966" lon="-8.697506">
        <ele>55.892</ele>
        <time>2019-04-30T10:18:16Z</time>
      </trkpt>
      <trkpt lat="42.248957" lon="-8.697444">
        <ele>56.880</ele>
        <time>2019-04-30T10:18:17Z</time>
      </trkpt>
      <trkpt lat="42.248955" lon="-8.697378">
        <ele>57.382</ele>
        <time>2019-04-30T10:18:18Z</time>
      </trkpt>
      <trkpt lat="42.248978" lon="-8.697341">
        <ele>57.882</ele>
        <time>2019-04-30T10:18:19Z</time>
      </trkpt>
      <trkpt lat="42.249087" lon="-8.697061">
        <ele>60.216</ele>
        <time>2019-04-30T10:18:26Z</time>
      </trkpt>
      <trkpt lat="42.249133" lon="-8.697061">
        <ele>60.726</ele>
        <time>2019-04-30T10:18:27Z</time>
      </trkpt>
      <trkpt lat="42.249171" lon="-8.697048">
        <ele>61.147</ele>
        <time>2019-04-30T10:18:28Z</time>
      </trkpt>
      <trkpt lat="42.249205" lon="-8.697030">
        <ele>61.111</ele>
        <time>2019-04-30T10:18:29Z</time>
      </trkpt>
      <trkpt lat="42.249233" lon="-8.697005">
        <ele>61.108</ele>
        <time>2019-04-30T10:18:30Z</time>
      </trkpt>
      <trkpt lat="42.249258" lon="-8.696975">
        <ele>61.675</ele>
        <time>2019-04-30T10:18:31Z</time>
      </trkpt>
      <trkpt lat="42.249285" lon="-8.696944">
        <ele>61.628</ele>
        <time>2019-04-30T10:18:32Z</time>
      </trkpt>
      <trkpt lat="42.249288" lon="-8.696886">
        <ele>61.634</ele>
        <time>2019-04-30T10:18:33Z</time>
      </trkpt>
      <trkpt lat="42.249294" lon="-8.696832">
        <ele>61.692</ele>
        <time>2019-04-30T10:18:34Z</time>
      </trkpt>
      <trkpt lat="42.249282" lon="-8.696764">
        <ele>61.680</ele>
        <time>2019-04-30T10:18:35Z</time>
      </trkpt>
      <trkpt lat="42.249292" lon="-8.696720">
        <ele>61.642</ele>
        <time>2019-04-30T10:18:36Z</time>
      </trkpt>
      <trkpt lat="42.249356" lon="-8.696619">
        <ele>62.152</ele>
        <time>2019-04-30T10:18:39Z</time>
      </trkpt>
      <trkpt lat="42.249392" lon="-8.696599">
        <ele>62.676</ele>
        <time>2019-04-30T10:18:40Z</time>
      </trkpt>
      <trkpt lat="42.249426" lon="-8.696576">
        <ele>62.666</ele>
        <time>2019-04-30T10:18:41Z</time>
      </trkpt>
      <trkpt lat="42.249460" lon="-8.696563">
        <ele>63.129</ele>
        <time>2019-04-30T10:18:42Z</time>
      </trkpt>
      <trkpt lat="42.249494" lon="-8.696548">
        <ele>63.121</ele>
        <time>2019-04-30T10:18:43Z</time>
      </trkpt>
      <trkpt lat="42.249526" lon="-8.696528">
        <ele>63.108</ele>
        <time>2019-04-30T10:18:44Z</time>
      </trkpt>
      <trkpt lat="42.249556" lon="-8.696507">
        <ele>63.149</ele>
        <time>2019-04-30T10:18:45Z</time>
      </trkpt>
      <trkpt lat="42.249586" lon="-8.696485">
        <ele>63.162</ele>
        <time>2019-04-30T10:18:46Z</time>
      </trkpt>
      <trkpt lat="42.249614" lon="-8.696457">
        <ele>62.688</ele>
        <time>2019-04-30T10:18:47Z</time>
      </trkpt>
      <trkpt lat="42.249637" lon="-8.696424">
        <ele>62.686</ele>
        <time>2019-04-30T10:18:48Z</time>
      </trkpt>
      <trkpt lat="42.249662" lon="-8.696395">
        <ele>62.154</ele>
        <time>2019-04-30T10:18:49Z</time>
      </trkpt>
      <trkpt lat="42.249671" lon="-8.696187">
        <ele>63.156</ele>
        <time>2019-04-30T10:18:59Z</time>
      </trkpt>
      <trkpt lat="42.249636" lon="-8.696119">
        <ele>61.646</ele>
        <time>2019-04-30T10:19:15Z</time>
      </trkpt>
      <trkpt lat="42.249645" lon="-8.696100">
        <ele>61.670</ele>
        <time>2019-04-30T10:19:16Z</time>
      </trkpt>
      <trkpt lat="42.249762" lon="-8.695869">
        <ele>60.255</ele>
        <time>2019-04-30T10:19:23Z</time>
      </trkpt>
      <trkpt lat="42.249784" lon="-8.695815">
        <ele>60.207</ele>
        <time>2019-04-30T10:19:24Z</time>
      </trkpt>
      <trkpt lat="42.249810" lon="-8.695763">
        <ele>60.217</ele>
        <time>2019-04-30T10:19:25Z</time>
      </trkpt>
      <trkpt lat="42.249870" lon="-8.695674">
        <ele>60.208</ele>
        <time>2019-04-30T10:19:27Z</time>
      </trkpt>
      <trkpt lat="42.249898" lon="-8.695628">
        <ele>60.278</ele>
        <time>2019-04-30T10:19:28Z</time>
      </trkpt>
      <trkpt lat="42.250125" lon="-8.695307">
        <ele>61.691</ele>
        <time>2019-04-30T10:19:36Z</time>
      </trkpt>
      <trkpt lat="42.250156" lon="-8.695260">
        <ele>62.157</ele>
        <time>2019-04-30T10:19:37Z</time>
      </trkpt>
      <trkpt lat="42.250201" lon="-8.695221">
        <ele>62.145</ele>
        <time>2019-04-30T10:19:38Z</time>
      </trkpt>
      <trkpt lat="42.250252" lon="-8.695195">
        <ele>62.633</ele>
        <time>2019-04-30T10:19:39Z</time>
      </trkpt>
      <trkpt lat="42.250304" lon="-8.695172">
        <ele>62.685</ele>
        <time>2019-04-30T10:19:40Z</time>
      </trkpt>
      <trkpt lat="42.250349" lon="-8.695141">
        <ele>62.655</ele>
        <time>2019-04-30T10:19:41Z</time>
      </trkpt>
      <trkpt lat="42.250393" lon="-8.695106">
        <ele>63.159</ele>
        <time>2019-04-30T10:19:42Z</time>
      </trkpt>
      <trkpt lat="42.250432" lon="-8.695060">
        <ele>63.128</ele>
        <time>2019-04-30T10:19:43Z</time>
      </trkpt>
      <trkpt lat="42.250894" lon="-8.694530">
        <ele>63.589</ele>
        <time>2019-04-30T10:19:53Z</time>
      </trkpt>
      <trkpt lat="42.250920" lon="-8.694473">
        <ele>63.117</ele>
        <time>2019-04-30T10:19:54Z</time>
      </trkpt>
      <trkpt lat="42.251002" lon="-8.694228">
        <ele>60.208</ele>
        <time>2019-04-30T10:20:03Z</time>
      </trkpt>
      <trkpt lat="42.250984" lon="-8.694225">
        <ele>59.795</ele>
        <time>2019-04-30T10:20:25Z</time>
      </trkpt>
      <trkpt lat="42.251022" lon="-8.694117">
        <ele>59.778</ele>
        <time>2019-04-30T10:20:37Z</time>
      </trkpt>
      <trkpt lat="42.251146" lon="-8.693768">
        <ele>58.324</ele>
        <time>2019-04-30T10:20:43Z</time>
      </trkpt>
      <trkpt lat="42.251167" lon="-8.693699">
        <ele>57.872</ele>
        <time>2019-04-30T10:20:44Z</time>
      </trkpt>
      <trkpt lat="42.251193" lon="-8.693630">
        <ele>57.320</ele>
        <time>2019-04-30T10:20:45Z</time>
      </trkpt>
      <trkpt lat="42.251218" lon="-8.693557">
        <ele>57.372</ele>
        <time>2019-04-30T10:20:46Z</time>
      </trkpt>
      <trkpt lat="42.251242" lon="-8.693480">
        <ele>56.822</ele>
        <time>2019-04-30T10:20:47Z</time>
      </trkpt>
      <trkpt lat="42.251259" lon="-8.693400">
        <ele>56.846</ele>
        <time>2019-04-30T10:20:48Z</time>
      </trkpt>
      <trkpt lat="42.251272" lon="-8.693316">
        <ele>56.358</ele>
        <time>2019-04-30T10:20:49Z</time>
      </trkpt>
      <trkpt lat="42.251299" lon="-8.692168">
        <ele>51.052</ele>
        <time>2019-04-30T10:21:00Z</time>
      </trkpt>
      <trkpt lat="42.251271" lon="-8.692053">
        <ele>50.617</ele>
        <time>2019-04-30T10:21:01Z</time>
      </trkpt>
      <trkpt lat="42.251024" lon="-8.691296">
        <ele>49.108</ele>
        <time>2019-04-30T10:21:08Z</time>
      </trkpt>
      <trkpt lat="42.250680" lon="-8.690692">
        <ele>47.748</ele>
        <time>2019-04-30T10:21:15Z</time>
      </trkpt>
      <trkpt lat="42.250651" lon="-8.690600">
        <ele>47.761</ele>
        <time>2019-04-30T10:21:16Z</time>
      </trkpt>
      <trkpt lat="42.250632" lon="-8.690506">
        <ele>47.737</ele>
        <time>2019-04-30T10:21:17Z</time>
      </trkpt>
      <trkpt lat="42.250624" lon="-8.690412">
        <ele>47.765</ele>
        <time>2019-04-30T10:21:18Z</time>
      </trkpt>
      <trkpt lat="42.250626" lon="-8.690319">
        <ele>47.733</ele>
        <time>2019-04-30T10:21:19Z</time>
      </trkpt>
      <trkpt lat="42.250641" lon="-8.690228">
        <ele>47.765</ele>
        <time>2019-04-30T10:21:20Z</time>
      </trkpt>
      <trkpt lat="42.250670" lon="-8.690142">
        <ele>47.775</ele>
        <time>2019-04-30T10:21:21Z</time>
      </trkpt>
      <trkpt lat="42.250707" lon="-8.690065">
        <ele>47.279</ele>
        <time>2019-04-30T10:21:22Z</time>
      </trkpt>
      <trkpt lat="42.250754" lon="-8.689993">
        <ele>47.264</ele>
        <time>2019-04-30T10:21:23Z</time>
      </trkpt>
      <trkpt lat="42.250806" lon="-8.689925">
        <ele>46.706</ele>
        <time>2019-04-30T10:21:24Z</time>
      </trkpt>
      <trkpt lat="42.250861" lon="-8.689860">
        <ele>46.716</ele>
        <time>2019-04-30T10:21:25Z</time>
      </trkpt>
      <trkpt lat="42.251576" lon="-8.689009">
        <ele>47.208</ele>
        <time>2019-04-30T10:21:39Z</time>
      </trkpt>
      <trkpt lat="42.252254" lon="-8.688181">
        <ele>46.759</ele>
        <time>2019-04-30T10:21:55Z</time>
      </trkpt>
      <trkpt lat="42.252331" lon="-8.688085">
        <ele>46.732</ele>
        <time>2019-04-30T10:21:57Z</time>
      </trkpt>
      <trkpt lat="42.252853" lon="-8.687450">
        <ele>48.688</ele>
        <time>2019-04-30T10:22:12Z</time>
      </trkpt>
      <trkpt lat="42.253243" lon="-8.686967">
        <ele>51.036</ele>
        <time>2019-04-30T10:22:25Z</time>
      </trkpt>
      <trkpt lat="42.253514" lon="-8.686649">
        <ele>53.074</ele>
        <time>2019-04-30T10:22:34Z</time>
      </trkpt>
      <trkpt lat="42.253973" lon="-8.686087">
        <ele>54.426</ele>
        <time>2019-04-30T10:22:50Z</time>
      </trkpt>
      <trkpt lat="42.254361" lon="-8.685589">
        <ele>54.916</ele>
        <time>2019-04-30T10:23:04Z</time>
      </trkpt>
      <trkpt lat="42.254866" lon="-8.684985">
        <ele>58.790</ele>
        <time>2019-04-30T10:23:22Z</time>
      </trkpt>
      <trkpt lat="42.255183" lon="-8.684590">
        <ele>60.768</ele>
        <time>2019-04-30T10:23:37Z</time>
      </trkpt>
      <trkpt lat="42.255453" lon="-8.684283">
        <ele>61.642</ele>
        <time>2019-04-30T10:23:52Z</time>
      </trkpt>
      <trkpt lat="42.255936" lon="-8.683523">
        <ele>62.126</ele>
        <time>2019-04-30T10:24:09Z</time>
      </trkpt>
      <trkpt lat="42.256082" lon="-8.683298">
        <ele>63.108</ele>
        <time>2019-04-30T10:24:14Z</time>
      </trkpt>
      <trkpt lat="42.256276" lon="-8.683014">
        <ele>63.149</ele>
        <time>2019-04-30T10:24:20Z</time>
      </trkpt>
      <trkpt lat="42.256412" lon="-8.682798">
        <ele>63.112</ele>
        <time>2019-04-30T10:24:24Z</time>
      </trkpt>
      <trkpt lat="42.256983" lon="-8.681896">
        <ele>59.788</ele>
        <time>2019-04-30T10:24:40Z</time>
      </trkpt>
      <trkpt lat="42.257392" lon="-8.681239">
        <ele>56.836</ele>
        <time>2019-04-30T10:24:52Z</time>
      </trkpt>
      <trkpt lat="42.258261" lon="-8.680478">
        <ele>54.464</ele>
        <time>2019-04-30T10:25:08Z</time>
      </trkpt>
      <trkpt lat="42.258979" lon="-8.679890">
        <ele>52.046</ele>
        <time>2019-04-30T10:25:21Z</time>
      </trkpt>
      <trkpt lat="42.259878" lon="-8.679160">
        <ele>47.786</ele>
        <time>2019-04-30T10:25:37Z</time>
      </trkpt>
      <trkpt lat="42.260224" lon="-8.678844">
        <ele>44.860</ele>
        <time>2019-04-30T10:25:44Z</time>
      </trkpt>
      <trkpt lat="42.260235" lon="-8.678816">
        <ele>44.814</ele>
        <time>2019-04-30T10:25:45Z</time>
      </trkpt>
      <trkpt lat="42.260262" lon="-8.678796">
        <ele>44.854</ele>
        <time>2019-04-30T10:25:55Z</time>
      </trkpt>
      <trkpt lat="42.260261" lon="-8.678790">
        <ele>45.309</ele>
        <time>2019-04-30T10:26:18Z</time>
      </trkpt>
      <trkpt lat="42.260274" lon="-8.678775">
        <ele>44.808</ele>
        <time>2019-04-30T10:26:43Z</time>
      </trkpt>
      <trkpt lat="42.260286" lon="-8.678768">
        <ele>44.364</ele>
        <time>2019-04-30T10:26:44Z</time>
      </trkpt>
      <trkpt lat="42.260303" lon="-8.678764">
        <ele>44.377</ele>
        <time>2019-04-30T10:26:45Z</time>
      </trkpt>
      <trkpt lat="42.260419" lon="-8.678723">
        <ele>43.863</ele>
        <time>2019-04-30T10:26:49Z</time>
      </trkpt>
      <trkpt lat="42.260826" lon="-8.678405">
        <ele>40.981</ele>
        <time>2019-04-30T10:26:58Z</time>
      </trkpt>
      <trkpt lat="42.260874" lon="-8.678345">
        <ele>40.949</ele>
        <time>2019-04-30T10:26:59Z</time>
      </trkpt>
      <trkpt lat="42.261068" lon="-8.678065">
        <ele>39.551</ele>
        <time>2019-04-30T10:27:03Z</time>
      </trkpt>
      <trkpt lat="42.261745" lon="-8.677014">
        <ele>35.791</ele>
        <time>2019-04-30T10:27:17Z</time>
      </trkpt>
      <trkpt lat="42.261814" lon="-8.676915">
        <ele>35.755</ele>
        <time>2019-04-30T10:27:19Z</time>
      </trkpt>
      <trkpt lat="42.261845" lon="-8.676868">
        <ele>36.117</ele>
        <time>2019-04-30T10:27:20Z</time>
      </trkpt>
      <trkpt lat="42.261913" lon="-8.676775">
        <ele>36.687</ele>
        <time>2019-04-30T10:27:22Z</time>
      </trkpt>
      <trkpt lat="42.262043" lon="-8.676598">
        <ele>38.115</ele>
        <time>2019-04-30T10:27:26Z</time>
      </trkpt>
      <trkpt lat="42.262402" lon="-8.676073">
        <ele>40.908</ele>
        <time>2019-04-30T10:27:39Z</time>
      </trkpt>
      <trkpt lat="42.262486" lon="-8.675955">
        <ele>43.824</ele>
        <time>2019-04-30T10:27:48Z</time>
      </trkpt>
      <trkpt lat="42.262502" lon="-8.675926">
        <ele>43.877</ele>
        <time>2019-04-30T10:27:49Z</time>
      </trkpt>
      <trkpt lat="42.262517" lon="-8.675889">
        <ele>43.853</ele>
        <time>2019-04-30T10:27:50Z</time>
      </trkpt>
      <trkpt lat="42.262533" lon="-8.675852">
        <ele>44.381</ele>
        <time>2019-04-30T10:27:51Z</time>
      </trkpt>
      <trkpt lat="42.262546" lon="-8.675811">
        <ele>44.879</ele>
        <time>2019-04-30T10:27:52Z</time>
      </trkpt>
      <trkpt lat="42.262560" lon="-8.675766">
        <ele>44.891</ele>
        <time>2019-04-30T10:27:53Z</time>
      </trkpt>
      <trkpt lat="42.262574" lon="-8.675716">
        <ele>44.831</ele>
        <time>2019-04-30T10:27:54Z</time>
      </trkpt>
      <trkpt lat="42.262588" lon="-8.675661">
        <ele>45.365</ele>
        <time>2019-04-30T10:27:55Z</time>
      </trkpt>
      <trkpt lat="42.262796" lon="-8.674915">
        <ele>42.479</ele>
        <time>2019-04-30T10:28:05Z</time>
      </trkpt>
      <trkpt lat="42.262835" lon="-8.674842">
        <ele>42.405</ele>
        <time>2019-04-30T10:28:06Z</time>
      </trkpt>
      <trkpt lat="42.262970" lon="-8.674641">
        <ele>41.425</ele>
        <time>2019-04-30T10:28:09Z</time>
      </trkpt>
      <trkpt lat="42.263018" lon="-8.674582">
        <ele>40.908</ele>
        <time>2019-04-30T10:28:10Z</time>
      </trkpt>
      <trkpt lat="42.263069" lon="-8.674530">
        <ele>40.570</ele>
        <time>2019-04-30T10:28:11Z</time>
      </trkpt>
      <trkpt lat="42.263179" lon="-8.674441">
        <ele>40.063</ele>
        <time>2019-04-30T10:28:13Z</time>
      </trkpt>
      <trkpt lat="42.263289" lon="-8.674371">
        <ele>40.529</ele>
        <time>2019-04-30T10:28:15Z</time>
      </trkpt>
      <trkpt lat="42.263469" lon="-8.674297">
        <ele>40.987</ele>
        <time>2019-04-30T10:28:18Z</time>
      </trkpt>
      <trkpt lat="42.264412" lon="-8.674014">
        <ele>39.545</ele>
        <time>2019-04-30T10:28:33Z</time>
      </trkpt>
      <trkpt lat="42.265163" lon="-8.673739">
        <ele>38.127</ele>
        <time>2019-04-30T10:28:46Z</time>
      </trkpt>
      <trkpt lat="42.265453" lon="-8.673593">
        <ele>39.087</ele>
        <time>2019-04-30T10:28:52Z</time>
      </trkpt>
      <trkpt lat="42.265494" lon="-8.673561">
        <ele>39.531</ele>
        <time>2019-04-30T10:28:53Z</time>
      </trkpt>
      <trkpt lat="42.265794" lon="-8.673280">
        <ele>39.552</ele>
        <time>2019-04-30T10:28:59Z</time>
      </trkpt>
      <trkpt lat="42.265950" lon="-8.673083">
        <ele>39.053</ele>
        <time>2019-04-30T10:29:02Z</time>
      </trkpt>
      <trkpt lat="42.266016" lon="-8.673031">
        <ele>39.008</ele>
        <time>2019-04-30T10:29:03Z</time>
      </trkpt>
      <trkpt lat="42.266085" lon="-8.672982">
        <ele>39.008</ele>
        <time>2019-04-30T10:29:04Z</time>
      </trkpt>
      <trkpt lat="42.266147" lon="-8.672925">
        <ele>38.578</ele>
        <time>2019-04-30T10:29:05Z</time>
      </trkpt>
      <trkpt lat="42.266200" lon="-8.672863">
        <ele>38.581</ele>
        <time>2019-04-30T10:29:06Z</time>
      </trkpt>
      <trkpt lat="42.266785" lon="-8.672334">
        <ele>38.187</ele>
        <time>2019-04-30T10:29:17Z</time>
      </trkpt>
      <trkpt lat="42.266872" lon="-8.672248">
        <ele>38.175</ele>
        <time>2019-04-30T10:29:19Z</time>
      </trkpt>
      <trkpt lat="42.267203" lon="-8.671937">
        <ele>39.053</ele>
        <time>2019-04-30T10:29:27Z</time>
      </trkpt>
      <trkpt lat="42.267242" lon="-8.671900">
        <ele>39.065</ele>
        <time>2019-04-30T10:29:28Z</time>
      </trkpt>
      <trkpt lat="42.267284" lon="-8.671867">
        <ele>39.045</ele>
        <time>2019-04-30T10:29:29Z</time>
      </trkpt>
      <trkpt lat="42.267354" lon="-8.671788">
        <ele>39.029</ele>
        <time>2019-04-30T10:29:31Z</time>
      </trkpt>
      <trkpt lat="42.267393" lon="-8.671754">
        <ele>39.063</ele>
        <time>2019-04-30T10:29:32Z</time>
      </trkpt>
      <trkpt lat="42.267778" lon="-8.671402">
        <ele>41.444</ele>
        <time>2019-04-30T10:29:42Z</time>
      </trkpt>
      <trkpt lat="42.268311" lon="-8.670885">
        <ele>39.518</ele>
        <time>2019-04-30T10:29:58Z</time>
      </trkpt>
      <trkpt lat="42.268755" lon="-8.670491">
        <ele>42.408</ele>
        <time>2019-04-30T10:30:12Z</time>
      </trkpt>
      <trkpt lat="42.269116" lon="-8.670275">
        <ele>44.849</ele>
        <time>2019-04-30T10:30:24Z</time>
      </trkpt>
      <trkpt lat="42.269519" lon="-8.670062">
        <ele>45.872</ele>
        <time>2019-04-30T10:30:37Z</time>
      </trkpt>
      <trkpt lat="42.270014" lon="-8.669808">
        <ele>47.798</ele>
        <time>2019-04-30T10:30:53Z</time>
      </trkpt>
      <trkpt lat="42.270375" lon="-8.669298">
        <ele>51.556</ele>
        <time>2019-04-30T10:31:08Z</time>
      </trkpt>
      <trkpt lat="42.270603" lon="-8.668828">
        <ele>53.474</ele>
        <time>2019-04-30T10:31:20Z</time>
      </trkpt>
      <trkpt lat="42.270692" lon="-8.668338">
        <ele>52.016</ele>
        <time>2019-04-30T10:31:31Z</time>
      </trkpt>
      <trkpt lat="42.270548" lon="-8.667847">
        <ele>49.636</ele>
        <time>2019-04-30T10:31:40Z</time>
      </trkpt>
      <trkpt lat="42.270468" lon="-8.667541">
        <ele>48.660</ele>
        <time>2019-04-30T10:31:45Z</time>
      </trkpt>
      <trkpt lat="42.270274" lon="-8.666928">
        <ele>48.285</ele>
        <time>2019-04-30T10:31:55Z</time>
      </trkpt>
      <trkpt lat="42.270184" lon="-8.666604">
        <ele>49.189</ele>
        <time>2019-04-30T10:32:00Z</time>
      </trkpt>
      <trkpt lat="42.270175" lon="-8.666541">
        <ele>49.117</ele>
        <time>2019-04-30T10:32:01Z</time>
      </trkpt>
      <trkpt lat="42.270163" lon="-8.666484">
        <ele>49.608</ele>
        <time>2019-04-30T10:32:02Z</time>
      </trkpt>
      <trkpt lat="42.270165" lon="-8.666420">
        <ele>49.141</ele>
        <time>2019-04-30T10:32:03Z</time>
      </trkpt>
      <trkpt lat="42.270178" lon="-8.666358">
        <ele>49.644</ele>
        <time>2019-04-30T10:32:04Z</time>
      </trkpt>
      <trkpt lat="42.270198" lon="-8.666305">
        <ele>49.640</ele>
        <time>2019-04-30T10:32:05Z</time>
      </trkpt>
      <trkpt lat="42.270228" lon="-8.666263">
        <ele>49.668</ele>
        <time>2019-04-30T10:32:06Z</time>
      </trkpt>
      <trkpt lat="42.270258" lon="-8.666221">
        <ele>49.676</ele>
        <time>2019-04-30T10:32:07Z</time>
      </trkpt>
      <trkpt lat="42.270489" lon="-8.666098">
        <ele>51.058</ele>
        <time>2019-04-30T10:32:14Z</time>
      </trkpt>
      <trkpt lat="42.270520" lon="-8.666097">
        <ele>51.578</ele>
        <time>2019-04-30T10:32:15Z</time>
      </trkpt>
      <trkpt lat="42.270897" lon="-8.666123">
        <ele>53.042</ele>
        <time>2019-04-30T10:32:27Z</time>
      </trkpt>
      <trkpt lat="42.271316" lon="-8.666211">
        <ele>51.547</ele>
        <time>2019-04-30T10:32:40Z</time>
      </trkpt>
      <trkpt lat="42.271644" lon="-8.666297">
        <ele>53.429</ele>
        <time>2019-04-30T10:32:51Z</time>
      </trkpt>
      <trkpt lat="42.271977" lon="-8.666390">
        <ele>59.221</ele>
        <time>2019-04-30T10:33:03Z</time>
      </trkpt>
      <trkpt lat="42.272420" lon="-8.666512">
        <ele>65.508</ele>
        <time>2019-04-30T10:33:18Z</time>
      </trkpt>
      <trkpt lat="42.272741" lon="-8.666597">
        <ele>68.847</ele>
        <time>2019-04-30T10:33:30Z</time>
      </trkpt>
      <trkpt lat="42.273121" lon="-8.666712">
        <ele>71.240</ele>
        <time>2019-04-30T10:33:43Z</time>
      </trkpt>
      <trkpt lat="42.273503" lon="-8.666820">
        <ele>70.716</ele>
        <time>2019-04-30T10:33:56Z</time>
      </trkpt>
      <trkpt lat="42.274037" lon="-8.666974">
        <ele>73.264</ele>
        <time>2019-04-30T10:34:14Z</time>
      </trkpt>
      <trkpt lat="42.274500" lon="-8.667019">
        <ele>73.672</ele>
        <time>2019-04-30T10:34:29Z</time>
      </trkpt>
      <trkpt lat="42.274941" lon="-8.666884">
        <ele>73.624</ele>
        <time>2019-04-30T10:34:44Z</time>
      </trkpt>
      <trkpt lat="42.275151" lon="-8.666739">
        <ele>74.164</ele>
        <time>2019-04-30T10:34:52Z</time>
      </trkpt>
      <trkpt lat="42.275163" lon="-8.666706">
        <ele>74.628</ele>
        <time>2019-04-30T10:34:53Z</time>
      </trkpt>
      <trkpt lat="42.275325" lon="-8.666449">
        <ele>74.154</ele>
        <time>2019-04-30T10:35:02Z</time>
      </trkpt>
      <trkpt lat="42.275371" lon="-8.666436">
        <ele>74.656</ele>
        <time>2019-04-30T10:35:03Z</time>
      </trkpt>
      <trkpt lat="42.275725" lon="-8.666435">
        <ele>75.111</ele>
        <time>2019-04-30T10:35:12Z</time>
      </trkpt>
      <trkpt lat="42.275719" lon="-8.666454">
        <ele>75.608</ele>
        <time>2019-04-30T10:35:26Z</time>
      </trkpt>
      <trkpt lat="42.275728" lon="-8.666454">
        <ele>75.688</ele>
        <time>2019-04-30T10:35:53Z</time>
      </trkpt>
      <trkpt lat="42.275728" lon="-8.666461">
        <ele>75.681</ele>
        <time>2019-04-30T10:36:17Z</time>
      </trkpt>
      <trkpt lat="42.275730" lon="-8.666445">
        <ele>75.687</ele>
        <time>2019-04-30T10:36:18Z</time>
      </trkpt>
      <trkpt lat="42.275733" lon="-8.666423">
        <ele>75.655</ele>
        <time>2019-04-30T10:36:19Z</time>
      </trkpt>
      <trkpt lat="42.275739" lon="-8.666394">
        <ele>75.653</ele>
        <time>2019-04-30T10:36:20Z</time>
      </trkpt>
      <trkpt lat="42.275750" lon="-8.666366">
        <ele>75.615</ele>
        <time>2019-04-30T10:36:21Z</time>
      </trkpt>
      <trkpt lat="42.275768" lon="-8.666347">
        <ele>75.695</ele>
        <time>2019-04-30T10:36:22Z</time>
      </trkpt>
      <trkpt lat="42.275792" lon="-8.666336">
        <ele>76.039</ele>
        <time>2019-04-30T10:36:23Z</time>
      </trkpt>
      <trkpt lat="42.275816" lon="-8.666328">
        <ele>76.031</ele>
        <time>2019-04-30T10:36:24Z</time>
      </trkpt>
      <trkpt lat="42.275837" lon="-8.666325">
        <ele>76.061</ele>
        <time>2019-04-30T10:36:25Z</time>
      </trkpt>
      <trkpt lat="42.275857" lon="-8.666323">
        <ele>75.607</ele>
        <time>2019-04-30T10:36:26Z</time>
      </trkpt>
      <trkpt lat="42.275879" lon="-8.666317">
        <ele>75.608</ele>
        <time>2019-04-30T10:36:27Z</time>
      </trkpt>
      <trkpt lat="42.276187" lon="-8.666224">
        <ele>77.066</ele>
        <time>2019-04-30T10:36:40Z</time>
      </trkpt>
      <trkpt lat="42.276422" lon="-8.665972">
        <ele>78.969</ele>
        <time>2019-04-30T10:36:52Z</time>
      </trkpt>
      <trkpt lat="42.276692" lon="-8.665422">
        <ele>79.995</ele>
        <time>2019-04-30T10:37:07Z</time>
      </trkpt>
      <trkpt lat="42.276854" lon="-8.664999">
        <ele>79.463</ele>
        <time>2019-04-30T10:37:18Z</time>
      </trkpt>
      <trkpt lat="42.276855" lon="-8.664991">
        <ele>79.491</ele>
        <time>2019-04-30T10:37:32Z</time>
      </trkpt>
      <trkpt lat="42.276844" lon="-8.665011">
        <ele>78.093</ele>
        <time>2019-04-30T10:37:46Z</time>
      </trkpt>
      <trkpt lat="42.276830" lon="-8.664996">
        <ele>78.963</ele>
        <time>2019-04-30T10:38:26Z</time>
      </trkpt>
      <trkpt lat="42.276833" lon="-8.664983">
        <ele>80.847</ele>
        <time>2019-04-30T10:38:54Z</time>
      </trkpt>
      <trkpt lat="42.276843" lon="-8.664990">
        <ele>79.941</ele>
        <time>2019-04-30T10:39:32Z</time>
      </trkpt>
      <trkpt lat="42.276847" lon="-8.665001">
        <ele>80.481</ele>
        <time>2019-04-30T10:40:08Z</time>
      </trkpt>
      <trkpt lat="42.276846" lon="-8.665009">
        <ele>79.909</ele>
        <time>2019-04-30T10:40:45Z</time>
      </trkpt>
      <trkpt lat="42.276851" lon="-8.664997">
        <ele>80.408</ele>
        <time>2019-04-30T10:41:18Z</time>
      </trkpt>
      <trkpt lat="42.276864" lon="-8.664992">
        <ele>79.487</ele>
        <time>2019-04-30T10:41:32Z</time>
      </trkpt>
      <trkpt lat="42.276874" lon="-8.664977">
        <ele>79.470</ele>
        <time>2019-04-30T10:41:48Z</time>
      </trkpt>
      <trkpt lat="42.276880" lon="-8.664960">
        <ele>79.416</ele>
        <time>2019-04-30T10:41:49Z</time>
      </trkpt>
      <trkpt lat="42.276898" lon="-8.664935">
        <ele>78.414</ele>
        <time>2019-04-30T10:42:01Z</time>
      </trkpt>
      <trkpt lat="42.276904" lon="-8.664934">
        <ele>78.972</ele>
        <time>2019-04-30T10:42:22Z</time>
      </trkpt>
      <trkpt lat="42.276918" lon="-8.664946">
        <ele>78.494</ele>
        <time>2019-04-30T10:42:45Z</time>
      </trkpt>
      <trkpt lat="42.276921" lon="-8.664934">
        <ele>78.024</ele>
        <time>2019-04-30T10:43:11Z</time>
      </trkpt>
      <trkpt lat="42.276916" lon="-8.664914">
        <ele>78.998</ele>
        <time>2019-04-30T10:43:32Z</time>
      </trkpt>
      <trkpt lat="42.276941" lon="-8.664882">
        <ele>78.942</ele>
        <time>2019-04-30T10:43:34Z</time>
      </trkpt>
      <trkpt lat="42.276954" lon="-8.664858">
        <ele>78.922</ele>
        <time>2019-04-30T10:43:35Z</time>
      </trkpt>
      <trkpt lat="42.276961" lon="-8.664833">
        <ele>78.914</ele>
        <time>2019-04-30T10:43:36Z</time>
      </trkpt>
      <trkpt lat="42.276967" lon="-8.664807">
        <ele>78.908</ele>
        <time>2019-04-30T10:43:37Z</time>
      </trkpt>
      <trkpt lat="42.276977" lon="-8.664778">
        <ele>78.947</ele>
        <time>2019-04-30T10:43:38Z</time>
      </trkpt>
      <trkpt lat="42.276991" lon="-8.664748">
        <ele>79.450</ele>
        <time>2019-04-30T10:43:39Z</time>
      </trkpt>
      <trkpt lat="42.277005" lon="-8.664718">
        <ele>79.476</ele>
        <time>2019-04-30T10:43:40Z</time>
      </trkpt>
      <trkpt lat="42.277020" lon="-8.664685">
        <ele>79.494</ele>
        <time>2019-04-30T10:43:41Z</time>
      </trkpt>
      <trkpt lat="42.277041" lon="-8.664656">
        <ele>79.482</ele>
        <time>2019-04-30T10:43:42Z</time>
      </trkpt>
      <trkpt lat="42.277066" lon="-8.664628">
        <ele>79.414</ele>
        <time>2019-04-30T10:43:43Z</time>
      </trkpt>
      <trkpt lat="42.277085" lon="-8.664592">
        <ele>79.484</ele>
        <time>2019-04-30T10:43:44Z</time>
      </trkpt>
      <trkpt lat="42.277102" lon="-8.664554">
        <ele>79.428</ele>
        <time>2019-04-30T10:43:45Z</time>
      </trkpt>
      <trkpt lat="42.277120" lon="-8.664515">
        <ele>79.457</ele>
        <time>2019-04-30T10:43:46Z</time>
      </trkpt>
      <trkpt lat="42.277143" lon="-8.664480">
        <ele>79.400</ele>
        <time>2019-04-30T10:43:47Z</time>
      </trkpt>
      <trkpt lat="42.277166" lon="-8.664446">
        <ele>79.420</ele>
        <time>2019-04-30T10:43:48Z</time>
      </trkpt>
      <trkpt lat="42.277188" lon="-8.664419">
        <ele>79.408</ele>
        <time>2019-04-30T10:43:49Z</time>
      </trkpt>
      <trkpt lat="42.277210" lon="-8.664393">
        <ele>79.488</ele>
        <time>2019-04-30T10:43:50Z</time>
      </trkpt>
      <trkpt lat="42.277386" lon="-8.664169">
        <ele>83.271</ele>
        <time>2019-04-30T10:43:59Z</time>
      </trkpt>
      <trkpt lat="42.277427" lon="-8.664103">
        <ele>84.717</ele>
        <time>2019-04-30T10:44:02Z</time>
      </trkpt>
      <trkpt lat="42.277433" lon="-8.664077">
        <ele>85.245</ele>
        <time>2019-04-30T10:44:03Z</time>
      </trkpt>
      <trkpt lat="42.277441" lon="-8.664048">
        <ele>85.633</ele>
        <time>2019-04-30T10:44:04Z</time>
      </trkpt>
      <trkpt lat="42.277453" lon="-8.664023">
        <ele>86.655</ele>
        <time>2019-04-30T10:44:05Z</time>
      </trkpt>
      <trkpt lat="42.277462" lon="-8.663996">
        <ele>87.115</ele>
        <time>2019-04-30T10:44:06Z</time>
      </trkpt>
      <trkpt lat="42.277467" lon="-8.663975">
        <ele>87.189</ele>
        <time>2019-04-30T10:44:07Z</time>
      </trkpt>
      <trkpt lat="42.277473" lon="-8.663952">
        <ele>87.624</ele>
        <time>2019-04-30T10:44:08Z</time>
      </trkpt>
      <trkpt lat="42.277481" lon="-8.663930">
        <ele>87.604</ele>
        <time>2019-04-30T10:44:09Z</time>
      </trkpt>
      <trkpt lat="42.277486" lon="-8.663906">
        <ele>88.514</ele>
        <time>2019-04-30T10:44:10Z</time>
      </trkpt>
      <trkpt lat="42.277495" lon="-8.663886">
        <ele>88.508</ele>
        <time>2019-04-30T10:44:11Z</time>
      </trkpt>
      <trkpt lat="42.277500" lon="-8.663863">
        <ele>89.015</ele>
        <time>2019-04-30T10:44:12Z</time>
      </trkpt>
      <trkpt lat="42.277506" lon="-8.663837">
        <ele>89.588</ele>
        <time>2019-04-30T10:44:13Z</time>
      </trkpt>
      <trkpt lat="42.277542" lon="-8.663641">
        <ele>89.564</ele>
        <time>2019-04-30T10:44:22Z</time>
      </trkpt>
      <trkpt lat="42.277544" lon="-8.663614">
        <ele>90.012</ele>
        <time>2019-04-30T10:44:23Z</time>
      </trkpt>
      <trkpt lat="42.277549" lon="-8.663591">
        <ele>90.070</ele>
        <time>2019-04-30T10:44:24Z</time>
      </trkpt>
      <trkpt lat="42.277578" lon="-8.663506">
        <ele>90.552</ele>
        <time>2019-04-30T10:44:28Z</time>
      </trkpt>
      <trkpt lat="42.277592" lon="-8.663489">
        <ele>90.532</ele>
        <time>2019-04-30T10:44:29Z</time>
      </trkpt>
      <trkpt lat="42.277611" lon="-8.663478">
        <ele>90.556</ele>
        <time>2019-04-30T10:44:30Z</time>
      </trkpt>
      <trkpt lat="42.277629" lon="-8.663463">
        <ele>90.552</ele>
        <time>2019-04-30T10:44:31Z</time>
      </trkpt>
      <trkpt lat="42.277637" lon="-8.663442">
        <ele>90.553</ele>
        <time>2019-04-30T10:44:32Z</time>
      </trkpt>
      <trkpt lat="42.277645" lon="-8.663423">
        <ele>90.908</ele>
        <time>2019-04-30T10:44:33Z</time>
      </trkpt>
      <trkpt lat="42.277652" lon="-8.663403">
        <ele>91.408</ele>
        <time>2019-04-30T10:44:34Z</time>
      </trkpt>
      <trkpt lat="42.277663" lon="-8.663386">
        <ele>91.918</ele>
        <time>2019-04-30T10:44:35Z</time>
      </trkpt>
      <trkpt lat="42.277677" lon="-8.663376">
        <ele>92.431</ele>
        <time>2019-04-30T10:44:36Z</time>
      </trkpt>
      <trkpt lat="42.277692" lon="-8.663368">
        <ele>92.987</ele>
        <time>2019-04-30T10:44:37Z</time>
      </trkpt>
      <trkpt lat="42.277717" lon="-8.663367">
        <ele>93.345</ele>
        <time>2019-04-30T10:44:39Z</time>
      </trkpt>
      <trkpt lat="42.277730" lon="-8.663361">
        <ele>93.813</ele>
        <time>2019-04-30T10:44:40Z</time>
      </trkpt>
      <trkpt lat="42.277740" lon="-8.663346">
        <ele>93.825</ele>
        <time>2019-04-30T10:44:41Z</time>
      </trkpt>
      <trkpt lat="42.277751" lon="-8.663330">
        <ele>93.855</ele>
        <time>2019-04-30T10:44:42Z</time>
      </trkpt>
      <trkpt lat="42.277762" lon="-8.663314">
        <ele>93.859</ele>
        <time>2019-04-30T10:44:43Z</time>
      </trkpt>
      <trkpt lat="42.277815" lon="-8.663216">
        <ele>94.851</ele>
        <time>2019-04-30T10:44:48Z</time>
      </trkpt>
      <trkpt lat="42.277822" lon="-8.663195">
        <ele>95.301</ele>
        <time>2019-04-30T10:44:49Z</time>
      </trkpt>
      <trkpt lat="42.277837" lon="-8.663147">
        <ele>96.711</ele>
        <time>2019-04-30T10:44:52Z</time>
      </trkpt>
      <trkpt lat="42.277848" lon="-8.663099">
        <ele>97.708</ele>
        <time>2019-04-30T10:44:55Z</time>
      </trkpt>
      <trkpt lat="42.277856" lon="-8.663084">
        <ele>98.138</ele>
        <time>2019-04-30T10:44:56Z</time>
      </trkpt>
      <trkpt lat="42.277865" lon="-8.663068">
        <ele>98.671</ele>
        <time>2019-04-30T10:44:57Z</time>
      </trkpt>
      <trkpt lat="42.277916" lon="-8.662960">
        <ele>102.567</ele>
        <time>2019-04-30T10:45:05Z</time>
      </trkpt>
      <trkpt lat="42.277926" lon="-8.662942">
        <ele>103.035</ele>
        <time>2019-04-30T10:45:06Z</time>
      </trkpt>
      <trkpt lat="42.277935" lon="-8.662920">
        <ele>103.423</ele>
        <time>2019-04-30T10:45:07Z</time>
      </trkpt>
      <trkpt lat="42.277954" lon="-8.662760">
        <ele>108.755</ele>
        <time>2019-04-30T10:45:19Z</time>
      </trkpt>
      <trkpt lat="42.277977" lon="-8.662573">
        <ele>115.535</ele>
        <time>2019-04-30T10:45:33Z</time>
      </trkpt>
      <trkpt lat="42.277973" lon="-8.662555">
        <ele>116.479</ele>
        <time>2019-04-30T10:45:34Z</time>
      </trkpt>
      <trkpt lat="42.277948" lon="-8.662457">
        <ele>116.956</ele>
        <time>2019-04-30T10:45:40Z</time>
      </trkpt>
      <trkpt lat="42.277938" lon="-8.662371">
        <ele>115.559</ele>
        <time>2019-04-30T10:45:45Z</time>
      </trkpt>
      <trkpt lat="42.277929" lon="-8.662307">
        <ele>114.514</ele>
        <time>2019-04-30T10:45:49Z</time>
      </trkpt>
      <trkpt lat="42.277920" lon="-8.662228">
        <ele>113.008</ele>
        <time>2019-04-30T10:45:55Z</time>
      </trkpt>
      <trkpt lat="42.277918" lon="-8.662211">
        <ele>113.098</ele>
        <time>2019-04-30T10:45:56Z</time>
      </trkpt>
      <trkpt lat="42.277914" lon="-8.662194">
        <ele>112.651</ele>
        <time>2019-04-30T10:45:57Z</time>
      </trkpt>
      <trkpt lat="42.277908" lon="-8.662180">
        <ele>112.147</ele>
        <time>2019-04-30T10:45:58Z</time>
      </trkpt>
      <trkpt lat="42.277901" lon="-8.662164">
        <ele>112.135</ele>
        <time>2019-04-30T10:45:59Z</time>
      </trkpt>
      <trkpt lat="42.277895" lon="-8.662147">
        <ele>112.183</ele>
        <time>2019-04-30T10:46:00Z</time>
      </trkpt>
      <trkpt lat="42.277884" lon="-8.662036">
        <ele>115.045</ele>
        <time>2019-04-30T10:46:06Z</time>
      </trkpt>
      <trkpt lat="42.277870" lon="-8.662004">
        <ele>115.545</ele>
        <time>2019-04-30T10:46:08Z</time>
      </trkpt>
      <trkpt lat="42.277869" lon="-8.661984">
        <ele>115.979</ele>
        <time>2019-04-30T10:46:09Z</time>
      </trkpt>
      <trkpt lat="42.277868" lon="-8.661962">
        <ele>116.458</ele>
        <time>2019-04-30T10:46:10Z</time>
      </trkpt>
      <trkpt lat="42.277863" lon="-8.661936">
        <ele>116.952</ele>
        <time>2019-04-30T10:46:11Z</time>
      </trkpt>
      <trkpt lat="42.277856" lon="-8.661914">
        <ele>117.417</ele>
        <time>2019-04-30T10:46:12Z</time>
      </trkpt>
      <trkpt lat="42.277853" lon="-8.661891">
        <ele>117.408</ele>
        <time>2019-04-30T10:46:13Z</time>
      </trkpt>
      <trkpt lat="42.277854" lon="-8.661863">
        <ele>117.948</ele>
        <time>2019-04-30T10:46:14Z</time>
      </trkpt>
      <trkpt lat="42.277857" lon="-8.661833">
        <ele>118.371</ele>
        <time>2019-04-30T10:46:15Z</time>
      </trkpt>
      <trkpt lat="42.277855" lon="-8.661807">
        <ele>119.367</ele>
        <time>2019-04-30T10:46:16Z</time>
      </trkpt>
      <trkpt lat="42.277854" lon="-8.661783">
        <ele>119.875</ele>
        <time>2019-04-30T10:46:17Z</time>
      </trkpt>
      <trkpt lat="42.277852" lon="-8.661766">
        <ele>120.393</ele>
        <time>2019-04-30T10:46:18Z</time>
      </trkpt>
      <trkpt lat="42.277845" lon="-8.661694">
        <ele>121.225</ele>
        <time>2019-04-30T10:46:23Z</time>
      </trkpt>
      <trkpt lat="42.277846" lon="-8.661668">
        <ele>121.765</ele>
        <time>2019-04-30T10:46:24Z</time>
      </trkpt>
      <trkpt lat="42.277855" lon="-8.661632">
        <ele>121.229</ele>
        <time>2019-04-30T10:46:25Z</time>
      </trkpt>
      <trkpt lat="42.277866" lon="-8.661598">
        <ele>120.794</ele>
        <time>2019-04-30T10:46:26Z</time>
      </trkpt>
      <trkpt lat="42.277868" lon="-8.661552">
        <ele>121.257</ele>
        <time>2019-04-30T10:46:27Z</time>
      </trkpt>
      <trkpt lat="42.277869" lon="-8.661501">
        <ele>121.222</ele>
        <time>2019-04-30T10:46:28Z</time>
      </trkpt>
      <trkpt lat="42.277877" lon="-8.661450">
        <ele>121.208</ele>
        <time>2019-04-30T10:46:29Z</time>
      </trkpt>
      <trkpt lat="42.277883" lon="-8.661394">
        <ele>121.712</ele>
        <time>2019-04-30T10:46:30Z</time>
      </trkpt>
      <trkpt lat="42.277882" lon="-8.661346">
        <ele>122.215</ele>
        <time>2019-04-30T10:46:31Z</time>
      </trkpt>
      <trkpt lat="42.277881" lon="-8.661302">
        <ele>122.761</ele>
        <time>2019-04-30T10:46:32Z</time>
      </trkpt>
      <trkpt lat="42.277881" lon="-8.661258">
        <ele>123.119</ele>
        <time>2019-04-30T10:46:33Z</time>
      </trkpt>
      <trkpt lat="42.277883" lon="-8.661215">
        <ele>123.677</ele>
        <time>2019-04-30T10:46:34Z</time>
      </trkpt>
      <trkpt lat="42.277889" lon="-8.661172">
        <ele>124.669</ele>
        <time>2019-04-30T10:46:35Z</time>
      </trkpt>
      <trkpt lat="42.277896" lon="-8.661133">
        <ele>125.189</ele>
        <time>2019-04-30T10:46:36Z</time>
      </trkpt>
      <trkpt lat="42.277905" lon="-8.661091">
        <ele>125.563</ele>
        <time>2019-04-30T10:46:37Z</time>
      </trkpt>
      <trkpt lat="42.277913" lon="-8.661054">
        <ele>126.064</ele>
        <time>2019-04-30T10:46:38Z</time>
      </trkpt>
      <trkpt lat="42.277909" lon="-8.661011">
        <ele>127.006</ele>
        <time>2019-04-30T10:46:39Z</time>
      </trkpt>
      <trkpt lat="42.277896" lon="-8.660974">
        <ele>127.516</ele>
        <time>2019-04-30T10:46:40Z</time>
      </trkpt>
      <trkpt lat="42.277883" lon="-8.660935">
        <ele>127.908</ele>
        <time>2019-04-30T10:46:41Z</time>
      </trkpt>
      <trkpt lat="42.277879" lon="-8.660893">
        <ele>127.989</ele>
        <time>2019-04-30T10:46:42Z</time>
      </trkpt>
      <trkpt lat="42.277883" lon="-8.660849">
        <ele>128.462</ele>
        <time>2019-04-30T10:46:43Z</time>
      </trkpt>
      <trkpt lat="42.277892" lon="-8.660805">
        <ele>129.458</ele>
        <time>2019-04-30T10:46:44Z</time>
      </trkpt>
      <trkpt lat="42.277900" lon="-8.660762">
        <ele>130.476</ele>
        <time>2019-04-30T10:46:45Z</time>
      </trkpt>
      <trkpt lat="42.277906" lon="-8.660716">
        <ele>131.334</ele>
        <time>2019-04-30T10:46:46Z</time>
      </trkpt>
      <trkpt lat="42.277928" lon="-8.660346">
        <ele>137.626</ele>
        <time>2019-04-30T10:46:56Z</time>
      </trkpt>
      <trkpt lat="42.277922" lon="-8.660309">
        <ele>138.096</ele>
        <time>2019-04-30T10:46:57Z</time>
      </trkpt>
      <trkpt lat="42.277916" lon="-8.660270">
        <ele>138.520</ele>
        <time>2019-04-30T10:46:58Z</time>
      </trkpt>
      <trkpt lat="42.277876" lon="-8.660114">
        <ele>141.423</ele>
        <time>2019-04-30T10:47:07Z</time>
      </trkpt>
      <trkpt lat="42.277878" lon="-8.660100">
        <ele>141.483</ele>
        <time>2019-04-30T10:47:08Z</time>
      </trkpt>
      <trkpt lat="42.277883" lon="-8.660085">
        <ele>141.411</ele>
        <time>2019-04-30T10:47:09Z</time>
      </trkpt>
      <trkpt lat="42.277887" lon="-8.660069">
        <ele>141.908</ele>
        <time>2019-04-30T10:47:10Z</time>
      </trkpt>
      <trkpt lat="42.277845" lon="-8.659988">
        <ele>141.475</ele>
        <time>2019-04-30T10:47:16Z</time>
      </trkpt>
      <trkpt lat="42.277709" lon="-8.659669">
        <ele>139.098</ele>
        <time>2019-04-30T10:47:26Z</time>
      </trkpt>
      <trkpt lat="42.277675" lon="-8.659537">
        <ele>140.054</ele>
        <time>2019-04-30T10:47:30Z</time>
      </trkpt>
      <trkpt lat="42.277664" lon="-8.659505">
        <ele>140.022</ele>
        <time>2019-04-30T10:47:31Z</time>
      </trkpt>
      <trkpt lat="42.277659" lon="-8.659470">
        <ele>140.460</ele>
        <time>2019-04-30T10:47:32Z</time>
      </trkpt>
      <trkpt lat="42.277654" lon="-8.659436">
        <ele>140.942</ele>
        <time>2019-04-30T10:47:33Z</time>
      </trkpt>
      <trkpt lat="42.277648" lon="-8.659400">
        <ele>141.422</ele>
        <time>2019-04-30T10:47:34Z</time>
      </trkpt>
      <trkpt lat="42.277626" lon="-8.659244">
        <ele>142.896</ele>
        <time>2019-04-30T10:47:39Z</time>
      </trkpt>
      <trkpt lat="42.277619" lon="-8.659214">
        <ele>142.814</ele>
        <time>2019-04-30T10:47:40Z</time>
      </trkpt>
      <trkpt lat="42.277615" lon="-8.659181">
        <ele>143.354</ele>
        <time>2019-04-30T10:47:41Z</time>
      </trkpt>
      <trkpt lat="42.277611" lon="-8.659149">
        <ele>143.809</ele>
        <time>2019-04-30T10:47:42Z</time>
      </trkpt>
      <trkpt lat="42.277607" lon="-8.659118">
        <ele>143.808</ele>
        <time>2019-04-30T10:47:43Z</time>
      </trkpt>
      <trkpt lat="42.277604" lon="-8.658904">
        <ele>143.324</ele>
        <time>2019-04-30T10:47:51Z</time>
      </trkpt>
      <trkpt lat="42.277597" lon="-8.658884">
        <ele>142.837</ele>
        <time>2019-04-30T10:47:52Z</time>
      </trkpt>
      <trkpt lat="42.277589" lon="-8.658861">
        <ele>142.853</ele>
        <time>2019-04-30T10:47:53Z</time>
      </trkpt>
      <trkpt lat="42.277584" lon="-8.658835">
        <ele>142.411</ele>
        <time>2019-04-30T10:47:54Z</time>
      </trkpt>
      <trkpt lat="42.277581" lon="-8.658811">
        <ele>142.429</ele>
        <time>2019-04-30T10:47:55Z</time>
      </trkpt>
      <trkpt lat="42.277612" lon="-8.658570">
        <ele>143.821</ele>
        <time>2019-04-30T10:48:04Z</time>
      </trkpt>
      <trkpt lat="42.277617" lon="-8.658542">
        <ele>143.851</ele>
        <time>2019-04-30T10:48:05Z</time>
      </trkpt>
      <trkpt lat="42.277617" lon="-8.658516">
        <ele>144.315</ele>
        <time>2019-04-30T10:48:06Z</time>
      </trkpt>
      <trkpt lat="42.277612" lon="-8.658491">
        <ele>144.889</ele>
        <time>2019-04-30T10:48:07Z</time>
      </trkpt>
      <trkpt lat="42.277603" lon="-8.658472">
        <ele>144.806</ele>
        <time>2019-04-30T10:48:08Z</time>
      </trkpt>
      <trkpt lat="42.277599" lon="-8.658456">
        <ele>145.326</ele>
        <time>2019-04-30T10:48:09Z</time>
      </trkpt>
      <trkpt lat="42.277596" lon="-8.658441">
        <ele>145.308</ele>
        <time>2019-04-30T10:48:10Z</time>
      </trkpt>
      <trkpt lat="42.277593" lon="-8.658423">
        <ele>145.351</ele>
        <time>2019-04-30T10:48:11Z</time>
      </trkpt>
      <trkpt lat="42.277577" lon="-8.658394">
        <ele>146.284</ele>
        <time>2019-04-30T10:48:14Z</time>
      </trkpt>
      <trkpt lat="42.277564" lon="-8.658430">
        <ele>147.220</ele>
        <time>2019-04-30T10:48:26Z</time>
      </trkpt>
      <trkpt lat="42.277539" lon="-8.658410">
        <ele>147.718</ele>
        <time>2019-04-30T10:48:43Z</time>
      </trkpt>
      <trkpt lat="42.277514" lon="-8.658369">
        <ele>150.156</ele>
        <time>2019-04-30T10:49:12Z</time>
      </trkpt>
      <trkpt lat="42.277514" lon="-8.658386">
        <ele>149.658</ele>
        <time>2019-04-30T10:49:14Z</time>
      </trkpt>
      <trkpt lat="42.277509" lon="-8.658401">
        <ele>149.628</ele>
        <time>2019-04-30T10:49:15Z</time>
      </trkpt>
      <trkpt lat="42.277504" lon="-8.658423">
        <ele>149.682</ele>
        <time>2019-04-30T10:49:16Z</time>
      </trkpt>
      <trkpt lat="42.277499" lon="-8.658454">
        <ele>149.637</ele>
        <time>2019-04-30T10:49:17Z</time>
      </trkpt>
      <trkpt lat="42.277489" lon="-8.658482">
        <ele>149.149</ele>
        <time>2019-04-30T10:49:18Z</time>
      </trkpt>
      <trkpt lat="42.277476" lon="-8.658507">
        <ele>149.113</ele>
        <time>2019-04-30T10:49:19Z</time>
      </trkpt>
      <trkpt lat="42.277440" lon="-8.658584">
        <ele>149.608</ele>
        <time>2019-04-30T10:49:23Z</time>
      </trkpt>
      <trkpt lat="42.277438" lon="-8.658605">
        <ele>149.666</ele>
        <time>2019-04-30T10:49:24Z</time>
      </trkpt>
      <trkpt lat="42.277431" lon="-8.658631">
        <ele>149.129</ele>
        <time>2019-04-30T10:49:25Z</time>
      </trkpt>
      <trkpt lat="42.277424" lon="-8.658655">
        <ele>148.625</ele>
        <time>2019-04-30T10:49:26Z</time>
      </trkpt>
      <trkpt lat="42.277415" lon="-8.658676">
        <ele>148.683</ele>
        <time>2019-04-30T10:49:27Z</time>
      </trkpt>
      <trkpt lat="42.277378" lon="-8.658787">
        <ele>150.581</ele>
        <time>2019-04-30T10:49:33Z</time>
      </trkpt>
      <trkpt lat="42.277362" lon="-8.658816">
        <ele>152.093</ele>
        <time>2019-04-30T10:49:35Z</time>
      </trkpt>
      <trkpt lat="42.277351" lon="-8.658838">
        <ele>152.983</ele>
        <time>2019-04-30T10:49:37Z</time>
      </trkpt>
      <trkpt lat="42.277254" lon="-8.658766">
        <ele>153.427</ele>
        <time>2019-04-30T10:49:44Z</time>
      </trkpt>
      <trkpt lat="42.277226" lon="-8.658647">
        <ele>153.498</ele>
        <time>2019-04-30T10:49:50Z</time>
      </trkpt>
      <trkpt lat="42.277230" lon="-8.658508">
        <ele>157.315</ele>
        <time>2019-04-30T10:50:00Z</time>
      </trkpt>
      <trkpt lat="42.277197" lon="-8.658359">
        <ele>161.626</ele>
        <time>2019-04-30T10:50:09Z</time>
      </trkpt>
      <trkpt lat="42.277144" lon="-8.658353">
        <ele>164.008</ele>
        <time>2019-04-30T10:50:14Z</time>
      </trkpt>
      <trkpt lat="42.277068" lon="-8.658514">
        <ele>167.862</ele>
        <time>2019-04-30T10:50:27Z</time>
      </trkpt>
      <trkpt lat="42.277034" lon="-8.658679">
        <ele>170.245</ele>
        <time>2019-04-30T10:50:41Z</time>
      </trkpt>
      <trkpt lat="42.277019" lon="-8.658648">
        <ele>173.171</ele>
        <time>2019-04-30T10:50:50Z</time>
      </trkpt>
      <trkpt lat="42.277039" lon="-8.658564">
        <ele>176.569</ele>
        <time>2019-04-30T10:51:03Z</time>
      </trkpt>
      <trkpt lat="42.277024" lon="-8.658589">
        <ele>177.987</ele>
        <time>2019-04-30T10:51:27Z</time>
      </trkpt>
      <trkpt lat="42.277028" lon="-8.658580">
        <ele>178.449</ele>
        <time>2019-04-30T10:51:38Z</time>
      </trkpt>
      <trkpt lat="42.277014" lon="-8.658398">
        <ele>177.949</ele>
        <time>2019-04-30T10:51:48Z</time>
      </trkpt>
      <trkpt lat="42.277029" lon="-8.658262">
        <ele>178.963</ele>
        <time>2019-04-30T10:52:00Z</time>
      </trkpt>
      <trkpt lat="42.277021" lon="-8.658256">
        <ele>178.929</ele>
        <time>2019-04-30T10:52:04Z</time>
      </trkpt>
      <trkpt lat="42.277009" lon="-8.658215">
        <ele>178.900</ele>
        <time>2019-04-30T10:52:07Z</time>
      </trkpt>
      <trkpt lat="42.277031" lon="-8.657962">
        <ele>177.520</ele>
        <time>2019-04-30T10:52:16Z</time>
      </trkpt>
      <trkpt lat="42.277034" lon="-8.657856">
        <ele>177.008</ele>
        <time>2019-04-30T10:52:19Z</time>
      </trkpt>
      <trkpt lat="42.277030" lon="-8.657581">
        <ele>177.955</ele>
        <time>2019-04-30T10:52:29Z</time>
      </trkpt>
      <trkpt lat="42.276994" lon="-8.657460">
        <ele>177.928</ele>
        <time>2019-04-30T10:52:32Z</time>
      </trkpt>
      <trkpt lat="42.276965" lon="-8.657204">
        <ele>176.074</ele>
        <time>2019-04-30T10:52:37Z</time>
      </trkpt>
      <trkpt lat="42.276817" lon="-8.656701">
        <ele>175.532</ele>
        <time>2019-04-30T10:52:48Z</time>
      </trkpt>
      <trkpt lat="42.276674" lon="-8.656277">
        <ele>173.180</ele>
        <time>2019-04-30T10:52:59Z</time>
      </trkpt>
      <trkpt lat="42.276637" lon="-8.655864">
        <ele>173.112</ele>
        <time>2019-04-30T10:53:11Z</time>
      </trkpt>
      <trkpt lat="42.276860" lon="-8.655643">
        <ele>172.232</ele>
        <time>2019-04-30T10:53:23Z</time>
      </trkpt>
      <trkpt lat="42.277049" lon="-8.655408">
        <ele>173.616</ele>
        <time>2019-04-30T10:53:31Z</time>
      </trkpt>
      <trkpt lat="42.277247" lon="-8.655192">
        <ele>174.116</ele>
        <time>2019-04-30T10:53:41Z</time>
      </trkpt>
      <trkpt lat="42.277459" lon="-8.654812">
        <ele>172.676</ele>
        <time>2019-04-30T10:53:55Z</time>
      </trkpt>
      <trkpt lat="42.277651" lon="-8.654352">
        <ele>170.213</ele>
        <time>2019-04-30T10:54:11Z</time>
      </trkpt>
      <trkpt lat="42.277990" lon="-8.654024">
        <ele>168.808</ele>
        <time>2019-04-30T10:54:25Z</time>
      </trkpt>
      <trkpt lat="42.278344" lon="-8.653658">
        <ele>168.324</ele>
        <time>2019-04-30T10:54:40Z</time>
      </trkpt>
      <trkpt lat="42.278762" lon="-8.653264">
        <ele>168.317</ele>
        <time>2019-04-30T10:54:54Z</time>
      </trkpt>
      <trkpt lat="42.279264" lon="-8.652781">
        <ele>167.873</ele>
        <time>2019-04-30T10:55:09Z</time>
      </trkpt>
      <trkpt lat="42.279299" lon="-8.652677">
        <ele>167.491</ele>
        <time>2019-04-30T10:55:11Z</time>
      </trkpt>
      <trkpt lat="42.279306" lon="-8.652619">
        <ele>167.489</ele>
        <time>2019-04-30T10:55:12Z</time>
      </trkpt>
      <trkpt lat="42.279316" lon="-8.652562">
        <ele>167.821</ele>
        <time>2019-04-30T10:55:13Z</time>
      </trkpt>
      <trkpt lat="42.279331" lon="-8.652516">
        <ele>167.441</ele>
        <time>2019-04-30T10:55:14Z</time>
      </trkpt>
      <trkpt lat="42.279358" lon="-8.652479">
        <ele>167.485</ele>
        <time>2019-04-30T10:55:15Z</time>
      </trkpt>
      <trkpt lat="42.279394" lon="-8.652450">
        <ele>167.468</ele>
        <time>2019-04-30T10:55:16Z</time>
      </trkpt>
      <trkpt lat="42.279436" lon="-8.652427">
        <ele>166.942</ele>
        <time>2019-04-30T10:55:17Z</time>
      </trkpt>
      <trkpt lat="42.279484" lon="-8.652409">
        <ele>166.926</ele>
        <time>2019-04-30T10:55:18Z</time>
      </trkpt>
      <trkpt lat="42.279533" lon="-8.652404">
        <ele>166.908</ele>
        <time>2019-04-30T10:55:19Z</time>
      </trkpt>
      <trkpt lat="42.279580" lon="-8.652407">
        <ele>166.949</ele>
        <time>2019-04-30T10:55:20Z</time>
      </trkpt>
      <trkpt lat="42.279966" lon="-8.652323">
        <ele>166.412</ele>
        <time>2019-04-30T10:55:28Z</time>
      </trkpt>
      <trkpt lat="42.280633" lon="-8.652294">
        <ele>164.558</ele>
        <time>2019-04-30T10:55:41Z</time>
      </trkpt>
      <trkpt lat="42.280716" lon="-8.652281">
        <ele>165.056</ele>
        <time>2019-04-30T10:55:43Z</time>
      </trkpt>
      <trkpt lat="42.280762" lon="-8.652259">
        <ele>165.094</ele>
        <time>2019-04-30T10:55:44Z</time>
      </trkpt>
      <trkpt lat="42.280801" lon="-8.652225">
        <ele>165.426</ele>
        <time>2019-04-30T10:55:45Z</time>
      </trkpt>
      <trkpt lat="42.280872" lon="-8.652158">
        <ele>165.496</ele>
        <time>2019-04-30T10:55:47Z</time>
      </trkpt>
      <trkpt lat="42.280912" lon="-8.652135">
        <ele>165.430</ele>
        <time>2019-04-30T10:55:48Z</time>
      </trkpt>
      <trkpt lat="42.280951" lon="-8.652121">
        <ele>165.955</ele>
        <time>2019-04-30T10:55:49Z</time>
      </trkpt>
      <trkpt lat="42.281103" lon="-8.652092">
        <ele>165.907</ele>
        <time>2019-04-30T10:55:53Z</time>
      </trkpt>
      <trkpt lat="42.281152" lon="-8.652097">
        <ele>165.417</ele>
        <time>2019-04-30T10:55:54Z</time>
      </trkpt>
      <trkpt lat="42.281203" lon="-8.652093">
        <ele>165.908</ele>
        <time>2019-04-30T10:55:55Z</time>
      </trkpt>
      <trkpt lat="42.281252" lon="-8.652077">
        <ele>165.978</ele>
        <time>2019-04-30T10:55:56Z</time>
      </trkpt>
      <trkpt lat="42.281294" lon="-8.652055">
        <ele>165.421</ele>
        <time>2019-04-30T10:55:57Z</time>
      </trkpt>
      <trkpt lat="42.281327" lon="-8.652021">
        <ele>165.487</ele>
        <time>2019-04-30T10:55:58Z</time>
      </trkpt>
      <trkpt lat="42.281360" lon="-8.651985">
        <ele>165.445</ele>
        <time>2019-04-30T10:55:59Z</time>
      </trkpt>
      <trkpt lat="42.281508" lon="-8.651852">
        <ele>165.083</ele>
        <time>2019-04-30T10:56:03Z</time>
      </trkpt>
      <trkpt lat="42.281755" lon="-8.651637">
        <ele>165.425</ele>
        <time>2019-04-30T10:56:10Z</time>
      </trkpt>
      <trkpt lat="42.281787" lon="-8.651596">
        <ele>165.065</ele>
        <time>2019-04-30T10:56:11Z</time>
      </trkpt>
      <trkpt lat="42.281876" lon="-8.651478">
        <ele>163.579</ele>
        <time>2019-04-30T10:56:14Z</time>
      </trkpt>
      <trkpt lat="42.281985" lon="-8.651315">
        <ele>163.033</ele>
        <time>2019-04-30T10:56:18Z</time>
      </trkpt>
      <trkpt lat="42.282017" lon="-8.651271">
        <ele>162.623</ele>
        <time>2019-04-30T10:56:19Z</time>
      </trkpt>
      <trkpt lat="42.282054" lon="-8.651228">
        <ele>162.115</ele>
        <time>2019-04-30T10:56:20Z</time>
      </trkpt>
      <trkpt lat="42.282089" lon="-8.651179">
        <ele>161.608</ele>
        <time>2019-04-30T10:56:21Z</time>
      </trkpt>
      <trkpt lat="42.282122" lon="-8.651130">
        <ele>161.626</ele>
        <time>2019-04-30T10:56:22Z</time>
      </trkpt>
      <trkpt lat="42.282221" lon="-8.650973">
        <ele>160.249</ele>
        <time>2019-04-30T10:56:25Z</time>
      </trkpt>
      <trkpt lat="42.282245" lon="-8.650918">
        <ele>159.745</ele>
        <time>2019-04-30T10:56:26Z</time>
      </trkpt>
      <trkpt lat="42.282268" lon="-8.650862">
        <ele>159.723</ele>
        <time>2019-04-30T10:56:27Z</time>
      </trkpt>
      <trkpt lat="42.282314" lon="-8.650726">
        <ele>157.751</ele>
        <time>2019-04-30T10:56:34Z</time>
      </trkpt>
      <trkpt lat="42.282293" lon="-8.650715">
        <ele>161.613</ele>
        <time>2019-04-30T10:56:55Z</time>
      </trkpt>
      <trkpt lat="42.282281" lon="-8.650687">
        <ele>165.443</ele>
        <time>2019-04-30T10:57:20Z</time>
      </trkpt>
      <trkpt lat="42.282304" lon="-8.650705">
        <ele>168.387</ele>
        <time>2019-04-30T10:57:41Z</time>
      </trkpt>
      <trkpt lat="42.282387" lon="-8.650636">
        <ele>169.875</ele>
        <time>2019-04-30T10:58:03Z</time>
      </trkpt>
      <trkpt lat="42.282396" lon="-8.650620">
        <ele>169.828</ele>
        <time>2019-04-30T10:58:04Z</time>
      </trkpt>
      <trkpt lat="42.282402" lon="-8.650602">
        <ele>170.220</ele>
        <time>2019-04-30T10:58:05Z</time>
      </trkpt>
      <trkpt lat="42.282417" lon="-8.650576">
        <ele>170.208</ele>
        <time>2019-04-30T10:58:06Z</time>
      </trkpt>
      <trkpt lat="42.282634" lon="-8.650250">
        <ele>170.270</ele>
        <time>2019-04-30T10:58:15Z</time>
      </trkpt>
      <trkpt lat="42.282678" lon="-8.649939">
        <ele>169.343</ele>
        <time>2019-04-30T10:58:21Z</time>
      </trkpt>
      <trkpt lat="42.282693" lon="-8.649882">
        <ele>168.879</ele>
        <time>2019-04-30T10:58:22Z</time>
      </trkpt>
      <trkpt lat="42.282835" lon="-8.649347">
        <ele>168.897</ele>
        <time>2019-04-30T10:58:32Z</time>
      </trkpt>
      <trkpt lat="42.282962" lon="-8.648846">
        <ele>172.685</ele>
        <time>2019-04-30T10:58:41Z</time>
      </trkpt>
      <trkpt lat="42.282974" lon="-8.648783">
        <ele>173.637</ele>
        <time>2019-04-30T10:58:42Z</time>
      </trkpt>
      <trkpt lat="42.283027" lon="-8.648433">
        <ele>175.177</ele>
        <time>2019-04-30T10:58:47Z</time>
      </trkpt>
      <trkpt lat="42.283050" lon="-8.648318">
        <ele>175.151</ele>
        <time>2019-04-30T10:58:49Z</time>
      </trkpt>
      <trkpt lat="42.283072" lon="-8.648260">
        <ele>175.144</ele>
        <time>2019-04-30T10:58:50Z</time>
      </trkpt>
      <trkpt lat="42.283149" lon="-8.647977">
        <ele>176.005</ele>
        <time>2019-04-30T10:58:55Z</time>
      </trkpt>
      <trkpt lat="42.283153" lon="-8.647910">
        <ele>176.015</ele>
        <time>2019-04-30T10:58:56Z</time>
      </trkpt>
      <trkpt lat="42.283146" lon="-8.647851">
        <ele>175.508</ele>
        <time>2019-04-30T10:58:57Z</time>
      </trkpt>
      <trkpt lat="42.283148" lon="-8.647800">
        <ele>175.587</ele>
        <time>2019-04-30T10:58:58Z</time>
      </trkpt>
      <trkpt lat="42.283165" lon="-8.647753">
        <ele>175.540</ele>
        <time>2019-04-30T10:58:59Z</time>
      </trkpt>
      <trkpt lat="42.283193" lon="-8.647704">
        <ele>175.126</ele>
        <time>2019-04-30T10:59:00Z</time>
      </trkpt>
      <trkpt lat="42.283225" lon="-8.647650">
        <ele>175.174</ele>
        <time>2019-04-30T10:59:01Z</time>
      </trkpt>
      <trkpt lat="42.283246" lon="-8.647589">
        <ele>174.642</ele>
        <time>2019-04-30T10:59:02Z</time>
      </trkpt>
      <trkpt lat="42.283260" lon="-8.647526">
        <ele>174.134</ele>
        <time>2019-04-30T10:59:03Z</time>
      </trkpt>
      <trkpt lat="42.283272" lon="-8.647459">
        <ele>173.644</ele>
        <time>2019-04-30T10:59:04Z</time>
      </trkpt>
      <trkpt lat="42.283278" lon="-8.647390">
        <ele>173.188</ele>
        <time>2019-04-30T10:59:05Z</time>
      </trkpt>
      <trkpt lat="42.283281" lon="-8.647322">
        <ele>172.664</ele>
        <time>2019-04-30T10:59:06Z</time>
      </trkpt>
      <trkpt lat="42.283286" lon="-8.647064">
        <ele>171.706</ele>
        <time>2019-04-30T10:59:10Z</time>
      </trkpt>
      <trkpt lat="42.283308" lon="-8.646371">
        <ele>170.716</ele>
        <time>2019-04-30T10:59:21Z</time>
      </trkpt>
      <trkpt lat="42.283294" lon="-8.646174">
        <ele>170.708</ele>
        <time>2019-04-30T10:59:24Z</time>
      </trkpt>
      <trkpt lat="42.283277" lon="-8.646112">
        <ele>170.269</ele>
        <time>2019-04-30T10:59:25Z</time>
      </trkpt>
      <trkpt lat="42.283252" lon="-8.646055">
        <ele>170.262</ele>
        <time>2019-04-30T10:59:26Z</time>
      </trkpt>
      <trkpt lat="42.283218" lon="-8.646011">
        <ele>169.858</ele>
        <time>2019-04-30T10:59:27Z</time>
      </trkpt>
      <trkpt lat="42.283181" lon="-8.645978">
        <ele>169.386</ele>
        <time>2019-04-30T10:59:28Z</time>
      </trkpt>
      <trkpt lat="42.283147" lon="-8.645948">
        <ele>169.324</ele>
        <time>2019-04-30T10:59:29Z</time>
      </trkpt>
      <trkpt lat="42.283076" lon="-8.645902">
        <ele>169.326</ele>
        <time>2019-04-30T10:59:31Z</time>
      </trkpt>
      <trkpt lat="42.283034" lon="-8.645872">
        <ele>169.376</ele>
        <time>2019-04-30T10:59:32Z</time>
      </trkpt>
      <trkpt lat="42.282954" lon="-8.645796">
        <ele>169.310</ele>
        <time>2019-04-30T10:59:34Z</time>
      </trkpt>
      <trkpt lat="42.282925" lon="-8.645747">
        <ele>169.382</ele>
        <time>2019-04-30T10:59:35Z</time>
      </trkpt>
      <trkpt lat="42.282911" lon="-8.645690">
        <ele>169.343</ele>
        <time>2019-04-30T10:59:36Z</time>
      </trkpt>
      <trkpt lat="42.282918" lon="-8.645630">
        <ele>169.317</ele>
        <time>2019-04-30T10:59:37Z</time>
      </trkpt>
      <trkpt lat="42.282938" lon="-8.645569">
        <ele>168.808</ele>
        <time>2019-04-30T10:59:38Z</time>
      </trkpt>
      <trkpt lat="42.282964" lon="-8.645510">
        <ele>168.881</ele>
        <time>2019-04-30T10:59:39Z</time>
      </trkpt>
      <trkpt lat="42.283206" lon="-8.645003">
        <ele>168.884</ele>
        <time>2019-04-30T10:59:48Z</time>
      </trkpt>
      <trkpt lat="42.283239" lon="-8.644951">
        <ele>168.830</ele>
        <time>2019-04-30T10:59:49Z</time>
      </trkpt>
      <trkpt lat="42.283268" lon="-8.644894">
        <ele>168.398</ele>
        <time>2019-04-30T10:59:50Z</time>
      </trkpt>
      <trkpt lat="42.283347" lon="-8.644730">
        <ele>168.356</ele>
        <time>2019-04-30T10:59:53Z</time>
      </trkpt>
      <trkpt lat="42.283377" lon="-8.644685">
        <ele>168.368</ele>
        <time>2019-04-30T10:59:54Z</time>
      </trkpt>
      <trkpt lat="42.283404" lon="-8.644643">
        <ele>168.388</ele>
        <time>2019-04-30T10:59:55Z</time>
      </trkpt>
      <trkpt lat="42.283427" lon="-8.644600">
        <ele>168.872</ele>
        <time>2019-04-30T10:59:56Z</time>
      </trkpt>
      <trkpt lat="42.283446" lon="-8.644555">
        <ele>168.893</ele>
        <time>2019-04-30T10:59:57Z</time>
      </trkpt>
      <trkpt lat="42.283461" lon="-8.644509">
        <ele>168.365</ele>
        <time>2019-04-30T10:59:58Z</time>
      </trkpt>
      <trkpt lat="42.283536" lon="-8.644332">
        <ele>167.821</ele>
        <time>2019-04-30T11:00:02Z</time>
      </trkpt>
      <trkpt lat="42.283558" lon="-8.644289">
        <ele>167.408</ele>
        <time>2019-04-30T11:00:03Z</time>
      </trkpt>
      <trkpt lat="42.283574" lon="-8.644246">
        <ele>166.932</ele>
        <time>2019-04-30T11:00:04Z</time>
      </trkpt>
      <trkpt lat="42.283596" lon="-8.644202">
        <ele>166.965</ele>
        <time>2019-04-30T11:00:05Z</time>
      </trkpt>
      <trkpt lat="42.283622" lon="-8.644157">
        <ele>167.491</ele>
        <time>2019-04-30T11:00:06Z</time>
      </trkpt>
      <trkpt lat="42.283717" lon="-8.643989">
        <ele>166.979</ele>
        <time>2019-04-30T11:00:10Z</time>
      </trkpt>
      <trkpt lat="42.283735" lon="-8.643937">
        <ele>166.997</ele>
        <time>2019-04-30T11:00:11Z</time>
      </trkpt>
      <trkpt lat="42.283785" lon="-8.643789">
        <ele>165.459</ele>
        <time>2019-04-30T11:00:14Z</time>
      </trkpt>
      <trkpt lat="42.283812" lon="-8.643743">
        <ele>165.499</ele>
        <time>2019-04-30T11:00:15Z</time>
      </trkpt>
      <trkpt lat="42.283908" lon="-8.643635">
        <ele>165.063</ele>
        <time>2019-04-30T11:00:18Z</time>
      </trkpt>
      <trkpt lat="42.284050" lon="-8.643500">
        <ele>164.021</ele>
        <time>2019-04-30T11:00:22Z</time>
      </trkpt>
      <trkpt lat="42.284090" lon="-8.643463">
        <ele>163.541</ele>
        <time>2019-04-30T11:00:23Z</time>
      </trkpt>
      <trkpt lat="42.284130" lon="-8.643428">
        <ele>163.005</ele>
        <time>2019-04-30T11:00:24Z</time>
      </trkpt>
      <trkpt lat="42.284167" lon="-8.643386">
        <ele>163.008</ele>
        <time>2019-04-30T11:00:25Z</time>
      </trkpt>
      <trkpt lat="42.284205" lon="-8.643341">
        <ele>162.665</ele>
        <time>2019-04-30T11:00:26Z</time>
      </trkpt>
      <trkpt lat="42.284382" lon="-8.643119">
        <ele>162.138</ele>
        <time>2019-04-30T11:00:31Z</time>
      </trkpt>
      <trkpt lat="42.284423" lon="-8.643077">
        <ele>162.124</ele>
        <time>2019-04-30T11:00:32Z</time>
      </trkpt>
      <trkpt lat="42.284461" lon="-8.643030">
        <ele>162.112</ele>
        <time>2019-04-30T11:00:33Z</time>
      </trkpt>
      <trkpt lat="42.284495" lon="-8.642980">
        <ele>162.150</ele>
        <time>2019-04-30T11:00:34Z</time>
      </trkpt>
      <trkpt lat="42.284528" lon="-8.642925">
        <ele>162.182</ele>
        <time>2019-04-30T11:00:35Z</time>
      </trkpt>
      <trkpt lat="42.284562" lon="-8.642869">
        <ele>162.152</ele>
        <time>2019-04-30T11:00:36Z</time>
      </trkpt>
      <trkpt lat="42.284731" lon="-8.642593">
        <ele>162.686</ele>
        <time>2019-04-30T11:00:41Z</time>
      </trkpt>
      <trkpt lat="42.284755" lon="-8.642529">
        <ele>163.034</ele>
        <time>2019-04-30T11:00:42Z</time>
      </trkpt>
      <trkpt lat="42.284786" lon="-8.642397">
        <ele>164.055</ele>
        <time>2019-04-30T11:00:44Z</time>
      </trkpt>
      <trkpt lat="42.284905" lon="-8.641757">
        <ele>164.510</ele>
        <time>2019-04-30T11:00:53Z</time>
      </trkpt>
      <trkpt lat="42.284902" lon="-8.641682">
        <ele>164.508</ele>
        <time>2019-04-30T11:00:54Z</time>
      </trkpt>
      <trkpt lat="42.284886" lon="-8.641615">
        <ele>164.536</ele>
        <time>2019-04-30T11:00:55Z</time>
      </trkpt>
      <trkpt lat="42.284866" lon="-8.641556">
        <ele>164.519</ele>
        <time>2019-04-30T11:00:56Z</time>
      </trkpt>
      <trkpt lat="42.284838" lon="-8.641500">
        <ele>164.565</ele>
        <time>2019-04-30T11:00:57Z</time>
      </trkpt>
      <trkpt lat="42.284813" lon="-8.641445">
        <ele>164.543</ele>
        <time>2019-04-30T11:00:58Z</time>
      </trkpt>
      <trkpt lat="42.284791" lon="-8.641396">
        <ele>164.531</ele>
        <time>2019-04-30T11:00:59Z</time>
      </trkpt>
      <trkpt lat="42.284768" lon="-8.641351">
        <ele>164.593</ele>
        <time>2019-04-30T11:01:00Z</time>
      </trkpt>
      <trkpt lat="42.284746" lon="-8.641306">
        <ele>164.543</ele>
        <time>2019-04-30T11:01:01Z</time>
      </trkpt>
      <trkpt lat="42.284646" lon="-8.641114">
        <ele>164.077</ele>
        <time>2019-04-30T11:01:05Z</time>
      </trkpt>
      <trkpt lat="42.284615" lon="-8.641072">
        <ele>164.089</ele>
        <time>2019-04-30T11:01:06Z</time>
      </trkpt>
      <trkpt lat="42.284584" lon="-8.641028">
        <ele>164.006</ele>
        <time>2019-04-30T11:01:07Z</time>
      </trkpt>
      <trkpt lat="42.284523" lon="-8.640935">
        <ele>164.026</ele>
        <time>2019-04-30T11:01:09Z</time>
      </trkpt>
      <trkpt lat="42.284494" lon="-8.640888">
        <ele>163.508</ele>
        <time>2019-04-30T11:01:10Z</time>
      </trkpt>
      <trkpt lat="42.284466" lon="-8.640838">
        <ele>163.531</ele>
        <time>2019-04-30T11:01:11Z</time>
      </trkpt>
      <trkpt lat="42.284335" lon="-8.640600">
        <ele>162.664</ele>
        <time>2019-04-30T11:01:16Z</time>
      </trkpt>
      <trkpt lat="42.284307" lon="-8.640566">
        <ele>162.640</ele>
        <time>2019-04-30T11:01:17Z</time>
      </trkpt>
      <trkpt lat="42.284276" lon="-8.640538">
        <ele>162.678</ele>
        <time>2019-04-30T11:01:18Z</time>
      </trkpt>
      <trkpt lat="42.284061" lon="-8.640312">
        <ele>163.036</ele>
        <time>2019-04-30T11:01:25Z</time>
      </trkpt>
      <trkpt lat="42.284030" lon="-8.640263">
        <ele>163.098</ele>
        <time>2019-04-30T11:01:26Z</time>
      </trkpt>
      <trkpt lat="42.283861" lon="-8.640044">
        <ele>164.538</ele>
        <time>2019-04-30T11:01:31Z</time>
      </trkpt>
      <trkpt lat="42.283697" lon="-8.639883">
        <ele>165.022</ele>
        <time>2019-04-30T11:01:36Z</time>
      </trkpt>
      <trkpt lat="42.283659" lon="-8.639850">
        <ele>165.032</ele>
        <time>2019-04-30T11:01:37Z</time>
      </trkpt>
      <trkpt lat="42.283621" lon="-8.639824">
        <ele>165.492</ele>
        <time>2019-04-30T11:01:38Z</time>
      </trkpt>
      <trkpt lat="42.283578" lon="-8.639796">
        <ele>165.411</ele>
        <time>2019-04-30T11:01:39Z</time>
      </trkpt>
      <trkpt lat="42.283530" lon="-8.639768">
        <ele>165.408</ele>
        <time>2019-04-30T11:01:40Z</time>
      </trkpt>
      <trkpt lat="42.283487" lon="-8.639743">
        <ele>165.416</ele>
        <time>2019-04-30T11:01:41Z</time>
      </trkpt>
      <trkpt lat="42.283285" lon="-8.639628">
        <ele>165.959</ele>
        <time>2019-04-30T11:01:46Z</time>
      </trkpt>
      <trkpt lat="42.282848" lon="-8.639451">
        <ele>165.025</ele>
        <time>2019-04-30T11:01:57Z</time>
      </trkpt>
      <trkpt lat="42.282640" lon="-8.639383">
        <ele>164.053</ele>
        <time>2019-04-30T11:02:02Z</time>
      </trkpt>
      <trkpt lat="42.282584" lon="-8.639374">
        <ele>164.011</ele>
        <time>2019-04-30T11:02:03Z</time>
      </trkpt>
      <trkpt lat="42.282533" lon="-8.639365">
        <ele>164.013</ele>
        <time>2019-04-30T11:02:04Z</time>
      </trkpt>
      <trkpt lat="42.282438" lon="-8.639324">
        <ele>163.553</ele>
        <time>2019-04-30T11:02:06Z</time>
      </trkpt>
      <trkpt lat="42.282106" lon="-8.639142">
        <ele>161.657</ele>
        <time>2019-04-30T11:02:13Z</time>
      </trkpt>
      <trkpt lat="42.282072" lon="-8.639100">
        <ele>161.667</ele>
        <time>2019-04-30T11:02:14Z</time>
      </trkpt>
      <trkpt lat="42.282044" lon="-8.639051">
        <ele>161.681</ele>
        <time>2019-04-30T11:02:15Z</time>
      </trkpt>
      <trkpt lat="42.282020" lon="-8.638997">
        <ele>161.619</ele>
        <time>2019-04-30T11:02:16Z</time>
      </trkpt>
      <trkpt lat="42.281989" lon="-8.638923">
        <ele>161.608</ele>
        <time>2019-04-30T11:02:17Z</time>
      </trkpt>
      <trkpt lat="42.281958" lon="-8.638841">
        <ele>162.119</ele>
        <time>2019-04-30T11:02:18Z</time>
      </trkpt>
      <trkpt lat="42.281937" lon="-8.638761">
        <ele>161.642</ele>
        <time>2019-04-30T11:02:19Z</time>
      </trkpt>
      <trkpt lat="42.281828" lon="-8.638263">
        <ele>162.158</ele>
        <time>2019-04-30T11:02:26Z</time>
      </trkpt>
      <trkpt lat="42.281813" lon="-8.638205">
        <ele>162.166</ele>
        <time>2019-04-30T11:02:27Z</time>
      </trkpt>
      <trkpt lat="42.281803" lon="-8.638148">
        <ele>162.144</ele>
        <time>2019-04-30T11:02:28Z</time>
      </trkpt>
      <trkpt lat="42.281791" lon="-8.638094">
        <ele>162.176</ele>
        <time>2019-04-30T11:02:29Z</time>
      </trkpt>
      <trkpt lat="42.281775" lon="-8.638038">
        <ele>162.136</ele>
        <time>2019-04-30T11:02:30Z</time>
      </trkpt>
      <trkpt lat="42.281753" lon="-8.637980">
        <ele>162.190</ele>
        <time>2019-04-30T11:02:31Z</time>
      </trkpt>
      <trkpt lat="42.281722" lon="-8.637928">
        <ele>162.151</ele>
        <time>2019-04-30T11:02:32Z</time>
      </trkpt>
      <trkpt lat="42.281669" lon="-8.637838">
        <ele>162.101</ele>
        <time>2019-04-30T11:02:34Z</time>
      </trkpt>
      <trkpt lat="42.281652" lon="-8.637787">
        <ele>162.611</ele>
        <time>2019-04-30T11:02:35Z</time>
      </trkpt>
      <trkpt lat="42.281466" lon="-8.637203">
        <ele>167.408</ele>
        <time>2019-04-30T11:02:45Z</time>
      </trkpt>
      <trkpt lat="42.281446" lon="-8.637153">
        <ele>167.898</ele>
        <time>2019-04-30T11:02:46Z</time>
      </trkpt>
      <trkpt lat="42.281422" lon="-8.637103">
        <ele>168.371</ele>
        <time>2019-04-30T11:02:47Z</time>
      </trkpt>
      <trkpt lat="42.281391" lon="-8.637054">
        <ele>168.397</ele>
        <time>2019-04-30T11:02:48Z</time>
      </trkpt>
      <trkpt lat="42.281358" lon="-8.637005">
        <ele>169.315</ele>
        <time>2019-04-30T11:02:49Z</time>
      </trkpt>
      <trkpt lat="42.281328" lon="-8.636954">
        <ele>169.323</ele>
        <time>2019-04-30T11:02:50Z</time>
      </trkpt>
      <trkpt lat="42.281299" lon="-8.636902">
        <ele>169.325</ele>
        <time>2019-04-30T11:02:51Z</time>
      </trkpt>
      <trkpt lat="42.281278" lon="-8.636844">
        <ele>169.385</ele>
        <time>2019-04-30T11:02:52Z</time>
      </trkpt>
      <trkpt lat="42.281260" lon="-8.636781">
        <ele>169.349</ele>
        <time>2019-04-30T11:02:53Z</time>
      </trkpt>
      <trkpt lat="42.281240" lon="-8.636715">
        <ele>168.874</ele>
        <time>2019-04-30T11:02:54Z</time>
      </trkpt>
      <trkpt lat="42.281153" lon="-8.636458">
        <ele>168.356</ele>
        <time>2019-04-30T11:02:58Z</time>
      </trkpt>
      <trkpt lat="42.281127" lon="-8.636401">
        <ele>168.321</ele>
        <time>2019-04-30T11:02:59Z</time>
      </trkpt>
      <trkpt lat="42.281105" lon="-8.636344">
        <ele>168.308</ele>
        <time>2019-04-30T11:03:00Z</time>
      </trkpt>
      <trkpt lat="42.281067" lon="-8.636239">
        <ele>167.490</ele>
        <time>2019-04-30T11:03:02Z</time>
      </trkpt>
      <trkpt lat="42.281049" lon="-8.636188">
        <ele>167.413</ele>
        <time>2019-04-30T11:03:03Z</time>
      </trkpt>
      <trkpt lat="42.280956" lon="-8.635759">
        <ele>163.549</ele>
        <time>2019-04-30T11:03:10Z</time>
      </trkpt>
      <trkpt lat="42.280955" lon="-8.635694">
        <ele>163.547</ele>
        <time>2019-04-30T11:03:11Z</time>
      </trkpt>
      <trkpt lat="42.280953" lon="-8.635632">
        <ele>163.095</ele>
        <time>2019-04-30T11:03:12Z</time>
      </trkpt>
      <trkpt lat="42.280952" lon="-8.635569">
        <ele>162.647</ele>
        <time>2019-04-30T11:03:13Z</time>
      </trkpt>
      <trkpt lat="42.280951" lon="-8.635506">
        <ele>162.147</ele>
        <time>2019-04-30T11:03:14Z</time>
      </trkpt>
      <trkpt lat="42.280945" lon="-8.635446">
        <ele>161.691</ele>
        <time>2019-04-30T11:03:15Z</time>
      </trkpt>
      <trkpt lat="42.280942" lon="-8.635402">
        <ele>161.669</ele>
        <time>2019-04-30T11:03:16Z</time>
      </trkpt>
      <trkpt lat="42.280933" lon="-8.635325">
        <ele>161.104</ele>
        <time>2019-04-30T11:03:20Z</time>
      </trkpt>
      <trkpt lat="42.280928" lon="-8.635296">
        <ele>161.124</ele>
        <time>2019-04-30T11:03:21Z</time>
      </trkpt>
      <trkpt lat="42.280919" lon="-8.635264">
        <ele>160.608</ele>
        <time>2019-04-30T11:03:22Z</time>
      </trkpt>
      <trkpt lat="42.280909" lon="-8.635221">
        <ele>160.619</ele>
        <time>2019-04-30T11:03:23Z</time>
      </trkpt>
      <trkpt lat="42.280897" lon="-8.635173">
        <ele>160.292</ele>
        <time>2019-04-30T11:03:24Z</time>
      </trkpt>
      <trkpt lat="42.280887" lon="-8.635130">
        <ele>159.788</ele>
        <time>2019-04-30T11:03:25Z</time>
      </trkpt>
      <trkpt lat="42.280874" lon="-8.635095">
        <ele>159.216</ele>
        <time>2019-04-30T11:03:26Z</time>
      </trkpt>
      <trkpt lat="42.280855" lon="-8.635065">
        <ele>158.734</ele>
        <time>2019-04-30T11:03:27Z</time>
      </trkpt>
      <trkpt lat="42.280838" lon="-8.635035">
        <ele>158.756</ele>
        <time>2019-04-30T11:03:28Z</time>
      </trkpt>
      <trkpt lat="42.280820" lon="-8.635010">
        <ele>158.256</ele>
        <time>2019-04-30T11:03:29Z</time>
      </trkpt>
      <trkpt lat="42.280803" lon="-8.634985">
        <ele>158.210</ele>
        <time>2019-04-30T11:03:30Z</time>
      </trkpt>
      <trkpt lat="42.280786" lon="-8.634957">
        <ele>158.246</ele>
        <time>2019-04-30T11:03:31Z</time>
      </trkpt>
      <trkpt lat="42.280772" lon="-8.634935">
        <ele>158.288</ele>
        <time>2019-04-30T11:03:32Z</time>
      </trkpt>
      <trkpt lat="42.280642" lon="-8.634811">
        <ele>159.216</ele>
        <time>2019-04-30T11:03:38Z</time>
      </trkpt>
      <trkpt lat="42.280624" lon="-8.634785">
        <ele>159.208</ele>
        <time>2019-04-30T11:03:39Z</time>
      </trkpt>
      <trkpt lat="42.280605" lon="-8.634762">
        <ele>159.297</ele>
        <time>2019-04-30T11:03:40Z</time>
      </trkpt>
      <trkpt lat="42.280580" lon="-8.634735">
        <ele>159.250</ele>
        <time>2019-04-30T11:03:41Z</time>
      </trkpt>
      <trkpt lat="42.280552" lon="-8.634701">
        <ele>159.236</ele>
        <time>2019-04-30T11:03:42Z</time>
      </trkpt>
      <trkpt lat="42.280353" lon="-8.634453">
        <ele>161.174</ele>
        <time>2019-04-30T11:03:52Z</time>
      </trkpt>
      <trkpt lat="42.280296" lon="-8.634410">
        <ele>161.172</ele>
        <time>2019-04-30T11:03:54Z</time>
      </trkpt>
      <trkpt lat="42.280274" lon="-8.634384">
        <ele>161.674</ele>
        <time>2019-04-30T11:03:55Z</time>
      </trkpt>
      <trkpt lat="42.280241" lon="-8.634325">
        <ele>162.174</ele>
        <time>2019-04-30T11:03:56Z</time>
      </trkpt>
      <trkpt lat="42.280219" lon="-8.634257">
        <ele>162.628</ele>
        <time>2019-04-30T11:03:57Z</time>
      </trkpt>
      <trkpt lat="42.280194" lon="-8.634181">
        <ele>163.591</ele>
        <time>2019-04-30T11:03:58Z</time>
      </trkpt>
      <trkpt lat="42.280182" lon="-8.634120">
        <ele>163.581</ele>
        <time>2019-04-30T11:03:59Z</time>
      </trkpt>
      <trkpt lat="42.280167" lon="-8.634055">
        <ele>164.019</ele>
        <time>2019-04-30T11:04:00Z</time>
      </trkpt>
      <trkpt lat="42.280150" lon="-8.633985">
        <ele>164.508</ele>
        <time>2019-04-30T11:04:01Z</time>
      </trkpt>
      <trkpt lat="42.280088" lon="-8.633784">
        <ele>165.482</ele>
        <time>2019-04-30T11:04:04Z</time>
      </trkpt>
      <trkpt lat="42.280059" lon="-8.633728">
        <ele>165.445</ele>
        <time>2019-04-30T11:04:05Z</time>
      </trkpt>
      <trkpt lat="42.279986" lon="-8.633573">
        <ele>166.411</ele>
        <time>2019-04-30T11:04:08Z</time>
      </trkpt>
      <trkpt lat="42.279966" lon="-8.633523">
        <ele>166.949</ele>
        <time>2019-04-30T11:04:09Z</time>
      </trkpt>
      <trkpt lat="42.279950" lon="-8.633470">
        <ele>167.897</ele>
        <time>2019-04-30T11:04:10Z</time>
      </trkpt>
      <trkpt lat="42.279932" lon="-8.633429">
        <ele>168.379</ele>
        <time>2019-04-30T11:04:11Z</time>
      </trkpt>
      <trkpt lat="42.279902" lon="-8.633389">
        <ele>168.899</ele>
        <time>2019-04-30T11:04:12Z</time>
      </trkpt>
      <trkpt lat="42.279873" lon="-8.633342">
        <ele>168.843</ele>
        <time>2019-04-30T11:04:13Z</time>
      </trkpt>
      <trkpt lat="42.279825" lon="-8.633236">
        <ele>169.346</ele>
        <time>2019-04-30T11:04:15Z</time>
      </trkpt>
      <trkpt lat="42.279760" lon="-8.633073">
        <ele>168.388</ele>
        <time>2019-04-30T11:04:18Z</time>
      </trkpt>
      <trkpt lat="42.279731" lon="-8.633022">
        <ele>167.816</ele>
        <time>2019-04-30T11:04:19Z</time>
      </trkpt>
      <trkpt lat="42.279675" lon="-8.632931">
        <ele>167.408</ele>
        <time>2019-04-30T11:04:21Z</time>
      </trkpt>
      <trkpt lat="42.279651" lon="-8.632885">
        <ele>167.497</ele>
        <time>2019-04-30T11:04:22Z</time>
      </trkpt>
      <trkpt lat="42.279594" lon="-8.632660">
        <ele>166.410</ele>
        <time>2019-04-30T11:04:26Z</time>
      </trkpt>
      <trkpt lat="42.279576" lon="-8.632536">
        <ele>165.976</ele>
        <time>2019-04-30T11:04:28Z</time>
      </trkpt>
      <trkpt lat="42.279566" lon="-8.632474">
        <ele>165.994</ele>
        <time>2019-04-30T11:04:29Z</time>
      </trkpt>
      <trkpt lat="42.279522" lon="-8.632162">
        <ele>164.572</ele>
        <time>2019-04-30T11:04:34Z</time>
      </trkpt>
      <trkpt lat="42.279492" lon="-8.632027">
        <ele>163.054</ele>
        <time>2019-04-30T11:04:36Z</time>
      </trkpt>
      <trkpt lat="42.279487" lon="-8.631959">
        <ele>162.694</ele>
        <time>2019-04-30T11:04:37Z</time>
      </trkpt>
      <trkpt lat="42.279480" lon="-8.631893">
        <ele>161.698</ele>
        <time>2019-04-30T11:04:38Z</time>
      </trkpt>
      <trkpt lat="42.279463" lon="-8.631833">
        <ele>160.646</ele>
        <time>2019-04-30T11:04:39Z</time>
      </trkpt>
      <trkpt lat="42.279438" lon="-8.631776">
        <ele>159.288</ele>
        <time>2019-04-30T11:04:40Z</time>
      </trkpt>
      <trkpt lat="42.279407" lon="-8.631722">
        <ele>158.216</ele>
        <time>2019-04-30T11:04:41Z</time>
      </trkpt>
      <trkpt lat="42.279370" lon="-8.631678">
        <ele>157.308</ele>
        <time>2019-04-30T11:04:42Z</time>
      </trkpt>
      <trkpt lat="42.279331" lon="-8.631640">
        <ele>156.327</ele>
        <time>2019-04-30T11:04:43Z</time>
      </trkpt>
      <trkpt lat="42.279257" lon="-8.631562">
        <ele>154.990</ele>
        <time>2019-04-30T11:04:45Z</time>
      </trkpt>
      <trkpt lat="42.278999" lon="-8.631200">
        <ele>152.526</ele>
        <time>2019-04-30T11:04:54Z</time>
      </trkpt>
      <trkpt lat="42.278912" lon="-8.630719">
        <ele>152.524</ele>
        <time>2019-04-30T11:05:03Z</time>
      </trkpt>
      <trkpt lat="42.278839" lon="-8.630236">
        <ele>151.092</ele>
        <time>2019-04-30T11:05:14Z</time>
      </trkpt>
      <trkpt lat="42.278820" lon="-8.630197">
        <ele>150.594</ele>
        <time>2019-04-30T11:05:15Z</time>
      </trkpt>
      <trkpt lat="42.278639" lon="-8.630036">
        <ele>148.124</ele>
        <time>2019-04-30T11:05:20Z</time>
      </trkpt>
      <trkpt lat="42.278272" lon="-8.629785">
        <ele>146.278</ele>
        <time>2019-04-30T11:05:31Z</time>
      </trkpt>
      <trkpt lat="42.278194" lon="-8.629748">
        <ele>146.267</ele>
        <time>2019-04-30T11:05:33Z</time>
      </trkpt>
      <trkpt lat="42.278111" lon="-8.629691">
        <ele>146.781</ele>
        <time>2019-04-30T11:05:35Z</time>
      </trkpt>
      <trkpt lat="42.277910" lon="-8.629643">
        <ele>147.219</ele>
        <time>2019-04-30T11:05:40Z</time>
      </trkpt>
      <trkpt lat="42.277794" lon="-8.629692">
        <ele>147.708</ele>
        <time>2019-04-30T11:05:43Z</time>
      </trkpt>
      <trkpt lat="42.277745" lon="-8.629703">
        <ele>148.149</ele>
        <time>2019-04-30T11:05:44Z</time>
      </trkpt>
      <trkpt lat="42.277555" lon="-8.629738">
        <ele>149.612</ele>
        <time>2019-04-30T11:05:48Z</time>
      </trkpt>
      <trkpt lat="42.277509" lon="-8.629739">
        <ele>149.688</ele>
        <time>2019-04-30T11:05:49Z</time>
      </trkpt>
      <trkpt lat="42.277461" lon="-8.629735">
        <ele>149.676</ele>
        <time>2019-04-30T11:05:50Z</time>
      </trkpt>
      <trkpt lat="42.277414" lon="-8.629713">
        <ele>150.174</ele>
        <time>2019-04-30T11:05:51Z</time>
      </trkpt>
      <trkpt lat="42.277371" lon="-8.629683">
        <ele>150.546</ele>
        <time>2019-04-30T11:05:52Z</time>
      </trkpt>
      <trkpt lat="42.277328" lon="-8.629649">
        <ele>150.516</ele>
        <time>2019-04-30T11:05:53Z</time>
      </trkpt>
      <trkpt lat="42.277283" lon="-8.629618">
        <ele>150.540</ele>
        <time>2019-04-30T11:05:54Z</time>
      </trkpt>
      <trkpt lat="42.277236" lon="-8.629596">
        <ele>150.561</ele>
        <time>2019-04-30T11:05:55Z</time>
      </trkpt>
      <trkpt lat="42.277092" lon="-8.629508">
        <ele>150.121</ele>
        <time>2019-04-30T11:05:58Z</time>
      </trkpt>
      <trkpt lat="42.276968" lon="-8.629383">
        <ele>149.113</ele>
        <time>2019-04-30T11:06:01Z</time>
      </trkpt>
      <trkpt lat="42.276924" lon="-8.629355">
        <ele>148.608</ele>
        <time>2019-04-30T11:06:02Z</time>
      </trkpt>
      <trkpt lat="42.276538" lon="-8.629132">
        <ele>147.259</ele>
        <time>2019-04-30T11:06:11Z</time>
      </trkpt>
      <trkpt lat="42.276437" lon="-8.629088">
        <ele>148.142</ele>
        <time>2019-04-30T11:06:13Z</time>
      </trkpt>
      <trkpt lat="42.276388" lon="-8.629080">
        <ele>149.138</ele>
        <time>2019-04-30T11:06:14Z</time>
      </trkpt>
      <trkpt lat="42.276341" lon="-8.629085">
        <ele>149.626</ele>
        <time>2019-04-30T11:06:15Z</time>
      </trkpt>
      <trkpt lat="42.276299" lon="-8.629101">
        <ele>150.594</ele>
        <time>2019-04-30T11:06:16Z</time>
      </trkpt>
      <trkpt lat="42.276263" lon="-8.629128">
        <ele>151.036</ele>
        <time>2019-04-30T11:06:17Z</time>
      </trkpt>
      <trkpt lat="42.276231" lon="-8.629160">
        <ele>151.576</ele>
        <time>2019-04-30T11:06:18Z</time>
      </trkpt>
      <trkpt lat="42.276042" lon="-8.629260">
        <ele>154.490</ele>
        <time>2019-04-30T11:06:24Z</time>
      </trkpt>
      <trkpt lat="42.276008" lon="-8.629239">
        <ele>154.992</ele>
        <time>2019-04-30T11:06:25Z</time>
      </trkpt>
      <trkpt lat="42.275987" lon="-8.629196">
        <ele>154.973</ele>
        <time>2019-04-30T11:06:26Z</time>
      </trkpt>
      <trkpt lat="42.275993" lon="-8.629137">
        <ele>154.920</ele>
        <time>2019-04-30T11:06:27Z</time>
      </trkpt>
      <trkpt lat="42.276021" lon="-8.629073">
        <ele>154.908</ele>
        <time>2019-04-30T11:06:28Z</time>
      </trkpt>
      <trkpt lat="42.276069" lon="-8.629007">
        <ele>154.432</ele>
        <time>2019-04-30T11:06:29Z</time>
      </trkpt>
      <trkpt lat="42.276129" lon="-8.628941">
        <ele>154.475</ele>
        <time>2019-04-30T11:06:30Z</time>
      </trkpt>
      <trkpt lat="42.276198" lon="-8.628879">
        <ele>153.931</ele>
        <time>2019-04-30T11:06:31Z</time>
      </trkpt>
      <trkpt lat="42.276270" lon="-8.628836">
        <ele>152.949</ele>
        <time>2019-04-30T11:06:32Z</time>
      </trkpt>
      <trkpt lat="42.276339" lon="-8.628794">
        <ele>152.067</ele>
        <time>2019-04-30T11:06:33Z</time>
      </trkpt>
      <trkpt lat="42.276400" lon="-8.628749">
        <ele>151.599</ele>
        <time>2019-04-30T11:06:34Z</time>
      </trkpt>
      <trkpt lat="42.276447" lon="-8.628694">
        <ele>150.579</ele>
        <time>2019-04-30T11:06:35Z</time>
      </trkpt>
      <trkpt lat="42.276477" lon="-8.628629">
        <ele>149.623</ele>
        <time>2019-04-30T11:06:36Z</time>
      </trkpt>
      <trkpt lat="42.276478" lon="-8.628554">
        <ele>148.694</ele>
        <time>2019-04-30T11:06:37Z</time>
      </trkpt>
      <trkpt lat="42.276450" lon="-8.628480">
        <ele>147.757</ele>
        <time>2019-04-30T11:06:38Z</time>
      </trkpt>
      <trkpt lat="42.276405" lon="-8.628423">
        <ele>146.722</ele>
        <time>2019-04-30T11:06:39Z</time>
      </trkpt>
      <trkpt lat="42.276352" lon="-8.628394">
        <ele>145.708</ele>
        <time>2019-04-30T11:06:40Z</time>
      </trkpt>
      <trkpt lat="42.276294" lon="-8.628396">
        <ele>144.872</ele>
        <time>2019-04-30T11:06:41Z</time>
      </trkpt>
      <trkpt lat="42.276233" lon="-8.628424">
        <ele>144.395</ele>
        <time>2019-04-30T11:06:42Z</time>
      </trkpt>
      <trkpt lat="42.276172" lon="-8.628459">
        <ele>143.331</ele>
        <time>2019-04-30T11:06:43Z</time>
      </trkpt>
      <trkpt lat="42.276113" lon="-8.628478">
        <ele>143.329</ele>
        <time>2019-04-30T11:06:44Z</time>
      </trkpt>
      <trkpt lat="42.276062" lon="-8.628464">
        <ele>142.887</ele>
        <time>2019-04-30T11:06:45Z</time>
      </trkpt>
      <trkpt lat="42.276027" lon="-8.628420">
        <ele>141.929</ele>
        <time>2019-04-30T11:06:46Z</time>
      </trkpt>
      <trkpt lat="42.276014" lon="-8.628351">
        <ele>141.419</ele>
        <time>2019-04-30T11:06:47Z</time>
      </trkpt>
      <trkpt lat="42.276031" lon="-8.628270">
        <ele>140.943</ele>
        <time>2019-04-30T11:06:48Z</time>
      </trkpt>
      <trkpt lat="42.276073" lon="-8.628201">
        <ele>140.973</ele>
        <time>2019-04-30T11:06:49Z</time>
      </trkpt>
      <trkpt lat="42.276134" lon="-8.628153">
        <ele>140.485</ele>
        <time>2019-04-30T11:06:50Z</time>
      </trkpt>
      <trkpt lat="42.276204" lon="-8.628125">
        <ele>140.013</ele>
        <time>2019-04-30T11:06:51Z</time>
      </trkpt>
      <trkpt lat="42.276274" lon="-8.628102">
        <ele>139.008</ele>
        <time>2019-04-30T11:06:52Z</time>
      </trkpt>
      <trkpt lat="42.276483" lon="-8.628034">
        <ele>137.650</ele>
        <time>2019-04-30T11:06:55Z</time>
      </trkpt>
      <trkpt lat="42.276555" lon="-8.628016">
        <ele>137.113</ele>
        <time>2019-04-30T11:06:56Z</time>
      </trkpt>
      <trkpt lat="42.276631" lon="-8.627984">
        <ele>136.679</ele>
        <time>2019-04-30T11:06:57Z</time>
      </trkpt>
      <trkpt lat="42.277050" lon="-8.627809">
        <ele>130.467</ele>
        <time>2019-04-30T11:07:05Z</time>
      </trkpt>
      <trkpt lat="42.277086" lon="-8.627781">
        <ele>129.935</ele>
        <time>2019-04-30T11:07:06Z</time>
      </trkpt>
      <trkpt lat="42.277130" lon="-8.627761">
        <ele>129.417</ele>
        <time>2019-04-30T11:07:07Z</time>
      </trkpt>
      <trkpt lat="42.277184" lon="-8.627751">
        <ele>128.447</ele>
        <time>2019-04-30T11:07:08Z</time>
      </trkpt>
      <trkpt lat="42.277246" lon="-8.627757">
        <ele>127.941</ele>
        <time>2019-04-30T11:07:09Z</time>
      </trkpt>
      <trkpt lat="42.277315" lon="-8.627779">
        <ele>127.583</ele>
        <time>2019-04-30T11:07:10Z</time>
      </trkpt>
      <trkpt lat="42.277389" lon="-8.627802">
        <ele>126.525</ele>
        <time>2019-04-30T11:07:11Z</time>
      </trkpt>
      <trkpt lat="42.277465" lon="-8.627817">
        <ele>126.017</ele>
        <time>2019-04-30T11:07:12Z</time>
      </trkpt>
      <trkpt lat="42.277531" lon="-8.627828">
        <ele>125.508</ele>
        <time>2019-04-30T11:07:13Z</time>
      </trkpt>
      <trkpt lat="42.277586" lon="-8.627833">
        <ele>124.681</ele>
        <time>2019-04-30T11:07:14Z</time>
      </trkpt>
      <trkpt lat="42.277834" lon="-8.627838">
        <ele>120.384</ele>
        <time>2019-04-30T11:07:18Z</time>
      </trkpt>
      <trkpt lat="42.277991" lon="-8.627820">
        <ele>118.820</ele>
        <time>2019-04-30T11:07:20Z</time>
      </trkpt>
      <trkpt lat="42.278065" lon="-8.627825">
        <ele>117.998</ele>
        <time>2019-04-30T11:07:21Z</time>
      </trkpt>
      <trkpt lat="42.278192" lon="-8.627846">
        <ele>115.936</ele>
        <time>2019-04-30T11:07:23Z</time>
      </trkpt>
      <trkpt lat="42.278234" lon="-8.627830">
        <ele>115.068</ele>
        <time>2019-04-30T11:07:24Z</time>
      </trkpt>
      <trkpt lat="42.278252" lon="-8.627791">
        <ele>114.088</ele>
        <time>2019-04-30T11:07:25Z</time>
      </trkpt>
      <trkpt lat="42.278237" lon="-8.627737">
        <ele>112.692</ele>
        <time>2019-04-30T11:07:26Z</time>
      </trkpt>
      <trkpt lat="42.278200" lon="-8.627681">
        <ele>111.614</ele>
        <time>2019-04-30T11:07:27Z</time>
      </trkpt>
      <trkpt lat="42.278154" lon="-8.627621">
        <ele>110.654</ele>
        <time>2019-04-30T11:07:28Z</time>
      </trkpt>
      <trkpt lat="42.278100" lon="-8.627547">
        <ele>109.209</ele>
        <time>2019-04-30T11:07:29Z</time>
      </trkpt>
      <trkpt lat="42.278050" lon="-8.627458">
        <ele>108.208</ele>
        <time>2019-04-30T11:07:30Z</time>
      </trkpt>
      <trkpt lat="42.277466" lon="-8.626346">
        <ele>97.784</ele>
        <time>2019-04-30T11:07:42Z</time>
      </trkpt>
      <trkpt lat="42.277414" lon="-8.626276">
        <ele>97.287</ele>
        <time>2019-04-30T11:07:43Z</time>
      </trkpt>
      <trkpt lat="42.277352" lon="-8.626219">
        <ele>96.273</ele>
        <time>2019-04-30T11:07:44Z</time>
      </trkpt>
      <trkpt lat="42.277283" lon="-8.626169">
        <ele>95.371</ele>
        <time>2019-04-30T11:07:45Z</time>
      </trkpt>
      <trkpt lat="42.276774" lon="-8.625807">
        <ele>88.569</ele>
        <time>2019-04-30T11:07:54Z</time>
      </trkpt>
      <trkpt lat="42.276743" lon="-8.625766">
        <ele>88.131</ele>
        <time>2019-04-30T11:07:55Z</time>
      </trkpt>
      <trkpt lat="42.276724" lon="-8.625729">
        <ele>87.621</ele>
        <time>2019-04-30T11:07:56Z</time>
      </trkpt>
      <trkpt lat="42.276704" lon="-8.625700">
        <ele>87.175</ele>
        <time>2019-04-30T11:07:57Z</time>
      </trkpt>
      <trkpt lat="42.276684" lon="-8.625675">
        <ele>87.125</ele>
        <time>2019-04-30T11:07:58Z</time>
      </trkpt>
      <trkpt lat="42.276676" lon="-8.625651">
        <ele>87.626</ele>
        <time>2019-04-30T11:07:59Z</time>
      </trkpt>
      <trkpt lat="42.276758" lon="-8.625371">
        <ele>88.508</ele>
        <time>2019-04-30T11:08:07Z</time>
      </trkpt>
      <trkpt lat="42.276784" lon="-8.625332">
        <ele>88.108</ele>
        <time>2019-04-30T11:08:08Z</time>
      </trkpt>
      <trkpt lat="42.276986" lon="-8.624686">
        <ele>88.175</ele>
        <time>2019-04-30T11:08:21Z</time>
      </trkpt>
      <trkpt lat="42.277018" lon="-8.624548">
        <ele>87.628</ele>
        <time>2019-04-30T11:08:24Z</time>
      </trkpt>
      <trkpt lat="42.277016" lon="-8.624508">
        <ele>87.624</ele>
        <time>2019-04-30T11:08:25Z</time>
      </trkpt>
      <trkpt lat="42.277024" lon="-8.624471">
        <ele>87.642</ele>
        <time>2019-04-30T11:08:26Z</time>
      </trkpt>
      <trkpt lat="42.277037" lon="-8.624456">
        <ele>87.150</ele>
        <time>2019-04-30T11:08:27Z</time>
      </trkpt>
      <trkpt lat="42.277050" lon="-8.624468">
        <ele>87.162</ele>
        <time>2019-04-30T11:08:28Z</time>
      </trkpt>
      <trkpt lat="42.277059" lon="-8.624493">
        <ele>87.692</ele>
        <time>2019-04-30T11:08:29Z</time>
      </trkpt>
      <trkpt lat="42.277059" lon="-8.624518">
        <ele>87.616</ele>
        <time>2019-04-30T11:08:30Z</time>
      </trkpt>
      <trkpt lat="42.277053" lon="-8.624539">
        <ele>88.582</ele>
        <time>2019-04-30T11:08:31Z</time>
      </trkpt>
      <trkpt lat="42.277044" lon="-8.624553">
        <ele>89.043</ele>
        <time>2019-04-30T11:08:32Z</time>
      </trkpt>
      <trkpt lat="42.277034" lon="-8.624570">
        <ele>89.017</ele>
        <time>2019-04-30T11:08:33Z</time>
      </trkpt>
      <trkpt lat="42.277024" lon="-8.624594">
        <ele>89.008</ele>
        <time>2019-04-30T11:08:34Z</time>
      </trkpt>
      <trkpt lat="42.277013" lon="-8.624625">
        <ele>89.081</ele>
        <time>2019-04-30T11:08:35Z</time>
      </trkpt>
      <trkpt lat="42.276933" lon="-8.624941">
        <ele>90.514</ele>
        <time>2019-04-30T11:08:45Z</time>
      </trkpt>
      <trkpt lat="42.276842" lon="-8.625249">
        <ele>91.480</ele>
        <time>2019-04-30T11:08:56Z</time>
      </trkpt>
      <trkpt lat="42.276748" lon="-8.625408">
        <ele>91.418</ele>
        <time>2019-04-30T11:09:03Z</time>
      </trkpt>
      <trkpt lat="42.276742" lon="-8.625424">
        <ele>91.976</ele>
        <time>2019-04-30T11:09:04Z</time>
      </trkpt>
      <trkpt lat="42.276728" lon="-8.625444">
        <ele>91.988</ele>
        <time>2019-04-30T11:09:05Z</time>
      </trkpt>
      <trkpt lat="42.276715" lon="-8.625452">
        <ele>91.988</ele>
        <time>2019-04-30T11:09:06Z</time>
      </trkpt>
      <trkpt lat="42.276687" lon="-8.625460">
        <ele>90.942</ele>
        <time>2019-04-30T11:09:21Z</time>
      </trkpt>
      <trkpt lat="42.276676" lon="-8.625454">
        <ele>91.998</ele>
        <time>2019-04-30T11:09:31Z</time>
      </trkpt>
      <trkpt lat="42.276675" lon="-8.625483">
        <ele>91.915</ele>
        <time>2019-04-30T11:09:50Z</time>
      </trkpt>
      <trkpt lat="42.276675" lon="-8.625467">
        <ele>92.426</ele>
        <time>2019-04-30T11:10:10Z</time>
      </trkpt>
      <trkpt lat="42.276676" lon="-8.625455">
        <ele>91.908</ele>
        <time>2019-04-30T11:10:30Z</time>
      </trkpt>
      <trkpt lat="42.276670" lon="-8.625449">
        <ele>92.442</ele>
        <time>2019-04-30T11:10:54Z</time>
      </trkpt>
      <trkpt lat="42.276673" lon="-8.625447">
        <ele>93.395</ele>
        <time>2019-04-30T11:11:12Z</time>
      </trkpt>
      <trkpt lat="42.276705" lon="-8.625405">
        <ele>93.881</ele>
        <time>2019-04-30T11:11:24Z</time>
      </trkpt>
      <trkpt lat="42.276709" lon="-8.625410">
        <ele>95.339</ele>
        <time>2019-04-30T11:11:54Z</time>
      </trkpt>
      <trkpt lat="42.276706" lon="-8.625403">
        <ele>95.757</ele>
        <time>2019-04-30T11:12:28Z</time>
      </trkpt>
      <trkpt lat="42.276723" lon="-8.625388">
        <ele>96.229</ele>
        <time>2019-04-30T11:12:40Z</time>
      </trkpt>
      <trkpt lat="42.276735" lon="-8.625376">
        <ele>96.239</ele>
        <time>2019-04-30T11:12:41Z</time>
      </trkpt>
      <trkpt lat="42.276746" lon="-8.625361">
        <ele>95.733</ele>
        <time>2019-04-30T11:12:42Z</time>
      </trkpt>
      <trkpt lat="42.276752" lon="-8.625338">
        <ele>95.738</ele>
        <time>2019-04-30T11:12:43Z</time>
      </trkpt>
      <trkpt lat="42.276765" lon="-8.625315">
        <ele>95.370</ele>
        <time>2019-04-30T11:12:44Z</time>
      </trkpt>
      <trkpt lat="42.276783" lon="-8.625294">
        <ele>94.817</ele>
        <time>2019-04-30T11:12:45Z</time>
      </trkpt>
      <trkpt lat="42.276798" lon="-8.625273">
        <ele>94.808</ele>
        <time>2019-04-30T11:12:46Z</time>
      </trkpt>
      <trkpt lat="42.276813" lon="-8.625246">
        <ele>93.836</ele>
        <time>2019-04-30T11:12:47Z</time>
      </trkpt>
      <trkpt lat="42.276827" lon="-8.625213">
        <ele>93.329</ele>
        <time>2019-04-30T11:12:48Z</time>
      </trkpt>
      <trkpt lat="42.276841" lon="-8.625179">
        <ele>92.965</ele>
        <time>2019-04-30T11:12:49Z</time>
      </trkpt>
      <trkpt lat="42.276966" lon="-8.624688">
        <ele>90.993</ele>
        <time>2019-04-30T11:13:03Z</time>
      </trkpt>
      <trkpt lat="42.276979" lon="-8.624154">
        <ele>90.561</ele>
        <time>2019-04-30T11:13:15Z</time>
      </trkpt>
      <trkpt lat="42.276974" lon="-8.623903">
        <ele>90.563</ele>
        <time>2019-04-30T11:13:20Z</time>
      </trkpt>
      <trkpt lat="42.276969" lon="-8.623844">
        <ele>90.073</ele>
        <time>2019-04-30T11:13:21Z</time>
      </trkpt>
      <trkpt lat="42.276959" lon="-8.623723">
        <ele>90.087</ele>
        <time>2019-04-30T11:13:23Z</time>
      </trkpt>
      <trkpt lat="42.276965" lon="-8.623662">
        <ele>90.013</ele>
        <time>2019-04-30T11:13:24Z</time>
      </trkpt>
      <trkpt lat="42.276974" lon="-8.623597">
        <ele>90.043</ele>
        <time>2019-04-30T11:13:25Z</time>
      </trkpt>
      <trkpt lat="42.277242" lon="-8.622538">
        <ele>85.207</ele>
        <time>2019-04-30T11:13:38Z</time>
      </trkpt>
      <trkpt lat="42.277568" lon="-8.621601">
        <ele>81.308</ele>
        <time>2019-04-30T11:13:50Z</time>
      </trkpt>
      <trkpt lat="42.277780" lon="-8.621320">
        <ele>81.894</ele>
        <time>2019-04-30T11:14:00Z</time>
      </trkpt>
      <trkpt lat="42.278175" lon="-8.621046">
        <ele>81.857</ele>
        <time>2019-04-30T11:14:11Z</time>
      </trkpt>
      <trkpt lat="42.278213" lon="-8.621030">
        <ele>81.893</ele>
        <time>2019-04-30T11:14:12Z</time>
      </trkpt>
      <trkpt lat="42.278665" lon="-8.620937">
        <ele>82.331</ele>
        <time>2019-04-30T11:14:24Z</time>
      </trkpt>
      <trkpt lat="42.278699" lon="-8.620911">
        <ele>82.849</ele>
        <time>2019-04-30T11:14:25Z</time>
      </trkpt>
      <trkpt lat="42.278737" lon="-8.620880">
        <ele>82.881</ele>
        <time>2019-04-30T11:14:26Z</time>
      </trkpt>
      <trkpt lat="42.278837" lon="-8.620784">
        <ele>81.841</ele>
        <time>2019-04-30T11:14:29Z</time>
      </trkpt>
      <trkpt lat="42.278856" lon="-8.620742">
        <ele>81.355</ele>
        <time>2019-04-30T11:14:30Z</time>
      </trkpt>
      <trkpt lat="42.278880" lon="-8.620702">
        <ele>81.363</ele>
        <time>2019-04-30T11:14:31Z</time>
      </trkpt>
      <trkpt lat="42.278910" lon="-8.620667">
        <ele>80.844</ele>
        <time>2019-04-30T11:14:32Z</time>
      </trkpt>
      <trkpt lat="42.278938" lon="-8.620634">
        <ele>80.818</ele>
        <time>2019-04-30T11:14:33Z</time>
      </trkpt>
      <trkpt lat="42.279114" lon="-8.620439">
        <ele>80.808</ele>
        <time>2019-04-30T11:14:39Z</time>
      </trkpt>
      <trkpt lat="42.279128" lon="-8.620390">
        <ele>80.879</ele>
        <time>2019-04-30T11:14:40Z</time>
      </trkpt>
      <trkpt lat="42.279132" lon="-8.620336">
        <ele>80.812</ele>
        <time>2019-04-30T11:14:41Z</time>
      </trkpt>
      <trkpt lat="42.279140" lon="-8.620286">
        <ele>80.858</ele>
        <time>2019-04-30T11:14:42Z</time>
      </trkpt>
      <trkpt lat="42.279155" lon="-8.620240">
        <ele>80.866</ele>
        <time>2019-04-30T11:14:43Z</time>
      </trkpt>
      <trkpt lat="42.279178" lon="-8.620208">
        <ele>80.864</ele>
        <time>2019-04-30T11:14:44Z</time>
      </trkpt>
      <trkpt lat="42.279209" lon="-8.620192">
        <ele>80.896</ele>
        <time>2019-04-30T11:14:45Z</time>
      </trkpt>
      <trkpt lat="42.279241" lon="-8.620174">
        <ele>80.456</ele>
        <time>2019-04-30T11:14:46Z</time>
      </trkpt>
      <trkpt lat="42.279274" lon="-8.620149">
        <ele>80.460</ele>
        <time>2019-04-30T11:14:47Z</time>
      </trkpt>
      <trkpt lat="42.279302" lon="-8.620121">
        <ele>80.493</ele>
        <time>2019-04-30T11:14:48Z</time>
      </trkpt>
      <trkpt lat="42.279330" lon="-8.620091">
        <ele>80.465</ele>
        <time>2019-04-30T11:14:49Z</time>
      </trkpt>
      <trkpt lat="42.279357" lon="-8.620065">
        <ele>80.821</ele>
        <time>2019-04-30T11:14:50Z</time>
      </trkpt>
      <trkpt lat="42.279688" lon="-8.619720">
        <ele>80.808</ele>
        <time>2019-04-30T11:15:01Z</time>
      </trkpt>
      <trkpt lat="42.279726" lon="-8.619675">
        <ele>80.482</ele>
        <time>2019-04-30T11:15:02Z</time>
      </trkpt>
      <trkpt lat="42.279764" lon="-8.619619">
        <ele>80.465</ele>
        <time>2019-04-30T11:15:03Z</time>
      </trkpt>
      <trkpt lat="42.279800" lon="-8.619551">
        <ele>79.971</ele>
        <time>2019-04-30T11:15:04Z</time>
      </trkpt>
      <trkpt lat="42.279833" lon="-8.619469">
        <ele>79.459</ele>
        <time>2019-04-30T11:15:05Z</time>
      </trkpt>
      <trkpt lat="42.279862" lon="-8.619378">
        <ele>78.917</ele>
        <time>2019-04-30T11:15:06Z</time>
      </trkpt>
      <trkpt lat="42.279889" lon="-8.619281">
        <ele>78.419</ele>
        <time>2019-04-30T11:15:07Z</time>
      </trkpt>
      <trkpt lat="42.280177" lon="-8.617994">
        <ele>71.259</ele>
        <time>2019-04-30T11:15:17Z</time>
      </trkpt>
      <trkpt lat="42.280384" lon="-8.617025">
        <ele>67.493</ele>
        <time>2019-04-30T11:15:26Z</time>
      </trkpt>
      <trkpt lat="42.280431" lon="-8.616755">
        <ele>65.922</ele>
        <time>2019-04-30T11:15:33Z</time>
      </trkpt>
      <trkpt lat="42.280491" lon="-8.616480">
        <ele>65.062</ele>
        <time>2019-04-30T11:15:39Z</time>
      </trkpt>
      <trkpt lat="42.280512" lon="-8.616359">
        <ele>64.508</ele>
        <time>2019-04-30T11:15:41Z</time>
      </trkpt>
      <trkpt lat="42.280763" lon="-8.615729">
        <ele>63.508</ele>
        <time>2019-04-30T11:15:50Z</time>
      </trkpt>
      <trkpt lat="42.280902" lon="-8.615536">
        <ele>62.175</ele>
        <time>2019-04-30T11:15:53Z</time>
      </trkpt>
      <trkpt lat="42.280943" lon="-8.615458">
        <ele>61.148</ele>
        <time>2019-04-30T11:15:54Z</time>
      </trkpt>
      <trkpt lat="42.280980" lon="-8.615374">
        <ele>60.754</ele>
        <time>2019-04-30T11:15:55Z</time>
      </trkpt>
      <trkpt lat="42.281011" lon="-8.615289">
        <ele>60.272</ele>
        <time>2019-04-30T11:15:56Z</time>
      </trkpt>
      <trkpt lat="42.281035" lon="-8.615209">
        <ele>59.220</ele>
        <time>2019-04-30T11:15:57Z</time>
      </trkpt>
      <trkpt lat="42.281052" lon="-8.615134">
        <ele>58.392</ele>
        <time>2019-04-30T11:15:58Z</time>
      </trkpt>
      <trkpt lat="42.281068" lon="-8.615063">
        <ele>57.372</ele>
        <time>2019-04-30T11:15:59Z</time>
      </trkpt>
      <trkpt lat="42.281192" lon="-8.614634">
        <ele>50.686</ele>
        <time>2019-04-30T11:16:05Z</time>
      </trkpt>
      <trkpt lat="42.281216" lon="-8.614570">
        <ele>49.667</ele>
        <time>2019-04-30T11:16:06Z</time>
      </trkpt>
      <trkpt lat="42.281236" lon="-8.614496">
        <ele>48.681</ele>
        <time>2019-04-30T11:16:07Z</time>
      </trkpt>
      <trkpt lat="42.281272" lon="-8.614323">
        <ele>46.219</ele>
        <time>2019-04-30T11:16:09Z</time>
      </trkpt>
      <trkpt lat="42.281274" lon="-8.614231">
        <ele>44.808</ele>
        <time>2019-04-30T11:16:10Z</time>
      </trkpt>
      <trkpt lat="42.281258" lon="-8.614139">
        <ele>43.859</ele>
        <time>2019-04-30T11:16:11Z</time>
      </trkpt>
      <trkpt lat="42.281188" lon="-8.613865">
        <ele>37.672</ele>
        <time>2019-04-30T11:16:16Z</time>
      </trkpt>
      <trkpt lat="42.281204" lon="-8.613838">
        <ele>36.158</ele>
        <time>2019-04-30T11:16:17Z</time>
      </trkpt>
      <trkpt lat="42.281233" lon="-8.613822">
        <ele>35.716</ele>
        <time>2019-04-30T11:16:18Z</time>
      </trkpt>
      <trkpt lat="42.281271" lon="-8.613794">
        <ele>34.794</ele>
        <time>2019-04-30T11:16:19Z</time>
      </trkpt>
      <trkpt lat="42.281305" lon="-8.613746">
        <ele>34.296</ele>
        <time>2019-04-30T11:16:20Z</time>
      </trkpt>
      <trkpt lat="42.281322" lon="-8.613682">
        <ele>33.386</ele>
        <time>2019-04-30T11:16:21Z</time>
      </trkpt>
      <trkpt lat="42.281320" lon="-8.613607">
        <ele>32.850</ele>
        <time>2019-04-30T11:16:22Z</time>
      </trkpt>
      <trkpt lat="42.281311" lon="-8.613539">
        <ele>31.876</ele>
        <time>2019-04-30T11:16:23Z</time>
      </trkpt>
      <trkpt lat="42.281306" lon="-8.613476">
        <ele>30.990</ele>
        <time>2019-04-30T11:16:24Z</time>
      </trkpt>
      <trkpt lat="42.281305" lon="-8.613419">
        <ele>29.919</ele>
        <time>2019-04-30T11:16:25Z</time>
      </trkpt>
      <trkpt lat="42.281304" lon="-8.613371">
        <ele>28.908</ele>
        <time>2019-04-30T11:16:26Z</time>
      </trkpt>
      <trkpt lat="42.281304" lon="-8.613327">
        <ele>28.560</ele>
        <time>2019-04-30T11:16:27Z</time>
      </trkpt>
      <trkpt lat="42.281307" lon="-8.613286">
        <ele>27.533</ele>
        <time>2019-04-30T11:16:28Z</time>
      </trkpt>
      <trkpt lat="42.281225" lon="-8.613093">
        <ele>24.669</ele>
        <time>2019-04-30T11:16:35Z</time>
      </trkpt>
      <trkpt lat="42.281191" lon="-8.613089">
        <ele>24.197</ele>
        <time>2019-04-30T11:16:36Z</time>
      </trkpt>
      <trkpt lat="42.280506" lon="-8.612952">
        <ele>23.245</ele>
        <time>2019-04-30T11:16:49Z</time>
      </trkpt>
      <trkpt lat="42.279383" lon="-8.612716">
        <ele>20.317</ele>
        <time>2019-04-30T11:17:04Z</time>
      </trkpt>
      <trkpt lat="42.278424" lon="-8.612538">
        <ele>20.867</ele>
        <time>2019-04-30T11:17:18Z</time>
      </trkpt>
      <trkpt lat="42.278301" lon="-8.612556">
        <ele>21.221</ele>
        <time>2019-04-30T11:17:20Z</time>
      </trkpt>
      <trkpt lat="42.278243" lon="-8.612534">
        <ele>20.888</ele>
        <time>2019-04-30T11:17:21Z</time>
      </trkpt>
      <trkpt lat="42.278195" lon="-8.612483">
        <ele>20.824</ele>
        <time>2019-04-30T11:17:22Z</time>
      </trkpt>
      <trkpt lat="42.278162" lon="-8.612408">
        <ele>20.826</ele>
        <time>2019-04-30T11:17:23Z</time>
      </trkpt>
      <trkpt lat="42.278150" lon="-8.612324">
        <ele>20.808</ele>
        <time>2019-04-30T11:17:24Z</time>
      </trkpt>
      <trkpt lat="42.278158" lon="-8.612239">
        <ele>20.841</ele>
        <time>2019-04-30T11:17:25Z</time>
      </trkpt>
      <trkpt lat="42.278187" lon="-8.612162">
        <ele>20.854</ele>
        <time>2019-04-30T11:17:26Z</time>
      </trkpt>
      <trkpt lat="42.278232" lon="-8.612106">
        <ele>20.360</ele>
        <time>2019-04-30T11:17:27Z</time>
      </trkpt>
      <trkpt lat="42.278276" lon="-8.612063">
        <ele>20.328</ele>
        <time>2019-04-30T11:17:28Z</time>
      </trkpt>
      <trkpt lat="42.278314" lon="-8.612016">
        <ele>19.376</ele>
        <time>2019-04-30T11:17:29Z</time>
      </trkpt>
      <trkpt lat="42.278347" lon="-8.611964">
        <ele>18.868</ele>
        <time>2019-04-30T11:17:30Z</time>
      </trkpt>
      <trkpt lat="42.278373" lon="-8.611908">
        <ele>18.428</ele>
        <time>2019-04-30T11:17:31Z</time>
      </trkpt>
      <trkpt lat="42.278396" lon="-8.611850">
        <ele>17.432</ele>
        <time>2019-04-30T11:17:32Z</time>
      </trkpt>
      <trkpt lat="42.278416" lon="-8.611790">
        <ele>16.459</ele>
        <time>2019-04-30T11:17:33Z</time>
      </trkpt>
      <trkpt lat="42.278542" lon="-8.611332">
        <ele>15.003</ele>
        <time>2019-04-30T11:17:40Z</time>
      </trkpt>
      <trkpt lat="42.278630" lon="-8.610998">
        <ele>14.023</ele>
        <time>2019-04-30T11:17:45Z</time>
      </trkpt>
      <trkpt lat="42.278655" lon="-8.610929">
        <ele>14.008</ele>
        <time>2019-04-30T11:17:46Z</time>
      </trkpt>
      <trkpt lat="42.278681" lon="-8.610860">
        <ele>14.038</ele>
        <time>2019-04-30T11:17:47Z</time>
      </trkpt>
      <trkpt lat="42.278713" lon="-8.610793">
        <ele>14.031</ele>
        <time>2019-04-30T11:17:48Z</time>
      </trkpt>
      <trkpt lat="42.278747" lon="-8.610732">
        <ele>14.077</ele>
        <time>2019-04-30T11:17:49Z</time>
      </trkpt>
      <trkpt lat="42.278785" lon="-8.610677">
        <ele>14.085</ele>
        <time>2019-04-30T11:17:50Z</time>
      </trkpt>
      <trkpt lat="42.278823" lon="-8.610634">
        <ele>13.613</ele>
        <time>2019-04-30T11:17:51Z</time>
      </trkpt>
      <trkpt lat="42.278857" lon="-8.610601">
        <ele>13.125</ele>
        <time>2019-04-30T11:17:52Z</time>
      </trkpt>
      <trkpt lat="42.278889" lon="-8.610574">
        <ele>13.175</ele>
        <time>2019-04-30T11:17:53Z</time>
      </trkpt>
      <trkpt lat="42.278922" lon="-8.610550">
        <ele>13.139</ele>
        <time>2019-04-30T11:17:54Z</time>
      </trkpt>
      <trkpt lat="42.279220" lon="-8.610448">
        <ele>10.776</ele>
        <time>2019-04-30T11:18:02Z</time>
      </trkpt>
      <trkpt lat="42.279436" lon="-8.610475">
        <ele>9.290</ele>
        <time>2019-04-30T11:18:07Z</time>
      </trkpt>
      <trkpt lat="42.279483" lon="-8.610471">
        <ele>9.219</ele>
        <time>2019-04-30T11:18:08Z</time>
      </trkpt>
      <trkpt lat="42.279528" lon="-8.610474">
        <ele>8.708</ele>
        <time>2019-04-30T11:18:09Z</time>
      </trkpt>
      <trkpt lat="42.279570" lon="-8.610485">
        <ele>8.760</ele>
        <time>2019-04-30T11:18:10Z</time>
      </trkpt>
      <trkpt lat="42.279610" lon="-8.610500">
        <ele>8.763</ele>
        <time>2019-04-30T11:18:11Z</time>
      </trkpt>
      <trkpt lat="42.279652" lon="-8.610508">
        <ele>8.729</ele>
        <time>2019-04-30T11:18:12Z</time>
      </trkpt>
      <trkpt lat="42.279695" lon="-8.610507">
        <ele>8.337</ele>
        <time>2019-04-30T11:18:13Z</time>
      </trkpt>
      <trkpt lat="42.279737" lon="-8.610503">
        <ele>8.385</ele>
        <time>2019-04-30T11:18:14Z</time>
      </trkpt>
      <trkpt lat="42.279776" lon="-8.610502">
        <ele>8.317</ele>
        <time>2019-04-30T11:18:15Z</time>
      </trkpt>
      <trkpt lat="42.280249" lon="-8.610441">
        <ele>7.377</ele>
        <time>2019-04-30T11:18:28Z</time>
      </trkpt>
      <trkpt lat="42.280553" lon="-8.610290">
        <ele>8.741</ele>
        <time>2019-04-30T11:18:39Z</time>
      </trkpt>
      <trkpt lat="42.280692" lon="-8.610199">
        <ele>8.389</ele>
        <time>2019-04-30T11:18:43Z</time>
      </trkpt>
      <trkpt lat="42.280721" lon="-8.610186">
        <ele>7.306</ele>
        <time>2019-04-30T11:18:44Z</time>
      </trkpt>
      <trkpt lat="42.280743" lon="-8.610164">
        <ele>7.326</ele>
        <time>2019-04-30T11:18:45Z</time>
      </trkpt>
      <trkpt lat="42.280753" lon="-8.610139">
        <ele>7.308</ele>
        <time>2019-04-30T11:18:46Z</time>
      </trkpt>
      <trkpt lat="42.280776" lon="-8.610115">
        <ele>6.841</ele>
        <time>2019-04-30T11:18:47Z</time>
      </trkpt>
      <trkpt lat="42.280832" lon="-8.610060">
        <ele>6.324</ele>
        <time>2019-04-30T11:18:49Z</time>
      </trkpt>
      <trkpt lat="42.280862" lon="-8.610036">
        <ele>5.490</ele>
        <time>2019-04-30T11:18:50Z</time>
      </trkpt>
      <trkpt lat="42.280885" lon="-8.610005">
        <ele>4.928</ele>
        <time>2019-04-30T11:18:51Z</time>
      </trkpt>
      <trkpt lat="42.280912" lon="-8.609969">
        <ele>4.486</ele>
        <time>2019-04-30T11:18:52Z</time>
      </trkpt>
      <trkpt lat="42.280948" lon="-8.609936">
        <ele>4.468</ele>
        <time>2019-04-30T11:18:53Z</time>
      </trkpt>
      <trkpt lat="42.280985" lon="-8.609909">
        <ele>4.478</ele>
        <time>2019-04-30T11:18:54Z</time>
      </trkpt>
      <trkpt lat="42.281031" lon="-8.609888">
        <ele>4.462</ele>
        <time>2019-04-30T11:18:55Z</time>
      </trkpt>
      <trkpt lat="42.281073" lon="-8.609864">
        <ele>4.471</ele>
        <time>2019-04-30T11:18:56Z</time>
      </trkpt>
      <trkpt lat="42.281467" lon="-8.609583">
        <ele>6.341</ele>
        <time>2019-04-30T11:19:07Z</time>
      </trkpt>
      <trkpt lat="42.281781" lon="-8.609324">
        <ele>7.315</ele>
        <time>2019-04-30T11:19:19Z</time>
      </trkpt>
      <trkpt lat="42.281761" lon="-8.609279">
        <ele>10.208</ele>
        <time>2019-04-30T11:19:32Z</time>
      </trkpt>
      <trkpt lat="42.281772" lon="-8.609264">
        <ele>10.250</ele>
        <time>2019-04-30T11:19:34Z</time>
      </trkpt>
      <trkpt lat="42.281787" lon="-8.609243">
        <ele>10.753</ele>
        <time>2019-04-30T11:19:35Z</time>
      </trkpt>
      <trkpt lat="42.281798" lon="-8.609214">
        <ele>10.739</ele>
        <time>2019-04-30T11:19:36Z</time>
      </trkpt>
      <trkpt lat="42.281812" lon="-8.609179">
        <ele>11.697</ele>
        <time>2019-04-30T11:19:37Z</time>
      </trkpt>
      <trkpt lat="42.281813" lon="-8.609133">
        <ele>11.665</ele>
        <time>2019-04-30T11:19:38Z</time>
      </trkpt>
      <trkpt lat="42.281810" lon="-8.609088">
        <ele>11.687</ele>
        <time>2019-04-30T11:19:39Z</time>
      </trkpt>
      <trkpt lat="42.281817" lon="-8.609010">
        <ele>12.687</ele>
        <time>2019-04-30T11:19:41Z</time>
      </trkpt>
      <trkpt lat="42.281841" lon="-8.608983">
        <ele>13.191</ele>
        <time>2019-04-30T11:19:42Z</time>
      </trkpt>
      <trkpt lat="42.281987" lon="-8.608886">
        <ele>14.526</ele>
        <time>2019-04-30T11:19:48Z</time>
      </trkpt>
      <trkpt lat="42.282009" lon="-8.608885">
        <ele>14.547</ele>
        <time>2019-04-30T11:19:49Z</time>
      </trkpt>
      <trkpt lat="42.282031" lon="-8.608878">
        <ele>15.011</ele>
        <time>2019-04-30T11:19:50Z</time>
      </trkpt>
      <trkpt lat="42.282051" lon="-8.608861">
        <ele>15.008</ele>
        <time>2019-04-30T11:19:51Z</time>
      </trkpt>
      <trkpt lat="42.282070" lon="-8.608839">
        <ele>15.055</ele>
        <time>2019-04-30T11:19:52Z</time>
      </trkpt>
      <trkpt lat="42.282212" lon="-8.608653">
        <ele>17.458</ele>
        <time>2019-04-30T11:20:05Z</time>
      </trkpt>
      <trkpt lat="42.282228" lon="-8.608639">
        <ele>18.414</ele>
        <time>2019-04-30T11:20:32Z</time>
      </trkpt>
      <trkpt lat="42.282227" lon="-8.608632">
        <ele>18.472</ele>
        <time>2019-04-30T11:20:46Z</time>
      </trkpt>
      <trkpt lat="42.282232" lon="-8.608629">
        <ele>18.820</ele>
        <time>2019-04-30T11:21:14Z</time>
      </trkpt>
      <trkpt lat="42.282232" lon="-8.608623">
        <ele>17.992</ele>
        <time>2019-04-30T11:21:44Z</time>
      </trkpt>
      <trkpt lat="42.282226" lon="-8.608625">
        <ele>19.842</ele>
        <time>2019-04-30T11:22:16Z</time>
      </trkpt>
      <trkpt lat="42.282224" lon="-8.608624">
        <ele>19.366</ele>
        <time>2019-04-30T11:22:41Z</time>
      </trkpt>
      <trkpt lat="42.282222" lon="-8.608617">
        <ele>18.844</ele>
        <time>2019-04-30T11:23:06Z</time>
      </trkpt>
      <trkpt lat="42.282242" lon="-8.608574">
        <ele>18.405</ele>
        <time>2019-04-30T11:23:26Z</time>
      </trkpt>
      <trkpt lat="42.282359" lon="-8.608434">
        <ele>16.915</ele>
        <time>2019-04-30T11:23:37Z</time>
      </trkpt>
      <trkpt lat="42.282351" lon="-8.608419">
        <ele>16.908</ele>
        <time>2019-04-30T11:23:52Z</time>
      </trkpt>
      <trkpt lat="42.282364" lon="-8.608422">
        <ele>17.987</ele>
        <time>2019-04-30T11:24:26Z</time>
      </trkpt>
      <trkpt lat="42.282357" lon="-8.608417">
        <ele>17.940</ele>
        <time>2019-04-30T11:24:56Z</time>
      </trkpt>
      <trkpt lat="42.282335" lon="-8.608406">
        <ele>17.446</ele>
        <time>2019-04-30T11:25:35Z</time>
      </trkpt>
      <trkpt lat="42.282328" lon="-8.608394">
        <ele>17.484</ele>
        <time>2019-04-30T11:26:14Z</time>
      </trkpt>
      <trkpt lat="42.282320" lon="-8.608395">
        <ele>18.832</ele>
        <time>2019-04-30T11:26:49Z</time>
      </trkpt>
      <trkpt lat="42.282326" lon="-8.608389">
        <ele>19.394</ele>
        <time>2019-04-30T11:27:29Z</time>
      </trkpt>
      <trkpt lat="42.282337" lon="-8.608388">
        <ele>19.814</ele>
        <time>2019-04-30T11:28:03Z</time>
      </trkpt>
      <trkpt lat="42.282336" lon="-8.608393">
        <ele>19.848</ele>
        <time>2019-04-30T11:28:32Z</time>
      </trkpt>
      <trkpt lat="42.282327" lon="-8.608385">
        <ele>19.878</ele>
        <time>2019-04-30T11:29:00Z</time>
      </trkpt>
      <trkpt lat="42.282323" lon="-8.608383">
        <ele>19.333</ele>
        <time>2019-04-30T11:29:25Z</time>
      </trkpt>
      <trkpt lat="42.282341" lon="-8.608383">
        <ele>20.326</ele>
        <time>2019-04-30T11:29:54Z</time>
      </trkpt>
      <trkpt lat="42.282347" lon="-8.608383">
        <ele>19.808</ele>
        <time>2019-04-30T11:30:25Z</time>
      </trkpt>
      <trkpt lat="42.282336" lon="-8.608369">
        <ele>19.880</ele>
        <time>2019-04-30T11:30:57Z</time>
      </trkpt>
      <trkpt lat="42.282326" lon="-8.608371">
        <ele>20.343</ele>
        <time>2019-04-30T11:31:25Z</time>
      </trkpt>
      <trkpt lat="42.282333" lon="-8.608372">
        <ele>20.369</ele>
        <time>2019-04-30T11:31:56Z</time>
      </trkpt>
      <trkpt lat="42.282360" lon="-8.608377">
        <ele>20.887</ele>
        <time>2019-04-30T11:32:26Z</time>
      </trkpt>
      <trkpt lat="42.282372" lon="-8.608380">
        <ele>21.235</ele>
        <time>2019-04-30T11:33:00Z</time>
      </trkpt>
      <trkpt lat="42.282372" lon="-8.608380">
        <ele>22.287</ele>
        <time>2019-04-30T11:33:30Z</time>
      </trkpt>
      <trkpt lat="42.282361" lon="-8.608368">
        <ele>21.757</ele>
        <time>2019-04-30T11:34:01Z</time>
      </trkpt>
      <trkpt lat="42.282355" lon="-8.608359">
        <ele>21.761</ele>
        <time>2019-04-30T11:34:39Z</time>
      </trkpt>
      <trkpt lat="42.282344" lon="-8.608356">
        <ele>21.734</ele>
        <time>2019-04-30T11:35:12Z</time>
      </trkpt>
      <trkpt lat="42.282335" lon="-8.608364">
        <ele>21.755</ele>
        <time>2019-04-30T11:35:46Z</time>
      </trkpt>
      <trkpt lat="42.282335" lon="-8.608370">
        <ele>22.710</ele>
        <time>2019-04-30T11:36:26Z</time>
      </trkpt>
      <trkpt lat="42.282335" lon="-8.608382">
        <ele>22.208</ele>
        <time>2019-04-30T11:36:59Z</time>
      </trkpt>
      <trkpt lat="42.282325" lon="-8.608382">
        <ele>21.216</ele>
        <time>2019-04-30T11:37:33Z</time>
      </trkpt>
      <trkpt lat="42.282312" lon="-8.608386">
        <ele>19.869</ele>
        <time>2019-04-30T11:38:07Z</time>
      </trkpt>
      <trkpt lat="42.282312" lon="-8.608379">
        <ele>19.875</ele>
        <time>2019-04-30T11:38:40Z</time>
      </trkpt>
      <trkpt lat="42.282323" lon="-8.608392">
        <ele>19.393</ele>
        <time>2019-04-30T11:39:17Z</time>
      </trkpt>
      <trkpt lat="42.282325" lon="-8.608393">
        <ele>19.341</ele>
        <time>2019-04-30T11:39:39Z</time>
      </trkpt>
      <trkpt lat="42.282329" lon="-8.608393">
        <ele>18.833</ele>
        <time>2019-04-30T11:40:12Z</time>
      </trkpt>
      <trkpt lat="42.282332" lon="-8.608395">
        <ele>18.833</ele>
        <time>2019-04-30T11:40:45Z</time>
      </trkpt>
      <trkpt lat="42.282339" lon="-8.608390">
        <ele>18.857</ele>
        <time>2019-04-30T11:41:16Z</time>
      </trkpt>
      <trkpt lat="42.282343" lon="-8.608379">
        <ele>18.861</ele>
        <time>2019-04-30T11:41:47Z</time>
      </trkpt>
      <trkpt lat="42.282357" lon="-8.608383">
        <ele>18.821</ele>
        <time>2019-04-30T11:42:19Z</time>
      </trkpt>
      <trkpt lat="42.282368" lon="-8.608385">
        <ele>19.813</ele>
        <time>2019-04-30T11:42:43Z</time>
      </trkpt>
      <trkpt lat="42.282388" lon="-8.608380">
        <ele>19.308</ele>
        <time>2019-04-30T11:43:09Z</time>
      </trkpt>
      <trkpt lat="42.282391" lon="-8.608382">
        <ele>19.859</ele>
        <time>2019-04-30T11:43:30Z</time>
      </trkpt>
      <trkpt lat="42.282389" lon="-8.608374">
        <ele>20.832</ele>
        <time>2019-04-30T11:44:03Z</time>
      </trkpt>
      <trkpt lat="42.282391" lon="-8.608375">
        <ele>20.818</ele>
        <time>2019-04-30T11:44:33Z</time>
      </trkpt>
      <trkpt lat="42.282390" lon="-8.608382">
        <ele>20.826</ele>
        <time>2019-04-30T11:45:01Z</time>
      </trkpt>
      <trkpt lat="42.282392" lon="-8.608375">
        <ele>20.354</ele>
        <time>2019-04-30T11:45:25Z</time>
      </trkpt>
      <trkpt lat="42.282397" lon="-8.608373">
        <ele>20.346</ele>
        <time>2019-04-30T11:45:50Z</time>
      </trkpt>
      <trkpt lat="42.282397" lon="-8.608368">
        <ele>19.896</ele>
        <time>2019-04-30T11:46:21Z</time>
      </trkpt>
      <trkpt lat="42.282398" lon="-8.608363">
        <ele>19.380</ele>
        <time>2019-04-30T11:46:42Z</time>
      </trkpt>
      <trkpt lat="42.282397" lon="-8.608365">
        <ele>19.384</ele>
        <time>2019-04-30T11:47:07Z</time>
      </trkpt>
      <trkpt lat="42.282396" lon="-8.608366">
        <ele>18.407</ele>
        <time>2019-04-30T11:47:37Z</time>
      </trkpt>
      <trkpt lat="42.282395" lon="-8.608371">
        <ele>18.417</ele>
        <time>2019-04-30T11:48:05Z</time>
      </trkpt>
      <trkpt lat="42.282387" lon="-8.608405">
        <ele>16.408</ele>
        <time>2019-04-30T11:48:28Z</time>
      </trkpt>
      <trkpt lat="42.282388" lon="-8.608408">
        <ele>16.421</ele>
        <time>2019-04-30T11:48:30Z</time>
      </trkpt>
      <trkpt lat="42.282406" lon="-8.608398">
        <ele>16.414</ele>
        <time>2019-04-30T11:48:31Z</time>
      </trkpt>
      <trkpt lat="42.282420" lon="-8.608386">
        <ele>16.420</ele>
        <time>2019-04-30T11:48:32Z</time>
      </trkpt>
      <trkpt lat="42.282432" lon="-8.608370">
        <ele>16.498</ele>
        <time>2019-04-30T11:48:33Z</time>
      </trkpt>
      <trkpt lat="42.282446" lon="-8.608349">
        <ele>16.476</ele>
        <time>2019-04-30T11:48:34Z</time>
      </trkpt>
      <trkpt lat="42.282478" lon="-8.608314">
        <ele>16.088</ele>
        <time>2019-04-30T11:48:36Z</time>
      </trkpt>
      <trkpt lat="42.282478" lon="-8.608290">
        <ele>16.098</ele>
        <time>2019-04-30T11:48:37Z</time>
      </trkpt>
      <trkpt lat="42.282478" lon="-8.608265">
        <ele>16.092</ele>
        <time>2019-04-30T11:48:38Z</time>
      </trkpt>
      <trkpt lat="42.282483" lon="-8.608238">
        <ele>16.492</ele>
        <time>2019-04-30T11:48:39Z</time>
      </trkpt>
      <trkpt lat="42.282509" lon="-8.608191">
        <ele>17.973</ele>
        <time>2019-04-30T11:48:43Z</time>
      </trkpt>
      <trkpt lat="42.282521" lon="-8.608189">
        <ele>18.420</ele>
        <time>2019-04-30T11:48:44Z</time>
      </trkpt>
      <trkpt lat="42.282559" lon="-8.608178">
        <ele>19.308</ele>
        <time>2019-04-30T11:48:46Z</time>
      </trkpt>
      <trkpt lat="42.282628" lon="-8.608150">
        <ele>21.772</ele>
        <time>2019-04-30T11:48:51Z</time>
      </trkpt>
      <trkpt lat="42.282702" lon="-8.608148">
        <ele>25.125</ele>
        <time>2019-04-30T11:48:56Z</time>
      </trkpt>
      <trkpt lat="42.282883" lon="-8.608129">
        <ele>29.451</ele>
        <time>2019-04-30T11:49:05Z</time>
      </trkpt>
      <trkpt lat="42.283004" lon="-8.608106">
        <ele>29.929</ele>
        <time>2019-04-30T11:49:09Z</time>
      </trkpt>
      <trkpt lat="42.283259" lon="-8.608084">
        <ele>29.437</ele>
        <time>2019-04-30T11:49:26Z</time>
      </trkpt>
      <trkpt lat="42.283373" lon="-8.607986">
        <ele>28.549</ele>
        <time>2019-04-30T11:49:39Z</time>
      </trkpt>
      <trkpt lat="42.283390" lon="-8.607968">
        <ele>28.589</ele>
        <time>2019-04-30T11:49:40Z</time>
      </trkpt>
      <trkpt lat="42.283411" lon="-8.607972">
        <ele>28.953</ele>
        <time>2019-04-30T11:49:42Z</time>
      </trkpt>
      <trkpt lat="42.283485" lon="-8.607887">
        <ele>28.999</ele>
        <time>2019-04-30T11:49:46Z</time>
      </trkpt>
      <trkpt lat="42.283604" lon="-8.607795">
        <ele>27.507</ele>
        <time>2019-04-30T11:49:52Z</time>
      </trkpt>
      <trkpt lat="42.283778" lon="-8.607750">
        <ele>28.027</ele>
        <time>2019-04-30T11:49:58Z</time>
      </trkpt>
      <trkpt lat="42.284048" lon="-8.607830">
        <ele>28.908</ele>
        <time>2019-04-30T11:50:08Z</time>
      </trkpt>
      <trkpt lat="42.284101" lon="-8.607851">
        <ele>28.962</ele>
        <time>2019-04-30T11:50:11Z</time>
      </trkpt>
      <trkpt lat="42.284250" lon="-8.607876">
        <ele>30.975</ele>
        <time>2019-04-30T11:50:20Z</time>
      </trkpt>
      <trkpt lat="42.284364" lon="-8.607861">
        <ele>30.921</ele>
        <time>2019-04-30T11:50:27Z</time>
      </trkpt>
      <trkpt lat="42.284594" lon="-8.607815">
        <ele>34.229</ele>
        <time>2019-04-30T11:50:41Z</time>
      </trkpt>
      <trkpt lat="42.284682" lon="-8.607796">
        <ele>37.197</ele>
        <time>2019-04-30T11:50:45Z</time>
      </trkpt>
      <trkpt lat="42.284948" lon="-8.607801">
        <ele>42.979</ele>
        <time>2019-04-30T11:50:57Z</time>
      </trkpt>
      <trkpt lat="42.285226" lon="-8.607748">
        <ele>47.799</ele>
        <time>2019-04-30T11:51:09Z</time>
      </trkpt>
      <trkpt lat="42.285326" lon="-8.607678">
        <ele>47.733</ele>
        <time>2019-04-30T11:51:14Z</time>
      </trkpt>
      <trkpt lat="42.285597" lon="-8.607691">
        <ele>53.934</ele>
        <time>2019-04-30T11:51:27Z</time>
      </trkpt>
      <trkpt lat="42.285855" lon="-8.607730">
        <ele>62.155</ele>
        <time>2019-04-30T11:51:39Z</time>
      </trkpt>
      <trkpt lat="42.286014" lon="-8.607670">
        <ele>63.510</ele>
        <time>2019-04-30T11:51:46Z</time>
      </trkpt>
      <trkpt lat="42.286231" lon="-8.607719">
        <ele>65.508</ele>
        <time>2019-04-30T11:51:56Z</time>
      </trkpt>
      <trkpt lat="42.286236" lon="-8.607722">
        <ele>65.026</ele>
        <time>2019-04-30T11:51:57Z</time>
      </trkpt>
      <trkpt lat="42.286304" lon="-8.607773">
        <ele>65.959</ele>
        <time>2019-04-30T11:52:01Z</time>
      </trkpt>
      <trkpt lat="42.286427" lon="-8.607916">
        <ele>63.555</ele>
        <time>2019-04-30T11:52:07Z</time>
      </trkpt>
      <trkpt lat="42.286455" lon="-8.607941">
        <ele>63.113</ele>
        <time>2019-04-30T11:52:09Z</time>
      </trkpt>
      <trkpt lat="42.286722" lon="-8.608074">
        <ele>51.051</ele>
        <time>2019-04-30T11:52:18Z</time>
      </trkpt>
      <trkpt lat="42.287143" lon="-8.608161">
        <ele>48.683</ele>
        <time>2019-04-30T11:52:29Z</time>
      </trkpt>
      <trkpt lat="42.287362" lon="-8.608309">
        <ele>48.623</ele>
        <time>2019-04-30T11:52:34Z</time>
      </trkpt>
      <trkpt lat="42.287406" lon="-8.608341">
        <ele>48.637</ele>
        <time>2019-04-30T11:52:35Z</time>
      </trkpt>
      <trkpt lat="42.287446" lon="-8.608377">
        <ele>48.239</ele>
        <time>2019-04-30T11:52:36Z</time>
      </trkpt>
      <trkpt lat="42.287490" lon="-8.608415">
        <ele>48.201</ele>
        <time>2019-04-30T11:52:37Z</time>
      </trkpt>
      <trkpt lat="42.287545" lon="-8.608452">
        <ele>47.721</ele>
        <time>2019-04-30T11:52:38Z</time>
      </trkpt>
      <trkpt lat="42.287603" lon="-8.608488">
        <ele>47.708</ele>
        <time>2019-04-30T11:52:39Z</time>
      </trkpt>
      <trkpt lat="42.287664" lon="-8.608508">
        <ele>47.726</ele>
        <time>2019-04-30T11:52:40Z</time>
      </trkpt>
      <trkpt lat="42.287776" lon="-8.608500">
        <ele>47.299</ele>
        <time>2019-04-30T11:52:42Z</time>
      </trkpt>
      <trkpt lat="42.287816" lon="-8.608483">
        <ele>47.235</ele>
        <time>2019-04-30T11:52:43Z</time>
      </trkpt>
      <trkpt lat="42.288068" lon="-8.608502">
        <ele>41.413</ele>
        <time>2019-04-30T11:52:53Z</time>
      </trkpt>
      <trkpt lat="42.288072" lon="-8.608550">
        <ele>37.641</ele>
        <time>2019-04-30T11:53:03Z</time>
      </trkpt>
      <trkpt lat="42.288133" lon="-8.608661">
        <ele>33.763</ele>
        <time>2019-04-30T11:53:24Z</time>
      </trkpt>
      <trkpt lat="42.288185" lon="-8.608714">
        <ele>33.313</ele>
        <time>2019-04-30T11:53:26Z</time>
      </trkpt>
      <trkpt lat="42.288216" lon="-8.608723">
        <ele>32.877</ele>
        <time>2019-04-30T11:53:27Z</time>
      </trkpt>
      <trkpt lat="42.288246" lon="-8.608725">
        <ele>32.843</ele>
        <time>2019-04-30T11:53:28Z</time>
      </trkpt>
      <trkpt lat="42.288276" lon="-8.608726">
        <ele>32.864</ele>
        <time>2019-04-30T11:53:29Z</time>
      </trkpt>
      <trkpt lat="42.288308" lon="-8.608724">
        <ele>33.310</ele>
        <time>2019-04-30T11:53:30Z</time>
      </trkpt>
      <trkpt lat="42.288645" lon="-8.608692">
        <ele>28.508</ele>
        <time>2019-04-30T11:53:41Z</time>
      </trkpt>
      <trkpt lat="42.289262" lon="-8.608555">
        <ele>23.247</ele>
        <time>2019-04-30T11:53:59Z</time>
      </trkpt>
      <trkpt lat="42.289834" lon="-8.608435">
        <ele>19.380</ele>
        <time>2019-04-30T11:54:15Z</time>
      </trkpt>
      <trkpt lat="42.290189" lon="-8.608340">
        <ele>21.276</ele>
        <time>2019-04-30T11:54:27Z</time>
      </trkpt>
      <trkpt lat="42.290676" lon="-8.608221">
        <ele>25.124</ele>
        <time>2019-04-30T11:54:40Z</time>
      </trkpt>
      <trkpt lat="42.291534" lon="-8.607943">
        <ele>16.972</ele>
        <time>2019-04-30T11:54:58Z</time>
      </trkpt>
      <trkpt lat="42.292513" lon="-8.607718">
        <ele>12.174</ele>
        <time>2019-04-30T11:55:18Z</time>
      </trkpt>
      <trkpt lat="42.292864" lon="-8.607636">
        <ele>11.114</ele>
        <time>2019-04-30T11:55:25Z</time>
      </trkpt>
      <trkpt lat="42.292911" lon="-8.607641">
        <ele>11.178</ele>
        <time>2019-04-30T11:55:26Z</time>
      </trkpt>
      <trkpt lat="42.292955" lon="-8.607634">
        <ele>10.716</ele>
        <time>2019-04-30T11:55:27Z</time>
      </trkpt>
      <trkpt lat="42.293001" lon="-8.607618">
        <ele>11.176</ele>
        <time>2019-04-30T11:55:28Z</time>
      </trkpt>
      <trkpt lat="42.293049" lon="-8.607604">
        <ele>11.613</ele>
        <time>2019-04-30T11:55:29Z</time>
      </trkpt>
      <trkpt lat="42.293229" lon="-8.607556">
        <ele>13.608</ele>
        <time>2019-04-30T11:55:33Z</time>
      </trkpt>
      <trkpt lat="42.293358" lon="-8.607500">
        <ele>15.074</ele>
        <time>2019-04-30T11:55:36Z</time>
      </trkpt>
      <trkpt lat="42.293567" lon="-8.607369">
        <ele>14.547</ele>
        <time>2019-04-30T11:55:41Z</time>
      </trkpt>
      <trkpt lat="42.293611" lon="-8.607358">
        <ele>14.593</ele>
        <time>2019-04-30T11:55:42Z</time>
      </trkpt>
      <trkpt lat="42.293697" lon="-8.607353">
        <ele>14.031</ele>
        <time>2019-04-30T11:55:44Z</time>
      </trkpt>
      <trkpt lat="42.294048" lon="-8.607562">
        <ele>14.069</ele>
        <time>2019-04-30T11:55:56Z</time>
      </trkpt>
      <trkpt lat="42.294216" lon="-8.607962">
        <ele>15.081</ele>
        <time>2019-04-30T11:56:11Z</time>
      </trkpt>
      <trkpt lat="42.294408" lon="-8.608345">
        <ele>15.061</ele>
        <time>2019-04-30T11:56:28Z</time>
      </trkpt>
      <trkpt lat="42.294600" lon="-8.608698">
        <ele>17.935</ele>
        <time>2019-04-30T11:56:44Z</time>
      </trkpt>
      <trkpt lat="42.294794" lon="-8.608942">
        <ele>19.854</ele>
        <time>2019-04-30T11:56:57Z</time>
      </trkpt>
      <trkpt lat="42.295072" lon="-8.609202">
        <ele>19.856</ele>
        <time>2019-04-30T11:57:11Z</time>
      </trkpt>
      <trkpt lat="42.295432" lon="-8.609507">
        <ele>22.211</ele>
        <time>2019-04-30T11:57:26Z</time>
      </trkpt>
      <trkpt lat="42.295749" lon="-8.609848">
        <ele>26.008</ele>
        <time>2019-04-30T11:57:41Z</time>
      </trkpt>
      <trkpt lat="42.296038" lon="-8.610160">
        <ele>27.518</ele>
        <time>2019-04-30T11:57:54Z</time>
      </trkpt>
      <trkpt lat="42.296460" lon="-8.610214">
        <ele>26.081</ele>
        <time>2019-04-30T11:58:06Z</time>
      </trkpt>
      <trkpt lat="42.296833" lon="-8.610184">
        <ele>27.077</ele>
        <time>2019-04-30T11:58:19Z</time>
      </trkpt>
      <trkpt lat="42.297094" lon="-8.610168">
        <ele>29.985</ele>
        <time>2019-04-30T11:58:31Z</time>
      </trkpt>
      <trkpt lat="42.297592" lon="-8.609972">
        <ele>26.543</ele>
        <time>2019-04-30T11:58:44Z</time>
      </trkpt>
      <trkpt lat="42.298212" lon="-8.609677">
        <ele>26.025</ele>
        <time>2019-04-30T11:58:57Z</time>
      </trkpt>
      <trkpt lat="42.298961" lon="-8.609539">
        <ele>23.285</ele>
        <time>2019-04-30T11:59:11Z</time>
      </trkpt>
      <trkpt lat="42.299145" lon="-8.609557">
        <ele>23.239</ele>
        <time>2019-04-30T11:59:15Z</time>
      </trkpt>
      <trkpt lat="42.299186" lon="-8.609555">
        <ele>23.296</ele>
        <time>2019-04-30T11:59:16Z</time>
      </trkpt>
      <trkpt lat="42.299226" lon="-8.609547">
        <ele>23.231</ele>
        <time>2019-04-30T11:59:17Z</time>
      </trkpt>
      <trkpt lat="42.299493" lon="-8.609432">
        <ele>25.124</ele>
        <time>2019-04-30T11:59:26Z</time>
      </trkpt>
      <trkpt lat="42.299673" lon="-8.609029">
        <ele>27.008</ele>
        <time>2019-04-30T11:59:40Z</time>
      </trkpt>
      <trkpt lat="42.299840" lon="-8.608873">
        <ele>30.432</ele>
        <time>2019-04-30T11:59:51Z</time>
      </trkpt>
      <trkpt lat="42.299853" lon="-8.608870">
        <ele>30.915</ele>
        <time>2019-04-30T11:59:52Z</time>
      </trkpt>
      <trkpt lat="42.299869" lon="-8.608864">
        <ele>31.341</ele>
        <time>2019-04-30T11:59:53Z</time>
      </trkpt>
      <trkpt lat="42.300005" lon="-8.608757">
        <ele>34.719</ele>
        <time>2019-04-30T12:00:02Z</time>
      </trkpt>
      <trkpt lat="42.300023" lon="-8.608743">
        <ele>35.227</ele>
        <time>2019-04-30T12:00:03Z</time>
      </trkpt>
      <trkpt lat="42.300040" lon="-8.608731">
        <ele>35.289</ele>
        <time>2019-04-30T12:00:04Z</time>
      </trkpt>
      <trkpt lat="42.300050" lon="-8.608715">
        <ele>35.759</ele>
        <time>2019-04-30T12:00:05Z</time>
      </trkpt>
      <trkpt lat="42.300059" lon="-8.608697">
        <ele>35.773</ele>
        <time>2019-04-30T12:00:06Z</time>
      </trkpt>
      <trkpt lat="42.300253" lon="-8.608450">
        <ele>38.179</ele>
        <time>2019-04-30T12:00:19Z</time>
      </trkpt>
      <trkpt lat="42.300290" lon="-8.608388">
        <ele>39.005</ele>
        <time>2019-04-30T12:00:22Z</time>
      </trkpt>
      <trkpt lat="42.300301" lon="-8.608366">
        <ele>39.025</ele>
        <time>2019-04-30T12:00:23Z</time>
      </trkpt>
      <trkpt lat="42.300314" lon="-8.608343">
        <ele>39.508</ele>
        <time>2019-04-30T12:00:24Z</time>
      </trkpt>
      <trkpt lat="42.300322" lon="-8.608320">
        <ele>39.550</ele>
        <time>2019-04-30T12:00:25Z</time>
      </trkpt>
      <trkpt lat="42.300327" lon="-8.608298">
        <ele>40.073</ele>
        <time>2019-04-30T12:00:26Z</time>
      </trkpt>
      <trkpt lat="42.300331" lon="-8.608260">
        <ele>39.019</ele>
        <time>2019-04-30T12:00:36Z</time>
      </trkpt>
      <trkpt lat="42.300342" lon="-8.608253">
        <ele>38.567</ele>
        <time>2019-04-30T12:00:55Z</time>
      </trkpt>
      <trkpt lat="42.300350" lon="-8.608241">
        <ele>38.555</ele>
        <time>2019-04-30T12:00:56Z</time>
      </trkpt>
      <trkpt lat="42.300358" lon="-8.608230">
        <ele>39.047</ele>
        <time>2019-04-30T12:00:57Z</time>
      </trkpt>
      <trkpt lat="42.300382" lon="-8.608179">
        <ele>40.567</ele>
        <time>2019-04-30T12:01:01Z</time>
      </trkpt>
      <trkpt lat="42.300387" lon="-8.608163">
        <ele>40.531</ele>
        <time>2019-04-30T12:01:02Z</time>
      </trkpt>
      <trkpt lat="42.300398" lon="-8.608149">
        <ele>40.993</ele>
        <time>2019-04-30T12:01:03Z</time>
      </trkpt>
      <trkpt lat="42.300412" lon="-8.608138">
        <ele>40.965</ele>
        <time>2019-04-30T12:01:04Z</time>
      </trkpt>
      <trkpt lat="42.300429" lon="-8.608132">
        <ele>40.921</ele>
        <time>2019-04-30T12:01:05Z</time>
      </trkpt>
      <trkpt lat="42.300448" lon="-8.608130">
        <ele>41.408</ele>
        <time>2019-04-30T12:01:06Z</time>
      </trkpt>
      <trkpt lat="42.300471" lon="-8.608129">
        <ele>41.912</ele>
        <time>2019-04-30T12:01:07Z</time>
      </trkpt>
      <trkpt lat="42.300491" lon="-8.608133">
        <ele>41.925</ele>
        <time>2019-04-30T12:01:08Z</time>
      </trkpt>
      <trkpt lat="42.300512" lon="-8.608138">
        <ele>42.431</ele>
        <time>2019-04-30T12:01:09Z</time>
      </trkpt>
      <trkpt lat="42.300530" lon="-8.608142">
        <ele>41.939</ele>
        <time>2019-04-30T12:01:10Z</time>
      </trkpt>
      <trkpt lat="42.300545" lon="-8.608151">
        <ele>41.947</ele>
        <time>2019-04-30T12:01:11Z</time>
      </trkpt>
      <trkpt lat="42.300565" lon="-8.608164">
        <ele>41.919</ele>
        <time>2019-04-30T12:01:12Z</time>
      </trkpt>
      <trkpt lat="42.300589" lon="-8.608182">
        <ele>41.469</ele>
        <time>2019-04-30T12:01:13Z</time>
      </trkpt>
      <trkpt lat="42.300620" lon="-8.608211">
        <ele>40.923</ele>
        <time>2019-04-30T12:01:14Z</time>
      </trkpt>
      <trkpt lat="42.300657" lon="-8.608252">
        <ele>40.923</ele>
        <time>2019-04-30T12:01:15Z</time>
      </trkpt>
      <trkpt lat="42.300704" lon="-8.608298">
        <ele>40.583</ele>
        <time>2019-04-30T12:01:16Z</time>
      </trkpt>
      <trkpt lat="42.300762" lon="-8.608337">
        <ele>40.011</ele>
        <time>2019-04-30T12:01:17Z</time>
      </trkpt>
      <trkpt lat="42.300821" lon="-8.608358">
        <ele>39.508</ele>
        <time>2019-04-30T12:01:18Z</time>
      </trkpt>
      <trkpt lat="42.300880" lon="-8.608352">
        <ele>39.085</ele>
        <time>2019-04-30T12:01:19Z</time>
      </trkpt>
      <trkpt lat="42.300935" lon="-8.608323">
        <ele>39.068</ele>
        <time>2019-04-30T12:01:20Z</time>
      </trkpt>
      <trkpt lat="42.300987" lon="-8.608290">
        <ele>39.084</ele>
        <time>2019-04-30T12:01:21Z</time>
      </trkpt>
      <trkpt lat="42.301037" lon="-8.608264">
        <ele>39.042</ele>
        <time>2019-04-30T12:01:22Z</time>
      </trkpt>
      <trkpt lat="42.301132" lon="-8.608228">
        <ele>38.570</ele>
        <time>2019-04-30T12:01:24Z</time>
      </trkpt>
      <trkpt lat="42.301178" lon="-8.608222">
        <ele>38.142</ele>
        <time>2019-04-30T12:01:25Z</time>
      </trkpt>
      <trkpt lat="42.301221" lon="-8.608221">
        <ele>38.132</ele>
        <time>2019-04-30T12:01:26Z</time>
      </trkpt>
      <trkpt lat="42.301347" lon="-8.608230">
        <ele>37.616</ele>
        <time>2019-04-30T12:01:29Z</time>
      </trkpt>
      <trkpt lat="42.301464" lon="-8.608228">
        <ele>37.164</ele>
        <time>2019-04-30T12:01:32Z</time>
      </trkpt>
      <trkpt lat="42.301501" lon="-8.608203">
        <ele>37.106</ele>
        <time>2019-04-30T12:01:33Z</time>
      </trkpt>
      <trkpt lat="42.301576" lon="-8.608146">
        <ele>37.116</ele>
        <time>2019-04-30T12:01:35Z</time>
      </trkpt>
      <trkpt lat="42.301679" lon="-8.608081">
        <ele>37.108</ele>
        <time>2019-04-30T12:01:38Z</time>
      </trkpt>
      <trkpt lat="42.301715" lon="-8.608060">
        <ele>37.199</ele>
        <time>2019-04-30T12:01:39Z</time>
      </trkpt>
      <trkpt lat="42.302036" lon="-8.607870">
        <ele>41.492</ele>
        <time>2019-04-30T12:01:49Z</time>
      </trkpt>
      <trkpt lat="42.302124" lon="-8.607779">
        <ele>43.418</ele>
        <time>2019-04-30T12:01:53Z</time>
      </trkpt>
      <trkpt lat="42.302254" lon="-8.607585">
        <ele>47.226</ele>
        <time>2019-04-30T12:02:01Z</time>
      </trkpt>
      <trkpt lat="42.302530" lon="-8.607352">
        <ele>53.444</ele>
        <time>2019-04-30T12:02:13Z</time>
      </trkpt>
      <trkpt lat="42.302796" lon="-8.607010">
        <ele>53.416</ele>
        <time>2019-04-30T12:02:26Z</time>
      </trkpt>
      <trkpt lat="42.303051" lon="-8.606793">
        <ele>55.456</ele>
        <time>2019-04-30T12:02:37Z</time>
      </trkpt>
      <trkpt lat="42.303178" lon="-8.606656">
        <ele>55.850</ele>
        <time>2019-04-30T12:02:43Z</time>
      </trkpt>
      <trkpt lat="42.303252" lon="-8.606549">
        <ele>56.338</ele>
        <time>2019-04-30T12:02:47Z</time>
      </trkpt>
      <trkpt lat="42.303541" lon="-8.606242">
        <ele>56.370</ele>
        <time>2019-04-30T12:03:01Z</time>
      </trkpt>
      <trkpt lat="42.303930" lon="-8.606062">
        <ele>57.317</ele>
        <time>2019-04-30T12:03:16Z</time>
      </trkpt>
      <trkpt lat="42.304033" lon="-8.605878">
        <ele>55.808</ele>
        <time>2019-04-30T12:03:23Z</time>
      </trkpt>
      <trkpt lat="42.304249" lon="-8.605889">
        <ele>53.486</ele>
        <time>2019-04-30T12:03:33Z</time>
      </trkpt>
      <trkpt lat="42.304372" lon="-8.605900">
        <ele>53.089</ele>
        <time>2019-04-30T12:03:39Z</time>
      </trkpt>
      <trkpt lat="42.304648" lon="-8.605898">
        <ele>53.445</ele>
        <time>2019-04-30T12:03:52Z</time>
      </trkpt>
      <trkpt lat="42.304677" lon="-8.606001">
        <ele>54.973</ele>
        <time>2019-04-30T12:03:59Z</time>
      </trkpt>
      <trkpt lat="42.304626" lon="-8.605973">
        <ele>54.951</ele>
        <time>2019-04-30T12:04:03Z</time>
      </trkpt>
      <trkpt lat="42.304690" lon="-8.605963">
        <ele>54.933</ele>
        <time>2019-04-30T12:04:12Z</time>
      </trkpt>
      <trkpt lat="42.304691" lon="-8.605967">
        <ele>54.443</ele>
        <time>2019-04-30T12:04:14Z</time>
      </trkpt>
      <trkpt lat="42.304624" lon="-8.605867">
        <ele>55.477</ele>
        <time>2019-04-30T12:04:24Z</time>
      </trkpt>
      <trkpt lat="42.304661" lon="-8.605897">
        <ele>55.487</ele>
        <time>2019-04-30T12:04:27Z</time>
      </trkpt>
      <trkpt lat="42.304677" lon="-8.605931">
        <ele>55.842</ele>
        <time>2019-04-30T12:04:29Z</time>
      </trkpt>
      <trkpt lat="42.304619" lon="-8.605912">
        <ele>53.426</ele>
        <time>2019-04-30T12:04:39Z</time>
      </trkpt>
      <trkpt lat="42.304716" lon="-8.605927">
        <ele>51.008</ele>
        <time>2019-04-30T12:04:47Z</time>
      </trkpt>
      <trkpt lat="42.304680" lon="-8.605925">
        <ele>53.051</ele>
        <time>2019-04-30T12:04:56Z</time>
      </trkpt>
      <trkpt lat="42.304706" lon="-8.605941">
        <ele>53.064</ele>
        <time>2019-04-30T12:05:08Z</time>
      </trkpt>
      <trkpt lat="42.304708" lon="-8.605936">
        <ele>53.470</ele>
        <time>2019-04-30T12:05:15Z</time>
      </trkpt>
      <trkpt lat="42.304821" lon="-8.605898">
        <ele>53.488</ele>
        <time>2019-04-30T12:05:23Z</time>
      </trkpt>
      <trkpt lat="42.305003" lon="-8.605871">
        <ele>55.436</ele>
        <time>2019-04-30T12:05:32Z</time>
      </trkpt>
      <trkpt lat="42.305196" lon="-8.605888">
        <ele>55.478</ele>
        <time>2019-04-30T12:05:42Z</time>
      </trkpt>
      <trkpt lat="42.305398" lon="-8.605811">
        <ele>59.768</ele>
        <time>2019-04-30T12:05:55Z</time>
      </trkpt>
      <trkpt lat="42.305617" lon="-8.605799">
        <ele>67.422</ele>
        <time>2019-04-30T12:06:07Z</time>
      </trkpt>
      <trkpt lat="42.305854" lon="-8.605767">
        <ele>72.793</ele>
        <time>2019-04-30T12:06:19Z</time>
      </trkpt>
      <trkpt lat="42.306158" lon="-8.605653">
        <ele>74.665</ele>
        <time>2019-04-30T12:06:32Z</time>
      </trkpt>
      <trkpt lat="42.306471" lon="-8.605333">
        <ele>69.321</ele>
        <time>2019-04-30T12:06:48Z</time>
      </trkpt>
      <trkpt lat="42.306643" lon="-8.605088">
        <ele>68.308</ele>
        <time>2019-04-30T12:06:59Z</time>
      </trkpt>
      <trkpt lat="42.306786" lon="-8.604831">
        <ele>70.742</ele>
        <time>2019-04-30T12:07:08Z</time>
      </trkpt>
      <trkpt lat="42.306787" lon="-8.604812">
        <ele>71.285</ele>
        <time>2019-04-30T12:07:09Z</time>
      </trkpt>
      <trkpt lat="42.306786" lon="-8.604783">
        <ele>71.211</ele>
        <time>2019-04-30T12:07:19Z</time>
      </trkpt>
      <trkpt lat="42.306788" lon="-8.604782">
        <ele>70.369</ele>
        <time>2019-04-30T12:07:36Z</time>
      </trkpt>
      <trkpt lat="42.306936" lon="-8.604769">
        <ele>69.837</ele>
        <time>2019-04-30T12:07:43Z</time>
      </trkpt>
      <trkpt lat="42.307260" lon="-8.604794">
        <ele>69.859</ele>
        <time>2019-04-30T12:07:57Z</time>
      </trkpt>
      <trkpt lat="42.307553" lon="-8.604592">
        <ele>73.659</ele>
        <time>2019-04-30T12:08:12Z</time>
      </trkpt>
      <trkpt lat="42.307668" lon="-8.604667">
        <ele>74.183</ele>
        <time>2019-04-30T12:08:18Z</time>
      </trkpt>
      <trkpt lat="42.307851" lon="-8.604381">
        <ele>76.074</ele>
        <time>2019-04-30T12:08:31Z</time>
      </trkpt>
      <trkpt lat="42.307900" lon="-8.604253">
        <ele>78.056</ele>
        <time>2019-04-30T12:08:36Z</time>
      </trkpt>
      <trkpt lat="42.307914" lon="-8.604222">
        <ele>78.421</ele>
        <time>2019-04-30T12:08:48Z</time>
      </trkpt>
      <trkpt lat="42.307905" lon="-8.604243">
        <ele>78.408</ele>
        <time>2019-04-30T12:09:16Z</time>
      </trkpt>
      <trkpt lat="42.307858" lon="-8.604357">
        <ele>77.540</ele>
        <time>2019-04-30T12:09:26Z</time>
      </trkpt>
      <trkpt lat="42.307632" lon="-8.604742">
        <ele>72.713</ele>
        <time>2019-04-30T12:09:37Z</time>
      </trkpt>
      <trkpt lat="42.307609" lon="-8.604735">
        <ele>72.799</ele>
        <time>2019-04-30T12:09:38Z</time>
      </trkpt>
      <trkpt lat="42.307591" lon="-8.604710">
        <ele>72.297</ele>
        <time>2019-04-30T12:09:39Z</time>
      </trkpt>
      <trkpt lat="42.307578" lon="-8.604686">
        <ele>72.285</ele>
        <time>2019-04-30T12:09:40Z</time>
      </trkpt>
      <trkpt lat="42.307567" lon="-8.604675">
        <ele>72.287</ele>
        <time>2019-04-30T12:09:41Z</time>
      </trkpt>
      <trkpt lat="42.307555" lon="-8.604645">
        <ele>72.217</ele>
        <time>2019-04-30T12:09:48Z</time>
      </trkpt>
      <trkpt lat="42.307549" lon="-8.604619">
        <ele>72.211</ele>
        <time>2019-04-30T12:09:49Z</time>
      </trkpt>
      <trkpt lat="42.307548" lon="-8.604587">
        <ele>71.732</ele>
        <time>2019-04-30T12:09:50Z</time>
      </trkpt>
      <trkpt lat="42.307556" lon="-8.604553">
        <ele>71.792</ele>
        <time>2019-04-30T12:09:51Z</time>
      </trkpt>
      <trkpt lat="42.307570" lon="-8.604525">
        <ele>71.711</ele>
        <time>2019-04-30T12:09:52Z</time>
      </trkpt>
      <trkpt lat="42.307585" lon="-8.604498">
        <ele>71.708</ele>
        <time>2019-04-30T12:09:53Z</time>
      </trkpt>
      <trkpt lat="42.307602" lon="-8.604471">
        <ele>71.766</ele>
        <time>2019-04-30T12:09:54Z</time>
      </trkpt>
      <trkpt lat="42.307803" lon="-8.603988">
        <ele>75.119</ele>
        <time>2019-04-30T12:10:11Z</time>
      </trkpt>
      <trkpt lat="42.308010" lon="-8.603687">
        <ele>77.595</ele>
        <time>2019-04-30T12:10:24Z</time>
      </trkpt>
      <trkpt lat="42.308392" lon="-8.603312">
        <ele>78.093</ele>
        <time>2019-04-30T12:10:38Z</time>
      </trkpt>
      <trkpt lat="42.308859" lon="-8.603165">
        <ele>79.471</ele>
        <time>2019-04-30T12:10:52Z</time>
      </trkpt>
      <trkpt lat="42.309314" lon="-8.603137">
        <ele>83.223</ele>
        <time>2019-04-30T12:11:09Z</time>
      </trkpt>
      <trkpt lat="42.309667" lon="-8.603118">
        <ele>86.193</ele>
        <time>2019-04-30T12:11:25Z</time>
      </trkpt>
      <trkpt lat="42.309684" lon="-8.603124">
        <ele>86.187</ele>
        <time>2019-04-30T12:11:26Z</time>
      </trkpt>
      <trkpt lat="42.309703" lon="-8.603122">
        <ele>86.149</ele>
        <time>2019-04-30T12:11:27Z</time>
      </trkpt>
      <trkpt lat="42.310036" lon="-8.603044">
        <ele>90.002</ele>
        <time>2019-04-30T12:11:44Z</time>
      </trkpt>
      <trkpt lat="42.310052" lon="-8.603044">
        <ele>90.022</ele>
        <time>2019-04-30T12:11:45Z</time>
      </trkpt>
      <trkpt lat="42.310070" lon="-8.603045">
        <ele>90.508</ele>
        <time>2019-04-30T12:11:46Z</time>
      </trkpt>
      <trkpt lat="42.310145" lon="-8.603071">
        <ele>90.547</ele>
        <time>2019-04-30T12:11:50Z</time>
      </trkpt>
      <trkpt lat="42.310157" lon="-8.603092">
        <ele>90.580</ele>
        <time>2019-04-30T12:11:51Z</time>
      </trkpt>
      <trkpt lat="42.310168" lon="-8.603114">
        <ele>90.556</ele>
        <time>2019-04-30T12:11:52Z</time>
      </trkpt>
      <trkpt lat="42.310176" lon="-8.603136">
        <ele>90.054</ele>
        <time>2019-04-30T12:11:53Z</time>
      </trkpt>
      <trkpt lat="42.310183" lon="-8.603155">
        <ele>89.582</ele>
        <time>2019-04-30T12:11:54Z</time>
      </trkpt>
      <trkpt lat="42.310271" lon="-8.603396">
        <ele>89.014</ele>
        <time>2019-04-30T12:12:07Z</time>
      </trkpt>
      <trkpt lat="42.310407" lon="-8.603699">
        <ele>90.954</ele>
        <time>2019-04-30T12:12:24Z</time>
      </trkpt>
      <trkpt lat="42.310446" lon="-8.603714">
        <ele>91.968</ele>
        <time>2019-04-30T12:12:27Z</time>
      </trkpt>
      <trkpt lat="42.310458" lon="-8.603723">
        <ele>92.454</ele>
        <time>2019-04-30T12:12:28Z</time>
      </trkpt>
      <trkpt lat="42.310472" lon="-8.603726">
        <ele>92.456</ele>
        <time>2019-04-30T12:12:29Z</time>
      </trkpt>
      <trkpt lat="42.310484" lon="-8.603731">
        <ele>92.911</ele>
        <time>2019-04-30T12:12:30Z</time>
      </trkpt>
      <trkpt lat="42.310499" lon="-8.603739">
        <ele>92.908</ele>
        <time>2019-04-30T12:12:31Z</time>
      </trkpt>
      <trkpt lat="42.310513" lon="-8.603746">
        <ele>93.398</ele>
        <time>2019-04-30T12:12:32Z</time>
      </trkpt>
      <trkpt lat="42.310527" lon="-8.603750">
        <ele>93.891</ele>
        <time>2019-04-30T12:12:33Z</time>
      </trkpt>
      <trkpt lat="42.310542" lon="-8.603754">
        <ele>94.357</ele>
        <time>2019-04-30T12:12:34Z</time>
      </trkpt>
      <trkpt lat="42.310554" lon="-8.603765">
        <ele>94.845</ele>
        <time>2019-04-30T12:12:35Z</time>
      </trkpt>
      <trkpt lat="42.310567" lon="-8.603775">
        <ele>95.373</ele>
        <time>2019-04-30T12:12:36Z</time>
      </trkpt>
      <trkpt lat="42.310581" lon="-8.603781">
        <ele>95.735</ele>
        <time>2019-04-30T12:12:37Z</time>
      </trkpt>
      <trkpt lat="42.310593" lon="-8.603785">
        <ele>95.715</ele>
        <time>2019-04-30T12:12:38Z</time>
      </trkpt>
      <trkpt lat="42.310604" lon="-8.603805">
        <ele>96.289</ele>
        <time>2019-04-30T12:12:40Z</time>
      </trkpt>
      <trkpt lat="42.310612" lon="-8.603820">
        <ele>96.271</ele>
        <time>2019-04-30T12:12:41Z</time>
      </trkpt>
      <trkpt lat="42.310623" lon="-8.603829">
        <ele>96.241</ele>
        <time>2019-04-30T12:12:42Z</time>
      </trkpt>
      <trkpt lat="42.310634" lon="-8.603835">
        <ele>96.715</ele>
        <time>2019-04-30T12:12:43Z</time>
      </trkpt>
      <trkpt lat="42.310644" lon="-8.603845">
        <ele>96.708</ele>
        <time>2019-04-30T12:12:44Z</time>
      </trkpt>
      <trkpt lat="42.310653" lon="-8.603854">
        <ele>97.250</ele>
        <time>2019-04-30T12:12:45Z</time>
      </trkpt>
      <trkpt lat="42.310663" lon="-8.603860">
        <ele>97.733</ele>
        <time>2019-04-30T12:12:46Z</time>
      </trkpt>
      <trkpt lat="42.310676" lon="-8.603864">
        <ele>98.129</ele>
        <time>2019-04-30T12:12:47Z</time>
      </trkpt>
      <trkpt lat="42.310689" lon="-8.603867">
        <ele>98.697</ele>
        <time>2019-04-30T12:12:48Z</time>
      </trkpt>
      <trkpt lat="42.310698" lon="-8.603875">
        <ele>98.635</ele>
        <time>2019-04-30T12:12:49Z</time>
      </trkpt>
      <trkpt lat="42.310779" lon="-8.603964">
        <ele>98.617</ele>
        <time>2019-04-30T12:12:58Z</time>
      </trkpt>
      <trkpt lat="42.310787" lon="-8.603973">
        <ele>99.157</ele>
        <time>2019-04-30T12:12:59Z</time>
      </trkpt>
      <trkpt lat="42.310798" lon="-8.603980">
        <ele>99.181</ele>
        <time>2019-04-30T12:13:00Z</time>
      </trkpt>
      <trkpt lat="42.310879" lon="-8.604054">
        <ele>101.036</ele>
        <time>2019-04-30T12:13:08Z</time>
      </trkpt>
      <trkpt lat="42.310951" lon="-8.604132">
        <ele>103.017</ele>
        <time>2019-04-30T12:13:16Z</time>
      </trkpt>
      <trkpt lat="42.310959" lon="-8.604147">
        <ele>103.418</ele>
        <time>2019-04-30T12:13:17Z</time>
      </trkpt>
      <trkpt lat="42.310969" lon="-8.604162">
        <ele>103.408</ele>
        <time>2019-04-30T12:13:18Z</time>
      </trkpt>
      <trkpt lat="42.310978" lon="-8.604176">
        <ele>103.966</ele>
        <time>2019-04-30T12:13:19Z</time>
      </trkpt>
      <trkpt lat="42.310984" lon="-8.604191">
        <ele>103.969</ele>
        <time>2019-04-30T12:13:20Z</time>
      </trkpt>
      <trkpt lat="42.310995" lon="-8.604218">
        <ele>104.425</ele>
        <time>2019-04-30T12:13:22Z</time>
      </trkpt>
      <trkpt lat="42.311015" lon="-8.604263">
        <ele>105.463</ele>
        <time>2019-04-30T12:13:26Z</time>
      </trkpt>
      <trkpt lat="42.311022" lon="-8.604274">
        <ele>105.421</ele>
        <time>2019-04-30T12:13:27Z</time>
      </trkpt>
      <trkpt lat="42.311029" lon="-8.604289">
        <ele>105.853</ele>
        <time>2019-04-30T12:13:28Z</time>
      </trkpt>
      <trkpt lat="42.311037" lon="-8.604302">
        <ele>105.843</ele>
        <time>2019-04-30T12:13:29Z</time>
      </trkpt>
      <trkpt lat="42.311045" lon="-8.604316">
        <ele>105.847</ele>
        <time>2019-04-30T12:13:30Z</time>
      </trkpt>
      <trkpt lat="42.311102" lon="-8.604423">
        <ele>106.825</ele>
        <time>2019-04-30T12:13:39Z</time>
      </trkpt>
      <trkpt lat="42.311114" lon="-8.604429">
        <ele>107.326</ele>
        <time>2019-04-30T12:13:40Z</time>
      </trkpt>
      <trkpt lat="42.311128" lon="-8.604433">
        <ele>107.808</ele>
        <time>2019-04-30T12:13:41Z</time>
      </trkpt>
      <trkpt lat="42.311155" lon="-8.604459">
        <ele>109.208</ele>
        <time>2019-04-30T12:13:44Z</time>
      </trkpt>
      <trkpt lat="42.311163" lon="-8.604487">
        <ele>109.785</ele>
        <time>2019-04-30T12:13:46Z</time>
      </trkpt>
      <trkpt lat="42.311176" lon="-8.604509">
        <ele>110.278</ele>
        <time>2019-04-30T12:13:48Z</time>
      </trkpt>
      <trkpt lat="42.311280" lon="-8.604595">
        <ele>114.074</ele>
        <time>2019-04-30T12:13:59Z</time>
      </trkpt>
      <trkpt lat="42.311456" lon="-8.604701">
        <ele>118.892</ele>
        <time>2019-04-30T12:14:15Z</time>
      </trkpt>
      <trkpt lat="42.311528" lon="-8.604751">
        <ele>119.370</ele>
        <time>2019-04-30T12:14:22Z</time>
      </trkpt>
      <trkpt lat="42.311537" lon="-8.604760">
        <ele>119.812</ele>
        <time>2019-04-30T12:14:23Z</time>
      </trkpt>
      <trkpt lat="42.311625" lon="-8.604827">
        <ele>120.352</ele>
        <time>2019-04-30T12:14:31Z</time>
      </trkpt>
      <trkpt lat="42.311633" lon="-8.604836">
        <ele>120.346</ele>
        <time>2019-04-30T12:14:32Z</time>
      </trkpt>
      <trkpt lat="42.311643" lon="-8.604841">
        <ele>120.315</ele>
        <time>2019-04-30T12:14:33Z</time>
      </trkpt>
      <trkpt lat="42.311659" lon="-8.604859">
        <ele>120.765</ele>
        <time>2019-04-30T12:14:35Z</time>
      </trkpt>
      <trkpt lat="42.311788" lon="-8.605041">
        <ele>122.711</ele>
        <time>2019-04-30T12:14:50Z</time>
      </trkpt>
      <trkpt lat="42.311794" lon="-8.605054">
        <ele>124.108</ele>
        <time>2019-04-30T12:15:04Z</time>
      </trkpt>
      <trkpt lat="42.311808" lon="-8.605053">
        <ele>124.624</ele>
        <time>2019-04-30T12:15:31Z</time>
      </trkpt>
      <trkpt lat="42.311800" lon="-8.605052">
        <ele>124.187</ele>
        <time>2019-04-30T12:15:57Z</time>
      </trkpt>
      <trkpt lat="42.311838" lon="-8.605155">
        <ele>125.173</ele>
        <time>2019-04-30T12:16:09Z</time>
      </trkpt>
      <trkpt lat="42.312103" lon="-8.605437">
        <ele>124.131</ele>
        <time>2019-04-30T12:16:22Z</time>
      </trkpt>
      <trkpt lat="42.312486" lon="-8.605703">
        <ele>124.669</ele>
        <time>2019-04-30T12:16:37Z</time>
      </trkpt>
      <trkpt lat="42.312747" lon="-8.605840">
        <ele>125.551</ele>
        <time>2019-04-30T12:16:50Z</time>
      </trkpt>
      <trkpt lat="42.313070" lon="-8.605986">
        <ele>127.521</ele>
        <time>2019-04-30T12:17:04Z</time>
      </trkpt>
      <trkpt lat="42.313363" lon="-8.606075">
        <ele>129.925</ele>
        <time>2019-04-30T12:17:17Z</time>
      </trkpt>
      <trkpt lat="42.313636" lon="-8.606107">
        <ele>130.834</ele>
        <time>2019-04-30T12:17:29Z</time>
      </trkpt>
      <trkpt lat="42.313909" lon="-8.606142">
        <ele>132.855</ele>
        <time>2019-04-30T12:17:41Z</time>
      </trkpt>
      <trkpt lat="42.314245" lon="-8.606259">
        <ele>134.210</ele>
        <time>2019-04-30T12:17:56Z</time>
      </trkpt>
      <trkpt lat="42.314489" lon="-8.606456">
        <ele>138.008</ele>
        <time>2019-04-30T12:18:09Z</time>
      </trkpt>
      <trkpt lat="42.314501" lon="-8.606477">
        <ele>138.086</ele>
        <time>2019-04-30T12:18:10Z</time>
      </trkpt>
      <trkpt lat="42.314518" lon="-8.606497">
        <ele>138.049</ele>
        <time>2019-04-30T12:18:11Z</time>
      </trkpt>
      <trkpt lat="42.314534" lon="-8.606512">
        <ele>138.095</ele>
        <time>2019-04-30T12:18:12Z</time>
      </trkpt>
      <trkpt lat="42.314550" lon="-8.606529">
        <ele>138.033</ele>
        <time>2019-04-30T12:18:13Z</time>
      </trkpt>
      <trkpt lat="42.314568" lon="-8.606547">
        <ele>138.021</ele>
        <time>2019-04-30T12:18:14Z</time>
      </trkpt>
      <trkpt lat="42.314758" lon="-8.606665">
        <ele>139.043</ele>
        <time>2019-04-30T12:18:25Z</time>
      </trkpt>
      <trkpt lat="42.315043" lon="-8.606876">
        <ele>139.013</ele>
        <time>2019-04-30T12:18:37Z</time>
      </trkpt>
      <trkpt lat="42.315295" lon="-8.607101">
        <ele>137.687</ele>
        <time>2019-04-30T12:18:48Z</time>
      </trkpt>
      <trkpt lat="42.315508" lon="-8.607246">
        <ele>138.589</ele>
        <time>2019-04-30T12:18:57Z</time>
      </trkpt>
      <trkpt lat="42.315905" lon="-8.607452">
        <ele>140.406</ele>
        <time>2019-04-30T12:19:09Z</time>
      </trkpt>
      <trkpt lat="42.316121" lon="-8.607425">
        <ele>141.926</ele>
        <time>2019-04-30T12:19:19Z</time>
      </trkpt>
      <trkpt lat="42.316345" lon="-8.607451">
        <ele>149.108</ele>
        <time>2019-04-30T12:19:32Z</time>
      </trkpt>
      <trkpt lat="42.316369" lon="-8.607449">
        <ele>149.661</ele>
        <time>2019-04-30T12:19:34Z</time>
      </trkpt>
      <trkpt lat="42.316390" lon="-8.607447">
        <ele>149.694</ele>
        <time>2019-04-30T12:19:35Z</time>
      </trkpt>
      <trkpt lat="42.316418" lon="-8.607449">
        <ele>149.650</ele>
        <time>2019-04-30T12:19:36Z</time>
      </trkpt>
      <trkpt lat="42.316452" lon="-8.607450">
        <ele>149.668</ele>
        <time>2019-04-30T12:19:37Z</time>
      </trkpt>
      <trkpt lat="42.316491" lon="-8.607452">
        <ele>149.696</ele>
        <time>2019-04-30T12:19:38Z</time>
      </trkpt>
      <trkpt lat="42.316722" lon="-8.607439">
        <ele>148.688</ele>
        <time>2019-04-30T12:19:45Z</time>
      </trkpt>
      <trkpt lat="42.316741" lon="-8.607434">
        <ele>147.798</ele>
        <time>2019-04-30T12:19:58Z</time>
      </trkpt>
      <trkpt lat="42.316759" lon="-8.607431">
        <ele>147.752</ele>
        <time>2019-04-30T12:20:19Z</time>
      </trkpt>
      <trkpt lat="42.316777" lon="-8.607442">
        <ele>148.171</ele>
        <time>2019-04-30T12:20:45Z</time>
      </trkpt>
      <trkpt lat="42.316791" lon="-8.607413">
        <ele>148.641</ele>
        <time>2019-04-30T12:20:56Z</time>
      </trkpt>
      <trkpt lat="42.316800" lon="-8.607399">
        <ele>148.615</ele>
        <time>2019-04-30T12:20:57Z</time>
      </trkpt>
      <trkpt lat="42.316814" lon="-8.607384">
        <ele>148.608</ele>
        <time>2019-04-30T12:20:58Z</time>
      </trkpt>
      <trkpt lat="42.317111" lon="-8.607209">
        <ele>148.660</ele>
        <time>2019-04-30T12:21:08Z</time>
      </trkpt>
      <trkpt lat="42.317147" lon="-8.607188">
        <ele>148.643</ele>
        <time>2019-04-30T12:21:09Z</time>
      </trkpt>
      <trkpt lat="42.317182" lon="-8.607168">
        <ele>148.619</ele>
        <time>2019-04-30T12:21:10Z</time>
      </trkpt>
      <trkpt lat="42.317225" lon="-8.607150">
        <ele>148.667</ele>
        <time>2019-04-30T12:21:11Z</time>
      </trkpt>
      <trkpt lat="42.317266" lon="-8.607121">
        <ele>148.155</ele>
        <time>2019-04-30T12:21:12Z</time>
      </trkpt>
      <trkpt lat="42.317309" lon="-8.607096">
        <ele>148.667</ele>
        <time>2019-04-30T12:21:13Z</time>
      </trkpt>
      <trkpt lat="42.317353" lon="-8.607069">
        <ele>148.637</ele>
        <time>2019-04-30T12:21:14Z</time>
      </trkpt>
      <trkpt lat="42.317395" lon="-8.607041">
        <ele>148.611</ele>
        <time>2019-04-30T12:21:15Z</time>
      </trkpt>
      <trkpt lat="42.317470" lon="-8.606981">
        <ele>148.177</ele>
        <time>2019-04-30T12:21:17Z</time>
      </trkpt>
      <trkpt lat="42.317591" lon="-8.606900">
        <ele>147.261</ele>
        <time>2019-04-30T12:21:20Z</time>
      </trkpt>
      <trkpt lat="42.317629" lon="-8.606866">
        <ele>147.227</ele>
        <time>2019-04-30T12:21:21Z</time>
      </trkpt>
      <trkpt lat="42.317669" lon="-8.606831">
        <ele>146.708</ele>
        <time>2019-04-30T12:21:22Z</time>
      </trkpt>
      <trkpt lat="42.317713" lon="-8.606795">
        <ele>146.790</ele>
        <time>2019-04-30T12:21:23Z</time>
      </trkpt>
      <trkpt lat="42.317759" lon="-8.606749">
        <ele>146.283</ele>
        <time>2019-04-30T12:21:24Z</time>
      </trkpt>
      <trkpt lat="42.318126" lon="-8.606207">
        <ele>144.389</ele>
        <time>2019-04-30T12:21:32Z</time>
      </trkpt>
      <trkpt lat="42.318183" lon="-8.606140">
        <ele>143.827</ele>
        <time>2019-04-30T12:21:33Z</time>
      </trkpt>
      <trkpt lat="42.318303" lon="-8.606028">
        <ele>143.855</ele>
        <time>2019-04-30T12:21:35Z</time>
      </trkpt>
      <trkpt lat="42.318376" lon="-8.605991">
        <ele>143.877</ele>
        <time>2019-04-30T12:21:36Z</time>
      </trkpt>
      <trkpt lat="42.318452" lon="-8.605975">
        <ele>143.837</ele>
        <time>2019-04-30T12:21:37Z</time>
      </trkpt>
      <trkpt lat="42.318520" lon="-8.605982">
        <ele>143.321</ele>
        <time>2019-04-30T12:21:38Z</time>
      </trkpt>
      <trkpt lat="42.318584" lon="-8.606012">
        <ele>143.339</ele>
        <time>2019-04-30T12:21:39Z</time>
      </trkpt>
      <trkpt lat="42.318646" lon="-8.606049">
        <ele>143.301</ele>
        <time>2019-04-30T12:21:40Z</time>
      </trkpt>
      <trkpt lat="42.318705" lon="-8.606079">
        <ele>142.821</ele>
        <time>2019-04-30T12:21:41Z</time>
      </trkpt>
      <trkpt lat="42.318771" lon="-8.606104">
        <ele>142.808</ele>
        <time>2019-04-30T12:21:42Z</time>
      </trkpt>
      <trkpt lat="42.318848" lon="-8.606124">
        <ele>142.456</ele>
        <time>2019-04-30T12:21:43Z</time>
      </trkpt>
      <trkpt lat="42.318925" lon="-8.606138">
        <ele>142.449</ele>
        <time>2019-04-30T12:21:44Z</time>
      </trkpt>
      <trkpt lat="42.319489" lon="-8.606212">
        <ele>141.435</ele>
        <time>2019-04-30T12:21:52Z</time>
      </trkpt>
      <trkpt lat="42.319560" lon="-8.606253">
        <ele>140.953</ele>
        <time>2019-04-30T12:21:53Z</time>
      </trkpt>
      <trkpt lat="42.319790" lon="-8.606435">
        <ele>140.081</ele>
        <time>2019-04-30T12:21:56Z</time>
      </trkpt>
      <trkpt lat="42.320117" lon="-8.606745">
        <ele>138.073</ele>
        <time>2019-04-30T12:22:00Z</time>
      </trkpt>
      <trkpt lat="42.320193" lon="-8.606845">
        <ele>137.693</ele>
        <time>2019-04-30T12:22:01Z</time>
      </trkpt>
      <trkpt lat="42.320532" lon="-8.607351">
        <ele>131.897</ele>
        <time>2019-04-30T12:22:06Z</time>
      </trkpt>
      <trkpt lat="42.320613" lon="-8.607429">
        <ele>130.418</ele>
        <time>2019-04-30T12:22:07Z</time>
      </trkpt>
      <trkpt lat="42.320701" lon="-8.607484">
        <ele>128.998</ele>
        <time>2019-04-30T12:22:08Z</time>
      </trkpt>
      <trkpt lat="42.320794" lon="-8.607521">
        <ele>127.517</ele>
        <time>2019-04-30T12:22:09Z</time>
      </trkpt>
      <trkpt lat="42.320892" lon="-8.607543">
        <ele>126.008</ele>
        <time>2019-04-30T12:22:10Z</time>
      </trkpt>
      <trkpt lat="42.320988" lon="-8.607558">
        <ele>124.684</ele>
        <time>2019-04-30T12:22:11Z</time>
      </trkpt>
      <trkpt lat="42.321222" lon="-8.607575">
        <ele>120.717</ele>
        <time>2019-04-30T12:22:14Z</time>
      </trkpt>
      <trkpt lat="42.321284" lon="-8.607565">
        <ele>119.863</ele>
        <time>2019-04-30T12:22:15Z</time>
      </trkpt>
      <trkpt lat="42.321346" lon="-8.607542">
        <ele>118.331</ele>
        <time>2019-04-30T12:22:16Z</time>
      </trkpt>
      <trkpt lat="42.321953" lon="-8.607313">
        <ele>107.839</ele>
        <time>2019-04-30T12:22:25Z</time>
      </trkpt>
      <trkpt lat="42.322809" lon="-8.607192">
        <ele>97.761</ele>
        <time>2019-04-30T12:22:35Z</time>
      </trkpt>
      <trkpt lat="42.323486" lon="-8.607193">
        <ele>85.641</ele>
        <time>2019-04-30T12:22:45Z</time>
      </trkpt>
      <trkpt lat="42.323702" lon="-8.607175">
        <ele>82.335</ele>
        <time>2019-04-30T12:22:48Z</time>
      </trkpt>
      <trkpt lat="42.323750" lon="-8.607161">
        <ele>81.352</ele>
        <time>2019-04-30T12:22:49Z</time>
      </trkpt>
      <trkpt lat="42.323783" lon="-8.607148">
        <ele>80.453</ele>
        <time>2019-04-30T12:22:50Z</time>
      </trkpt>
      <trkpt lat="42.323823" lon="-8.607121">
        <ele>77.008</ele>
        <time>2019-04-30T12:22:58Z</time>
      </trkpt>
      <trkpt lat="42.324023" lon="-8.607089">
        <ele>73.608</ele>
        <time>2019-04-30T12:23:05Z</time>
      </trkpt>
      <trkpt lat="42.324065" lon="-8.607076">
        <ele>73.688</ele>
        <time>2019-04-30T12:23:06Z</time>
      </trkpt>
      <trkpt lat="42.324110" lon="-8.607068">
        <ele>73.621</ele>
        <time>2019-04-30T12:23:07Z</time>
      </trkpt>
      <trkpt lat="42.324158" lon="-8.607059">
        <ele>73.277</ele>
        <time>2019-04-30T12:23:08Z</time>
      </trkpt>
      <trkpt lat="42.324206" lon="-8.607044">
        <ele>73.225</ele>
        <time>2019-04-30T12:23:09Z</time>
      </trkpt>
      <trkpt lat="42.324516" lon="-8.607002">
        <ele>72.713</ele>
        <time>2019-04-30T12:23:14Z</time>
      </trkpt>
      <trkpt lat="42.325199" lon="-8.606813">
        <ele>71.225</ele>
        <time>2019-04-30T12:23:22Z</time>
      </trkpt>
      <trkpt lat="42.325291" lon="-8.606773">
        <ele>70.755</ele>
        <time>2019-04-30T12:23:23Z</time>
      </trkpt>
      <trkpt lat="42.325381" lon="-8.606716">
        <ele>69.839</ele>
        <time>2019-04-30T12:23:24Z</time>
      </trkpt>
      <trkpt lat="42.325468" lon="-8.606645">
        <ele>69.392</ele>
        <time>2019-04-30T12:23:25Z</time>
      </trkpt>
      <trkpt lat="42.325560" lon="-8.606562">
        <ele>67.973</ele>
        <time>2019-04-30T12:23:26Z</time>
      </trkpt>
      <trkpt lat="42.325974" lon="-8.606227">
        <ele>62.120</ele>
        <time>2019-04-30T12:23:31Z</time>
      </trkpt>
      <trkpt lat="42.326054" lon="-8.606201">
        <ele>61.108</ele>
        <time>2019-04-30T12:23:32Z</time>
      </trkpt>
      <trkpt lat="42.326133" lon="-8.606194">
        <ele>60.292</ele>
        <time>2019-04-30T12:23:33Z</time>
      </trkpt>
      <trkpt lat="42.326214" lon="-8.606206">
        <ele>58.715</ele>
        <time>2019-04-30T12:23:34Z</time>
      </trkpt>
      <trkpt lat="42.326299" lon="-8.606220">
        <ele>57.861</ele>
        <time>2019-04-30T12:23:35Z</time>
      </trkpt>
      <trkpt lat="42.326386" lon="-8.606221">
        <ele>56.829</ele>
        <time>2019-04-30T12:23:36Z</time>
      </trkpt>
      <trkpt lat="42.326474" lon="-8.606207">
        <ele>55.887</ele>
        <time>2019-04-30T12:23:37Z</time>
      </trkpt>
      <trkpt lat="42.326560" lon="-8.606185">
        <ele>54.499</ele>
        <time>2019-04-30T12:23:38Z</time>
      </trkpt>
      <trkpt lat="42.326636" lon="-8.606148">
        <ele>52.539</ele>
        <time>2019-04-30T12:23:39Z</time>
      </trkpt>
      <trkpt lat="42.326696" lon="-8.606096">
        <ele>50.623</ele>
        <time>2019-04-30T12:23:40Z</time>
      </trkpt>
      <trkpt lat="42.326750" lon="-8.606031">
        <ele>48.695</ele>
        <time>2019-04-30T12:23:41Z</time>
      </trkpt>
      <trkpt lat="42.326808" lon="-8.605962">
        <ele>47.749</ele>
        <time>2019-04-30T12:23:42Z</time>
      </trkpt>
      <trkpt lat="42.326871" lon="-8.605896">
        <ele>46.723</ele>
        <time>2019-04-30T12:23:43Z</time>
      </trkpt>
      <trkpt lat="42.326933" lon="-8.605834">
        <ele>46.208</ele>
        <time>2019-04-30T12:23:44Z</time>
      </trkpt>
      <trkpt lat="42.327045" lon="-8.605731">
        <ele>45.332</ele>
        <time>2019-04-30T12:23:46Z</time>
      </trkpt>
      <trkpt lat="42.327102" lon="-8.605691">
        <ele>45.395</ele>
        <time>2019-04-30T12:23:47Z</time>
      </trkpt>
      <trkpt lat="42.327162" lon="-8.605660">
        <ele>44.841</ele>
        <time>2019-04-30T12:23:48Z</time>
      </trkpt>
      <trkpt lat="42.327492" lon="-8.605554">
        <ele>44.899</ele>
        <time>2019-04-30T12:23:55Z</time>
      </trkpt>
      <trkpt lat="42.327789" lon="-8.605626">
        <ele>47.797</ele>
        <time>2019-04-30T12:24:07Z</time>
      </trkpt>
      <trkpt lat="42.328083" lon="-8.605671">
        <ele>50.659</ele>
        <time>2019-04-30T12:24:17Z</time>
      </trkpt>
      <trkpt lat="42.328474" lon="-8.605810">
        <ele>51.519</ele>
        <time>2019-04-30T12:24:31Z</time>
      </trkpt>
      <trkpt lat="42.328789" lon="-8.606001">
        <ele>49.633</ele>
        <time>2019-04-30T12:24:43Z</time>
      </trkpt>
      <trkpt lat="42.329187" lon="-8.606293">
        <ele>54.437</ele>
        <time>2019-04-30T12:24:59Z</time>
      </trkpt>
      <trkpt lat="42.329709" lon="-8.606599">
        <ele>59.749</ele>
        <time>2019-04-30T12:25:19Z</time>
      </trkpt>
      <trkpt lat="42.330204" lon="-8.606724">
        <ele>64.513</ele>
        <time>2019-04-30T12:25:37Z</time>
      </trkpt>
      <trkpt lat="42.330605" lon="-8.606768">
        <ele>69.308</ele>
        <time>2019-04-30T12:25:51Z</time>
      </trkpt>
      <trkpt lat="42.331127" lon="-8.606797">
        <ele>70.776</ele>
        <time>2019-04-30T12:26:10Z</time>
      </trkpt>
      <trkpt lat="42.331558" lon="-8.606829">
        <ele>69.829</ele>
        <time>2019-04-30T12:26:26Z</time>
      </trkpt>
      <trkpt lat="42.331921" lon="-8.606804">
        <ele>69.355</ele>
        <time>2019-04-30T12:26:40Z</time>
      </trkpt>
      <trkpt lat="42.332054" lon="-8.606792">
        <ele>68.813</ele>
        <time>2019-04-30T12:26:57Z</time>
      </trkpt>
      <trkpt lat="42.332663" lon="-8.606714">
        <ele>65.931</ele>
        <time>2019-04-30T12:27:12Z</time>
      </trkpt>
      <trkpt lat="42.333144" lon="-8.606519">
        <ele>65.583</ele>
        <time>2019-04-30T12:27:25Z</time>
      </trkpt>
      <trkpt lat="42.333161" lon="-8.606530">
        <ele>65.913</ele>
        <time>2019-04-30T12:27:46Z</time>
      </trkpt>
      <trkpt lat="42.333176" lon="-8.606527">
        <ele>65.917</ele>
        <time>2019-04-30T12:27:47Z</time>
      </trkpt>
      <trkpt lat="42.333497" lon="-8.606358">
        <ele>65.552</ele>
        <time>2019-04-30T12:28:01Z</time>
      </trkpt>
      <trkpt lat="42.333497" lon="-8.606343">
        <ele>64.553</ele>
        <time>2019-04-30T12:28:14Z</time>
      </trkpt>
      <trkpt lat="42.333500" lon="-8.606354">
        <ele>63.108</ele>
        <time>2019-04-30T12:28:45Z</time>
      </trkpt>
      <trkpt lat="42.333507" lon="-8.606347">
        <ele>61.108</ele>
        <time>2019-04-30T12:29:02Z</time>
      </trkpt>
      <trkpt lat="42.333496" lon="-8.606431">
        <ele>60.758</ele>
        <time>2019-04-30T12:29:08Z</time>
      </trkpt>
      <trkpt lat="42.333212" lon="-8.606614">
        <ele>59.251</ele>
        <time>2019-04-30T12:29:21Z</time>
      </trkpt>
      <trkpt lat="42.333139" lon="-8.606737">
        <ele>58.337</ele>
        <time>2019-04-30T12:29:26Z</time>
      </trkpt>
      <trkpt lat="42.332942" lon="-8.606895">
        <ele>57.335</ele>
        <time>2019-04-30T12:29:35Z</time>
      </trkpt>
      <trkpt lat="42.332914" lon="-8.607004">
        <ele>55.483</ele>
        <time>2019-04-30T12:29:39Z</time>
      </trkpt>
      <trkpt lat="42.332911" lon="-8.607112">
        <ele>55.885</ele>
        <time>2019-04-30T12:29:43Z</time>
      </trkpt>
      <trkpt lat="42.332945" lon="-8.607204">
        <ele>57.835</ele>
        <time>2019-04-30T12:29:55Z</time>
      </trkpt>
      <trkpt lat="42.332950" lon="-8.607204">
        <ele>57.859</ele>
        <time>2019-04-30T12:30:00Z</time>
      </trkpt>
      <trkpt lat="42.332902" lon="-8.607200">
        <ele>59.238</ele>
        <time>2019-04-30T12:30:09Z</time>
      </trkpt>
      <trkpt lat="42.332897" lon="-8.607195">
        <ele>60.770</ele>
        <time>2019-04-30T12:30:28Z</time>
      </trkpt>
      <trkpt lat="42.332911" lon="-8.607178">
        <ele>60.717</ele>
        <time>2019-04-30T12:30:30Z</time>
      </trkpt>
      <trkpt lat="42.333003" lon="-8.607282">
        <ele>61.108</ele>
        <time>2019-04-30T12:30:38Z</time>
      </trkpt>
      <trkpt lat="42.333341" lon="-8.607427">
        <ele>59.786</ele>
        <time>2019-04-30T12:30:50Z</time>
      </trkpt>
      <trkpt lat="42.333389" lon="-8.607433">
        <ele>59.779</ele>
        <time>2019-04-30T12:30:51Z</time>
      </trkpt>
      <trkpt lat="42.333969" lon="-8.607410">
        <ele>57.895</ele>
        <time>2019-04-30T12:31:01Z</time>
      </trkpt>
      <trkpt lat="42.334736" lon="-8.607405">
        <ele>53.433</ele>
        <time>2019-04-30T12:31:12Z</time>
      </trkpt>
      <trkpt lat="42.334860" lon="-8.607427">
        <ele>53.041</ele>
        <time>2019-04-30T12:31:17Z</time>
      </trkpt>
      <trkpt lat="42.334876" lon="-8.607444">
        <ele>52.543</ele>
        <time>2019-04-30T12:31:18Z</time>
      </trkpt>
      <trkpt lat="42.335067" lon="-8.607594">
        <ele>53.493</ele>
        <time>2019-04-30T12:31:28Z</time>
      </trkpt>
      <trkpt lat="42.335329" lon="-8.607885">
        <ele>53.437</ele>
        <time>2019-04-30T12:31:40Z</time>
      </trkpt>
      <trkpt lat="42.335514" lon="-8.607945">
        <ele>48.661</ele>
        <time>2019-04-30T12:31:45Z</time>
      </trkpt>
      <trkpt lat="42.335614" lon="-8.607867">
        <ele>45.821</ele>
        <time>2019-04-30T12:31:47Z</time>
      </trkpt>
      <trkpt lat="42.335673" lon="-8.607846">
        <ele>44.813</ele>
        <time>2019-04-30T12:31:48Z</time>
      </trkpt>
      <trkpt lat="42.335792" lon="-8.607805">
        <ele>43.408</ele>
        <time>2019-04-30T12:31:50Z</time>
      </trkpt>
      <trkpt lat="42.335848" lon="-8.607769">
        <ele>43.449</ele>
        <time>2019-04-30T12:31:51Z</time>
      </trkpt>
      <trkpt lat="42.335898" lon="-8.607727">
        <ele>42.982</ele>
        <time>2019-04-30T12:31:52Z</time>
      </trkpt>
      <trkpt lat="42.335941" lon="-8.607681">
        <ele>42.918</ele>
        <time>2019-04-30T12:31:53Z</time>
      </trkpt>
      <trkpt lat="42.335972" lon="-8.607635">
        <ele>42.936</ele>
        <time>2019-04-30T12:31:54Z</time>
      </trkpt>
      <trkpt lat="42.335992" lon="-8.607597">
        <ele>42.994</ele>
        <time>2019-04-30T12:31:55Z</time>
      </trkpt>
      <trkpt lat="42.336072" lon="-8.607414">
        <ele>42.996</ele>
        <time>2019-04-30T12:32:02Z</time>
      </trkpt>
      <trkpt lat="42.336089" lon="-8.607400">
        <ele>43.436</ele>
        <time>2019-04-30T12:32:03Z</time>
      </trkpt>
      <trkpt lat="42.336176" lon="-8.607341">
        <ele>45.330</ele>
        <time>2019-04-30T12:32:13Z</time>
      </trkpt>
      <trkpt lat="42.336189" lon="-8.607336">
        <ele>46.297</ele>
        <time>2019-04-30T12:32:27Z</time>
      </trkpt>
      <trkpt lat="42.336197" lon="-8.607320">
        <ele>45.823</ele>
        <time>2019-04-30T12:32:28Z</time>
      </trkpt>
      <trkpt lat="42.336207" lon="-8.607303">
        <ele>45.825</ele>
        <time>2019-04-30T12:32:29Z</time>
      </trkpt>
      <trkpt lat="42.336220" lon="-8.607279">
        <ele>45.808</ele>
        <time>2019-04-30T12:32:30Z</time>
      </trkpt>
      <trkpt lat="42.336238" lon="-8.607252">
        <ele>45.822</ele>
        <time>2019-04-30T12:32:31Z</time>
      </trkpt>
      <trkpt lat="42.336256" lon="-8.607224">
        <ele>45.815</ele>
        <time>2019-04-30T12:32:32Z</time>
      </trkpt>
      <trkpt lat="42.336430" lon="-8.606939">
        <ele>48.221</ele>
        <time>2019-04-30T12:32:44Z</time>
      </trkpt>
      <trkpt lat="42.336582" lon="-8.606650">
        <ele>47.219</ele>
        <time>2019-04-30T12:32:59Z</time>
      </trkpt>
      <trkpt lat="42.336576" lon="-8.606634">
        <ele>45.867</ele>
        <time>2019-04-30T12:33:14Z</time>
      </trkpt>
      <trkpt lat="42.336583" lon="-8.606646">
        <ele>45.889</ele>
        <time>2019-04-30T12:33:37Z</time>
      </trkpt>
      <trkpt lat="42.336588" lon="-8.606650">
        <ele>46.259</ele>
        <time>2019-04-30T12:33:39Z</time>
      </trkpt>
      <trkpt lat="42.336602" lon="-8.606677">
        <ele>44.853</ele>
        <time>2019-04-30T12:33:49Z</time>
      </trkpt>
      <trkpt lat="42.336626" lon="-8.606675">
        <ele>44.827</ele>
        <time>2019-04-30T12:34:22Z</time>
      </trkpt>
      <trkpt lat="42.336637" lon="-8.606685">
        <ele>45.368</ele>
        <time>2019-04-30T12:34:55Z</time>
      </trkpt>
      <trkpt lat="42.336629" lon="-8.606678">
        <ele>45.314</ele>
        <time>2019-04-30T12:35:23Z</time>
      </trkpt>
      <trkpt lat="42.336617" lon="-8.606677">
        <ele>46.708</ele>
        <time>2019-04-30T12:35:52Z</time>
      </trkpt>
      <trkpt lat="42.336603" lon="-8.606687">
        <ele>49.675</ele>
        <time>2019-04-30T12:36:23Z</time>
      </trkpt>
      <trkpt lat="42.336603" lon="-8.606695">
        <ele>52.048</ele>
        <time>2019-04-30T12:36:54Z</time>
      </trkpt>
      <trkpt lat="42.336596" lon="-8.606708">
        <ele>51.014</ele>
        <time>2019-04-30T12:37:16Z</time>
      </trkpt>
      <trkpt lat="42.336601" lon="-8.606713">
        <ele>50.642</ele>
        <time>2019-04-30T12:37:46Z</time>
      </trkpt>
      <trkpt lat="42.336607" lon="-8.606717">
        <ele>51.580</ele>
        <time>2019-04-30T12:38:15Z</time>
      </trkpt>
      <trkpt lat="42.336615" lon="-8.606717">
        <ele>51.092</ele>
        <time>2019-04-30T12:38:44Z</time>
      </trkpt>
      <trkpt lat="42.336618" lon="-8.606718">
        <ele>52.082</ele>
        <time>2019-04-30T12:39:12Z</time>
      </trkpt>
      <trkpt lat="42.336625" lon="-8.606720">
        <ele>52.036</ele>
        <time>2019-04-30T12:39:39Z</time>
      </trkpt>
      <trkpt lat="42.336629" lon="-8.606724">
        <ele>51.539</ele>
        <time>2019-04-30T12:40:05Z</time>
      </trkpt>
      <trkpt lat="42.336625" lon="-8.606717">
        <ele>51.001</ele>
        <time>2019-04-30T12:40:39Z</time>
      </trkpt>
      <trkpt lat="42.336629" lon="-8.606714">
        <ele>50.621</ele>
        <time>2019-04-30T12:41:10Z</time>
      </trkpt>
      <trkpt lat="42.336608" lon="-8.606715">
        <ele>51.008</ele>
        <time>2019-04-30T12:41:45Z</time>
      </trkpt>
      <trkpt lat="42.336604" lon="-8.606726">
        <ele>50.696</ele>
        <time>2019-04-30T12:42:15Z</time>
      </trkpt>
      <trkpt lat="42.336616" lon="-8.606733">
        <ele>50.199</ele>
        <time>2019-04-30T12:42:44Z</time>
      </trkpt>
      <trkpt lat="42.336616" lon="-8.606728">
        <ele>49.615</ele>
        <time>2019-04-30T12:43:04Z</time>
      </trkpt>
      <trkpt lat="42.336612" lon="-8.606724">
        <ele>49.683</ele>
        <time>2019-04-30T12:43:24Z</time>
      </trkpt>
      <trkpt lat="42.336616" lon="-8.606716">
        <ele>48.211</ele>
        <time>2019-04-30T12:43:53Z</time>
      </trkpt>
      <trkpt lat="42.336621" lon="-8.606707">
        <ele>46.293</ele>
        <time>2019-04-30T12:44:17Z</time>
      </trkpt>
      <trkpt lat="42.336624" lon="-8.606705">
        <ele>44.813</ele>
        <time>2019-04-30T12:44:42Z</time>
      </trkpt>
      <trkpt lat="42.336637" lon="-8.606711">
        <ele>44.847</ele>
        <time>2019-04-30T12:45:10Z</time>
      </trkpt>
      <trkpt lat="42.336652" lon="-8.606708">
        <ele>46.735</ele>
        <time>2019-04-30T12:45:42Z</time>
      </trkpt>
      <trkpt lat="42.336647" lon="-8.606718">
        <ele>48.686</ele>
        <time>2019-04-30T12:46:14Z</time>
      </trkpt>
      <trkpt lat="42.336629" lon="-8.606712">
        <ele>50.614</ele>
        <time>2019-04-30T12:46:39Z</time>
      </trkpt>
      <trkpt lat="42.336603" lon="-8.606696">
        <ele>52.508</ele>
        <time>2019-04-30T12:47:11Z</time>
      </trkpt>
      <trkpt lat="42.336604" lon="-8.606701">
        <ele>53.036</ele>
        <time>2019-04-30T12:47:42Z</time>
      </trkpt>
      <trkpt lat="42.336616" lon="-8.606709">
        <ele>53.499</ele>
        <time>2019-04-30T12:48:16Z</time>
      </trkpt>
      <trkpt lat="42.336633" lon="-8.606711">
        <ele>51.515</ele>
        <time>2019-04-30T12:48:52Z</time>
      </trkpt>
      <trkpt lat="42.336623" lon="-8.606702">
        <ele>51.043</ele>
        <time>2019-04-30T12:49:19Z</time>
      </trkpt>
      <trkpt lat="42.336614" lon="-8.606699">
        <ele>51.541</ele>
        <time>2019-04-30T12:49:48Z</time>
      </trkpt>
      <trkpt lat="42.336615" lon="-8.606715">
        <ele>52.013</ele>
        <time>2019-04-30T12:50:19Z</time>
      </trkpt>
      <trkpt lat="42.336613" lon="-8.606727">
        <ele>52.033</ele>
        <time>2019-04-30T12:50:48Z</time>
      </trkpt>
      <trkpt lat="42.336612" lon="-8.606714">
        <ele>52.017</ele>
        <time>2019-04-30T12:51:19Z</time>
      </trkpt>
      <trkpt lat="42.336601" lon="-8.606690">
        <ele>55.474</ele>
        <time>2019-04-30T12:51:50Z</time>
      </trkpt>
      <trkpt lat="42.336610" lon="-8.606692">
        <ele>53.956</ele>
        <time>2019-04-30T12:52:17Z</time>
      </trkpt>
      <trkpt lat="42.336618" lon="-8.606690">
        <ele>52.521</ele>
        <time>2019-04-30T12:52:49Z</time>
      </trkpt>
      <trkpt lat="42.336621" lon="-8.606686">
        <ele>50.608</ele>
        <time>2019-04-30T12:53:24Z</time>
      </trkpt>
      <trkpt lat="42.336606" lon="-8.606694">
        <ele>51.070</ele>
        <time>2019-04-30T12:53:55Z</time>
      </trkpt>
      <trkpt lat="42.336596" lon="-8.606696">
        <ele>52.063</ele>
        <time>2019-04-30T12:54:22Z</time>
      </trkpt>
      <trkpt lat="42.336598" lon="-8.606680">
        <ele>52.529</ele>
        <time>2019-04-30T12:54:58Z</time>
      </trkpt>
      <trkpt lat="42.336597" lon="-8.606685">
        <ele>51.597</ele>
        <time>2019-04-30T12:55:30Z</time>
      </trkpt>
      <trkpt lat="42.336607" lon="-8.606693">
        <ele>51.565</ele>
        <time>2019-04-30T12:56:01Z</time>
      </trkpt>
      <trkpt lat="42.336613" lon="-8.606693">
        <ele>49.687</ele>
        <time>2019-04-30T12:56:36Z</time>
      </trkpt>
      <trkpt lat="42.336615" lon="-8.606682">
        <ele>48.637</ele>
        <time>2019-04-30T12:57:05Z</time>
      </trkpt>
      <trkpt lat="42.336622" lon="-8.606680">
        <ele>48.641</ele>
        <time>2019-04-30T12:57:37Z</time>
      </trkpt>
      <trkpt lat="42.336617" lon="-8.606702">
        <ele>48.632</ele>
        <time>2019-04-30T12:58:10Z</time>
      </trkpt>
      <trkpt lat="42.336606" lon="-8.606718">
        <ele>48.692</ele>
        <time>2019-04-30T12:58:41Z</time>
      </trkpt>
      <trkpt lat="42.336617" lon="-8.606717">
        <ele>47.711</ele>
        <time>2019-04-30T12:59:11Z</time>
      </trkpt>
      <trkpt lat="42.336616" lon="-8.606724">
        <ele>45.808</ele>
        <time>2019-04-30T12:59:45Z</time>
      </trkpt>
      <trkpt lat="42.336626" lon="-8.606730">
        <ele>45.826</ele>
        <time>2019-04-30T13:00:16Z</time>
      </trkpt>
      <trkpt lat="42.336629" lon="-8.606713">
        <ele>44.319</ele>
        <time>2019-04-30T13:00:47Z</time>
      </trkpt>
      <trkpt lat="42.336617" lon="-8.606712">
        <ele>44.345</ele>
        <time>2019-04-30T13:01:21Z</time>
      </trkpt>
      <trkpt lat="42.336614" lon="-8.606704">
        <ele>43.853</ele>
        <time>2019-04-30T13:01:52Z</time>
      </trkpt>
      <trkpt lat="42.336618" lon="-8.606682">
        <ele>43.411</ele>
        <time>2019-04-30T13:02:27Z</time>
      </trkpt>
      <trkpt lat="42.336631" lon="-8.606676">
        <ele>43.873</ele>
        <time>2019-04-30T13:02:58Z</time>
      </trkpt>
      <trkpt lat="42.336626" lon="-8.606672">
        <ele>46.293</ele>
        <time>2019-04-30T13:03:34Z</time>
      </trkpt>
      <trkpt lat="42.336601" lon="-8.606702">
        <ele>47.717</ele>
        <time>2019-04-30T13:04:12Z</time>
      </trkpt>
      <trkpt lat="42.336585" lon="-8.606692">
        <ele>51.532</ele>
        <time>2019-04-30T13:04:56Z</time>
      </trkpt>
      <trkpt lat="42.336604" lon="-8.606666">
        <ele>52.592</ele>
        <time>2019-04-30T13:05:31Z</time>
      </trkpt>
      <trkpt lat="42.336601" lon="-8.606685">
        <ele>53.011</ele>
        <time>2019-04-30T13:06:08Z</time>
      </trkpt>
      <trkpt lat="42.336594" lon="-8.606699">
        <ele>52.508</ele>
        <time>2019-04-30T13:06:37Z</time>
      </trkpt>
      <trkpt lat="42.336598" lon="-8.606691">
        <ele>52.016</ele>
        <time>2019-04-30T13:07:10Z</time>
      </trkpt>
      <trkpt lat="42.336587" lon="-8.606686">
        <ele>53.949</ele>
        <time>2019-04-30T13:07:39Z</time>
      </trkpt>
      <trkpt lat="42.336584" lon="-8.606682">
        <ele>55.445</ele>
        <time>2019-04-30T13:08:04Z</time>
      </trkpt>
      <trkpt lat="42.336577" lon="-8.606687">
        <ele>55.843</ele>
        <time>2019-04-30T13:08:30Z</time>
      </trkpt>
      <trkpt lat="42.336579" lon="-8.606691">
        <ele>55.811</ele>
        <time>2019-04-30T13:08:56Z</time>
      </trkpt>
      <trkpt lat="42.336584" lon="-8.606700">
        <ele>55.813</ele>
        <time>2019-04-30T13:09:24Z</time>
      </trkpt>
      <trkpt lat="42.336594" lon="-8.606704">
        <ele>55.823</ele>
        <time>2019-04-30T13:09:55Z</time>
      </trkpt>
      <trkpt lat="42.336594" lon="-8.606721">
        <ele>55.427</ele>
        <time>2019-04-30T13:10:25Z</time>
      </trkpt>
      <trkpt lat="42.336607" lon="-8.606723">
        <ele>55.859</ele>
        <time>2019-04-30T13:11:00Z</time>
      </trkpt>
      <trkpt lat="42.336617" lon="-8.606714">
        <ele>56.303</ele>
        <time>2019-04-30T13:11:29Z</time>
      </trkpt>
      <trkpt lat="42.336607" lon="-8.606704">
        <ele>55.823</ele>
        <time>2019-04-30T13:12:01Z</time>
      </trkpt>
      <trkpt lat="42.336602" lon="-8.606699">
        <ele>55.408</ele>
        <time>2019-04-30T13:12:33Z</time>
      </trkpt>
      <trkpt lat="42.336590" lon="-8.606695">
        <ele>57.838</ele>
        <time>2019-04-30T13:13:06Z</time>
      </trkpt>
      <trkpt lat="42.336586" lon="-8.606694">
        <ele>60.231</ele>
        <time>2019-04-30T13:13:42Z</time>
      </trkpt>
      <trkpt lat="42.336582" lon="-8.606700">
        <ele>60.217</ele>
        <time>2019-04-30T13:14:14Z</time>
      </trkpt>
      <trkpt lat="42.336582" lon="-8.606708">
        <ele>59.275</ele>
        <time>2019-04-30T13:14:44Z</time>
      </trkpt>
      <trkpt lat="42.336597" lon="-8.606696">
        <ele>58.783</ele>
        <time>2019-04-30T13:15:19Z</time>
      </trkpt>
      <trkpt lat="42.336603" lon="-8.606704">
        <ele>57.365</ele>
        <time>2019-04-30T13:15:58Z</time>
      </trkpt>
      <trkpt lat="42.336600" lon="-8.606700">
        <ele>57.335</ele>
        <time>2019-04-30T13:16:34Z</time>
      </trkpt>
      <trkpt lat="42.336602" lon="-8.606692">
        <ele>55.439</ele>
        <time>2019-04-30T13:17:12Z</time>
      </trkpt>
      <trkpt lat="42.336601" lon="-8.606701">
        <ele>54.485</ele>
        <time>2019-04-30T13:17:48Z</time>
      </trkpt>
      <trkpt lat="42.336604" lon="-8.606701">
        <ele>53.989</ele>
        <time>2019-04-30T13:18:31Z</time>
      </trkpt>
      <trkpt lat="42.336587" lon="-8.606696">
        <ele>53.017</ele>
        <time>2019-04-30T13:19:08Z</time>
      </trkpt>
      <trkpt lat="42.336589" lon="-8.606703">
        <ele>53.908</ele>
        <time>2019-04-30T13:19:43Z</time>
      </trkpt>
      <trkpt lat="42.336614" lon="-8.606713">
        <ele>55.851</ele>
        <time>2019-04-30T13:20:14Z</time>
      </trkpt>
      <trkpt lat="42.336626" lon="-8.606710">
        <ele>56.334</ele>
        <time>2019-04-30T13:20:42Z</time>
      </trkpt>
      <trkpt lat="42.336619" lon="-8.606715">
        <ele>54.980</ele>
        <time>2019-04-30T13:21:12Z</time>
      </trkpt>
      <trkpt lat="42.336613" lon="-8.606717">
        <ele>53.488</ele>
        <time>2019-04-30T13:21:41Z</time>
      </trkpt>
      <trkpt lat="42.336614" lon="-8.606714">
        <ele>52.516</ele>
        <time>2019-04-30T13:22:12Z</time>
      </trkpt>
      <trkpt lat="42.336618" lon="-8.606714">
        <ele>51.518</ele>
        <time>2019-04-30T13:22:46Z</time>
      </trkpt>
      <trkpt lat="42.336623" lon="-8.606720">
        <ele>51.078</ele>
        <time>2019-04-30T13:23:12Z</time>
      </trkpt>
      <trkpt lat="42.336634" lon="-8.606713">
        <ele>51.032</ele>
        <time>2019-04-30T13:23:43Z</time>
      </trkpt>
      <trkpt lat="42.336644" lon="-8.606703">
        <ele>52.071</ele>
        <time>2019-04-30T13:24:08Z</time>
      </trkpt>
      <trkpt lat="42.336647" lon="-8.606726">
        <ele>51.541</ele>
        <time>2019-04-30T13:24:40Z</time>
      </trkpt>
      <trkpt lat="42.336641" lon="-8.606726">
        <ele>50.615</ele>
        <time>2019-04-30T13:25:11Z</time>
      </trkpt>
      <trkpt lat="42.336634" lon="-8.606720">
        <ele>50.608</ele>
        <time>2019-04-30T13:25:37Z</time>
      </trkpt>
      <trkpt lat="42.336627" lon="-8.606717">
        <ele>51.070</ele>
        <time>2019-04-30T13:26:11Z</time>
      </trkpt>
      <trkpt lat="42.336629" lon="-8.606724">
        <ele>51.543</ele>
        <time>2019-04-30T13:26:40Z</time>
      </trkpt>
      <trkpt lat="42.336623" lon="-8.606733">
        <ele>49.629</ele>
        <time>2019-04-30T13:27:12Z</time>
      </trkpt>
      <trkpt lat="42.336614" lon="-8.606735">
        <ele>46.767</ele>
        <time>2019-04-30T13:27:44Z</time>
      </trkpt>
      <trkpt lat="42.336616" lon="-8.606716">
        <ele>47.245</ele>
        <time>2019-04-30T13:28:16Z</time>
      </trkpt>
      <trkpt lat="42.336617" lon="-8.606705">
        <ele>48.637</ele>
        <time>2019-04-30T13:28:50Z</time>
      </trkpt>
      <trkpt lat="42.336624" lon="-8.606709">
        <ele>48.637</ele>
        <time>2019-04-30T13:29:24Z</time>
      </trkpt>
      <trkpt lat="42.336625" lon="-8.606715">
        <ele>47.771</ele>
        <time>2019-04-30T13:30:01Z</time>
      </trkpt>
      <trkpt lat="42.336621" lon="-8.606720">
        <ele>48.211</ele>
        <time>2019-04-30T13:30:32Z</time>
      </trkpt>
      <trkpt lat="42.336617" lon="-8.606714">
        <ele>47.721</ele>
        <time>2019-04-30T13:31:04Z</time>
      </trkpt>
      <trkpt lat="42.336620" lon="-8.606707">
        <ele>47.203</ele>
        <time>2019-04-30T13:31:37Z</time>
      </trkpt>
      <trkpt lat="42.336626" lon="-8.606711">
        <ele>48.608</ele>
        <time>2019-04-30T13:32:07Z</time>
      </trkpt>
      <trkpt lat="42.336620" lon="-8.606708">
        <ele>48.274</ele>
        <time>2019-04-30T13:32:37Z</time>
      </trkpt>
      <trkpt lat="42.336602" lon="-8.606704">
        <ele>48.647</ele>
        <time>2019-04-30T13:33:10Z</time>
      </trkpt>
      <trkpt lat="42.336596" lon="-8.606703">
        <ele>49.633</ele>
        <time>2019-04-30T13:33:44Z</time>
      </trkpt>
      <trkpt lat="42.336598" lon="-8.606702">
        <ele>50.611</ele>
        <time>2019-04-30T13:34:27Z</time>
      </trkpt>
      <trkpt lat="42.336597" lon="-8.606714">
        <ele>53.029</ele>
        <time>2019-04-30T13:35:13Z</time>
      </trkpt>
      <trkpt lat="42.336612" lon="-8.606710">
        <ele>51.571</ele>
        <time>2019-04-30T13:35:55Z</time>
      </trkpt>
      <trkpt lat="42.336611" lon="-8.606721">
        <ele>50.661</ele>
        <time>2019-04-30T13:36:27Z</time>
      </trkpt>
      <trkpt lat="42.336605" lon="-8.606723">
        <ele>49.185</ele>
        <time>2019-04-30T13:37:01Z</time>
      </trkpt>
      <trkpt lat="42.336626" lon="-8.606698">
        <ele>51.074</ele>
        <time>2019-04-30T13:37:48Z</time>
      </trkpt>
      <trkpt lat="42.336630" lon="-8.606718">
        <ele>50.656</ele>
        <time>2019-04-30T13:38:28Z</time>
      </trkpt>
      <trkpt lat="42.336631" lon="-8.606712">
        <ele>50.121</ele>
        <time>2019-04-30T13:39:07Z</time>
      </trkpt>
      <trkpt lat="42.336622" lon="-8.606688">
        <ele>49.608</ele>
        <time>2019-04-30T13:39:46Z</time>
      </trkpt>
      <trkpt lat="42.336612" lon="-8.606683">
        <ele>50.670</ele>
        <time>2019-04-30T13:40:19Z</time>
      </trkpt>
      <trkpt lat="42.336627" lon="-8.606683">
        <ele>53.443</ele>
        <time>2019-04-30T13:40:57Z</time>
      </trkpt>
      <trkpt lat="42.336629" lon="-8.606706">
        <ele>53.929</ele>
        <time>2019-04-30T13:41:27Z</time>
      </trkpt>
      <trkpt lat="42.336625" lon="-8.606708">
        <ele>53.937</ele>
        <time>2019-04-30T13:42:01Z</time>
      </trkpt>
      <trkpt lat="42.336623" lon="-8.606708">
        <ele>53.985</ele>
        <time>2019-04-30T13:42:34Z</time>
      </trkpt>
      <trkpt lat="42.336626" lon="-8.606699">
        <ele>55.457</ele>
        <time>2019-04-30T13:43:12Z</time>
      </trkpt>
      <trkpt lat="42.336621" lon="-8.606692">
        <ele>54.977</ele>
        <time>2019-04-30T13:43:51Z</time>
      </trkpt>
      <trkpt lat="42.336607" lon="-8.606698">
        <ele>54.411</ele>
        <time>2019-04-30T13:44:27Z</time>
      </trkpt>
      <trkpt lat="42.336613" lon="-8.606703">
        <ele>53.086</ele>
        <time>2019-04-30T13:45:03Z</time>
      </trkpt>
      <trkpt lat="42.336611" lon="-8.606710">
        <ele>52.560</ele>
        <time>2019-04-30T13:45:39Z</time>
      </trkpt>
      <trkpt lat="42.336611" lon="-8.606697">
        <ele>52.526</ele>
        <time>2019-04-30T13:46:18Z</time>
      </trkpt>
      <trkpt lat="42.336611" lon="-8.606700">
        <ele>54.908</ele>
        <time>2019-04-30T13:46:53Z</time>
      </trkpt>
      <trkpt lat="42.336620" lon="-8.606700">
        <ele>55.871</ele>
        <time>2019-04-30T13:47:21Z</time>
      </trkpt>
      <trkpt lat="42.336620" lon="-8.606713">
        <ele>56.824</ele>
        <time>2019-04-30T13:47:58Z</time>
      </trkpt>
      <trkpt lat="42.336627" lon="-8.606718">
        <ele>56.840</ele>
        <time>2019-04-30T13:48:29Z</time>
      </trkpt>
      <trkpt lat="42.336646" lon="-8.606726">
        <ele>58.758</ele>
        <time>2019-04-30T13:49:07Z</time>
      </trkpt>
      <trkpt lat="42.336657" lon="-8.606728">
        <ele>58.366</ele>
        <time>2019-04-30T13:49:36Z</time>
      </trkpt>
      <trkpt lat="42.336654" lon="-8.606722">
        <ele>57.358</ele>
        <time>2019-04-30T13:50:06Z</time>
      </trkpt>
      <trkpt lat="42.336639" lon="-8.606698">
        <ele>55.458</ele>
        <time>2019-04-30T13:50:23Z</time>
      </trkpt>
      <trkpt lat="42.336726" lon="-8.606685">
        <ele>54.472</ele>
        <time>2019-04-30T13:50:29Z</time>
      </trkpt>
      <trkpt lat="42.336856" lon="-8.606654">
        <ele>53.971</ele>
        <time>2019-04-30T13:50:33Z</time>
      </trkpt>
      <trkpt lat="42.336898" lon="-8.606647">
        <ele>53.941</ele>
        <time>2019-04-30T13:50:34Z</time>
      </trkpt>
      <trkpt lat="42.337203" lon="-8.606607">
        <ele>53.015</ele>
        <time>2019-04-30T13:50:40Z</time>
      </trkpt>
      <trkpt lat="42.337477" lon="-8.606653">
        <ele>52.008</ele>
        <time>2019-04-30T13:50:45Z</time>
      </trkpt>
      <trkpt lat="42.337529" lon="-8.606642">
        <ele>52.030</ele>
        <time>2019-04-30T13:50:46Z</time>
      </trkpt>
      <trkpt lat="42.337581" lon="-8.606617">
        <ele>51.573</ele>
        <time>2019-04-30T13:50:47Z</time>
      </trkpt>
      <trkpt lat="42.337820" lon="-8.606507">
        <ele>50.679</ele>
        <time>2019-04-30T13:50:51Z</time>
      </trkpt>
      <trkpt lat="42.337889" lon="-8.606493">
        <ele>50.147</ele>
        <time>2019-04-30T13:50:52Z</time>
      </trkpt>
      <trkpt lat="42.337960" lon="-8.606489">
        <ele>50.145</ele>
        <time>2019-04-30T13:50:53Z</time>
      </trkpt>
      <trkpt lat="42.338310" lon="-8.606489">
        <ele>48.257</ele>
        <time>2019-04-30T13:50:58Z</time>
      </trkpt>
      <trkpt lat="42.338384" lon="-8.606505">
        <ele>47.717</ele>
        <time>2019-04-30T13:50:59Z</time>
      </trkpt>
      <trkpt lat="42.338539" lon="-8.606517">
        <ele>46.781</ele>
        <time>2019-04-30T13:51:01Z</time>
      </trkpt>
      <trkpt lat="42.338611" lon="-8.606495">
        <ele>46.786</ele>
        <time>2019-04-30T13:51:02Z</time>
      </trkpt>
      <trkpt lat="42.338738" lon="-8.606434">
        <ele>46.260</ele>
        <time>2019-04-30T13:51:04Z</time>
      </trkpt>
      <trkpt lat="42.338792" lon="-8.606409">
        <ele>46.226</ele>
        <time>2019-04-30T13:51:05Z</time>
      </trkpt>
      <trkpt lat="42.338845" lon="-8.606394">
        <ele>45.808</ele>
        <time>2019-04-30T13:51:06Z</time>
      </trkpt>
      <trkpt lat="42.338897" lon="-8.606395">
        <ele>45.321</ele>
        <time>2019-04-30T13:51:07Z</time>
      </trkpt>
      <trkpt lat="42.338949" lon="-8.606391">
        <ele>45.314</ele>
        <time>2019-04-30T13:51:08Z</time>
      </trkpt>
      <trkpt lat="42.339001" lon="-8.606394">
        <ele>45.370</ele>
        <time>2019-04-30T13:51:09Z</time>
      </trkpt>
      <trkpt lat="42.339050" lon="-8.606415">
        <ele>44.828</ele>
        <time>2019-04-30T13:51:10Z</time>
      </trkpt>
      <trkpt lat="42.339094" lon="-8.606447">
        <ele>44.876</ele>
        <time>2019-04-30T13:51:11Z</time>
      </trkpt>
      <trkpt lat="42.339132" lon="-8.606481">
        <ele>44.338</ele>
        <time>2019-04-30T13:51:12Z</time>
      </trkpt>
      <trkpt lat="42.339165" lon="-8.606514">
        <ele>44.328</ele>
        <time>2019-04-30T13:51:13Z</time>
      </trkpt>
      <trkpt lat="42.339199" lon="-8.606545">
        <ele>44.332</ele>
        <time>2019-04-30T13:51:14Z</time>
      </trkpt>
      <trkpt lat="42.339236" lon="-8.606571">
        <ele>44.313</ele>
        <time>2019-04-30T13:51:15Z</time>
      </trkpt>
      <trkpt lat="42.339272" lon="-8.606591">
        <ele>43.843</ele>
        <time>2019-04-30T13:51:16Z</time>
      </trkpt>
      <trkpt lat="42.339307" lon="-8.606604">
        <ele>43.807</ele>
        <time>2019-04-30T13:51:17Z</time>
      </trkpt>
      <trkpt lat="42.339337" lon="-8.606611">
        <ele>43.408</ele>
        <time>2019-04-30T13:51:18Z</time>
      </trkpt>
      <trkpt lat="42.339745" lon="-8.606644">
        <ele>42.944</ele>
        <time>2019-04-30T13:51:31Z</time>
      </trkpt>
      <trkpt lat="42.339850" lon="-8.606582">
        <ele>42.437</ele>
        <time>2019-04-30T13:51:35Z</time>
      </trkpt>
      <trkpt lat="42.339862" lon="-8.606587">
        <ele>42.463</ele>
        <time>2019-04-30T13:51:36Z</time>
      </trkpt>
      <trkpt lat="42.339865" lon="-8.606600">
        <ele>42.411</ele>
        <time>2019-04-30T13:51:37Z</time>
      </trkpt>
      <trkpt lat="42.339868" lon="-8.606608">
        <ele>43.489</ele>
        <time>2019-04-30T13:51:38Z</time>
      </trkpt>
      <trkpt lat="42.339877" lon="-8.606617">
        <ele>43.821</ele>
        <time>2019-04-30T13:51:39Z</time>
      </trkpt>
      <trkpt lat="42.339891" lon="-8.606621">
        <ele>46.261</ele>
        <time>2019-04-30T13:51:55Z</time>
      </trkpt>
      <trkpt lat="42.339895" lon="-8.606635">
        <ele>46.295</ele>
        <time>2019-04-30T13:51:56Z</time>
      </trkpt>
      <trkpt lat="42.339906" lon="-8.606650">
        <ele>46.212</ele>
        <time>2019-04-30T13:51:57Z</time>
      </trkpt>
      <trkpt lat="42.340134" lon="-8.606846">
        <ele>45.832</ele>
        <time>2019-04-30T13:52:04Z</time>
      </trkpt>
      <trkpt lat="42.340231" lon="-8.606905">
        <ele>44.805</ele>
        <time>2019-04-30T13:52:06Z</time>
      </trkpt>
      <trkpt lat="42.340285" lon="-8.606943">
        <ele>44.308</ele>
        <time>2019-04-30T13:52:07Z</time>
      </trkpt>
      <trkpt lat="42.340536" lon="-8.607096">
        <ele>42.944</ele>
        <time>2019-04-30T13:52:11Z</time>
      </trkpt>
      <trkpt lat="42.340609" lon="-8.607122">
        <ele>42.497</ele>
        <time>2019-04-30T13:52:12Z</time>
      </trkpt>
      <trkpt lat="42.340684" lon="-8.607129">
        <ele>41.473</ele>
        <time>2019-04-30T13:52:13Z</time>
      </trkpt>
      <trkpt lat="42.340811" lon="-8.607142">
        <ele>40.031</ele>
        <time>2019-04-30T13:52:15Z</time>
      </trkpt>
      <trkpt lat="42.340861" lon="-8.607191">
        <ele>40.019</ele>
        <time>2019-04-30T13:52:16Z</time>
      </trkpt>
      <trkpt lat="42.340892" lon="-8.607265">
        <ele>39.521</ele>
        <time>2019-04-30T13:52:17Z</time>
      </trkpt>
      <trkpt lat="42.340909" lon="-8.607349">
        <ele>39.051</ele>
        <time>2019-04-30T13:52:18Z</time>
      </trkpt>
      <trkpt lat="42.340921" lon="-8.607436">
        <ele>38.525</ele>
        <time>2019-04-30T13:52:19Z</time>
      </trkpt>
      <trkpt lat="42.340985" lon="-8.607952">
        <ele>35.727</ele>
        <time>2019-04-30T13:52:25Z</time>
      </trkpt>
      <trkpt lat="42.341007" lon="-8.608033">
        <ele>35.768</ele>
        <time>2019-04-30T13:52:26Z</time>
      </trkpt>
      <trkpt lat="42.341039" lon="-8.608105">
        <ele>35.714</ele>
        <time>2019-04-30T13:52:27Z</time>
      </trkpt>
      <trkpt lat="42.341079" lon="-8.608165">
        <ele>35.708</ele>
        <time>2019-04-30T13:52:28Z</time>
      </trkpt>
      <trkpt lat="42.341124" lon="-8.608217">
        <ele>35.755</ele>
        <time>2019-04-30T13:52:29Z</time>
      </trkpt>
      <trkpt lat="42.341464" lon="-8.608669">
        <ele>36.178</ele>
        <time>2019-04-30T13:52:37Z</time>
      </trkpt>
      <trkpt lat="42.341521" lon="-8.608719">
        <ele>35.744</ele>
        <time>2019-04-30T13:52:38Z</time>
      </trkpt>
      <trkpt lat="42.341586" lon="-8.608745">
        <ele>35.252</ele>
        <time>2019-04-30T13:52:39Z</time>
      </trkpt>
      <trkpt lat="42.341661" lon="-8.608737">
        <ele>34.730</ele>
        <time>2019-04-30T13:52:40Z</time>
      </trkpt>
      <trkpt lat="42.341731" lon="-8.608726">
        <ele>34.242</ele>
        <time>2019-04-30T13:52:41Z</time>
      </trkpt>
      <trkpt lat="42.341786" lon="-8.608717">
        <ele>34.242</ele>
        <time>2019-04-30T13:52:42Z</time>
      </trkpt>
      <trkpt lat="42.341818" lon="-8.608714">
        <ele>33.736</ele>
        <time>2019-04-30T13:52:43Z</time>
      </trkpt>
      <trkpt lat="42.342089" lon="-8.608798">
        <ele>28.973</ele>
        <time>2019-04-30T13:52:53Z</time>
      </trkpt>
      <trkpt lat="42.342186" lon="-8.608818">
        <ele>27.585</ele>
        <time>2019-04-30T13:53:07Z</time>
      </trkpt>
      <trkpt lat="42.342489" lon="-8.608908">
        <ele>28.913</ele>
        <time>2019-04-30T13:53:18Z</time>
      </trkpt>
      <trkpt lat="42.342594" lon="-8.608939">
        <ele>29.408</ele>
        <time>2019-04-30T13:53:21Z</time>
      </trkpt>
      <trkpt lat="42.342645" lon="-8.608957">
        <ele>28.990</ele>
        <time>2019-04-30T13:53:22Z</time>
      </trkpt>
      <trkpt lat="42.342691" lon="-8.608971">
        <ele>28.573</ele>
        <time>2019-04-30T13:53:23Z</time>
      </trkpt>
      <trkpt lat="42.342792" lon="-8.608978">
        <ele>28.079</ele>
        <time>2019-04-30T13:53:25Z</time>
      </trkpt>
      <trkpt lat="42.342850" lon="-8.608972">
        <ele>28.097</ele>
        <time>2019-04-30T13:53:26Z</time>
      </trkpt>
      <trkpt lat="42.343171" lon="-8.608913">
        <ele>27.595</ele>
        <time>2019-04-30T13:53:32Z</time>
      </trkpt>
      <trkpt lat="42.343292" lon="-8.608921">
        <ele>26.547</ele>
        <time>2019-04-30T13:53:34Z</time>
      </trkpt>
      <trkpt lat="42.343345" lon="-8.608902">
        <ele>26.567</ele>
        <time>2019-04-30T13:53:35Z</time>
      </trkpt>
      <trkpt lat="42.343391" lon="-8.608870">
        <ele>26.551</ele>
        <time>2019-04-30T13:53:36Z</time>
      </trkpt>
      <trkpt lat="42.343440" lon="-8.608831">
        <ele>26.578</ele>
        <time>2019-04-30T13:53:37Z</time>
      </trkpt>
      <trkpt lat="42.343497" lon="-8.608780">
        <ele>26.533</ele>
        <time>2019-04-30T13:53:38Z</time>
      </trkpt>
      <trkpt lat="42.343562" lon="-8.608719">
        <ele>26.526</ele>
        <time>2019-04-30T13:53:39Z</time>
      </trkpt>
      <trkpt lat="42.343632" lon="-8.608651">
        <ele>26.508</ele>
        <time>2019-04-30T13:53:40Z</time>
      </trkpt>
      <trkpt lat="42.343698" lon="-8.608572">
        <ele>26.080</ele>
        <time>2019-04-30T13:53:41Z</time>
      </trkpt>
      <trkpt lat="42.344087" lon="-8.608165">
        <ele>23.273</ele>
        <time>2019-04-30T13:53:47Z</time>
      </trkpt>
      <trkpt lat="42.344126" lon="-8.608101">
        <ele>22.749</ele>
        <time>2019-04-30T13:53:48Z</time>
      </trkpt>
      <trkpt lat="42.344154" lon="-8.608039">
        <ele>22.217</ele>
        <time>2019-04-30T13:53:49Z</time>
      </trkpt>
      <trkpt lat="42.344176" lon="-8.607983">
        <ele>22.295</ele>
        <time>2019-04-30T13:53:50Z</time>
      </trkpt>
      <trkpt lat="42.344195" lon="-8.607935">
        <ele>22.287</ele>
        <time>2019-04-30T13:53:51Z</time>
      </trkpt>
      <trkpt lat="42.344219" lon="-8.607893">
        <ele>22.777</ele>
        <time>2019-04-30T13:53:52Z</time>
      </trkpt>
      <trkpt lat="42.344240" lon="-8.607848">
        <ele>22.771</ele>
        <time>2019-04-30T13:53:53Z</time>
      </trkpt>
      <trkpt lat="42.344262" lon="-8.607805">
        <ele>22.797</ele>
        <time>2019-04-30T13:53:54Z</time>
      </trkpt>
      <trkpt lat="42.344283" lon="-8.607765">
        <ele>22.723</ele>
        <time>2019-04-30T13:53:55Z</time>
      </trkpt>
      <trkpt lat="42.344303" lon="-8.607721">
        <ele>22.725</ele>
        <time>2019-04-30T13:53:56Z</time>
      </trkpt>
      <trkpt lat="42.344419" lon="-8.607436">
        <ele>22.208</ele>
        <time>2019-04-30T13:54:05Z</time>
      </trkpt>
      <trkpt lat="42.344436" lon="-8.607420">
        <ele>23.272</ele>
        <time>2019-04-30T13:54:15Z</time>
      </trkpt>
      <trkpt lat="42.344450" lon="-8.607417">
        <ele>23.295</ele>
        <time>2019-04-30T13:54:16Z</time>
      </trkpt>
      <trkpt lat="42.344473" lon="-8.607420">
        <ele>23.251</ele>
        <time>2019-04-30T13:54:17Z</time>
      </trkpt>
      <trkpt lat="42.344506" lon="-8.607429">
        <ele>23.239</ele>
        <time>2019-04-30T13:54:18Z</time>
      </trkpt>
      <trkpt lat="42.344546" lon="-8.607444">
        <ele>22.757</ele>
        <time>2019-04-30T13:54:19Z</time>
      </trkpt>
      <trkpt lat="42.344591" lon="-8.607461">
        <ele>22.749</ele>
        <time>2019-04-30T13:54:20Z</time>
      </trkpt>
      <trkpt lat="42.344643" lon="-8.607475">
        <ele>22.249</ele>
        <time>2019-04-30T13:54:21Z</time>
      </trkpt>
      <trkpt lat="42.344702" lon="-8.607484">
        <ele>22.223</ele>
        <time>2019-04-30T13:54:22Z</time>
      </trkpt>
      <trkpt lat="42.344766" lon="-8.607484">
        <ele>21.743</ele>
        <time>2019-04-30T13:54:23Z</time>
      </trkpt>
      <trkpt lat="42.344830" lon="-8.607473">
        <ele>21.764</ele>
        <time>2019-04-30T13:54:24Z</time>
      </trkpt>
      <trkpt lat="42.344895" lon="-8.607442">
        <ele>21.710</ele>
        <time>2019-04-30T13:54:25Z</time>
      </trkpt>
      <trkpt lat="42.344966" lon="-8.607399">
        <ele>21.208</ele>
        <time>2019-04-30T13:54:26Z</time>
      </trkpt>
      <trkpt lat="42.345033" lon="-8.607349">
        <ele>20.847</ele>
        <time>2019-04-30T13:54:27Z</time>
      </trkpt>
      <trkpt lat="42.345091" lon="-8.607285">
        <ele>20.880</ele>
        <time>2019-04-30T13:54:28Z</time>
      </trkpt>
      <trkpt lat="42.345145" lon="-8.607219">
        <ele>20.326</ele>
        <time>2019-04-30T13:54:29Z</time>
      </trkpt>
      <trkpt lat="42.345407" lon="-8.606952">
        <ele>17.444</ele>
        <time>2019-04-30T13:54:36Z</time>
      </trkpt>
      <trkpt lat="42.345450" lon="-8.606940">
        <ele>16.992</ele>
        <time>2019-04-30T13:54:37Z</time>
      </trkpt>
      <trkpt lat="42.345799" lon="-8.606855">
        <ele>13.624</ele>
        <time>2019-04-30T13:54:45Z</time>
      </trkpt>
      <trkpt lat="42.346088" lon="-8.606802">
        <ele>11.664</ele>
        <time>2019-04-30T13:54:52Z</time>
      </trkpt>
      <trkpt lat="42.346127" lon="-8.606793">
        <ele>11.698</ele>
        <time>2019-04-30T13:54:53Z</time>
      </trkpt>
      <trkpt lat="42.346634" lon="-8.606735">
        <ele>8.371</ele>
        <time>2019-04-30T13:55:05Z</time>
      </trkpt>
      <trkpt lat="42.346672" lon="-8.606764">
        <ele>8.341</ele>
        <time>2019-04-30T13:55:06Z</time>
      </trkpt>
      <trkpt lat="42.346706" lon="-8.606807">
        <ele>8.715</ele>
        <time>2019-04-30T13:55:07Z</time>
      </trkpt>
      <trkpt lat="42.346986" lon="-8.607154">
        <ele>10.708</ele>
        <time>2019-04-30T13:55:18Z</time>
      </trkpt>
      <trkpt lat="42.346951" lon="-8.607279">
        <ele>11.670</ele>
        <time>2019-04-30T13:55:24Z</time>
      </trkpt>
      <trkpt lat="42.346972" lon="-8.607451">
        <ele>12.143</ele>
        <time>2019-04-30T13:55:32Z</time>
      </trkpt>
      <trkpt lat="42.347024" lon="-8.607449">
        <ele>13.619</ele>
        <time>2019-04-30T13:55:42Z</time>
      </trkpt>
      <trkpt lat="42.347048" lon="-8.607421">
        <ele>14.027</ele>
        <time>2019-04-30T13:55:44Z</time>
      </trkpt>
      <trkpt lat="42.347098" lon="-8.607376">
        <ele>14.075</ele>
        <time>2019-04-30T13:55:48Z</time>
      </trkpt>
      <trkpt lat="42.347288" lon="-8.607373">
        <ele>17.937</ele>
        <time>2019-04-30T13:56:05Z</time>
      </trkpt>
      <trkpt lat="42.347315" lon="-8.607442">
        <ele>20.387</ele>
        <time>2019-04-30T13:56:11Z</time>
      </trkpt>
      <trkpt lat="42.347308" lon="-8.607487">
        <ele>21.731</ele>
        <time>2019-04-30T13:56:14Z</time>
      </trkpt>
      <trkpt lat="42.347309" lon="-8.607639">
        <ele>27.024</ele>
        <time>2019-04-30T13:56:26Z</time>
      </trkpt>
      <trkpt lat="42.347319" lon="-8.607717">
        <ele>30.904</ele>
        <time>2019-04-30T13:56:38Z</time>
      </trkpt>
      <trkpt lat="42.347421" lon="-8.607746">
        <ele>33.714</ele>
        <time>2019-04-30T13:56:55Z</time>
      </trkpt>
      <trkpt lat="42.347439" lon="-8.607747">
        <ele>35.208</ele>
        <time>2019-04-30T13:57:08Z</time>
      </trkpt>
      <trkpt lat="42.347562" lon="-8.607781">
        <ele>35.775</ele>
        <time>2019-04-30T13:57:16Z</time>
      </trkpt>
      <trkpt lat="42.347764" lon="-8.607862">
        <ele>32.388</ele>
        <time>2019-04-30T13:57:23Z</time>
      </trkpt>
      <trkpt lat="42.348069" lon="-8.607829">
        <ele>30.954</ele>
        <time>2019-04-30T13:57:33Z</time>
      </trkpt>
      <trkpt lat="42.348091" lon="-8.607815">
        <ele>31.372</ele>
        <time>2019-04-30T13:57:34Z</time>
      </trkpt>
      <trkpt lat="42.348141" lon="-8.607830">
        <ele>29.460</ele>
        <time>2019-04-30T13:57:36Z</time>
      </trkpt>
      <trkpt lat="42.348269" lon="-8.607979">
        <ele>25.692</ele>
        <time>2019-04-30T13:57:42Z</time>
      </trkpt>
      <trkpt lat="42.348295" lon="-8.608040">
        <ele>25.142</ele>
        <time>2019-04-30T13:57:43Z</time>
      </trkpt>
      <trkpt lat="42.348332" lon="-8.608108">
        <ele>24.676</ele>
        <time>2019-04-30T13:57:44Z</time>
      </trkpt>
      <trkpt lat="42.348375" lon="-8.608185">
        <ele>24.186</ele>
        <time>2019-04-30T13:57:45Z</time>
      </trkpt>
      <trkpt lat="42.348577" lon="-8.608580">
        <ele>17.960</ele>
        <time>2019-04-30T13:57:53Z</time>
      </trkpt>
      <trkpt lat="42.348584" lon="-8.608582">
        <ele>16.426</ele>
        <time>2019-04-30T13:57:58Z</time>
      </trkpt>
      <trkpt lat="42.348596" lon="-8.608568">
        <ele>16.408</ele>
        <time>2019-04-30T13:57:59Z</time>
      </trkpt>
      <trkpt lat="42.348609" lon="-8.608541">
        <ele>16.051</ele>
        <time>2019-04-30T13:58:00Z</time>
      </trkpt>
      <trkpt lat="42.348634" lon="-8.608511">
        <ele>15.564</ele>
        <time>2019-04-30T13:58:01Z</time>
      </trkpt>
      <trkpt lat="42.348678" lon="-8.608491">
        <ele>15.040</ele>
        <time>2019-04-30T13:58:02Z</time>
      </trkpt>
      <trkpt lat="42.348734" lon="-8.608481">
        <ele>14.558</ele>
        <time>2019-04-30T13:58:03Z</time>
      </trkpt>
      <trkpt lat="42.348797" lon="-8.608475">
        <ele>14.536</ele>
        <time>2019-04-30T13:58:04Z</time>
      </trkpt>
      <trkpt lat="42.349260" lon="-8.608424">
        <ele>12.148</ele>
        <time>2019-04-30T13:58:11Z</time>
      </trkpt>
      <trkpt lat="42.349323" lon="-8.608404">
        <ele>11.658</ele>
        <time>2019-04-30T13:58:12Z</time>
      </trkpt>
      <trkpt lat="42.349382" lon="-8.608381">
        <ele>11.142</ele>
        <time>2019-04-30T13:58:13Z</time>
      </trkpt>
      <trkpt lat="42.349723" lon="-8.608214">
        <ele>9.266</ele>
        <time>2019-04-30T13:58:20Z</time>
      </trkpt>
      <trkpt lat="42.349759" lon="-8.608216">
        <ele>8.729</ele>
        <time>2019-04-30T13:58:21Z</time>
      </trkpt>
      <trkpt lat="42.349786" lon="-8.608232">
        <ele>9.221</ele>
        <time>2019-04-30T13:58:22Z</time>
      </trkpt>
      <trkpt lat="42.349804" lon="-8.608252">
        <ele>8.708</ele>
        <time>2019-04-30T13:58:23Z</time>
      </trkpt>
      <trkpt lat="42.349819" lon="-8.608273">
        <ele>8.799</ele>
        <time>2019-04-30T13:58:24Z</time>
      </trkpt>
      <trkpt lat="42.349864" lon="-8.608544">
        <ele>11.632</ele>
        <time>2019-04-30T13:58:35Z</time>
      </trkpt>
      <trkpt lat="42.349873" lon="-8.608584">
        <ele>12.648</ele>
        <time>2019-04-30T13:58:37Z</time>
      </trkpt>
      <trkpt lat="42.349863" lon="-8.608704">
        <ele>14.586</ele>
        <time>2019-04-30T13:58:42Z</time>
      </trkpt>
      <trkpt lat="42.349860" lon="-8.608730">
        <ele>15.554</ele>
        <time>2019-04-30T13:58:43Z</time>
      </trkpt>
      <trkpt lat="42.349842" lon="-8.608793">
        <ele>17.486</ele>
        <time>2019-04-30T13:58:46Z</time>
      </trkpt>
      <trkpt lat="42.349827" lon="-8.608821">
        <ele>17.496</ele>
        <time>2019-04-30T13:58:47Z</time>
      </trkpt>
      <trkpt lat="42.349678" lon="-8.609081">
        <ele>19.340</ele>
        <time>2019-04-30T13:59:01Z</time>
      </trkpt>
      <trkpt lat="42.349493" lon="-8.609148">
        <ele>20.824</ele>
        <time>2019-04-30T13:59:13Z</time>
      </trkpt>
      <trkpt lat="42.349467" lon="-8.609170">
        <ele>20.804</ele>
        <time>2019-04-30T13:59:15Z</time>
      </trkpt>
      <trkpt lat="42.349460" lon="-8.609209">
        <ele>22.214</ele>
        <time>2019-04-30T13:59:18Z</time>
      </trkpt>
      <trkpt lat="42.349471" lon="-8.609214">
        <ele>22.208</ele>
        <time>2019-04-30T13:59:19Z</time>
      </trkpt>
      <trkpt lat="42.349482" lon="-8.609219">
        <ele>22.275</ele>
        <time>2019-04-30T13:59:20Z</time>
      </trkpt>
      <trkpt lat="42.349499" lon="-8.609233">
        <ele>22.218</ele>
        <time>2019-04-30T13:59:22Z</time>
      </trkpt>
      <trkpt lat="42.349511" lon="-8.609268">
        <ele>22.774</ele>
        <time>2019-04-30T13:59:24Z</time>
      </trkpt>
      <trkpt lat="42.349531" lon="-8.609436">
        <ele>23.662</ele>
        <time>2019-04-30T13:59:33Z</time>
      </trkpt>
      <trkpt lat="42.349574" lon="-8.609541">
        <ele>26.540</ele>
        <time>2019-04-30T13:59:46Z</time>
      </trkpt>
      <trkpt lat="42.349613" lon="-8.609573">
        <ele>26.032</ele>
        <time>2019-04-30T13:59:56Z</time>
      </trkpt>
      <trkpt lat="42.349672" lon="-8.609613">
        <ele>26.042</ele>
        <time>2019-04-30T14:00:00Z</time>
      </trkpt>
      <trkpt lat="42.349826" lon="-8.609719">
        <ele>27.576</ele>
        <time>2019-04-30T14:00:12Z</time>
      </trkpt>
      <trkpt lat="42.349919" lon="-8.609853">
        <ele>28.057</ele>
        <time>2019-04-30T14:00:24Z</time>
      </trkpt>
      <trkpt lat="42.349942" lon="-8.609885">
        <ele>28.000</ele>
        <time>2019-04-30T14:00:27Z</time>
      </trkpt>
      <trkpt lat="42.350023" lon="-8.609944">
        <ele>28.920</ele>
        <time>2019-04-30T14:00:34Z</time>
      </trkpt>
      <trkpt lat="42.350046" lon="-8.610067">
        <ele>30.908</ele>
        <time>2019-04-30T14:00:41Z</time>
      </trkpt>
      <trkpt lat="42.350080" lon="-8.610148">
        <ele>31.338</ele>
        <time>2019-04-30T14:00:46Z</time>
      </trkpt>
      <trkpt lat="42.350103" lon="-8.610207">
        <ele>31.881</ele>
        <time>2019-04-30T14:00:49Z</time>
      </trkpt>
      <trkpt lat="42.350118" lon="-8.610455">
        <ele>30.957</ele>
        <time>2019-04-30T14:00:55Z</time>
      </trkpt>
      <trkpt lat="42.350159" lon="-8.610834">
        <ele>30.495</ele>
        <time>2019-04-30T14:01:00Z</time>
      </trkpt>
      <trkpt lat="42.350190" lon="-8.610909">
        <ele>29.913</ele>
        <time>2019-04-30T14:01:01Z</time>
      </trkpt>
      <trkpt lat="42.350229" lon="-8.610981">
        <ele>29.935</ele>
        <time>2019-04-30T14:01:02Z</time>
      </trkpt>
      <trkpt lat="42.350271" lon="-8.611043">
        <ele>29.465</ele>
        <time>2019-04-30T14:01:03Z</time>
      </trkpt>
      <trkpt lat="42.350310" lon="-8.611094">
        <ele>29.429</ele>
        <time>2019-04-30T14:01:04Z</time>
      </trkpt>
      <trkpt lat="42.350386" lon="-8.611180">
        <ele>28.953</ele>
        <time>2019-04-30T14:01:06Z</time>
      </trkpt>
      <trkpt lat="42.350427" lon="-8.611213">
        <ele>28.904</ele>
        <time>2019-04-30T14:01:07Z</time>
      </trkpt>
      <trkpt lat="42.350475" lon="-8.611237">
        <ele>28.914</ele>
        <time>2019-04-30T14:01:08Z</time>
      </trkpt>
      <trkpt lat="42.351133" lon="-8.611520">
        <ele>26.008</ele>
        <time>2019-04-30T14:01:21Z</time>
      </trkpt>
      <trkpt lat="42.351322" lon="-8.611633">
        <ele>22.798</ele>
        <time>2019-04-30T14:01:28Z</time>
      </trkpt>
      <trkpt lat="42.351376" lon="-8.611767">
        <ele>21.761</ele>
        <time>2019-04-30T14:01:32Z</time>
      </trkpt>
      <trkpt lat="42.351391" lon="-8.611821">
        <ele>20.827</ele>
        <time>2019-04-30T14:01:33Z</time>
      </trkpt>
      <trkpt lat="42.351560" lon="-8.612057">
        <ele>14.575</ele>
        <time>2019-04-30T14:01:42Z</time>
      </trkpt>
      <trkpt lat="42.351576" lon="-8.612058">
        <ele>14.053</ele>
        <time>2019-04-30T14:01:43Z</time>
      </trkpt>
      <trkpt lat="42.351603" lon="-8.612054">
        <ele>13.665</ele>
        <time>2019-04-30T14:01:44Z</time>
      </trkpt>
      <trkpt lat="42.351683" lon="-8.612044">
        <ele>12.165</ele>
        <time>2019-04-30T14:01:46Z</time>
      </trkpt>
      <trkpt lat="42.351726" lon="-8.612020">
        <ele>11.659</ele>
        <time>2019-04-30T14:01:47Z</time>
      </trkpt>
      <trkpt lat="42.351769" lon="-8.611988">
        <ele>11.167</ele>
        <time>2019-04-30T14:01:48Z</time>
      </trkpt>
      <trkpt lat="42.351812" lon="-8.611963">
        <ele>10.781</ele>
        <time>2019-04-30T14:01:49Z</time>
      </trkpt>
      <trkpt lat="42.351854" lon="-8.611946">
        <ele>9.719</ele>
        <time>2019-04-30T14:01:50Z</time>
      </trkpt>
      <trkpt lat="42.351892" lon="-8.611931">
        <ele>9.208</ele>
        <time>2019-04-30T14:01:51Z</time>
      </trkpt>
      <trkpt lat="42.351929" lon="-8.611914">
        <ele>8.719</ele>
        <time>2019-04-30T14:01:52Z</time>
      </trkpt>
      <trkpt lat="42.351961" lon="-8.611886">
        <ele>8.372</ele>
        <time>2019-04-30T14:01:53Z</time>
      </trkpt>
      <trkpt lat="42.351995" lon="-8.611857">
        <ele>7.858</ele>
        <time>2019-04-30T14:01:54Z</time>
      </trkpt>
      <trkpt lat="42.352027" lon="-8.611825">
        <ele>7.396</ele>
        <time>2019-04-30T14:01:55Z</time>
      </trkpt>
      <trkpt lat="42.352054" lon="-8.611792">
        <ele>6.894</ele>
        <time>2019-04-30T14:01:56Z</time>
      </trkpt>
      <trkpt lat="42.352169" lon="-8.611685">
        <ele>4.496</ele>
        <time>2019-04-30T14:02:00Z</time>
      </trkpt>
      <trkpt lat="42.352269" lon="-8.611676">
        <ele>3.056</ele>
        <time>2019-04-30T14:02:13Z</time>
      </trkpt>
      <trkpt lat="42.352304" lon="-8.611679">
        <ele>5.430</ele>
        <time>2019-04-30T14:02:37Z</time>
      </trkpt>
      <trkpt lat="42.352306" lon="-8.611668">
        <ele>5.934</ele>
        <time>2019-04-30T14:03:04Z</time>
      </trkpt>
      <trkpt lat="42.352306" lon="-8.611700">
        <ele>8.755</ele>
        <time>2019-04-30T14:03:30Z</time>
      </trkpt>
      <trkpt lat="42.352325" lon="-8.611751">
        <ele>12.110</ele>
        <time>2019-04-30T14:03:56Z</time>
      </trkpt>
      <trkpt lat="42.352340" lon="-8.611766">
        <ele>12.608</ele>
        <time>2019-04-30T14:04:27Z</time>
      </trkpt>
      <trkpt lat="42.352328" lon="-8.611757">
        <ele>11.626</ele>
        <time>2019-04-30T14:04:48Z</time>
      </trkpt>
      <trkpt lat="42.352337" lon="-8.611760">
        <ele>12.159</ele>
        <time>2019-04-30T14:05:00Z</time>
      </trkpt>
      <trkpt lat="42.352351" lon="-8.611763">
        <ele>12.115</ele>
        <time>2019-04-30T14:05:01Z</time>
      </trkpt>
      <trkpt lat="42.352372" lon="-8.611777">
        <ele>12.673</ele>
        <time>2019-04-30T14:05:03Z</time>
      </trkpt>
      <trkpt lat="42.352447" lon="-8.611862">
        <ele>13.121</ele>
        <time>2019-04-30T14:05:09Z</time>
      </trkpt>
      <trkpt lat="42.352470" lon="-8.611871">
        <ele>13.163</ele>
        <time>2019-04-30T14:05:10Z</time>
      </trkpt>
      <trkpt lat="42.352537" lon="-8.611903">
        <ele>13.193</ele>
        <time>2019-04-30T14:05:12Z</time>
      </trkpt>
      <trkpt lat="42.352762" lon="-8.612118">
        <ele>12.167</ele>
        <time>2019-04-30T14:05:22Z</time>
      </trkpt>
      <trkpt lat="42.352987" lon="-8.612320">
        <ele>11.114</ele>
        <time>2019-04-30T14:05:35Z</time>
      </trkpt>
      <trkpt lat="42.352995" lon="-8.612333">
        <ele>11.154</ele>
        <time>2019-04-30T14:05:36Z</time>
      </trkpt>
      <trkpt lat="42.353001" lon="-8.612348">
        <ele>11.109</ele>
        <time>2019-04-30T14:05:37Z</time>
      </trkpt>
      <trkpt lat="42.353009" lon="-8.612360">
        <ele>11.108</ele>
        <time>2019-04-30T14:05:38Z</time>
      </trkpt>
      <trkpt lat="42.353022" lon="-8.612368">
        <ele>11.144</ele>
        <time>2019-04-30T14:05:39Z</time>
      </trkpt>
      <trkpt lat="42.353034" lon="-8.612375">
        <ele>11.187</ele>
        <time>2019-04-30T14:05:40Z</time>
      </trkpt>
      <trkpt lat="42.353047" lon="-8.612374">
        <ele>11.133</ele>
        <time>2019-04-30T14:05:41Z</time>
      </trkpt>
      <trkpt lat="42.353061" lon="-8.612379">
        <ele>11.131</ele>
        <time>2019-04-30T14:05:42Z</time>
      </trkpt>
      <trkpt lat="42.353075" lon="-8.612389">
        <ele>11.619</ele>
        <time>2019-04-30T14:05:43Z</time>
      </trkpt>
      <trkpt lat="42.353083" lon="-8.612412">
        <ele>12.631</ele>
        <time>2019-04-30T14:05:45Z</time>
      </trkpt>
      <trkpt lat="42.353027" lon="-8.612710">
        <ele>17.911</ele>
        <time>2019-04-30T14:05:59Z</time>
      </trkpt>
      <trkpt lat="42.353028" lon="-8.612814">
        <ele>19.845</ele>
        <time>2019-04-30T14:06:03Z</time>
      </trkpt>
      <trkpt lat="42.353041" lon="-8.612830">
        <ele>20.373</ele>
        <time>2019-04-30T14:06:04Z</time>
      </trkpt>
      <trkpt lat="42.353056" lon="-8.612854">
        <ele>20.385</ele>
        <time>2019-04-30T14:06:05Z</time>
      </trkpt>
      <trkpt lat="42.353069" lon="-8.612885">
        <ele>20.813</ele>
        <time>2019-04-30T14:06:06Z</time>
      </trkpt>
      <trkpt lat="42.353086" lon="-8.612920">
        <ele>20.808</ele>
        <time>2019-04-30T14:06:07Z</time>
      </trkpt>
      <trkpt lat="42.353221" lon="-8.613212">
        <ele>19.340</ele>
        <time>2019-04-30T14:06:15Z</time>
      </trkpt>
      <trkpt lat="42.353244" lon="-8.613220">
        <ele>18.853</ele>
        <time>2019-04-30T14:06:16Z</time>
      </trkpt>
      <trkpt lat="42.353266" lon="-8.613232">
        <ele>18.489</ele>
        <time>2019-04-30T14:06:17Z</time>
      </trkpt>
      <trkpt lat="42.353287" lon="-8.613251">
        <ele>18.447</ele>
        <time>2019-04-30T14:06:18Z</time>
      </trkpt>
      <trkpt lat="42.353307" lon="-8.613274">
        <ele>18.475</ele>
        <time>2019-04-30T14:06:19Z</time>
      </trkpt>
      <trkpt lat="42.353325" lon="-8.613299">
        <ele>18.417</ele>
        <time>2019-04-30T14:06:20Z</time>
      </trkpt>
      <trkpt lat="42.353340" lon="-8.613323">
        <ele>18.467</ele>
        <time>2019-04-30T14:06:21Z</time>
      </trkpt>
      <trkpt lat="42.353594" lon="-8.613649">
        <ele>17.411</ele>
        <time>2019-04-30T14:06:35Z</time>
      </trkpt>
      <trkpt lat="42.353802" lon="-8.613830">
        <ele>17.465</ele>
        <time>2019-04-30T14:06:42Z</time>
      </trkpt>
      <trkpt lat="42.353889" lon="-8.613887">
        <ele>17.468</ele>
        <time>2019-04-30T14:06:44Z</time>
      </trkpt>
      <trkpt lat="42.354044" lon="-8.614008">
        <ele>17.414</ele>
        <time>2019-04-30T14:06:48Z</time>
      </trkpt>
      <trkpt lat="42.354146" lon="-8.614067">
        <ele>17.408</ele>
        <time>2019-04-30T14:06:50Z</time>
      </trkpt>
      <trkpt lat="42.354729" lon="-8.614351">
        <ele>16.039</ele>
        <time>2019-04-30T14:07:02Z</time>
      </trkpt>
      <trkpt lat="42.354910" lon="-8.614576">
        <ele>15.552</ele>
        <time>2019-04-30T14:07:11Z</time>
      </trkpt>
      <trkpt lat="42.354950" lon="-8.614628">
        <ele>16.488</ele>
        <time>2019-04-30T14:07:15Z</time>
      </trkpt>
      <trkpt lat="42.355008" lon="-8.614678">
        <ele>16.496</ele>
        <time>2019-04-30T14:07:21Z</time>
      </trkpt>
      <trkpt lat="42.355087" lon="-8.614727">
        <ele>16.924</ele>
        <time>2019-04-30T14:07:33Z</time>
      </trkpt>
      <trkpt lat="42.355102" lon="-8.614725">
        <ele>16.916</ele>
        <time>2019-04-30T14:07:36Z</time>
      </trkpt>
      <trkpt lat="42.355219" lon="-8.614759">
        <ele>16.926</ele>
        <time>2019-04-30T14:07:48Z</time>
      </trkpt>
      <trkpt lat="42.355304" lon="-8.614801">
        <ele>18.880</ele>
        <time>2019-04-30T14:07:56Z</time>
      </trkpt>
      <trkpt lat="42.355366" lon="-8.614861">
        <ele>22.272</ele>
        <time>2019-04-30T14:08:05Z</time>
      </trkpt>
      <trkpt lat="42.355392" lon="-8.614905">
        <ele>23.213</ele>
        <time>2019-04-30T14:08:09Z</time>
      </trkpt>
      <trkpt lat="42.355438" lon="-8.614980">
        <ele>26.014</ele>
        <time>2019-04-30T14:08:18Z</time>
      </trkpt>
      <trkpt lat="42.355468" lon="-8.615009">
        <ele>27.508</ele>
        <time>2019-04-30T14:08:21Z</time>
      </trkpt>
      <trkpt lat="42.355533" lon="-8.615069">
        <ele>32.370</ele>
        <time>2019-04-30T14:08:33Z</time>
      </trkpt>
      <trkpt lat="42.355656" lon="-8.615145">
        <ele>36.153</ele>
        <time>2019-04-30T14:08:47Z</time>
      </trkpt>
      <trkpt lat="42.355716" lon="-8.615216">
        <ele>37.159</ele>
        <time>2019-04-30T14:08:55Z</time>
      </trkpt>
      <trkpt lat="42.355826" lon="-8.615337">
        <ele>34.737</ele>
        <time>2019-04-30T14:09:05Z</time>
      </trkpt>
      <trkpt lat="42.355878" lon="-8.615417">
        <ele>34.255</ele>
        <time>2019-04-30T14:09:13Z</time>
      </trkpt>
      <trkpt lat="42.355947" lon="-8.615538">
        <ele>35.217</ele>
        <time>2019-04-30T14:09:25Z</time>
      </trkpt>
      <trkpt lat="42.355999" lon="-8.615613">
        <ele>34.297</ele>
        <time>2019-04-30T14:09:40Z</time>
      </trkpt>
      <trkpt lat="42.355975" lon="-8.615589">
        <ele>34.771</ele>
        <time>2019-04-30T14:10:06Z</time>
      </trkpt>
      <trkpt lat="42.355985" lon="-8.615621">
        <ele>33.324</ele>
        <time>2019-04-30T14:10:31Z</time>
      </trkpt>
      <trkpt lat="42.356033" lon="-8.615724">
        <ele>30.904</ele>
        <time>2019-04-30T14:10:45Z</time>
      </trkpt>
      <trkpt lat="42.356074" lon="-8.615822">
        <ele>28.014</ele>
        <time>2019-04-30T14:10:55Z</time>
      </trkpt>
      <trkpt lat="42.356189" lon="-8.615898">
        <ele>28.008</ele>
        <time>2019-04-30T14:11:07Z</time>
      </trkpt>
      <trkpt lat="42.356278" lon="-8.615985">
        <ele>28.535</ele>
        <time>2019-04-30T14:11:14Z</time>
      </trkpt>
      <trkpt lat="42.356346" lon="-8.616007">
        <ele>29.448</ele>
        <time>2019-04-30T14:11:19Z</time>
      </trkpt>
      <trkpt lat="42.356562" lon="-8.616178">
        <ele>30.464</ele>
        <time>2019-04-30T14:11:32Z</time>
      </trkpt>
      <trkpt lat="42.356691" lon="-8.616254">
        <ele>31.312</ele>
        <time>2019-04-30T14:11:41Z</time>
      </trkpt>
      <trkpt lat="42.356765" lon="-8.616263">
        <ele>31.870</ele>
        <time>2019-04-30T14:11:47Z</time>
      </trkpt>
      <trkpt lat="42.356941" lon="-8.616243">
        <ele>30.462</ele>
        <time>2019-04-30T14:11:58Z</time>
      </trkpt>
      <trkpt lat="42.356991" lon="-8.616248">
        <ele>30.982</ele>
        <time>2019-04-30T14:12:03Z</time>
      </trkpt>
      <trkpt lat="42.357044" lon="-8.616208">
        <ele>30.926</ele>
        <time>2019-04-30T14:12:08Z</time>
      </trkpt>
      <trkpt lat="42.357193" lon="-8.616255">
        <ele>31.899</ele>
        <time>2019-04-30T14:12:18Z</time>
      </trkpt>
      <trkpt lat="42.357307" lon="-8.616332">
        <ele>32.807</ele>
        <time>2019-04-30T14:12:28Z</time>
      </trkpt>
      <trkpt lat="42.357392" lon="-8.616336">
        <ele>35.727</ele>
        <time>2019-04-30T14:12:41Z</time>
      </trkpt>
      <trkpt lat="42.357399" lon="-8.616339">
        <ele>35.708</ele>
        <time>2019-04-30T14:12:57Z</time>
      </trkpt>
      <trkpt lat="42.357483" lon="-8.616323">
        <ele>37.132</ele>
        <time>2019-04-30T14:13:03Z</time>
      </trkpt>
      <trkpt lat="42.357782" lon="-8.616141">
        <ele>39.595</ele>
        <time>2019-04-30T14:13:16Z</time>
      </trkpt>
      <trkpt lat="42.358029" lon="-8.615905">
        <ele>39.591</ele>
        <time>2019-04-30T14:13:28Z</time>
      </trkpt>
      <trkpt lat="42.358225" lon="-8.615674">
        <ele>40.019</ele>
        <time>2019-04-30T14:13:38Z</time>
      </trkpt>
      <trkpt lat="42.358417" lon="-8.615517">
        <ele>40.087</ele>
        <time>2019-04-30T14:13:48Z</time>
      </trkpt>
      <trkpt lat="42.358529" lon="-8.615455">
        <ele>40.039</ele>
        <time>2019-04-30T14:13:53Z</time>
      </trkpt>
      <trkpt lat="42.358877" lon="-8.615415">
        <ele>41.979</ele>
        <time>2019-04-30T14:14:03Z</time>
      </trkpt>
      <trkpt lat="42.359115" lon="-8.615531">
        <ele>46.753</ele>
        <time>2019-04-30T14:14:15Z</time>
      </trkpt>
      <trkpt lat="42.359337" lon="-8.615646">
        <ele>53.061</ele>
        <time>2019-04-30T14:14:27Z</time>
      </trkpt>
      <trkpt lat="42.359562" lon="-8.615753">
        <ele>56.321</ele>
        <time>2019-04-30T14:14:39Z</time>
      </trkpt>
      <trkpt lat="42.359591" lon="-8.615758">
        <ele>57.313</ele>
        <time>2019-04-30T14:14:55Z</time>
      </trkpt>
      <trkpt lat="42.359609" lon="-8.615751">
        <ele>58.308</ele>
        <time>2019-04-30T14:14:59Z</time>
      </trkpt>
      <trkpt lat="42.359925" lon="-8.615663">
        <ele>61.619</ele>
        <time>2019-04-30T14:15:10Z</time>
      </trkpt>
      <trkpt lat="42.360237" lon="-8.615687">
        <ele>58.342</ele>
        <time>2019-04-30T14:15:22Z</time>
      </trkpt>
      <trkpt lat="42.360381" lon="-8.615896">
        <ele>59.758</ele>
        <time>2019-04-30T14:15:33Z</time>
      </trkpt>
      <trkpt lat="42.360550" lon="-8.616076">
        <ele>63.126</ele>
        <time>2019-04-30T14:15:46Z</time>
      </trkpt>
      <trkpt lat="42.360736" lon="-8.616193">
        <ele>63.524</ele>
        <time>2019-04-30T14:15:57Z</time>
      </trkpt>
      <trkpt lat="42.361024" lon="-8.616188">
        <ele>64.026</ele>
        <time>2019-04-30T14:16:11Z</time>
      </trkpt>
      <trkpt lat="42.361323" lon="-8.616144">
        <ele>64.546</ele>
        <time>2019-04-30T14:16:26Z</time>
      </trkpt>
      <trkpt lat="42.361552" lon="-8.616268">
        <ele>64.590</ele>
        <time>2019-04-30T14:16:38Z</time>
      </trkpt>
      <trkpt lat="42.361833" lon="-8.616332">
        <ele>68.386</ele>
        <time>2019-04-30T14:16:51Z</time>
      </trkpt>
      <trkpt lat="42.362139" lon="-8.616276">
        <ele>70.760</ele>
        <time>2019-04-30T14:17:03Z</time>
      </trkpt>
      <trkpt lat="42.362416" lon="-8.616231">
        <ele>71.226</ele>
        <time>2019-04-30T14:17:15Z</time>
      </trkpt>
      <trkpt lat="42.362666" lon="-8.616277">
        <ele>71.208</ele>
        <time>2019-04-30T14:17:26Z</time>
      </trkpt>
      <trkpt lat="42.362802" lon="-8.616306">
        <ele>70.761</ele>
        <time>2019-04-30T14:17:35Z</time>
      </trkpt>
      <trkpt lat="42.362965" lon="-8.616407">
        <ele>72.774</ele>
        <time>2019-04-30T14:17:47Z</time>
      </trkpt>
      <trkpt lat="42.363000" lon="-8.616471">
        <ele>73.220</ele>
        <time>2019-04-30T14:18:02Z</time>
      </trkpt>
      <trkpt lat="42.362996" lon="-8.616480">
        <ele>72.238</ele>
        <time>2019-04-30T14:18:27Z</time>
      </trkpt>
      <trkpt lat="42.363018" lon="-8.616466">
        <ele>72.756</ele>
        <time>2019-04-30T14:19:02Z</time>
      </trkpt>
      <trkpt lat="42.363035" lon="-8.616451">
        <ele>73.288</ele>
        <time>2019-04-30T14:19:38Z</time>
      </trkpt>
      <trkpt lat="42.363051" lon="-8.616458">
        <ele>74.678</ele>
        <time>2019-04-30T14:19:53Z</time>
      </trkpt>
      <trkpt lat="42.363079" lon="-8.616467">
        <ele>75.192</ele>
        <time>2019-04-30T14:20:01Z</time>
      </trkpt>
      <trkpt lat="42.363254" lon="-8.616555">
        <ele>77.586</ele>
        <time>2019-04-30T14:20:09Z</time>
      </trkpt>
      <trkpt lat="42.363399" lon="-8.616708">
        <ele>78.060</ele>
        <time>2019-04-30T14:20:17Z</time>
      </trkpt>
      <trkpt lat="42.363547" lon="-8.616773">
        <ele>78.426</ele>
        <time>2019-04-30T14:20:25Z</time>
      </trkpt>
      <trkpt lat="42.363652" lon="-8.616768">
        <ele>78.008</ele>
        <time>2019-04-30T14:20:30Z</time>
      </trkpt>
      <trkpt lat="42.363728" lon="-8.616793">
        <ele>78.451</ele>
        <time>2019-04-30T14:20:34Z</time>
      </trkpt>
      <trkpt lat="42.363857" lon="-8.616803">
        <ele>80.424</ele>
        <time>2019-04-30T14:20:41Z</time>
      </trkpt>
      <trkpt lat="42.363945" lon="-8.616797">
        <ele>80.870</ele>
        <time>2019-04-30T14:20:46Z</time>
      </trkpt>
      <trkpt lat="42.364249" lon="-8.616574">
        <ele>85.678</ele>
        <time>2019-04-30T14:21:00Z</time>
      </trkpt>
      <trkpt lat="42.364442" lon="-8.616571">
        <ele>88.546</ele>
        <time>2019-04-30T14:21:11Z</time>
      </trkpt>
      <trkpt lat="42.364566" lon="-8.616569">
        <ele>90.058</ele>
        <time>2019-04-30T14:21:17Z</time>
      </trkpt>
      <trkpt lat="42.364892" lon="-8.616629">
        <ele>92.468</ele>
        <time>2019-04-30T14:21:30Z</time>
      </trkpt>
      <trkpt lat="42.364956" lon="-8.616679">
        <ele>92.432</ele>
        <time>2019-04-30T14:21:34Z</time>
      </trkpt>
      <trkpt lat="42.365026" lon="-8.616744">
        <ele>92.973</ele>
        <time>2019-04-30T14:21:40Z</time>
      </trkpt>
      <trkpt lat="42.365187" lon="-8.616814">
        <ele>98.685</ele>
        <time>2019-04-30T14:21:53Z</time>
      </trkpt>
      <trkpt lat="42.365202" lon="-8.616821">
        <ele>98.613</ele>
        <time>2019-04-30T14:21:54Z</time>
      </trkpt>
      <trkpt lat="42.365252" lon="-8.616860">
        <ele>99.608</ele>
        <time>2019-04-30T14:21:58Z</time>
      </trkpt>
      <trkpt lat="42.365280" lon="-8.616965">
        <ele>100.630</ele>
        <time>2019-04-30T14:22:04Z</time>
      </trkpt>
      <trkpt lat="42.365263" lon="-8.617042">
        <ele>100.683</ele>
        <time>2019-04-30T14:22:09Z</time>
      </trkpt>
      <trkpt lat="42.365155" lon="-8.617133">
        <ele>103.029</ele>
        <time>2019-04-30T14:22:20Z</time>
      </trkpt>
      <trkpt lat="42.365107" lon="-8.617340">
        <ele>106.877</ele>
        <time>2019-04-30T14:22:34Z</time>
      </trkpt>
      <trkpt lat="42.364991" lon="-8.617522">
        <ele>113.565</ele>
        <time>2019-04-30T14:22:46Z</time>
      </trkpt>
      <trkpt lat="42.364910" lon="-8.617611">
        <ele>114.577</ele>
        <time>2019-04-30T14:22:52Z</time>
      </trkpt>
      <trkpt lat="42.364764" lon="-8.617767">
        <ele>115.097</ele>
        <time>2019-04-30T14:23:03Z</time>
      </trkpt>
      <trkpt lat="42.364717" lon="-8.617801">
        <ele>115.531</ele>
        <time>2019-04-30T14:23:06Z</time>
      </trkpt>
      <trkpt lat="42.364494" lon="-8.617882">
        <ele>115.047</ele>
        <time>2019-04-30T14:23:19Z</time>
      </trkpt>
      <trkpt lat="42.364293" lon="-8.617893">
        <ele>116.929</ele>
        <time>2019-04-30T14:23:28Z</time>
      </trkpt>
      <trkpt lat="42.364319" lon="-8.618032">
        <ele>118.321</ele>
        <time>2019-04-30T14:23:37Z</time>
      </trkpt>
      <trkpt lat="42.364340" lon="-8.618051">
        <ele>118.808</ele>
        <time>2019-04-30T14:23:39Z</time>
      </trkpt>
      <trkpt lat="42.364444" lon="-8.618170">
        <ele>119.397</ele>
        <time>2019-04-30T14:23:49Z</time>
      </trkpt>
      <trkpt lat="42.364631" lon="-8.618237">
        <ele>119.860</ele>
        <time>2019-04-30T14:24:02Z</time>
      </trkpt>
      <trkpt lat="42.364757" lon="-8.618256">
        <ele>119.356</ele>
        <time>2019-04-30T14:24:11Z</time>
      </trkpt>
      <trkpt lat="42.364935" lon="-8.618236">
        <ele>121.274</ele>
        <time>2019-04-30T14:24:20Z</time>
      </trkpt>
      <trkpt lat="42.365000" lon="-8.618254">
        <ele>121.252</ele>
        <time>2019-04-30T14:24:24Z</time>
      </trkpt>
      <trkpt lat="42.365042" lon="-8.618251">
        <ele>121.714</ele>
        <time>2019-04-30T14:24:27Z</time>
      </trkpt>
      <trkpt lat="42.365104" lon="-8.618269">
        <ele>122.264</ele>
        <time>2019-04-30T14:24:31Z</time>
      </trkpt>
      <trkpt lat="42.365139" lon="-8.618291">
        <ele>122.738</ele>
        <time>2019-04-30T14:24:33Z</time>
      </trkpt>
      <trkpt lat="42.365320" lon="-8.618432">
        <ele>123.185</ele>
        <time>2019-04-30T14:24:46Z</time>
      </trkpt>
      <trkpt lat="42.365460" lon="-8.618589">
        <ele>121.289</ele>
        <time>2019-04-30T14:24:57Z</time>
      </trkpt>
      <trkpt lat="42.365624" lon="-8.618758">
        <ele>122.717</ele>
        <time>2019-04-30T14:25:11Z</time>
      </trkpt>
      <trkpt lat="42.365788" lon="-8.618990">
        <ele>123.108</ele>
        <time>2019-04-30T14:25:24Z</time>
      </trkpt>
      <trkpt lat="42.366029" lon="-8.619225">
        <ele>127.541</ele>
        <time>2019-04-30T14:25:37Z</time>
      </trkpt>
      <trkpt lat="42.366234" lon="-8.619400">
        <ele>131.344</ele>
        <time>2019-04-30T14:25:49Z</time>
      </trkpt>
      <trkpt lat="42.366265" lon="-8.619423">
        <ele>131.820</ele>
        <time>2019-04-30T14:25:51Z</time>
      </trkpt>
      <trkpt lat="42.366284" lon="-8.619453">
        <ele>132.398</ele>
        <time>2019-04-30T14:25:53Z</time>
      </trkpt>
      <trkpt lat="42.366440" lon="-8.619497">
        <ele>135.656</ele>
        <time>2019-04-30T14:26:00Z</time>
      </trkpt>
      <trkpt lat="42.366645" lon="-8.619603">
        <ele>139.598</ele>
        <time>2019-04-30T14:26:11Z</time>
      </trkpt>
      <trkpt lat="42.366724" lon="-8.619653">
        <ele>140.098</ele>
        <time>2019-04-30T14:26:17Z</time>
      </trkpt>
      <trkpt lat="42.366673" lon="-8.619890">
        <ele>140.912</ele>
        <time>2019-04-30T14:26:24Z</time>
      </trkpt>
      <trkpt lat="42.366640" lon="-8.619966">
        <ele>140.934</ele>
        <time>2019-04-30T14:26:27Z</time>
      </trkpt>
      <trkpt lat="42.366611" lon="-8.620101">
        <ele>142.855</ele>
        <time>2019-04-30T14:26:32Z</time>
      </trkpt>
      <trkpt lat="42.366780" lon="-8.620307">
        <ele>145.310</ele>
        <time>2019-04-30T14:26:44Z</time>
      </trkpt>
      <trkpt lat="42.366805" lon="-8.620318">
        <ele>146.208</ele>
        <time>2019-04-30T14:26:45Z</time>
      </trkpt>
      <trkpt lat="42.367139" lon="-8.620526">
        <ele>150.526</ele>
        <time>2019-04-30T14:26:58Z</time>
      </trkpt>
      <trkpt lat="42.367374" lon="-8.620539">
        <ele>153.449</ele>
        <time>2019-04-30T14:27:05Z</time>
      </trkpt>
      <trkpt lat="42.367788" lon="-8.620882">
        <ele>152.995</ele>
        <time>2019-04-30T14:27:11Z</time>
      </trkpt>
      <trkpt lat="42.368063" lon="-8.621496">
        <ele>144.823</ele>
        <time>2019-04-30T14:27:18Z</time>
      </trkpt>
      <trkpt lat="42.368127" lon="-8.621709">
        <ele>142.871</ele>
        <time>2019-04-30T14:27:20Z</time>
      </trkpt>
      <trkpt lat="42.368275" lon="-8.622164">
        <ele>134.763</ele>
        <time>2019-04-30T14:27:26Z</time>
      </trkpt>
      <trkpt lat="42.368291" lon="-8.622257">
        <ele>132.863</ele>
        <time>2019-04-30T14:27:27Z</time>
      </trkpt>
      <trkpt lat="42.368370" lon="-8.622630">
        <ele>125.547</ele>
        <time>2019-04-30T14:27:31Z</time>
      </trkpt>
      <trkpt lat="42.368409" lon="-8.622722">
        <ele>123.632</ele>
        <time>2019-04-30T14:27:32Z</time>
      </trkpt>
      <trkpt lat="42.368872" lon="-8.623711">
        <ele>112.192</ele>
        <time>2019-04-30T14:27:44Z</time>
      </trkpt>
      <trkpt lat="42.368951" lon="-8.623978">
        <ele>111.111</ele>
        <time>2019-04-30T14:27:48Z</time>
      </trkpt>
      <trkpt lat="42.368963" lon="-8.624347">
        <ele>110.608</ele>
        <time>2019-04-30T14:27:57Z</time>
      </trkpt>
      <trkpt lat="42.368970" lon="-8.624362">
        <ele>110.276</ele>
        <time>2019-04-30T14:28:08Z</time>
      </trkpt>
      <trkpt lat="42.369027" lon="-8.624415">
        <ele>110.679</ele>
        <time>2019-04-30T14:28:20Z</time>
      </trkpt>
      <trkpt lat="42.369061" lon="-8.624443">
        <ele>110.655</ele>
        <time>2019-04-30T14:28:22Z</time>
      </trkpt>
      <trkpt lat="42.369073" lon="-8.624462">
        <ele>110.633</ele>
        <time>2019-04-30T14:28:23Z</time>
      </trkpt>
      <trkpt lat="42.369084" lon="-8.624485">
        <ele>110.231</ele>
        <time>2019-04-30T14:28:24Z</time>
      </trkpt>
      <trkpt lat="42.369098" lon="-8.624504">
        <ele>110.623</ele>
        <time>2019-04-30T14:28:25Z</time>
      </trkpt>
      <trkpt lat="42.369115" lon="-8.624520">
        <ele>110.613</ele>
        <time>2019-04-30T14:28:26Z</time>
      </trkpt>
      <trkpt lat="42.369260" lon="-8.624693">
        <ele>113.527</ele>
        <time>2019-04-30T14:28:36Z</time>
      </trkpt>
      <trkpt lat="42.369388" lon="-8.624985">
        <ele>113.536</ele>
        <time>2019-04-30T14:28:47Z</time>
      </trkpt>
      <trkpt lat="42.369514" lon="-8.625212">
        <ele>112.117</ele>
        <time>2019-04-30T14:28:53Z</time>
      </trkpt>
      <trkpt lat="42.369549" lon="-8.625247">
        <ele>112.118</ele>
        <time>2019-04-30T14:28:54Z</time>
      </trkpt>
      <trkpt lat="42.370233" lon="-8.625694">
        <ele>110.208</ele>
        <time>2019-04-30T14:29:08Z</time>
      </trkpt>
      <trkpt lat="42.370530" lon="-8.625841">
        <ele>109.256</ele>
        <time>2019-04-30T14:29:14Z</time>
      </trkpt>
      <trkpt lat="42.370671" lon="-8.626022">
        <ele>108.729</ele>
        <time>2019-04-30T14:29:19Z</time>
      </trkpt>
      <trkpt lat="42.370715" lon="-8.626052">
        <ele>108.785</ele>
        <time>2019-04-30T14:29:20Z</time>
      </trkpt>
      <trkpt lat="42.370765" lon="-8.626084">
        <ele>108.233</ele>
        <time>2019-04-30T14:29:21Z</time>
      </trkpt>
      <trkpt lat="42.370869" lon="-8.626147">
        <ele>108.751</ele>
        <time>2019-04-30T14:29:23Z</time>
      </trkpt>
      <trkpt lat="42.370919" lon="-8.626159">
        <ele>108.713</ele>
        <time>2019-04-30T14:29:24Z</time>
      </trkpt>
      <trkpt lat="42.370970" lon="-8.626136">
        <ele>109.223</ele>
        <time>2019-04-30T14:29:25Z</time>
      </trkpt>
      <trkpt lat="42.371014" lon="-8.626109">
        <ele>109.297</ele>
        <time>2019-04-30T14:29:26Z</time>
      </trkpt>
      <trkpt lat="42.371055" lon="-8.626090">
        <ele>109.784</ele>
        <time>2019-04-30T14:29:27Z</time>
      </trkpt>
      <trkpt lat="42.371092" lon="-8.626077">
        <ele>110.207</ele>
        <time>2019-04-30T14:29:28Z</time>
      </trkpt>
      <trkpt lat="42.371281" lon="-8.625980">
        <ele>112.117</ele>
        <time>2019-04-30T14:29:38Z</time>
      </trkpt>
      <trkpt lat="42.371269" lon="-8.625977">
        <ele>111.608</ele>
        <time>2019-04-30T14:29:49Z</time>
      </trkpt>
      <trkpt lat="42.371278" lon="-8.625966">
        <ele>111.611</ele>
        <time>2019-04-30T14:29:53Z</time>
      </trkpt>
      <trkpt lat="42.371293" lon="-8.625959">
        <ele>112.184</ele>
        <time>2019-04-30T14:29:54Z</time>
      </trkpt>
      <trkpt lat="42.371312" lon="-8.625949">
        <ele>112.150</ele>
        <time>2019-04-30T14:29:55Z</time>
      </trkpt>
      <trkpt lat="42.371331" lon="-8.625939">
        <ele>112.128</ele>
        <time>2019-04-30T14:29:56Z</time>
      </trkpt>
      <trkpt lat="42.371353" lon="-8.625925">
        <ele>112.686</ele>
        <time>2019-04-30T14:29:57Z</time>
      </trkpt>
      <trkpt lat="42.371377" lon="-8.625906">
        <ele>112.618</ele>
        <time>2019-04-30T14:29:58Z</time>
      </trkpt>
      <trkpt lat="42.371543" lon="-8.625802">
        <ele>113.068</ele>
        <time>2019-04-30T14:30:03Z</time>
      </trkpt>
      <trkpt lat="42.371584" lon="-8.625772">
        <ele>113.072</ele>
        <time>2019-04-30T14:30:04Z</time>
      </trkpt>
      <trkpt lat="42.372242" lon="-8.625168">
        <ele>111.692</ele>
        <time>2019-04-30T14:30:20Z</time>
      </trkpt>
      <trkpt lat="42.372616" lon="-8.624844">
        <ele>113.073</ele>
        <time>2019-04-30T14:30:30Z</time>
      </trkpt>
      <trkpt lat="42.372744" lon="-8.624786">
        <ele>113.020</ele>
        <time>2019-04-30T14:30:33Z</time>
      </trkpt>
      <trkpt lat="42.372787" lon="-8.624779">
        <ele>113.008</ele>
        <time>2019-04-30T14:30:34Z</time>
      </trkpt>
      <trkpt lat="42.372832" lon="-8.624788">
        <ele>113.092</ele>
        <time>2019-04-30T14:30:35Z</time>
      </trkpt>
      <trkpt lat="42.372876" lon="-8.624807">
        <ele>113.025</ele>
        <time>2019-04-30T14:30:36Z</time>
      </trkpt>
      <trkpt lat="42.372922" lon="-8.624832">
        <ele>113.061</ele>
        <time>2019-04-30T14:30:37Z</time>
      </trkpt>
      <trkpt lat="42.372969" lon="-8.624860">
        <ele>113.059</ele>
        <time>2019-04-30T14:30:38Z</time>
      </trkpt>
      <trkpt lat="42.373406" lon="-8.625143">
        <ele>113.517</ele>
        <time>2019-04-30T14:30:48Z</time>
      </trkpt>
      <trkpt lat="42.373809" lon="-8.625401">
        <ele>115.079</ele>
        <time>2019-04-30T14:30:59Z</time>
      </trkpt>
      <trkpt lat="42.373853" lon="-8.625407">
        <ele>115.019</ele>
        <time>2019-04-30T14:31:00Z</time>
      </trkpt>
      <trkpt lat="42.374173" lon="-8.625388">
        <ele>114.033</ele>
        <time>2019-04-30T14:31:06Z</time>
      </trkpt>
      <trkpt lat="42.374296" lon="-8.625357">
        <ele>113.595</ele>
        <time>2019-04-30T14:31:08Z</time>
      </trkpt>
      <trkpt lat="42.374362" lon="-8.625359">
        <ele>113.049</ele>
        <time>2019-04-30T14:31:09Z</time>
      </trkpt>
      <trkpt lat="42.374432" lon="-8.625385">
        <ele>113.023</ele>
        <time>2019-04-30T14:31:10Z</time>
      </trkpt>
      <trkpt lat="42.374496" lon="-8.625436">
        <ele>112.608</ele>
        <time>2019-04-30T14:31:11Z</time>
      </trkpt>
      <trkpt lat="42.374555" lon="-8.625503">
        <ele>112.182</ele>
        <time>2019-04-30T14:31:12Z</time>
      </trkpt>
      <trkpt lat="42.374615" lon="-8.625576">
        <ele>111.195</ele>
        <time>2019-04-30T14:31:13Z</time>
      </trkpt>
      <trkpt lat="42.374686" lon="-8.625649">
        <ele>110.641</ele>
        <time>2019-04-30T14:31:14Z</time>
      </trkpt>
      <trkpt lat="42.374767" lon="-8.625718">
        <ele>110.239</ele>
        <time>2019-04-30T14:31:15Z</time>
      </trkpt>
      <trkpt lat="42.374853" lon="-8.625775">
        <ele>109.757</ele>
        <time>2019-04-30T14:31:16Z</time>
      </trkpt>
      <trkpt lat="42.374942" lon="-8.625824">
        <ele>109.269</ele>
        <time>2019-04-30T14:31:17Z</time>
      </trkpt>
      <trkpt lat="42.375208" lon="-8.625991">
        <ele>106.849</ele>
        <time>2019-04-30T14:31:20Z</time>
      </trkpt>
      <trkpt lat="42.375290" lon="-8.626074">
        <ele>106.393</ele>
        <time>2019-04-30T14:31:21Z</time>
      </trkpt>
      <trkpt lat="42.376366" lon="-8.627020">
        <ele>96.261</ele>
        <time>2019-04-30T14:31:33Z</time>
      </trkpt>
      <trkpt lat="42.376466" lon="-8.627043">
        <ele>95.721</ele>
        <time>2019-04-30T14:31:34Z</time>
      </trkpt>
      <trkpt lat="42.376561" lon="-8.627043">
        <ele>95.313</ele>
        <time>2019-04-30T14:31:35Z</time>
      </trkpt>
      <trkpt lat="42.376646" lon="-8.627034">
        <ele>94.808</ele>
        <time>2019-04-30T14:31:36Z</time>
      </trkpt>
      <trkpt lat="42.376720" lon="-8.627026">
        <ele>94.839</ele>
        <time>2019-04-30T14:31:37Z</time>
      </trkpt>
      <trkpt lat="42.376784" lon="-8.627018">
        <ele>94.872</ele>
        <time>2019-04-30T14:31:38Z</time>
      </trkpt>
      <trkpt lat="42.377061" lon="-8.626966">
        <ele>95.388</ele>
        <time>2019-04-30T14:31:43Z</time>
      </trkpt>
      <trkpt lat="42.377151" lon="-8.626965">
        <ele>96.236</ele>
        <time>2019-04-30T14:31:45Z</time>
      </trkpt>
      <trkpt lat="42.377191" lon="-8.626976">
        <ele>96.254</ele>
        <time>2019-04-30T14:31:46Z</time>
      </trkpt>
      <trkpt lat="42.377228" lon="-8.626995">
        <ele>96.716</ele>
        <time>2019-04-30T14:31:47Z</time>
      </trkpt>
      <trkpt lat="42.377260" lon="-8.627022">
        <ele>97.216</ele>
        <time>2019-04-30T14:31:48Z</time>
      </trkpt>
      <trkpt lat="42.377288" lon="-8.627057">
        <ele>97.770</ele>
        <time>2019-04-30T14:31:49Z</time>
      </trkpt>
      <trkpt lat="42.377315" lon="-8.627092">
        <ele>98.139</ele>
        <time>2019-04-30T14:31:50Z</time>
      </trkpt>
      <trkpt lat="42.377342" lon="-8.627128">
        <ele>98.601</ele>
        <time>2019-04-30T14:31:51Z</time>
      </trkpt>
      <trkpt lat="42.377434" lon="-8.627234">
        <ele>99.121</ele>
        <time>2019-04-30T14:31:54Z</time>
      </trkpt>
      <trkpt lat="42.377478" lon="-8.627255">
        <ele>99.108</ele>
        <time>2019-04-30T14:31:55Z</time>
      </trkpt>
      <trkpt lat="42.377527" lon="-8.627261">
        <ele>99.116</ele>
        <time>2019-04-30T14:31:56Z</time>
      </trkpt>
      <trkpt lat="42.377576" lon="-8.627260">
        <ele>99.179</ele>
        <time>2019-04-30T14:31:57Z</time>
      </trkpt>
      <trkpt lat="42.377627" lon="-8.627255">
        <ele>99.145</ele>
        <time>2019-04-30T14:31:58Z</time>
      </trkpt>
      <trkpt lat="42.378166" lon="-8.627246">
        <ele>98.653</ele>
        <time>2019-04-30T14:32:07Z</time>
      </trkpt>
      <trkpt lat="42.378453" lon="-8.627326">
        <ele>97.781</ele>
        <time>2019-04-30T14:32:11Z</time>
      </trkpt>
      <trkpt lat="42.378728" lon="-8.627519">
        <ele>96.283</ele>
        <time>2019-04-30T14:32:15Z</time>
      </trkpt>
      <trkpt lat="42.378780" lon="-8.627574">
        <ele>95.763</ele>
        <time>2019-04-30T14:32:16Z</time>
      </trkpt>
      <trkpt lat="42.378866" lon="-8.627675">
        <ele>95.317</ele>
        <time>2019-04-30T14:32:18Z</time>
      </trkpt>
      <trkpt lat="42.378906" lon="-8.627708">
        <ele>94.861</ele>
        <time>2019-04-30T14:32:19Z</time>
      </trkpt>
      <trkpt lat="42.378940" lon="-8.627724">
        <ele>94.321</ele>
        <time>2019-04-30T14:32:20Z</time>
      </trkpt>
      <trkpt lat="42.378966" lon="-8.627735">
        <ele>93.813</ele>
        <time>2019-04-30T14:32:21Z</time>
      </trkpt>
      <trkpt lat="42.378984" lon="-8.627751">
        <ele>93.808</ele>
        <time>2019-04-30T14:32:22Z</time>
      </trkpt>
      <trkpt lat="42.379005" lon="-8.627774">
        <ele>93.339</ele>
        <time>2019-04-30T14:32:23Z</time>
      </trkpt>
      <trkpt lat="42.379033" lon="-8.627800">
        <ele>93.332</ele>
        <time>2019-04-30T14:32:24Z</time>
      </trkpt>
      <trkpt lat="42.379064" lon="-8.627829">
        <ele>93.358</ele>
        <time>2019-04-30T14:32:25Z</time>
      </trkpt>
      <trkpt lat="42.379085" lon="-8.627857">
        <ele>93.346</ele>
        <time>2019-04-30T14:32:26Z</time>
      </trkpt>
      <trkpt lat="42.379097" lon="-8.627884">
        <ele>93.374</ele>
        <time>2019-04-30T14:32:27Z</time>
      </trkpt>
      <trkpt lat="42.379103" lon="-8.627917">
        <ele>93.366</ele>
        <time>2019-04-30T14:32:28Z</time>
      </trkpt>
      <trkpt lat="42.379114" lon="-8.627956">
        <ele>92.956</ele>
        <time>2019-04-30T14:32:29Z</time>
      </trkpt>
      <trkpt lat="42.379132" lon="-8.627997">
        <ele>92.480</ele>
        <time>2019-04-30T14:32:30Z</time>
      </trkpt>
      <trkpt lat="42.379155" lon="-8.628045">
        <ele>91.482</ele>
        <time>2019-04-30T14:32:31Z</time>
      </trkpt>
      <trkpt lat="42.379177" lon="-8.628101">
        <ele>90.943</ele>
        <time>2019-04-30T14:32:32Z</time>
      </trkpt>
      <trkpt lat="42.379345" lon="-8.628660">
        <ele>84.717</ele>
        <time>2019-04-30T14:32:41Z</time>
      </trkpt>
      <trkpt lat="42.379351" lon="-8.628709">
        <ele>84.208</ele>
        <time>2019-04-30T14:32:44Z</time>
      </trkpt>
      <trkpt lat="42.379354" lon="-8.628741">
        <ele>84.211</ele>
        <time>2019-04-30T14:32:45Z</time>
      </trkpt>
      <trkpt lat="42.379369" lon="-8.628781">
        <ele>83.764</ele>
        <time>2019-04-30T14:32:46Z</time>
      </trkpt>
      <trkpt lat="42.379420" lon="-8.628862">
        <ele>83.290</ele>
        <time>2019-04-30T14:32:48Z</time>
      </trkpt>
      <trkpt lat="42.379454" lon="-8.628903">
        <ele>83.228</ele>
        <time>2019-04-30T14:32:49Z</time>
      </trkpt>
      <trkpt lat="42.379490" lon="-8.628949">
        <ele>82.836</ele>
        <time>2019-04-30T14:32:50Z</time>
      </trkpt>
      <trkpt lat="42.379528" lon="-8.628999">
        <ele>82.898</ele>
        <time>2019-04-30T14:32:51Z</time>
      </trkpt>
      <trkpt lat="42.379567" lon="-8.629048">
        <ele>82.858</ele>
        <time>2019-04-30T14:32:52Z</time>
      </trkpt>
      <trkpt lat="42.379647" lon="-8.629135">
        <ele>81.812</ele>
        <time>2019-04-30T14:32:54Z</time>
      </trkpt>
      <trkpt lat="42.379699" lon="-8.629173">
        <ele>81.826</ele>
        <time>2019-04-30T14:32:55Z</time>
      </trkpt>
      <trkpt lat="42.379756" lon="-8.629206">
        <ele>81.847</ele>
        <time>2019-04-30T14:32:56Z</time>
      </trkpt>
      <trkpt lat="42.379816" lon="-8.629236">
        <ele>81.311</ele>
        <time>2019-04-30T14:32:57Z</time>
      </trkpt>
      <trkpt lat="42.379877" lon="-8.629261">
        <ele>81.308</ele>
        <time>2019-04-30T14:32:58Z</time>
      </trkpt>
      <trkpt lat="42.380649" lon="-8.629540">
        <ele>78.415</ele>
        <time>2019-04-30T14:33:10Z</time>
      </trkpt>
      <trkpt lat="42.380864" lon="-8.629583">
        <ele>77.568</ele>
        <time>2019-04-30T14:33:13Z</time>
      </trkpt>
      <trkpt lat="42.380936" lon="-8.629576">
        <ele>77.534</ele>
        <time>2019-04-30T14:33:14Z</time>
      </trkpt>
      <trkpt lat="42.381002" lon="-8.629556">
        <ele>76.582</ele>
        <time>2019-04-30T14:33:15Z</time>
      </trkpt>
      <trkpt lat="42.381065" lon="-8.629537">
        <ele>76.030</ele>
        <time>2019-04-30T14:33:16Z</time>
      </trkpt>
      <trkpt lat="42.381131" lon="-8.629524">
        <ele>75.692</ele>
        <time>2019-04-30T14:33:17Z</time>
      </trkpt>
      <trkpt lat="42.381192" lon="-8.629519">
        <ele>74.652</ele>
        <time>2019-04-30T14:33:18Z</time>
      </trkpt>
      <trkpt lat="42.381249" lon="-8.629511">
        <ele>74.176</ele>
        <time>2019-04-30T14:33:19Z</time>
      </trkpt>
      <trkpt lat="42.381293" lon="-8.629496">
        <ele>73.692</ele>
        <time>2019-04-30T14:33:20Z</time>
      </trkpt>
      <trkpt lat="42.381330" lon="-8.629484">
        <ele>73.673</ele>
        <time>2019-04-30T14:33:21Z</time>
      </trkpt>
      <trkpt lat="42.381364" lon="-8.629474">
        <ele>73.220</ele>
        <time>2019-04-30T14:33:22Z</time>
      </trkpt>
      <trkpt lat="42.381642" lon="-8.629466">
        <ele>71.208</ele>
        <time>2019-04-30T14:33:30Z</time>
      </trkpt>
      <trkpt lat="42.381796" lon="-8.629494">
        <ele>71.272</ele>
        <time>2019-04-30T14:33:33Z</time>
      </trkpt>
      <trkpt lat="42.381982" lon="-8.629516">
        <ele>71.235</ele>
        <time>2019-04-30T14:33:36Z</time>
      </trkpt>
      <trkpt lat="42.382044" lon="-8.629518">
        <ele>71.221</ele>
        <time>2019-04-30T14:33:37Z</time>
      </trkpt>
      <trkpt lat="42.382105" lon="-8.629526">
        <ele>71.259</ele>
        <time>2019-04-30T14:33:38Z</time>
      </trkpt>
      <trkpt lat="42.382749" lon="-8.629589">
        <ele>68.827</ele>
        <time>2019-04-30T14:33:48Z</time>
      </trkpt>
      <trkpt lat="42.382876" lon="-8.629619">
        <ele>68.329</ele>
        <time>2019-04-30T14:33:50Z</time>
      </trkpt>
      <trkpt lat="42.382938" lon="-8.629650">
        <ele>67.949</ele>
        <time>2019-04-30T14:33:51Z</time>
      </trkpt>
      <trkpt lat="42.383006" lon="-8.629685">
        <ele>67.463</ele>
        <time>2019-04-30T14:33:52Z</time>
      </trkpt>
      <trkpt lat="42.383276" lon="-8.629818">
        <ele>65.982</ele>
        <time>2019-04-30T14:33:56Z</time>
      </trkpt>
      <trkpt lat="42.383326" lon="-8.629849">
        <ele>65.943</ele>
        <time>2019-04-30T14:33:57Z</time>
      </trkpt>
      <trkpt lat="42.383381" lon="-8.629876">
        <ele>65.917</ele>
        <time>2019-04-30T14:33:58Z</time>
      </trkpt>
      <trkpt lat="42.383434" lon="-8.629909">
        <ele>65.508</ele>
        <time>2019-04-30T14:33:59Z</time>
      </trkpt>
      <trkpt lat="42.383481" lon="-8.629946">
        <ele>64.531</ele>
        <time>2019-04-30T14:34:00Z</time>
      </trkpt>
      <trkpt lat="42.383520" lon="-8.629985">
        <ele>63.514</ele>
        <time>2019-04-30T14:34:01Z</time>
      </trkpt>
      <trkpt lat="42.383559" lon="-8.630021">
        <ele>62.680</ele>
        <time>2019-04-30T14:34:02Z</time>
      </trkpt>
      <trkpt lat="42.383607" lon="-8.630042">
        <ele>61.688</ele>
        <time>2019-04-30T14:34:03Z</time>
      </trkpt>
      <trkpt lat="42.383659" lon="-8.630044">
        <ele>60.716</ele>
        <time>2019-04-30T14:34:04Z</time>
      </trkpt>
      <trkpt lat="42.383831" lon="-8.629995">
        <ele>58.388</ele>
        <time>2019-04-30T14:34:07Z</time>
      </trkpt>
      <trkpt lat="42.383891" lon="-8.629980">
        <ele>57.338</ele>
        <time>2019-04-30T14:34:08Z</time>
      </trkpt>
      <trkpt lat="42.383950" lon="-8.629992">
        <ele>56.332</ele>
        <time>2019-04-30T14:34:09Z</time>
      </trkpt>
      <trkpt lat="42.384128" lon="-8.630152">
        <ele>53.485</ele>
        <time>2019-04-30T14:34:12Z</time>
      </trkpt>
      <trkpt lat="42.384188" lon="-8.630217">
        <ele>52.089</ele>
        <time>2019-04-30T14:34:13Z</time>
      </trkpt>
      <trkpt lat="42.384251" lon="-8.630272">
        <ele>51.017</ele>
        <time>2019-04-30T14:34:14Z</time>
      </trkpt>
      <trkpt lat="42.384568" lon="-8.630583">
        <ele>45.308</ele>
        <time>2019-04-30T14:34:22Z</time>
      </trkpt>
      <trkpt lat="42.384589" lon="-8.630654">
        <ele>44.351</ele>
        <time>2019-04-30T14:34:25Z</time>
      </trkpt>
      <trkpt lat="42.384601" lon="-8.630665">
        <ele>43.894</ele>
        <time>2019-04-30T14:34:26Z</time>
      </trkpt>
      <trkpt lat="42.384604" lon="-8.630668">
        <ele>42.490</ele>
        <time>2019-04-30T14:34:33Z</time>
      </trkpt>
      <trkpt lat="42.384617" lon="-8.630661">
        <ele>42.458</ele>
        <time>2019-04-30T14:34:34Z</time>
      </trkpt>
      <trkpt lat="42.384632" lon="-8.630651">
        <ele>42.496</ele>
        <time>2019-04-30T14:34:35Z</time>
      </trkpt>
      <trkpt lat="42.384649" lon="-8.630641">
        <ele>42.478</ele>
        <time>2019-04-30T14:34:36Z</time>
      </trkpt>
      <trkpt lat="42.384676" lon="-8.630622">
        <ele>42.488</ele>
        <time>2019-04-30T14:34:37Z</time>
      </trkpt>
      <trkpt lat="42.384711" lon="-8.630599">
        <ele>42.412</ele>
        <time>2019-04-30T14:34:38Z</time>
      </trkpt>
      <trkpt lat="42.384750" lon="-8.630584">
        <ele>41.981</ele>
        <time>2019-04-30T14:34:39Z</time>
      </trkpt>
      <trkpt lat="42.384792" lon="-8.630577">
        <ele>41.961</ele>
        <time>2019-04-30T14:34:40Z</time>
      </trkpt>
      <trkpt lat="42.384883" lon="-8.630556">
        <ele>41.417</ele>
        <time>2019-04-30T14:34:42Z</time>
      </trkpt>
      <trkpt lat="42.384926" lon="-8.630536">
        <ele>41.408</ele>
        <time>2019-04-30T14:34:43Z</time>
      </trkpt>
      <trkpt lat="42.384967" lon="-8.630516">
        <ele>41.461</ele>
        <time>2019-04-30T14:34:44Z</time>
      </trkpt>
      <trkpt lat="42.385010" lon="-8.630503">
        <ele>41.424</ele>
        <time>2019-04-30T14:34:45Z</time>
      </trkpt>
      <trkpt lat="42.385054" lon="-8.630493">
        <ele>41.980</ele>
        <time>2019-04-30T14:34:46Z</time>
      </trkpt>
      <trkpt lat="42.385804" lon="-8.630413">
        <ele>41.458</ele>
        <time>2019-04-30T14:35:02Z</time>
      </trkpt>
      <trkpt lat="42.385985" lon="-8.630393">
        <ele>41.426</ele>
        <time>2019-04-30T14:35:08Z</time>
      </trkpt>
      <trkpt lat="42.386099" lon="-8.630428">
        <ele>42.498</ele>
        <time>2019-04-30T14:35:12Z</time>
      </trkpt>
      <trkpt lat="42.386145" lon="-8.630415">
        <ele>42.458</ele>
        <time>2019-04-30T14:35:13Z</time>
      </trkpt>
      <trkpt lat="42.386437" lon="-8.630330">
        <ele>41.972</ele>
        <time>2019-04-30T14:35:19Z</time>
      </trkpt>
      <trkpt lat="42.386491" lon="-8.630299">
        <ele>41.997</ele>
        <time>2019-04-30T14:35:20Z</time>
      </trkpt>
      <trkpt lat="42.386543" lon="-8.630263">
        <ele>41.923</ele>
        <time>2019-04-30T14:35:21Z</time>
      </trkpt>
      <trkpt lat="42.387240" lon="-8.629826">
        <ele>40.525</ele>
        <time>2019-04-30T14:35:34Z</time>
      </trkpt>
      <trkpt lat="42.387670" lon="-8.629544">
        <ele>39.508</ele>
        <time>2019-04-30T14:35:42Z</time>
      </trkpt>
      <trkpt lat="42.387775" lon="-8.629497">
        <ele>39.522</ele>
        <time>2019-04-30T14:35:44Z</time>
      </trkpt>
      <trkpt lat="42.387871" lon="-8.629479">
        <ele>40.085</ele>
        <time>2019-04-30T14:35:46Z</time>
      </trkpt>
      <trkpt lat="42.387921" lon="-8.629483">
        <ele>40.071</ele>
        <time>2019-04-30T14:35:47Z</time>
      </trkpt>
      <trkpt lat="42.388214" lon="-8.629583">
        <ele>40.059</ele>
        <time>2019-04-30T14:35:52Z</time>
      </trkpt>
      <trkpt lat="42.388866" lon="-8.629852">
        <ele>41.457</ele>
        <time>2019-04-30T14:36:04Z</time>
      </trkpt>
      <trkpt lat="42.389034" lon="-8.629929">
        <ele>41.929</ele>
        <time>2019-04-30T14:36:07Z</time>
      </trkpt>
      <trkpt lat="42.389080" lon="-8.629938">
        <ele>42.499</ele>
        <time>2019-04-30T14:36:08Z</time>
      </trkpt>
      <trkpt lat="42.389113" lon="-8.629939">
        <ele>42.953</ele>
        <time>2019-04-30T14:36:09Z</time>
      </trkpt>
      <trkpt lat="42.389147" lon="-8.629943">
        <ele>43.882</ele>
        <time>2019-04-30T14:36:10Z</time>
      </trkpt>
      <trkpt lat="42.389188" lon="-8.629953">
        <ele>44.343</ele>
        <time>2019-04-30T14:36:11Z</time>
      </trkpt>
      <trkpt lat="42.389557" lon="-8.630003">
        <ele>45.817</ele>
        <time>2019-04-30T14:36:18Z</time>
      </trkpt>
      <trkpt lat="42.389614" lon="-8.630003">
        <ele>45.308</ele>
        <time>2019-04-30T14:36:19Z</time>
      </trkpt>
      <trkpt lat="42.390296" lon="-8.629894">
        <ele>42.931</ele>
        <time>2019-04-30T14:36:29Z</time>
      </trkpt>
      <trkpt lat="42.391161" lon="-8.629704">
        <ele>40.914</ele>
        <time>2019-04-30T14:36:40Z</time>
      </trkpt>
      <trkpt lat="42.391903" lon="-8.629878">
        <ele>38.170</ele>
        <time>2019-04-30T14:36:51Z</time>
      </trkpt>
      <trkpt lat="42.391968" lon="-8.629901">
        <ele>38.178</ele>
        <time>2019-04-30T14:36:52Z</time>
      </trkpt>
      <trkpt lat="42.392034" lon="-8.629905">
        <ele>37.646</ele>
        <time>2019-04-30T14:36:53Z</time>
      </trkpt>
      <trkpt lat="42.392101" lon="-8.629897">
        <ele>37.688</ele>
        <time>2019-04-30T14:36:54Z</time>
      </trkpt>
      <trkpt lat="42.392166" lon="-8.629886">
        <ele>37.678</ele>
        <time>2019-04-30T14:36:55Z</time>
      </trkpt>
      <trkpt lat="42.392230" lon="-8.629872">
        <ele>37.642</ele>
        <time>2019-04-30T14:36:56Z</time>
      </trkpt>
      <trkpt lat="42.392297" lon="-8.629848">
        <ele>37.645</ele>
        <time>2019-04-30T14:36:57Z</time>
      </trkpt>
      <trkpt lat="42.392930" lon="-8.629652">
        <ele>35.247</ele>
        <time>2019-04-30T14:37:08Z</time>
      </trkpt>
      <trkpt lat="42.393022" lon="-8.629641">
        <ele>34.711</ele>
        <time>2019-04-30T14:37:10Z</time>
      </trkpt>
      <trkpt lat="42.393072" lon="-8.629619">
        <ele>34.208</ele>
        <time>2019-04-30T14:37:11Z</time>
      </trkpt>
      <trkpt lat="42.393124" lon="-8.629596">
        <ele>33.767</ele>
        <time>2019-04-30T14:37:12Z</time>
      </trkpt>
      <trkpt lat="42.393961" lon="-8.629490">
        <ele>32.890</ele>
        <time>2019-04-30T14:37:27Z</time>
      </trkpt>
      <trkpt lat="42.394074" lon="-8.629478">
        <ele>32.886</ele>
        <time>2019-04-30T14:37:29Z</time>
      </trkpt>
      <trkpt lat="42.394476" lon="-8.629317">
        <ele>31.364</ele>
        <time>2019-04-30T14:37:36Z</time>
      </trkpt>
      <trkpt lat="42.394910" lon="-8.629025">
        <ele>32.322</ele>
        <time>2019-04-30T14:37:46Z</time>
      </trkpt>
      <trkpt lat="42.394922" lon="-8.629020">
        <ele>32.364</ele>
        <time>2019-04-30T14:37:47Z</time>
      </trkpt>
      <trkpt lat="42.394943" lon="-8.629004">
        <ele>32.354</ele>
        <time>2019-04-30T14:37:54Z</time>
      </trkpt>
      <trkpt lat="42.394975" lon="-8.628953">
        <ele>32.328</ele>
        <time>2019-04-30T14:37:57Z</time>
      </trkpt>
      <trkpt lat="42.395003" lon="-8.628939">
        <ele>32.355</ele>
        <time>2019-04-30T14:37:58Z</time>
      </trkpt>
      <trkpt lat="42.395037" lon="-8.628931">
        <ele>32.307</ele>
        <time>2019-04-30T14:37:59Z</time>
      </trkpt>
      <trkpt lat="42.395519" lon="-8.628827">
        <ele>33.717</ele>
        <time>2019-04-30T14:38:12Z</time>
      </trkpt>
      <trkpt lat="42.396153" lon="-8.628825">
        <ele>35.708</ele>
        <time>2019-04-30T14:38:28Z</time>
      </trkpt>
      <trkpt lat="42.396603" lon="-8.629434">
        <ele>36.688</ele>
        <time>2019-04-30T14:38:44Z</time>
      </trkpt>
      <trkpt lat="42.396891" lon="-8.629738">
        <ele>37.151</ele>
        <time>2019-04-30T14:38:58Z</time>
      </trkpt>
      <trkpt lat="42.396889" lon="-8.629750">
        <ele>38.147</ele>
        <time>2019-04-30T14:39:18Z</time>
      </trkpt>
      <trkpt lat="42.396914" lon="-8.629789">
        <ele>38.135</ele>
        <time>2019-04-30T14:39:27Z</time>
      </trkpt>
      <trkpt lat="42.396917" lon="-8.629817">
        <ele>38.573</ele>
        <time>2019-04-30T14:39:28Z</time>
      </trkpt>
      <trkpt lat="42.396915" lon="-8.629846">
        <ele>38.525</ele>
        <time>2019-04-30T14:39:29Z</time>
      </trkpt>
      <trkpt lat="42.396912" lon="-8.629869">
        <ele>38.115</ele>
        <time>2019-04-30T14:39:30Z</time>
      </trkpt>
      <trkpt lat="42.396909" lon="-8.629910">
        <ele>37.659</ele>
        <time>2019-04-30T14:39:42Z</time>
      </trkpt>
      <trkpt lat="42.396912" lon="-8.629929">
        <ele>37.161</ele>
        <time>2019-04-30T14:39:43Z</time>
      </trkpt>
      <trkpt lat="42.396916" lon="-8.629949">
        <ele>36.621</ele>
        <time>2019-04-30T14:39:44Z</time>
      </trkpt>
      <trkpt lat="42.396925" lon="-8.629974">
        <ele>36.113</ele>
        <time>2019-04-30T14:39:45Z</time>
      </trkpt>
      <trkpt lat="42.396937" lon="-8.630005">
        <ele>35.708</ele>
        <time>2019-04-30T14:39:46Z</time>
      </trkpt>
      <trkpt lat="42.396946" lon="-8.630038">
        <ele>35.259</ele>
        <time>2019-04-30T14:39:47Z</time>
      </trkpt>
      <trkpt lat="42.396957" lon="-8.630066">
        <ele>35.282</ele>
        <time>2019-04-30T14:39:48Z</time>
      </trkpt>
      <trkpt lat="42.396970" lon="-8.630095">
        <ele>35.278</ele>
        <time>2019-04-30T14:39:49Z</time>
      </trkpt>
      <trkpt lat="42.396982" lon="-8.630130">
        <ele>34.786</ele>
        <time>2019-04-30T14:39:50Z</time>
      </trkpt>
      <trkpt lat="42.396994" lon="-8.630166">
        <ele>34.724</ele>
        <time>2019-04-30T14:39:51Z</time>
      </trkpt>
      <trkpt lat="42.397005" lon="-8.630202">
        <ele>34.296</ele>
        <time>2019-04-30T14:39:52Z</time>
      </trkpt>
      <trkpt lat="42.397011" lon="-8.630238">
        <ele>33.716</ele>
        <time>2019-04-30T14:39:53Z</time>
      </trkpt>
      <trkpt lat="42.397018" lon="-8.630273">
        <ele>33.350</ele>
        <time>2019-04-30T14:39:54Z</time>
      </trkpt>
      <trkpt lat="42.397028" lon="-8.630313">
        <ele>32.856</ele>
        <time>2019-04-30T14:39:55Z</time>
      </trkpt>
      <trkpt lat="42.397151" lon="-8.631045">
        <ele>33.359</ele>
        <time>2019-04-30T14:40:09Z</time>
      </trkpt>
      <trkpt lat="42.397173" lon="-8.631109">
        <ele>33.714</ele>
        <time>2019-04-30T14:40:18Z</time>
      </trkpt>
      <trkpt lat="42.397184" lon="-8.631119">
        <ele>36.608</ele>
        <time>2019-04-30T14:40:45Z</time>
      </trkpt>
      <trkpt lat="42.397197" lon="-8.631140">
        <ele>36.658</ele>
        <time>2019-04-30T14:40:47Z</time>
      </trkpt>
      <trkpt lat="42.397205" lon="-8.631154">
        <ele>36.681</ele>
        <time>2019-04-30T14:40:48Z</time>
      </trkpt>
      <trkpt lat="42.397220" lon="-8.631173">
        <ele>37.147</ele>
        <time>2019-04-30T14:40:49Z</time>
      </trkpt>
      <trkpt lat="42.397235" lon="-8.631197">
        <ele>37.185</ele>
        <time>2019-04-30T14:40:50Z</time>
      </trkpt>
      <trkpt lat="42.397251" lon="-8.631224">
        <ele>37.123</ele>
        <time>2019-04-30T14:40:51Z</time>
      </trkpt>
      <trkpt lat="42.397365" lon="-8.631522">
        <ele>36.615</ele>
        <time>2019-04-30T14:40:58Z</time>
      </trkpt>
      <trkpt lat="42.397393" lon="-8.631571">
        <ele>36.155</ele>
        <time>2019-04-30T14:40:59Z</time>
      </trkpt>
      <trkpt lat="42.397432" lon="-8.631607">
        <ele>36.199</ele>
        <time>2019-04-30T14:41:00Z</time>
      </trkpt>
      <trkpt lat="42.397476" lon="-8.631627">
        <ele>35.722</ele>
        <time>2019-04-30T14:41:01Z</time>
      </trkpt>
      <trkpt lat="42.397518" lon="-8.631643">
        <ele>35.762</ele>
        <time>2019-04-30T14:41:02Z</time>
      </trkpt>
      <trkpt lat="42.397558" lon="-8.631669">
        <ele>35.208</ele>
        <time>2019-04-30T14:41:03Z</time>
      </trkpt>
      <trkpt lat="42.397596" lon="-8.631704">
        <ele>35.208</ele>
        <time>2019-04-30T14:41:04Z</time>
      </trkpt>
      <trkpt lat="42.397635" lon="-8.631751">
        <ele>35.255</ele>
        <time>2019-04-30T14:41:05Z</time>
      </trkpt>
      <trkpt lat="42.397674" lon="-8.631802">
        <ele>34.758</ele>
        <time>2019-04-30T14:41:06Z</time>
      </trkpt>
      <trkpt lat="42.397713" lon="-8.631855">
        <ele>34.734</ele>
        <time>2019-04-30T14:41:07Z</time>
      </trkpt>
      <trkpt lat="42.397801" lon="-8.631977">
        <ele>33.732</ele>
        <time>2019-04-30T14:41:09Z</time>
      </trkpt>
      <trkpt lat="42.397894" lon="-8.632126">
        <ele>32.850</ele>
        <time>2019-04-30T14:41:11Z</time>
      </trkpt>
      <trkpt lat="42.397944" lon="-8.632194">
        <ele>32.322</ele>
        <time>2019-04-30T14:41:12Z</time>
      </trkpt>
      <trkpt lat="42.397983" lon="-8.632258">
        <ele>31.392</ele>
        <time>2019-04-30T14:41:13Z</time>
      </trkpt>
      <trkpt lat="42.398016" lon="-8.632324">
        <ele>30.916</ele>
        <time>2019-04-30T14:41:14Z</time>
      </trkpt>
      <trkpt lat="42.398043" lon="-8.632394">
        <ele>30.428</ele>
        <time>2019-04-30T14:41:15Z</time>
      </trkpt>
      <trkpt lat="42.398062" lon="-8.632460">
        <ele>29.489</ele>
        <time>2019-04-30T14:41:16Z</time>
      </trkpt>
      <trkpt lat="42.398078" lon="-8.632526">
        <ele>28.917</ele>
        <time>2019-04-30T14:41:17Z</time>
      </trkpt>
      <trkpt lat="42.398088" lon="-8.632591">
        <ele>28.008</ele>
        <time>2019-04-30T14:41:18Z</time>
      </trkpt>
      <trkpt lat="42.398092" lon="-8.632656">
        <ele>27.525</ele>
        <time>2019-04-30T14:41:19Z</time>
      </trkpt>
      <trkpt lat="42.398094" lon="-8.632725">
        <ele>26.548</ele>
        <time>2019-04-30T14:41:20Z</time>
      </trkpt>
      <trkpt lat="42.398069" lon="-8.632898">
        <ele>26.034</ele>
        <time>2019-04-30T14:41:22Z</time>
      </trkpt>
      <trkpt lat="42.398040" lon="-8.633052">
        <ele>26.052</ele>
        <time>2019-04-30T14:41:25Z</time>
      </trkpt>
      <trkpt lat="42.398060" lon="-8.633075">
        <ele>26.560</ele>
        <time>2019-04-30T14:41:26Z</time>
      </trkpt>
      <trkpt lat="42.398132" lon="-8.633073">
        <ele>26.052</ele>
        <time>2019-04-30T14:41:29Z</time>
      </trkpt>
      <trkpt lat="42.398448" lon="-8.633085">
        <ele>24.612</ele>
        <time>2019-04-30T14:41:40Z</time>
      </trkpt>
      <trkpt lat="42.398465" lon="-8.633089">
        <ele>24.156</ele>
        <time>2019-04-30T14:41:41Z</time>
      </trkpt>
      <trkpt lat="42.398514" lon="-8.633112">
        <ele>22.774</ele>
        <time>2019-04-30T14:41:44Z</time>
      </trkpt>
      <trkpt lat="42.398709" lon="-8.633222">
        <ele>18.856</ele>
        <time>2019-04-30T14:41:53Z</time>
      </trkpt>
      <trkpt lat="42.398880" lon="-8.633492">
        <ele>17.921</ele>
        <time>2019-04-30T14:42:03Z</time>
      </trkpt>
      <trkpt lat="42.399070" lon="-8.633525">
        <ele>19.808</ele>
        <time>2019-04-30T14:42:09Z</time>
      </trkpt>
      <trkpt lat="42.399463" lon="-8.633919">
        <ele>21.210</ele>
        <time>2019-04-30T14:42:22Z</time>
      </trkpt>
      <trkpt lat="42.399593" lon="-8.634180">
        <ele>22.763</ele>
        <time>2019-04-30T14:42:27Z</time>
      </trkpt>
      <trkpt lat="42.399687" lon="-8.634383">
        <ele>23.639</ele>
        <time>2019-04-30T14:42:32Z</time>
      </trkpt>
      <trkpt lat="42.399898" lon="-8.634327">
        <ele>26.567</ele>
        <time>2019-04-30T14:42:41Z</time>
      </trkpt>
      <trkpt lat="42.400093" lon="-8.634199">
        <ele>27.035</ele>
        <time>2019-04-30T14:42:48Z</time>
      </trkpt>
      <trkpt lat="42.400373" lon="-8.634377">
        <ele>28.057</ele>
        <time>2019-04-30T14:42:55Z</time>
      </trkpt>
      <trkpt lat="42.400403" lon="-8.634457">
        <ele>28.597</ele>
        <time>2019-04-30T14:42:57Z</time>
      </trkpt>
      <trkpt lat="42.400509" lon="-8.634502">
        <ele>32.351</ele>
        <time>2019-04-30T14:43:06Z</time>
      </trkpt>
      <trkpt lat="42.400789" lon="-8.634383">
        <ele>36.628</ele>
        <time>2019-04-30T14:43:17Z</time>
      </trkpt>
      <trkpt lat="42.401096" lon="-8.634493">
        <ele>36.189</ele>
        <time>2019-04-30T14:43:23Z</time>
      </trkpt>
      <trkpt lat="42.401187" lon="-8.634536">
        <ele>36.617</ele>
        <time>2019-04-30T14:43:26Z</time>
      </trkpt>
      <trkpt lat="42.401427" lon="-8.634463">
        <ele>38.108</ele>
        <time>2019-04-30T14:43:33Z</time>
      </trkpt>
      <trkpt lat="42.401710" lon="-8.634725">
        <ele>37.195</ele>
        <time>2019-04-30T14:43:42Z</time>
      </trkpt>
      <trkpt lat="42.401903" lon="-8.634839">
        <ele>37.618</ele>
        <time>2019-04-30T14:43:52Z</time>
      </trkpt>
      <trkpt lat="42.401926" lon="-8.634841">
        <ele>38.174</ele>
        <time>2019-04-30T14:43:53Z</time>
      </trkpt>
      <trkpt lat="42.402035" lon="-8.634894">
        <ele>38.542</ele>
        <time>2019-04-30T14:43:57Z</time>
      </trkpt>
      <trkpt lat="42.402171" lon="-8.635291">
        <ele>39.070</ele>
        <time>2019-04-30T14:44:08Z</time>
      </trkpt>
      <trkpt lat="42.402204" lon="-8.635334">
        <ele>39.012</ele>
        <time>2019-04-30T14:44:10Z</time>
      </trkpt>
      <trkpt lat="42.402464" lon="-8.635329">
        <ele>39.082</ele>
        <time>2019-04-30T14:44:21Z</time>
      </trkpt>
      <trkpt lat="42.402806" lon="-8.635356">
        <ele>37.666</ele>
        <time>2019-04-30T14:44:29Z</time>
      </trkpt>
      <trkpt lat="42.403036" lon="-8.635771">
        <ele>30.414</ele>
        <time>2019-04-30T14:44:38Z</time>
      </trkpt>
      <trkpt lat="42.403269" lon="-8.635804">
        <ele>28.554</ele>
        <time>2019-04-30T14:44:44Z</time>
      </trkpt>
      <trkpt lat="42.403565" lon="-8.635684">
        <ele>28.009</ele>
        <time>2019-04-30T14:44:52Z</time>
      </trkpt>
      <trkpt lat="42.403870" lon="-8.635277">
        <ele>27.008</ele>
        <time>2019-04-30T14:45:03Z</time>
      </trkpt>
      <trkpt lat="42.403992" lon="-8.635368">
        <ele>25.624</ele>
        <time>2019-04-30T14:45:11Z</time>
      </trkpt>
      <trkpt lat="42.404134" lon="-8.635605">
        <ele>24.677</ele>
        <time>2019-04-30T14:45:17Z</time>
      </trkpt>
      <trkpt lat="42.404308" lon="-8.635568">
        <ele>23.253</ele>
        <time>2019-04-30T14:45:22Z</time>
      </trkpt>
      <trkpt lat="42.404378" lon="-8.635333">
        <ele>25.111</ele>
        <time>2019-04-30T14:45:30Z</time>
      </trkpt>
      <trkpt lat="42.404548" lon="-8.635215">
        <ele>24.629</ele>
        <time>2019-04-30T14:45:38Z</time>
      </trkpt>
      <trkpt lat="42.404559" lon="-8.635368">
        <ele>23.621</ele>
        <time>2019-04-30T14:45:45Z</time>
      </trkpt>
      <trkpt lat="42.404721" lon="-8.635528">
        <ele>23.631</ele>
        <time>2019-04-30T14:45:51Z</time>
      </trkpt>
      <trkpt lat="42.404853" lon="-8.635777">
        <ele>24.115</ele>
        <time>2019-04-30T14:45:58Z</time>
      </trkpt>
      <trkpt lat="42.405013" lon="-8.635999">
        <ele>24.654</ele>
        <time>2019-04-30T14:46:05Z</time>
      </trkpt>
      <trkpt lat="42.404898" lon="-8.636071">
        <ele>24.656</ele>
        <time>2019-04-30T14:46:09Z</time>
      </trkpt>
      <trkpt lat="42.404844" lon="-8.636059">
        <ele>25.111</ele>
        <time>2019-04-30T14:46:11Z</time>
      </trkpt>
      <trkpt lat="42.404819" lon="-8.636242">
        <ele>26.508</ele>
        <time>2019-04-30T14:46:17Z</time>
      </trkpt>
      <trkpt lat="42.405093" lon="-8.636521">
        <ele>28.018</ele>
        <time>2019-04-30T14:46:28Z</time>
      </trkpt>
      <trkpt lat="42.405207" lon="-8.636550">
        <ele>28.971</ele>
        <time>2019-04-30T14:46:31Z</time>
      </trkpt>
      <trkpt lat="42.405302" lon="-8.636488">
        <ele>29.427</ele>
        <time>2019-04-30T14:46:35Z</time>
      </trkpt>
      <trkpt lat="42.405329" lon="-8.636459">
        <ele>28.935</ele>
        <time>2019-04-30T14:46:37Z</time>
      </trkpt>
      <trkpt lat="42.405513" lon="-8.636609">
        <ele>27.013</ele>
        <time>2019-04-30T14:46:46Z</time>
      </trkpt>
      <trkpt lat="42.405629" lon="-8.636624">
        <ele>27.535</ele>
        <time>2019-04-30T14:46:49Z</time>
      </trkpt>
      <trkpt lat="42.405940" lon="-8.636662">
        <ele>26.565</ele>
        <time>2019-04-30T14:46:56Z</time>
      </trkpt>
      <trkpt lat="42.406183" lon="-8.636569">
        <ele>26.589</ele>
        <time>2019-04-30T14:47:02Z</time>
      </trkpt>
      <trkpt lat="42.406212" lon="-8.636510">
        <ele>26.042</ele>
        <time>2019-04-30T14:47:03Z</time>
      </trkpt>
      <trkpt lat="42.406231" lon="-8.636443">
        <ele>25.622</ele>
        <time>2019-04-30T14:47:04Z</time>
      </trkpt>
      <trkpt lat="42.406237" lon="-8.636376">
        <ele>25.614</ele>
        <time>2019-04-30T14:47:05Z</time>
      </trkpt>
      <trkpt lat="42.406232" lon="-8.636310">
        <ele>25.608</ele>
        <time>2019-04-30T14:47:06Z</time>
      </trkpt>
      <trkpt lat="42.406237" lon="-8.636250">
        <ele>25.117</ele>
        <time>2019-04-30T14:47:07Z</time>
      </trkpt>
      <trkpt lat="42.406255" lon="-8.636194">
        <ele>25.120</ele>
        <time>2019-04-30T14:47:08Z</time>
      </trkpt>
      <trkpt lat="42.406322" lon="-8.636064">
        <ele>25.126</ele>
        <time>2019-04-30T14:47:11Z</time>
      </trkpt>
      <trkpt lat="42.406368" lon="-8.636059">
        <ele>25.184</ele>
        <time>2019-04-30T14:47:12Z</time>
      </trkpt>
      <trkpt lat="42.406418" lon="-8.636069">
        <ele>25.192</ele>
        <time>2019-04-30T14:47:13Z</time>
      </trkpt>
      <trkpt lat="42.406463" lon="-8.636090">
        <ele>25.614</ele>
        <time>2019-04-30T14:47:14Z</time>
      </trkpt>
      <trkpt lat="42.406503" lon="-8.636112">
        <ele>25.624</ele>
        <time>2019-04-30T14:47:15Z</time>
      </trkpt>
      <trkpt lat="42.406531" lon="-8.636129">
        <ele>25.688</ele>
        <time>2019-04-30T14:47:16Z</time>
      </trkpt>
      <trkpt lat="42.406548" lon="-8.636154">
        <ele>25.664</ele>
        <time>2019-04-30T14:47:17Z</time>
      </trkpt>
      <trkpt lat="42.406561" lon="-8.636182">
        <ele>25.106</ele>
        <time>2019-04-30T14:47:18Z</time>
      </trkpt>
      <trkpt lat="42.406588" lon="-8.636200">
        <ele>25.116</ele>
        <time>2019-04-30T14:47:31Z</time>
      </trkpt>
      <trkpt lat="42.406603" lon="-8.636229">
        <ele>24.608</ele>
        <time>2019-04-30T14:48:05Z</time>
      </trkpt>
      <trkpt lat="42.406705" lon="-8.636354">
        <ele>22.249</ele>
        <time>2019-04-30T14:48:13Z</time>
      </trkpt>
      <trkpt lat="42.406768" lon="-8.636395">
        <ele>21.222</ele>
        <time>2019-04-30T14:48:16Z</time>
      </trkpt>
      <trkpt lat="42.406846" lon="-8.636386">
        <ele>21.278</ele>
        <time>2019-04-30T14:48:18Z</time>
      </trkpt>
      <trkpt lat="42.406936" lon="-8.636380">
        <ele>21.286</ele>
        <time>2019-04-30T14:48:20Z</time>
      </trkpt>
      <trkpt lat="42.406970" lon="-8.636399">
        <ele>21.254</ele>
        <time>2019-04-30T14:48:21Z</time>
      </trkpt>
      <trkpt lat="42.406984" lon="-8.636440">
        <ele>20.866</ele>
        <time>2019-04-30T14:48:22Z</time>
      </trkpt>
      <trkpt lat="42.406993" lon="-8.636495">
        <ele>20.836</ele>
        <time>2019-04-30T14:48:23Z</time>
      </trkpt>
      <trkpt lat="42.407007" lon="-8.636558">
        <ele>20.330</ele>
        <time>2019-04-30T14:48:24Z</time>
      </trkpt>
      <trkpt lat="42.407030" lon="-8.636611">
        <ele>20.383</ele>
        <time>2019-04-30T14:48:25Z</time>
      </trkpt>
      <trkpt lat="42.407067" lon="-8.636646">
        <ele>19.825</ele>
        <time>2019-04-30T14:48:26Z</time>
      </trkpt>
      <trkpt lat="42.407344" lon="-8.636699">
        <ele>19.317</ele>
        <time>2019-04-30T14:48:32Z</time>
      </trkpt>
      <trkpt lat="42.407400" lon="-8.636614">
        <ele>19.808</ele>
        <time>2019-04-30T14:48:35Z</time>
      </trkpt>
      <trkpt lat="42.407422" lon="-8.636566">
        <ele>19.811</ele>
        <time>2019-04-30T14:48:37Z</time>
      </trkpt>
      <trkpt lat="42.407722" lon="-8.636487">
        <ele>21.744</ele>
        <time>2019-04-30T14:48:47Z</time>
      </trkpt>
      <trkpt lat="42.407923" lon="-8.636243">
        <ele>22.220</ele>
        <time>2019-04-30T14:48:54Z</time>
      </trkpt>
      <trkpt lat="42.407746" lon="-8.635951">
        <ele>24.618</ele>
        <time>2019-04-30T14:49:01Z</time>
      </trkpt>
      <trkpt lat="42.407734" lon="-8.635825">
        <ele>24.616</ele>
        <time>2019-04-30T14:49:04Z</time>
      </trkpt>
      <trkpt lat="42.407652" lon="-8.635669">
        <ele>26.068</ele>
        <time>2019-04-30T14:49:08Z</time>
      </trkpt>
      <trkpt lat="42.407659" lon="-8.635508">
        <ele>28.058</ele>
        <time>2019-04-30T14:49:12Z</time>
      </trkpt>
      <trkpt lat="42.407840" lon="-8.635423">
        <ele>29.972</ele>
        <time>2019-04-30T14:49:19Z</time>
      </trkpt>
      <trkpt lat="42.407984" lon="-8.635707">
        <ele>31.887</ele>
        <time>2019-04-30T14:49:26Z</time>
      </trkpt>
      <trkpt lat="42.408173" lon="-8.635880">
        <ele>32.342</ele>
        <time>2019-04-30T14:49:30Z</time>
      </trkpt>
      <trkpt lat="42.408324" lon="-8.636034">
        <ele>31.826</ele>
        <time>2019-04-30T14:49:34Z</time>
      </trkpt>
      <trkpt lat="42.408549" lon="-8.635842">
        <ele>31.808</ele>
        <time>2019-04-30T14:49:42Z</time>
      </trkpt>
      <trkpt lat="42.408641" lon="-8.635631">
        <ele>32.381</ele>
        <time>2019-04-30T14:49:47Z</time>
      </trkpt>
      <trkpt lat="42.409010" lon="-8.635721">
        <ele>32.354</ele>
        <time>2019-04-30T14:49:59Z</time>
      </trkpt>
      <trkpt lat="42.409206" lon="-8.635749">
        <ele>30.410</ele>
        <time>2019-04-30T14:50:02Z</time>
      </trkpt>
      <trkpt lat="42.409526" lon="-8.635763">
        <ele>30.958</ele>
        <time>2019-04-30T14:50:08Z</time>
      </trkpt>
      <trkpt lat="42.409614" lon="-8.635796">
        <ele>30.936</ele>
        <time>2019-04-30T14:50:10Z</time>
      </trkpt>
      <trkpt lat="42.409836" lon="-8.635904">
        <ele>32.828</ele>
        <time>2019-04-30T14:50:16Z</time>
      </trkpt>
      <trkpt lat="42.410146" lon="-8.636060">
        <ele>38.518</ele>
        <time>2019-04-30T14:50:26Z</time>
      </trkpt>
      <trkpt lat="42.410229" lon="-8.635841">
        <ele>39.072</ele>
        <time>2019-04-30T14:50:35Z</time>
      </trkpt>
      <trkpt lat="42.410424" lon="-8.635898">
        <ele>39.591</ele>
        <time>2019-04-30T14:50:41Z</time>
      </trkpt>
      <trkpt lat="42.410457" lon="-8.636127">
        <ele>40.081</ele>
        <time>2019-04-30T14:50:48Z</time>
      </trkpt>
      <trkpt lat="42.410522" lon="-8.636452">
        <ele>39.019</ele>
        <time>2019-04-30T14:50:57Z</time>
      </trkpt>
      <trkpt lat="42.410731" lon="-8.636484">
        <ele>38.108</ele>
        <time>2019-04-30T14:51:09Z</time>
      </trkpt>
      <trkpt lat="42.410789" lon="-8.636492">
        <ele>37.152</ele>
        <time>2019-04-30T14:51:11Z</time>
      </trkpt>
      <trkpt lat="42.410965" lon="-8.636612">
        <ele>36.645</ele>
        <time>2019-04-30T14:51:18Z</time>
      </trkpt>
      <trkpt lat="42.411039" lon="-8.636645">
        <ele>35.241</ele>
        <time>2019-04-30T14:51:21Z</time>
      </trkpt>
      <trkpt lat="42.411177" lon="-8.636537">
        <ele>32.849</ele>
        <time>2019-04-30T14:51:29Z</time>
      </trkpt>
      <trkpt lat="42.411300" lon="-8.636550">
        <ele>30.457</ele>
        <time>2019-04-30T14:51:34Z</time>
      </trkpt>
      <trkpt lat="42.411438" lon="-8.636715">
        <ele>29.939</ele>
        <time>2019-04-30T14:51:40Z</time>
      </trkpt>
      <trkpt lat="42.411594" lon="-8.636870">
        <ele>29.429</ele>
        <time>2019-04-30T14:51:45Z</time>
      </trkpt>
      <trkpt lat="42.411656" lon="-8.636859">
        <ele>28.913</ele>
        <time>2019-04-30T14:51:50Z</time>
      </trkpt>
      <trkpt lat="42.411688" lon="-8.636819">
        <ele>28.548</ele>
        <time>2019-04-30T14:51:53Z</time>
      </trkpt>
      <trkpt lat="42.411857" lon="-8.636711">
        <ele>27.561</ele>
        <time>2019-04-30T14:52:01Z</time>
      </trkpt>
      <trkpt lat="42.412029" lon="-8.636289">
        <ele>28.017</ele>
        <time>2019-04-30T14:52:08Z</time>
      </trkpt>
      <trkpt lat="42.412272" lon="-8.636450">
        <ele>27.508</ele>
        <time>2019-04-30T14:52:18Z</time>
      </trkpt>
      <trkpt lat="42.412344" lon="-8.636637">
        <ele>24.627</ele>
        <time>2019-04-30T14:52:29Z</time>
      </trkpt>
      <trkpt lat="42.412375" lon="-8.636642">
        <ele>23.680</ele>
        <time>2019-04-30T14:52:55Z</time>
      </trkpt>
      <trkpt lat="42.412383" lon="-8.636637">
        <ele>21.716</ele>
        <time>2019-04-30T14:53:19Z</time>
      </trkpt>
      <trkpt lat="42.412389" lon="-8.636641">
        <ele>21.734</ele>
        <time>2019-04-30T14:53:25Z</time>
      </trkpt>
      <trkpt lat="42.412439" lon="-8.636612">
        <ele>22.712</ele>
        <time>2019-04-30T14:53:29Z</time>
      </trkpt>
      <trkpt lat="42.412532" lon="-8.636474">
        <ele>22.244</ele>
        <time>2019-04-30T14:53:36Z</time>
      </trkpt>
      <trkpt lat="42.412639" lon="-8.636350">
        <ele>22.264</ele>
        <time>2019-04-30T14:53:40Z</time>
      </trkpt>
      <trkpt lat="42.412822" lon="-8.635923">
        <ele>22.218</ele>
        <time>2019-04-30T14:53:47Z</time>
      </trkpt>
      <trkpt lat="42.412906" lon="-8.635717">
        <ele>22.733</ele>
        <time>2019-04-30T14:53:51Z</time>
      </trkpt>
      <trkpt lat="42.413006" lon="-8.635506">
        <ele>23.223</ele>
        <time>2019-04-30T14:53:57Z</time>
      </trkpt>
      <trkpt lat="42.413048" lon="-8.635426">
        <ele>23.615</ele>
        <time>2019-04-30T14:53:59Z</time>
      </trkpt>
      <trkpt lat="42.413062" lon="-8.635350">
        <ele>24.108</ele>
        <time>2019-04-30T14:54:01Z</time>
      </trkpt>
      <trkpt lat="42.413298" lon="-8.635127">
        <ele>22.716</ele>
        <time>2019-04-30T14:54:05Z</time>
      </trkpt>
      <trkpt lat="42.413395" lon="-8.635118">
        <ele>22.799</ele>
        <time>2019-04-30T14:54:07Z</time>
      </trkpt>
      <trkpt lat="42.413572" lon="-8.635076">
        <ele>22.745</ele>
        <time>2019-04-30T14:54:10Z</time>
      </trkpt>
      <trkpt lat="42.413672" lon="-8.635033">
        <ele>23.273</ele>
        <time>2019-04-30T14:54:12Z</time>
      </trkpt>
      <trkpt lat="42.413766" lon="-8.634966">
        <ele>23.221</ele>
        <time>2019-04-30T14:54:14Z</time>
      </trkpt>
      <trkpt lat="42.413815" lon="-8.634924">
        <ele>23.253</ele>
        <time>2019-04-30T14:54:15Z</time>
      </trkpt>
      <trkpt lat="42.413911" lon="-8.634832">
        <ele>22.783</ele>
        <time>2019-04-30T14:54:17Z</time>
      </trkpt>
      <trkpt lat="42.414116" lon="-8.634798">
        <ele>22.727</ele>
        <time>2019-04-30T14:54:21Z</time>
      </trkpt>
      <trkpt lat="42.414215" lon="-8.634850">
        <ele>23.295</ele>
        <time>2019-04-30T14:54:23Z</time>
      </trkpt>
      <trkpt lat="42.414259" lon="-8.634891">
        <ele>23.249</ele>
        <time>2019-04-30T14:54:24Z</time>
      </trkpt>
      <trkpt lat="42.414388" lon="-8.635008">
        <ele>22.723</ele>
        <time>2019-04-30T14:54:27Z</time>
      </trkpt>
      <trkpt lat="42.414436" lon="-8.635035">
        <ele>22.708</ele>
        <time>2019-04-30T14:54:28Z</time>
      </trkpt>
      <trkpt lat="42.414530" lon="-8.635081">
        <ele>23.262</ele>
        <time>2019-04-30T14:54:30Z</time>
      </trkpt>
      <trkpt lat="42.414570" lon="-8.635118">
        <ele>23.225</ele>
        <time>2019-04-30T14:54:31Z</time>
      </trkpt>
      <trkpt lat="42.414607" lon="-8.635165">
        <ele>22.791</ele>
        <time>2019-04-30T14:54:32Z</time>
      </trkpt>
      <trkpt lat="42.414861" lon="-8.635308">
        <ele>22.769</ele>
        <time>2019-04-30T14:54:37Z</time>
      </trkpt>
      <trkpt lat="42.415185" lon="-8.635505">
        <ele>25.137</ele>
        <time>2019-04-30T14:54:44Z</time>
      </trkpt>
      <trkpt lat="42.415313" lon="-8.635539">
        <ele>25.629</ele>
        <time>2019-04-30T14:54:47Z</time>
      </trkpt>
      <trkpt lat="42.415473" lon="-8.635452">
        <ele>24.629</ele>
        <time>2019-04-30T14:54:51Z</time>
      </trkpt>
      <trkpt lat="42.415640" lon="-8.635209">
        <ele>22.723</ele>
        <time>2019-04-30T14:54:56Z</time>
      </trkpt>
      <trkpt lat="42.415817" lon="-8.635129">
        <ele>22.793</ele>
        <time>2019-04-30T14:55:00Z</time>
      </trkpt>
      <trkpt lat="42.416127" lon="-8.635275">
        <ele>22.765</ele>
        <time>2019-04-30T14:55:08Z</time>
      </trkpt>
      <trkpt lat="42.416225" lon="-8.635287">
        <ele>22.721</ele>
        <time>2019-04-30T14:55:10Z</time>
      </trkpt>
      <trkpt lat="42.416268" lon="-8.635256">
        <ele>22.708</ele>
        <time>2019-04-30T14:55:11Z</time>
      </trkpt>
      <trkpt lat="42.416310" lon="-8.635213">
        <ele>22.712</ele>
        <time>2019-04-30T14:55:12Z</time>
      </trkpt>
      <trkpt lat="42.416352" lon="-8.635168">
        <ele>22.775</ele>
        <time>2019-04-30T14:55:13Z</time>
      </trkpt>
      <trkpt lat="42.416389" lon="-8.635117">
        <ele>22.731</ele>
        <time>2019-04-30T14:55:14Z</time>
      </trkpt>
      <trkpt lat="42.416413" lon="-8.635060">
        <ele>22.249</ele>
        <time>2019-04-30T14:55:15Z</time>
      </trkpt>
      <trkpt lat="42.416487" lon="-8.634895">
        <ele>22.717</ele>
        <time>2019-04-30T14:55:22Z</time>
      </trkpt>
      <trkpt lat="42.416482" lon="-8.634904">
        <ele>22.759</ele>
        <time>2019-04-30T14:55:23Z</time>
      </trkpt>
      <trkpt lat="42.416528" lon="-8.634973">
        <ele>24.129</ele>
        <time>2019-04-30T14:55:29Z</time>
      </trkpt>
      <trkpt lat="42.416690" lon="-8.634995">
        <ele>26.063</ele>
        <time>2019-04-30T14:55:32Z</time>
      </trkpt>
      <trkpt lat="42.416761" lon="-8.634994">
        <ele>27.034</ele>
        <time>2019-04-30T14:55:33Z</time>
      </trkpt>
      <trkpt lat="42.416822" lon="-8.634999">
        <ele>26.555</ele>
        <time>2019-04-30T14:55:34Z</time>
      </trkpt>
      <trkpt lat="42.416879" lon="-8.634997">
        <ele>26.510</ele>
        <time>2019-04-30T14:55:35Z</time>
      </trkpt>
      <trkpt lat="42.416931" lon="-8.634987">
        <ele>26.508</ele>
        <time>2019-04-30T14:55:36Z</time>
      </trkpt>
      <trkpt lat="42.416972" lon="-8.634952">
        <ele>26.036</ele>
        <time>2019-04-30T14:55:37Z</time>
      </trkpt>
      <trkpt lat="42.416990" lon="-8.634895">
        <ele>26.099</ele>
        <time>2019-04-30T14:55:38Z</time>
      </trkpt>
      <trkpt lat="42.417000" lon="-8.634830">
        <ele>25.645</ele>
        <time>2019-04-30T14:55:39Z</time>
      </trkpt>
      <trkpt lat="42.417014" lon="-8.634765">
        <ele>25.693</ele>
        <time>2019-04-30T14:55:40Z</time>
      </trkpt>
      <trkpt lat="42.417042" lon="-8.634715">
        <ele>25.641</ele>
        <time>2019-04-30T14:55:41Z</time>
      </trkpt>
      <trkpt lat="42.417085" lon="-8.634691">
        <ele>25.623</ele>
        <time>2019-04-30T14:55:42Z</time>
      </trkpt>
      <trkpt lat="42.417184" lon="-8.634701">
        <ele>25.673</ele>
        <time>2019-04-30T14:55:44Z</time>
      </trkpt>
      <trkpt lat="42.417269" lon="-8.634729">
        <ele>25.667</ele>
        <time>2019-04-30T14:55:46Z</time>
      </trkpt>
      <trkpt lat="42.417460" lon="-8.634923">
        <ele>24.624</ele>
        <time>2019-04-30T14:55:52Z</time>
      </trkpt>
      <trkpt lat="42.417573" lon="-8.635086">
        <ele>24.104</ele>
        <time>2019-04-30T14:55:55Z</time>
      </trkpt>
      <trkpt lat="42.417631" lon="-8.635404">
        <ele>25.614</ele>
        <time>2019-04-30T14:56:01Z</time>
      </trkpt>
      <trkpt lat="42.417634" lon="-8.635519">
        <ele>25.608</ele>
        <time>2019-04-30T14:56:03Z</time>
      </trkpt>
      <trkpt lat="42.417673" lon="-8.635634">
        <ele>26.035</ele>
        <time>2019-04-30T14:56:05Z</time>
      </trkpt>
      <trkpt lat="42.417840" lon="-8.635838">
        <ele>27.548</ele>
        <time>2019-04-30T14:56:10Z</time>
      </trkpt>
      <trkpt lat="42.417864" lon="-8.636057">
        <ele>31.844</ele>
        <time>2019-04-30T14:56:17Z</time>
      </trkpt>
      <trkpt lat="42.417953" lon="-8.636162">
        <ele>34.222</ele>
        <time>2019-04-30T14:56:21Z</time>
      </trkpt>
      <trkpt lat="42.418152" lon="-8.636252">
        <ele>38.150</ele>
        <time>2019-04-30T14:56:31Z</time>
      </trkpt>
      <trkpt lat="42.418166" lon="-8.636356">
        <ele>37.122</ele>
        <time>2019-04-30T14:56:51Z</time>
      </trkpt>
      <trkpt lat="42.418154" lon="-8.636378">
        <ele>36.192</ele>
        <time>2019-04-30T14:57:10Z</time>
      </trkpt>
      <trkpt lat="42.418288" lon="-8.636401">
        <ele>33.396</ele>
        <time>2019-04-30T14:57:22Z</time>
      </trkpt>
      <trkpt lat="42.418306" lon="-8.636395">
        <ele>32.812</ele>
        <time>2019-04-30T14:57:23Z</time>
      </trkpt>
      <trkpt lat="42.418563" lon="-8.636215">
        <ele>30.932</ele>
        <time>2019-04-30T14:57:34Z</time>
      </trkpt>
      <trkpt lat="42.418643" lon="-8.636181">
        <ele>27.005</ele>
        <time>2019-04-30T14:57:48Z</time>
      </trkpt>
      <trkpt lat="42.418756" lon="-8.636158">
        <ele>25.108</ele>
        <time>2019-04-30T14:57:54Z</time>
      </trkpt>
      <trkpt lat="42.419009" lon="-8.636203">
        <ele>25.194</ele>
        <time>2019-04-30T14:58:00Z</time>
      </trkpt>
      <trkpt lat="42.419051" lon="-8.636220">
        <ele>25.647</ele>
        <time>2019-04-30T14:58:01Z</time>
      </trkpt>
      <trkpt lat="42.419313" lon="-8.636376">
        <ele>26.563</ele>
        <time>2019-04-30T14:58:07Z</time>
      </trkpt>
      <trkpt lat="42.419815" lon="-8.636504">
        <ele>27.071</ele>
        <time>2019-04-30T14:58:21Z</time>
      </trkpt>
      <trkpt lat="42.420214" lon="-8.636518">
        <ele>27.579</ele>
        <time>2019-04-30T14:58:33Z</time>
      </trkpt>
      <trkpt lat="42.420748" lon="-8.636471">
        <ele>29.941</ele>
        <time>2019-04-30T14:58:48Z</time>
      </trkpt>
      <trkpt lat="42.421082" lon="-8.636450">
        <ele>28.591</ele>
        <time>2019-04-30T14:59:00Z</time>
      </trkpt>
      <trkpt lat="42.421098" lon="-8.636450">
        <ele>27.575</ele>
        <time>2019-04-30T14:59:13Z</time>
      </trkpt>
      <trkpt lat="42.421134" lon="-8.636446">
        <ele>27.047</ele>
        <time>2019-04-30T14:59:36Z</time>
      </trkpt>
      <trkpt lat="42.421220" lon="-8.636429">
        <ele>27.029</ele>
        <time>2019-04-30T14:59:43Z</time>
      </trkpt>
      <trkpt lat="42.421238" lon="-8.636433">
        <ele>27.021</ele>
        <time>2019-04-30T14:59:44Z</time>
      </trkpt>
      <trkpt lat="42.421421" lon="-8.636427">
        <ele>27.508</ele>
        <time>2019-04-30T14:59:53Z</time>
      </trkpt>
      <trkpt lat="42.421447" lon="-8.636442">
        <ele>28.097</ele>
        <time>2019-04-30T15:00:07Z</time>
      </trkpt>
      <trkpt lat="42.421448" lon="-8.636441">
        <ele>28.050</ele>
        <time>2019-04-30T15:00:08Z</time>
      </trkpt>
      <trkpt lat="42.421568" lon="-8.636398">
        <ele>26.586</ele>
        <time>2019-04-30T15:00:15Z</time>
      </trkpt>
      <trkpt lat="42.421621" lon="-8.636350">
        <ele>27.054</ele>
        <time>2019-04-30T15:00:17Z</time>
      </trkpt>
      <trkpt lat="42.421654" lon="-8.636348">
        <ele>27.562</ele>
        <time>2019-04-30T15:00:18Z</time>
      </trkpt>
      <trkpt lat="42.421689" lon="-8.636360">
        <ele>27.544</ele>
        <time>2019-04-30T15:00:19Z</time>
      </trkpt>
      <trkpt lat="42.421728" lon="-8.636381">
        <ele>27.524</ele>
        <time>2019-04-30T15:00:20Z</time>
      </trkpt>
      <trkpt lat="42.421768" lon="-8.636404">
        <ele>27.518</ele>
        <time>2019-04-30T15:00:21Z</time>
      </trkpt>
      <trkpt lat="42.422181" lon="-8.636405">
        <ele>30.487</ele>
        <time>2019-04-30T15:00:32Z</time>
      </trkpt>
      <trkpt lat="42.422539" lon="-8.636416">
        <ele>34.742</ele>
        <time>2019-04-30T15:00:42Z</time>
      </trkpt>
      <trkpt lat="42.422849" lon="-8.636417">
        <ele>40.926</ele>
        <time>2019-04-30T15:00:52Z</time>
      </trkpt>
      <trkpt lat="42.423231" lon="-8.636416">
        <ele>45.808</ele>
        <time>2019-04-30T15:01:03Z</time>
      </trkpt>
      <trkpt lat="42.423658" lon="-8.636404">
        <ele>49.151</ele>
        <time>2019-04-30T15:01:15Z</time>
      </trkpt>
      <trkpt lat="42.424105" lon="-8.636340">
        <ele>50.144</ele>
        <time>2019-04-30T15:01:28Z</time>
      </trkpt>
      <trkpt lat="42.424491" lon="-8.636420">
        <ele>50.110</ele>
        <time>2019-04-30T15:01:38Z</time>
      </trkpt>
      <trkpt lat="42.424668" lon="-8.636503">
        <ele>48.648</ele>
        <time>2019-04-30T15:01:42Z</time>
      </trkpt>
      <trkpt lat="42.424748" lon="-8.636589">
        <ele>47.216</ele>
        <time>2019-04-30T15:01:44Z</time>
      </trkpt>
      <trkpt lat="42.424920" lon="-8.636711">
        <ele>45.358</ele>
        <time>2019-04-30T15:01:48Z</time>
      </trkpt>
      <trkpt lat="42.425253" lon="-8.636936">
        <ele>41.448</ele>
        <time>2019-04-30T15:01:57Z</time>
      </trkpt>
      <trkpt lat="42.425432" lon="-8.636982">
        <ele>39.012</ele>
        <time>2019-04-30T15:02:01Z</time>
      </trkpt>
      <trkpt lat="42.425604" lon="-8.637073">
        <ele>38.543</ele>
        <time>2019-04-30T15:02:05Z</time>
      </trkpt>
      <trkpt lat="42.425874" lon="-8.637253">
        <ele>35.264</ele>
        <time>2019-04-30T15:02:12Z</time>
      </trkpt>
      <trkpt lat="42.426077" lon="-8.637461">
        <ele>33.310</ele>
        <time>2019-04-30T15:02:18Z</time>
      </trkpt>
      <trkpt lat="42.426255" lon="-8.637506">
        <ele>31.808</ele>
        <time>2019-04-30T15:02:23Z</time>
      </trkpt>
      <trkpt lat="42.426376" lon="-8.637628">
        <ele>31.867</ele>
        <time>2019-04-30T15:02:27Z</time>
      </trkpt>
      <trkpt lat="42.426421" lon="-8.637834">
        <ele>30.980</ele>
        <time>2019-04-30T15:02:31Z</time>
      </trkpt>
      <trkpt lat="42.426576" lon="-8.638195">
        <ele>28.536</ele>
        <time>2019-04-30T15:02:39Z</time>
      </trkpt>
      <trkpt lat="42.426994" lon="-8.638694">
        <ele>28.074</ele>
        <time>2019-04-30T15:02:53Z</time>
      </trkpt>
      <trkpt lat="42.427025" lon="-8.638747">
        <ele>28.042</ele>
        <time>2019-04-30T15:03:00Z</time>
      </trkpt>
      <trkpt lat="42.427045" lon="-8.638777">
        <ele>28.544</ele>
        <time>2019-04-30T15:03:04Z</time>
      </trkpt>
      <trkpt lat="42.427051" lon="-8.638807">
        <ele>28.074</ele>
        <time>2019-04-30T15:03:06Z</time>
      </trkpt>
      <trkpt lat="42.427192" lon="-8.639027">
        <ele>28.018</ele>
        <time>2019-04-30T15:03:15Z</time>
      </trkpt>
      <trkpt lat="42.427207" lon="-8.639081">
        <ele>28.064</ele>
        <time>2019-04-30T15:03:17Z</time>
      </trkpt>
      <trkpt lat="42.427227" lon="-8.639147">
        <ele>28.006</ele>
        <time>2019-04-30T15:03:19Z</time>
      </trkpt>
      <trkpt lat="42.427282" lon="-8.639292">
        <ele>28.516</ele>
        <time>2019-04-30T15:03:24Z</time>
      </trkpt>
      <trkpt lat="42.427280" lon="-8.639373">
        <ele>29.408</ele>
        <time>2019-04-30T15:03:29Z</time>
      </trkpt>
      <trkpt lat="42.427355" lon="-8.639644">
        <ele>29.999</ele>
        <time>2019-04-30T15:03:39Z</time>
      </trkpt>
      <trkpt lat="42.427377" lon="-8.639715">
        <ele>30.482</ele>
        <time>2019-04-30T15:03:42Z</time>
      </trkpt>
      <trkpt lat="42.427407" lon="-8.639787">
        <ele>30.438</ele>
        <time>2019-04-30T15:03:45Z</time>
      </trkpt>
      <trkpt lat="42.427492" lon="-8.639960">
        <ele>31.896</ele>
        <time>2019-04-30T15:03:54Z</time>
      </trkpt>
      <trkpt lat="42.427530" lon="-8.639989">
        <ele>31.864</ele>
        <time>2019-04-30T15:04:11Z</time>
      </trkpt>
      <trkpt lat="42.427630" lon="-8.640157">
        <ele>30.996</ele>
        <time>2019-04-30T15:04:23Z</time>
      </trkpt>
      <trkpt lat="42.427750" lon="-8.640380">
        <ele>29.926</ele>
        <time>2019-04-30T15:04:33Z</time>
      </trkpt>
      <trkpt lat="42.427855" lon="-8.640333">
        <ele>28.010</ele>
        <time>2019-04-30T15:04:43Z</time>
      </trkpt>
      <trkpt lat="42.427917" lon="-8.640282">
        <ele>29.469</ele>
        <time>2019-04-30T15:04:58Z</time>
      </trkpt>
      <trkpt lat="42.427964" lon="-8.640273">
        <ele>31.304</ele>
        <time>2019-04-30T15:05:24Z</time>
      </trkpt>
      <trkpt lat="42.427985" lon="-8.640247">
        <ele>30.924</ele>
        <time>2019-04-30T15:06:00Z</time>
      </trkpt>
      <trkpt lat="42.427990" lon="-8.640239">
        <ele>30.408</ele>
        <time>2019-04-30T15:06:32Z</time>
      </trkpt>
      <trkpt lat="42.427996" lon="-8.640269">
        <ele>31.839</ele>
        <time>2019-04-30T15:07:01Z</time>
      </trkpt>
      <trkpt lat="42.427996" lon="-8.640295">
        <ele>32.872</ele>
        <time>2019-04-30T15:07:28Z</time>
      </trkpt>
      <trkpt lat="42.427992" lon="-8.640304">
        <ele>33.318</ele>
        <time>2019-04-30T15:07:51Z</time>
      </trkpt>
      <trkpt lat="42.427990" lon="-8.640319">
        <ele>32.386</ele>
        <time>2019-04-30T15:08:19Z</time>
      </trkpt>
      <trkpt lat="42.427978" lon="-8.640339">
        <ele>32.374</ele>
        <time>2019-04-30T15:08:50Z</time>
      </trkpt>
      <trkpt lat="42.427998" lon="-8.640319">
        <ele>31.316</ele>
        <time>2019-04-30T15:09:20Z</time>
      </trkpt>
      <trkpt lat="42.428029" lon="-8.640306">
        <ele>30.416</ele>
        <time>2019-04-30T15:09:50Z</time>
      </trkpt>
      <trkpt lat="42.427999" lon="-8.640318">
        <ele>29.950</ele>
        <time>2019-04-30T15:10:22Z</time>
      </trkpt>
      <trkpt lat="42.427993" lon="-8.640335">
        <ele>29.429</ele>
        <time>2019-04-30T15:10:57Z</time>
      </trkpt>
      <trkpt lat="42.427992" lon="-8.640330">
        <ele>28.000</ele>
        <time>2019-04-30T15:11:31Z</time>
      </trkpt>
      <trkpt lat="42.427991" lon="-8.640334">
        <ele>28.020</ele>
        <time>2019-04-30T15:12:08Z</time>
      </trkpt>
      <trkpt lat="42.427981" lon="-8.640317">
        <ele>28.008</ele>
        <time>2019-04-30T15:12:45Z</time>
      </trkpt>
      <trkpt lat="42.427969" lon="-8.640304">
        <ele>26.535</ele>
        <time>2019-04-30T15:13:20Z</time>
      </trkpt>
      <trkpt lat="42.427967" lon="-8.640308">
        <ele>26.098</ele>
        <time>2019-04-30T15:13:55Z</time>
      </trkpt>
      <trkpt lat="42.427963" lon="-8.640309">
        <ele>28.094</ele>
        <time>2019-04-30T15:14:20Z</time>
      </trkpt>
      <trkpt lat="42.427963" lon="-8.640309">
        <ele>28.532</ele>
        <time>2019-04-30T15:14:52Z</time>
      </trkpt>
      <trkpt lat="42.427976" lon="-8.640309">
        <ele>28.550</ele>
        <time>2019-04-30T15:15:25Z</time>
      </trkpt>
      <trkpt lat="42.427967" lon="-8.640297">
        <ele>27.092</ele>
        <time>2019-04-30T15:16:00Z</time>
      </trkpt>
      <trkpt lat="42.427962" lon="-8.640310">
        <ele>25.692</ele>
        <time>2019-04-30T15:16:34Z</time>
      </trkpt>
      <trkpt lat="42.427972" lon="-8.640338">
        <ele>27.046</ele>
        <time>2019-04-30T15:17:09Z</time>
      </trkpt>
      <trkpt lat="42.428003" lon="-8.640315">
        <ele>26.553</ele>
        <time>2019-04-30T15:17:52Z</time>
      </trkpt>
      <trkpt lat="42.427993" lon="-8.640323">
        <ele>25.604</ele>
        <time>2019-04-30T15:18:28Z</time>
      </trkpt>
      <trkpt lat="42.427987" lon="-8.640349">
        <ele>27.014</ele>
        <time>2019-04-30T15:19:00Z</time>
      </trkpt>
      <trkpt lat="42.427999" lon="-8.640348">
        <ele>27.008</ele>
        <time>2019-04-30T15:19:37Z</time>
      </trkpt>
      <trkpt lat="42.428016" lon="-8.640336">
        <ele>26.088</ele>
        <time>2019-04-30T15:20:14Z</time>
      </trkpt>
      <trkpt lat="42.428002" lon="-8.640331">
        <ele>25.151</ele>
        <time>2019-04-30T15:20:50Z</time>
      </trkpt>
      <trkpt lat="42.427982" lon="-8.640353">
        <ele>26.057</ele>
        <time>2019-04-30T15:21:22Z</time>
      </trkpt>
      <trkpt lat="42.427967" lon="-8.640364">
        <ele>27.015</ele>
        <time>2019-04-30T15:21:50Z</time>
      </trkpt>
      <trkpt lat="42.427976" lon="-8.640366">
        <ele>27.063</ele>
        <time>2019-04-30T15:22:20Z</time>
      </trkpt>
      <trkpt lat="42.427988" lon="-8.640363">
        <ele>27.565</ele>
        <time>2019-04-30T15:22:56Z</time>
      </trkpt>
      <trkpt lat="42.427996" lon="-8.640362">
        <ele>28.085</ele>
        <time>2019-04-30T15:23:23Z</time>
      </trkpt>
      <trkpt lat="42.427994" lon="-8.640363">
        <ele>27.079</ele>
        <time>2019-04-30T15:23:52Z</time>
      </trkpt>
      <trkpt lat="42.427993" lon="-8.640364">
        <ele>26.579</ele>
        <time>2019-04-30T15:24:12Z</time>
      </trkpt>
      <trkpt lat="42.427971" lon="-8.640360">
        <ele>26.005</ele>
        <time>2019-04-30T15:24:23Z</time>
      </trkpt>
      <trkpt lat="42.427967" lon="-8.640425">
        <ele>26.525</ele>
        <time>2019-04-30T15:24:28Z</time>
      </trkpt>
      <trkpt lat="42.427985" lon="-8.640484">
        <ele>26.008</ele>
        <time>2019-04-30T15:24:32Z</time>
      </trkpt>
      <trkpt lat="42.428083" lon="-8.640751">
        <ele>26.510</ele>
        <time>2019-04-30T15:24:42Z</time>
      </trkpt>
      <trkpt lat="42.428282" lon="-8.641159">
        <ele>26.053</ele>
        <time>2019-04-30T15:24:57Z</time>
      </trkpt>
      <trkpt lat="42.428488" lon="-8.641482">
        <ele>27.019</ele>
        <time>2019-04-30T15:25:11Z</time>
      </trkpt>
      <trkpt lat="42.428523" lon="-8.641686">
        <ele>27.527</ele>
        <time>2019-04-30T15:25:20Z</time>
      </trkpt>
      <trkpt lat="42.428740" lon="-8.641926">
        <ele>28.065</ele>
        <time>2019-04-30T15:25:33Z</time>
      </trkpt>
      <trkpt lat="42.428832" lon="-8.642010">
        <ele>28.027</ele>
        <time>2019-04-30T15:25:42Z</time>
      </trkpt>
      <trkpt lat="42.428739" lon="-8.642129">
        <ele>27.597</ele>
        <time>2019-04-30T15:25:47Z</time>
      </trkpt>
      <trkpt lat="42.428775" lon="-8.642360">
        <ele>27.541</ele>
        <time>2019-04-30T15:25:52Z</time>
      </trkpt>
      <trkpt lat="42.429144" lon="-8.642592">
        <ele>27.065</ele>
        <time>2019-04-30T15:26:04Z</time>
      </trkpt>
      <trkpt lat="42.429246" lon="-8.642691">
        <ele>27.068</ele>
        <time>2019-04-30T15:26:08Z</time>
      </trkpt>
      <trkpt lat="42.429311" lon="-8.642747">
        <ele>27.014</ele>
        <time>2019-04-30T15:26:13Z</time>
      </trkpt>
      <trkpt lat="42.429441" lon="-8.642790">
        <ele>24.108</ele>
        <time>2019-04-30T15:26:19Z</time>
      </trkpt>
      <trkpt lat="42.429480" lon="-8.642829">
        <ele>23.299</ele>
        <time>2019-04-30T15:26:22Z</time>
      </trkpt>
      <trkpt lat="42.429575" lon="-8.643061">
        <ele>23.252</ele>
        <time>2019-04-30T15:26:33Z</time>
      </trkpt>
      <trkpt lat="42.429616" lon="-8.643154">
        <ele>23.648</ele>
        <time>2019-04-30T15:26:36Z</time>
      </trkpt>
      <trkpt lat="42.429717" lon="-8.643305">
        <ele>22.286</ele>
        <time>2019-04-30T15:26:42Z</time>
      </trkpt>
      <trkpt lat="42.429753" lon="-8.643362">
        <ele>21.794</ele>
        <time>2019-04-30T15:26:44Z</time>
      </trkpt>
      <trkpt lat="42.429818" lon="-8.643420">
        <ele>21.766</ele>
        <time>2019-04-30T15:26:49Z</time>
      </trkpt>
      <trkpt lat="42.429949" lon="-8.643442">
        <ele>23.666</ele>
        <time>2019-04-30T15:26:54Z</time>
      </trkpt>
      <trkpt lat="42.429986" lon="-8.643477">
        <ele>24.180</ele>
        <time>2019-04-30T15:26:56Z</time>
      </trkpt>
      <trkpt lat="42.430087" lon="-8.643652">
        <ele>25.111</ele>
        <time>2019-04-30T15:27:11Z</time>
      </trkpt>
      <trkpt lat="42.430371" lon="-8.643891">
        <ele>24.621</ele>
        <time>2019-04-30T15:27:24Z</time>
      </trkpt>
      <trkpt lat="42.430473" lon="-8.644030">
        <ele>24.603</ele>
        <time>2019-04-30T15:27:33Z</time>
      </trkpt>
      <trkpt lat="42.430537" lon="-8.644004">
        <ele>25.108</ele>
        <time>2019-04-30T15:27:36Z</time>
      </trkpt>
      <trkpt lat="42.430734" lon="-8.643988">
        <ele>27.034</ele>
        <time>2019-04-30T15:27:41Z</time>
      </trkpt>
      <trkpt lat="42.430821" lon="-8.643833">
        <ele>25.697</ele>
        <time>2019-04-30T15:27:53Z</time>
      </trkpt>
      <trkpt lat="42.430829" lon="-8.643812">
        <ele>25.643</ele>
        <time>2019-04-30T15:28:09Z</time>
      </trkpt>
      <trkpt lat="42.430851" lon="-8.643808">
        <ele>25.651</ele>
        <time>2019-04-30T15:28:19Z</time>
      </trkpt>
      <trkpt lat="42.430850" lon="-8.643834">
        <ele>25.159</ele>
        <time>2019-04-30T15:28:22Z</time>
      </trkpt>
      <trkpt lat="42.430844" lon="-8.643871">
        <ele>26.091</ele>
        <time>2019-04-30T15:28:35Z</time>
      </trkpt>
      <trkpt lat="42.430841" lon="-8.643867">
        <ele>26.041</ele>
        <time>2019-04-30T15:29:00Z</time>
      </trkpt>
      <trkpt lat="42.430820" lon="-8.643882">
        <ele>25.165</ele>
        <time>2019-04-30T15:29:22Z</time>
      </trkpt>
      <trkpt lat="42.430813" lon="-8.643884">
        <ele>24.624</ele>
        <time>2019-04-30T15:29:37Z</time>
      </trkpt>
      <trkpt lat="42.430821" lon="-8.643941">
        <ele>24.604</ele>
        <time>2019-04-30T15:29:42Z</time>
      </trkpt>
      <trkpt lat="42.430819" lon="-8.643988">
        <ele>24.114</ele>
        <time>2019-04-30T15:29:45Z</time>
      </trkpt>
      <trkpt lat="42.430843" lon="-8.644121">
        <ele>22.708</ele>
        <time>2019-04-30T15:29:52Z</time>
      </trkpt>
      <trkpt lat="42.430893" lon="-8.644208">
        <ele>22.275</ele>
        <time>2019-04-30T15:30:00Z</time>
      </trkpt>
      <trkpt lat="42.431110" lon="-8.644172">
        <ele>21.258</ele>
        <time>2019-04-30T15:30:08Z</time>
      </trkpt>
      <trkpt lat="42.431367" lon="-8.643974">
        <ele>22.714</ele>
        <time>2019-04-30T15:30:20Z</time>
      </trkpt>
      <trkpt lat="42.431391" lon="-8.644056">
        <ele>21.792</ele>
        <time>2019-04-30T15:30:24Z</time>
      </trkpt>
      <trkpt lat="42.431317" lon="-8.644538">
        <ele>20.860</ele>
        <time>2019-04-30T15:30:38Z</time>
      </trkpt>
      <trkpt lat="42.431315" lon="-8.644587">
        <ele>20.382</ele>
        <time>2019-04-30T15:30:41Z</time>
      </trkpt>
      <trkpt lat="42.431384" lon="-8.644671">
        <ele>19.822</ele>
        <time>2019-04-30T15:30:46Z</time>
      </trkpt>
      <trkpt lat="42.431579" lon="-8.644956">
        <ele>19.836</ele>
        <time>2019-04-30T15:30:58Z</time>
      </trkpt>
      <trkpt lat="42.431711" lon="-8.645023">
        <ele>19.352</ele>
        <time>2019-04-30T15:31:04Z</time>
      </trkpt>
      <trkpt lat="42.431787" lon="-8.644950">
        <ele>19.353</ele>
        <time>2019-04-30T15:31:09Z</time>
      </trkpt>
      <trkpt lat="42.431928" lon="-8.644939">
        <ele>19.308</ele>
        <time>2019-04-30T15:31:14Z</time>
      </trkpt>
      <trkpt lat="42.432144" lon="-8.645070">
        <ele>18.808</ele>
        <time>2019-04-30T15:31:21Z</time>
      </trkpt>
      <trkpt lat="42.432484" lon="-8.645087">
        <ele>18.818</ele>
        <time>2019-04-30T15:31:30Z</time>
      </trkpt>
      <trkpt lat="42.432818" lon="-8.645167">
        <ele>19.341</ele>
        <time>2019-04-30T15:31:40Z</time>
      </trkpt>
      <trkpt lat="42.433098" lon="-8.645158">
        <ele>19.827</ele>
        <time>2019-04-30T15:31:50Z</time>
      </trkpt>
      <trkpt lat="42.433384" lon="-8.645051">
        <ele>21.755</ele>
        <time>2019-04-30T15:32:00Z</time>
      </trkpt>
      <trkpt lat="42.433576" lon="-8.645087">
        <ele>22.283</ele>
        <time>2019-04-30T15:32:11Z</time>
      </trkpt>
      <trkpt lat="42.433949" lon="-8.644936">
        <ele>22.795</ele>
        <time>2019-04-30T15:32:23Z</time>
      </trkpt>
      <trkpt lat="42.434252" lon="-8.644615">
        <ele>21.275</ele>
        <time>2019-04-30T15:32:35Z</time>
      </trkpt>
      <trkpt lat="42.434431" lon="-8.644535">
        <ele>20.869</ele>
        <time>2019-04-30T15:32:40Z</time>
      </trkpt>
      <trkpt lat="42.434507" lon="-8.644529">
        <ele>19.322</ele>
        <time>2019-04-30T15:32:42Z</time>
      </trkpt>
      <trkpt lat="42.434585" lon="-8.644552">
        <ele>18.462</ele>
        <time>2019-04-30T15:32:44Z</time>
      </trkpt>
      <trkpt lat="42.434739" lon="-8.644534">
        <ele>17.408</ele>
        <time>2019-04-30T15:32:50Z</time>
      </trkpt>
      <trkpt lat="42.434973" lon="-8.644366">
        <ele>12.108</ele>
        <time>2019-04-30T15:32:59Z</time>
      </trkpt>
      <trkpt lat="42.435126" lon="-8.644432">
        <ele>12.675</ele>
        <time>2019-04-30T15:33:05Z</time>
      </trkpt>
      <trkpt lat="42.435365" lon="-8.644230">
        <ele>12.668</ele>
        <time>2019-04-30T15:33:21Z</time>
      </trkpt>
      <trkpt lat="42.435650" lon="-8.643950">
        <ele>10.744</ele>
        <time>2019-04-30T15:33:34Z</time>
      </trkpt>
      <trkpt lat="42.435948" lon="-8.643651">
        <ele>10.262</ele>
        <time>2019-04-30T15:33:47Z</time>
      </trkpt>
      <trkpt lat="42.436209" lon="-8.643456">
        <ele>10.230</ele>
        <time>2019-04-30T15:33:59Z</time>
      </trkpt>
      <trkpt lat="42.436431" lon="-8.643259">
        <ele>9.272</ele>
        <time>2019-04-30T15:34:09Z</time>
      </trkpt>
      <trkpt lat="42.436443" lon="-8.643069">
        <ele>7.862</ele>
        <time>2019-04-30T15:34:17Z</time>
      </trkpt>
      <trkpt lat="42.436542" lon="-8.643123">
        <ele>9.266</ele>
        <time>2019-04-30T15:34:25Z</time>
      </trkpt>
      <trkpt lat="42.436592" lon="-8.643208">
        <ele>9.745</ele>
        <time>2019-04-30T15:34:29Z</time>
      </trkpt>
      <trkpt lat="42.436735" lon="-8.643167">
        <ele>9.747</ele>
        <time>2019-04-30T15:34:34Z</time>
      </trkpt>
      <trkpt lat="42.437047" lon="-8.643218">
        <ele>9.211</ele>
        <time>2019-04-30T15:34:45Z</time>
      </trkpt>
      <trkpt lat="42.437078" lon="-8.643276">
        <ele>8.708</ele>
        <time>2019-04-30T15:34:47Z</time>
      </trkpt>
      <trkpt lat="42.437410" lon="-8.643264">
        <ele>9.797</ele>
        <time>2019-04-30T15:34:59Z</time>
      </trkpt>
      <trkpt lat="42.437751" lon="-8.643287">
        <ele>14.020</ele>
        <time>2019-04-30T15:35:10Z</time>
      </trkpt>
      <trkpt lat="42.437996" lon="-8.643268">
        <ele>16.086</ele>
        <time>2019-04-30T15:35:18Z</time>
      </trkpt>
      <trkpt lat="42.438166" lon="-8.643188">
        <ele>17.464</ele>
        <time>2019-04-30T15:35:24Z</time>
      </trkpt>
      <trkpt lat="42.438333" lon="-8.643098">
        <ele>20.332</ele>
        <time>2019-04-30T15:35:31Z</time>
      </trkpt>
      <trkpt lat="42.438624" lon="-8.642960">
        <ele>21.794</ele>
        <time>2019-04-30T15:35:43Z</time>
      </trkpt>
      <trkpt lat="42.438742" lon="-8.642915">
        <ele>21.224</ele>
        <time>2019-04-30T15:35:48Z</time>
      </trkpt>
      <trkpt lat="42.439294" lon="-8.642737">
        <ele>22.218</ele>
        <time>2019-04-30T15:36:01Z</time>
      </trkpt>
      <trkpt lat="42.439550" lon="-8.642669">
        <ele>22.726</ele>
        <time>2019-04-30T15:36:09Z</time>
      </trkpt>
      <trkpt lat="42.439716" lon="-8.642650">
        <ele>22.247</ele>
        <time>2019-04-30T15:36:15Z</time>
      </trkpt>
      <trkpt lat="42.440106" lon="-8.642548">
        <ele>22.211</ele>
        <time>2019-04-30T15:36:26Z</time>
      </trkpt>
      <trkpt lat="42.440452" lon="-8.642456">
        <ele>22.708</ele>
        <time>2019-04-30T15:36:37Z</time>
      </trkpt>
      <trkpt lat="42.440542" lon="-8.642453">
        <ele>22.285</ele>
        <time>2019-04-30T15:36:42Z</time>
      </trkpt>
      <trkpt lat="42.440631" lon="-8.642648">
        <ele>21.268</ele>
        <time>2019-04-30T15:36:48Z</time>
      </trkpt>
      <trkpt lat="42.440827" lon="-8.642740">
        <ele>21.254</ele>
        <time>2019-04-30T15:37:00Z</time>
      </trkpt>
      <trkpt lat="42.440824" lon="-8.642749">
        <ele>20.852</ele>
        <time>2019-04-30T15:37:10Z</time>
      </trkpt>
      <trkpt lat="42.440907" lon="-8.642787">
        <ele>19.310</ele>
        <time>2019-04-30T15:37:15Z</time>
      </trkpt>
      <trkpt lat="42.441235" lon="-8.642951">
        <ele>18.432</ele>
        <time>2019-04-30T15:37:26Z</time>
      </trkpt>
      <trkpt lat="42.441503" lon="-8.643008">
        <ele>17.442</ele>
        <time>2019-04-30T15:37:35Z</time>
      </trkpt>
      <trkpt lat="42.441564" lon="-8.643006">
        <ele>17.996</ele>
        <time>2019-04-30T15:37:36Z</time>
      </trkpt>
      <trkpt lat="42.441626" lon="-8.643000">
        <ele>18.472</ele>
        <time>2019-04-30T15:37:37Z</time>
      </trkpt>
      <trkpt lat="42.441686" lon="-8.642999">
        <ele>18.413</ele>
        <time>2019-04-30T15:37:38Z</time>
      </trkpt>
      <trkpt lat="42.441936" lon="-8.642990">
        <ele>18.814</ele>
        <time>2019-04-30T15:37:43Z</time>
      </trkpt>
      <trkpt lat="42.442172" lon="-8.643045">
        <ele>18.808</ele>
        <time>2019-04-30T15:37:48Z</time>
      </trkpt>
      <trkpt lat="42.442214" lon="-8.643062">
        <ele>18.850</ele>
        <time>2019-04-30T15:37:49Z</time>
      </trkpt>
      <trkpt lat="42.442252" lon="-8.643080">
        <ele>18.883</ele>
        <time>2019-04-30T15:37:50Z</time>
      </trkpt>
      <trkpt lat="42.442294" lon="-8.643094">
        <ele>18.829</ele>
        <time>2019-04-30T15:37:51Z</time>
      </trkpt>
      <trkpt lat="42.442480" lon="-8.643165">
        <ele>17.917</ele>
        <time>2019-04-30T15:37:55Z</time>
      </trkpt>
      <trkpt lat="42.442536" lon="-8.643179">
        <ele>17.985</ele>
        <time>2019-04-30T15:37:56Z</time>
      </trkpt>
      <trkpt lat="42.442594" lon="-8.643198">
        <ele>17.927</ele>
        <time>2019-04-30T15:37:57Z</time>
      </trkpt>
      <trkpt lat="42.443066" lon="-8.643393">
        <ele>16.427</ele>
        <time>2019-04-30T15:38:04Z</time>
      </trkpt>
      <trkpt lat="42.443137" lon="-8.643427">
        <ele>16.011</ele>
        <time>2019-04-30T15:38:05Z</time>
      </trkpt>
      <trkpt lat="42.443209" lon="-8.643454">
        <ele>16.076</ele>
        <time>2019-04-30T15:38:06Z</time>
      </trkpt>
      <trkpt lat="42.443689" lon="-8.643614">
        <ele>14.590</ele>
        <time>2019-04-30T15:38:13Z</time>
      </trkpt>
      <trkpt lat="42.443733" lon="-8.643625">
        <ele>14.519</ele>
        <time>2019-04-30T15:38:14Z</time>
      </trkpt>
      <trkpt lat="42.443850" lon="-8.643659">
        <ele>14.508</ele>
        <time>2019-04-30T15:38:17Z</time>
      </trkpt>
      <trkpt lat="42.443895" lon="-8.643659">
        <ele>14.560</ele>
        <time>2019-04-30T15:38:18Z</time>
      </trkpt>
      <trkpt lat="42.443939" lon="-8.643650">
        <ele>14.543</ele>
        <time>2019-04-30T15:38:19Z</time>
      </trkpt>
      <trkpt lat="42.443986" lon="-8.643633">
        <ele>14.569</ele>
        <time>2019-04-30T15:38:20Z</time>
      </trkpt>
      <trkpt lat="42.444032" lon="-8.643611">
        <ele>14.577</ele>
        <time>2019-04-30T15:38:21Z</time>
      </trkpt>
      <trkpt lat="42.444080" lon="-8.643588">
        <ele>14.525</ele>
        <time>2019-04-30T15:38:22Z</time>
      </trkpt>
      <trkpt lat="42.444607" lon="-8.643352">
        <ele>16.927</ele>
        <time>2019-04-30T15:38:34Z</time>
      </trkpt>
      <trkpt lat="42.444775" lon="-8.643292">
        <ele>16.967</ele>
        <time>2019-04-30T15:38:38Z</time>
      </trkpt>
      <trkpt lat="42.444817" lon="-8.643269">
        <ele>16.941</ele>
        <time>2019-04-30T15:38:39Z</time>
      </trkpt>
      <trkpt lat="42.444856" lon="-8.643240">
        <ele>16.979</ele>
        <time>2019-04-30T15:38:40Z</time>
      </trkpt>
      <trkpt lat="42.445134" lon="-8.643033">
        <ele>16.405</ele>
        <time>2019-04-30T15:38:50Z</time>
      </trkpt>
      <trkpt lat="42.445418" lon="-8.642890">
        <ele>15.525</ele>
        <time>2019-04-30T15:39:00Z</time>
      </trkpt>
      <trkpt lat="42.445815" lon="-8.642778">
        <ele>16.908</ele>
        <time>2019-04-30T15:39:11Z</time>
      </trkpt>
      <trkpt lat="42.446251" lon="-8.642695">
        <ele>18.870</ele>
        <time>2019-04-30T15:39:23Z</time>
      </trkpt>
      <trkpt lat="42.446764" lon="-8.642805">
        <ele>22.213</ele>
        <time>2019-04-30T15:39:36Z</time>
      </trkpt>
      <trkpt lat="42.447049" lon="-8.642821">
        <ele>25.119</ele>
        <time>2019-04-30T15:39:43Z</time>
      </trkpt>
      <trkpt lat="42.447088" lon="-8.642824">
        <ele>24.697</ele>
        <time>2019-04-30T15:39:44Z</time>
      </trkpt>
      <trkpt lat="42.447605" lon="-8.642877">
        <ele>26.085</ele>
        <time>2019-04-30T15:39:59Z</time>
      </trkpt>
      <trkpt lat="42.447796" lon="-8.642849">
        <ele>26.057</ele>
        <time>2019-04-30T15:40:04Z</time>
      </trkpt>
      <trkpt lat="42.447997" lon="-8.642787">
        <ele>25.197</ele>
        <time>2019-04-30T15:40:08Z</time>
      </trkpt>
      <trkpt lat="42.448057" lon="-8.642746">
        <ele>25.151</ele>
        <time>2019-04-30T15:40:09Z</time>
      </trkpt>
      <trkpt lat="42.448114" lon="-8.642693">
        <ele>25.149</ele>
        <time>2019-04-30T15:40:10Z</time>
      </trkpt>
      <trkpt lat="42.448317" lon="-8.642503">
        <ele>23.602</ele>
        <time>2019-04-30T15:40:13Z</time>
      </trkpt>
      <trkpt lat="42.449348" lon="-8.642075">
        <ele>16.422</ele>
        <time>2019-04-30T15:40:24Z</time>
      </trkpt>
      <trkpt lat="42.450233" lon="-8.641830">
        <ele>12.608</ele>
        <time>2019-04-30T15:40:35Z</time>
      </trkpt>
      <trkpt lat="42.450616" lon="-8.641748">
        <ele>12.117</ele>
        <time>2019-04-30T15:40:41Z</time>
      </trkpt>
      <trkpt lat="42.450721" lon="-8.641702">
        <ele>12.190</ele>
        <time>2019-04-30T15:40:43Z</time>
      </trkpt>
      <trkpt lat="42.450769" lon="-8.641681">
        <ele>11.656</ele>
        <time>2019-04-30T15:40:44Z</time>
      </trkpt>
      <trkpt lat="42.450812" lon="-8.641665">
        <ele>12.134</ele>
        <time>2019-04-30T15:40:45Z</time>
      </trkpt>
      <trkpt lat="42.450856" lon="-8.641646">
        <ele>12.122</ele>
        <time>2019-04-30T15:40:46Z</time>
      </trkpt>
      <trkpt lat="42.450902" lon="-8.641628">
        <ele>12.694</ele>
        <time>2019-04-30T15:40:47Z</time>
      </trkpt>
      <trkpt lat="42.451294" lon="-8.641537">
        <ele>11.684</ele>
        <time>2019-04-30T15:40:54Z</time>
      </trkpt>
      <trkpt lat="42.451660" lon="-8.641495">
        <ele>11.678</ele>
        <time>2019-04-30T15:41:01Z</time>
      </trkpt>
      <trkpt lat="42.451712" lon="-8.641499">
        <ele>11.618</ele>
        <time>2019-04-30T15:41:02Z</time>
      </trkpt>
      <trkpt lat="42.452438" lon="-8.641757">
        <ele>12.198</ele>
        <time>2019-04-30T15:41:16Z</time>
      </trkpt>
      <trkpt lat="42.452488" lon="-8.641779">
        <ele>12.117</ele>
        <time>2019-04-30T15:41:17Z</time>
      </trkpt>
      <trkpt lat="42.452628" lon="-8.641842">
        <ele>12.108</ele>
        <time>2019-04-30T15:41:20Z</time>
      </trkpt>
      <trkpt lat="42.452771" lon="-8.641907">
        <ele>11.684</ele>
        <time>2019-04-30T15:41:23Z</time>
      </trkpt>
      <trkpt lat="42.453308" lon="-8.642225">
        <ele>9.267</ele>
        <time>2019-04-30T15:41:35Z</time>
      </trkpt>
      <trkpt lat="42.453590" lon="-8.642386">
        <ele>8.773</ele>
        <time>2019-04-30T15:41:41Z</time>
      </trkpt>
      <trkpt lat="42.453838" lon="-8.642593">
        <ele>7.841</ele>
        <time>2019-04-30T15:41:47Z</time>
      </trkpt>
      <trkpt lat="42.454506" lon="-8.643043">
        <ele>5.929</ele>
        <time>2019-04-30T15:42:01Z</time>
      </trkpt>
      <trkpt lat="42.455321" lon="-8.643568">
        <ele>7.851</ele>
        <time>2019-04-30T15:42:19Z</time>
      </trkpt>
      <trkpt lat="42.456055" lon="-8.643953">
        <ele>9.791</ele>
        <time>2019-04-30T15:42:34Z</time>
      </trkpt>
      <trkpt lat="42.456107" lon="-8.643977">
        <ele>9.715</ele>
        <time>2019-04-30T15:42:35Z</time>
      </trkpt>
      <trkpt lat="42.456157" lon="-8.644005">
        <ele>9.759</ele>
        <time>2019-04-30T15:42:36Z</time>
      </trkpt>
      <trkpt lat="42.456781" lon="-8.644404">
        <ele>9.203</ele>
        <time>2019-04-30T15:42:51Z</time>
      </trkpt>
      <trkpt lat="42.456793" lon="-8.644406">
        <ele>9.223</ele>
        <time>2019-04-30T15:42:52Z</time>
      </trkpt>
      <trkpt lat="42.456809" lon="-8.644399">
        <ele>8.708</ele>
        <time>2019-04-30T15:42:53Z</time>
      </trkpt>
      <trkpt lat="42.456824" lon="-8.644381">
        <ele>8.798</ele>
        <time>2019-04-30T15:42:54Z</time>
      </trkpt>
      <trkpt lat="42.456843" lon="-8.644363">
        <ele>8.781</ele>
        <time>2019-04-30T15:42:55Z</time>
      </trkpt>
      <trkpt lat="42.456862" lon="-8.644347">
        <ele>8.317</ele>
        <time>2019-04-30T15:42:56Z</time>
      </trkpt>
      <trkpt lat="42.457017" lon="-8.644230">
        <ele>7.325</ele>
        <time>2019-04-30T15:43:03Z</time>
      </trkpt>
      <trkpt lat="42.457355" lon="-8.644201">
        <ele>8.783</ele>
        <time>2019-04-30T15:43:15Z</time>
      </trkpt>
      <trkpt lat="42.457652" lon="-8.644148">
        <ele>10.715</ele>
        <time>2019-04-30T15:43:29Z</time>
      </trkpt>
      <trkpt lat="42.457945" lon="-8.644228">
        <ele>17.495</ele>
        <time>2019-04-30T15:43:44Z</time>
      </trkpt>
      <trkpt lat="42.458284" lon="-8.644314">
        <ele>17.999</ele>
        <time>2019-04-30T15:43:56Z</time>
      </trkpt>
      <trkpt lat="42.458712" lon="-8.644291">
        <ele>21.243</ele>
        <time>2019-04-30T15:44:12Z</time>
      </trkpt>
      <trkpt lat="42.459030" lon="-8.644361">
        <ele>26.564</ele>
        <time>2019-04-30T15:44:25Z</time>
      </trkpt>
      <trkpt lat="42.459393" lon="-8.644466">
        <ele>26.510</ele>
        <time>2019-04-30T15:44:38Z</time>
      </trkpt>
      <trkpt lat="42.459511" lon="-8.644522">
        <ele>26.508</ele>
        <time>2019-04-30T15:44:41Z</time>
      </trkpt>
      <trkpt lat="42.459603" lon="-8.644560">
        <ele>26.017</ele>
        <time>2019-04-30T15:44:43Z</time>
      </trkpt>
      <trkpt lat="42.459976" lon="-8.644710">
        <ele>24.630</ele>
        <time>2019-04-30T15:44:49Z</time>
      </trkpt>
      <trkpt lat="42.460050" lon="-8.644724">
        <ele>24.686</ele>
        <time>2019-04-30T15:44:50Z</time>
      </trkpt>
      <trkpt lat="42.460128" lon="-8.644729">
        <ele>24.174</ele>
        <time>2019-04-30T15:44:51Z</time>
      </trkpt>
      <trkpt lat="42.460546" lon="-8.644730">
        <ele>22.792</ele>
        <time>2019-04-30T15:44:57Z</time>
      </trkpt>
      <trkpt lat="42.460600" lon="-8.644725">
        <ele>22.274</ele>
        <time>2019-04-30T15:44:58Z</time>
      </trkpt>
      <trkpt lat="42.460651" lon="-8.644697">
        <ele>21.724</ele>
        <time>2019-04-30T15:44:59Z</time>
      </trkpt>
      <trkpt lat="42.460701" lon="-8.644652">
        <ele>20.888</ele>
        <time>2019-04-30T15:45:00Z</time>
      </trkpt>
      <trkpt lat="42.460753" lon="-8.644595">
        <ele>20.342</ele>
        <time>2019-04-30T15:45:01Z</time>
      </trkpt>
      <trkpt lat="42.461122" lon="-8.644264">
        <ele>17.922</ele>
        <time>2019-04-30T15:45:08Z</time>
      </trkpt>
      <trkpt lat="42.461364" lon="-8.644140">
        <ele>16.414</ele>
        <time>2019-04-30T15:45:13Z</time>
      </trkpt>
      <trkpt lat="42.461499" lon="-8.644086">
        <ele>16.008</ele>
        <time>2019-04-30T15:45:16Z</time>
      </trkpt>
      <trkpt lat="42.461718" lon="-8.643960">
        <ele>16.467</ele>
        <time>2019-04-30T15:45:25Z</time>
      </trkpt>
      <trkpt lat="42.461766" lon="-8.644013">
        <ele>20.350</ele>
        <time>2019-04-30T15:45:48Z</time>
      </trkpt>
      <trkpt lat="42.461775" lon="-8.644007">
        <ele>18.896</ele>
        <time>2019-04-30T15:46:26Z</time>
      </trkpt>
      <trkpt lat="42.461770" lon="-8.643990">
        <ele>19.844</ele>
        <time>2019-04-30T15:46:51Z</time>
      </trkpt>
      <trkpt lat="42.461779" lon="-8.643989">
        <ele>19.852</ele>
        <time>2019-04-30T15:47:22Z</time>
      </trkpt>
      <trkpt lat="42.461803" lon="-8.644000">
        <ele>20.324</ele>
        <time>2019-04-30T15:47:28Z</time>
      </trkpt>
      <trkpt lat="42.462014" lon="-8.644175">
        <ele>20.314</ele>
        <time>2019-04-30T15:47:38Z</time>
      </trkpt>
      <trkpt lat="42.462263" lon="-8.644279">
        <ele>22.248</ele>
        <time>2019-04-30T15:47:48Z</time>
      </trkpt>
      <trkpt lat="42.462523" lon="-8.644324">
        <ele>25.663</ele>
        <time>2019-04-30T15:47:59Z</time>
      </trkpt>
      <trkpt lat="42.462814" lon="-8.644341">
        <ele>29.444</ele>
        <time>2019-04-30T15:48:11Z</time>
      </trkpt>
      <trkpt lat="42.463107" lon="-8.644341">
        <ele>32.818</ele>
        <time>2019-04-30T15:48:23Z</time>
      </trkpt>
      <trkpt lat="42.463443" lon="-8.644303">
        <ele>37.108</ele>
        <time>2019-04-30T15:48:38Z</time>
      </trkpt>
      <trkpt lat="42.463670" lon="-8.644341">
        <ele>38.139</ele>
        <time>2019-04-30T15:48:48Z</time>
      </trkpt>
      <trkpt lat="42.463928" lon="-8.644592">
        <ele>42.442</ele>
        <time>2019-04-30T15:49:01Z</time>
      </trkpt>
      <trkpt lat="42.464033" lon="-8.644941">
        <ele>41.968</ele>
        <time>2019-04-30T15:49:11Z</time>
      </trkpt>
      <trkpt lat="42.464220" lon="-8.645702">
        <ele>35.276</ele>
        <time>2019-04-30T15:49:21Z</time>
      </trkpt>
      <trkpt lat="42.464251" lon="-8.645765">
        <ele>34.724</ele>
        <time>2019-04-30T15:49:22Z</time>
      </trkpt>
      <trkpt lat="42.464292" lon="-8.645820">
        <ele>33.716</ele>
        <time>2019-04-30T15:49:23Z</time>
      </trkpt>
      <trkpt lat="42.464338" lon="-8.645869">
        <ele>33.356</ele>
        <time>2019-04-30T15:49:24Z</time>
      </trkpt>
      <trkpt lat="42.464390" lon="-8.645911">
        <ele>32.380</ele>
        <time>2019-04-30T15:49:25Z</time>
      </trkpt>
      <trkpt lat="42.464539" lon="-8.646020">
        <ele>29.946</ele>
        <time>2019-04-30T15:49:28Z</time>
      </trkpt>
      <trkpt lat="42.464583" lon="-8.646043">
        <ele>29.488</ele>
        <time>2019-04-30T15:49:29Z</time>
      </trkpt>
      <trkpt lat="42.464620" lon="-8.646054">
        <ele>28.916</ele>
        <time>2019-04-30T15:49:30Z</time>
      </trkpt>
      <trkpt lat="42.464652" lon="-8.646056">
        <ele>28.508</ele>
        <time>2019-04-30T15:49:31Z</time>
      </trkpt>
      <trkpt lat="42.464682" lon="-8.646057">
        <ele>28.027</ele>
        <time>2019-04-30T15:49:32Z</time>
      </trkpt>
      <trkpt lat="42.464802" lon="-8.646120">
        <ele>24.670</ele>
        <time>2019-04-30T15:49:42Z</time>
      </trkpt>
      <trkpt lat="42.464817" lon="-8.646191">
        <ele>24.186</ele>
        <time>2019-04-30T15:49:45Z</time>
      </trkpt>
      <trkpt lat="42.464846" lon="-8.646224">
        <ele>22.724</ele>
        <time>2019-04-30T15:49:59Z</time>
      </trkpt>
      <trkpt lat="42.464861" lon="-8.646262">
        <ele>22.792</ele>
        <time>2019-04-30T15:50:11Z</time>
      </trkpt>
      <trkpt lat="42.464865" lon="-8.646278">
        <ele>22.784</ele>
        <time>2019-04-30T15:50:12Z</time>
      </trkpt>
      <trkpt lat="42.464869" lon="-8.646297">
        <ele>22.744</ele>
        <time>2019-04-30T15:50:13Z</time>
      </trkpt>
      <trkpt lat="42.464874" lon="-8.646332">
        <ele>22.788</ele>
        <time>2019-04-30T15:50:14Z</time>
      </trkpt>
      <trkpt lat="42.464880" lon="-8.646372">
        <ele>22.212</ele>
        <time>2019-04-30T15:50:15Z</time>
      </trkpt>
      <trkpt lat="42.464891" lon="-8.646407">
        <ele>22.232</ele>
        <time>2019-04-30T15:50:16Z</time>
      </trkpt>
      <trkpt lat="42.464962" lon="-8.646758">
        <ele>20.805</ele>
        <time>2019-04-30T15:50:29Z</time>
      </trkpt>
      <trkpt lat="42.464974" lon="-8.646789">
        <ele>20.808</ele>
        <time>2019-04-30T15:50:30Z</time>
      </trkpt>
      <trkpt lat="42.465046" lon="-8.646996">
        <ele>20.354</ele>
        <time>2019-04-30T15:50:36Z</time>
      </trkpt>
      <trkpt lat="42.465073" lon="-8.647036">
        <ele>20.347</ele>
        <time>2019-04-30T15:50:37Z</time>
      </trkpt>
      <trkpt lat="42.465093" lon="-8.647071">
        <ele>20.313</ele>
        <time>2019-04-30T15:50:38Z</time>
      </trkpt>
      <trkpt lat="42.465113" lon="-8.647108">
        <ele>20.331</ele>
        <time>2019-04-30T15:50:39Z</time>
      </trkpt>
      <trkpt lat="42.465138" lon="-8.647148">
        <ele>20.329</ele>
        <time>2019-04-30T15:50:40Z</time>
      </trkpt>
      <trkpt lat="42.465163" lon="-8.647186">
        <ele>20.391</ele>
        <time>2019-04-30T15:50:41Z</time>
      </trkpt>
      <trkpt lat="42.465188" lon="-8.647222">
        <ele>20.371</ele>
        <time>2019-04-30T15:50:42Z</time>
      </trkpt>
      <trkpt lat="42.465213" lon="-8.647257">
        <ele>20.395</ele>
        <time>2019-04-30T15:50:43Z</time>
      </trkpt>
      <trkpt lat="42.465574" lon="-8.647599">
        <ele>20.849</ele>
        <time>2019-04-30T15:50:56Z</time>
      </trkpt>
      <trkpt lat="42.465871" lon="-8.647853">
        <ele>21.202</ele>
        <time>2019-04-30T15:51:09Z</time>
      </trkpt>
      <trkpt lat="42.465956" lon="-8.647937">
        <ele>20.822</ele>
        <time>2019-04-30T15:51:18Z</time>
      </trkpt>
      <trkpt lat="42.465968" lon="-8.647955">
        <ele>19.808</ele>
        <time>2019-04-30T15:51:30Z</time>
      </trkpt>
      <trkpt lat="42.465978" lon="-8.647948">
        <ele>20.347</ele>
        <time>2019-04-30T15:51:45Z</time>
      </trkpt>
      <trkpt lat="42.466000" lon="-8.647943">
        <ele>20.380</ele>
        <time>2019-04-30T15:51:46Z</time>
      </trkpt>
      <trkpt lat="42.466031" lon="-8.647944">
        <ele>19.836</ele>
        <time>2019-04-30T15:51:47Z</time>
      </trkpt>
      <trkpt lat="42.466068" lon="-8.647954">
        <ele>19.894</ele>
        <time>2019-04-30T15:51:48Z</time>
      </trkpt>
      <trkpt lat="42.466106" lon="-8.647972">
        <ele>19.882</ele>
        <time>2019-04-30T15:51:49Z</time>
      </trkpt>
      <trkpt lat="42.466147" lon="-8.647993">
        <ele>19.814</ele>
        <time>2019-04-30T15:51:50Z</time>
      </trkpt>
      <trkpt lat="42.466942" lon="-8.648334">
        <ele>19.394</ele>
        <time>2019-04-30T15:52:06Z</time>
      </trkpt>
      <trkpt lat="42.466996" lon="-8.648347">
        <ele>18.898</ele>
        <time>2019-04-30T15:52:07Z</time>
      </trkpt>
      <trkpt lat="42.467108" lon="-8.648363">
        <ele>18.885</ele>
        <time>2019-04-30T15:52:09Z</time>
      </trkpt>
      <trkpt lat="42.467675" lon="-8.648230">
        <ele>17.489</ele>
        <time>2019-04-30T15:52:20Z</time>
      </trkpt>
      <trkpt lat="42.467718" lon="-8.648210">
        <ele>17.417</ele>
        <time>2019-04-30T15:52:21Z</time>
      </trkpt>
      <trkpt lat="42.467759" lon="-8.648198">
        <ele>17.408</ele>
        <time>2019-04-30T15:52:22Z</time>
      </trkpt>
      <trkpt lat="42.467801" lon="-8.648195">
        <ele>17.471</ele>
        <time>2019-04-30T15:52:23Z</time>
      </trkpt>
      <trkpt lat="42.467841" lon="-8.648193">
        <ele>17.454</ele>
        <time>2019-04-30T15:52:24Z</time>
      </trkpt>
      <trkpt lat="42.467882" lon="-8.648195">
        <ele>17.980</ele>
        <time>2019-04-30T15:52:25Z</time>
      </trkpt>
      <trkpt lat="42.468069" lon="-8.648210">
        <ele>17.938</ele>
        <time>2019-04-30T15:52:30Z</time>
      </trkpt>
      <trkpt lat="42.468112" lon="-8.648222">
        <ele>18.476</ele>
        <time>2019-04-30T15:52:37Z</time>
      </trkpt>
      <trkpt lat="42.468127" lon="-8.648226">
        <ele>18.838</ele>
        <time>2019-04-30T15:52:38Z</time>
      </trkpt>
      <trkpt lat="42.468146" lon="-8.648230">
        <ele>18.818</ele>
        <time>2019-04-30T15:52:39Z</time>
      </trkpt>
      <trkpt lat="42.468173" lon="-8.648234">
        <ele>18.832</ele>
        <time>2019-04-30T15:52:40Z</time>
      </trkpt>
      <trkpt lat="42.468209" lon="-8.648235">
        <ele>19.366</ele>
        <time>2019-04-30T15:52:41Z</time>
      </trkpt>
      <trkpt lat="42.468687" lon="-8.648247">
        <ele>20.329</ele>
        <time>2019-04-30T15:52:50Z</time>
      </trkpt>
      <trkpt lat="42.469252" lon="-8.648369">
        <ele>21.721</ele>
        <time>2019-04-30T15:53:00Z</time>
      </trkpt>
      <trkpt lat="42.469308" lon="-8.648377">
        <ele>21.708</ele>
        <time>2019-04-30T15:53:01Z</time>
      </trkpt>
      <trkpt lat="42.469360" lon="-8.648377">
        <ele>21.769</ele>
        <time>2019-04-30T15:53:02Z</time>
      </trkpt>
      <trkpt lat="42.469459" lon="-8.648379">
        <ele>21.732</ele>
        <time>2019-04-30T15:53:04Z</time>
      </trkpt>
      <trkpt lat="42.469591" lon="-8.648401">
        <ele>22.228</ele>
        <time>2019-04-30T15:53:07Z</time>
      </trkpt>
      <trkpt lat="42.469630" lon="-8.648402">
        <ele>22.736</ele>
        <time>2019-04-30T15:53:08Z</time>
      </trkpt>
      <trkpt lat="42.470166" lon="-8.648455">
        <ele>24.644</ele>
        <time>2019-04-30T15:53:23Z</time>
      </trkpt>
      <trkpt lat="42.470589" lon="-8.648428">
        <ele>26.016</ele>
        <time>2019-04-30T15:53:37Z</time>
      </trkpt>
      <trkpt lat="42.471021" lon="-8.648396">
        <ele>27.516</ele>
        <time>2019-04-30T15:53:52Z</time>
      </trkpt>
      <trkpt lat="42.471341" lon="-8.648360">
        <ele>31.860</ele>
        <time>2019-04-30T15:54:06Z</time>
      </trkpt>
      <trkpt lat="42.471591" lon="-8.648659">
        <ele>35.766</ele>
        <time>2019-04-30T15:54:18Z</time>
      </trkpt>
      <trkpt lat="42.471906" lon="-8.648874">
        <ele>35.229</ele>
        <time>2019-04-30T15:54:29Z</time>
      </trkpt>
      <trkpt lat="42.472325" lon="-8.649080">
        <ele>34.221</ele>
        <time>2019-04-30T15:54:39Z</time>
      </trkpt>
      <trkpt lat="42.472956" lon="-8.649310">
        <ele>33.308</ele>
        <time>2019-04-30T15:54:54Z</time>
      </trkpt>
      <trkpt lat="42.473192" lon="-8.649382">
        <ele>32.859</ele>
        <time>2019-04-30T15:54:59Z</time>
      </trkpt>
      <trkpt lat="42.473716" lon="-8.649599">
        <ele>33.722</ele>
        <time>2019-04-30T15:55:13Z</time>
      </trkpt>
      <trkpt lat="42.474225" lon="-8.649547">
        <ele>35.288</ele>
        <time>2019-04-30T15:55:28Z</time>
      </trkpt>
      <trkpt lat="42.474759" lon="-8.649838">
        <ele>34.776</ele>
        <time>2019-04-30T15:55:41Z</time>
      </trkpt>
      <trkpt lat="42.474939" lon="-8.649881">
        <ele>33.784</ele>
        <time>2019-04-30T15:55:45Z</time>
      </trkpt>
      <trkpt lat="42.474982" lon="-8.649887">
        <ele>33.746</ele>
        <time>2019-04-30T15:55:46Z</time>
      </trkpt>
      <trkpt lat="42.475022" lon="-8.649894">
        <ele>33.756</ele>
        <time>2019-04-30T15:55:47Z</time>
      </trkpt>
      <trkpt lat="42.475062" lon="-8.649900">
        <ele>33.780</ele>
        <time>2019-04-30T15:55:48Z</time>
      </trkpt>
      <trkpt lat="42.475093" lon="-8.649909">
        <ele>33.785</ele>
        <time>2019-04-30T15:55:49Z</time>
      </trkpt>
      <trkpt lat="42.475119" lon="-8.649914">
        <ele>33.789</ele>
        <time>2019-04-30T15:55:50Z</time>
      </trkpt>
      <trkpt lat="42.475143" lon="-8.649917">
        <ele>33.317</ele>
        <time>2019-04-30T15:55:51Z</time>
      </trkpt>
      <trkpt lat="42.475170" lon="-8.649923">
        <ele>33.708</ele>
        <time>2019-04-30T15:55:52Z</time>
      </trkpt>
      <trkpt lat="42.475315" lon="-8.649964">
        <ele>33.751</ele>
        <time>2019-04-30T15:55:57Z</time>
      </trkpt>
      <trkpt lat="42.475625" lon="-8.650029">
        <ele>35.234</ele>
        <time>2019-04-30T15:56:09Z</time>
      </trkpt>
      <trkpt lat="42.475666" lon="-8.650027">
        <ele>35.230</ele>
        <time>2019-04-30T15:56:10Z</time>
      </trkpt>
      <trkpt lat="42.475899" lon="-8.650023">
        <ele>36.188</ele>
        <time>2019-04-30T15:56:19Z</time>
      </trkpt>
      <trkpt lat="42.476254" lon="-8.650068">
        <ele>38.146</ele>
        <time>2019-04-30T15:56:31Z</time>
      </trkpt>
      <trkpt lat="42.476623" lon="-8.650214">
        <ele>40.588</ele>
        <time>2019-04-30T15:56:42Z</time>
      </trkpt>
      <trkpt lat="42.476949" lon="-8.650416">
        <ele>40.998</ele>
        <time>2019-04-30T15:56:54Z</time>
      </trkpt>
      <trkpt lat="42.477272" lon="-8.650541">
        <ele>38.552</ele>
        <time>2019-04-30T15:57:06Z</time>
      </trkpt>
      <trkpt lat="42.477674" lon="-8.650600">
        <ele>38.559</ele>
        <time>2019-04-30T15:57:19Z</time>
      </trkpt>
      <trkpt lat="42.478120" lon="-8.650740">
        <ele>42.403</ele>
        <time>2019-04-30T15:57:33Z</time>
      </trkpt>
      <trkpt lat="42.478579" lon="-8.650847">
        <ele>41.423</ele>
        <time>2019-04-30T15:57:47Z</time>
      </trkpt>
      <trkpt lat="42.479002" lon="-8.650906">
        <ele>40.508</ele>
        <time>2019-04-30T15:58:00Z</time>
      </trkpt>
      <trkpt lat="42.479595" lon="-8.651111">
        <ele>39.098</ele>
        <time>2019-04-30T15:58:16Z</time>
      </trkpt>
      <trkpt lat="42.479968" lon="-8.651176">
        <ele>40.061</ele>
        <time>2019-04-30T15:58:28Z</time>
      </trkpt>
      <trkpt lat="42.480172" lon="-8.651154">
        <ele>40.037</ele>
        <time>2019-04-30T15:58:41Z</time>
      </trkpt>
      <trkpt lat="42.480378" lon="-8.651022">
        <ele>39.025</ele>
        <time>2019-04-30T15:58:50Z</time>
      </trkpt>
      <trkpt lat="42.480567" lon="-8.650874">
        <ele>38.163</ele>
        <time>2019-04-30T15:58:55Z</time>
      </trkpt>
      <trkpt lat="42.480935" lon="-8.650693">
        <ele>35.255</ele>
        <time>2019-04-30T15:59:06Z</time>
      </trkpt>
      <trkpt lat="42.481303" lon="-8.650816">
        <ele>34.255</ele>
        <time>2019-04-30T15:59:16Z</time>
      </trkpt>
      <trkpt lat="42.481705" lon="-8.650890">
        <ele>36.679</ele>
        <time>2019-04-30T15:59:28Z</time>
      </trkpt>
      <trkpt lat="42.482187" lon="-8.650981">
        <ele>41.942</ele>
        <time>2019-04-30T15:59:42Z</time>
      </trkpt>
      <trkpt lat="42.482565" lon="-8.650924">
        <ele>43.422</ele>
        <time>2019-04-30T15:59:54Z</time>
      </trkpt>
      <trkpt lat="42.483023" lon="-8.650852">
        <ele>43.814</ele>
        <time>2019-04-30T16:00:09Z</time>
      </trkpt>
      <trkpt lat="42.483453" lon="-8.650847">
        <ele>44.808</ele>
        <time>2019-04-30T16:00:23Z</time>
      </trkpt>
      <trkpt lat="42.483780" lon="-8.650752">
        <ele>43.897</ele>
        <time>2019-04-30T16:00:34Z</time>
      </trkpt>
      <trkpt lat="42.483963" lon="-8.650763">
        <ele>45.350</ele>
        <time>2019-04-30T16:00:41Z</time>
      </trkpt>
      <trkpt lat="42.484264" lon="-8.650767">
        <ele>48.686</ele>
        <time>2019-04-30T16:00:51Z</time>
      </trkpt>
      <trkpt lat="42.484805" lon="-8.650758">
        <ele>50.624</ele>
        <time>2019-04-30T16:01:07Z</time>
      </trkpt>
      <trkpt lat="42.485236" lon="-8.650634">
        <ele>50.112</ele>
        <time>2019-04-30T16:01:20Z</time>
      </trkpt>
      <trkpt lat="42.485632" lon="-8.650626">
        <ele>49.684</ele>
        <time>2019-04-30T16:01:32Z</time>
      </trkpt>
      <trkpt lat="42.486074" lon="-8.650606">
        <ele>51.594</ele>
        <time>2019-04-30T16:01:44Z</time>
      </trkpt>
      <trkpt lat="42.486158" lon="-8.650575">
        <ele>52.098</ele>
        <time>2019-04-30T16:01:46Z</time>
      </trkpt>
      <trkpt lat="42.486199" lon="-8.650553">
        <ele>52.045</ele>
        <time>2019-04-30T16:01:47Z</time>
      </trkpt>
      <trkpt lat="42.486239" lon="-8.650532">
        <ele>52.047</ele>
        <time>2019-04-30T16:01:48Z</time>
      </trkpt>
      <trkpt lat="42.486280" lon="-8.650509">
        <ele>51.511</ele>
        <time>2019-04-30T16:01:49Z</time>
      </trkpt>
      <trkpt lat="42.486314" lon="-8.650483">
        <ele>52.008</ele>
        <time>2019-04-30T16:01:50Z</time>
      </trkpt>
      <trkpt lat="42.486345" lon="-8.650452">
        <ele>52.077</ele>
        <time>2019-04-30T16:01:51Z</time>
      </trkpt>
      <trkpt lat="42.486375" lon="-8.650429">
        <ele>52.070</ele>
        <time>2019-04-30T16:01:52Z</time>
      </trkpt>
      <trkpt lat="42.486402" lon="-8.650407">
        <ele>52.576</ele>
        <time>2019-04-30T16:01:53Z</time>
      </trkpt>
      <trkpt lat="42.486579" lon="-8.650282">
        <ele>54.494</ele>
        <time>2019-04-30T16:02:00Z</time>
      </trkpt>
      <trkpt lat="42.486830" lon="-8.650235">
        <ele>59.782</ele>
        <time>2019-04-30T16:02:11Z</time>
      </trkpt>
      <trkpt lat="42.487103" lon="-8.650127">
        <ele>62.134</ele>
        <time>2019-04-30T16:02:19Z</time>
      </trkpt>
      <trkpt lat="42.487453" lon="-8.650036">
        <ele>62.624</ele>
        <time>2019-04-30T16:02:28Z</time>
      </trkpt>
      <trkpt lat="42.487539" lon="-8.650031">
        <ele>62.138</ele>
        <time>2019-04-30T16:02:30Z</time>
      </trkpt>
      <trkpt lat="42.487588" lon="-8.650025">
        <ele>62.175</ele>
        <time>2019-04-30T16:02:31Z</time>
      </trkpt>
      <trkpt lat="42.487680" lon="-8.650014">
        <ele>62.128</ele>
        <time>2019-04-30T16:02:33Z</time>
      </trkpt>
      <trkpt lat="42.487727" lon="-8.650022">
        <ele>62.120</ele>
        <time>2019-04-30T16:02:34Z</time>
      </trkpt>
      <trkpt lat="42.487771" lon="-8.650029">
        <ele>62.608</ele>
        <time>2019-04-30T16:02:35Z</time>
      </trkpt>
      <trkpt lat="42.488274" lon="-8.650030">
        <ele>60.720</ele>
        <time>2019-04-30T16:02:47Z</time>
      </trkpt>
      <trkpt lat="42.488466" lon="-8.649972">
        <ele>60.233</ele>
        <time>2019-04-30T16:02:51Z</time>
      </trkpt>
      <trkpt lat="42.488515" lon="-8.649962">
        <ele>60.239</ele>
        <time>2019-04-30T16:02:52Z</time>
      </trkpt>
      <trkpt lat="42.488571" lon="-8.649951">
        <ele>60.257</ele>
        <time>2019-04-30T16:02:53Z</time>
      </trkpt>
      <trkpt lat="42.488843" lon="-8.649880">
        <ele>59.225</ele>
        <time>2019-04-30T16:02:59Z</time>
      </trkpt>
      <trkpt lat="42.488886" lon="-8.649868">
        <ele>58.727</ele>
        <time>2019-04-30T16:03:00Z</time>
      </trkpt>
      <trkpt lat="42.488924" lon="-8.649851">
        <ele>58.317</ele>
        <time>2019-04-30T16:03:01Z</time>
      </trkpt>
      <trkpt lat="42.488971" lon="-8.649834">
        <ele>58.311</ele>
        <time>2019-04-30T16:03:02Z</time>
      </trkpt>
      <trkpt lat="42.489020" lon="-8.649803">
        <ele>58.391</ele>
        <time>2019-04-30T16:03:03Z</time>
      </trkpt>
      <trkpt lat="42.489069" lon="-8.649768">
        <ele>58.381</ele>
        <time>2019-04-30T16:03:04Z</time>
      </trkpt>
      <trkpt lat="42.489268" lon="-8.649624">
        <ele>55.819</ele>
        <time>2019-04-30T16:03:11Z</time>
      </trkpt>
      <trkpt lat="42.489290" lon="-8.649613">
        <ele>55.408</ele>
        <time>2019-04-30T16:03:12Z</time>
      </trkpt>
      <trkpt lat="42.489385" lon="-8.649525">
        <ele>54.942</ele>
        <time>2019-04-30T16:03:16Z</time>
      </trkpt>
      <trkpt lat="42.489424" lon="-8.649506">
        <ele>54.915</ele>
        <time>2019-04-30T16:03:17Z</time>
      </trkpt>
      <trkpt lat="42.489630" lon="-8.649409">
        <ele>54.911</ele>
        <time>2019-04-30T16:03:23Z</time>
      </trkpt>
      <trkpt lat="42.489662" lon="-8.649401">
        <ele>54.949</ele>
        <time>2019-04-30T16:03:24Z</time>
      </trkpt>
      <trkpt lat="42.489697" lon="-8.649391">
        <ele>54.967</ele>
        <time>2019-04-30T16:03:25Z</time>
      </trkpt>
      <trkpt lat="42.490115" lon="-8.649342">
        <ele>55.439</ele>
        <time>2019-04-30T16:03:37Z</time>
      </trkpt>
      <trkpt lat="42.490341" lon="-8.649270">
        <ele>57.899</ele>
        <time>2019-04-30T16:03:44Z</time>
      </trkpt>
      <trkpt lat="42.490370" lon="-8.649263">
        <ele>57.853</ele>
        <time>2019-04-30T16:03:45Z</time>
      </trkpt>
      <trkpt lat="42.490398" lon="-8.649260">
        <ele>58.372</ele>
        <time>2019-04-30T16:03:46Z</time>
      </trkpt>
      <trkpt lat="42.490422" lon="-8.649257">
        <ele>58.313</ele>
        <time>2019-04-30T16:03:47Z</time>
      </trkpt>
      <trkpt lat="42.490456" lon="-8.649254">
        <ele>58.714</ele>
        <time>2019-04-30T16:03:48Z</time>
      </trkpt>
      <trkpt lat="42.490805" lon="-8.649200">
        <ele>59.708</ele>
        <time>2019-04-30T16:03:59Z</time>
      </trkpt>
      <trkpt lat="42.490862" lon="-8.649166">
        <ele>58.740</ele>
        <time>2019-04-30T16:04:01Z</time>
      </trkpt>
      <trkpt lat="42.490878" lon="-8.649149">
        <ele>59.233</ele>
        <time>2019-04-30T16:04:02Z</time>
      </trkpt>
      <trkpt lat="42.490923" lon="-8.649119">
        <ele>59.269</ele>
        <time>2019-04-30T16:04:04Z</time>
      </trkpt>
      <trkpt lat="42.490967" lon="-8.649105">
        <ele>59.227</ele>
        <time>2019-04-30T16:04:05Z</time>
      </trkpt>
      <trkpt lat="42.491004" lon="-8.649088">
        <ele>59.295</ele>
        <time>2019-04-30T16:04:06Z</time>
      </trkpt>
      <trkpt lat="42.491253" lon="-8.648921">
        <ele>59.217</ele>
        <time>2019-04-30T16:04:16Z</time>
      </trkpt>
      <trkpt lat="42.491346" lon="-8.648859">
        <ele>60.787</ele>
        <time>2019-04-30T16:04:21Z</time>
      </trkpt>
      <trkpt lat="42.491595" lon="-8.648784">
        <ele>63.191</ele>
        <time>2019-04-30T16:04:31Z</time>
      </trkpt>
      <trkpt lat="42.491678" lon="-8.648731">
        <ele>62.668</ele>
        <time>2019-04-30T16:04:35Z</time>
      </trkpt>
      <trkpt lat="42.491861" lon="-8.648625">
        <ele>63.142</ele>
        <time>2019-04-30T16:04:45Z</time>
      </trkpt>
      <trkpt lat="42.491884" lon="-8.648601">
        <ele>63.126</ele>
        <time>2019-04-30T16:04:47Z</time>
      </trkpt>
      <trkpt lat="42.491902" lon="-8.648589">
        <ele>63.108</ele>
        <time>2019-04-30T16:04:48Z</time>
      </trkpt>
      <trkpt lat="42.491913" lon="-8.648575">
        <ele>63.139</ele>
        <time>2019-04-30T16:04:49Z</time>
      </trkpt>
      <trkpt lat="42.491935" lon="-8.648566">
        <ele>62.672</ele>
        <time>2019-04-30T16:04:50Z</time>
      </trkpt>
      <trkpt lat="42.491960" lon="-8.648563">
        <ele>62.638</ele>
        <time>2019-04-30T16:04:51Z</time>
      </trkpt>
      <trkpt lat="42.492191" lon="-8.648513">
        <ele>64.096</ele>
        <time>2019-04-30T16:04:59Z</time>
      </trkpt>
      <trkpt lat="42.492428" lon="-8.648466">
        <ele>66.994</ele>
        <time>2019-04-30T16:05:09Z</time>
      </trkpt>
      <trkpt lat="42.492486" lon="-8.648457">
        <ele>67.456</ele>
        <time>2019-04-30T16:05:12Z</time>
      </trkpt>
      <trkpt lat="42.492509" lon="-8.648454">
        <ele>67.926</ele>
        <time>2019-04-30T16:05:13Z</time>
      </trkpt>
      <trkpt lat="42.492528" lon="-8.648449">
        <ele>67.960</ele>
        <time>2019-04-30T16:05:14Z</time>
      </trkpt>
      <trkpt lat="42.492547" lon="-8.648447">
        <ele>67.964</ele>
        <time>2019-04-30T16:05:15Z</time>
      </trkpt>
      <trkpt lat="42.492584" lon="-8.648444">
        <ele>68.306</ele>
        <time>2019-04-30T16:05:17Z</time>
      </trkpt>
      <trkpt lat="42.492616" lon="-8.648454">
        <ele>69.316</ele>
        <time>2019-04-30T16:05:18Z</time>
      </trkpt>
      <trkpt lat="42.492659" lon="-8.648471">
        <ele>70.308</ele>
        <time>2019-04-30T16:05:20Z</time>
      </trkpt>
      <trkpt lat="42.492729" lon="-8.648477">
        <ele>73.229</ele>
        <time>2019-04-30T16:05:35Z</time>
      </trkpt>
      <trkpt lat="42.492755" lon="-8.648496">
        <ele>74.112</ele>
        <time>2019-04-30T16:06:03Z</time>
      </trkpt>
      <trkpt lat="42.492791" lon="-8.648494">
        <ele>75.638</ele>
        <time>2019-04-30T16:06:08Z</time>
      </trkpt>
      <trkpt lat="42.492804" lon="-8.648499">
        <ele>76.056</ele>
        <time>2019-04-30T16:06:09Z</time>
      </trkpt>
      <trkpt lat="42.492821" lon="-8.648503">
        <ele>76.514</ele>
        <time>2019-04-30T16:06:10Z</time>
      </trkpt>
      <trkpt lat="42.492834" lon="-8.648508">
        <ele>77.016</ele>
        <time>2019-04-30T16:06:11Z</time>
      </trkpt>
      <trkpt lat="42.492847" lon="-8.648514">
        <ele>77.596</ele>
        <time>2019-04-30T16:06:12Z</time>
      </trkpt>
      <trkpt lat="42.492904" lon="-8.648535">
        <ele>78.480</ele>
        <time>2019-04-30T16:06:16Z</time>
      </trkpt>
      <trkpt lat="42.492919" lon="-8.648533">
        <ele>78.412</ele>
        <time>2019-04-30T16:06:17Z</time>
      </trkpt>
      <trkpt lat="42.492938" lon="-8.648534">
        <ele>78.432</ele>
        <time>2019-04-30T16:06:18Z</time>
      </trkpt>
      <trkpt lat="42.492965" lon="-8.648532">
        <ele>78.905</ele>
        <time>2019-04-30T16:06:19Z</time>
      </trkpt>
      <trkpt lat="42.492992" lon="-8.648530">
        <ele>79.408</ele>
        <time>2019-04-30T16:06:20Z</time>
      </trkpt>
      <trkpt lat="42.493013" lon="-8.648530">
        <ele>79.474</ele>
        <time>2019-04-30T16:06:21Z</time>
      </trkpt>
      <trkpt lat="42.493034" lon="-8.648527">
        <ele>79.427</ele>
        <time>2019-04-30T16:06:22Z</time>
      </trkpt>
      <trkpt lat="42.493058" lon="-8.648523">
        <ele>79.443</ele>
        <time>2019-04-30T16:06:23Z</time>
      </trkpt>
      <trkpt lat="42.493153" lon="-8.648519">
        <ele>78.461</ele>
        <time>2019-04-30T16:06:27Z</time>
      </trkpt>
      <trkpt lat="42.493173" lon="-8.648511">
        <ele>78.939</ele>
        <time>2019-04-30T16:06:28Z</time>
      </trkpt>
      <trkpt lat="42.493192" lon="-8.648510">
        <ele>78.471</ele>
        <time>2019-04-30T16:06:29Z</time>
      </trkpt>
      <trkpt lat="42.493214" lon="-8.648509">
        <ele>78.911</ele>
        <time>2019-04-30T16:06:30Z</time>
      </trkpt>
      <trkpt lat="42.493243" lon="-8.648501">
        <ele>78.975</ele>
        <time>2019-04-30T16:06:31Z</time>
      </trkpt>
      <trkpt lat="42.493408" lon="-8.648479">
        <ele>79.992</ele>
        <time>2019-04-30T16:06:37Z</time>
      </trkpt>
      <trkpt lat="42.493724" lon="-8.648412">
        <ele>81.873</ele>
        <time>2019-04-30T16:06:48Z</time>
      </trkpt>
      <trkpt lat="42.493923" lon="-8.648389">
        <ele>82.320</ele>
        <time>2019-04-30T16:06:52Z</time>
      </trkpt>
      <trkpt lat="42.494021" lon="-8.648361">
        <ele>81.808</ele>
        <time>2019-04-30T16:06:54Z</time>
      </trkpt>
      <trkpt lat="42.494070" lon="-8.648356">
        <ele>81.872</ele>
        <time>2019-04-30T16:06:55Z</time>
      </trkpt>
      <trkpt lat="42.494120" lon="-8.648360">
        <ele>81.895</ele>
        <time>2019-04-30T16:06:56Z</time>
      </trkpt>
      <trkpt lat="42.494171" lon="-8.648365">
        <ele>82.331</ele>
        <time>2019-04-30T16:06:57Z</time>
      </trkpt>
      <trkpt lat="42.494225" lon="-8.648374">
        <ele>81.899</ele>
        <time>2019-04-30T16:06:58Z</time>
      </trkpt>
      <trkpt lat="42.494280" lon="-8.648384">
        <ele>82.387</ele>
        <time>2019-04-30T16:06:59Z</time>
      </trkpt>
      <trkpt lat="42.494337" lon="-8.648392">
        <ele>82.369</ele>
        <time>2019-04-30T16:07:00Z</time>
      </trkpt>
      <trkpt lat="42.494396" lon="-8.648408">
        <ele>82.359</ele>
        <time>2019-04-30T16:07:01Z</time>
      </trkpt>
      <trkpt lat="42.494451" lon="-8.648425">
        <ele>82.343</ele>
        <time>2019-04-30T16:07:02Z</time>
      </trkpt>
      <trkpt lat="42.494501" lon="-8.648438">
        <ele>82.331</ele>
        <time>2019-04-30T16:07:03Z</time>
      </trkpt>
      <trkpt lat="42.494599" lon="-8.648463">
        <ele>82.361</ele>
        <time>2019-04-30T16:07:05Z</time>
      </trkpt>
      <trkpt lat="42.494815" lon="-8.648578">
        <ele>82.307</ele>
        <time>2019-04-30T16:07:10Z</time>
      </trkpt>
      <trkpt lat="42.494866" lon="-8.648592">
        <ele>82.308</ele>
        <time>2019-04-30T16:07:11Z</time>
      </trkpt>
      <trkpt lat="42.495045" lon="-8.648607">
        <ele>82.846</ele>
        <time>2019-04-30T16:07:14Z</time>
      </trkpt>
      <trkpt lat="42.495117" lon="-8.648611">
        <ele>82.849</ele>
        <time>2019-04-30T16:07:15Z</time>
      </trkpt>
      <trkpt lat="42.495239" lon="-8.648628">
        <ele>82.395</ele>
        <time>2019-04-30T16:07:17Z</time>
      </trkpt>
      <trkpt lat="42.495591" lon="-8.648762">
        <ele>81.323</ele>
        <time>2019-04-30T16:07:23Z</time>
      </trkpt>
      <trkpt lat="42.495722" lon="-8.648842">
        <ele>80.811</ele>
        <time>2019-04-30T16:07:26Z</time>
      </trkpt>
      <trkpt lat="42.495753" lon="-8.648850">
        <ele>80.853</ele>
        <time>2019-04-30T16:07:27Z</time>
      </trkpt>
      <trkpt lat="42.495795" lon="-8.648870">
        <ele>80.413</ele>
        <time>2019-04-30T16:07:28Z</time>
      </trkpt>
      <trkpt lat="42.495838" lon="-8.648886">
        <ele>79.957</ele>
        <time>2019-04-30T16:07:29Z</time>
      </trkpt>
      <trkpt lat="42.495873" lon="-8.648894">
        <ele>79.482</ele>
        <time>2019-04-30T16:07:30Z</time>
      </trkpt>
      <trkpt lat="42.495901" lon="-8.648901">
        <ele>79.443</ele>
        <time>2019-04-30T16:07:31Z</time>
      </trkpt>
      <trkpt lat="42.495923" lon="-8.648909">
        <ele>79.417</ele>
        <time>2019-04-30T16:07:32Z</time>
      </trkpt>
      <trkpt lat="42.495943" lon="-8.648914">
        <ele>78.908</ele>
        <time>2019-04-30T16:07:33Z</time>
      </trkpt>
      <trkpt lat="42.495962" lon="-8.648913">
        <ele>79.481</ele>
        <time>2019-04-30T16:07:34Z</time>
      </trkpt>
      <trkpt lat="42.495997" lon="-8.648913">
        <ele>79.474</ele>
        <time>2019-04-30T16:07:36Z</time>
      </trkpt>
      <trkpt lat="42.496015" lon="-8.648925">
        <ele>79.990</ele>
        <time>2019-04-30T16:07:37Z</time>
      </trkpt>
      <trkpt lat="42.496038" lon="-8.648939">
        <ele>79.458</ele>
        <time>2019-04-30T16:07:38Z</time>
      </trkpt>
      <trkpt lat="42.496053" lon="-8.648943">
        <ele>78.996</ele>
        <time>2019-04-30T16:07:39Z</time>
      </trkpt>
      <trkpt lat="42.496072" lon="-8.648948">
        <ele>78.418</ele>
        <time>2019-04-30T16:07:40Z</time>
      </trkpt>
      <trkpt lat="42.496205" lon="-8.648978">
        <ele>77.598</ele>
        <time>2019-04-30T16:07:55Z</time>
      </trkpt>
      <trkpt lat="42.496222" lon="-8.648989">
        <ele>77.052</ele>
        <time>2019-04-30T16:07:56Z</time>
      </trkpt>
      <trkpt lat="42.496445" lon="-8.649074">
        <ele>75.688</ele>
        <time>2019-04-30T16:08:08Z</time>
      </trkpt>
      <trkpt lat="42.496488" lon="-8.649102">
        <ele>75.624</ele>
        <time>2019-04-30T16:08:11Z</time>
      </trkpt>
      <trkpt lat="42.496507" lon="-8.649109">
        <ele>75.626</ele>
        <time>2019-04-30T16:08:12Z</time>
      </trkpt>
      <trkpt lat="42.496608" lon="-8.649143">
        <ele>76.008</ele>
        <time>2019-04-30T16:08:18Z</time>
      </trkpt>
      <trkpt lat="42.496622" lon="-8.649138">
        <ele>76.021</ele>
        <time>2019-04-30T16:08:19Z</time>
      </trkpt>
      <trkpt lat="42.496639" lon="-8.649130">
        <ele>76.024</ele>
        <time>2019-04-30T16:08:20Z</time>
      </trkpt>
      <trkpt lat="42.496846" lon="-8.649090">
        <ele>81.360</ele>
        <time>2019-04-30T16:08:32Z</time>
      </trkpt>
      <trkpt lat="42.497038" lon="-8.649034">
        <ele>88.528</ele>
        <time>2019-04-30T16:08:43Z</time>
      </trkpt>
      <trkpt lat="42.497230" lon="-8.648963">
        <ele>90.026</ele>
        <time>2019-04-30T16:08:54Z</time>
      </trkpt>
      <trkpt lat="42.497457" lon="-8.648899">
        <ele>92.438</ele>
        <time>2019-04-30T16:09:05Z</time>
      </trkpt>
      <trkpt lat="42.497631" lon="-8.648953">
        <ele>92.988</ele>
        <time>2019-04-30T16:09:15Z</time>
      </trkpt>
      <trkpt lat="42.497779" lon="-8.649038">
        <ele>93.872</ele>
        <time>2019-04-30T16:09:28Z</time>
      </trkpt>
      <trkpt lat="42.497826" lon="-8.649076">
        <ele>94.391</ele>
        <time>2019-04-30T16:09:32Z</time>
      </trkpt>
      <trkpt lat="42.497841" lon="-8.649082">
        <ele>94.381</ele>
        <time>2019-04-30T16:09:33Z</time>
      </trkpt>
      <trkpt lat="42.497984" lon="-8.649140">
        <ele>93.819</ele>
        <time>2019-04-30T16:09:43Z</time>
      </trkpt>
      <trkpt lat="42.498131" lon="-8.649135">
        <ele>96.708</ele>
        <time>2019-04-30T16:09:53Z</time>
      </trkpt>
      <trkpt lat="42.498320" lon="-8.649149">
        <ele>100.652</ele>
        <time>2019-04-30T16:10:08Z</time>
      </trkpt>
      <trkpt lat="42.498486" lon="-8.649191">
        <ele>101.555</ele>
        <time>2019-04-30T16:10:19Z</time>
      </trkpt>
      <trkpt lat="42.498570" lon="-8.649171">
        <ele>99.141</ele>
        <time>2019-04-30T16:10:31Z</time>
      </trkpt>
      <trkpt lat="42.498573" lon="-8.649175">
        <ele>102.029</ele>
        <time>2019-04-30T16:10:52Z</time>
      </trkpt>
      <trkpt lat="42.498591" lon="-8.649186">
        <ele>102.567</ele>
        <time>2019-04-30T16:10:53Z</time>
      </trkpt>
      <trkpt lat="42.498611" lon="-8.649188">
        <ele>103.029</ele>
        <time>2019-04-30T16:10:54Z</time>
      </trkpt>
      <trkpt lat="42.498628" lon="-8.649190">
        <ele>103.049</ele>
        <time>2019-04-30T16:10:55Z</time>
      </trkpt>
      <trkpt lat="42.498644" lon="-8.649199">
        <ele>103.013</ele>
        <time>2019-04-30T16:10:56Z</time>
      </trkpt>
      <trkpt lat="42.498656" lon="-8.649211">
        <ele>103.465</ele>
        <time>2019-04-30T16:10:57Z</time>
      </trkpt>
      <trkpt lat="42.498673" lon="-8.649223">
        <ele>103.468</ele>
        <time>2019-04-30T16:10:58Z</time>
      </trkpt>
      <trkpt lat="42.498688" lon="-8.649233">
        <ele>103.414</ele>
        <time>2019-04-30T16:10:59Z</time>
      </trkpt>
      <trkpt lat="42.498706" lon="-8.649241">
        <ele>103.908</ele>
        <time>2019-04-30T16:11:00Z</time>
      </trkpt>
      <trkpt lat="42.498728" lon="-8.649254">
        <ele>104.489</ele>
        <time>2019-04-30T16:11:01Z</time>
      </trkpt>
      <trkpt lat="42.498751" lon="-8.649268">
        <ele>103.962</ele>
        <time>2019-04-30T16:11:02Z</time>
      </trkpt>
      <trkpt lat="42.498894" lon="-8.649342">
        <ele>103.418</ele>
        <time>2019-04-30T16:11:08Z</time>
      </trkpt>
      <trkpt lat="42.498920" lon="-8.649355">
        <ele>103.456</ele>
        <time>2019-04-30T16:11:09Z</time>
      </trkpt>
      <trkpt lat="42.498943" lon="-8.649367">
        <ele>103.094</ele>
        <time>2019-04-30T16:11:10Z</time>
      </trkpt>
      <trkpt lat="42.498965" lon="-8.649379">
        <ele>103.446</ele>
        <time>2019-04-30T16:11:11Z</time>
      </trkpt>
      <trkpt lat="42.498988" lon="-8.649391">
        <ele>103.036</ele>
        <time>2019-04-30T16:11:12Z</time>
      </trkpt>
      <trkpt lat="42.499011" lon="-8.649401">
        <ele>103.050</ele>
        <time>2019-04-30T16:11:13Z</time>
      </trkpt>
      <trkpt lat="42.499307" lon="-8.649560">
        <ele>102.538</ele>
        <time>2019-04-30T16:11:27Z</time>
      </trkpt>
      <trkpt lat="42.499515" lon="-8.649607">
        <ele>104.970</ele>
        <time>2019-04-30T16:11:38Z</time>
      </trkpt>
      <trkpt lat="42.499527" lon="-8.649588">
        <ele>104.917</ele>
        <time>2019-04-30T16:11:39Z</time>
      </trkpt>
      <trkpt lat="42.499543" lon="-8.649500">
        <ele>104.908</ele>
        <time>2019-04-30T16:11:43Z</time>
      </trkpt>
      <trkpt lat="42.499550" lon="-8.649488">
        <ele>104.946</ele>
        <time>2019-04-30T16:11:44Z</time>
      </trkpt>
      <trkpt lat="42.499629" lon="-8.649438">
        <ele>103.959</ele>
        <time>2019-04-30T16:11:51Z</time>
      </trkpt>
      <trkpt lat="42.499642" lon="-8.649450">
        <ele>103.985</ele>
        <time>2019-04-30T16:11:52Z</time>
      </trkpt>
      <trkpt lat="42.499654" lon="-8.649458">
        <ele>103.983</ele>
        <time>2019-04-30T16:11:53Z</time>
      </trkpt>
      <trkpt lat="42.499668" lon="-8.649466">
        <ele>103.981</ele>
        <time>2019-04-30T16:11:54Z</time>
      </trkpt>
      <trkpt lat="42.499683" lon="-8.649468">
        <ele>104.453</ele>
        <time>2019-04-30T16:11:55Z</time>
      </trkpt>
      <trkpt lat="42.499700" lon="-8.649458">
        <ele>104.453</ele>
        <time>2019-04-30T16:11:56Z</time>
      </trkpt>
      <trkpt lat="42.499714" lon="-8.649449">
        <ele>104.447</ele>
        <time>2019-04-30T16:11:57Z</time>
      </trkpt>
      <trkpt lat="42.499728" lon="-8.649442">
        <ele>103.922</ele>
        <time>2019-04-30T16:11:58Z</time>
      </trkpt>
      <trkpt lat="42.499745" lon="-8.649442">
        <ele>103.962</ele>
        <time>2019-04-30T16:11:59Z</time>
      </trkpt>
      <trkpt lat="42.499762" lon="-8.649443">
        <ele>103.908</ele>
        <time>2019-04-30T16:12:00Z</time>
      </trkpt>
      <trkpt lat="42.499898" lon="-8.649422">
        <ele>104.908</ele>
        <time>2019-04-30T16:12:10Z</time>
      </trkpt>
      <trkpt lat="42.499912" lon="-8.649425">
        <ele>104.975</ele>
        <time>2019-04-30T16:12:11Z</time>
      </trkpt>
      <trkpt lat="42.499969" lon="-8.649445">
        <ele>105.478</ele>
        <time>2019-04-30T16:12:16Z</time>
      </trkpt>
      <trkpt lat="42.500019" lon="-8.649426">
        <ele>104.484</ele>
        <time>2019-04-30T16:12:20Z</time>
      </trkpt>
      <trkpt lat="42.500129" lon="-8.649422">
        <ele>104.952</ele>
        <time>2019-04-30T16:12:28Z</time>
      </trkpt>
      <trkpt lat="42.500233" lon="-8.649503">
        <ele>106.810</ele>
        <time>2019-04-30T16:12:38Z</time>
      </trkpt>
      <trkpt lat="42.500341" lon="-8.649566">
        <ele>107.822</ele>
        <time>2019-04-30T16:12:44Z</time>
      </trkpt>
      <trkpt lat="42.500530" lon="-8.649689">
        <ele>110.292</ele>
        <time>2019-04-30T16:12:58Z</time>
      </trkpt>
      <trkpt lat="42.500643" lon="-8.649771">
        <ele>114.086</ele>
        <time>2019-04-30T16:13:07Z</time>
      </trkpt>
      <trkpt lat="42.500820" lon="-8.649774">
        <ele>117.494</ele>
        <time>2019-04-30T16:13:19Z</time>
      </trkpt>
      <trkpt lat="42.500847" lon="-8.649772">
        <ele>117.957</ele>
        <time>2019-04-30T16:13:21Z</time>
      </trkpt>
      <trkpt lat="42.500949" lon="-8.649772">
        <ele>120.722</ele>
        <time>2019-04-30T16:13:29Z</time>
      </trkpt>
      <trkpt lat="42.501170" lon="-8.649718">
        <ele>122.708</ele>
        <time>2019-04-30T16:13:44Z</time>
      </trkpt>
      <trkpt lat="42.501332" lon="-8.649772">
        <ele>124.642</ele>
        <time>2019-04-30T16:13:54Z</time>
      </trkpt>
      <trkpt lat="42.501481" lon="-8.649892">
        <ele>125.585</ele>
        <time>2019-04-30T16:14:04Z</time>
      </trkpt>
      <trkpt lat="42.501553" lon="-8.649972">
        <ele>126.561</ele>
        <time>2019-04-30T16:14:11Z</time>
      </trkpt>
      <trkpt lat="42.501645" lon="-8.650046">
        <ele>126.529</ele>
        <time>2019-04-30T16:14:19Z</time>
      </trkpt>
      <trkpt lat="42.501809" lon="-8.650215">
        <ele>127.987</ele>
        <time>2019-04-30T16:14:32Z</time>
      </trkpt>
      <trkpt lat="42.501871" lon="-8.650262">
        <ele>127.559</ele>
        <time>2019-04-30T16:14:37Z</time>
      </trkpt>
      <trkpt lat="42.502005" lon="-8.650315">
        <ele>128.449</ele>
        <time>2019-04-30T16:14:44Z</time>
      </trkpt>
      <trkpt lat="42.502194" lon="-8.650465">
        <ele>127.013</ele>
        <time>2019-04-30T16:14:55Z</time>
      </trkpt>
      <trkpt lat="42.502513" lon="-8.650627">
        <ele>124.642</ele>
        <time>2019-04-30T16:15:08Z</time>
      </trkpt>
      <trkpt lat="42.502799" lon="-8.650775">
        <ele>127.522</ele>
        <time>2019-04-30T16:15:20Z</time>
      </trkpt>
      <trkpt lat="42.503062" lon="-8.650898">
        <ele>128.914</ele>
        <time>2019-04-30T16:15:30Z</time>
      </trkpt>
      <trkpt lat="42.503247" lon="-8.650930">
        <ele>130.408</ele>
        <time>2019-04-30T16:15:37Z</time>
      </trkpt>
      <trkpt lat="42.503380" lon="-8.650945">
        <ele>131.387</ele>
        <time>2019-04-30T16:15:42Z</time>
      </trkpt>
      <trkpt lat="42.503662" lon="-8.650957">
        <ele>134.220</ele>
        <time>2019-04-30T16:15:55Z</time>
      </trkpt>
      <trkpt lat="42.503760" lon="-8.650955">
        <ele>134.796</ele>
        <time>2019-04-30T16:16:07Z</time>
      </trkpt>
      <trkpt lat="42.503792" lon="-8.650935">
        <ele>131.844</ele>
        <time>2019-04-30T16:16:35Z</time>
      </trkpt>
      <trkpt lat="42.503914" lon="-8.650892">
        <ele>133.252</ele>
        <time>2019-04-30T16:16:48Z</time>
      </trkpt>
      <trkpt lat="42.504156" lon="-8.650710">
        <ele>131.864</ele>
        <time>2019-04-30T16:16:59Z</time>
      </trkpt>
      <trkpt lat="42.504363" lon="-8.650473">
        <ele>131.344</ele>
        <time>2019-04-30T16:17:12Z</time>
      </trkpt>
      <trkpt lat="42.504378" lon="-8.650467">
        <ele>130.898</ele>
        <time>2019-04-30T16:17:24Z</time>
      </trkpt>
      <trkpt lat="42.504399" lon="-8.650450">
        <ele>129.998</ele>
        <time>2019-04-30T16:17:34Z</time>
      </trkpt>
      <trkpt lat="42.504571" lon="-8.650194">
        <ele>127.515</ele>
        <time>2019-04-30T16:17:46Z</time>
      </trkpt>
      <trkpt lat="42.504668" lon="-8.650014">
        <ele>127.526</ele>
        <time>2019-04-30T16:17:51Z</time>
      </trkpt>
      <trkpt lat="42.504691" lon="-8.649955">
        <ele>127.008</ele>
        <time>2019-04-30T16:17:52Z</time>
      </trkpt>
      <trkpt lat="42.504807" lon="-8.649549">
        <ele>128.482</ele>
        <time>2019-04-30T16:18:01Z</time>
      </trkpt>
      <trkpt lat="42.504810" lon="-8.649554">
        <ele>129.415</ele>
        <time>2019-04-30T16:18:32Z</time>
      </trkpt>
      <trkpt lat="42.504809" lon="-8.649557">
        <ele>128.931</ele>
        <time>2019-04-30T16:18:58Z</time>
      </trkpt>
      <trkpt lat="42.504827" lon="-8.649558">
        <ele>128.999</ele>
        <time>2019-04-30T16:19:23Z</time>
      </trkpt>
      <trkpt lat="42.504832" lon="-8.649573">
        <ele>128.957</ele>
        <time>2019-04-30T16:19:24Z</time>
      </trkpt>
      <trkpt lat="42.504832" lon="-8.649595">
        <ele>129.449</ele>
        <time>2019-04-30T16:19:25Z</time>
      </trkpt>
      <trkpt lat="42.504831" lon="-8.649623">
        <ele>129.499</ele>
        <time>2019-04-30T16:19:26Z</time>
      </trkpt>
      <trkpt lat="42.504833" lon="-8.649656">
        <ele>129.433</ele>
        <time>2019-04-30T16:19:27Z</time>
      </trkpt>
      <trkpt lat="42.504839" lon="-8.649688">
        <ele>129.495</ele>
        <time>2019-04-30T16:19:28Z</time>
      </trkpt>
      <trkpt lat="42.504854" lon="-8.649724">
        <ele>129.449</ele>
        <time>2019-04-30T16:19:29Z</time>
      </trkpt>
      <trkpt lat="42.504877" lon="-8.649760">
        <ele>129.423</ele>
        <time>2019-04-30T16:19:30Z</time>
      </trkpt>
      <trkpt lat="42.504912" lon="-8.649787">
        <ele>128.908</ele>
        <time>2019-04-30T16:19:31Z</time>
      </trkpt>
      <trkpt lat="42.504961" lon="-8.649783">
        <ele>128.462</ele>
        <time>2019-04-30T16:19:32Z</time>
      </trkpt>
      <trkpt lat="42.505024" lon="-8.649747">
        <ele>127.955</ele>
        <time>2019-04-30T16:19:33Z</time>
      </trkpt>
      <trkpt lat="42.505094" lon="-8.649702">
        <ele>127.911</ele>
        <time>2019-04-30T16:19:34Z</time>
      </trkpt>
      <trkpt lat="42.505566" lon="-8.649400">
        <ele>125.569</ele>
        <time>2019-04-30T16:19:40Z</time>
      </trkpt>
      <trkpt lat="42.505650" lon="-8.649357">
        <ele>125.567</ele>
        <time>2019-04-30T16:19:41Z</time>
      </trkpt>
      <trkpt lat="42.505732" lon="-8.649324">
        <ele>125.119</ele>
        <time>2019-04-30T16:19:42Z</time>
      </trkpt>
      <trkpt lat="42.506482" lon="-8.649124">
        <ele>120.739</ele>
        <time>2019-04-30T16:19:51Z</time>
      </trkpt>
      <trkpt lat="42.506554" lon="-8.649094">
        <ele>120.343</ele>
        <time>2019-04-30T16:19:52Z</time>
      </trkpt>
      <trkpt lat="42.506732" lon="-8.649045">
        <ele>117.415</ele>
        <time>2019-04-30T16:19:58Z</time>
      </trkpt>
      <trkpt lat="42.506730" lon="-8.649052">
        <ele>112.665</ele>
        <time>2019-04-30T16:20:22Z</time>
      </trkpt>
      <trkpt lat="42.506910" lon="-8.649012">
        <ele>110.611</ele>
        <time>2019-04-30T16:20:34Z</time>
      </trkpt>
      <trkpt lat="42.507073" lon="-8.648977">
        <ele>109.708</ele>
        <time>2019-04-30T16:20:38Z</time>
      </trkpt>
      <trkpt lat="42.507118" lon="-8.648962">
        <ele>109.274</ele>
        <time>2019-04-30T16:20:39Z</time>
      </trkpt>
      <trkpt lat="42.507641" lon="-8.648871">
        <ele>106.827</ele>
        <time>2019-04-30T16:20:48Z</time>
      </trkpt>
      <trkpt lat="42.507702" lon="-8.648895">
        <ele>106.313</ele>
        <time>2019-04-30T16:20:49Z</time>
      </trkpt>
      <trkpt lat="42.507764" lon="-8.648918">
        <ele>105.891</ele>
        <time>2019-04-30T16:20:50Z</time>
      </trkpt>
      <trkpt lat="42.507826" lon="-8.648930">
        <ele>105.859</ele>
        <time>2019-04-30T16:20:51Z</time>
      </trkpt>
      <trkpt lat="42.507884" lon="-8.648936">
        <ele>105.421</ele>
        <time>2019-04-30T16:20:52Z</time>
      </trkpt>
      <trkpt lat="42.507933" lon="-8.648944">
        <ele>105.471</ele>
        <time>2019-04-30T16:20:53Z</time>
      </trkpt>
      <trkpt lat="42.507969" lon="-8.648957">
        <ele>104.925</ele>
        <time>2019-04-30T16:20:54Z</time>
      </trkpt>
      <trkpt lat="42.508077" lon="-8.648996">
        <ele>103.917</ele>
        <time>2019-04-30T16:21:02Z</time>
      </trkpt>
      <trkpt lat="42.508093" lon="-8.648998">
        <ele>104.487</ele>
        <time>2019-04-30T16:21:03Z</time>
      </trkpt>
      <trkpt lat="42.508111" lon="-8.649006">
        <ele>104.415</ele>
        <time>2019-04-30T16:21:04Z</time>
      </trkpt>
      <trkpt lat="42.508212" lon="-8.649044">
        <ele>105.808</ele>
        <time>2019-04-30T16:21:12Z</time>
      </trkpt>
      <trkpt lat="42.508224" lon="-8.649049">
        <ele>105.824</ele>
        <time>2019-04-30T16:21:13Z</time>
      </trkpt>
      <trkpt lat="42.508240" lon="-8.649062">
        <ele>106.897</ele>
        <time>2019-04-30T16:21:15Z</time>
      </trkpt>
      <trkpt lat="42.508252" lon="-8.649075">
        <ele>107.383</ele>
        <time>2019-04-30T16:21:16Z</time>
      </trkpt>
      <trkpt lat="42.508359" lon="-8.649111">
        <ele>109.731</ele>
        <time>2019-04-30T16:21:22Z</time>
      </trkpt>
      <trkpt lat="42.508374" lon="-8.649118">
        <ele>110.299</ele>
        <time>2019-04-30T16:21:23Z</time>
      </trkpt>
      <trkpt lat="42.508524" lon="-8.649147">
        <ele>113.581</ele>
        <time>2019-04-30T16:21:32Z</time>
      </trkpt>
      <trkpt lat="42.508545" lon="-8.649148">
        <ele>113.521</ele>
        <time>2019-04-30T16:21:33Z</time>
      </trkpt>
      <trkpt lat="42.508568" lon="-8.649146">
        <ele>114.045</ele>
        <time>2019-04-30T16:21:34Z</time>
      </trkpt>
      <trkpt lat="42.508592" lon="-8.649148">
        <ele>114.542</ele>
        <time>2019-04-30T16:21:35Z</time>
      </trkpt>
      <trkpt lat="42.508618" lon="-8.649152">
        <ele>115.022</ele>
        <time>2019-04-30T16:21:36Z</time>
      </trkpt>
      <trkpt lat="42.508644" lon="-8.649161">
        <ele>115.914</ele>
        <time>2019-04-30T16:21:37Z</time>
      </trkpt>
      <trkpt lat="42.508792" lon="-8.649212">
        <ele>118.808</ele>
        <time>2019-04-30T16:21:43Z</time>
      </trkpt>
      <trkpt lat="42.508817" lon="-8.649210">
        <ele>118.877</ele>
        <time>2019-04-30T16:21:44Z</time>
      </trkpt>
      <trkpt lat="42.508847" lon="-8.649216">
        <ele>119.350</ele>
        <time>2019-04-30T16:21:45Z</time>
      </trkpt>
      <trkpt lat="42.508886" lon="-8.649224">
        <ele>119.336</ele>
        <time>2019-04-30T16:21:46Z</time>
      </trkpt>
      <trkpt lat="42.508925" lon="-8.649233">
        <ele>119.324</ele>
        <time>2019-04-30T16:21:47Z</time>
      </trkpt>
      <trkpt lat="42.508977" lon="-8.649241">
        <ele>119.392</ele>
        <time>2019-04-30T16:21:48Z</time>
      </trkpt>
      <trkpt lat="42.509033" lon="-8.649250">
        <ele>119.334</ele>
        <time>2019-04-30T16:21:49Z</time>
      </trkpt>
      <trkpt lat="42.509168" lon="-8.649249">
        <ele>119.344</ele>
        <time>2019-04-30T16:21:51Z</time>
      </trkpt>
      <trkpt lat="42.509885" lon="-8.649145">
        <ele>115.538</ele>
        <time>2019-04-30T16:21:58Z</time>
      </trkpt>
      <trkpt lat="42.510004" lon="-8.649091">
        <ele>115.065</ele>
        <time>2019-04-30T16:21:59Z</time>
      </trkpt>
      <trkpt lat="42.510120" lon="-8.649029">
        <ele>114.068</ele>
        <time>2019-04-30T16:22:00Z</time>
      </trkpt>
      <trkpt lat="42.510222" lon="-8.648964">
        <ele>113.514</ele>
        <time>2019-04-30T16:22:01Z</time>
      </trkpt>
      <trkpt lat="42.510311" lon="-8.648894">
        <ele>113.008</ele>
        <time>2019-04-30T16:22:02Z</time>
      </trkpt>
      <trkpt lat="42.510381" lon="-8.648829">
        <ele>112.639</ele>
        <time>2019-04-30T16:22:03Z</time>
      </trkpt>
      <trkpt lat="42.510445" lon="-8.648777">
        <ele>112.612</ele>
        <time>2019-04-30T16:22:04Z</time>
      </trkpt>
      <trkpt lat="42.510503" lon="-8.648758">
        <ele>112.128</ele>
        <time>2019-04-30T16:22:05Z</time>
      </trkpt>
      <trkpt lat="42.510556" lon="-8.648763">
        <ele>111.636</ele>
        <time>2019-04-30T16:22:06Z</time>
      </trkpt>
      <trkpt lat="42.510617" lon="-8.648795">
        <ele>109.764</ele>
        <time>2019-04-30T16:22:07Z</time>
      </trkpt>
      <trkpt lat="42.510669" lon="-8.648851">
        <ele>108.276</ele>
        <time>2019-04-30T16:22:08Z</time>
      </trkpt>
      <trkpt lat="42.510702" lon="-8.648927">
        <ele>107.336</ele>
        <time>2019-04-30T16:22:09Z</time>
      </trkpt>
      <trkpt lat="42.510729" lon="-8.649011">
        <ele>106.880</ele>
        <time>2019-04-30T16:22:10Z</time>
      </trkpt>
      <trkpt lat="42.510760" lon="-8.649104">
        <ele>105.884</ele>
        <time>2019-04-30T16:22:11Z</time>
      </trkpt>
      <trkpt lat="42.510791" lon="-8.649211">
        <ele>104.907</ele>
        <time>2019-04-30T16:22:12Z</time>
      </trkpt>
      <trkpt lat="42.510958" lon="-8.649627">
        <ele>98.617</ele>
        <time>2019-04-30T16:22:16Z</time>
      </trkpt>
      <trkpt lat="42.511000" lon="-8.649707">
        <ele>97.208</ele>
        <time>2019-04-30T16:22:17Z</time>
      </trkpt>
      <trkpt lat="42.511055" lon="-8.649778">
        <ele>95.741</ele>
        <time>2019-04-30T16:22:18Z</time>
      </trkpt>
      <trkpt lat="42.511111" lon="-8.649839">
        <ele>94.894</ele>
        <time>2019-04-30T16:22:19Z</time>
      </trkpt>
      <trkpt lat="42.511164" lon="-8.649892">
        <ele>93.320</ele>
        <time>2019-04-30T16:22:20Z</time>
      </trkpt>
      <trkpt lat="42.511353" lon="-8.650116">
        <ele>84.738</ele>
        <time>2019-04-30T16:22:26Z</time>
      </trkpt>
      <trkpt lat="42.511384" lon="-8.650125">
        <ele>83.766</ele>
        <time>2019-04-30T16:22:27Z</time>
      </trkpt>
      <trkpt lat="42.511414" lon="-8.650158">
        <ele>82.848</ele>
        <time>2019-04-30T16:22:28Z</time>
      </trkpt>
      <trkpt lat="42.511428" lon="-8.650210">
        <ele>82.398</ele>
        <time>2019-04-30T16:22:29Z</time>
      </trkpt>
      <trkpt lat="42.511430" lon="-8.650261">
        <ele>81.852</ele>
        <time>2019-04-30T16:22:30Z</time>
      </trkpt>
      <trkpt lat="42.511433" lon="-8.650308">
        <ele>81.399</ele>
        <time>2019-04-30T16:22:31Z</time>
      </trkpt>
      <trkpt lat="42.511443" lon="-8.650351">
        <ele>80.407</ele>
        <time>2019-04-30T16:22:32Z</time>
      </trkpt>
      <trkpt lat="42.511456" lon="-8.650388">
        <ele>79.927</ele>
        <time>2019-04-30T16:22:33Z</time>
      </trkpt>
      <trkpt lat="42.511469" lon="-8.650431">
        <ele>78.908</ele>
        <time>2019-04-30T16:22:34Z</time>
      </trkpt>
      <trkpt lat="42.511485" lon="-8.650478">
        <ele>78.412</ele>
        <time>2019-04-30T16:22:35Z</time>
      </trkpt>
      <trkpt lat="42.511511" lon="-8.650508">
        <ele>77.035</ele>
        <time>2019-04-30T16:22:36Z</time>
      </trkpt>
      <trkpt lat="42.511548" lon="-8.650512">
        <ele>76.031</ele>
        <time>2019-04-30T16:22:37Z</time>
      </trkpt>
      <trkpt lat="42.511590" lon="-8.650486">
        <ele>75.129</ele>
        <time>2019-04-30T16:22:38Z</time>
      </trkpt>
      <trkpt lat="42.511627" lon="-8.650441">
        <ele>74.197</ele>
        <time>2019-04-30T16:22:39Z</time>
      </trkpt>
      <trkpt lat="42.511655" lon="-8.650393">
        <ele>73.619</ele>
        <time>2019-04-30T16:22:40Z</time>
      </trkpt>
      <trkpt lat="42.511684" lon="-8.650350">
        <ele>73.249</ele>
        <time>2019-04-30T16:22:41Z</time>
      </trkpt>
      <trkpt lat="42.511719" lon="-8.650316">
        <ele>73.233</ele>
        <time>2019-04-30T16:22:42Z</time>
      </trkpt>
      <trkpt lat="42.511758" lon="-8.650286">
        <ele>72.732</ele>
        <time>2019-04-30T16:22:43Z</time>
      </trkpt>
      <trkpt lat="42.512018" lon="-8.650137">
        <ele>72.292</ele>
        <time>2019-04-30T16:22:49Z</time>
      </trkpt>
      <trkpt lat="42.512429" lon="-8.650041">
        <ele>71.211</ele>
        <time>2019-04-30T16:22:57Z</time>
      </trkpt>
      <trkpt lat="42.512477" lon="-8.650044">
        <ele>71.208</ele>
        <time>2019-04-30T16:22:58Z</time>
      </trkpt>
      <trkpt lat="42.512527" lon="-8.650053">
        <ele>70.726</ele>
        <time>2019-04-30T16:22:59Z</time>
      </trkpt>
      <trkpt lat="42.512581" lon="-8.650053">
        <ele>70.759</ele>
        <time>2019-04-30T16:23:00Z</time>
      </trkpt>
      <trkpt lat="42.512636" lon="-8.650043">
        <ele>70.365</ele>
        <time>2019-04-30T16:23:01Z</time>
      </trkpt>
      <trkpt lat="42.512693" lon="-8.650030">
        <ele>69.853</ele>
        <time>2019-04-30T16:23:02Z</time>
      </trkpt>
      <trkpt lat="42.513189" lon="-8.649749">
        <ele>69.871</ele>
        <time>2019-04-30T16:23:12Z</time>
      </trkpt>
      <trkpt lat="42.513381" lon="-8.649457">
        <ele>71.753</ele>
        <time>2019-04-30T16:23:22Z</time>
      </trkpt>
      <trkpt lat="42.513658" lon="-8.649163">
        <ele>70.773</ele>
        <time>2019-04-30T16:23:33Z</time>
      </trkpt>
      <trkpt lat="42.514047" lon="-8.648958">
        <ele>71.737</ele>
        <time>2019-04-30T16:23:45Z</time>
      </trkpt>
      <trkpt lat="42.514500" lon="-8.648709">
        <ele>74.175</ele>
        <time>2019-04-30T16:23:58Z</time>
      </trkpt>
      <trkpt lat="42.515120" lon="-8.648429">
        <ele>77.528</ele>
        <time>2019-04-30T16:24:15Z</time>
      </trkpt>
      <trkpt lat="42.515258" lon="-8.648358">
        <ele>77.020</ele>
        <time>2019-04-30T16:24:18Z</time>
      </trkpt>
      <trkpt lat="42.515996" lon="-8.647779">
        <ele>74.108</ele>
        <time>2019-04-30T16:24:33Z</time>
      </trkpt>
      <trkpt lat="42.516317" lon="-8.647553">
        <ele>74.650</ele>
        <time>2019-04-30T16:24:39Z</time>
      </trkpt>
      <trkpt lat="42.516373" lon="-8.647530">
        <ele>74.633</ele>
        <time>2019-04-30T16:24:40Z</time>
      </trkpt>
      <trkpt lat="42.516429" lon="-8.647517">
        <ele>74.629</ele>
        <time>2019-04-30T16:24:41Z</time>
      </trkpt>
      <trkpt lat="42.516684" lon="-8.647455">
        <ele>74.697</ele>
        <time>2019-04-30T16:24:46Z</time>
      </trkpt>
      <trkpt lat="42.517400" lon="-8.647001">
        <ele>74.145</ele>
        <time>2019-04-30T16:25:01Z</time>
      </trkpt>
      <trkpt lat="42.517496" lon="-8.646928">
        <ele>74.137</ele>
        <time>2019-04-30T16:25:03Z</time>
      </trkpt>
      <trkpt lat="42.517539" lon="-8.646883">
        <ele>74.137</ele>
        <time>2019-04-30T16:25:04Z</time>
      </trkpt>
      <trkpt lat="42.518104" lon="-8.646143">
        <ele>71.771</ele>
        <time>2019-04-30T16:25:17Z</time>
      </trkpt>
      <trkpt lat="42.518139" lon="-8.646073">
        <ele>71.751</ele>
        <time>2019-04-30T16:25:18Z</time>
      </trkpt>
      <trkpt lat="42.518360" lon="-8.645564">
        <ele>70.701</ele>
        <time>2019-04-30T16:25:25Z</time>
      </trkpt>
      <trkpt lat="42.518397" lon="-8.645520">
        <ele>71.211</ele>
        <time>2019-04-30T16:25:26Z</time>
      </trkpt>
      <trkpt lat="42.518443" lon="-8.645494">
        <ele>71.208</ele>
        <time>2019-04-30T16:25:27Z</time>
      </trkpt>
      <trkpt lat="42.518721" lon="-8.645393">
        <ele>72.278</ele>
        <time>2019-04-30T16:25:36Z</time>
      </trkpt>
      <trkpt lat="42.518745" lon="-8.645398">
        <ele>71.251</ele>
        <time>2019-04-30T16:25:47Z</time>
      </trkpt>
      <trkpt lat="42.518964" lon="-8.645417">
        <ele>70.377</ele>
        <time>2019-04-30T16:25:56Z</time>
      </trkpt>
      <trkpt lat="42.519286" lon="-8.645407">
        <ele>68.395</ele>
        <time>2019-04-30T16:26:09Z</time>
      </trkpt>
      <trkpt lat="42.519411" lon="-8.645401">
        <ele>67.973</ele>
        <time>2019-04-30T16:26:12Z</time>
      </trkpt>
      <trkpt lat="42.519649" lon="-8.645404">
        <ele>65.995</ele>
        <time>2019-04-30T16:26:17Z</time>
      </trkpt>
      <trkpt lat="42.519753" lon="-8.645386">
        <ele>65.595</ele>
        <time>2019-04-30T16:26:19Z</time>
      </trkpt>
      <trkpt lat="42.519804" lon="-8.645363">
        <ele>65.519</ele>
        <time>2019-04-30T16:26:20Z</time>
      </trkpt>
      <trkpt lat="42.519854" lon="-8.645331">
        <ele>65.094</ele>
        <time>2019-04-30T16:26:21Z</time>
      </trkpt>
      <trkpt lat="42.519903" lon="-8.645294">
        <ele>65.057</ele>
        <time>2019-04-30T16:26:22Z</time>
      </trkpt>
      <trkpt lat="42.519948" lon="-8.645251">
        <ele>65.022</ele>
        <time>2019-04-30T16:26:23Z</time>
      </trkpt>
      <trkpt lat="42.519991" lon="-8.645206">
        <ele>65.008</ele>
        <time>2019-04-30T16:26:24Z</time>
      </trkpt>
      <trkpt lat="42.520032" lon="-8.645154">
        <ele>64.562</ele>
        <time>2019-04-30T16:26:25Z</time>
      </trkpt>
      <trkpt lat="42.520071" lon="-8.645101">
        <ele>64.515</ele>
        <time>2019-04-30T16:26:26Z</time>
      </trkpt>
      <trkpt lat="42.520438" lon="-8.644706">
        <ele>63.111</ele>
        <time>2019-04-30T16:26:34Z</time>
      </trkpt>
      <trkpt lat="42.520496" lon="-8.644674">
        <ele>63.129</ele>
        <time>2019-04-30T16:26:35Z</time>
      </trkpt>
      <trkpt lat="42.520613" lon="-8.644627">
        <ele>62.667</ele>
        <time>2019-04-30T16:26:37Z</time>
      </trkpt>
      <trkpt lat="42.520729" lon="-8.644610">
        <ele>62.159</ele>
        <time>2019-04-30T16:26:39Z</time>
      </trkpt>
      <trkpt lat="42.520786" lon="-8.644612">
        <ele>61.619</ele>
        <time>2019-04-30T16:26:40Z</time>
      </trkpt>
      <trkpt lat="42.520840" lon="-8.644622">
        <ele>61.613</ele>
        <time>2019-04-30T16:26:41Z</time>
      </trkpt>
      <trkpt lat="42.520892" lon="-8.644636">
        <ele>61.191</ele>
        <time>2019-04-30T16:26:42Z</time>
      </trkpt>
      <trkpt lat="42.520941" lon="-8.644660">
        <ele>61.181</ele>
        <time>2019-04-30T16:26:43Z</time>
      </trkpt>
      <trkpt lat="42.520986" lon="-8.644693">
        <ele>61.119</ele>
        <time>2019-04-30T16:26:44Z</time>
      </trkpt>
      <trkpt lat="42.521023" lon="-8.644737">
        <ele>61.108</ele>
        <time>2019-04-30T16:26:45Z</time>
      </trkpt>
      <trkpt lat="42.521057" lon="-8.644786">
        <ele>60.772</ele>
        <time>2019-04-30T16:26:46Z</time>
      </trkpt>
      <trkpt lat="42.521131" lon="-8.644882">
        <ele>60.755</ele>
        <time>2019-04-30T16:26:48Z</time>
      </trkpt>
      <trkpt lat="42.521174" lon="-8.644920">
        <ele>60.251</ele>
        <time>2019-04-30T16:26:49Z</time>
      </trkpt>
      <trkpt lat="42.521221" lon="-8.644953">
        <ele>59.789</ele>
        <time>2019-04-30T16:26:50Z</time>
      </trkpt>
      <trkpt lat="42.521321" lon="-8.645009">
        <ele>59.287</ele>
        <time>2019-04-30T16:26:52Z</time>
      </trkpt>
      <trkpt lat="42.521372" lon="-8.645029">
        <ele>59.249</ele>
        <time>2019-04-30T16:26:53Z</time>
      </trkpt>
      <trkpt lat="42.521506" lon="-8.645086">
        <ele>58.349</ele>
        <time>2019-04-30T16:26:56Z</time>
      </trkpt>
      <trkpt lat="42.521551" lon="-8.645096">
        <ele>58.363</ele>
        <time>2019-04-30T16:26:57Z</time>
      </trkpt>
      <trkpt lat="42.521599" lon="-8.645102">
        <ele>58.347</ele>
        <time>2019-04-30T16:26:58Z</time>
      </trkpt>
      <trkpt lat="42.521693" lon="-8.645108">
        <ele>57.829</ele>
        <time>2019-04-30T16:27:00Z</time>
      </trkpt>
      <trkpt lat="42.521785" lon="-8.645108">
        <ele>57.321</ele>
        <time>2019-04-30T16:27:02Z</time>
      </trkpt>
      <trkpt lat="42.521831" lon="-8.645118">
        <ele>57.308</ele>
        <time>2019-04-30T16:27:03Z</time>
      </trkpt>
      <trkpt lat="42.521875" lon="-8.645129">
        <ele>57.887</ele>
        <time>2019-04-30T16:27:04Z</time>
      </trkpt>
      <trkpt lat="42.521919" lon="-8.645132">
        <ele>57.820</ele>
        <time>2019-04-30T16:27:05Z</time>
      </trkpt>
      <trkpt lat="42.521962" lon="-8.645130">
        <ele>58.336</ele>
        <time>2019-04-30T16:27:06Z</time>
      </trkpt>
      <trkpt lat="42.522005" lon="-8.645131">
        <ele>58.744</ele>
        <time>2019-04-30T16:27:07Z</time>
      </trkpt>
      <trkpt lat="42.522044" lon="-8.645141">
        <ele>58.772</ele>
        <time>2019-04-30T16:27:08Z</time>
      </trkpt>
      <trkpt lat="42.522085" lon="-8.645150">
        <ele>59.244</ele>
        <time>2019-04-30T16:27:09Z</time>
      </trkpt>
      <trkpt lat="42.522435" lon="-8.645282">
        <ele>62.184</ele>
        <time>2019-04-30T16:27:21Z</time>
      </trkpt>
      <trkpt lat="42.522732" lon="-8.645508">
        <ele>65.558</ele>
        <time>2019-04-30T16:27:34Z</time>
      </trkpt>
      <trkpt lat="42.523073" lon="-8.645670">
        <ele>65.517</ele>
        <time>2019-04-30T16:27:47Z</time>
      </trkpt>
      <trkpt lat="42.523383" lon="-8.645836">
        <ele>71.287</ele>
        <time>2019-04-30T16:28:00Z</time>
      </trkpt>
      <trkpt lat="42.523498" lon="-8.646155">
        <ele>78.015</ele>
        <time>2019-04-30T16:28:12Z</time>
      </trkpt>
      <trkpt lat="42.523499" lon="-8.646182">
        <ele>78.408</ele>
        <time>2019-04-30T16:28:13Z</time>
      </trkpt>
      <trkpt lat="42.523492" lon="-8.646213">
        <ele>78.924</ele>
        <time>2019-04-30T16:28:14Z</time>
      </trkpt>
      <trkpt lat="42.523480" lon="-8.646246">
        <ele>79.977</ele>
        <time>2019-04-30T16:28:15Z</time>
      </trkpt>
      <trkpt lat="42.523465" lon="-8.646279">
        <ele>80.463</ele>
        <time>2019-04-30T16:28:16Z</time>
      </trkpt>
      <trkpt lat="42.523450" lon="-8.646309">
        <ele>81.321</ele>
        <time>2019-04-30T16:28:17Z</time>
      </trkpt>
      <trkpt lat="42.523373" lon="-8.646636">
        <ele>82.899</ele>
        <time>2019-04-30T16:28:30Z</time>
      </trkpt>
      <trkpt lat="42.523380" lon="-8.646652">
        <ele>82.811</ele>
        <time>2019-04-30T16:28:31Z</time>
      </trkpt>
      <trkpt lat="42.523412" lon="-8.646705">
        <ele>82.361</ele>
        <time>2019-04-30T16:28:34Z</time>
      </trkpt>
      <trkpt lat="42.523433" lon="-8.646705">
        <ele>81.835</ele>
        <time>2019-04-30T16:28:35Z</time>
      </trkpt>
      <trkpt lat="42.523452" lon="-8.646695">
        <ele>81.839</ele>
        <time>2019-04-30T16:28:36Z</time>
      </trkpt>
      <trkpt lat="42.523689" lon="-8.646511">
        <ele>80.401</ele>
        <time>2019-04-30T16:28:50Z</time>
      </trkpt>
      <trkpt lat="42.523922" lon="-8.646407">
        <ele>79.921</ele>
        <time>2019-04-30T16:29:06Z</time>
      </trkpt>
      <trkpt lat="42.523925" lon="-8.646421">
        <ele>79.908</ele>
        <time>2019-04-30T16:29:07Z</time>
      </trkpt>
      <trkpt lat="42.523914" lon="-8.646433">
        <ele>79.956</ele>
        <time>2019-04-30T16:29:08Z</time>
      </trkpt>
      <trkpt lat="42.523900" lon="-8.646438">
        <ele>79.979</ele>
        <time>2019-04-30T16:29:09Z</time>
      </trkpt>
      <trkpt lat="42.523884" lon="-8.646443">
        <ele>79.925</ele>
        <time>2019-04-30T16:29:10Z</time>
      </trkpt>
      <trkpt lat="42.523871" lon="-8.646449">
        <ele>79.983</ele>
        <time>2019-04-30T16:29:11Z</time>
      </trkpt>
      <trkpt lat="42.523859" lon="-8.646450">
        <ele>79.981</ele>
        <time>2019-04-30T16:29:12Z</time>
      </trkpt>
      <trkpt lat="42.523847" lon="-8.646431">
        <ele>79.933</ele>
        <time>2019-04-30T16:29:14Z</time>
      </trkpt>
      <trkpt lat="42.523854" lon="-8.646386">
        <ele>79.453</ele>
        <time>2019-04-30T16:29:17Z</time>
      </trkpt>
      <trkpt lat="42.523867" lon="-8.646377">
        <ele>79.417</ele>
        <time>2019-04-30T16:29:18Z</time>
      </trkpt>
      <trkpt lat="42.523881" lon="-8.646377">
        <ele>79.446</ele>
        <time>2019-04-30T16:29:19Z</time>
      </trkpt>
      <trkpt lat="42.523896" lon="-8.646384">
        <ele>79.488</ele>
        <time>2019-04-30T16:29:20Z</time>
      </trkpt>
      <trkpt lat="42.523913" lon="-8.646391">
        <ele>78.916</ele>
        <time>2019-04-30T16:29:21Z</time>
      </trkpt>
      <trkpt lat="42.524217" lon="-8.646481">
        <ele>76.008</ele>
        <time>2019-04-30T16:29:33Z</time>
      </trkpt>
      <trkpt lat="42.524481" lon="-8.646506">
        <ele>74.627</ele>
        <time>2019-04-30T16:29:40Z</time>
      </trkpt>
      <trkpt lat="42.524497" lon="-8.646467">
        <ele>74.150</ele>
        <time>2019-04-30T16:29:41Z</time>
      </trkpt>
      <trkpt lat="42.524502" lon="-8.646413">
        <ele>74.186</ele>
        <time>2019-04-30T16:29:42Z</time>
      </trkpt>
      <trkpt lat="42.524527" lon="-8.646148">
        <ele>74.164</ele>
        <time>2019-04-30T16:29:46Z</time>
      </trkpt>
      <trkpt lat="42.524546" lon="-8.646079">
        <ele>74.152</ele>
        <time>2019-04-30T16:29:47Z</time>
      </trkpt>
      <trkpt lat="42.524580" lon="-8.646019">
        <ele>73.624</ele>
        <time>2019-04-30T16:29:48Z</time>
      </trkpt>
      <trkpt lat="42.524627" lon="-8.645970">
        <ele>73.664</ele>
        <time>2019-04-30T16:29:49Z</time>
      </trkpt>
      <trkpt lat="42.524681" lon="-8.645932">
        <ele>73.658</ele>
        <time>2019-04-30T16:29:50Z</time>
      </trkpt>
      <trkpt lat="42.524736" lon="-8.645900">
        <ele>73.654</ele>
        <time>2019-04-30T16:29:51Z</time>
      </trkpt>
      <trkpt lat="42.525478" lon="-8.645411">
        <ele>70.756</ele>
        <time>2019-04-30T16:30:06Z</time>
      </trkpt>
      <trkpt lat="42.525697" lon="-8.645187">
        <ele>69.811</ele>
        <time>2019-04-30T16:30:12Z</time>
      </trkpt>
      <trkpt lat="42.525771" lon="-8.645056">
        <ele>70.308</ele>
        <time>2019-04-30T16:30:15Z</time>
      </trkpt>
      <trkpt lat="42.525803" lon="-8.645022">
        <ele>70.318</ele>
        <time>2019-04-30T16:30:16Z</time>
      </trkpt>
      <trkpt lat="42.525838" lon="-8.644992">
        <ele>70.351</ele>
        <time>2019-04-30T16:30:17Z</time>
      </trkpt>
      <trkpt lat="42.526277" lon="-8.644752">
        <ele>72.797</ele>
        <time>2019-04-30T16:30:30Z</time>
      </trkpt>
      <trkpt lat="42.526457" lon="-8.644723">
        <ele>72.755</ele>
        <time>2019-04-30T16:30:35Z</time>
      </trkpt>
      <trkpt lat="42.526488" lon="-8.644745">
        <ele>72.773</ele>
        <time>2019-04-30T16:30:36Z</time>
      </trkpt>
      <trkpt lat="42.526516" lon="-8.644784">
        <ele>72.215</ele>
        <time>2019-04-30T16:30:37Z</time>
      </trkpt>
      <trkpt lat="42.526539" lon="-8.644841">
        <ele>72.245</ele>
        <time>2019-04-30T16:30:38Z</time>
      </trkpt>
      <trkpt lat="42.526563" lon="-8.644910">
        <ele>71.779</ele>
        <time>2019-04-30T16:30:39Z</time>
      </trkpt>
      <trkpt lat="42.526599" lon="-8.644974">
        <ele>71.217</ele>
        <time>2019-04-30T16:30:40Z</time>
      </trkpt>
      <trkpt lat="42.526651" lon="-8.645008">
        <ele>70.387</ele>
        <time>2019-04-30T16:30:41Z</time>
      </trkpt>
      <trkpt lat="42.526712" lon="-8.645007">
        <ele>69.815</ele>
        <time>2019-04-30T16:30:42Z</time>
      </trkpt>
      <trkpt lat="42.527589" lon="-8.645073">
        <ele>62.608</ele>
        <time>2019-04-30T16:30:54Z</time>
      </trkpt>
      <trkpt lat="42.528180" lon="-8.645203">
        <ele>58.794</ele>
        <time>2019-04-30T16:31:01Z</time>
      </trkpt>
      <trkpt lat="42.528254" lon="-8.645245">
        <ele>58.397</ele>
        <time>2019-04-30T16:31:02Z</time>
      </trkpt>
      <trkpt lat="42.528319" lon="-8.645306">
        <ele>57.893</ele>
        <time>2019-04-30T16:31:03Z</time>
      </trkpt>
      <trkpt lat="42.528375" lon="-8.645382">
        <ele>57.341</ele>
        <time>2019-04-30T16:31:04Z</time>
      </trkpt>
      <trkpt lat="42.528416" lon="-8.645470">
        <ele>57.379</ele>
        <time>2019-04-30T16:31:05Z</time>
      </trkpt>
      <trkpt lat="42.528443" lon="-8.645566">
        <ele>56.861</ele>
        <time>2019-04-30T16:31:06Z</time>
      </trkpt>
      <trkpt lat="42.528462" lon="-8.645665">
        <ele>56.841</ele>
        <time>2019-04-30T16:31:07Z</time>
      </trkpt>
      <trkpt lat="42.528472" lon="-8.645766">
        <ele>56.365</ele>
        <time>2019-04-30T16:31:08Z</time>
      </trkpt>
      <trkpt lat="42.528481" lon="-8.645868">
        <ele>56.341</ele>
        <time>2019-04-30T16:31:09Z</time>
      </trkpt>
      <trkpt lat="42.528490" lon="-8.645966">
        <ele>55.881</ele>
        <time>2019-04-30T16:31:10Z</time>
      </trkpt>
      <trkpt lat="42.528517" lon="-8.646144">
        <ele>55.809</ele>
        <time>2019-04-30T16:31:12Z</time>
      </trkpt>
      <trkpt lat="42.528551" lon="-8.646217">
        <ele>55.808</ele>
        <time>2019-04-30T16:31:13Z</time>
      </trkpt>
      <trkpt lat="42.528596" lon="-8.646275">
        <ele>55.457</ele>
        <time>2019-04-30T16:31:14Z</time>
      </trkpt>
      <trkpt lat="42.528649" lon="-8.646317">
        <ele>55.420</ele>
        <time>2019-04-30T16:31:15Z</time>
      </trkpt>
      <trkpt lat="42.528703" lon="-8.646345">
        <ele>55.466</ele>
        <time>2019-04-30T16:31:16Z</time>
      </trkpt>
      <trkpt lat="42.528757" lon="-8.646366">
        <ele>55.474</ele>
        <time>2019-04-30T16:31:17Z</time>
      </trkpt>
      <trkpt lat="42.528909" lon="-8.646408">
        <ele>54.432</ele>
        <time>2019-04-30T16:31:20Z</time>
      </trkpt>
      <trkpt lat="42.529382" lon="-8.646573">
        <ele>53.094</ele>
        <time>2019-04-30T16:31:29Z</time>
      </trkpt>
      <trkpt lat="42.530190" lon="-8.646651">
        <ele>52.074</ele>
        <time>2019-04-30T16:31:43Z</time>
      </trkpt>
      <trkpt lat="42.530340" lon="-8.646692">
        <ele>52.028</ele>
        <time>2019-04-30T16:31:46Z</time>
      </trkpt>
      <trkpt lat="42.530394" lon="-8.646689">
        <ele>52.026</ele>
        <time>2019-04-30T16:31:47Z</time>
      </trkpt>
      <trkpt lat="42.530671" lon="-8.646630">
        <ele>52.547</ele>
        <time>2019-04-30T16:31:52Z</time>
      </trkpt>
      <trkpt lat="42.531548" lon="-8.646295">
        <ele>51.011</ele>
        <time>2019-04-30T16:32:06Z</time>
      </trkpt>
      <trkpt lat="42.532400" lon="-8.646186">
        <ele>49.608</ele>
        <time>2019-04-30T16:32:18Z</time>
      </trkpt>
      <trkpt lat="42.532743" lon="-8.646079">
        <ele>48.645</ele>
        <time>2019-04-30T16:32:23Z</time>
      </trkpt>
      <trkpt lat="42.532805" lon="-8.646037">
        <ele>48.668</ele>
        <time>2019-04-30T16:32:24Z</time>
      </trkpt>
      <trkpt lat="42.533364" lon="-8.645630">
        <ele>48.244</ele>
        <time>2019-04-30T16:32:33Z</time>
      </trkpt>
      <trkpt lat="42.533430" lon="-8.645608">
        <ele>48.232</ele>
        <time>2019-04-30T16:32:34Z</time>
      </trkpt>
      <trkpt lat="42.534515" lon="-8.645428">
        <ele>45.840</ele>
        <time>2019-04-30T16:32:51Z</time>
      </trkpt>
      <trkpt lat="42.535069" lon="-8.645480">
        <ele>45.332</ele>
        <time>2019-04-30T16:33:00Z</time>
      </trkpt>
      <trkpt lat="42.535125" lon="-8.645512">
        <ele>45.352</ele>
        <time>2019-04-30T16:33:01Z</time>
      </trkpt>
      <trkpt lat="42.535226" lon="-8.645578">
        <ele>45.316</ele>
        <time>2019-04-30T16:33:03Z</time>
      </trkpt>
      <trkpt lat="42.535284" lon="-8.645572">
        <ele>45.397</ele>
        <time>2019-04-30T16:33:04Z</time>
      </trkpt>
      <trkpt lat="42.535522" lon="-8.645510">
        <ele>44.323</ele>
        <time>2019-04-30T16:33:08Z</time>
      </trkpt>
      <trkpt lat="42.535695" lon="-8.645463">
        <ele>43.825</ele>
        <time>2019-04-30T16:33:11Z</time>
      </trkpt>
      <trkpt lat="42.535999" lon="-8.645443">
        <ele>43.408</ele>
        <time>2019-04-30T16:33:16Z</time>
      </trkpt>
      <trkpt lat="42.536058" lon="-8.645424">
        <ele>43.432</ele>
        <time>2019-04-30T16:33:17Z</time>
      </trkpt>
      <trkpt lat="42.536115" lon="-8.645395">
        <ele>42.975</ele>
        <time>2019-04-30T16:33:18Z</time>
      </trkpt>
      <trkpt lat="42.536591" lon="-8.645170">
        <ele>42.471</ele>
        <time>2019-04-30T16:33:26Z</time>
      </trkpt>
      <trkpt lat="42.536653" lon="-8.645157">
        <ele>42.499</ele>
        <time>2019-04-30T16:33:27Z</time>
      </trkpt>
      <trkpt lat="42.536714" lon="-8.645152">
        <ele>41.927</ele>
        <time>2019-04-30T16:33:28Z</time>
      </trkpt>
      <trkpt lat="42.536777" lon="-8.645157">
        <ele>41.479</ele>
        <time>2019-04-30T16:33:29Z</time>
      </trkpt>
      <trkpt lat="42.536839" lon="-8.645176">
        <ele>41.479</ele>
        <time>2019-04-30T16:33:30Z</time>
      </trkpt>
      <trkpt lat="42.536902" lon="-8.645202">
        <ele>40.983</ele>
        <time>2019-04-30T16:33:31Z</time>
      </trkpt>
      <trkpt lat="42.536965" lon="-8.645232">
        <ele>40.936</ele>
        <time>2019-04-30T16:33:32Z</time>
      </trkpt>
      <trkpt lat="42.537099" lon="-8.645311">
        <ele>40.017</ele>
        <time>2019-04-30T16:33:34Z</time>
      </trkpt>
      <trkpt lat="42.537166" lon="-8.645361">
        <ele>39.518</ele>
        <time>2019-04-30T16:33:35Z</time>
      </trkpt>
      <trkpt lat="42.537239" lon="-8.645388">
        <ele>39.008</ele>
        <time>2019-04-30T16:33:36Z</time>
      </trkpt>
      <trkpt lat="42.537313" lon="-8.645390">
        <ele>38.516</ele>
        <time>2019-04-30T16:33:37Z</time>
      </trkpt>
      <trkpt lat="42.537385" lon="-8.645381">
        <ele>38.599</ele>
        <time>2019-04-30T16:33:38Z</time>
      </trkpt>
      <trkpt lat="42.537712" lon="-8.645323">
        <ele>38.535</ele>
        <time>2019-04-30T16:33:43Z</time>
      </trkpt>
      <trkpt lat="42.538427" lon="-8.644929">
        <ele>38.193</ele>
        <time>2019-04-30T16:33:55Z</time>
      </trkpt>
      <trkpt lat="42.538480" lon="-8.644899">
        <ele>38.111</ele>
        <time>2019-04-30T16:33:56Z</time>
      </trkpt>
      <trkpt lat="42.538626" lon="-8.644799">
        <ele>38.173</ele>
        <time>2019-04-30T16:33:59Z</time>
      </trkpt>
      <trkpt lat="42.538678" lon="-8.644770">
        <ele>37.633</ele>
        <time>2019-04-30T16:34:00Z</time>
      </trkpt>
      <trkpt lat="42.538727" lon="-8.644737">
        <ele>37.657</ele>
        <time>2019-04-30T16:34:01Z</time>
      </trkpt>
      <trkpt lat="42.538769" lon="-8.644700">
        <ele>37.662</ele>
        <time>2019-04-30T16:34:02Z</time>
      </trkpt>
      <trkpt lat="42.538807" lon="-8.644658">
        <ele>37.183</ele>
        <time>2019-04-30T16:34:03Z</time>
      </trkpt>
      <trkpt lat="42.538833" lon="-8.644604">
        <ele>37.111</ele>
        <time>2019-04-30T16:34:04Z</time>
      </trkpt>
      <trkpt lat="42.538845" lon="-8.644543">
        <ele>36.608</ele>
        <time>2019-04-30T16:34:05Z</time>
      </trkpt>
      <trkpt lat="42.538850" lon="-8.644482">
        <ele>36.159</ele>
        <time>2019-04-30T16:34:06Z</time>
      </trkpt>
      <trkpt lat="42.538873" lon="-8.644436">
        <ele>35.792</ele>
        <time>2019-04-30T16:34:07Z</time>
      </trkpt>
      <trkpt lat="42.538911" lon="-8.644403">
        <ele>35.748</ele>
        <time>2019-04-30T16:34:08Z</time>
      </trkpt>
      <trkpt lat="42.538952" lon="-8.644373">
        <ele>35.736</ele>
        <time>2019-04-30T16:34:09Z</time>
      </trkpt>
      <trkpt lat="42.538988" lon="-8.644337">
        <ele>35.784</ele>
        <time>2019-04-30T16:34:10Z</time>
      </trkpt>
      <trkpt lat="42.539130" lon="-8.644160">
        <ele>36.146</ele>
        <time>2019-04-30T16:34:14Z</time>
      </trkpt>
      <trkpt lat="42.539256" lon="-8.644056">
        <ele>36.196</ele>
        <time>2019-04-30T16:34:17Z</time>
      </trkpt>
      <trkpt lat="42.539301" lon="-8.644033">
        <ele>36.110</ele>
        <time>2019-04-30T16:34:18Z</time>
      </trkpt>
      <trkpt lat="42.539346" lon="-8.644012">
        <ele>36.691</ele>
        <time>2019-04-30T16:34:19Z</time>
      </trkpt>
      <trkpt lat="42.539438" lon="-8.643969">
        <ele>36.681</ele>
        <time>2019-04-30T16:34:21Z</time>
      </trkpt>
      <trkpt lat="42.540122" lon="-8.643719">
        <ele>37.619</ele>
        <time>2019-04-30T16:34:37Z</time>
      </trkpt>
      <trkpt lat="42.540606" lon="-8.643506">
        <ele>40.908</ele>
        <time>2019-04-30T16:34:51Z</time>
      </trkpt>
      <trkpt lat="42.541012" lon="-8.643367">
        <ele>42.442</ele>
        <time>2019-04-30T16:35:02Z</time>
      </trkpt>
      <trkpt lat="42.541520" lon="-8.643097">
        <ele>41.495</ele>
        <time>2019-04-30T16:35:16Z</time>
      </trkpt>
      <trkpt lat="42.541732" lon="-8.642927">
        <ele>42.971</ele>
        <time>2019-04-30T16:35:26Z</time>
      </trkpt>
      <trkpt lat="42.541968" lon="-8.642875">
        <ele>44.869</ele>
        <time>2019-04-30T16:35:36Z</time>
      </trkpt>
      <trkpt lat="42.542350" lon="-8.642721">
        <ele>48.287</ele>
        <time>2019-04-30T16:35:49Z</time>
      </trkpt>
      <trkpt lat="42.542514" lon="-8.642689">
        <ele>48.679</ele>
        <time>2019-04-30T16:35:53Z</time>
      </trkpt>
      <trkpt lat="42.542573" lon="-8.642688">
        <ele>48.699</ele>
        <time>2019-04-30T16:35:54Z</time>
      </trkpt>
      <trkpt lat="42.542630" lon="-8.642695">
        <ele>48.653</ele>
        <time>2019-04-30T16:35:55Z</time>
      </trkpt>
      <trkpt lat="42.543028" lon="-8.642836">
        <ele>49.635</ele>
        <time>2019-04-30T16:36:05Z</time>
      </trkpt>
      <trkpt lat="42.543264" lon="-8.642924">
        <ele>53.086</ele>
        <time>2019-04-30T16:36:15Z</time>
      </trkpt>
      <trkpt lat="42.543284" lon="-8.642936">
        <ele>53.414</ele>
        <time>2019-04-30T16:36:16Z</time>
      </trkpt>
      <trkpt lat="42.543311" lon="-8.642942">
        <ele>53.408</ele>
        <time>2019-04-30T16:36:17Z</time>
      </trkpt>
      <trkpt lat="42.543340" lon="-8.642948">
        <ele>53.476</ele>
        <time>2019-04-30T16:36:18Z</time>
      </trkpt>
      <trkpt lat="42.543363" lon="-8.642960">
        <ele>53.069</ele>
        <time>2019-04-30T16:36:19Z</time>
      </trkpt>
      <trkpt lat="42.543388" lon="-8.642976">
        <ele>53.015</ele>
        <time>2019-04-30T16:36:20Z</time>
      </trkpt>
      <trkpt lat="42.543671" lon="-8.642997">
        <ele>52.043</ele>
        <time>2019-04-30T16:36:30Z</time>
      </trkpt>
      <trkpt lat="42.543733" lon="-8.642972">
        <ele>50.661</ele>
        <time>2019-04-30T16:36:31Z</time>
      </trkpt>
      <trkpt lat="42.543809" lon="-8.642941">
        <ele>48.213</ele>
        <time>2019-04-30T16:36:32Z</time>
      </trkpt>
      <trkpt lat="42.543869" lon="-8.642889">
        <ele>47.213</ele>
        <time>2019-04-30T16:36:33Z</time>
      </trkpt>
      <trkpt lat="42.543937" lon="-8.642820">
        <ele>46.297</ele>
        <time>2019-04-30T16:36:34Z</time>
      </trkpt>
      <trkpt lat="42.543999" lon="-8.642752">
        <ele>45.869</ele>
        <time>2019-04-30T16:36:35Z</time>
      </trkpt>
      <trkpt lat="42.544156" lon="-8.642578">
        <ele>44.804</ele>
        <time>2019-04-30T16:36:38Z</time>
      </trkpt>
      <trkpt lat="42.544211" lon="-8.642530">
        <ele>44.824</ele>
        <time>2019-04-30T16:36:39Z</time>
      </trkpt>
      <trkpt lat="42.544265" lon="-8.642492">
        <ele>44.308</ele>
        <time>2019-04-30T16:36:40Z</time>
      </trkpt>
      <trkpt lat="42.544700" lon="-8.642310">
        <ele>43.879</ele>
        <time>2019-04-30T16:36:51Z</time>
      </trkpt>
      <trkpt lat="42.545122" lon="-8.642362">
        <ele>44.882</ele>
        <time>2019-04-30T16:37:02Z</time>
      </trkpt>
      <trkpt lat="42.545187" lon="-8.642374">
        <ele>44.828</ele>
        <time>2019-04-30T16:37:03Z</time>
      </trkpt>
      <trkpt lat="42.545329" lon="-8.642438">
        <ele>44.386</ele>
        <time>2019-04-30T16:37:05Z</time>
      </trkpt>
      <trkpt lat="42.545719" lon="-8.642664">
        <ele>42.414</ele>
        <time>2019-04-30T16:37:11Z</time>
      </trkpt>
      <trkpt lat="42.545780" lon="-8.642682">
        <ele>41.946</ele>
        <time>2019-04-30T16:37:12Z</time>
      </trkpt>
      <trkpt lat="42.545853" lon="-8.642686">
        <ele>41.946</ele>
        <time>2019-04-30T16:37:13Z</time>
      </trkpt>
      <trkpt lat="42.545995" lon="-8.642678">
        <ele>40.940</ele>
        <time>2019-04-30T16:37:15Z</time>
      </trkpt>
      <trkpt lat="42.546065" lon="-8.642664">
        <ele>40.564</ele>
        <time>2019-04-30T16:37:16Z</time>
      </trkpt>
      <trkpt lat="42.546917" lon="-8.642503">
        <ele>38.106</ele>
        <time>2019-04-30T16:37:28Z</time>
      </trkpt>
      <trkpt lat="42.547475" lon="-8.642431">
        <ele>39.016</ele>
        <time>2019-04-30T16:37:38Z</time>
      </trkpt>
      <trkpt lat="42.547535" lon="-8.642439">
        <ele>39.008</ele>
        <time>2019-04-30T16:37:39Z</time>
      </trkpt>
      <trkpt lat="42.547587" lon="-8.642459">
        <ele>39.099</ele>
        <time>2019-04-30T16:37:40Z</time>
      </trkpt>
      <trkpt lat="42.547697" lon="-8.642511">
        <ele>38.542</ele>
        <time>2019-04-30T16:37:42Z</time>
      </trkpt>
      <trkpt lat="42.547751" lon="-8.642518">
        <ele>38.158</ele>
        <time>2019-04-30T16:37:43Z</time>
      </trkpt>
      <trkpt lat="42.547796" lon="-8.642505">
        <ele>38.176</ele>
        <time>2019-04-30T16:37:44Z</time>
      </trkpt>
      <trkpt lat="42.547826" lon="-8.642471">
        <ele>38.114</ele>
        <time>2019-04-30T16:37:45Z</time>
      </trkpt>
      <trkpt lat="42.547852" lon="-8.642428">
        <ele>38.146</ele>
        <time>2019-04-30T16:37:46Z</time>
      </trkpt>
      <trkpt lat="42.547869" lon="-8.642385">
        <ele>38.146</ele>
        <time>2019-04-30T16:37:47Z</time>
      </trkpt>
      <trkpt lat="42.548076" lon="-8.642054">
        <ele>38.520</ele>
        <time>2019-04-30T16:37:56Z</time>
      </trkpt>
      <trkpt lat="42.548109" lon="-8.642021">
        <ele>38.183</ele>
        <time>2019-04-30T16:37:57Z</time>
      </trkpt>
      <trkpt lat="42.548139" lon="-8.641989">
        <ele>38.125</ele>
        <time>2019-04-30T16:37:58Z</time>
      </trkpt>
      <trkpt lat="42.548364" lon="-8.641682">
        <ele>37.617</ele>
        <time>2019-04-30T16:38:06Z</time>
      </trkpt>
      <trkpt lat="42.548391" lon="-8.641640">
        <ele>37.608</ele>
        <time>2019-04-30T16:38:07Z</time>
      </trkpt>
      <trkpt lat="42.548801" lon="-8.641092">
        <ele>36.621</ele>
        <time>2019-04-30T16:38:20Z</time>
      </trkpt>
      <trkpt lat="42.548832" lon="-8.641050">
        <ele>36.624</ele>
        <time>2019-04-30T16:38:21Z</time>
      </trkpt>
      <trkpt lat="42.548863" lon="-8.641008">
        <ele>36.660</ele>
        <time>2019-04-30T16:38:22Z</time>
      </trkpt>
      <trkpt lat="42.548897" lon="-8.640969">
        <ele>36.648</ele>
        <time>2019-04-30T16:38:23Z</time>
      </trkpt>
      <trkpt lat="42.548933" lon="-8.640933">
        <ele>37.176</ele>
        <time>2019-04-30T16:38:24Z</time>
      </trkpt>
      <trkpt lat="42.549359" lon="-8.640489">
        <ele>38.188</ele>
        <time>2019-04-30T16:38:36Z</time>
      </trkpt>
      <trkpt lat="42.549436" lon="-8.640356">
        <ele>38.558</ele>
        <time>2019-04-30T16:38:39Z</time>
      </trkpt>
      <trkpt lat="42.549453" lon="-8.640306">
        <ele>38.532</ele>
        <time>2019-04-30T16:38:40Z</time>
      </trkpt>
      <trkpt lat="42.549466" lon="-8.640253">
        <ele>38.589</ele>
        <time>2019-04-30T16:38:41Z</time>
      </trkpt>
      <trkpt lat="42.549473" lon="-8.640196">
        <ele>38.506</ele>
        <time>2019-04-30T16:38:42Z</time>
      </trkpt>
      <trkpt lat="42.549476" lon="-8.640137">
        <ele>38.526</ele>
        <time>2019-04-30T16:38:43Z</time>
      </trkpt>
      <trkpt lat="42.549475" lon="-8.640076">
        <ele>38.508</ele>
        <time>2019-04-30T16:38:44Z</time>
      </trkpt>
      <trkpt lat="42.549469" lon="-8.640015">
        <ele>38.571</ele>
        <time>2019-04-30T16:38:45Z</time>
      </trkpt>
      <trkpt lat="42.549462" lon="-8.639955">
        <ele>39.064</ele>
        <time>2019-04-30T16:38:46Z</time>
      </trkpt>
      <trkpt lat="42.549419" lon="-8.639655">
        <ele>39.530</ele>
        <time>2019-04-30T16:38:51Z</time>
      </trkpt>
      <trkpt lat="42.549427" lon="-8.639595">
        <ele>39.558</ele>
        <time>2019-04-30T16:38:52Z</time>
      </trkpt>
      <trkpt lat="42.549451" lon="-8.639546">
        <ele>39.576</ele>
        <time>2019-04-30T16:38:53Z</time>
      </trkpt>
      <trkpt lat="42.549488" lon="-8.639516">
        <ele>39.038</ele>
        <time>2019-04-30T16:38:54Z</time>
      </trkpt>
      <trkpt lat="42.549533" lon="-8.639497">
        <ele>39.548</ele>
        <time>2019-04-30T16:38:55Z</time>
      </trkpt>
      <trkpt lat="42.549580" lon="-8.639478">
        <ele>39.032</ele>
        <time>2019-04-30T16:38:56Z</time>
      </trkpt>
      <trkpt lat="42.549629" lon="-8.639455">
        <ele>39.036</ele>
        <time>2019-04-30T16:38:57Z</time>
      </trkpt>
      <trkpt lat="42.550242" lon="-8.639258">
        <ele>38.117</ele>
        <time>2019-04-30T16:39:09Z</time>
      </trkpt>
      <trkpt lat="42.551021" lon="-8.639000">
        <ele>37.618</ele>
        <time>2019-04-30T16:39:24Z</time>
      </trkpt>
      <trkpt lat="42.551825" lon="-8.638808">
        <ele>36.108</ele>
        <time>2019-04-30T16:39:39Z</time>
      </trkpt>
      <trkpt lat="42.552722" lon="-8.638694">
        <ele>35.756</ele>
        <time>2019-04-30T16:39:56Z</time>
      </trkpt>
      <trkpt lat="42.553388" lon="-8.638552">
        <ele>34.789</ele>
        <time>2019-04-30T16:40:08Z</time>
      </trkpt>
      <trkpt lat="42.553851" lon="-8.638454">
        <ele>32.365</ele>
        <time>2019-04-30T16:40:15Z</time>
      </trkpt>
      <trkpt lat="42.553907" lon="-8.638428">
        <ele>32.323</ele>
        <time>2019-04-30T16:40:16Z</time>
      </trkpt>
      <trkpt lat="42.554653" lon="-8.638075">
        <ele>29.951</ele>
        <time>2019-04-30T16:40:29Z</time>
      </trkpt>
      <trkpt lat="42.554758" lon="-8.638021">
        <ele>29.953</ele>
        <time>2019-04-30T16:40:31Z</time>
      </trkpt>
      <trkpt lat="42.554860" lon="-8.637976">
        <ele>29.953</ele>
        <time>2019-04-30T16:40:33Z</time>
      </trkpt>
      <trkpt lat="42.554908" lon="-8.637945">
        <ele>29.977</ele>
        <time>2019-04-30T16:40:34Z</time>
      </trkpt>
      <trkpt lat="42.555160" lon="-8.637694">
        <ele>29.931</ele>
        <time>2019-04-30T16:40:42Z</time>
      </trkpt>
      <trkpt lat="42.555198" lon="-8.637661">
        <ele>29.961</ele>
        <time>2019-04-30T16:40:43Z</time>
      </trkpt>
      <trkpt lat="42.555244" lon="-8.637642">
        <ele>30.407</ele>
        <time>2019-04-30T16:40:44Z</time>
      </trkpt>
      <trkpt lat="42.555293" lon="-8.637635">
        <ele>30.408</ele>
        <time>2019-04-30T16:40:45Z</time>
      </trkpt>
      <trkpt lat="42.555343" lon="-8.637633">
        <ele>30.416</ele>
        <time>2019-04-30T16:40:46Z</time>
      </trkpt>
      <trkpt lat="42.556182" lon="-8.637564">
        <ele>31.819</ele>
        <time>2019-04-30T16:41:03Z</time>
      </trkpt>
      <trkpt lat="42.556871" lon="-8.637503">
        <ele>32.365</ele>
        <time>2019-04-30T16:41:19Z</time>
      </trkpt>
      <trkpt lat="42.556913" lon="-8.637496">
        <ele>32.353</ele>
        <time>2019-04-30T16:41:20Z</time>
      </trkpt>
      <trkpt lat="42.556957" lon="-8.637490">
        <ele>32.321</ele>
        <time>2019-04-30T16:41:21Z</time>
      </trkpt>
      <trkpt lat="42.557609" lon="-8.637382">
        <ele>35.243</ele>
        <time>2019-04-30T16:41:38Z</time>
      </trkpt>
      <trkpt lat="42.558115" lon="-8.637367">
        <ele>38.553</ele>
        <time>2019-04-30T16:41:54Z</time>
      </trkpt>
      <trkpt lat="42.558324" lon="-8.637362">
        <ele>40.967</ele>
        <time>2019-04-30T16:42:05Z</time>
      </trkpt>
      <trkpt lat="42.558853" lon="-8.637406">
        <ele>41.979</ele>
        <time>2019-04-30T16:42:22Z</time>
      </trkpt>
      <trkpt lat="42.559351" lon="-8.637534">
        <ele>44.305</ele>
        <time>2019-04-30T16:42:38Z</time>
      </trkpt>
      <trkpt lat="42.559971" lon="-8.637881">
        <ele>45.825</ele>
        <time>2019-04-30T16:42:57Z</time>
      </trkpt>
      <trkpt lat="42.560651" lon="-8.638385">
        <ele>44.308</ele>
        <time>2019-04-30T16:43:12Z</time>
      </trkpt>
      <trkpt lat="42.561748" lon="-8.639177">
        <ele>39.510</ele>
        <time>2019-04-30T16:43:30Z</time>
      </trkpt>
      <trkpt lat="42.562621" lon="-8.639799">
        <ele>39.533</ele>
        <time>2019-04-30T16:43:46Z</time>
      </trkpt>
      <trkpt lat="42.563138" lon="-8.640174">
        <ele>40.929</ele>
        <time>2019-04-30T16:44:00Z</time>
      </trkpt>
      <trkpt lat="42.563495" lon="-8.640426">
        <ele>40.967</ele>
        <time>2019-04-30T16:44:10Z</time>
      </trkpt>
      <trkpt lat="42.563865" lon="-8.640682">
        <ele>40.995</ele>
        <time>2019-04-30T16:44:22Z</time>
      </trkpt>
      <trkpt lat="42.564146" lon="-8.640873">
        <ele>40.527</ele>
        <time>2019-04-30T16:44:30Z</time>
      </trkpt>
      <trkpt lat="42.564186" lon="-8.640890">
        <ele>40.547</ele>
        <time>2019-04-30T16:44:31Z</time>
      </trkpt>
      <trkpt lat="42.564462" lon="-8.640971">
        <ele>39.531</ele>
        <time>2019-04-30T16:44:37Z</time>
      </trkpt>
      <trkpt lat="42.565286" lon="-8.641062">
        <ele>38.188</ele>
        <time>2019-04-30T16:44:52Z</time>
      </trkpt>
      <trkpt lat="42.565790" lon="-8.641110">
        <ele>36.624</ele>
        <time>2019-04-30T16:45:01Z</time>
      </trkpt>
      <trkpt lat="42.565846" lon="-8.641102">
        <ele>37.126</ele>
        <time>2019-04-30T16:45:02Z</time>
      </trkpt>
      <trkpt lat="42.565900" lon="-8.641080">
        <ele>37.108</ele>
        <time>2019-04-30T16:45:03Z</time>
      </trkpt>
      <trkpt lat="42.565950" lon="-8.641047">
        <ele>37.191</ele>
        <time>2019-04-30T16:45:04Z</time>
      </trkpt>
      <trkpt lat="42.565996" lon="-8.641015">
        <ele>36.644</ele>
        <time>2019-04-30T16:45:05Z</time>
      </trkpt>
      <trkpt lat="42.566044" lon="-8.640988">
        <ele>36.640</ele>
        <time>2019-04-30T16:45:06Z</time>
      </trkpt>
      <trkpt lat="42.566094" lon="-8.640973">
        <ele>36.678</ele>
        <time>2019-04-30T16:45:07Z</time>
      </trkpt>
      <trkpt lat="42.566145" lon="-8.640977">
        <ele>36.656</ele>
        <time>2019-04-30T16:45:08Z</time>
      </trkpt>
      <trkpt lat="42.566190" lon="-8.641004">
        <ele>36.678</ele>
        <time>2019-04-30T16:45:09Z</time>
      </trkpt>
      <trkpt lat="42.566226" lon="-8.641045">
        <ele>36.188</ele>
        <time>2019-04-30T16:45:10Z</time>
      </trkpt>
      <trkpt lat="42.566251" lon="-8.641094">
        <ele>36.122</ele>
        <time>2019-04-30T16:45:11Z</time>
      </trkpt>
      <trkpt lat="42.566266" lon="-8.641147">
        <ele>36.112</ele>
        <time>2019-04-30T16:45:12Z</time>
      </trkpt>
      <trkpt lat="42.566273" lon="-8.641201">
        <ele>36.132</ele>
        <time>2019-04-30T16:45:13Z</time>
      </trkpt>
      <trkpt lat="42.566268" lon="-8.641253">
        <ele>36.105</ele>
        <time>2019-04-30T16:45:14Z</time>
      </trkpt>
      <trkpt lat="42.566254" lon="-8.641300">
        <ele>36.108</ele>
        <time>2019-04-30T16:45:15Z</time>
      </trkpt>
      <trkpt lat="42.566231" lon="-8.641340">
        <ele>36.194</ele>
        <time>2019-04-30T16:45:16Z</time>
      </trkpt>
      <trkpt lat="42.566202" lon="-8.641376">
        <ele>36.697</ele>
        <time>2019-04-30T16:45:17Z</time>
      </trkpt>
      <trkpt lat="42.566171" lon="-8.641408">
        <ele>36.143</ele>
        <time>2019-04-30T16:45:18Z</time>
      </trkpt>
      <trkpt lat="42.566141" lon="-8.641440">
        <ele>36.661</ele>
        <time>2019-04-30T16:45:19Z</time>
      </trkpt>
      <trkpt lat="42.566111" lon="-8.641472">
        <ele>36.669</ele>
        <time>2019-04-30T16:45:20Z</time>
      </trkpt>
      <trkpt lat="42.566047" lon="-8.641558">
        <ele>36.171</ele>
        <time>2019-04-30T16:45:23Z</time>
      </trkpt>
      <trkpt lat="42.566046" lon="-8.641581">
        <ele>35.781</ele>
        <time>2019-04-30T16:45:24Z</time>
      </trkpt>
      <trkpt lat="42.566061" lon="-8.641601">
        <ele>34.755</ele>
        <time>2019-04-30T16:45:35Z</time>
      </trkpt>
      <trkpt lat="42.566090" lon="-8.641611">
        <ele>34.237</ele>
        <time>2019-04-30T16:45:36Z</time>
      </trkpt>
      <trkpt lat="42.566135" lon="-8.641615">
        <ele>34.249</ele>
        <time>2019-04-30T16:45:37Z</time>
      </trkpt>
      <trkpt lat="42.566428" lon="-8.641653">
        <ele>31.813</ele>
        <time>2019-04-30T16:45:43Z</time>
      </trkpt>
      <trkpt lat="42.566472" lon="-8.641683">
        <ele>31.308</ele>
        <time>2019-04-30T16:45:44Z</time>
      </trkpt>
      <trkpt lat="42.566513" lon="-8.641703">
        <ele>31.396</ele>
        <time>2019-04-30T16:45:45Z</time>
      </trkpt>
      <trkpt lat="42.566551" lon="-8.641690">
        <ele>31.339</ele>
        <time>2019-04-30T16:45:46Z</time>
      </trkpt>
      <trkpt lat="42.566585" lon="-8.641665">
        <ele>30.965</ele>
        <time>2019-04-30T16:45:47Z</time>
      </trkpt>
      <trkpt lat="42.566621" lon="-8.641645">
        <ele>30.923</ele>
        <time>2019-04-30T16:45:48Z</time>
      </trkpt>
      <trkpt lat="42.566658" lon="-8.641622">
        <ele>30.951</ele>
        <time>2019-04-30T16:45:49Z</time>
      </trkpt>
      <trkpt lat="42.566696" lon="-8.641598">
        <ele>30.453</ele>
        <time>2019-04-30T16:45:50Z</time>
      </trkpt>
      <trkpt lat="42.566729" lon="-8.641583">
        <ele>30.493</ele>
        <time>2019-04-30T16:45:51Z</time>
      </trkpt>
      <trkpt lat="42.566762" lon="-8.641581">
        <ele>30.467</ele>
        <time>2019-04-30T16:45:52Z</time>
      </trkpt>
      <trkpt lat="42.566796" lon="-8.641594">
        <ele>30.411</ele>
        <time>2019-04-30T16:45:53Z</time>
      </trkpt>
      <trkpt lat="42.566824" lon="-8.641614">
        <ele>30.421</ele>
        <time>2019-04-30T16:45:54Z</time>
      </trkpt>
      <trkpt lat="42.566853" lon="-8.641635">
        <ele>30.903</ele>
        <time>2019-04-30T16:45:55Z</time>
      </trkpt>
      <trkpt lat="42.566882" lon="-8.641658">
        <ele>30.908</ele>
        <time>2019-04-30T16:45:56Z</time>
      </trkpt>
      <trkpt lat="42.567278" lon="-8.641967">
        <ele>30.934</ele>
        <time>2019-04-30T16:46:07Z</time>
      </trkpt>
      <trkpt lat="42.567323" lon="-8.641986">
        <ele>30.977</ele>
        <time>2019-04-30T16:46:08Z</time>
      </trkpt>
      <trkpt lat="42.567370" lon="-8.642001">
        <ele>31.313</ele>
        <time>2019-04-30T16:46:09Z</time>
      </trkpt>
      <trkpt lat="42.567887" lon="-8.642148">
        <ele>32.311</ele>
        <time>2019-04-30T16:46:21Z</time>
      </trkpt>
      <trkpt lat="42.568449" lon="-8.642058">
        <ele>33.749</ele>
        <time>2019-04-30T16:46:36Z</time>
      </trkpt>
      <trkpt lat="42.568615" lon="-8.642380">
        <ele>32.871</ele>
        <time>2019-04-30T16:46:44Z</time>
      </trkpt>
      <trkpt lat="42.568643" lon="-8.642429">
        <ele>32.881</ele>
        <time>2019-04-30T16:46:45Z</time>
      </trkpt>
      <trkpt lat="42.568790" lon="-8.642615">
        <ele>32.375</ele>
        <time>2019-04-30T16:46:49Z</time>
      </trkpt>
      <trkpt lat="42.568881" lon="-8.642699">
        <ele>32.387</ele>
        <time>2019-04-30T16:46:51Z</time>
      </trkpt>
      <trkpt lat="42.568930" lon="-8.642732">
        <ele>31.842</ele>
        <time>2019-04-30T16:46:52Z</time>
      </trkpt>
      <trkpt lat="42.568981" lon="-8.642756">
        <ele>31.826</ele>
        <time>2019-04-30T16:46:53Z</time>
      </trkpt>
      <trkpt lat="42.569035" lon="-8.642771">
        <ele>31.808</ele>
        <time>2019-04-30T16:46:54Z</time>
      </trkpt>
      <trkpt lat="42.569091" lon="-8.642784">
        <ele>31.851</ele>
        <time>2019-04-30T16:46:55Z</time>
      </trkpt>
      <trkpt lat="42.569259" lon="-8.642827">
        <ele>31.314</ele>
        <time>2019-04-30T16:46:58Z</time>
      </trkpt>
      <trkpt lat="42.569314" lon="-8.642851">
        <ele>31.340</ele>
        <time>2019-04-30T16:46:59Z</time>
      </trkpt>
      <trkpt lat="42.569370" lon="-8.642880">
        <ele>30.928</ele>
        <time>2019-04-30T16:47:00Z</time>
      </trkpt>
      <trkpt lat="42.569424" lon="-8.642917">
        <ele>30.986</ele>
        <time>2019-04-30T16:47:01Z</time>
      </trkpt>
      <trkpt lat="42.569472" lon="-8.642964">
        <ele>30.498</ele>
        <time>2019-04-30T16:47:02Z</time>
      </trkpt>
      <trkpt lat="42.569515" lon="-8.643018">
        <ele>30.498</ele>
        <time>2019-04-30T16:47:03Z</time>
      </trkpt>
      <trkpt lat="42.569554" lon="-8.643078">
        <ele>29.972</ele>
        <time>2019-04-30T16:47:04Z</time>
      </trkpt>
      <trkpt lat="42.569841" lon="-8.643540">
        <ele>29.419</ele>
        <time>2019-04-30T16:47:12Z</time>
      </trkpt>
      <trkpt lat="42.569993" lon="-8.643746">
        <ele>28.909</ele>
        <time>2019-04-30T16:47:16Z</time>
      </trkpt>
      <trkpt lat="42.570014" lon="-8.643803">
        <ele>29.419</ele>
        <time>2019-04-30T16:47:17Z</time>
      </trkpt>
      <trkpt lat="42.570027" lon="-8.643863">
        <ele>28.908</ele>
        <time>2019-04-30T16:47:18Z</time>
      </trkpt>
      <trkpt lat="42.570080" lon="-8.644153">
        <ele>28.934</ele>
        <time>2019-04-30T16:47:22Z</time>
      </trkpt>
      <trkpt lat="42.570111" lon="-8.644228">
        <ele>28.917</ele>
        <time>2019-04-30T16:47:23Z</time>
      </trkpt>
      <trkpt lat="42.570186" lon="-8.644364">
        <ele>28.543</ele>
        <time>2019-04-30T16:47:25Z</time>
      </trkpt>
      <trkpt lat="42.570227" lon="-8.644424">
        <ele>28.561</ele>
        <time>2019-04-30T16:47:26Z</time>
      </trkpt>
      <trkpt lat="42.570271" lon="-8.644476">
        <ele>28.039</ele>
        <time>2019-04-30T16:47:27Z</time>
      </trkpt>
      <trkpt lat="42.570316" lon="-8.644522">
        <ele>28.041</ele>
        <time>2019-04-30T16:47:28Z</time>
      </trkpt>
      <trkpt lat="42.570364" lon="-8.644558">
        <ele>27.581</ele>
        <time>2019-04-30T16:47:29Z</time>
      </trkpt>
      <trkpt lat="42.570411" lon="-8.644583">
        <ele>27.065</ele>
        <time>2019-04-30T16:47:30Z</time>
      </trkpt>
      <trkpt lat="42.570453" lon="-8.644598">
        <ele>26.517</ele>
        <time>2019-04-30T16:47:31Z</time>
      </trkpt>
      <trkpt lat="42.570489" lon="-8.644605">
        <ele>26.587</ele>
        <time>2019-04-30T16:47:32Z</time>
      </trkpt>
      <trkpt lat="42.570523" lon="-8.644609">
        <ele>26.015</ele>
        <time>2019-04-30T16:47:33Z</time>
      </trkpt>
      <trkpt lat="42.570579" lon="-8.644599">
        <ele>25.608</ele>
        <time>2019-04-30T16:47:35Z</time>
      </trkpt>
      <trkpt lat="42.570622" lon="-8.644561">
        <ele>25.134</ele>
        <time>2019-04-30T16:47:37Z</time>
      </trkpt>
      <trkpt lat="42.570658" lon="-8.644552">
        <ele>25.117</ele>
        <time>2019-04-30T16:47:38Z</time>
      </trkpt>
      <trkpt lat="42.571080" lon="-8.644447">
        <ele>29.483</ele>
        <time>2019-04-30T16:47:51Z</time>
      </trkpt>
      <trkpt lat="42.571105" lon="-8.644435">
        <ele>29.481</ele>
        <time>2019-04-30T16:47:52Z</time>
      </trkpt>
      <trkpt lat="42.571130" lon="-8.644414">
        <ele>29.419</ele>
        <time>2019-04-30T16:47:53Z</time>
      </trkpt>
      <trkpt lat="42.571154" lon="-8.644395">
        <ele>29.951</ele>
        <time>2019-04-30T16:47:54Z</time>
      </trkpt>
      <trkpt lat="42.571180" lon="-8.644378">
        <ele>29.911</ele>
        <time>2019-04-30T16:47:55Z</time>
      </trkpt>
      <trkpt lat="42.571386" lon="-8.644050">
        <ele>29.915</ele>
        <time>2019-04-30T16:48:06Z</time>
      </trkpt>
      <trkpt lat="42.571435" lon="-8.643908">
        <ele>30.452</ele>
        <time>2019-04-30T16:48:10Z</time>
      </trkpt>
      <trkpt lat="42.571444" lon="-8.643874">
        <ele>30.453</ele>
        <time>2019-04-30T16:48:11Z</time>
      </trkpt>
      <trkpt lat="42.571558" lon="-8.643435">
        <ele>31.808</ele>
        <time>2019-04-30T16:48:22Z</time>
      </trkpt>
      <trkpt lat="42.571647" lon="-8.643149">
        <ele>30.908</ele>
        <time>2019-04-30T16:48:27Z</time>
      </trkpt>
      <trkpt lat="42.571694" lon="-8.643096">
        <ele>30.938</ele>
        <time>2019-04-30T16:48:28Z</time>
      </trkpt>
      <trkpt lat="42.571740" lon="-8.643077">
        <ele>30.491</ele>
        <time>2019-04-30T16:48:29Z</time>
      </trkpt>
      <trkpt lat="42.571788" lon="-8.643073">
        <ele>30.477</ele>
        <time>2019-04-30T16:48:30Z</time>
      </trkpt>
      <trkpt lat="42.571841" lon="-8.643078">
        <ele>30.475</ele>
        <time>2019-04-30T16:48:31Z</time>
      </trkpt>
      <trkpt lat="42.571896" lon="-8.643091">
        <ele>30.953</ele>
        <time>2019-04-30T16:48:32Z</time>
      </trkpt>
      <trkpt lat="42.571946" lon="-8.643106">
        <ele>30.435</ele>
        <time>2019-04-30T16:48:33Z</time>
      </trkpt>
      <trkpt lat="42.572210" lon="-8.643164">
        <ele>29.455</ele>
        <time>2019-04-30T16:48:38Z</time>
      </trkpt>
      <trkpt lat="42.572435" lon="-8.643134">
        <ele>29.989</ele>
        <time>2019-04-30T16:48:42Z</time>
      </trkpt>
      <trkpt lat="42.572494" lon="-8.643120">
        <ele>29.918</ele>
        <time>2019-04-30T16:48:43Z</time>
      </trkpt>
      <trkpt lat="42.572553" lon="-8.643114">
        <ele>29.998</ele>
        <time>2019-04-30T16:48:44Z</time>
      </trkpt>
      <trkpt lat="42.572612" lon="-8.643113">
        <ele>29.417</ele>
        <time>2019-04-30T16:48:45Z</time>
      </trkpt>
      <trkpt lat="42.572674" lon="-8.643119">
        <ele>29.408</ele>
        <time>2019-04-30T16:48:46Z</time>
      </trkpt>
      <trkpt lat="42.572736" lon="-8.643128">
        <ele>29.454</ele>
        <time>2019-04-30T16:48:47Z</time>
      </trkpt>
      <trkpt lat="42.573786" lon="-8.643272">
        <ele>28.587</ele>
        <time>2019-04-30T16:49:05Z</time>
      </trkpt>
      <trkpt lat="42.574014" lon="-8.643351">
        <ele>28.543</ele>
        <time>2019-04-30T16:49:09Z</time>
      </trkpt>
      <trkpt lat="42.574129" lon="-8.643407">
        <ele>28.051</ele>
        <time>2019-04-30T16:49:11Z</time>
      </trkpt>
      <trkpt lat="42.574365" lon="-8.643463">
        <ele>28.089</ele>
        <time>2019-04-30T16:49:15Z</time>
      </trkpt>
      <trkpt lat="42.574425" lon="-8.643458">
        <ele>28.071</ele>
        <time>2019-04-30T16:49:16Z</time>
      </trkpt>
      <trkpt lat="42.574486" lon="-8.643443">
        <ele>28.031</ele>
        <time>2019-04-30T16:49:17Z</time>
      </trkpt>
      <trkpt lat="42.575178" lon="-8.643264">
        <ele>27.095</ele>
        <time>2019-04-30T16:49:29Z</time>
      </trkpt>
      <trkpt lat="42.575394" lon="-8.643173">
        <ele>26.012</ele>
        <time>2019-04-30T16:49:33Z</time>
      </trkpt>
      <trkpt lat="42.575449" lon="-8.643164">
        <ele>26.032</ele>
        <time>2019-04-30T16:49:34Z</time>
      </trkpt>
      <trkpt lat="42.575504" lon="-8.643163">
        <ele>26.005</ele>
        <time>2019-04-30T16:49:35Z</time>
      </trkpt>
      <trkpt lat="42.575560" lon="-8.643168">
        <ele>26.508</ele>
        <time>2019-04-30T16:49:36Z</time>
      </trkpt>
      <trkpt lat="42.575617" lon="-8.643176">
        <ele>26.594</ele>
        <time>2019-04-30T16:49:37Z</time>
      </trkpt>
      <trkpt lat="42.576445" lon="-8.643233">
        <ele>27.097</ele>
        <time>2019-04-30T16:49:52Z</time>
      </trkpt>
      <trkpt lat="42.576868" lon="-8.643151">
        <ele>28.023</ele>
        <time>2019-04-30T16:50:01Z</time>
      </trkpt>
      <trkpt lat="42.576913" lon="-8.643158">
        <ele>28.051</ele>
        <time>2019-04-30T16:50:02Z</time>
      </trkpt>
      <trkpt lat="42.577341" lon="-8.643276">
        <ele>29.469</ele>
        <time>2019-04-30T16:50:11Z</time>
      </trkpt>
      <trkpt lat="42.578096" lon="-8.643380">
        <ele>29.411</ele>
        <time>2019-04-30T16:50:26Z</time>
      </trkpt>
      <trkpt lat="42.578941" lon="-8.643354">
        <ele>29.431</ele>
        <time>2019-04-30T16:50:42Z</time>
      </trkpt>
      <trkpt lat="42.579827" lon="-8.643325">
        <ele>29.965</ele>
        <time>2019-04-30T16:50:59Z</time>
      </trkpt>
      <trkpt lat="42.580228" lon="-8.643417">
        <ele>29.474</ele>
        <time>2019-04-30T16:51:10Z</time>
      </trkpt>
      <trkpt lat="42.580502" lon="-8.643749">
        <ele>27.556</ele>
        <time>2019-04-30T16:51:21Z</time>
      </trkpt>
      <trkpt lat="42.580820" lon="-8.644153">
        <ele>27.521</ele>
        <time>2019-04-30T16:51:35Z</time>
      </trkpt>
      <trkpt lat="42.581172" lon="-8.644421">
        <ele>27.508</ele>
        <time>2019-04-30T16:51:46Z</time>
      </trkpt>
      <trkpt lat="42.581205" lon="-8.644450">
        <ele>27.540</ele>
        <time>2019-04-30T16:51:47Z</time>
      </trkpt>
      <trkpt lat="42.581835" lon="-8.644762">
        <ele>25.653</ele>
        <time>2019-04-30T16:52:01Z</time>
      </trkpt>
      <trkpt lat="42.582000" lon="-8.644794">
        <ele>24.699</ele>
        <time>2019-04-30T16:52:04Z</time>
      </trkpt>
      <trkpt lat="42.582057" lon="-8.644798">
        <ele>24.667</ele>
        <time>2019-04-30T16:52:05Z</time>
      </trkpt>
      <trkpt lat="42.582112" lon="-8.644792">
        <ele>24.145</ele>
        <time>2019-04-30T16:52:06Z</time>
      </trkpt>
      <trkpt lat="42.582167" lon="-8.644781">
        <ele>24.177</ele>
        <time>2019-04-30T16:52:07Z</time>
      </trkpt>
      <trkpt lat="42.582221" lon="-8.644766">
        <ele>24.187</ele>
        <time>2019-04-30T16:52:08Z</time>
      </trkpt>
      <trkpt lat="42.582576" lon="-8.644563">
        <ele>23.691</ele>
        <time>2019-04-30T16:52:16Z</time>
      </trkpt>
      <trkpt lat="42.582619" lon="-8.644561">
        <ele>23.648</ele>
        <time>2019-04-30T16:52:17Z</time>
      </trkpt>
      <trkpt lat="42.582663" lon="-8.644576">
        <ele>23.661</ele>
        <time>2019-04-30T16:52:18Z</time>
      </trkpt>
      <trkpt lat="42.582707" lon="-8.644600">
        <ele>23.617</ele>
        <time>2019-04-30T16:52:19Z</time>
      </trkpt>
      <trkpt lat="42.582750" lon="-8.644627">
        <ele>23.608</ele>
        <time>2019-04-30T16:52:20Z</time>
      </trkpt>
      <trkpt lat="42.582835" lon="-8.644676">
        <ele>23.627</ele>
        <time>2019-04-30T16:52:22Z</time>
      </trkpt>
      <trkpt lat="42.582880" lon="-8.644694">
        <ele>23.630</ele>
        <time>2019-04-30T16:52:23Z</time>
      </trkpt>
      <trkpt lat="42.583282" lon="-8.644698">
        <ele>26.586</ele>
        <time>2019-04-30T16:52:34Z</time>
      </trkpt>
      <trkpt lat="42.583396" lon="-8.644687">
        <ele>27.544</ele>
        <time>2019-04-30T16:52:37Z</time>
      </trkpt>
      <trkpt lat="42.583438" lon="-8.644696">
        <ele>28.042</ele>
        <time>2019-04-30T16:52:38Z</time>
      </trkpt>
      <trkpt lat="42.583481" lon="-8.644711">
        <ele>28.564</ele>
        <time>2019-04-30T16:52:39Z</time>
      </trkpt>
      <trkpt lat="42.583525" lon="-8.644728">
        <ele>28.584</ele>
        <time>2019-04-30T16:52:40Z</time>
      </trkpt>
      <trkpt lat="42.583566" lon="-8.644745">
        <ele>28.918</ele>
        <time>2019-04-30T16:52:41Z</time>
      </trkpt>
      <trkpt lat="42.584094" lon="-8.645097">
        <ele>30.495</ele>
        <time>2019-04-30T16:52:55Z</time>
      </trkpt>
      <trkpt lat="42.584350" lon="-8.645368">
        <ele>28.549</ele>
        <time>2019-04-30T16:53:02Z</time>
      </trkpt>
      <trkpt lat="42.584383" lon="-8.645403">
        <ele>28.023</ele>
        <time>2019-04-30T16:53:03Z</time>
      </trkpt>
      <trkpt lat="42.584415" lon="-8.645437">
        <ele>28.008</ele>
        <time>2019-04-30T16:53:04Z</time>
      </trkpt>
      <trkpt lat="42.584447" lon="-8.645472">
        <ele>27.592</ele>
        <time>2019-04-30T16:53:05Z</time>
      </trkpt>
      <trkpt lat="42.584479" lon="-8.645504">
        <ele>27.575</ele>
        <time>2019-04-30T16:53:06Z</time>
      </trkpt>
      <trkpt lat="42.584541" lon="-8.645575">
        <ele>27.011</ele>
        <time>2019-04-30T16:53:08Z</time>
      </trkpt>
      <trkpt lat="42.584705" lon="-8.645742">
        <ele>27.019</ele>
        <time>2019-04-30T16:53:13Z</time>
      </trkpt>
      <trkpt lat="42.584785" lon="-8.645781">
        <ele>27.067</ele>
        <time>2019-04-30T16:53:15Z</time>
      </trkpt>
      <trkpt lat="42.584826" lon="-8.645798">
        <ele>27.019</ele>
        <time>2019-04-30T16:53:16Z</time>
      </trkpt>
      <trkpt lat="42.584904" lon="-8.645822">
        <ele>27.079</ele>
        <time>2019-04-30T16:53:18Z</time>
      </trkpt>
      <trkpt lat="42.584946" lon="-8.645827">
        <ele>26.553</ele>
        <time>2019-04-30T16:53:19Z</time>
      </trkpt>
      <trkpt lat="42.585334" lon="-8.645828">
        <ele>25.687</ele>
        <time>2019-04-30T16:53:28Z</time>
      </trkpt>
      <trkpt lat="42.585377" lon="-8.645831">
        <ele>25.642</ele>
        <time>2019-04-30T16:53:29Z</time>
      </trkpt>
      <trkpt lat="42.585647" lon="-8.645793">
        <ele>26.026</ele>
        <time>2019-04-30T16:53:35Z</time>
      </trkpt>
      <trkpt lat="42.585734" lon="-8.645787">
        <ele>26.008</ele>
        <time>2019-04-30T16:53:37Z</time>
      </trkpt>
      <trkpt lat="42.585778" lon="-8.645793">
        <ele>26.081</ele>
        <time>2019-04-30T16:53:38Z</time>
      </trkpt>
      <trkpt lat="42.586305" lon="-8.645919">
        <ele>26.514</ele>
        <time>2019-04-30T16:53:50Z</time>
      </trkpt>
      <trkpt lat="42.586610" lon="-8.645870">
        <ele>27.550</ele>
        <time>2019-04-30T16:53:57Z</time>
      </trkpt>
      <trkpt lat="42.586648" lon="-8.645845">
        <ele>27.548</ele>
        <time>2019-04-30T16:53:58Z</time>
      </trkpt>
      <trkpt lat="42.586683" lon="-8.645811">
        <ele>27.546</ele>
        <time>2019-04-30T16:53:59Z</time>
      </trkpt>
      <trkpt lat="42.586854" lon="-8.645659">
        <ele>28.568</ele>
        <time>2019-04-30T16:54:04Z</time>
      </trkpt>
      <trkpt lat="42.587520" lon="-8.645422">
        <ele>30.438</ele>
        <time>2019-04-30T16:54:21Z</time>
      </trkpt>
      <trkpt lat="42.587842" lon="-8.645331">
        <ele>31.372</ele>
        <time>2019-04-30T16:54:29Z</time>
      </trkpt>
      <trkpt lat="42.587926" lon="-8.645282">
        <ele>31.318</ele>
        <time>2019-04-30T16:54:31Z</time>
      </trkpt>
      <trkpt lat="42.587971" lon="-8.645267">
        <ele>30.998</ele>
        <time>2019-04-30T16:54:32Z</time>
      </trkpt>
      <trkpt lat="42.588057" lon="-8.645252">
        <ele>30.417</ele>
        <time>2019-04-30T16:54:34Z</time>
      </trkpt>
      <trkpt lat="42.588096" lon="-8.645253">
        <ele>30.408</ele>
        <time>2019-04-30T16:54:35Z</time>
      </trkpt>
      <trkpt lat="42.588131" lon="-8.645261">
        <ele>30.464</ele>
        <time>2019-04-30T16:54:36Z</time>
      </trkpt>
      <trkpt lat="42.588168" lon="-8.645274">
        <ele>30.457</ele>
        <time>2019-04-30T16:54:37Z</time>
      </trkpt>
      <trkpt lat="42.588206" lon="-8.645285">
        <ele>30.433</ele>
        <time>2019-04-30T16:54:38Z</time>
      </trkpt>
      <trkpt lat="42.588242" lon="-8.645288">
        <ele>30.911</ele>
        <time>2019-04-30T16:54:39Z</time>
      </trkpt>
      <trkpt lat="42.588275" lon="-8.645284">
        <ele>30.969</ele>
        <time>2019-04-30T16:54:40Z</time>
      </trkpt>
      <trkpt lat="42.588305" lon="-8.645276">
        <ele>31.361</ele>
        <time>2019-04-30T16:54:41Z</time>
      </trkpt>
      <trkpt lat="42.588361" lon="-8.645217">
        <ele>31.311</ele>
        <time>2019-04-30T16:54:44Z</time>
      </trkpt>
      <trkpt lat="42.588355" lon="-8.645191">
        <ele>31.835</ele>
        <time>2019-04-30T16:54:45Z</time>
      </trkpt>
      <trkpt lat="42.588338" lon="-8.645175">
        <ele>31.883</ele>
        <time>2019-04-30T16:54:46Z</time>
      </trkpt>
      <trkpt lat="42.588319" lon="-8.645186">
        <ele>31.825</ele>
        <time>2019-04-30T16:54:47Z</time>
      </trkpt>
      <trkpt lat="42.588310" lon="-8.645216">
        <ele>31.817</ele>
        <time>2019-04-30T16:54:48Z</time>
      </trkpt>
      <trkpt lat="42.588314" lon="-8.645257">
        <ele>31.808</ele>
        <time>2019-04-30T16:54:49Z</time>
      </trkpt>
      <trkpt lat="42.588327" lon="-8.645301">
        <ele>31.831</ele>
        <time>2019-04-30T16:54:50Z</time>
      </trkpt>
      <trkpt lat="42.588348" lon="-8.645338">
        <ele>31.854</ele>
        <time>2019-04-30T16:54:51Z</time>
      </trkpt>
      <trkpt lat="42.588376" lon="-8.645366">
        <ele>31.820</ele>
        <time>2019-04-30T16:54:52Z</time>
      </trkpt>
      <trkpt lat="42.588411" lon="-8.645388">
        <ele>31.818</ele>
        <time>2019-04-30T16:54:53Z</time>
      </trkpt>
      <trkpt lat="42.588451" lon="-8.645404">
        <ele>31.826</ele>
        <time>2019-04-30T16:54:54Z</time>
      </trkpt>
      <trkpt lat="42.588492" lon="-8.645415">
        <ele>31.358</ele>
        <time>2019-04-30T16:54:55Z</time>
      </trkpt>
      <trkpt lat="42.588536" lon="-8.645422">
        <ele>31.338</ele>
        <time>2019-04-30T16:54:56Z</time>
      </trkpt>
      <trkpt lat="42.589024" lon="-8.645428">
        <ele>31.352</ele>
        <time>2019-04-30T16:55:08Z</time>
      </trkpt>
      <trkpt lat="42.589390" lon="-8.645504">
        <ele>31.862</ele>
        <time>2019-04-30T16:55:20Z</time>
      </trkpt>
      <trkpt lat="42.589435" lon="-8.645572">
        <ele>32.383</ele>
        <time>2019-04-30T16:55:29Z</time>
      </trkpt>
      <trkpt lat="42.589426" lon="-8.645586">
        <ele>32.311</ele>
        <time>2019-04-30T16:55:54Z</time>
      </trkpt>
      <trkpt lat="42.589437" lon="-8.645577">
        <ele>31.808</ele>
        <time>2019-04-30T16:55:58Z</time>
      </trkpt>
      <trkpt lat="42.589444" lon="-8.645562">
        <ele>31.899</ele>
        <time>2019-04-30T16:55:59Z</time>
      </trkpt>
      <trkpt lat="42.589455" lon="-8.645528">
        <ele>31.332</ele>
        <time>2019-04-30T16:56:01Z</time>
      </trkpt>
      <trkpt lat="42.589469" lon="-8.645514">
        <ele>31.338</ele>
        <time>2019-04-30T16:56:02Z</time>
      </trkpt>
      <trkpt lat="42.589491" lon="-8.645500">
        <ele>30.946</ele>
        <time>2019-04-30T16:56:03Z</time>
      </trkpt>
      <trkpt lat="42.589518" lon="-8.645488">
        <ele>30.954</ele>
        <time>2019-04-30T16:56:04Z</time>
      </trkpt>
      <trkpt lat="42.589548" lon="-8.645481">
        <ele>30.426</ele>
        <time>2019-04-30T16:56:05Z</time>
      </trkpt>
      <trkpt lat="42.589582" lon="-8.645475">
        <ele>30.446</ele>
        <time>2019-04-30T16:56:06Z</time>
      </trkpt>
      <trkpt lat="42.589614" lon="-8.645459">
        <ele>30.410</ele>
        <time>2019-04-30T16:56:07Z</time>
      </trkpt>
      <trkpt lat="42.589644" lon="-8.645433">
        <ele>29.925</ele>
        <time>2019-04-30T16:56:08Z</time>
      </trkpt>
      <trkpt lat="42.589681" lon="-8.645409">
        <ele>29.926</ele>
        <time>2019-04-30T16:56:09Z</time>
      </trkpt>
      <trkpt lat="42.589718" lon="-8.645386">
        <ele>29.908</ele>
        <time>2019-04-30T16:56:10Z</time>
      </trkpt>
      <trkpt lat="42.590226" lon="-8.645039">
        <ele>29.908</ele>
        <time>2019-04-30T16:56:24Z</time>
      </trkpt>
      <trkpt lat="42.590857" lon="-8.644523">
        <ele>30.475</ele>
        <time>2019-04-30T16:56:41Z</time>
      </trkpt>
      <trkpt lat="42.591297" lon="-8.644079">
        <ele>31.868</ele>
        <time>2019-04-30T16:56:54Z</time>
      </trkpt>
      <trkpt lat="42.591331" lon="-8.644052">
        <ele>32.384</ele>
        <time>2019-04-30T16:56:55Z</time>
      </trkpt>
      <trkpt lat="42.591368" lon="-8.644027">
        <ele>32.862</ele>
        <time>2019-04-30T16:56:56Z</time>
      </trkpt>
      <trkpt lat="42.591405" lon="-8.644006">
        <ele>32.810</ele>
        <time>2019-04-30T16:56:57Z</time>
      </trkpt>
      <trkpt lat="42.591444" lon="-8.643994">
        <ele>32.872</ele>
        <time>2019-04-30T16:56:58Z</time>
      </trkpt>
      <trkpt lat="42.591485" lon="-8.643989">
        <ele>32.862</ele>
        <time>2019-04-30T16:56:59Z</time>
      </trkpt>
      <trkpt lat="42.591641" lon="-8.643974">
        <ele>32.856</ele>
        <time>2019-04-30T16:57:03Z</time>
      </trkpt>
      <trkpt lat="42.591682" lon="-8.643977">
        <ele>32.347</ele>
        <time>2019-04-30T16:57:04Z</time>
      </trkpt>
      <trkpt lat="42.591724" lon="-8.643986">
        <ele>32.329</ele>
        <time>2019-04-30T16:57:05Z</time>
      </trkpt>
      <trkpt lat="42.592289" lon="-8.644186">
        <ele>34.721</ele>
        <time>2019-04-30T16:57:20Z</time>
      </trkpt>
      <trkpt lat="42.592681" lon="-8.644213">
        <ele>36.108</ele>
        <time>2019-04-30T16:57:32Z</time>
      </trkpt>
      <trkpt lat="42.593309" lon="-8.643990">
        <ele>39.557</ele>
        <time>2019-04-30T16:57:51Z</time>
      </trkpt>
      <trkpt lat="42.593611" lon="-8.643837">
        <ele>40.970</ele>
        <time>2019-04-30T16:58:05Z</time>
      </trkpt>
      <trkpt lat="42.593966" lon="-8.643722">
        <ele>42.976</ele>
        <time>2019-04-30T16:58:21Z</time>
      </trkpt>
      <trkpt lat="42.594388" lon="-8.643576">
        <ele>44.384</ele>
        <time>2019-04-30T16:58:38Z</time>
      </trkpt>
      <trkpt lat="42.594809" lon="-8.643566">
        <ele>46.212</ele>
        <time>2019-04-30T16:58:54Z</time>
      </trkpt>
      <trkpt lat="42.595204" lon="-8.643657">
        <ele>48.684</ele>
        <time>2019-04-30T16:59:08Z</time>
      </trkpt>
      <trkpt lat="42.595725" lon="-8.643677">
        <ele>49.144</ele>
        <time>2019-04-30T16:59:23Z</time>
      </trkpt>
      <trkpt lat="42.596299" lon="-8.643613">
        <ele>49.698</ele>
        <time>2019-04-30T16:59:39Z</time>
      </trkpt>
      <trkpt lat="42.596788" lon="-8.643611">
        <ele>48.259</ele>
        <time>2019-04-30T16:59:49Z</time>
      </trkpt>
      <trkpt lat="42.597655" lon="-8.643561">
        <ele>43.403</ele>
        <time>2019-04-30T17:00:03Z</time>
      </trkpt>
      <trkpt lat="42.597994" lon="-8.643524">
        <ele>41.423</ele>
        <time>2019-04-30T17:00:09Z</time>
      </trkpt>
      <trkpt lat="42.598045" lon="-8.643496">
        <ele>40.908</ele>
        <time>2019-04-30T17:00:10Z</time>
      </trkpt>
      <trkpt lat="42.598090" lon="-8.643456">
        <ele>40.558</ele>
        <time>2019-04-30T17:00:11Z</time>
      </trkpt>
      <trkpt lat="42.598171" lon="-8.643367">
        <ele>40.031</ele>
        <time>2019-04-30T17:00:13Z</time>
      </trkpt>
      <trkpt lat="42.598215" lon="-8.643340">
        <ele>40.077</ele>
        <time>2019-04-30T17:00:14Z</time>
      </trkpt>
      <trkpt lat="42.598264" lon="-8.643324">
        <ele>39.545</ele>
        <time>2019-04-30T17:00:15Z</time>
      </trkpt>
      <trkpt lat="42.598639" lon="-8.643289">
        <ele>38.183</ele>
        <time>2019-04-30T17:00:22Z</time>
      </trkpt>
      <trkpt lat="42.599044" lon="-8.643325">
        <ele>37.115</ele>
        <time>2019-04-30T17:00:29Z</time>
      </trkpt>
      <trkpt lat="42.599099" lon="-8.643314">
        <ele>37.115</ele>
        <time>2019-04-30T17:00:30Z</time>
      </trkpt>
      <trkpt lat="42.599359" lon="-8.643246">
        <ele>35.249</ele>
        <time>2019-04-30T17:00:35Z</time>
      </trkpt>
      <trkpt lat="42.599505" lon="-8.643230">
        <ele>35.244</ele>
        <time>2019-04-30T17:00:38Z</time>
      </trkpt>
      <trkpt lat="42.599549" lon="-8.643213">
        <ele>35.205</ele>
        <time>2019-04-30T17:00:39Z</time>
      </trkpt>
      <trkpt lat="42.599588" lon="-8.643190">
        <ele>35.215</ele>
        <time>2019-04-30T17:00:40Z</time>
      </trkpt>
      <trkpt lat="42.599619" lon="-8.643161">
        <ele>35.208</ele>
        <time>2019-04-30T17:00:41Z</time>
      </trkpt>
      <trkpt lat="42.599649" lon="-8.643127">
        <ele>34.717</ele>
        <time>2019-04-30T17:00:42Z</time>
      </trkpt>
      <trkpt lat="42.599711" lon="-8.643058">
        <ele>34.750</ele>
        <time>2019-04-30T17:00:44Z</time>
      </trkpt>
      <trkpt lat="42.599743" lon="-8.643024">
        <ele>34.736</ele>
        <time>2019-04-30T17:00:45Z</time>
      </trkpt>
      <trkpt lat="42.599774" lon="-8.642988">
        <ele>35.244</ele>
        <time>2019-04-30T17:00:46Z</time>
      </trkpt>
      <trkpt lat="42.599807" lon="-8.642964">
        <ele>35.242</ele>
        <time>2019-04-30T17:00:47Z</time>
      </trkpt>
      <trkpt lat="42.599843" lon="-8.642952">
        <ele>35.274</ele>
        <time>2019-04-30T17:00:48Z</time>
      </trkpt>
      <trkpt lat="42.599879" lon="-8.642945">
        <ele>35.734</ele>
        <time>2019-04-30T17:00:49Z</time>
      </trkpt>
      <trkpt lat="42.600322" lon="-8.642870">
        <ele>36.128</ele>
        <time>2019-04-30T17:01:01Z</time>
      </trkpt>
      <trkpt lat="42.600474" lon="-8.642833">
        <ele>31.899</ele>
        <time>2019-04-30T17:01:10Z</time>
      </trkpt>
      <trkpt lat="42.600481" lon="-8.642814">
        <ele>31.307</ele>
        <time>2019-04-30T17:01:24Z</time>
      </trkpt>
      <trkpt lat="42.600472" lon="-8.642805">
        <ele>31.327</ele>
        <time>2019-04-30T17:01:25Z</time>
      </trkpt>
      <trkpt lat="42.600459" lon="-8.642801">
        <ele>31.308</ele>
        <time>2019-04-30T17:01:26Z</time>
      </trkpt>
      <trkpt lat="42.600444" lon="-8.642798">
        <ele>31.382</ele>
        <time>2019-04-30T17:01:27Z</time>
      </trkpt>
      <trkpt lat="42.600426" lon="-8.642801">
        <ele>31.375</ele>
        <time>2019-04-30T17:01:28Z</time>
      </trkpt>
      <trkpt lat="42.600405" lon="-8.642808">
        <ele>31.841</ele>
        <time>2019-04-30T17:01:29Z</time>
      </trkpt>
      <trkpt lat="42.600383" lon="-8.642818">
        <ele>31.829</ele>
        <time>2019-04-30T17:01:30Z</time>
      </trkpt>
      <trkpt lat="42.600357" lon="-8.642827">
        <ele>31.877</ele>
        <time>2019-04-30T17:01:31Z</time>
      </trkpt>
      <trkpt lat="42.600331" lon="-8.642836">
        <ele>32.379</ele>
        <time>2019-04-30T17:01:32Z</time>
      </trkpt>
      <trkpt lat="42.600311" lon="-8.642840">
        <ele>32.819</ele>
        <time>2019-04-30T17:01:33Z</time>
      </trkpt>
      <trkpt lat="42.600208" lon="-8.642893">
        <ele>33.313</ele>
        <time>2019-04-30T17:01:43Z</time>
      </trkpt>
      <trkpt lat="42.600202" lon="-8.642887">
        <ele>33.758</ele>
        <time>2019-04-30T17:01:57Z</time>
      </trkpt>
      <trkpt lat="42.600204" lon="-8.642885">
        <ele>34.252</ele>
        <time>2019-04-30T17:02:18Z</time>
      </trkpt>
      <trkpt lat="42.600207" lon="-8.642854">
        <ele>35.717</ele>
        <time>2019-04-30T17:02:49Z</time>
      </trkpt>
      <trkpt lat="42.600201" lon="-8.642843">
        <ele>36.608</ele>
        <time>2019-04-30T17:03:17Z</time>
      </trkpt>
      <trkpt lat="42.600200" lon="-8.642860">
        <ele>36.198</ele>
        <time>2019-04-30T17:03:49Z</time>
      </trkpt>
      <trkpt lat="42.600203" lon="-8.642869">
        <ele>35.711</ele>
        <time>2019-04-30T17:04:24Z</time>
      </trkpt>
      <trkpt lat="42.600208" lon="-8.642874">
        <ele>37.187</ele>
        <time>2019-04-30T17:04:56Z</time>
      </trkpt>
      <trkpt lat="42.600208" lon="-8.642859">
        <ele>37.145</ele>
        <time>2019-04-30T17:05:29Z</time>
      </trkpt>
      <trkpt lat="42.600210" lon="-8.642854">
        <ele>37.653</ele>
        <time>2019-04-30T17:06:03Z</time>
      </trkpt>
      <trkpt lat="42.600212" lon="-8.642864">
        <ele>38.145</ele>
        <time>2019-04-30T17:06:36Z</time>
      </trkpt>
      <trkpt lat="42.600214" lon="-8.642867">
        <ele>38.135</ele>
        <time>2019-04-30T17:07:10Z</time>
      </trkpt>
      <trkpt lat="42.600204" lon="-8.642855">
        <ele>37.629</ele>
        <time>2019-04-30T17:07:48Z</time>
      </trkpt>
      <trkpt lat="42.600206" lon="-8.642858">
        <ele>37.163</ele>
        <time>2019-04-30T17:08:23Z</time>
      </trkpt>
      <trkpt lat="42.600203" lon="-8.642849">
        <ele>37.644</ele>
        <time>2019-04-30T17:08:59Z</time>
      </trkpt>
      <trkpt lat="42.600202" lon="-8.642858">
        <ele>37.618</ele>
        <time>2019-04-30T17:09:28Z</time>
      </trkpt>
      <trkpt lat="42.600205" lon="-8.642862">
        <ele>36.108</ele>
        <time>2019-04-30T17:09:56Z</time>
      </trkpt>
      <trkpt lat="42.600208" lon="-8.642872">
        <ele>36.129</ele>
        <time>2019-04-30T17:10:22Z</time>
      </trkpt>
      <trkpt lat="42.600211" lon="-8.642874">
        <ele>35.782</ele>
        <time>2019-04-30T17:10:50Z</time>
      </trkpt>
      <trkpt lat="42.600219" lon="-8.642882">
        <ele>35.238</ele>
        <time>2019-04-30T17:11:14Z</time>
      </trkpt>
      <trkpt lat="42.600214" lon="-8.642886">
        <ele>35.216</ele>
        <time>2019-04-30T17:11:42Z</time>
      </trkpt>
      <trkpt lat="42.600205" lon="-8.642860">
        <ele>37.144</ele>
        <time>2019-04-30T17:12:18Z</time>
      </trkpt>
      <trkpt lat="42.600204" lon="-8.642862">
        <ele>37.116</ele>
        <time>2019-04-30T17:12:50Z</time>
      </trkpt>
      <trkpt lat="42.600212" lon="-8.642875">
        <ele>36.686</ele>
        <time>2019-04-30T17:13:32Z</time>
      </trkpt>
      <trkpt lat="42.600211" lon="-8.642872">
        <ele>36.630</ele>
        <time>2019-04-30T17:14:12Z</time>
      </trkpt>
      <trkpt lat="42.600211" lon="-8.642879">
        <ele>36.166</ele>
        <time>2019-04-30T17:14:47Z</time>
      </trkpt>
      <trkpt lat="42.600215" lon="-8.642881">
        <ele>35.729</ele>
        <time>2019-04-30T17:15:22Z</time>
      </trkpt>
      <trkpt lat="42.600215" lon="-8.642877">
        <ele>35.221</ele>
        <time>2019-04-30T17:15:56Z</time>
      </trkpt>
      <trkpt lat="42.600209" lon="-8.642881">
        <ele>34.708</ele>
        <time>2019-04-30T17:16:30Z</time>
      </trkpt>
      <trkpt lat="42.600207" lon="-8.642890">
        <ele>33.779</ele>
        <time>2019-04-30T17:17:08Z</time>
      </trkpt>
      <trkpt lat="42.600205" lon="-8.642900">
        <ele>32.392</ele>
        <time>2019-04-30T17:17:46Z</time>
      </trkpt>
      <trkpt lat="42.600207" lon="-8.642916">
        <ele>32.378</ele>
        <time>2019-04-30T17:18:23Z</time>
      </trkpt>
      <trkpt lat="42.600208" lon="-8.642911">
        <ele>32.856</ele>
        <time>2019-04-30T17:18:48Z</time>
      </trkpt>
      <trkpt lat="42.600206" lon="-8.642901">
        <ele>32.884</ele>
        <time>2019-04-30T17:19:18Z</time>
      </trkpt>
      <trkpt lat="42.600209" lon="-8.642903">
        <ele>32.876</ele>
        <time>2019-04-30T17:19:38Z</time>
      </trkpt>
      <trkpt lat="42.600241" lon="-8.642883">
        <ele>32.336</ele>
        <time>2019-04-30T17:19:48Z</time>
      </trkpt>
      <trkpt lat="42.600298" lon="-8.642885">
        <ele>32.810</ele>
        <time>2019-04-30T17:19:52Z</time>
      </trkpt>
      <trkpt lat="42.600317" lon="-8.642898">
        <ele>32.881</ele>
        <time>2019-04-30T17:19:53Z</time>
      </trkpt>
      <trkpt lat="42.600337" lon="-8.642919">
        <ele>32.361</ele>
        <time>2019-04-30T17:19:54Z</time>
      </trkpt>
      <trkpt lat="42.600356" lon="-8.642942">
        <ele>32.317</ele>
        <time>2019-04-30T17:19:55Z</time>
      </trkpt>
      <trkpt lat="42.600373" lon="-8.642968">
        <ele>32.808</ele>
        <time>2019-04-30T17:19:56Z</time>
      </trkpt>
      <trkpt lat="42.600393" lon="-8.642993">
        <ele>32.821</ele>
        <time>2019-04-30T17:19:57Z</time>
      </trkpt>
      <trkpt lat="42.600413" lon="-8.643020">
        <ele>32.844</ele>
        <time>2019-04-30T17:19:58Z</time>
      </trkpt>
      <trkpt lat="42.600431" lon="-8.643047">
        <ele>33.320</ele>
        <time>2019-04-30T17:19:59Z</time>
      </trkpt>
      <trkpt lat="42.600455" lon="-8.643068">
        <ele>33.788</ele>
        <time>2019-04-30T17:20:00Z</time>
      </trkpt>
      <trkpt lat="42.600482" lon="-8.643081">
        <ele>33.716</ele>
        <time>2019-04-30T17:20:01Z</time>
      </trkpt>
      <trkpt lat="42.600515" lon="-8.643084">
        <ele>34.218</ele>
        <time>2019-04-30T17:20:02Z</time>
      </trkpt>
      <trkpt lat="42.600552" lon="-8.643081">
        <ele>34.728</ele>
        <time>2019-04-30T17:20:03Z</time>
      </trkpt>
      <trkpt lat="42.600718" lon="-8.643067">
        <ele>35.792</ele>
        <time>2019-04-30T17:20:07Z</time>
      </trkpt>
      <trkpt lat="42.600918" lon="-8.643007">
        <ele>35.218</ele>
        <time>2019-04-30T17:20:11Z</time>
      </trkpt>
      <trkpt lat="42.600970" lon="-8.643002">
        <ele>34.798</ele>
        <time>2019-04-30T17:20:12Z</time>
      </trkpt>
      <trkpt lat="42.601322" lon="-8.643007">
        <ele>36.117</ele>
        <time>2019-04-30T17:20:22Z</time>
      </trkpt>
      <trkpt lat="42.601382" lon="-8.642980">
        <ele>36.108</ele>
        <time>2019-04-30T17:20:31Z</time>
      </trkpt>
      <trkpt lat="42.601392" lon="-8.642956">
        <ele>36.144</ele>
        <time>2019-04-30T17:20:33Z</time>
      </trkpt>
      <trkpt lat="42.601401" lon="-8.642941">
        <ele>36.137</ele>
        <time>2019-04-30T17:20:34Z</time>
      </trkpt>
      <trkpt lat="42.601419" lon="-8.642925">
        <ele>35.733</ele>
        <time>2019-04-30T17:20:35Z</time>
      </trkpt>
      <trkpt lat="42.601441" lon="-8.642909">
        <ele>35.721</ele>
        <time>2019-04-30T17:20:36Z</time>
      </trkpt>
      <trkpt lat="42.601466" lon="-8.642897">
        <ele>35.289</ele>
        <time>2019-04-30T17:20:37Z</time>
      </trkpt>
      <trkpt lat="42.601494" lon="-8.642882">
        <ele>34.211</ele>
        <time>2019-04-30T17:20:38Z</time>
      </trkpt>
      <trkpt lat="42.601517" lon="-8.642863">
        <ele>33.311</ele>
        <time>2019-04-30T17:20:39Z</time>
      </trkpt>
      <trkpt lat="42.601539" lon="-8.642844">
        <ele>32.325</ele>
        <time>2019-04-30T17:20:40Z</time>
      </trkpt>
      <trkpt lat="42.601678" lon="-8.642715">
        <ele>28.993</ele>
        <time>2019-04-30T17:20:47Z</time>
      </trkpt>
      <trkpt lat="42.601717" lon="-8.642697">
        <ele>28.565</ele>
        <time>2019-04-30T17:20:48Z</time>
      </trkpt>
      <trkpt lat="42.601756" lon="-8.642686">
        <ele>28.021</ele>
        <time>2019-04-30T17:20:49Z</time>
      </trkpt>
      <trkpt lat="42.601835" lon="-8.642658">
        <ele>27.508</ele>
        <time>2019-04-30T17:20:51Z</time>
      </trkpt>
      <trkpt lat="42.602065" lon="-8.642598">
        <ele>25.142</ele>
        <time>2019-04-30T17:20:57Z</time>
      </trkpt>
      <trkpt lat="42.602557" lon="-8.642458">
        <ele>23.655</ele>
        <time>2019-04-30T17:21:10Z</time>
      </trkpt>
      <trkpt lat="42.602957" lon="-8.642412">
        <ele>26.571</ele>
        <time>2019-04-30T17:21:20Z</time>
      </trkpt>
      <trkpt lat="42.603295" lon="-8.642371">
        <ele>27.039</ele>
        <time>2019-04-30T17:21:30Z</time>
      </trkpt>
      <trkpt lat="42.603621" lon="-8.642239">
        <ele>26.017</ele>
        <time>2019-04-30T17:21:42Z</time>
      </trkpt>
      <trkpt lat="42.603616" lon="-8.642231">
        <ele>26.069</ele>
        <time>2019-04-30T17:21:59Z</time>
      </trkpt>
      <trkpt lat="42.603625" lon="-8.642232">
        <ele>26.599</ele>
        <time>2019-04-30T17:22:22Z</time>
      </trkpt>
      <trkpt lat="42.603618" lon="-8.642248">
        <ele>26.553</ele>
        <time>2019-04-30T17:22:27Z</time>
      </trkpt>
      <trkpt lat="42.603556" lon="-8.642314">
        <ele>24.188</ele>
        <time>2019-04-30T17:22:33Z</time>
      </trkpt>
      <trkpt lat="42.603550" lon="-8.642336">
        <ele>23.624</ele>
        <time>2019-04-30T17:22:34Z</time>
      </trkpt>
      <trkpt lat="42.603544" lon="-8.642422">
        <ele>21.726</ele>
        <time>2019-04-30T17:22:37Z</time>
      </trkpt>
      <trkpt lat="42.603551" lon="-8.642447">
        <ele>21.208</ele>
        <time>2019-04-30T17:22:38Z</time>
      </trkpt>
      <trkpt lat="42.603561" lon="-8.642473">
        <ele>20.851</ele>
        <time>2019-04-30T17:22:39Z</time>
      </trkpt>
      <trkpt lat="42.603574" lon="-8.642497">
        <ele>20.344</ele>
        <time>2019-04-30T17:22:40Z</time>
      </trkpt>
      <trkpt lat="42.603586" lon="-8.642516">
        <ele>19.820</ele>
        <time>2019-04-30T17:22:41Z</time>
      </trkpt>
      <trkpt lat="42.603591" lon="-8.642554">
        <ele>18.888</ele>
        <time>2019-04-30T17:22:47Z</time>
      </trkpt>
      <trkpt lat="42.603598" lon="-8.642570">
        <ele>18.856</ele>
        <time>2019-04-30T17:22:48Z</time>
      </trkpt>
      <trkpt lat="42.603608" lon="-8.642588">
        <ele>18.458</ele>
        <time>2019-04-30T17:22:49Z</time>
      </trkpt>
      <trkpt lat="42.603619" lon="-8.642609">
        <ele>18.428</ele>
        <time>2019-04-30T17:22:50Z</time>
      </trkpt>
      <trkpt lat="42.603628" lon="-8.642631">
        <ele>17.952</ele>
        <time>2019-04-30T17:22:51Z</time>
      </trkpt>
      <trkpt lat="42.603633" lon="-8.642651">
        <ele>17.991</ele>
        <time>2019-04-30T17:22:52Z</time>
      </trkpt>
      <trkpt lat="42.603640" lon="-8.642677">
        <ele>17.481</ele>
        <time>2019-04-30T17:22:53Z</time>
      </trkpt>
      <trkpt lat="42.603645" lon="-8.642707">
        <ele>17.419</ele>
        <time>2019-04-30T17:22:54Z</time>
      </trkpt>
      <trkpt lat="42.603666" lon="-8.642834">
        <ele>16.408</ele>
        <time>2019-04-30T17:22:58Z</time>
      </trkpt>
      <trkpt lat="42.603739" lon="-8.642939">
        <ele>16.422</ele>
        <time>2019-04-30T17:23:02Z</time>
      </trkpt>
      <trkpt lat="42.603736" lon="-8.642963">
        <ele>16.455</ele>
        <time>2019-04-30T17:23:03Z</time>
      </trkpt>
      <trkpt lat="42.603723" lon="-8.642984">
        <ele>16.941</ele>
        <time>2019-04-30T17:23:04Z</time>
      </trkpt>
      <trkpt lat="42.603683" lon="-8.642999">
        <ele>17.979</ele>
        <time>2019-04-30T17:23:06Z</time>
      </trkpt>
      <trkpt lat="42.603610" lon="-8.643008">
        <ele>22.227</ele>
        <time>2019-04-30T17:23:10Z</time>
      </trkpt>
      <trkpt lat="42.603492" lon="-8.643145">
        <ele>25.619</ele>
        <time>2019-04-30T17:23:20Z</time>
      </trkpt>
      <trkpt lat="42.603328" lon="-8.643411">
        <ele>28.079</ele>
        <time>2019-04-30T17:23:28Z</time>
      </trkpt>
      <trkpt lat="42.603303" lon="-8.643466">
        <ele>28.093</ele>
        <time>2019-04-30T17:23:29Z</time>
      </trkpt>
      <trkpt lat="42.603277" lon="-8.643519">
        <ele>28.098</ele>
        <time>2019-04-30T17:23:30Z</time>
      </trkpt>
      <trkpt lat="42.603175" lon="-8.643702">
        <ele>28.015</ele>
        <time>2019-04-30T17:23:34Z</time>
      </trkpt>
      <trkpt lat="42.603087" lon="-8.643587">
        <ele>27.026</ele>
        <time>2019-04-30T17:23:40Z</time>
      </trkpt>
      <trkpt lat="42.603081" lon="-8.643230">
        <ele>28.008</ele>
        <time>2019-04-30T17:23:49Z</time>
      </trkpt>
      <trkpt lat="42.603124" lon="-8.642891">
        <ele>28.022</ele>
        <time>2019-04-30T17:24:00Z</time>
      </trkpt>
      <trkpt lat="42.603136" lon="-8.642825">
        <ele>26.565</ele>
        <time>2019-04-30T17:24:12Z</time>
      </trkpt>
      <trkpt lat="42.603160" lon="-8.642797">
        <ele>28.981</ele>
        <time>2019-04-30T17:24:33Z</time>
      </trkpt>
      <trkpt lat="42.603158" lon="-8.642817">
        <ele>28.959</ele>
        <time>2019-04-30T17:24:47Z</time>
      </trkpt>
      <trkpt lat="42.603123" lon="-8.642947">
        <ele>29.487</ele>
        <time>2019-04-30T17:24:56Z</time>
      </trkpt>
      <trkpt lat="42.603115" lon="-8.642838">
        <ele>28.949</ele>
        <time>2019-04-30T17:25:02Z</time>
      </trkpt>
      <trkpt lat="42.603276" lon="-8.642463">
        <ele>25.179</ele>
        <time>2019-04-30T17:25:13Z</time>
      </trkpt>
      <trkpt lat="42.603293" lon="-8.642406">
        <ele>25.193</ele>
        <time>2019-04-30T17:25:15Z</time>
      </trkpt>
      <trkpt lat="42.603181" lon="-8.642260">
        <ele>25.175</ele>
        <time>2019-04-30T17:25:22Z</time>
      </trkpt>
      <trkpt lat="42.603168" lon="-8.642208">
        <ele>24.128</ele>
        <time>2019-04-30T17:25:37Z</time>
      </trkpt>
      <trkpt lat="42.603159" lon="-8.642124">
        <ele>23.620</ele>
        <time>2019-04-30T17:25:58Z</time>
      </trkpt>
      <trkpt lat="42.603184" lon="-8.642058">
        <ele>23.208</ele>
        <time>2019-04-30T17:26:03Z</time>
      </trkpt>
      <trkpt lat="42.603196" lon="-8.642036">
        <ele>23.250</ele>
        <time>2019-04-30T17:26:15Z</time>
      </trkpt>
      <trkpt lat="42.603179" lon="-8.642058">
        <ele>23.673</ele>
        <time>2019-04-30T17:26:24Z</time>
      </trkpt>
      <trkpt lat="42.603233" lon="-8.642322">
        <ele>24.159</ele>
        <time>2019-04-30T17:26:34Z</time>
      </trkpt>
      <trkpt lat="42.603248" lon="-8.642346">
        <ele>23.697</ele>
        <time>2019-04-30T17:26:37Z</time>
      </trkpt>
      <trkpt lat="42.603222" lon="-8.642400">
        <ele>22.735</ele>
        <time>2019-04-30T17:26:40Z</time>
      </trkpt>
      <trkpt lat="42.603117" lon="-8.642766">
        <ele>21.257</ele>
        <time>2019-04-30T17:26:49Z</time>
      </trkpt>
      <trkpt lat="42.603125" lon="-8.643044">
        <ele>21.217</ele>
        <time>2019-04-30T17:26:58Z</time>
      </trkpt>
      <trkpt lat="42.603113" lon="-8.643263">
        <ele>22.791</ele>
        <time>2019-04-30T17:27:03Z</time>
      </trkpt>
      <trkpt lat="42.603099" lon="-8.643603">
        <ele>24.688</ele>
        <time>2019-04-30T17:27:10Z</time>
      </trkpt>
      <trkpt lat="42.603205" lon="-8.643776">
        <ele>23.624</ele>
        <time>2019-04-30T17:27:16Z</time>
      </trkpt>
      <trkpt lat="42.603257" lon="-8.643936">
        <ele>23.226</ele>
        <time>2019-04-30T17:27:21Z</time>
      </trkpt>
      <trkpt lat="42.603294" lon="-8.643991">
        <ele>23.608</ele>
        <time>2019-04-30T17:27:23Z</time>
      </trkpt>
      <trkpt lat="42.603338" lon="-8.644095">
        <ele>23.661</ele>
        <time>2019-04-30T17:27:28Z</time>
      </trkpt>
      <trkpt lat="42.603402" lon="-8.644279">
        <ele>22.794</ele>
        <time>2019-04-30T17:27:38Z</time>
      </trkpt>
      <trkpt lat="42.603505" lon="-8.644578">
        <ele>22.230</ele>
        <time>2019-04-30T17:27:46Z</time>
      </trkpt>
      <trkpt lat="42.603580" lon="-8.644586">
        <ele>22.768</ele>
        <time>2019-04-30T17:27:53Z</time>
      </trkpt>
      <trkpt lat="42.603596" lon="-8.644626">
        <ele>22.266</ele>
        <time>2019-04-30T17:27:58Z</time>
      </trkpt>
      <trkpt lat="42.603646" lon="-8.644764">
        <ele>20.338</ele>
        <time>2019-04-30T17:28:06Z</time>
      </trkpt>
      <trkpt lat="42.603764" lon="-8.644990">
        <ele>18.438</ele>
        <time>2019-04-30T17:28:17Z</time>
      </trkpt>
      <trkpt lat="42.603760" lon="-8.645065">
        <ele>20.862</ele>
        <time>2019-04-30T17:28:26Z</time>
      </trkpt>
      <trkpt lat="42.603755" lon="-8.645066">
        <ele>21.245</ele>
        <time>2019-04-30T17:28:33Z</time>
      </trkpt>
      <trkpt lat="42.603704" lon="-8.645140">
        <ele>22.747</ele>
        <time>2019-04-30T17:28:38Z</time>
      </trkpt>
      <trkpt lat="42.603506" lon="-8.645320">
        <ele>22.211</ele>
        <time>2019-04-30T17:28:49Z</time>
      </trkpt>
      <trkpt lat="42.603466" lon="-8.645357">
        <ele>24.608</ele>
        <time>2019-04-30T17:29:06Z</time>
      </trkpt>
      <trkpt lat="42.603484" lon="-8.645370">
        <ele>26.017</ele>
        <time>2019-04-30T17:29:31Z</time>
      </trkpt>
      <trkpt lat="42.603473" lon="-8.645379">
        <ele>24.140</ele>
        <time>2019-04-30T17:29:57Z</time>
      </trkpt>
      <trkpt lat="42.603452" lon="-8.645385">
        <ele>26.516</ele>
        <time>2019-04-30T17:30:23Z</time>
      </trkpt>
      <trkpt lat="42.603441" lon="-8.645381">
        <ele>27.554</ele>
        <time>2019-04-30T17:30:55Z</time>
      </trkpt>
      <trkpt lat="42.603439" lon="-8.645377">
        <ele>26.012</ele>
        <time>2019-04-30T17:31:22Z</time>
      </trkpt>
      <trkpt lat="42.603446" lon="-8.645364">
        <ele>26.054</ele>
        <time>2019-04-30T17:31:48Z</time>
      </trkpt>
      <trkpt lat="42.603448" lon="-8.645368">
        <ele>28.024</ele>
        <time>2019-04-30T17:32:18Z</time>
      </trkpt>
      <trkpt lat="42.603438" lon="-8.645372">
        <ele>29.938</ele>
        <time>2019-04-30T17:32:47Z</time>
      </trkpt>
      <trkpt lat="42.603440" lon="-8.645368">
        <ele>31.376</ele>
        <time>2019-04-30T17:33:22Z</time>
      </trkpt>
      <trkpt lat="42.603442" lon="-8.645369">
        <ele>31.890</ele>
        <time>2019-04-30T17:33:37Z</time>
      </trkpt>
      <trkpt lat="42.603425" lon="-8.645359">
        <ele>33.319</ele>
        <time>2019-04-30T17:34:06Z</time>
      </trkpt>
      <trkpt lat="42.603416" lon="-8.645350">
        <ele>36.608</ele>
        <time>2019-04-30T17:34:30Z</time>
      </trkpt>
      <trkpt lat="42.603415" lon="-8.645376">
        <ele>36.620</ele>
        <time>2019-04-30T17:35:01Z</time>
      </trkpt>
      <trkpt lat="42.603433" lon="-8.645343">
        <ele>38.113</ele>
        <time>2019-04-30T17:35:34Z</time>
      </trkpt>
      <trkpt lat="42.603431" lon="-8.645368">
        <ele>35.229</ele>
        <time>2019-04-30T17:36:05Z</time>
      </trkpt>
      <trkpt lat="42.603419" lon="-8.645362">
        <ele>34.227</ele>
        <time>2019-04-30T17:36:34Z</time>
      </trkpt>
      <trkpt lat="42.603426" lon="-8.645372">
        <ele>34.285</ele>
        <time>2019-04-30T17:37:11Z</time>
      </trkpt>
      <trkpt lat="42.603407" lon="-8.645371">
        <ele>34.777</ele>
        <time>2019-04-30T17:37:51Z</time>
      </trkpt>
      <trkpt lat="42.603449" lon="-8.645364">
        <ele>32.867</ele>
        <time>2019-04-30T17:38:27Z</time>
      </trkpt>
      <trkpt lat="42.603452" lon="-8.645360">
        <ele>31.351</ele>
        <time>2019-04-30T17:38:57Z</time>
      </trkpt>
      <trkpt lat="42.603448" lon="-8.645367">
        <ele>30.971</ele>
        <time>2019-04-30T17:39:27Z</time>
      </trkpt>
      <trkpt lat="42.603444" lon="-8.645358">
        <ele>30.941</ele>
        <time>2019-04-30T17:39:57Z</time>
      </trkpt>
      <trkpt lat="42.603440" lon="-8.645366">
        <ele>30.415</ele>
        <time>2019-04-30T17:40:22Z</time>
      </trkpt>
      <trkpt lat="42.603445" lon="-8.645385">
        <ele>30.408</ele>
        <time>2019-04-30T17:40:54Z</time>
      </trkpt>
      <trkpt lat="42.603457" lon="-8.645424">
        <ele>31.340</ele>
        <time>2019-04-30T17:41:27Z</time>
      </trkpt>
      <trkpt lat="42.603449" lon="-8.645430">
        <ele>32.323</ele>
        <time>2019-04-30T17:41:54Z</time>
      </trkpt>
      <trkpt lat="42.603443" lon="-8.645418">
        <ele>31.859</ele>
        <time>2019-04-30T17:42:25Z</time>
      </trkpt>
      <trkpt lat="42.603438" lon="-8.645418">
        <ele>31.827</ele>
        <time>2019-04-30T17:43:01Z</time>
      </trkpt>
      <trkpt lat="42.603448" lon="-8.645376">
        <ele>30.495</ele>
        <time>2019-04-30T17:43:38Z</time>
      </trkpt>
      <trkpt lat="42.603439" lon="-8.645348">
        <ele>28.077</ele>
        <time>2019-04-30T17:44:13Z</time>
      </trkpt>
      <trkpt lat="42.603433" lon="-8.645342">
        <ele>28.527</ele>
        <time>2019-04-30T17:44:39Z</time>
      </trkpt>
      <trkpt lat="42.603442" lon="-8.645335">
        <ele>28.581</ele>
        <time>2019-04-30T17:45:09Z</time>
      </trkpt>
      <trkpt lat="42.603464" lon="-8.645335">
        <ele>26.597</ele>
        <time>2019-04-30T17:45:37Z</time>
      </trkpt>
      <trkpt lat="42.603459" lon="-8.645343">
        <ele>27.023</ele>
        <time>2019-04-30T17:46:11Z</time>
      </trkpt>
      <trkpt lat="42.603453" lon="-8.645351">
        <ele>28.025</ele>
        <time>2019-04-30T17:46:41Z</time>
      </trkpt>
      <trkpt lat="42.603436" lon="-8.645350">
        <ele>30.908</ele>
        <time>2019-04-30T17:47:15Z</time>
      </trkpt>
      <trkpt lat="42.603434" lon="-8.645348">
        <ele>30.982</ele>
        <time>2019-04-30T17:47:49Z</time>
      </trkpt>
      <trkpt lat="42.603452" lon="-8.645353">
        <ele>29.965</ele>
        <time>2019-04-30T17:48:20Z</time>
      </trkpt>
      <trkpt lat="42.603454" lon="-8.645373">
        <ele>29.951</ele>
        <time>2019-04-30T17:48:52Z</time>
      </trkpt>
      <trkpt lat="42.603458" lon="-8.645376">
        <ele>31.359</ele>
        <time>2019-04-30T17:49:23Z</time>
      </trkpt>
      <trkpt lat="42.603487" lon="-8.645360">
        <ele>30.427</ele>
        <time>2019-04-30T17:49:54Z</time>
      </trkpt>
      <trkpt lat="42.603499" lon="-8.645354">
        <ele>30.919</ele>
        <time>2019-04-30T17:50:26Z</time>
      </trkpt>
      <trkpt lat="42.603492" lon="-8.645335">
        <ele>32.889</ele>
        <time>2019-04-30T17:50:58Z</time>
      </trkpt>
      <trkpt lat="42.603481" lon="-8.645329">
        <ele>33.723</ele>
        <time>2019-04-30T17:51:28Z</time>
      </trkpt>
      <trkpt lat="42.603484" lon="-8.645346">
        <ele>34.757</ele>
        <time>2019-04-30T17:51:58Z</time>
      </trkpt>
      <trkpt lat="42.603479" lon="-8.645354">
        <ele>35.700</ele>
        <time>2019-04-30T17:52:29Z</time>
      </trkpt>
      <trkpt lat="42.603461" lon="-8.645355">
        <ele>37.120</ele>
        <time>2019-04-30T17:53:02Z</time>
      </trkpt>
      <trkpt lat="42.603449" lon="-8.645350">
        <ele>38.508</ele>
        <time>2019-04-30T17:53:32Z</time>
      </trkpt>
      <trkpt lat="42.603444" lon="-8.645344">
        <ele>40.558</ele>
        <time>2019-04-30T17:54:02Z</time>
      </trkpt>
      <trkpt lat="42.603435" lon="-8.645362">
        <ele>40.951</ele>
        <time>2019-04-30T17:54:29Z</time>
      </trkpt>
      <trkpt lat="42.603423" lon="-8.645374">
        <ele>40.047</ele>
        <time>2019-04-30T17:54:58Z</time>
      </trkpt>
      <trkpt lat="42.603415" lon="-8.645377">
        <ele>39.585</ele>
        <time>2019-04-30T17:55:26Z</time>
      </trkpt>
      <trkpt lat="42.603396" lon="-8.645373">
        <ele>37.673</ele>
        <time>2019-04-30T17:55:50Z</time>
      </trkpt>
      <trkpt lat="42.603393" lon="-8.645352">
        <ele>36.135</ele>
        <time>2019-04-30T17:56:22Z</time>
      </trkpt>
      <trkpt lat="42.603405" lon="-8.645322">
        <ele>36.675</ele>
        <time>2019-04-30T17:56:51Z</time>
      </trkpt>
      <trkpt lat="42.603405" lon="-8.645348">
        <ele>37.629</ele>
        <time>2019-04-30T17:57:16Z</time>
      </trkpt>
      <trkpt lat="42.603392" lon="-8.645338">
        <ele>37.181</ele>
        <time>2019-04-30T17:57:41Z</time>
      </trkpt>
      <trkpt lat="42.603410" lon="-8.645349">
        <ele>35.761</ele>
        <time>2019-04-30T17:58:10Z</time>
      </trkpt>
      <trkpt lat="42.603443" lon="-8.645335">
        <ele>34.217</ele>
        <time>2019-04-30T17:58:42Z</time>
      </trkpt>
      <trkpt lat="42.603433" lon="-8.645328">
        <ele>34.208</ele>
        <time>2019-04-30T17:59:16Z</time>
      </trkpt>
      <trkpt lat="42.603425" lon="-8.645343">
        <ele>34.251</ele>
        <time>2019-04-30T17:59:47Z</time>
      </trkpt>
      <trkpt lat="42.603414" lon="-8.645357">
        <ele>33.754</ele>
        <time>2019-04-30T18:00:17Z</time>
      </trkpt>
      <trkpt lat="42.603421" lon="-8.645334">
        <ele>32.310</ele>
        <time>2019-04-30T18:00:46Z</time>
      </trkpt>
      <trkpt lat="42.603414" lon="-8.645315">
        <ele>32.828</ele>
        <time>2019-04-30T18:01:10Z</time>
      </trkpt>
      <trkpt lat="42.603411" lon="-8.645317">
        <ele>31.836</ele>
        <time>2019-04-30T18:01:39Z</time>
      </trkpt>
      <trkpt lat="42.603429" lon="-8.645319">
        <ele>31.348</ele>
        <time>2019-04-30T18:02:14Z</time>
      </trkpt>
      <trkpt lat="42.603439" lon="-8.645320">
        <ele>30.928</ele>
        <time>2019-04-30T18:02:40Z</time>
      </trkpt>
      <trkpt lat="42.603455" lon="-8.645321">
        <ele>29.942</ele>
        <time>2019-04-30T18:03:03Z</time>
      </trkpt>
      <trkpt lat="42.603465" lon="-8.645325">
        <ele>28.974</ele>
        <time>2019-04-30T18:03:34Z</time>
      </trkpt>
      <trkpt lat="42.603482" lon="-8.645310">
        <ele>27.056</ele>
        <time>2019-04-30T18:04:02Z</time>
      </trkpt>
      <trkpt lat="42.603487" lon="-8.645293">
        <ele>26.521</ele>
        <time>2019-04-30T18:04:13Z</time>
      </trkpt>
      <trkpt lat="42.603495" lon="-8.645287">
        <ele>27.508</ele>
        <time>2019-04-30T18:04:17Z</time>
      </trkpt>
      <trkpt lat="42.603509" lon="-8.645247">
        <ele>27.540</ele>
        <time>2019-04-30T18:04:21Z</time>
      </trkpt>
      <trkpt lat="42.603574" lon="-8.645191">
        <ele>28.013</ele>
        <time>2019-04-30T18:04:26Z</time>
      </trkpt>
      <trkpt lat="42.603707" lon="-8.645337">
        <ele>34.289</ele>
        <time>2019-04-30T18:04:36Z</time>
      </trkpt>
      <trkpt lat="42.603727" lon="-8.645387">
        <ele>35.277</ele>
        <time>2019-04-30T18:04:38Z</time>
      </trkpt>
      <trkpt lat="42.603782" lon="-8.645590">
        <ele>34.715</ele>
        <time>2019-04-30T18:04:49Z</time>
      </trkpt>
      <trkpt lat="42.603813" lon="-8.645827">
        <ele>37.117</ele>
        <time>2019-04-30T18:05:03Z</time>
      </trkpt>
      <trkpt lat="42.603819" lon="-8.645837">
        <ele>36.197</ele>
        <time>2019-04-30T18:05:25Z</time>
      </trkpt>
      <trkpt lat="42.603830" lon="-8.645853">
        <ele>34.781</ele>
        <time>2019-04-30T18:05:37Z</time>
      </trkpt>
      <trkpt lat="42.603845" lon="-8.645895">
        <ele>32.877</ele>
        <time>2019-04-30T18:05:40Z</time>
      </trkpt>
      <trkpt lat="42.603888" lon="-8.646216">
        <ele>29.961</ele>
        <time>2019-04-30T18:05:53Z</time>
      </trkpt>
      <trkpt lat="42.603901" lon="-8.646226">
        <ele>29.427</ele>
        <time>2019-04-30T18:05:57Z</time>
      </trkpt>
      <trkpt lat="42.603969" lon="-8.646150">
        <ele>28.508</ele>
        <time>2019-04-30T18:06:07Z</time>
      </trkpt>
      <trkpt lat="42.604085" lon="-8.645949">
        <ele>27.510</ele>
        <time>2019-04-30T18:06:17Z</time>
      </trkpt>
      <trkpt lat="42.604085" lon="-8.645916">
        <ele>26.573</ele>
        <time>2019-04-30T18:06:22Z</time>
      </trkpt>
      <trkpt lat="42.604114" lon="-8.645954">
        <ele>27.019</ele>
        <time>2019-04-30T18:06:26Z</time>
      </trkpt>
      <trkpt lat="42.604070" lon="-8.646077">
        <ele>27.577</ele>
        <time>2019-04-30T18:06:29Z</time>
      </trkpt>
      <trkpt lat="42.604046" lon="-8.646131">
        <ele>27.565</ele>
        <time>2019-04-30T18:06:30Z</time>
      </trkpt>
      <trkpt lat="42.604022" lon="-8.646195">
        <ele>27.567</ele>
        <time>2019-04-30T18:06:31Z</time>
      </trkpt>
      <trkpt lat="42.604003" lon="-8.646267">
        <ele>27.587</ele>
        <time>2019-04-30T18:06:32Z</time>
      </trkpt>
      <trkpt lat="42.603988" lon="-8.646343">
        <ele>27.591</ele>
        <time>2019-04-30T18:06:33Z</time>
      </trkpt>
      <trkpt lat="42.603981" lon="-8.646422">
        <ele>27.588</ele>
        <time>2019-04-30T18:06:34Z</time>
      </trkpt>
      <trkpt lat="42.603985" lon="-8.646500">
        <ele>27.524</ele>
        <time>2019-04-30T18:06:35Z</time>
      </trkpt>
      <trkpt lat="42.603993" lon="-8.646579">
        <ele>27.526</ele>
        <time>2019-04-30T18:06:36Z</time>
      </trkpt>
      <trkpt lat="42.604071" lon="-8.647196">
        <ele>26.008</ele>
        <time>2019-04-30T18:06:45Z</time>
      </trkpt>
      <trkpt lat="42.604096" lon="-8.647306">
        <ele>26.031</ele>
        <time>2019-04-30T18:06:47Z</time>
      </trkpt>
      <trkpt lat="42.604123" lon="-8.647332">
        <ele>26.024</ele>
        <time>2019-04-30T18:06:48Z</time>
      </trkpt>
      <trkpt lat="42.604137" lon="-8.647354">
        <ele>26.020</ele>
        <time>2019-04-30T18:06:49Z</time>
      </trkpt>
      <trkpt lat="42.604142" lon="-8.647378">
        <ele>26.078</ele>
        <time>2019-04-30T18:06:50Z</time>
      </trkpt>
      <trkpt lat="42.604148" lon="-8.647402">
        <ele>26.086</ele>
        <time>2019-04-30T18:06:51Z</time>
      </trkpt>
      <trkpt lat="42.604182" lon="-8.647478">
        <ele>25.638</ele>
        <time>2019-04-30T18:07:00Z</time>
      </trkpt>
      <trkpt lat="42.604183" lon="-8.647491">
        <ele>25.698</ele>
        <time>2019-04-30T18:07:15Z</time>
      </trkpt>
      <trkpt lat="42.604182" lon="-8.647528">
        <ele>25.642</ele>
        <time>2019-04-30T18:07:27Z</time>
      </trkpt>
      <trkpt lat="42.604182" lon="-8.647594">
        <ele>25.172</ele>
        <time>2019-04-30T18:07:39Z</time>
      </trkpt>
      <trkpt lat="42.604178" lon="-8.647650">
        <ele>23.613</ele>
        <time>2019-04-30T18:08:01Z</time>
      </trkpt>
      <trkpt lat="42.604156" lon="-8.647674">
        <ele>23.614</ele>
        <time>2019-04-30T18:08:22Z</time>
      </trkpt>
      <trkpt lat="42.604132" lon="-8.647685">
        <ele>24.608</ele>
        <time>2019-04-30T18:08:48Z</time>
      </trkpt>
      <trkpt lat="42.604108" lon="-8.647700">
        <ele>27.520</ele>
        <time>2019-04-30T18:09:15Z</time>
      </trkpt>
      <trkpt lat="42.604112" lon="-8.647696">
        <ele>27.553</ele>
        <time>2019-04-30T18:09:31Z</time>
      </trkpt>
      <trkpt lat="42.604105" lon="-8.647702">
        <ele>27.029</ele>
        <time>2019-04-30T18:09:53Z</time>
      </trkpt>
      <trkpt lat="42.604105" lon="-8.647702">
        <ele>27.087</ele>
        <time>2019-04-30T18:09:55Z</time>
      </trkpt>
      <trkpt lat="42.605810" lon="-8.646426">
        <ele>53.935</ele>
        <time>2019-05-01T07:07:36Z</time>
      </trkpt>
      <trkpt lat="42.605697" lon="-8.646449">
        <ele>48.657</ele>
        <time>2019-05-01T07:07:49Z</time>
      </trkpt>
      <trkpt lat="42.605717" lon="-8.646423">
        <ele>48.687</ele>
        <time>2019-05-01T07:07:52Z</time>
      </trkpt>
      <trkpt lat="42.605669" lon="-8.646237">
        <ele>50.641</ele>
        <time>2019-05-01T07:07:57Z</time>
      </trkpt>
      <trkpt lat="42.605643" lon="-8.646188">
        <ele>50.675</ele>
        <time>2019-05-01T07:07:58Z</time>
      </trkpt>
      <trkpt lat="42.605610" lon="-8.646138">
        <ele>51.528</ele>
        <time>2019-05-01T07:07:59Z</time>
      </trkpt>
      <trkpt lat="42.605567" lon="-8.646096">
        <ele>51.520</ele>
        <time>2019-05-01T07:08:00Z</time>
      </trkpt>
      <trkpt lat="42.605509" lon="-8.646058">
        <ele>51.508</ele>
        <time>2019-05-01T07:08:01Z</time>
      </trkpt>
      <trkpt lat="42.605445" lon="-8.646023">
        <ele>51.530</ele>
        <time>2019-05-01T07:08:02Z</time>
      </trkpt>
      <trkpt lat="42.605394" lon="-8.645982">
        <ele>52.023</ele>
        <time>2019-05-01T07:08:03Z</time>
      </trkpt>
      <trkpt lat="42.605382" lon="-8.645926">
        <ele>52.099</ele>
        <time>2019-05-01T07:08:04Z</time>
      </trkpt>
      <trkpt lat="42.605394" lon="-8.645869">
        <ele>53.027</ele>
        <time>2019-05-01T07:08:05Z</time>
      </trkpt>
      <trkpt lat="42.605416" lon="-8.645812">
        <ele>53.065</ele>
        <time>2019-05-01T07:08:06Z</time>
      </trkpt>
      <trkpt lat="42.605446" lon="-8.645757">
        <ele>53.047</ele>
        <time>2019-05-01T07:08:07Z</time>
      </trkpt>
      <trkpt lat="42.605476" lon="-8.645704">
        <ele>52.527</ele>
        <time>2019-05-01T07:08:08Z</time>
      </trkpt>
      <trkpt lat="42.605561" lon="-8.645540">
        <ele>51.581</ele>
        <time>2019-05-01T07:08:11Z</time>
      </trkpt>
      <trkpt lat="42.605587" lon="-8.645487">
        <ele>51.595</ele>
        <time>2019-05-01T07:08:12Z</time>
      </trkpt>
      <trkpt lat="42.605616" lon="-8.645439">
        <ele>51.549</ele>
        <time>2019-05-01T07:08:13Z</time>
      </trkpt>
      <trkpt lat="42.605650" lon="-8.645398">
        <ele>51.523</ele>
        <time>2019-05-01T07:08:14Z</time>
      </trkpt>
      <trkpt lat="42.605683" lon="-8.645361">
        <ele>51.008</ele>
        <time>2019-05-01T07:08:15Z</time>
      </trkpt>
      <trkpt lat="42.605751" lon="-8.645278">
        <ele>51.552</ele>
        <time>2019-05-01T07:08:18Z</time>
      </trkpt>
      <trkpt lat="42.605770" lon="-8.645276">
        <ele>51.595</ele>
        <time>2019-05-01T07:08:19Z</time>
      </trkpt>
      <trkpt lat="42.605785" lon="-8.645283">
        <ele>50.641</ele>
        <time>2019-05-01T07:08:20Z</time>
      </trkpt>
      <trkpt lat="42.605805" lon="-8.645293">
        <ele>49.669</ele>
        <time>2019-05-01T07:08:21Z</time>
      </trkpt>
      <trkpt lat="42.606256" lon="-8.645294">
        <ele>50.657</ele>
        <time>2019-05-01T07:08:22Z</time>
      </trkpt>
      <trkpt lat="42.606245" lon="-8.645311">
        <ele>46.799</ele>
        <time>2019-05-01T07:08:26Z</time>
      </trkpt>
      <trkpt lat="42.606255" lon="-8.645332">
        <ele>46.769</ele>
        <time>2019-05-01T07:08:27Z</time>
      </trkpt>
      <trkpt lat="42.606249" lon="-8.645361">
        <ele>45.873</ele>
        <time>2019-05-01T07:08:28Z</time>
      </trkpt>
      <trkpt lat="42.606286" lon="-8.645405">
        <ele>44.333</ele>
        <time>2019-05-01T07:08:31Z</time>
      </trkpt>
      <trkpt lat="42.606439" lon="-8.645445">
        <ele>43.423</ele>
        <time>2019-05-01T07:08:40Z</time>
      </trkpt>
      <trkpt lat="42.606710" lon="-8.645449">
        <ele>44.315</ele>
        <time>2019-05-01T07:08:50Z</time>
      </trkpt>
      <trkpt lat="42.606916" lon="-8.645445">
        <ele>44.308</ele>
        <time>2019-05-01T07:08:58Z</time>
      </trkpt>
      <trkpt lat="42.607266" lon="-8.645442">
        <ele>50.686</ele>
        <time>2019-05-01T07:09:10Z</time>
      </trkpt>
      <trkpt lat="42.607534" lon="-8.645499">
        <ele>54.969</ele>
        <time>2019-05-01T07:09:20Z</time>
      </trkpt>
      <trkpt lat="42.607830" lon="-8.645533">
        <ele>59.795</ele>
        <time>2019-05-01T07:09:31Z</time>
      </trkpt>
      <trkpt lat="42.607853" lon="-8.645525">
        <ele>60.243</ele>
        <time>2019-05-01T07:09:32Z</time>
      </trkpt>
      <trkpt lat="42.607874" lon="-8.645522">
        <ele>60.221</ele>
        <time>2019-05-01T07:09:33Z</time>
      </trkpt>
      <trkpt lat="42.607898" lon="-8.645522">
        <ele>60.253</ele>
        <time>2019-05-01T07:09:34Z</time>
      </trkpt>
      <trkpt lat="42.607923" lon="-8.645515">
        <ele>60.253</ele>
        <time>2019-05-01T07:09:35Z</time>
      </trkpt>
      <trkpt lat="42.607986" lon="-8.645451">
        <ele>60.247</ele>
        <time>2019-05-01T07:09:38Z</time>
      </trkpt>
      <trkpt lat="42.607969" lon="-8.645423">
        <ele>60.267</ele>
        <time>2019-05-01T07:09:39Z</time>
      </trkpt>
      <trkpt lat="42.607952" lon="-8.645392">
        <ele>59.781</ele>
        <time>2019-05-01T07:09:40Z</time>
      </trkpt>
      <trkpt lat="42.607948" lon="-8.645354">
        <ele>58.719</ele>
        <time>2019-05-01T07:09:41Z</time>
      </trkpt>
      <trkpt lat="42.607952" lon="-8.645326">
        <ele>58.308</ele>
        <time>2019-05-01T07:09:42Z</time>
      </trkpt>
      <trkpt lat="42.607986" lon="-8.645222">
        <ele>57.869</ele>
        <time>2019-05-01T07:09:50Z</time>
      </trkpt>
      <trkpt lat="42.608011" lon="-8.645215">
        <ele>58.362</ele>
        <time>2019-05-01T07:09:51Z</time>
      </trkpt>
      <trkpt lat="42.608308" lon="-8.645133">
        <ele>60.258</ele>
        <time>2019-05-01T07:10:05Z</time>
      </trkpt>
      <trkpt lat="42.608567" lon="-8.645060">
        <ele>62.676</ele>
        <time>2019-05-01T07:10:18Z</time>
      </trkpt>
      <trkpt lat="42.608918" lon="-8.645006">
        <ele>68.384</ele>
        <time>2019-05-01T07:10:33Z</time>
      </trkpt>
      <trkpt lat="42.609232" lon="-8.644933">
        <ele>68.876</ele>
        <time>2019-05-01T07:10:48Z</time>
      </trkpt>
      <trkpt lat="42.609338" lon="-8.644883">
        <ele>67.936</ele>
        <time>2019-05-01T07:10:54Z</time>
      </trkpt>
      <trkpt lat="42.609355" lon="-8.644881">
        <ele>67.930</ele>
        <time>2019-05-01T07:10:55Z</time>
      </trkpt>
      <trkpt lat="42.609375" lon="-8.644874">
        <ele>67.458</ele>
        <time>2019-05-01T07:10:56Z</time>
      </trkpt>
      <trkpt lat="42.609393" lon="-8.644861">
        <ele>67.452</ele>
        <time>2019-05-01T07:10:57Z</time>
      </trkpt>
      <trkpt lat="42.609407" lon="-8.644840">
        <ele>67.417</ele>
        <time>2019-05-01T07:10:58Z</time>
      </trkpt>
      <trkpt lat="42.609421" lon="-8.644821">
        <ele>67.408</ele>
        <time>2019-05-01T07:10:59Z</time>
      </trkpt>
      <trkpt lat="42.609442" lon="-8.644805">
        <ele>66.968</ele>
        <time>2019-05-01T07:11:00Z</time>
      </trkpt>
      <trkpt lat="42.609462" lon="-8.644788">
        <ele>65.961</ele>
        <time>2019-05-01T07:11:01Z</time>
      </trkpt>
      <trkpt lat="42.609485" lon="-8.644765">
        <ele>65.917</ele>
        <time>2019-05-01T07:11:02Z</time>
      </trkpt>
      <trkpt lat="42.609514" lon="-8.644742">
        <ele>65.515</ele>
        <time>2019-05-01T07:11:03Z</time>
      </trkpt>
      <trkpt lat="42.609548" lon="-8.644719">
        <ele>65.023</ele>
        <time>2019-05-01T07:11:04Z</time>
      </trkpt>
      <trkpt lat="42.609584" lon="-8.644698">
        <ele>64.545</ele>
        <time>2019-05-01T07:11:05Z</time>
      </trkpt>
      <trkpt lat="42.609890" lon="-8.644445">
        <ele>60.245</ele>
        <time>2019-05-01T07:11:14Z</time>
      </trkpt>
      <trkpt lat="42.609936" lon="-8.644423">
        <ele>59.719</ele>
        <time>2019-05-01T07:11:15Z</time>
      </trkpt>
      <trkpt lat="42.609984" lon="-8.644414">
        <ele>59.238</ele>
        <time>2019-05-01T07:11:16Z</time>
      </trkpt>
      <trkpt lat="42.610120" lon="-8.644421">
        <ele>59.270</ele>
        <time>2019-05-01T07:11:19Z</time>
      </trkpt>
      <trkpt lat="42.610159" lon="-8.644431">
        <ele>59.217</ele>
        <time>2019-05-01T07:11:20Z</time>
      </trkpt>
      <trkpt lat="42.610578" lon="-8.644509">
        <ele>56.808</ele>
        <time>2019-05-01T07:11:32Z</time>
      </trkpt>
      <trkpt lat="42.611157" lon="-8.644333">
        <ele>53.926</ele>
        <time>2019-05-01T07:11:47Z</time>
      </trkpt>
      <trkpt lat="42.611765" lon="-8.644133">
        <ele>44.819</ele>
        <time>2019-05-01T07:12:02Z</time>
      </trkpt>
      <trkpt lat="42.612178" lon="-8.644193">
        <ele>41.455</ele>
        <time>2019-05-01T07:12:14Z</time>
      </trkpt>
      <trkpt lat="42.612786" lon="-8.644445">
        <ele>39.563</ele>
        <time>2019-05-01T07:12:32Z</time>
      </trkpt>
      <trkpt lat="42.613165" lon="-8.644580">
        <ele>41.991</ele>
        <time>2019-05-01T07:12:46Z</time>
      </trkpt>
      <trkpt lat="42.613391" lon="-8.644710">
        <ele>45.383</ele>
        <time>2019-05-01T07:12:57Z</time>
      </trkpt>
      <trkpt lat="42.613480" lon="-8.644742">
        <ele>45.843</ele>
        <time>2019-05-01T07:13:01Z</time>
      </trkpt>
      <trkpt lat="42.613499" lon="-8.644753">
        <ele>45.847</ele>
        <time>2019-05-01T07:13:02Z</time>
      </trkpt>
      <trkpt lat="42.613793" lon="-8.644823">
        <ele>49.645</ele>
        <time>2019-05-01T07:13:14Z</time>
      </trkpt>
      <trkpt lat="42.614068" lon="-8.644778">
        <ele>50.647</ele>
        <time>2019-05-01T07:13:27Z</time>
      </trkpt>
      <trkpt lat="42.614483" lon="-8.644698">
        <ele>49.111</ele>
        <time>2019-05-01T07:13:41Z</time>
      </trkpt>
      <trkpt lat="42.614972" lon="-8.644627">
        <ele>47.208</ele>
        <time>2019-05-01T07:13:55Z</time>
      </trkpt>
      <trkpt lat="42.615291" lon="-8.644579">
        <ele>46.227</ele>
        <time>2019-05-01T07:14:02Z</time>
      </trkpt>
      <trkpt lat="42.615427" lon="-8.644546">
        <ele>45.870</ele>
        <time>2019-05-01T07:14:05Z</time>
      </trkpt>
      <trkpt lat="42.615469" lon="-8.644538">
        <ele>45.396</ele>
        <time>2019-05-01T07:14:06Z</time>
      </trkpt>
      <trkpt lat="42.615511" lon="-8.644526">
        <ele>45.374</ele>
        <time>2019-05-01T07:14:07Z</time>
      </trkpt>
      <trkpt lat="42.616104" lon="-8.644535">
        <ele>45.862</ele>
        <time>2019-05-01T07:14:22Z</time>
      </trkpt>
      <trkpt lat="42.616412" lon="-8.644605">
        <ele>46.224</ele>
        <time>2019-05-01T07:14:32Z</time>
      </trkpt>
      <trkpt lat="42.616879" lon="-8.644760">
        <ele>48.224</ele>
        <time>2019-05-01T07:14:46Z</time>
      </trkpt>
      <trkpt lat="42.617393" lon="-8.644713">
        <ele>50.188</ele>
        <time>2019-05-01T07:15:00Z</time>
      </trkpt>
      <trkpt lat="42.618007" lon="-8.644583">
        <ele>51.068</ele>
        <time>2019-05-01T07:15:17Z</time>
      </trkpt>
      <trkpt lat="42.618461" lon="-8.644608">
        <ele>53.042</ele>
        <time>2019-05-01T07:15:31Z</time>
      </trkpt>
      <trkpt lat="42.618814" lon="-8.644582">
        <ele>53.426</ele>
        <time>2019-05-01T07:15:43Z</time>
      </trkpt>
      <trkpt lat="42.618870" lon="-8.644596">
        <ele>53.408</ele>
        <time>2019-05-01T07:15:45Z</time>
      </trkpt>
      <trkpt lat="42.618892" lon="-8.644614">
        <ele>53.079</ele>
        <time>2019-05-01T07:15:46Z</time>
      </trkpt>
      <trkpt lat="42.618959" lon="-8.644661">
        <ele>52.592</ele>
        <time>2019-05-01T07:15:49Z</time>
      </trkpt>
      <trkpt lat="42.619020" lon="-8.644671">
        <ele>53.048</ele>
        <time>2019-05-01T07:15:52Z</time>
      </trkpt>
      <trkpt lat="42.619047" lon="-8.644679">
        <ele>53.096</ele>
        <time>2019-05-01T07:15:53Z</time>
      </trkpt>
      <trkpt lat="42.619426" lon="-8.644621">
        <ele>52.544</ele>
        <time>2019-05-01T07:16:04Z</time>
      </trkpt>
      <trkpt lat="42.619813" lon="-8.644369">
        <ele>54.926</ele>
        <time>2019-05-01T07:16:16Z</time>
      </trkpt>
      <trkpt lat="42.620181" lon="-8.644316">
        <ele>55.436</ele>
        <time>2019-05-01T07:16:27Z</time>
      </trkpt>
      <trkpt lat="42.620236" lon="-8.644309">
        <ele>55.480</ele>
        <time>2019-05-01T07:16:29Z</time>
      </trkpt>
      <trkpt lat="42.620264" lon="-8.644298">
        <ele>55.492</ele>
        <time>2019-05-01T07:16:30Z</time>
      </trkpt>
      <trkpt lat="42.620389" lon="-8.644263">
        <ele>54.973</ele>
        <time>2019-05-01T07:16:33Z</time>
      </trkpt>
      <trkpt lat="42.620433" lon="-8.644251">
        <ele>54.420</ele>
        <time>2019-05-01T07:16:34Z</time>
      </trkpt>
      <trkpt lat="42.620465" lon="-8.644247">
        <ele>54.408</ele>
        <time>2019-05-01T07:16:35Z</time>
      </trkpt>
      <trkpt lat="42.620492" lon="-8.644247">
        <ele>53.992</ele>
        <time>2019-05-01T07:16:36Z</time>
      </trkpt>
      <trkpt lat="42.620517" lon="-8.644242">
        <ele>53.465</ele>
        <time>2019-05-01T07:16:37Z</time>
      </trkpt>
      <trkpt lat="42.620814" lon="-8.644107">
        <ele>51.591</ele>
        <time>2019-05-01T07:16:47Z</time>
      </trkpt>
      <trkpt lat="42.621231" lon="-8.643860">
        <ele>50.169</ele>
        <time>2019-05-01T07:16:58Z</time>
      </trkpt>
      <trkpt lat="42.621830" lon="-8.643612">
        <ele>51.077</ele>
        <time>2019-05-01T07:17:14Z</time>
      </trkpt>
      <trkpt lat="42.622143" lon="-8.643469">
        <ele>53.999</ele>
        <time>2019-05-01T07:17:24Z</time>
      </trkpt>
      <trkpt lat="42.622478" lon="-8.643451">
        <ele>55.829</ele>
        <time>2019-05-01T07:17:34Z</time>
      </trkpt>
      <trkpt lat="42.622779" lon="-8.643403">
        <ele>56.363</ele>
        <time>2019-05-01T07:17:43Z</time>
      </trkpt>
      <trkpt lat="42.623169" lon="-8.643534">
        <ele>60.787</ele>
        <time>2019-05-01T07:17:53Z</time>
      </trkpt>
      <trkpt lat="42.623573" lon="-8.643750">
        <ele>60.742</ele>
        <time>2019-05-01T07:18:05Z</time>
      </trkpt>
      <trkpt lat="42.624129" lon="-8.643811">
        <ele>62.126</ele>
        <time>2019-05-01T07:18:19Z</time>
      </trkpt>
      <trkpt lat="42.624556" lon="-8.643851">
        <ele>61.108</ele>
        <time>2019-05-01T07:18:31Z</time>
      </trkpt>
      <trkpt lat="42.625086" lon="-8.643924">
        <ele>61.131</ele>
        <time>2019-05-01T07:18:46Z</time>
      </trkpt>
      <trkpt lat="42.625345" lon="-8.643927">
        <ele>61.164</ele>
        <time>2019-05-01T07:18:57Z</time>
      </trkpt>
      <trkpt lat="42.625644" lon="-8.643951">
        <ele>61.620</ele>
        <time>2019-05-01T07:19:09Z</time>
      </trkpt>
      <trkpt lat="42.625886" lon="-8.644163">
        <ele>63.528</ele>
        <time>2019-05-01T07:19:21Z</time>
      </trkpt>
      <trkpt lat="42.626134" lon="-8.644402">
        <ele>65.576</ele>
        <time>2019-05-01T07:19:31Z</time>
      </trkpt>
      <trkpt lat="42.626424" lon="-8.644667">
        <ele>65.078</ele>
        <time>2019-05-01T07:19:38Z</time>
      </trkpt>
      <trkpt lat="42.626803" lon="-8.644814">
        <ele>64.028</ele>
        <time>2019-05-01T07:19:48Z</time>
      </trkpt>
      <trkpt lat="42.627296" lon="-8.644934">
        <ele>61.672</ele>
        <time>2019-05-01T07:20:00Z</time>
      </trkpt>
      <trkpt lat="42.627661" lon="-8.645076">
        <ele>61.191</ele>
        <time>2019-05-01T07:20:10Z</time>
      </trkpt>
      <trkpt lat="42.628084" lon="-8.645072">
        <ele>62.681</ele>
        <time>2019-05-01T07:20:20Z</time>
      </trkpt>
      <trkpt lat="42.628489" lon="-8.645053">
        <ele>64.519</ele>
        <time>2019-05-01T07:20:31Z</time>
      </trkpt>
      <trkpt lat="42.628848" lon="-8.645042">
        <ele>66.408</ele>
        <time>2019-05-01T07:20:40Z</time>
      </trkpt>
      <trkpt lat="42.629265" lon="-8.645019">
        <ele>71.212</ele>
        <time>2019-05-01T07:20:50Z</time>
      </trkpt>
      <trkpt lat="42.629621" lon="-8.644968">
        <ele>74.635</ele>
        <time>2019-05-01T07:20:58Z</time>
      </trkpt>
      <trkpt lat="42.629969" lon="-8.644845">
        <ele>78.961</ele>
        <time>2019-05-01T07:21:07Z</time>
      </trkpt>
      <trkpt lat="42.630019" lon="-8.644835">
        <ele>79.419</ele>
        <time>2019-05-01T07:21:08Z</time>
      </trkpt>
      <trkpt lat="42.630262" lon="-8.644778">
        <ele>79.917</ele>
        <time>2019-05-01T07:21:12Z</time>
      </trkpt>
      <trkpt lat="42.630367" lon="-8.644763">
        <ele>79.939</ele>
        <time>2019-05-01T07:21:14Z</time>
      </trkpt>
      <trkpt lat="42.630600" lon="-8.644676">
        <ele>78.939</ele>
        <time>2019-05-01T07:21:19Z</time>
      </trkpt>
      <trkpt lat="42.630839" lon="-8.644577">
        <ele>78.433</ele>
        <time>2019-05-01T07:21:24Z</time>
      </trkpt>
      <trkpt lat="42.630966" lon="-8.644542">
        <ele>78.082</ele>
        <time>2019-05-01T07:21:27Z</time>
      </trkpt>
      <trkpt lat="42.631005" lon="-8.644542">
        <ele>78.043</ele>
        <time>2019-05-01T07:21:28Z</time>
      </trkpt>
      <trkpt lat="42.631044" lon="-8.644543">
        <ele>78.017</ele>
        <time>2019-05-01T07:21:29Z</time>
      </trkpt>
      <trkpt lat="42.631487" lon="-8.644527">
        <ele>79.408</ele>
        <time>2019-05-01T07:21:41Z</time>
      </trkpt>
      <trkpt lat="42.631815" lon="-8.644553">
        <ele>83.291</ele>
        <time>2019-05-01T07:21:53Z</time>
      </trkpt>
      <trkpt lat="42.632094" lon="-8.644808">
        <ele>81.334</ele>
        <time>2019-05-01T07:22:05Z</time>
      </trkpt>
      <trkpt lat="42.632102" lon="-8.644828">
        <ele>80.840</ele>
        <time>2019-05-01T07:22:06Z</time>
      </trkpt>
      <trkpt lat="42.632107" lon="-8.644851">
        <ele>80.448</ele>
        <time>2019-05-01T07:22:07Z</time>
      </trkpt>
      <trkpt lat="42.632111" lon="-8.644875">
        <ele>80.446</ele>
        <time>2019-05-01T07:22:08Z</time>
      </trkpt>
      <trkpt lat="42.632124" lon="-8.644898">
        <ele>80.858</ele>
        <time>2019-05-01T07:22:09Z</time>
      </trkpt>
      <trkpt lat="42.632144" lon="-8.644916">
        <ele>81.378</ele>
        <time>2019-05-01T07:22:10Z</time>
      </trkpt>
      <trkpt lat="42.632158" lon="-8.644932">
        <ele>81.872</ele>
        <time>2019-05-01T07:22:11Z</time>
      </trkpt>
      <trkpt lat="42.632165" lon="-8.644946">
        <ele>81.895</ele>
        <time>2019-05-01T07:22:12Z</time>
      </trkpt>
      <trkpt lat="42.632227" lon="-8.645032">
        <ele>83.749</ele>
        <time>2019-05-01T07:22:18Z</time>
      </trkpt>
      <trkpt lat="42.632251" lon="-8.645045">
        <ele>84.223</ele>
        <time>2019-05-01T07:22:19Z</time>
      </trkpt>
      <trkpt lat="42.632273" lon="-8.645056">
        <ele>84.208</ele>
        <time>2019-05-01T07:22:20Z</time>
      </trkpt>
      <trkpt lat="42.632295" lon="-8.645075">
        <ele>84.722</ele>
        <time>2019-05-01T07:22:21Z</time>
      </trkpt>
      <trkpt lat="42.632317" lon="-8.645094">
        <ele>84.725</ele>
        <time>2019-05-01T07:22:22Z</time>
      </trkpt>
      <trkpt lat="42.632335" lon="-8.645110">
        <ele>85.241</ele>
        <time>2019-05-01T07:22:23Z</time>
      </trkpt>
      <trkpt lat="42.632351" lon="-8.645124">
        <ele>85.249</ele>
        <time>2019-05-01T07:22:24Z</time>
      </trkpt>
      <trkpt lat="42.632373" lon="-8.645134">
        <ele>85.697</ele>
        <time>2019-05-01T07:22:25Z</time>
      </trkpt>
      <trkpt lat="42.632398" lon="-8.645142">
        <ele>85.619</ele>
        <time>2019-05-01T07:22:26Z</time>
      </trkpt>
      <trkpt lat="42.632512" lon="-8.645164">
        <ele>87.659</ele>
        <time>2019-05-01T07:22:34Z</time>
      </trkpt>
      <trkpt lat="42.632540" lon="-8.645158">
        <ele>89.013</ele>
        <time>2019-05-01T07:22:36Z</time>
      </trkpt>
      <trkpt lat="42.632849" lon="-8.645170">
        <ele>92.443</ele>
        <time>2019-05-01T07:22:47Z</time>
      </trkpt>
      <trkpt lat="42.633082" lon="-8.645182">
        <ele>92.464</ele>
        <time>2019-05-01T07:22:55Z</time>
      </trkpt>
      <trkpt lat="42.633093" lon="-8.645173">
        <ele>92.910</ele>
        <time>2019-05-01T07:22:56Z</time>
      </trkpt>
      <trkpt lat="42.633106" lon="-8.645165">
        <ele>92.908</ele>
        <time>2019-05-01T07:22:57Z</time>
      </trkpt>
      <trkpt lat="42.633165" lon="-8.645146">
        <ele>93.887</ele>
        <time>2019-05-01T07:23:00Z</time>
      </trkpt>
      <trkpt lat="42.633189" lon="-8.645149">
        <ele>93.850</ele>
        <time>2019-05-01T07:23:01Z</time>
      </trkpt>
      <trkpt lat="42.633210" lon="-8.645143">
        <ele>94.376</ele>
        <time>2019-05-01T07:23:02Z</time>
      </trkpt>
      <trkpt lat="42.633481" lon="-8.645009">
        <ele>96.254</ele>
        <time>2019-05-01T07:23:13Z</time>
      </trkpt>
      <trkpt lat="42.633619" lon="-8.644987">
        <ele>96.762</ele>
        <time>2019-05-01T07:23:17Z</time>
      </trkpt>
      <trkpt lat="42.633965" lon="-8.644904">
        <ele>97.284</ele>
        <time>2019-05-01T07:23:28Z</time>
      </trkpt>
      <trkpt lat="42.634294" lon="-8.644807">
        <ele>94.814</ele>
        <time>2019-05-01T07:23:38Z</time>
      </trkpt>
      <trkpt lat="42.634676" lon="-8.644739">
        <ele>92.418</ele>
        <time>2019-05-01T07:23:48Z</time>
      </trkpt>
      <trkpt lat="42.635206" lon="-8.644752">
        <ele>89.564</ele>
        <time>2019-05-01T07:23:59Z</time>
      </trkpt>
      <trkpt lat="42.635676" lon="-8.644771">
        <ele>90.006</ele>
        <time>2019-05-01T07:24:10Z</time>
      </trkpt>
      <trkpt lat="42.636262" lon="-8.644782">
        <ele>88.116</ele>
        <time>2019-05-01T07:24:24Z</time>
      </trkpt>
      <trkpt lat="42.636774" lon="-8.644828">
        <ele>83.708</ele>
        <time>2019-05-01T07:24:36Z</time>
      </trkpt>
      <trkpt lat="42.637090" lon="-8.644718">
        <ele>82.829</ele>
        <time>2019-05-01T07:24:46Z</time>
      </trkpt>
      <trkpt lat="42.637401" lon="-8.644587">
        <ele>83.242</ele>
        <time>2019-05-01T07:24:56Z</time>
      </trkpt>
      <trkpt lat="42.637434" lon="-8.644590">
        <ele>83.298</ele>
        <time>2019-05-01T07:24:57Z</time>
      </trkpt>
      <trkpt lat="42.637467" lon="-8.644598">
        <ele>83.216</ele>
        <time>2019-05-01T07:24:58Z</time>
      </trkpt>
      <trkpt lat="42.637497" lon="-8.644609">
        <ele>83.254</ele>
        <time>2019-05-01T07:24:59Z</time>
      </trkpt>
      <trkpt lat="42.637526" lon="-8.644623">
        <ele>82.866</ele>
        <time>2019-05-01T07:25:00Z</time>
      </trkpt>
      <trkpt lat="42.637557" lon="-8.644630">
        <ele>82.856</ele>
        <time>2019-05-01T07:25:01Z</time>
      </trkpt>
      <trkpt lat="42.637587" lon="-8.644632">
        <ele>82.870</ele>
        <time>2019-05-01T07:25:02Z</time>
      </trkpt>
      <trkpt lat="42.637615" lon="-8.644637">
        <ele>82.888</ele>
        <time>2019-05-01T07:25:03Z</time>
      </trkpt>
      <trkpt lat="42.637965" lon="-8.644664">
        <ele>82.824</ele>
        <time>2019-05-01T07:25:15Z</time>
      </trkpt>
      <trkpt lat="42.638209" lon="-8.644625">
        <ele>85.226</ele>
        <time>2019-05-01T07:25:25Z</time>
      </trkpt>
      <trkpt lat="42.638528" lon="-8.644526">
        <ele>82.308</ele>
        <time>2019-05-01T07:25:35Z</time>
      </trkpt>
      <trkpt lat="42.638764" lon="-8.644471">
        <ele>81.851</ele>
        <time>2019-05-01T07:25:45Z</time>
      </trkpt>
      <trkpt lat="42.639031" lon="-8.644367">
        <ele>84.784</ele>
        <time>2019-05-01T07:25:55Z</time>
      </trkpt>
      <trkpt lat="42.639351" lon="-8.644220">
        <ele>86.630</ele>
        <time>2019-05-01T07:26:05Z</time>
      </trkpt>
      <trkpt lat="42.639643" lon="-8.644013">
        <ele>90.068</ele>
        <time>2019-05-01T07:26:14Z</time>
      </trkpt>
      <trkpt lat="42.639944" lon="-8.643682">
        <ele>89.586</ele>
        <time>2019-05-01T07:26:22Z</time>
      </trkpt>
      <trkpt lat="42.640450" lon="-8.643347">
        <ele>89.028</ele>
        <time>2019-05-01T07:26:36Z</time>
      </trkpt>
      <trkpt lat="42.640870" lon="-8.643199">
        <ele>90.518</ele>
        <time>2019-05-01T07:26:51Z</time>
      </trkpt>
      <trkpt lat="42.641129" lon="-8.643125">
        <ele>94.382</ele>
        <time>2019-05-01T07:27:04Z</time>
      </trkpt>
      <trkpt lat="42.641353" lon="-8.643082">
        <ele>95.749</ele>
        <time>2019-05-01T07:27:14Z</time>
      </trkpt>
      <trkpt lat="42.641459" lon="-8.643056">
        <ele>96.702</ele>
        <time>2019-05-01T07:27:20Z</time>
      </trkpt>
      <trkpt lat="42.641477" lon="-8.643048">
        <ele>96.722</ele>
        <time>2019-05-01T07:27:21Z</time>
      </trkpt>
      <trkpt lat="42.641495" lon="-8.643048">
        <ele>97.208</ele>
        <time>2019-05-01T07:27:22Z</time>
      </trkpt>
      <trkpt lat="42.641512" lon="-8.643046">
        <ele>97.247</ele>
        <time>2019-05-01T07:27:23Z</time>
      </trkpt>
      <trkpt lat="42.641530" lon="-8.643036">
        <ele>97.250</ele>
        <time>2019-05-01T07:27:24Z</time>
      </trkpt>
      <trkpt lat="42.641548" lon="-8.643026">
        <ele>97.266</ele>
        <time>2019-05-01T07:27:25Z</time>
      </trkpt>
      <trkpt lat="42.641779" lon="-8.642975">
        <ele>100.644</ele>
        <time>2019-05-01T07:27:40Z</time>
      </trkpt>
      <trkpt lat="42.642071" lon="-8.643025">
        <ele>105.852</ele>
        <time>2019-05-01T07:27:59Z</time>
      </trkpt>
      <trkpt lat="42.642084" lon="-8.643025">
        <ele>106.344</ele>
        <time>2019-05-01T07:28:00Z</time>
      </trkpt>
      <trkpt lat="42.642096" lon="-8.643022">
        <ele>106.314</ele>
        <time>2019-05-01T07:28:01Z</time>
      </trkpt>
      <trkpt lat="42.642109" lon="-8.643026">
        <ele>106.388</ele>
        <time>2019-05-01T07:28:02Z</time>
      </trkpt>
      <trkpt lat="42.642125" lon="-8.643032">
        <ele>106.388</ele>
        <time>2019-05-01T07:28:03Z</time>
      </trkpt>
      <trkpt lat="42.642140" lon="-8.643036">
        <ele>106.324</ele>
        <time>2019-05-01T07:28:04Z</time>
      </trkpt>
      <trkpt lat="42.642155" lon="-8.643039">
        <ele>106.326</ele>
        <time>2019-05-01T07:28:05Z</time>
      </trkpt>
      <trkpt lat="42.642189" lon="-8.643022">
        <ele>106.308</ele>
        <time>2019-05-01T07:28:09Z</time>
      </trkpt>
      <trkpt lat="42.642204" lon="-8.643017">
        <ele>105.841</ele>
        <time>2019-05-01T07:28:10Z</time>
      </trkpt>
      <trkpt lat="42.642216" lon="-8.643016">
        <ele>105.814</ele>
        <time>2019-05-01T07:28:11Z</time>
      </trkpt>
      <trkpt lat="42.642230" lon="-8.643014">
        <ele>105.450</ele>
        <time>2019-05-01T07:28:12Z</time>
      </trkpt>
      <trkpt lat="42.642251" lon="-8.643015">
        <ele>105.828</ele>
        <time>2019-05-01T07:28:13Z</time>
      </trkpt>
      <trkpt lat="42.642270" lon="-8.643012">
        <ele>105.856</ele>
        <time>2019-05-01T07:28:14Z</time>
      </trkpt>
      <trkpt lat="42.642286" lon="-8.643009">
        <ele>105.828</ele>
        <time>2019-05-01T07:28:15Z</time>
      </trkpt>
      <trkpt lat="42.642302" lon="-8.643007">
        <ele>105.868</ele>
        <time>2019-05-01T07:28:16Z</time>
      </trkpt>
      <trkpt lat="42.642320" lon="-8.643009">
        <ele>105.862</ele>
        <time>2019-05-01T07:28:17Z</time>
      </trkpt>
      <trkpt lat="42.642337" lon="-8.643010">
        <ele>106.338</ele>
        <time>2019-05-01T07:28:18Z</time>
      </trkpt>
      <trkpt lat="42.642417" lon="-8.643029">
        <ele>110.270</ele>
        <time>2019-05-01T07:28:26Z</time>
      </trkpt>
      <trkpt lat="42.642537" lon="-8.643069">
        <ele>112.117</ele>
        <time>2019-05-01T07:28:33Z</time>
      </trkpt>
      <trkpt lat="42.642665" lon="-8.643140">
        <ele>114.008</ele>
        <time>2019-05-01T07:28:39Z</time>
      </trkpt>
      <trkpt lat="42.642683" lon="-8.643159">
        <ele>114.086</ele>
        <time>2019-05-01T07:28:40Z</time>
      </trkpt>
      <trkpt lat="42.642699" lon="-8.643182">
        <ele>114.549</ele>
        <time>2019-05-01T07:28:41Z</time>
      </trkpt>
      <trkpt lat="42.642712" lon="-8.643205">
        <ele>114.075</ele>
        <time>2019-05-01T07:28:42Z</time>
      </trkpt>
      <trkpt lat="42.642728" lon="-8.643230">
        <ele>114.553</ele>
        <time>2019-05-01T07:28:43Z</time>
      </trkpt>
      <trkpt lat="42.642744" lon="-8.643255">
        <ele>114.571</ele>
        <time>2019-05-01T07:28:44Z</time>
      </trkpt>
      <trkpt lat="42.642757" lon="-8.643278">
        <ele>114.513</ele>
        <time>2019-05-01T07:28:45Z</time>
      </trkpt>
      <trkpt lat="42.642771" lon="-8.643297">
        <ele>114.563</ele>
        <time>2019-05-01T07:28:46Z</time>
      </trkpt>
      <trkpt lat="42.642810" lon="-8.643350">
        <ele>115.097</ele>
        <time>2019-05-01T07:28:49Z</time>
      </trkpt>
      <trkpt lat="42.643018" lon="-8.643413">
        <ele>119.366</ele>
        <time>2019-05-01T07:29:04Z</time>
      </trkpt>
      <trkpt lat="42.643236" lon="-8.643414">
        <ele>122.229</ele>
        <time>2019-05-01T07:29:17Z</time>
      </trkpt>
      <trkpt lat="42.643306" lon="-8.643434">
        <ele>122.221</ele>
        <time>2019-05-01T07:29:22Z</time>
      </trkpt>
      <trkpt lat="42.643321" lon="-8.643432">
        <ele>122.208</ele>
        <time>2019-05-01T07:29:23Z</time>
      </trkpt>
      <trkpt lat="42.643337" lon="-8.643430">
        <ele>122.769</ele>
        <time>2019-05-01T07:29:24Z</time>
      </trkpt>
      <trkpt lat="42.643352" lon="-8.643430">
        <ele>122.782</ele>
        <time>2019-05-01T07:29:25Z</time>
      </trkpt>
      <trkpt lat="42.643366" lon="-8.643432">
        <ele>122.798</ele>
        <time>2019-05-01T07:29:26Z</time>
      </trkpt>
      <trkpt lat="42.643586" lon="-8.643417">
        <ele>123.176</ele>
        <time>2019-05-01T07:29:41Z</time>
      </trkpt>
      <trkpt lat="42.643870" lon="-8.643331">
        <ele>123.674</ele>
        <time>2019-05-01T07:29:55Z</time>
      </trkpt>
      <trkpt lat="42.644131" lon="-8.643241">
        <ele>126.036</ele>
        <time>2019-05-01T07:30:10Z</time>
      </trkpt>
      <trkpt lat="42.644359" lon="-8.643200">
        <ele>126.066</ele>
        <time>2019-05-01T07:30:23Z</time>
      </trkpt>
      <trkpt lat="42.644414" lon="-8.643202">
        <ele>126.060</ele>
        <time>2019-05-01T07:30:27Z</time>
      </trkpt>
      <trkpt lat="42.644427" lon="-8.643203">
        <ele>125.585</ele>
        <time>2019-05-01T07:30:28Z</time>
      </trkpt>
      <trkpt lat="42.644613" lon="-8.643208">
        <ele>122.789</ele>
        <time>2019-05-01T07:30:41Z</time>
      </trkpt>
      <trkpt lat="42.644798" lon="-8.643301">
        <ele>121.717</ele>
        <time>2019-05-01T07:30:53Z</time>
      </trkpt>
      <trkpt lat="42.644826" lon="-8.643332">
        <ele>121.208</ele>
        <time>2019-05-01T07:30:56Z</time>
      </trkpt>
      <trkpt lat="42.644896" lon="-8.643412">
        <ele>120.721</ele>
        <time>2019-05-01T07:31:05Z</time>
      </trkpt>
      <trkpt lat="42.645130" lon="-8.643432">
        <ele>126.564</ele>
        <time>2019-05-01T07:31:18Z</time>
      </trkpt>
      <trkpt lat="42.645143" lon="-8.643434">
        <ele>127.570</ele>
        <time>2019-05-01T07:31:19Z</time>
      </trkpt>
      <trkpt lat="42.645165" lon="-8.643427">
        <ele>127.978</ele>
        <time>2019-05-01T07:31:20Z</time>
      </trkpt>
      <trkpt lat="42.645382" lon="-8.643425">
        <ele>131.896</ele>
        <time>2019-05-01T07:31:30Z</time>
      </trkpt>
      <trkpt lat="42.645695" lon="-8.643561">
        <ele>137.168</ele>
        <time>2019-05-01T07:31:43Z</time>
      </trkpt>
      <trkpt lat="42.645976" lon="-8.643611">
        <ele>136.618</ele>
        <time>2019-05-01T07:31:53Z</time>
      </trkpt>
      <trkpt lat="42.646341" lon="-8.643585">
        <ele>135.282</ele>
        <time>2019-05-01T07:32:07Z</time>
      </trkpt>
      <trkpt lat="42.646392" lon="-8.643596">
        <ele>134.252</ele>
        <time>2019-05-01T07:32:19Z</time>
      </trkpt>
      <trkpt lat="42.646390" lon="-8.643598">
        <ele>133.253</ele>
        <time>2019-05-01T07:32:49Z</time>
      </trkpt>
      <trkpt lat="42.646496" lon="-8.643609">
        <ele>132.808</ele>
        <time>2019-05-01T07:33:12Z</time>
      </trkpt>
      <trkpt lat="42.646994" lon="-8.643743">
        <ele>132.808</ele>
        <time>2019-05-01T07:33:28Z</time>
      </trkpt>
      <trkpt lat="42.647179" lon="-8.643905">
        <ele>132.378</ele>
        <time>2019-05-01T07:33:35Z</time>
      </trkpt>
      <trkpt lat="42.647202" lon="-8.643946">
        <ele>132.861</ele>
        <time>2019-05-01T07:33:36Z</time>
      </trkpt>
      <trkpt lat="42.647226" lon="-8.643980">
        <ele>132.857</ele>
        <time>2019-05-01T07:33:37Z</time>
      </trkpt>
      <trkpt lat="42.647249" lon="-8.644016">
        <ele>132.885</ele>
        <time>2019-05-01T07:33:38Z</time>
      </trkpt>
      <trkpt lat="42.647272" lon="-8.644056">
        <ele>132.823</ele>
        <time>2019-05-01T07:33:39Z</time>
      </trkpt>
      <trkpt lat="42.647615" lon="-8.644475">
        <ele>134.745</ele>
        <time>2019-05-01T07:33:53Z</time>
      </trkpt>
      <trkpt lat="42.647984" lon="-8.644688">
        <ele>136.695</ele>
        <time>2019-05-01T07:34:07Z</time>
      </trkpt>
      <trkpt lat="42.648389" lon="-8.644771">
        <ele>139.039</ele>
        <time>2019-05-01T07:34:21Z</time>
      </trkpt>
      <trkpt lat="42.648795" lon="-8.644942">
        <ele>141.431</ele>
        <time>2019-05-01T07:34:36Z</time>
      </trkpt>
      <trkpt lat="42.649199" lon="-8.645029">
        <ele>144.361</ele>
        <time>2019-05-01T07:34:52Z</time>
      </trkpt>
      <trkpt lat="42.649429" lon="-8.645211">
        <ele>143.807</ele>
        <time>2019-05-01T07:35:04Z</time>
      </trkpt>
      <trkpt lat="42.649420" lon="-8.645243">
        <ele>143.308</ele>
        <time>2019-05-01T07:35:10Z</time>
      </trkpt>
      <trkpt lat="42.649408" lon="-8.645252">
        <ele>143.346</ele>
        <time>2019-05-01T07:35:11Z</time>
      </trkpt>
      <trkpt lat="42.649391" lon="-8.645267">
        <ele>143.329</ele>
        <time>2019-05-01T07:35:12Z</time>
      </trkpt>
      <trkpt lat="42.649376" lon="-8.645285">
        <ele>142.875</ele>
        <time>2019-05-01T07:35:13Z</time>
      </trkpt>
      <trkpt lat="42.649362" lon="-8.645309">
        <ele>142.813</ele>
        <time>2019-05-01T07:35:14Z</time>
      </trkpt>
      <trkpt lat="42.649350" lon="-8.645343">
        <ele>142.861</ele>
        <time>2019-05-01T07:35:15Z</time>
      </trkpt>
      <trkpt lat="42.649343" lon="-8.645382">
        <ele>142.463</ele>
        <time>2019-05-01T07:35:16Z</time>
      </trkpt>
      <trkpt lat="42.649347" lon="-8.645422">
        <ele>142.413</ele>
        <time>2019-05-01T07:35:17Z</time>
      </trkpt>
      <trkpt lat="42.649358" lon="-8.645460">
        <ele>142.497</ele>
        <time>2019-05-01T07:35:18Z</time>
      </trkpt>
      <trkpt lat="42.649488" lon="-8.645787">
        <ele>143.395</ele>
        <time>2019-05-01T07:35:29Z</time>
      </trkpt>
      <trkpt lat="42.649534" lon="-8.645878">
        <ele>143.849</ele>
        <time>2019-05-01T07:35:32Z</time>
      </trkpt>
      <trkpt lat="42.649581" lon="-8.646027">
        <ele>143.823</ele>
        <time>2019-05-01T07:35:36Z</time>
      </trkpt>
      <trkpt lat="42.649611" lon="-8.646041">
        <ele>144.308</ele>
        <time>2019-05-01T07:35:37Z</time>
      </trkpt>
      <trkpt lat="42.649961" lon="-8.646356">
        <ele>146.792</ele>
        <time>2019-05-01T07:35:50Z</time>
      </trkpt>
      <trkpt lat="42.650292" lon="-8.646804">
        <ele>147.785</ele>
        <time>2019-05-01T07:36:05Z</time>
      </trkpt>
      <trkpt lat="42.650572" lon="-8.646834">
        <ele>149.191</ele>
        <time>2019-05-01T07:36:15Z</time>
      </trkpt>
      <trkpt lat="42.650593" lon="-8.646865">
        <ele>149.199</ele>
        <time>2019-05-01T07:36:16Z</time>
      </trkpt>
      <trkpt lat="42.650612" lon="-8.646897">
        <ele>148.677</ele>
        <time>2019-05-01T07:36:17Z</time>
      </trkpt>
      <trkpt lat="42.650635" lon="-8.646926">
        <ele>148.649</ele>
        <time>2019-05-01T07:36:18Z</time>
      </trkpt>
      <trkpt lat="42.650662" lon="-8.646943">
        <ele>148.679</ele>
        <time>2019-05-01T07:36:19Z</time>
      </trkpt>
      <trkpt lat="42.650691" lon="-8.646940">
        <ele>148.623</ele>
        <time>2019-05-01T07:36:20Z</time>
      </trkpt>
      <trkpt lat="42.650716" lon="-8.646923">
        <ele>148.621</ele>
        <time>2019-05-01T07:36:21Z</time>
      </trkpt>
      <trkpt lat="42.650738" lon="-8.646901">
        <ele>148.641</ele>
        <time>2019-05-01T07:36:22Z</time>
      </trkpt>
      <trkpt lat="42.650759" lon="-8.646875">
        <ele>148.605</ele>
        <time>2019-05-01T07:36:23Z</time>
      </trkpt>
      <trkpt lat="42.650777" lon="-8.646843">
        <ele>148.608</ele>
        <time>2019-05-01T07:36:24Z</time>
      </trkpt>
      <trkpt lat="42.650789" lon="-8.646808">
        <ele>148.645</ele>
        <time>2019-05-01T07:36:25Z</time>
      </trkpt>
      <trkpt lat="42.650800" lon="-8.646773">
        <ele>148.648</ele>
        <time>2019-05-01T07:36:26Z</time>
      </trkpt>
      <trkpt lat="42.650935" lon="-8.646398">
        <ele>148.624</ele>
        <time>2019-05-01T07:36:36Z</time>
      </trkpt>
      <trkpt lat="42.650957" lon="-8.646371">
        <ele>149.172</ele>
        <time>2019-05-01T07:36:37Z</time>
      </trkpt>
      <trkpt lat="42.650985" lon="-8.646357">
        <ele>149.680</ele>
        <time>2019-05-01T07:36:38Z</time>
      </trkpt>
      <trkpt lat="42.651013" lon="-8.646349">
        <ele>149.682</ele>
        <time>2019-05-01T07:36:39Z</time>
      </trkpt>
      <trkpt lat="42.651044" lon="-8.646348">
        <ele>150.142</ele>
        <time>2019-05-01T07:36:40Z</time>
      </trkpt>
      <trkpt lat="42.651074" lon="-8.646352">
        <ele>150.166</ele>
        <time>2019-05-01T07:36:41Z</time>
      </trkpt>
      <trkpt lat="42.651103" lon="-8.646359">
        <ele>150.576</ele>
        <time>2019-05-01T07:36:42Z</time>
      </trkpt>
      <trkpt lat="42.651456" lon="-8.646460">
        <ele>151.090</ele>
        <time>2019-05-01T07:36:55Z</time>
      </trkpt>
      <trkpt lat="42.651483" lon="-8.646457">
        <ele>150.519</ele>
        <time>2019-05-01T07:36:56Z</time>
      </trkpt>
      <trkpt lat="42.651512" lon="-8.646444">
        <ele>150.508</ele>
        <time>2019-05-01T07:36:57Z</time>
      </trkpt>
      <trkpt lat="42.651845" lon="-8.646067">
        <ele>151.580</ele>
        <time>2019-05-01T07:37:10Z</time>
      </trkpt>
      <trkpt lat="42.652014" lon="-8.645698">
        <ele>152.563</ele>
        <time>2019-05-01T07:37:22Z</time>
      </trkpt>
      <trkpt lat="42.652262" lon="-8.645455">
        <ele>153.999</ele>
        <time>2019-05-01T07:37:34Z</time>
      </trkpt>
      <trkpt lat="42.652509" lon="-8.645387">
        <ele>156.867</ele>
        <time>2019-05-01T07:37:48Z</time>
      </trkpt>
      <trkpt lat="42.652773" lon="-8.645178">
        <ele>161.145</ele>
        <time>2019-05-01T07:38:04Z</time>
      </trkpt>
      <trkpt lat="42.653073" lon="-8.644884">
        <ele>163.567</ele>
        <time>2019-05-01T07:38:24Z</time>
      </trkpt>
      <trkpt lat="42.653084" lon="-8.644868">
        <ele>163.517</ele>
        <time>2019-05-01T07:38:25Z</time>
      </trkpt>
      <trkpt lat="42.653094" lon="-8.644848">
        <ele>163.571</ele>
        <time>2019-05-01T07:38:26Z</time>
      </trkpt>
      <trkpt lat="42.653107" lon="-8.644836">
        <ele>164.022</ele>
        <time>2019-05-01T07:38:27Z</time>
      </trkpt>
      <trkpt lat="42.653120" lon="-8.644824">
        <ele>164.562</ele>
        <time>2019-05-01T07:38:28Z</time>
      </trkpt>
      <trkpt lat="42.653133" lon="-8.644812">
        <ele>164.508</ele>
        <time>2019-05-01T07:38:29Z</time>
      </trkpt>
      <trkpt lat="42.653149" lon="-8.644801">
        <ele>165.008</ele>
        <time>2019-05-01T07:38:30Z</time>
      </trkpt>
      <trkpt lat="42.653466" lon="-8.644571">
        <ele>165.425</ele>
        <time>2019-05-01T07:38:47Z</time>
      </trkpt>
      <trkpt lat="42.653687" lon="-8.644271">
        <ele>168.838</ele>
        <time>2019-05-01T07:39:01Z</time>
      </trkpt>
      <trkpt lat="42.653771" lon="-8.644170">
        <ele>170.284</ele>
        <time>2019-05-01T07:39:07Z</time>
      </trkpt>
      <trkpt lat="42.654066" lon="-8.644256">
        <ele>171.292</ele>
        <time>2019-05-01T07:39:22Z</time>
      </trkpt>
      <trkpt lat="42.654402" lon="-8.644114">
        <ele>171.790</ele>
        <time>2019-05-01T07:39:36Z</time>
      </trkpt>
      <trkpt lat="42.654730" lon="-8.643709">
        <ele>169.812</ele>
        <time>2019-05-01T07:39:51Z</time>
      </trkpt>
      <trkpt lat="42.654796" lon="-8.643223">
        <ele>167.892</ele>
        <time>2019-05-01T07:40:01Z</time>
      </trkpt>
      <trkpt lat="42.655094" lon="-8.642994">
        <ele>168.346</ele>
        <time>2019-05-01T07:40:13Z</time>
      </trkpt>
      <trkpt lat="42.655119" lon="-8.643002">
        <ele>168.824</ele>
        <time>2019-05-01T07:40:14Z</time>
      </trkpt>
      <trkpt lat="42.655144" lon="-8.643018">
        <ele>168.804</ele>
        <time>2019-05-01T07:40:15Z</time>
      </trkpt>
      <trkpt lat="42.655452" lon="-8.643082">
        <ele>171.214</ele>
        <time>2019-05-01T07:40:28Z</time>
      </trkpt>
      <trkpt lat="42.655467" lon="-8.643050">
        <ele>171.208</ele>
        <time>2019-05-01T07:40:29Z</time>
      </trkpt>
      <trkpt lat="42.655537" lon="-8.642399">
        <ele>171.225</ele>
        <time>2019-05-01T07:40:43Z</time>
      </trkpt>
      <trkpt lat="42.655560" lon="-8.642348">
        <ele>171.238</ele>
        <time>2019-05-01T07:40:44Z</time>
      </trkpt>
      <trkpt lat="42.655587" lon="-8.642307">
        <ele>170.724</ele>
        <time>2019-05-01T07:40:45Z</time>
      </trkpt>
      <trkpt lat="42.655617" lon="-8.642273">
        <ele>170.782</ele>
        <time>2019-05-01T07:40:46Z</time>
      </trkpt>
      <trkpt lat="42.655647" lon="-8.642243">
        <ele>170.710</ele>
        <time>2019-05-01T07:40:47Z</time>
      </trkpt>
      <trkpt lat="42.655851" lon="-8.642097">
        <ele>170.712</ele>
        <time>2019-05-01T07:40:54Z</time>
      </trkpt>
      <trkpt lat="42.655881" lon="-8.642111">
        <ele>170.772</ele>
        <time>2019-05-01T07:40:55Z</time>
      </trkpt>
      <trkpt lat="42.655908" lon="-8.642137">
        <ele>170.776</ele>
        <time>2019-05-01T07:40:56Z</time>
      </trkpt>
      <trkpt lat="42.655934" lon="-8.642163">
        <ele>170.758</ele>
        <time>2019-05-01T07:40:57Z</time>
      </trkpt>
      <trkpt lat="42.655960" lon="-8.642189">
        <ele>170.752</ele>
        <time>2019-05-01T07:40:58Z</time>
      </trkpt>
      <trkpt lat="42.655987" lon="-8.642214">
        <ele>170.717</ele>
        <time>2019-05-01T07:40:59Z</time>
      </trkpt>
      <trkpt lat="42.656523" lon="-8.642433">
        <ele>170.208</ele>
        <time>2019-05-01T07:41:13Z</time>
      </trkpt>
      <trkpt lat="42.657067" lon="-8.642700">
        <ele>169.838</ele>
        <time>2019-05-01T07:41:28Z</time>
      </trkpt>
      <trkpt lat="42.657235" lon="-8.642828">
        <ele>169.821</ele>
        <time>2019-05-01T07:41:33Z</time>
      </trkpt>
      <trkpt lat="42.657275" lon="-8.642835">
        <ele>169.327</ele>
        <time>2019-05-01T07:41:34Z</time>
      </trkpt>
      <trkpt lat="42.657315" lon="-8.642818">
        <ele>169.835</ele>
        <time>2019-05-01T07:41:35Z</time>
      </trkpt>
      <trkpt lat="42.657348" lon="-8.642786">
        <ele>169.873</ele>
        <time>2019-05-01T07:41:36Z</time>
      </trkpt>
      <trkpt lat="42.657377" lon="-8.642745">
        <ele>169.885</ele>
        <time>2019-05-01T07:41:37Z</time>
      </trkpt>
      <trkpt lat="42.657403" lon="-8.642700">
        <ele>169.825</ele>
        <time>2019-05-01T07:41:38Z</time>
      </trkpt>
      <trkpt lat="42.657572" lon="-8.642388">
        <ele>169.329</ele>
        <time>2019-05-01T07:41:45Z</time>
      </trkpt>
      <trkpt lat="42.657588" lon="-8.642336">
        <ele>169.842</ele>
        <time>2019-05-01T07:41:46Z</time>
      </trkpt>
      <trkpt lat="42.657600" lon="-8.642281">
        <ele>169.822</ele>
        <time>2019-05-01T07:41:47Z</time>
      </trkpt>
      <trkpt lat="42.657611" lon="-8.642228">
        <ele>169.814</ele>
        <time>2019-05-01T07:41:48Z</time>
      </trkpt>
      <trkpt lat="42.657625" lon="-8.642176">
        <ele>169.808</ele>
        <time>2019-05-01T07:41:49Z</time>
      </trkpt>
      <trkpt lat="42.657713" lon="-8.642005">
        <ele>169.817</ele>
        <time>2019-05-01T07:41:53Z</time>
      </trkpt>
      <trkpt lat="42.657946" lon="-8.641502">
        <ele>169.370</ele>
        <time>2019-05-01T07:42:02Z</time>
      </trkpt>
      <trkpt lat="42.657966" lon="-8.641442">
        <ele>168.816</ele>
        <time>2019-05-01T07:42:03Z</time>
      </trkpt>
      <trkpt lat="42.657997" lon="-8.641321">
        <ele>168.874</ele>
        <time>2019-05-01T07:42:05Z</time>
      </trkpt>
      <trkpt lat="42.658003" lon="-8.641261">
        <ele>168.862</ele>
        <time>2019-05-01T07:42:06Z</time>
      </trkpt>
      <trkpt lat="42.658103" lon="-8.640516">
        <ele>171.214</ele>
        <time>2019-05-01T07:42:20Z</time>
      </trkpt>
      <trkpt lat="42.658123" lon="-8.640294">
        <ele>171.774</ele>
        <time>2019-05-01T07:42:24Z</time>
      </trkpt>
      <trkpt lat="42.658124" lon="-8.640238">
        <ele>171.248</ele>
        <time>2019-05-01T07:42:25Z</time>
      </trkpt>
      <trkpt lat="42.658126" lon="-8.640180">
        <ele>171.293</ele>
        <time>2019-05-01T07:42:26Z</time>
      </trkpt>
      <trkpt lat="42.658136" lon="-8.640121">
        <ele>170.765</ele>
        <time>2019-05-01T07:42:27Z</time>
      </trkpt>
      <trkpt lat="42.658159" lon="-8.640069">
        <ele>170.221</ele>
        <time>2019-05-01T07:42:28Z</time>
      </trkpt>
      <trkpt lat="42.658195" lon="-8.640029">
        <ele>169.808</ele>
        <time>2019-05-01T07:42:29Z</time>
      </trkpt>
      <trkpt lat="42.658239" lon="-8.640003">
        <ele>169.822</ele>
        <time>2019-05-01T07:42:30Z</time>
      </trkpt>
      <trkpt lat="42.658294" lon="-8.639982">
        <ele>169.315</ele>
        <time>2019-05-01T07:42:31Z</time>
      </trkpt>
      <trkpt lat="42.658357" lon="-8.639963">
        <ele>169.391</ele>
        <time>2019-05-01T07:42:32Z</time>
      </trkpt>
      <trkpt lat="42.658481" lon="-8.639905">
        <ele>168.829</ele>
        <time>2019-05-01T07:42:34Z</time>
      </trkpt>
      <trkpt lat="42.658539" lon="-8.639860">
        <ele>168.397</ele>
        <time>2019-05-01T07:42:35Z</time>
      </trkpt>
      <trkpt lat="42.658588" lon="-8.639799">
        <ele>167.839</ele>
        <time>2019-05-01T07:42:36Z</time>
      </trkpt>
      <trkpt lat="42.658624" lon="-8.639721">
        <ele>167.879</ele>
        <time>2019-05-01T07:42:37Z</time>
      </trkpt>
      <trkpt lat="42.658648" lon="-8.639621">
        <ele>167.483</ele>
        <time>2019-05-01T07:42:38Z</time>
      </trkpt>
      <trkpt lat="42.658661" lon="-8.639524">
        <ele>166.461</ele>
        <time>2019-05-01T07:42:39Z</time>
      </trkpt>
      <trkpt lat="42.658667" lon="-8.639434">
        <ele>165.921</ele>
        <time>2019-05-01T07:42:40Z</time>
      </trkpt>
      <trkpt lat="42.658667" lon="-8.639350">
        <ele>165.413</ele>
        <time>2019-05-01T07:42:41Z</time>
      </trkpt>
      <trkpt lat="42.658656" lon="-8.639275">
        <ele>165.008</ele>
        <time>2019-05-01T07:42:42Z</time>
      </trkpt>
      <trkpt lat="42.658637" lon="-8.639210">
        <ele>165.029</ele>
        <time>2019-05-01T07:42:43Z</time>
      </trkpt>
      <trkpt lat="42.658603" lon="-8.639159">
        <ele>164.582</ele>
        <time>2019-05-01T07:42:44Z</time>
      </trkpt>
      <trkpt lat="42.658552" lon="-8.639121">
        <ele>164.528</ele>
        <time>2019-05-01T07:42:45Z</time>
      </trkpt>
      <trkpt lat="42.658500" lon="-8.639084">
        <ele>164.516</ele>
        <time>2019-05-01T07:42:46Z</time>
      </trkpt>
      <trkpt lat="42.658450" lon="-8.639043">
        <ele>164.014</ele>
        <time>2019-05-01T07:42:47Z</time>
      </trkpt>
      <trkpt lat="42.658406" lon="-8.638995">
        <ele>163.546</ele>
        <time>2019-05-01T07:42:48Z</time>
      </trkpt>
      <trkpt lat="42.658290" lon="-8.638842">
        <ele>162.656</ele>
        <time>2019-05-01T07:42:51Z</time>
      </trkpt>
      <trkpt lat="42.658207" lon="-8.638656">
        <ele>161.680</ele>
        <time>2019-05-01T07:42:54Z</time>
      </trkpt>
      <trkpt lat="42.658193" lon="-8.638586">
        <ele>161.123</ele>
        <time>2019-05-01T07:42:55Z</time>
      </trkpt>
      <trkpt lat="42.658145" lon="-8.638388">
        <ele>160.283</ele>
        <time>2019-05-01T07:42:58Z</time>
      </trkpt>
      <trkpt lat="42.658050" lon="-8.638110">
        <ele>158.211</ele>
        <time>2019-05-01T07:43:07Z</time>
      </trkpt>
      <trkpt lat="42.658053" lon="-8.638087">
        <ele>156.808</ele>
        <time>2019-05-01T07:43:17Z</time>
      </trkpt>
      <trkpt lat="42.658063" lon="-8.638066">
        <ele>156.345</ele>
        <time>2019-05-01T07:43:18Z</time>
      </trkpt>
      <trkpt lat="42.658076" lon="-8.638037">
        <ele>156.398</ele>
        <time>2019-05-01T07:43:19Z</time>
      </trkpt>
      <trkpt lat="42.658092" lon="-8.638001">
        <ele>156.894</ele>
        <time>2019-05-01T07:43:20Z</time>
      </trkpt>
      <trkpt lat="42.658113" lon="-8.637965">
        <ele>156.352</ele>
        <time>2019-05-01T07:43:21Z</time>
      </trkpt>
      <trkpt lat="42.658140" lon="-8.637931">
        <ele>156.350</ele>
        <time>2019-05-01T07:43:22Z</time>
      </trkpt>
      <trkpt lat="42.658174" lon="-8.637902">
        <ele>156.362</ele>
        <time>2019-05-01T07:43:23Z</time>
      </trkpt>
      <trkpt lat="42.658210" lon="-8.637878">
        <ele>156.352</ele>
        <time>2019-05-01T07:43:24Z</time>
      </trkpt>
      <trkpt lat="42.658247" lon="-8.637857">
        <ele>156.366</ele>
        <time>2019-05-01T07:43:25Z</time>
      </trkpt>
      <trkpt lat="42.658322" lon="-8.637812">
        <ele>155.841</ele>
        <time>2019-05-01T07:43:27Z</time>
      </trkpt>
      <trkpt lat="42.658355" lon="-8.637778">
        <ele>155.881</ele>
        <time>2019-05-01T07:43:28Z</time>
      </trkpt>
      <trkpt lat="42.658380" lon="-8.637734">
        <ele>155.809</ele>
        <time>2019-05-01T07:43:29Z</time>
      </trkpt>
      <trkpt lat="42.658399" lon="-8.637682">
        <ele>156.308</ele>
        <time>2019-05-01T07:43:30Z</time>
      </trkpt>
      <trkpt lat="42.658413" lon="-8.637625">
        <ele>156.367</ele>
        <time>2019-05-01T07:43:31Z</time>
      </trkpt>
      <trkpt lat="42.658425" lon="-8.637566">
        <ele>156.310</ele>
        <time>2019-05-01T07:43:32Z</time>
      </trkpt>
      <trkpt lat="42.658475" lon="-8.637001">
        <ele>156.376</ele>
        <time>2019-05-01T07:43:41Z</time>
      </trkpt>
      <trkpt lat="42.658487" lon="-8.636943">
        <ele>156.384</ele>
        <time>2019-05-01T07:43:42Z</time>
      </trkpt>
      <trkpt lat="42.658505" lon="-8.636889">
        <ele>156.332</ele>
        <time>2019-05-01T07:43:43Z</time>
      </trkpt>
      <trkpt lat="42.658531" lon="-8.636838">
        <ele>156.374</ele>
        <time>2019-05-01T07:43:44Z</time>
      </trkpt>
      <trkpt lat="42.658561" lon="-8.636795">
        <ele>156.394</ele>
        <time>2019-05-01T07:43:45Z</time>
      </trkpt>
      <trkpt lat="42.658596" lon="-8.636758">
        <ele>156.318</ele>
        <time>2019-05-01T07:43:46Z</time>
      </trkpt>
      <trkpt lat="42.658632" lon="-8.636726">
        <ele>156.816</ele>
        <time>2019-05-01T07:43:47Z</time>
      </trkpt>
      <trkpt lat="42.658722" lon="-8.636607">
        <ele>157.376</ele>
        <time>2019-05-01T07:43:50Z</time>
      </trkpt>
      <trkpt lat="42.658740" lon="-8.636554">
        <ele>157.313</ele>
        <time>2019-05-01T07:43:51Z</time>
      </trkpt>
      <trkpt lat="42.658753" lon="-8.636499">
        <ele>157.708</ele>
        <time>2019-05-01T07:43:52Z</time>
      </trkpt>
      <trkpt lat="42.658784" lon="-8.636380">
        <ele>157.784</ele>
        <time>2019-05-01T07:43:54Z</time>
      </trkpt>
      <trkpt lat="42.658795" lon="-8.636316">
        <ele>157.777</ele>
        <time>2019-05-01T07:43:55Z</time>
      </trkpt>
      <trkpt lat="42.658936" lon="-8.635452">
        <ele>158.733</ele>
        <time>2019-05-01T07:44:10Z</time>
      </trkpt>
      <trkpt lat="42.658955" lon="-8.635400">
        <ele>158.721</ele>
        <time>2019-05-01T07:44:11Z</time>
      </trkpt>
      <trkpt lat="42.658984" lon="-8.635365">
        <ele>159.219</ele>
        <time>2019-05-01T07:44:12Z</time>
      </trkpt>
      <trkpt lat="42.659021" lon="-8.635346">
        <ele>159.281</ele>
        <time>2019-05-01T07:44:13Z</time>
      </trkpt>
      <trkpt lat="42.659059" lon="-8.635342">
        <ele>159.271</ele>
        <time>2019-05-01T07:44:14Z</time>
      </trkpt>
      <trkpt lat="42.659096" lon="-8.635344">
        <ele>159.745</ele>
        <time>2019-05-01T07:44:15Z</time>
      </trkpt>
      <trkpt lat="42.659133" lon="-8.635348">
        <ele>159.763</ele>
        <time>2019-05-01T07:44:16Z</time>
      </trkpt>
      <trkpt lat="42.659170" lon="-8.635351">
        <ele>159.244</ele>
        <time>2019-05-01T07:44:17Z</time>
      </trkpt>
      <trkpt lat="42.659580" lon="-8.635267">
        <ele>160.218</ele>
        <time>2019-05-01T07:44:29Z</time>
      </trkpt>
      <trkpt lat="42.659997" lon="-8.635570">
        <ele>159.208</ele>
        <time>2019-05-01T07:44:42Z</time>
      </trkpt>
      <trkpt lat="42.660445" lon="-8.635959">
        <ele>159.769</ele>
        <time>2019-05-01T07:44:57Z</time>
      </trkpt>
      <trkpt lat="42.660734" lon="-8.636131">
        <ele>160.222</ele>
        <time>2019-05-01T07:45:07Z</time>
      </trkpt>
      <trkpt lat="42.661101" lon="-8.636381">
        <ele>160.658</ele>
        <time>2019-05-01T07:45:18Z</time>
      </trkpt>
      <trkpt lat="42.661210" lon="-8.636428">
        <ele>161.166</ele>
        <time>2019-05-01T07:45:21Z</time>
      </trkpt>
      <trkpt lat="42.661249" lon="-8.636438">
        <ele>161.174</ele>
        <time>2019-05-01T07:45:22Z</time>
      </trkpt>
      <trkpt lat="42.661287" lon="-8.636442">
        <ele>161.136</ele>
        <time>2019-05-01T07:45:23Z</time>
      </trkpt>
      <trkpt lat="42.661324" lon="-8.636442">
        <ele>161.146</ele>
        <time>2019-05-01T07:45:24Z</time>
      </trkpt>
      <trkpt lat="42.661365" lon="-8.636442">
        <ele>161.630</ele>
        <time>2019-05-01T07:45:25Z</time>
      </trkpt>
      <trkpt lat="42.661405" lon="-8.636439">
        <ele>161.617</ele>
        <time>2019-05-01T07:45:26Z</time>
      </trkpt>
      <trkpt lat="42.661553" lon="-8.636357">
        <ele>161.687</ele>
        <time>2019-05-01T07:45:30Z</time>
      </trkpt>
      <trkpt lat="42.661586" lon="-8.636322">
        <ele>161.615</ele>
        <time>2019-05-01T07:45:31Z</time>
      </trkpt>
      <trkpt lat="42.661618" lon="-8.636286">
        <ele>161.608</ele>
        <time>2019-05-01T07:45:32Z</time>
      </trkpt>
      <trkpt lat="42.661807" lon="-8.636013">
        <ele>161.694</ele>
        <time>2019-05-01T07:45:39Z</time>
      </trkpt>
      <trkpt lat="42.661837" lon="-8.635964">
        <ele>161.627</ele>
        <time>2019-05-01T07:45:40Z</time>
      </trkpt>
      <trkpt lat="42.662169" lon="-8.635540">
        <ele>159.263</ele>
        <time>2019-05-01T07:45:51Z</time>
      </trkpt>
      <trkpt lat="42.662212" lon="-8.635497">
        <ele>159.211</ele>
        <time>2019-05-01T07:45:52Z</time>
      </trkpt>
      <trkpt lat="42.662249" lon="-8.635447">
        <ele>158.739</ele>
        <time>2019-05-01T07:45:53Z</time>
      </trkpt>
      <trkpt lat="42.662288" lon="-8.635401">
        <ele>158.241</ele>
        <time>2019-05-01T07:45:54Z</time>
      </trkpt>
      <trkpt lat="42.662330" lon="-8.635364">
        <ele>157.711</ele>
        <time>2019-05-01T07:45:55Z</time>
      </trkpt>
      <trkpt lat="42.662370" lon="-8.635332">
        <ele>157.365</ele>
        <time>2019-05-01T07:45:56Z</time>
      </trkpt>
      <trkpt lat="42.662504" lon="-8.635236">
        <ele>154.964</ele>
        <time>2019-05-01T07:46:00Z</time>
      </trkpt>
      <trkpt lat="42.662543" lon="-8.635206">
        <ele>154.406</ele>
        <time>2019-05-01T07:46:01Z</time>
      </trkpt>
      <trkpt lat="42.662580" lon="-8.635165">
        <ele>153.416</ele>
        <time>2019-05-01T07:46:02Z</time>
      </trkpt>
      <trkpt lat="42.662613" lon="-8.635114">
        <ele>152.908</ele>
        <time>2019-05-01T07:46:03Z</time>
      </trkpt>
      <trkpt lat="42.662643" lon="-8.635058">
        <ele>152.039</ele>
        <time>2019-05-01T07:46:04Z</time>
      </trkpt>
      <trkpt lat="42.662718" lon="-8.634928">
        <ele>150.152</ele>
        <time>2019-05-01T07:46:06Z</time>
      </trkpt>
      <trkpt lat="42.662771" lon="-8.634869">
        <ele>149.118</ele>
        <time>2019-05-01T07:46:07Z</time>
      </trkpt>
      <trkpt lat="42.663068" lon="-8.634554">
        <ele>144.366</ele>
        <time>2019-05-01T07:46:12Z</time>
      </trkpt>
      <trkpt lat="42.663202" lon="-8.634455">
        <ele>143.314</ele>
        <time>2019-05-01T07:46:14Z</time>
      </trkpt>
      <trkpt lat="42.663487" lon="-8.634206">
        <ele>143.396</ele>
        <time>2019-05-01T07:46:20Z</time>
      </trkpt>
      <trkpt lat="42.663529" lon="-8.634178">
        <ele>143.396</ele>
        <time>2019-05-01T07:46:21Z</time>
      </trkpt>
      <trkpt lat="42.664010" lon="-8.633859">
        <ele>146.790</ele>
        <time>2019-05-01T07:46:36Z</time>
      </trkpt>
      <trkpt lat="42.664438" lon="-8.633639">
        <ele>147.727</ele>
        <time>2019-05-01T07:46:51Z</time>
      </trkpt>
      <trkpt lat="42.664879" lon="-8.633448">
        <ele>147.268</ele>
        <time>2019-05-01T07:47:06Z</time>
      </trkpt>
      <trkpt lat="42.665380" lon="-8.633301">
        <ele>146.714</ele>
        <time>2019-05-01T07:47:19Z</time>
      </trkpt>
      <trkpt lat="42.666145" lon="-8.633179">
        <ele>145.308</ele>
        <time>2019-05-01T07:47:36Z</time>
      </trkpt>
      <trkpt lat="42.666230" lon="-8.633156">
        <ele>144.875</ele>
        <time>2019-05-01T07:47:38Z</time>
      </trkpt>
      <trkpt lat="42.666272" lon="-8.633153">
        <ele>144.888</ele>
        <time>2019-05-01T07:47:39Z</time>
      </trkpt>
      <trkpt lat="42.666312" lon="-8.633151">
        <ele>144.824</ele>
        <time>2019-05-01T07:47:40Z</time>
      </trkpt>
      <trkpt lat="42.666836" lon="-8.633129">
        <ele>146.222</ele>
        <time>2019-05-01T07:47:56Z</time>
      </trkpt>
      <trkpt lat="42.667212" lon="-8.633118">
        <ele>147.250</ele>
        <time>2019-05-01T07:48:10Z</time>
      </trkpt>
      <trkpt lat="42.667262" lon="-8.633294">
        <ele>146.282</ele>
        <time>2019-05-01T07:48:17Z</time>
      </trkpt>
      <trkpt lat="42.667178" lon="-8.633781">
        <ele>146.792</ele>
        <time>2019-05-01T07:48:27Z</time>
      </trkpt>
      <trkpt lat="42.667379" lon="-8.633790">
        <ele>144.816</ele>
        <time>2019-05-01T07:48:34Z</time>
      </trkpt>
      <trkpt lat="42.667424" lon="-8.633793">
        <ele>144.312</ele>
        <time>2019-05-01T07:48:35Z</time>
      </trkpt>
      <trkpt lat="42.667469" lon="-8.633798">
        <ele>144.332</ele>
        <time>2019-05-01T07:48:36Z</time>
      </trkpt>
      <trkpt lat="42.667572" lon="-8.633806">
        <ele>143.305</ele>
        <time>2019-05-01T07:48:38Z</time>
      </trkpt>
      <trkpt lat="42.667631" lon="-8.633815">
        <ele>142.808</ele>
        <time>2019-05-01T07:48:39Z</time>
      </trkpt>
      <trkpt lat="42.668548" lon="-8.633865">
        <ele>135.694</ele>
        <time>2019-05-01T07:48:54Z</time>
      </trkpt>
      <trkpt lat="42.668783" lon="-8.633862">
        <ele>133.277</ele>
        <time>2019-05-01T07:49:00Z</time>
      </trkpt>
      <trkpt lat="42.668824" lon="-8.633870">
        <ele>133.263</ele>
        <time>2019-05-01T07:49:01Z</time>
      </trkpt>
      <trkpt lat="42.668868" lon="-8.633871">
        <ele>132.811</ele>
        <time>2019-05-01T07:49:02Z</time>
      </trkpt>
      <trkpt lat="42.669186" lon="-8.633880">
        <ele>129.949</ele>
        <time>2019-05-01T07:49:11Z</time>
      </trkpt>
      <trkpt lat="42.669465" lon="-8.633871">
        <ele>129.411</ele>
        <time>2019-05-01T07:49:17Z</time>
      </trkpt>
      <trkpt lat="42.669517" lon="-8.633857">
        <ele>128.921</ele>
        <time>2019-05-01T07:49:18Z</time>
      </trkpt>
      <trkpt lat="42.669564" lon="-8.633845">
        <ele>128.975</ele>
        <time>2019-05-01T07:49:19Z</time>
      </trkpt>
      <trkpt lat="42.669609" lon="-8.633839">
        <ele>128.491</ele>
        <time>2019-05-01T07:49:20Z</time>
      </trkpt>
      <trkpt lat="42.669654" lon="-8.633834">
        <ele>127.981</ele>
        <time>2019-05-01T07:49:21Z</time>
      </trkpt>
      <trkpt lat="42.669699" lon="-8.633825">
        <ele>127.519</ele>
        <time>2019-05-01T07:49:22Z</time>
      </trkpt>
      <trkpt lat="42.670281" lon="-8.633692">
        <ele>125.508</ele>
        <time>2019-05-01T07:49:34Z</time>
      </trkpt>
      <trkpt lat="42.670330" lon="-8.633676">
        <ele>125.522</ele>
        <time>2019-05-01T07:49:35Z</time>
      </trkpt>
      <trkpt lat="42.670380" lon="-8.633661">
        <ele>125.535</ele>
        <time>2019-05-01T07:49:36Z</time>
      </trkpt>
      <trkpt lat="42.670989" lon="-8.633461">
        <ele>121.721</ele>
        <time>2019-05-01T07:49:48Z</time>
      </trkpt>
      <trkpt lat="42.671856" lon="-8.633203">
        <ele>115.999</ele>
        <time>2019-05-01T07:50:00Z</time>
      </trkpt>
      <trkpt lat="42.671922" lon="-8.633186">
        <ele>115.937</ele>
        <time>2019-05-01T07:50:01Z</time>
      </trkpt>
      <trkpt lat="42.672144" lon="-8.633149">
        <ele>115.589</ele>
        <time>2019-05-01T07:50:05Z</time>
      </trkpt>
      <trkpt lat="42.672384" lon="-8.633051">
        <ele>118.879</ele>
        <time>2019-05-01T07:50:14Z</time>
      </trkpt>
      <trkpt lat="42.672622" lon="-8.633003">
        <ele>124.153</ele>
        <time>2019-05-01T07:50:26Z</time>
      </trkpt>
      <trkpt lat="42.672935" lon="-8.633055">
        <ele>127.079</ele>
        <time>2019-05-01T07:50:39Z</time>
      </trkpt>
      <trkpt lat="42.673249" lon="-8.633202">
        <ele>127.505</ele>
        <time>2019-05-01T07:50:51Z</time>
      </trkpt>
      <trkpt lat="42.673561" lon="-8.633238">
        <ele>127.525</ele>
        <time>2019-05-01T07:51:02Z</time>
      </trkpt>
      <trkpt lat="42.673920" lon="-8.633272">
        <ele>127.508</ele>
        <time>2019-05-01T07:51:14Z</time>
      </trkpt>
      <trkpt lat="42.674257" lon="-8.633356">
        <ele>127.930</ele>
        <time>2019-05-01T07:51:26Z</time>
      </trkpt>
      <trkpt lat="42.674525" lon="-8.633497">
        <ele>128.453</ele>
        <time>2019-05-01T07:51:36Z</time>
      </trkpt>
      <trkpt lat="42.674802" lon="-8.633772">
        <ele>132.349</ele>
        <time>2019-05-01T07:51:48Z</time>
      </trkpt>
      <trkpt lat="42.674807" lon="-8.633799">
        <ele>132.387</ele>
        <time>2019-05-01T07:51:49Z</time>
      </trkpt>
      <trkpt lat="42.674812" lon="-8.633826">
        <ele>132.845</ele>
        <time>2019-05-01T07:51:50Z</time>
      </trkpt>
      <trkpt lat="42.674811" lon="-8.633845">
        <ele>133.717</ele>
        <time>2019-05-01T07:51:51Z</time>
      </trkpt>
      <trkpt lat="42.674810" lon="-8.633869">
        <ele>133.747</ele>
        <time>2019-05-01T07:51:52Z</time>
      </trkpt>
      <trkpt lat="42.674814" lon="-8.633909">
        <ele>133.721</ele>
        <time>2019-05-01T07:51:53Z</time>
      </trkpt>
      <trkpt lat="42.674819" lon="-8.633956">
        <ele>133.714</ele>
        <time>2019-05-01T07:51:54Z</time>
      </trkpt>
      <trkpt lat="42.674839" lon="-8.634302">
        <ele>135.254</ele>
        <time>2019-05-01T07:52:04Z</time>
      </trkpt>
      <trkpt lat="42.674889" lon="-8.634712">
        <ele>139.509</ele>
        <time>2019-05-01T07:52:15Z</time>
      </trkpt>
      <trkpt lat="42.674964" lon="-8.635100">
        <ele>139.008</ele>
        <time>2019-05-01T07:52:23Z</time>
      </trkpt>
      <trkpt lat="42.674979" lon="-8.635129">
        <ele>139.054</ele>
        <time>2019-05-01T07:52:24Z</time>
      </trkpt>
      <trkpt lat="42.674987" lon="-8.635161">
        <ele>139.087</ele>
        <time>2019-05-01T07:52:25Z</time>
      </trkpt>
      <trkpt lat="42.675082" lon="-8.635709">
        <ele>140.043</ele>
        <time>2019-05-01T07:52:37Z</time>
      </trkpt>
      <trkpt lat="42.675228" lon="-8.636193">
        <ele>139.071</ele>
        <time>2019-05-01T07:52:48Z</time>
      </trkpt>
      <trkpt lat="42.675394" lon="-8.636773">
        <ele>139.069</ele>
        <time>2019-05-01T07:53:01Z</time>
      </trkpt>
      <trkpt lat="42.675445" lon="-8.636942">
        <ele>138.581</ele>
        <time>2019-05-01T07:53:06Z</time>
      </trkpt>
      <trkpt lat="42.675546" lon="-8.637191">
        <ele>136.631</ele>
        <time>2019-05-01T07:53:12Z</time>
      </trkpt>
      <trkpt lat="42.675558" lon="-8.637247">
        <ele>136.115</ele>
        <time>2019-05-01T07:53:13Z</time>
      </trkpt>
      <trkpt lat="42.675582" lon="-8.637365">
        <ele>136.157</ele>
        <time>2019-05-01T07:53:15Z</time>
      </trkpt>
      <trkpt lat="42.675602" lon="-8.637418">
        <ele>136.100</ele>
        <time>2019-05-01T07:53:16Z</time>
      </trkpt>
      <trkpt lat="42.675626" lon="-8.637463">
        <ele>136.120</ele>
        <time>2019-05-01T07:53:17Z</time>
      </trkpt>
      <trkpt lat="42.676011" lon="-8.637989">
        <ele>137.108</ele>
        <time>2019-05-01T07:53:30Z</time>
      </trkpt>
      <trkpt lat="42.676076" lon="-8.638090">
        <ele>137.638</ele>
        <time>2019-05-01T07:53:32Z</time>
      </trkpt>
      <trkpt lat="42.676393" lon="-8.638642">
        <ele>140.091</ele>
        <time>2019-05-01T07:53:44Z</time>
      </trkpt>
      <trkpt lat="42.676433" lon="-8.638651">
        <ele>140.067</ele>
        <time>2019-05-01T07:53:45Z</time>
      </trkpt>
      <trkpt lat="42.676474" lon="-8.638647">
        <ele>139.565</ele>
        <time>2019-05-01T07:53:46Z</time>
      </trkpt>
      <trkpt lat="42.676567" lon="-8.638631">
        <ele>139.563</ele>
        <time>2019-05-01T07:53:48Z</time>
      </trkpt>
      <trkpt lat="42.676614" lon="-8.638608">
        <ele>139.565</ele>
        <time>2019-05-01T07:53:49Z</time>
      </trkpt>
      <trkpt lat="42.676658" lon="-8.638577">
        <ele>139.095</ele>
        <time>2019-05-01T07:53:50Z</time>
      </trkpt>
      <trkpt lat="42.676701" lon="-8.638540">
        <ele>139.049</ele>
        <time>2019-05-01T07:53:51Z</time>
      </trkpt>
      <trkpt lat="42.676742" lon="-8.638496">
        <ele>139.024</ele>
        <time>2019-05-01T07:53:52Z</time>
      </trkpt>
      <trkpt lat="42.676779" lon="-8.638448">
        <ele>139.004</ele>
        <time>2019-05-01T07:53:53Z</time>
      </trkpt>
      <trkpt lat="42.676816" lon="-8.638398">
        <ele>138.514</ele>
        <time>2019-05-01T07:53:54Z</time>
      </trkpt>
      <trkpt lat="42.676887" lon="-8.638296">
        <ele>138.008</ele>
        <time>2019-05-01T07:53:56Z</time>
      </trkpt>
      <trkpt lat="42.676916" lon="-8.638240">
        <ele>138.045</ele>
        <time>2019-05-01T07:53:57Z</time>
      </trkpt>
      <trkpt lat="42.676941" lon="-8.638179">
        <ele>137.678</ele>
        <time>2019-05-01T07:53:58Z</time>
      </trkpt>
      <trkpt lat="42.676961" lon="-8.638114">
        <ele>137.644</ele>
        <time>2019-05-01T07:53:59Z</time>
      </trkpt>
      <trkpt lat="42.676976" lon="-8.638050">
        <ele>137.612</ele>
        <time>2019-05-01T07:54:00Z</time>
      </trkpt>
      <trkpt lat="42.676990" lon="-8.637985">
        <ele>137.610</ele>
        <time>2019-05-01T07:54:01Z</time>
      </trkpt>
      <trkpt lat="42.677004" lon="-8.637919">
        <ele>137.632</ele>
        <time>2019-05-01T07:54:02Z</time>
      </trkpt>
      <trkpt lat="42.677019" lon="-8.637851">
        <ele>137.682</ele>
        <time>2019-05-01T07:54:03Z</time>
      </trkpt>
      <trkpt lat="42.677035" lon="-8.637785">
        <ele>137.616</ele>
        <time>2019-05-01T07:54:04Z</time>
      </trkpt>
      <trkpt lat="42.677056" lon="-8.637718">
        <ele>137.668</ele>
        <time>2019-05-01T07:54:05Z</time>
      </trkpt>
      <trkpt lat="42.677085" lon="-8.637646">
        <ele>137.142</ele>
        <time>2019-05-01T07:54:06Z</time>
      </trkpt>
      <trkpt lat="42.677114" lon="-8.637573">
        <ele>136.626</ele>
        <time>2019-05-01T07:54:07Z</time>
      </trkpt>
      <trkpt lat="42.677143" lon="-8.637497">
        <ele>136.108</ele>
        <time>2019-05-01T07:54:08Z</time>
      </trkpt>
      <trkpt lat="42.677175" lon="-8.637423">
        <ele>135.649</ele>
        <time>2019-05-01T07:54:09Z</time>
      </trkpt>
      <trkpt lat="42.677213" lon="-8.637357">
        <ele>135.262</ele>
        <time>2019-05-01T07:54:10Z</time>
      </trkpt>
      <trkpt lat="42.677258" lon="-8.637291">
        <ele>134.288</ele>
        <time>2019-05-01T07:54:11Z</time>
      </trkpt>
      <trkpt lat="42.677358" lon="-8.637165">
        <ele>132.836</ele>
        <time>2019-05-01T07:54:13Z</time>
      </trkpt>
      <trkpt lat="42.677414" lon="-8.637121">
        <ele>132.324</ele>
        <time>2019-05-01T07:54:14Z</time>
      </trkpt>
      <trkpt lat="42.677471" lon="-8.637097">
        <ele>131.336</ele>
        <time>2019-05-01T07:54:15Z</time>
      </trkpt>
      <trkpt lat="42.677527" lon="-8.637087">
        <ele>130.436</ele>
        <time>2019-05-01T07:54:16Z</time>
      </trkpt>
      <trkpt lat="42.677580" lon="-8.637083">
        <ele>129.970</ele>
        <time>2019-05-01T07:54:17Z</time>
      </trkpt>
      <trkpt lat="42.677634" lon="-8.637085">
        <ele>128.974</ele>
        <time>2019-05-01T07:54:18Z</time>
      </trkpt>
      <trkpt lat="42.677887" lon="-8.637098">
        <ele>125.156</ele>
        <time>2019-05-01T07:54:22Z</time>
      </trkpt>
      <trkpt lat="42.678064" lon="-8.637050">
        <ele>122.221</ele>
        <time>2019-05-01T07:54:25Z</time>
      </trkpt>
      <trkpt lat="42.678235" lon="-8.636988">
        <ele>119.308</ele>
        <time>2019-05-01T07:54:28Z</time>
      </trkpt>
      <trkpt lat="42.678381" lon="-8.636971">
        <ele>116.980</ele>
        <time>2019-05-01T07:54:30Z</time>
      </trkpt>
      <trkpt lat="42.678516" lon="-8.636973">
        <ele>114.543</ele>
        <time>2019-05-01T07:54:32Z</time>
      </trkpt>
      <trkpt lat="42.678573" lon="-8.636992">
        <ele>113.569</ele>
        <time>2019-05-01T07:54:33Z</time>
      </trkpt>
      <trkpt lat="42.678629" lon="-8.637025">
        <ele>112.667</ele>
        <time>2019-05-01T07:54:34Z</time>
      </trkpt>
      <trkpt lat="42.678683" lon="-8.637070">
        <ele>112.145</ele>
        <time>2019-05-01T07:54:35Z</time>
      </trkpt>
      <trkpt lat="42.678734" lon="-8.637117">
        <ele>111.167</ele>
        <time>2019-05-01T07:54:36Z</time>
      </trkpt>
      <trkpt lat="42.678782" lon="-8.637170">
        <ele>110.677</ele>
        <time>2019-05-01T07:54:37Z</time>
      </trkpt>
      <trkpt lat="42.678822" lon="-8.637231">
        <ele>110.241</ele>
        <time>2019-05-01T07:54:38Z</time>
      </trkpt>
      <trkpt lat="42.678891" lon="-8.637345">
        <ele>108.785</ele>
        <time>2019-05-01T07:54:40Z</time>
      </trkpt>
      <trkpt lat="42.678923" lon="-8.637384">
        <ele>108.289</ele>
        <time>2019-05-01T07:54:41Z</time>
      </trkpt>
      <trkpt lat="42.678956" lon="-8.637410">
        <ele>107.817</ele>
        <time>2019-05-01T07:54:42Z</time>
      </trkpt>
      <trkpt lat="42.678988" lon="-8.637408">
        <ele>106.808</ele>
        <time>2019-05-01T07:54:43Z</time>
      </trkpt>
      <trkpt lat="42.679018" lon="-8.637377">
        <ele>106.391</ele>
        <time>2019-05-01T07:54:44Z</time>
      </trkpt>
      <trkpt lat="42.679039" lon="-8.637327">
        <ele>105.414</ele>
        <time>2019-05-01T07:54:45Z</time>
      </trkpt>
      <trkpt lat="42.679053" lon="-8.637276">
        <ele>104.980</ele>
        <time>2019-05-01T07:54:46Z</time>
      </trkpt>
      <trkpt lat="42.679065" lon="-8.637231">
        <ele>103.948</ele>
        <time>2019-05-01T07:54:47Z</time>
      </trkpt>
      <trkpt lat="42.679100" lon="-8.637135">
        <ele>101.516</ele>
        <time>2019-05-01T07:54:50Z</time>
      </trkpt>
      <trkpt lat="42.679114" lon="-8.637136">
        <ele>100.628</ele>
        <time>2019-05-01T07:54:51Z</time>
      </trkpt>
      <trkpt lat="42.679125" lon="-8.637151">
        <ele>100.178</ele>
        <time>2019-05-01T07:54:52Z</time>
      </trkpt>
      <trkpt lat="42.679139" lon="-8.637179">
        <ele>99.692</ele>
        <time>2019-05-01T07:54:53Z</time>
      </trkpt>
      <trkpt lat="42.679154" lon="-8.637219">
        <ele>99.657</ele>
        <time>2019-05-01T07:54:54Z</time>
      </trkpt>
      <trkpt lat="42.679175" lon="-8.637266">
        <ele>99.100</ele>
        <time>2019-05-01T07:54:55Z</time>
      </trkpt>
      <trkpt lat="42.679201" lon="-8.637310">
        <ele>99.120</ele>
        <time>2019-05-01T07:54:56Z</time>
      </trkpt>
      <trkpt lat="42.679244" lon="-8.637353">
        <ele>98.608</ele>
        <time>2019-05-01T07:54:58Z</time>
      </trkpt>
      <trkpt lat="42.679268" lon="-8.637341">
        <ele>98.198</ele>
        <time>2019-05-01T07:54:59Z</time>
      </trkpt>
      <trkpt lat="42.679299" lon="-8.637314">
        <ele>98.181</ele>
        <time>2019-05-01T07:55:00Z</time>
      </trkpt>
      <trkpt lat="42.679405" lon="-8.637214">
        <ele>96.247</ele>
        <time>2019-05-01T07:55:03Z</time>
      </trkpt>
      <trkpt lat="42.679442" lon="-8.637183">
        <ele>95.715</ele>
        <time>2019-05-01T07:55:04Z</time>
      </trkpt>
      <trkpt lat="42.679483" lon="-8.637160">
        <ele>94.343</ele>
        <time>2019-05-01T07:55:05Z</time>
      </trkpt>
      <trkpt lat="42.679520" lon="-8.637134">
        <ele>93.335</ele>
        <time>2019-05-01T07:55:06Z</time>
      </trkpt>
      <trkpt lat="42.679564" lon="-8.637108">
        <ele>92.495</ele>
        <time>2019-05-01T07:55:07Z</time>
      </trkpt>
      <trkpt lat="42.679627" lon="-8.637078">
        <ele>90.959</ele>
        <time>2019-05-01T07:55:08Z</time>
      </trkpt>
      <trkpt lat="42.679695" lon="-8.637042">
        <ele>89.581</ele>
        <time>2019-05-01T07:55:09Z</time>
      </trkpt>
      <trkpt lat="42.680023" lon="-8.636785">
        <ele>83.261</ele>
        <time>2019-05-01T07:55:15Z</time>
      </trkpt>
      <trkpt lat="42.680226" lon="-8.636513">
        <ele>78.017</ele>
        <time>2019-05-01T07:55:22Z</time>
      </trkpt>
      <trkpt lat="42.680517" lon="-8.636236">
        <ele>72.708</ele>
        <time>2019-05-01T07:55:28Z</time>
      </trkpt>
      <trkpt lat="42.680678" lon="-8.636148">
        <ele>69.381</ele>
        <time>2019-05-01T07:55:31Z</time>
      </trkpt>
      <trkpt lat="42.680733" lon="-8.636143">
        <ele>68.394</ele>
        <time>2019-05-01T07:55:32Z</time>
      </trkpt>
      <trkpt lat="42.680790" lon="-8.636151">
        <ele>67.450</ele>
        <time>2019-05-01T07:55:33Z</time>
      </trkpt>
      <trkpt lat="42.681219" lon="-8.636266">
        <ele>60.218</ele>
        <time>2019-05-01T07:55:43Z</time>
      </trkpt>
      <trkpt lat="42.681434" lon="-8.636408">
        <ele>58.396</ele>
        <time>2019-05-01T07:55:53Z</time>
      </trkpt>
      <trkpt lat="42.681602" lon="-8.636609">
        <ele>60.228</ele>
        <time>2019-05-01T07:56:06Z</time>
      </trkpt>
      <trkpt lat="42.681653" lon="-8.636651">
        <ele>68.818</ele>
        <time>2019-05-01T07:56:30Z</time>
      </trkpt>
      <trkpt lat="42.681688" lon="-8.636647">
        <ele>72.232</ele>
        <time>2019-05-01T07:56:49Z</time>
      </trkpt>
      <trkpt lat="42.681716" lon="-8.636652">
        <ele>72.748</ele>
        <time>2019-05-01T07:56:52Z</time>
      </trkpt>
      <trkpt lat="42.681736" lon="-8.636657">
        <ele>72.761</ele>
        <time>2019-05-01T07:56:53Z</time>
      </trkpt>
      <trkpt lat="42.681913" lon="-8.636736">
        <ele>70.317</ele>
        <time>2019-05-01T07:57:00Z</time>
      </trkpt>
      <trkpt lat="42.681929" lon="-8.636757">
        <ele>69.308</ele>
        <time>2019-05-01T07:57:01Z</time>
      </trkpt>
      <trkpt lat="42.682096" lon="-8.637000">
        <ele>62.147</ele>
        <time>2019-05-01T07:57:13Z</time>
      </trkpt>
      <trkpt lat="42.682247" lon="-8.637135">
        <ele>63.120</ele>
        <time>2019-05-01T07:57:25Z</time>
      </trkpt>
      <trkpt lat="42.682337" lon="-8.637135">
        <ele>64.046</ele>
        <time>2019-05-01T07:57:30Z</time>
      </trkpt>
      <trkpt lat="42.682355" lon="-8.637132">
        <ele>64.074</ele>
        <time>2019-05-01T07:57:31Z</time>
      </trkpt>
      <trkpt lat="42.682374" lon="-8.637131">
        <ele>64.012</ele>
        <time>2019-05-01T07:57:32Z</time>
      </trkpt>
      <trkpt lat="42.682406" lon="-8.637129">
        <ele>64.084</ele>
        <time>2019-05-01T07:57:33Z</time>
      </trkpt>
      <trkpt lat="42.682450" lon="-8.637130">
        <ele>64.074</ele>
        <time>2019-05-01T07:57:34Z</time>
      </trkpt>
      <trkpt lat="42.682497" lon="-8.637137">
        <ele>64.078</ele>
        <time>2019-05-01T07:57:35Z</time>
      </trkpt>
      <trkpt lat="42.682547" lon="-8.637146">
        <ele>63.533</ele>
        <time>2019-05-01T07:57:36Z</time>
      </trkpt>
      <trkpt lat="42.682854" lon="-8.637182">
        <ele>63.123</ele>
        <time>2019-05-01T07:57:41Z</time>
      </trkpt>
      <trkpt lat="42.682918" lon="-8.637158">
        <ele>62.615</ele>
        <time>2019-05-01T07:57:42Z</time>
      </trkpt>
      <trkpt lat="42.682977" lon="-8.637119">
        <ele>62.108</ele>
        <time>2019-05-01T07:57:43Z</time>
      </trkpt>
      <trkpt lat="42.683034" lon="-8.637076">
        <ele>61.636</ele>
        <time>2019-05-01T07:57:44Z</time>
      </trkpt>
      <trkpt lat="42.683094" lon="-8.637030">
        <ele>60.759</ele>
        <time>2019-05-01T07:57:45Z</time>
      </trkpt>
      <trkpt lat="42.683341" lon="-8.636835">
        <ele>56.815</ele>
        <time>2019-05-01T07:57:49Z</time>
      </trkpt>
      <trkpt lat="42.683405" lon="-8.636801">
        <ele>55.813</ele>
        <time>2019-05-01T07:57:50Z</time>
      </trkpt>
      <trkpt lat="42.683527" lon="-8.636748">
        <ele>54.911</ele>
        <time>2019-05-01T07:57:52Z</time>
      </trkpt>
      <trkpt lat="42.684003" lon="-8.636676">
        <ele>49.663</ele>
        <time>2019-05-01T07:58:02Z</time>
      </trkpt>
      <trkpt lat="42.684046" lon="-8.636673">
        <ele>49.193</ele>
        <time>2019-05-01T07:58:03Z</time>
      </trkpt>
      <trkpt lat="42.684112" lon="-8.636658">
        <ele>48.677</ele>
        <time>2019-05-01T07:58:04Z</time>
      </trkpt>
      <trkpt lat="42.684183" lon="-8.636654">
        <ele>48.288</ele>
        <time>2019-05-01T07:58:05Z</time>
      </trkpt>
      <trkpt lat="42.684244" lon="-8.636663">
        <ele>48.224</ele>
        <time>2019-05-01T07:58:06Z</time>
      </trkpt>
      <trkpt lat="42.684283" lon="-8.636676">
        <ele>47.726</ele>
        <time>2019-05-01T07:58:07Z</time>
      </trkpt>
      <trkpt lat="42.684299" lon="-8.636681">
        <ele>48.208</ele>
        <time>2019-05-01T07:58:08Z</time>
      </trkpt>
      <trkpt lat="42.684503" lon="-8.636695">
        <ele>55.481</ele>
        <time>2019-05-01T07:58:16Z</time>
      </trkpt>
      <trkpt lat="42.684525" lon="-8.636702">
        <ele>56.314</ele>
        <time>2019-05-01T07:58:17Z</time>
      </trkpt>
      <trkpt lat="42.684549" lon="-8.636709">
        <ele>57.370</ele>
        <time>2019-05-01T07:58:18Z</time>
      </trkpt>
      <trkpt lat="42.684741" lon="-8.636798">
        <ele>62.168</ele>
        <time>2019-05-01T07:58:30Z</time>
      </trkpt>
      <trkpt lat="42.684868" lon="-8.636888">
        <ele>61.166</ele>
        <time>2019-05-01T07:58:39Z</time>
      </trkpt>
      <trkpt lat="42.684989" lon="-8.636981">
        <ele>58.788</ele>
        <time>2019-05-01T07:58:48Z</time>
      </trkpt>
      <trkpt lat="42.685056" lon="-8.637000">
        <ele>56.398</ele>
        <time>2019-05-01T07:58:51Z</time>
      </trkpt>
      <trkpt lat="42.685258" lon="-8.637227">
        <ele>50.112</ele>
        <time>2019-05-01T07:58:59Z</time>
      </trkpt>
      <trkpt lat="42.685315" lon="-8.637283">
        <ele>48.672</ele>
        <time>2019-05-01T07:59:02Z</time>
      </trkpt>
      <trkpt lat="42.685571" lon="-8.637289">
        <ele>46.213</ele>
        <time>2019-05-01T07:59:15Z</time>
      </trkpt>
      <trkpt lat="42.685754" lon="-8.637375">
        <ele>46.714</ele>
        <time>2019-05-01T07:59:24Z</time>
      </trkpt>
      <trkpt lat="42.685859" lon="-8.637497">
        <ele>45.308</ele>
        <time>2019-05-01T07:59:32Z</time>
      </trkpt>
      <trkpt lat="42.686034" lon="-8.637549">
        <ele>50.680</ele>
        <time>2019-05-01T07:59:42Z</time>
      </trkpt>
      <trkpt lat="42.686222" lon="-8.637592">
        <ele>55.853</ele>
        <time>2019-05-01T07:59:52Z</time>
      </trkpt>
      <trkpt lat="42.686263" lon="-8.637601">
        <ele>56.319</ele>
        <time>2019-05-01T07:59:54Z</time>
      </trkpt>
      <trkpt lat="42.686418" lon="-8.637825">
        <ele>55.477</ele>
        <time>2019-05-01T08:00:01Z</time>
      </trkpt>
      <trkpt lat="42.686582" lon="-8.637824">
        <ele>57.325</ele>
        <time>2019-05-01T08:00:06Z</time>
      </trkpt>
      <trkpt lat="42.686679" lon="-8.637828">
        <ele>62.147</ele>
        <time>2019-05-01T08:00:22Z</time>
      </trkpt>
      <trkpt lat="42.686769" lon="-8.637848">
        <ele>65.917</ele>
        <time>2019-05-01T08:00:47Z</time>
      </trkpt>
      <trkpt lat="42.686844" lon="-8.637835">
        <ele>74.661</ele>
        <time>2019-05-01T08:01:17Z</time>
      </trkpt>
      <trkpt lat="42.686862" lon="-8.637824">
        <ele>76.061</ele>
        <time>2019-05-01T08:01:38Z</time>
      </trkpt>
      <trkpt lat="42.686946" lon="-8.637701">
        <ele>76.521</ele>
        <time>2019-05-01T08:01:44Z</time>
      </trkpt>
      <trkpt lat="42.687186" lon="-8.637698">
        <ele>77.013</ele>
        <time>2019-05-01T08:01:51Z</time>
      </trkpt>
      <trkpt lat="42.687347" lon="-8.637734">
        <ele>77.008</ele>
        <time>2019-05-01T08:01:54Z</time>
      </trkpt>
      <trkpt lat="42.687564" lon="-8.637707">
        <ele>77.039</ele>
        <time>2019-05-01T08:01:58Z</time>
      </trkpt>
      <trkpt lat="42.687902" lon="-8.637829">
        <ele>76.092</ele>
        <time>2019-05-01T08:02:05Z</time>
      </trkpt>
      <trkpt lat="42.688174" lon="-8.638157">
        <ele>77.018</ele>
        <time>2019-05-01T08:02:14Z</time>
      </trkpt>
      <trkpt lat="42.688213" lon="-8.638259">
        <ele>78.476</ele>
        <time>2019-05-01T08:02:17Z</time>
      </trkpt>
      <trkpt lat="42.688379" lon="-8.638366">
        <ele>80.444</ele>
        <time>2019-05-01T08:02:24Z</time>
      </trkpt>
      <trkpt lat="42.688492" lon="-8.638285">
        <ele>81.366</ele>
        <time>2019-05-01T08:02:28Z</time>
      </trkpt>
      <trkpt lat="42.688582" lon="-8.638213">
        <ele>82.866</ele>
        <time>2019-05-01T08:02:31Z</time>
      </trkpt>
      <trkpt lat="42.688783" lon="-8.638068">
        <ele>83.240</ele>
        <time>2019-05-01T08:02:35Z</time>
      </trkpt>
      <trkpt lat="42.688909" lon="-8.638006">
        <ele>84.241</ele>
        <time>2019-05-01T08:02:37Z</time>
      </trkpt>
      <trkpt lat="42.689209" lon="-8.638097">
        <ele>84.781</ele>
        <time>2019-05-01T08:02:41Z</time>
      </trkpt>
      <trkpt lat="42.689769" lon="-8.638307">
        <ele>84.709</ele>
        <time>2019-05-01T08:02:48Z</time>
      </trkpt>
      <trkpt lat="42.690229" lon="-8.638468">
        <ele>83.208</ele>
        <time>2019-05-01T08:02:55Z</time>
      </trkpt>
      <trkpt lat="42.690317" lon="-8.638551">
        <ele>82.397</ele>
        <time>2019-05-01T08:02:57Z</time>
      </trkpt>
      <trkpt lat="42.690440" lon="-8.638606">
        <ele>79.410</ele>
        <time>2019-05-01T08:03:00Z</time>
      </trkpt>
      <trkpt lat="42.690622" lon="-8.638462">
        <ele>72.216</ele>
        <time>2019-05-01T08:03:09Z</time>
      </trkpt>
      <trkpt lat="42.690782" lon="-8.637998">
        <ele>61.674</ele>
        <time>2019-05-01T08:03:22Z</time>
      </trkpt>
      <trkpt lat="42.691004" lon="-8.637539">
        <ele>55.872</ele>
        <time>2019-05-01T08:03:39Z</time>
      </trkpt>
      <trkpt lat="42.691233" lon="-8.637561">
        <ele>56.314</ele>
        <time>2019-05-01T08:03:49Z</time>
      </trkpt>
      <trkpt lat="42.691540" lon="-8.637562">
        <ele>54.964</ele>
        <time>2019-05-01T08:04:02Z</time>
      </trkpt>
      <trkpt lat="42.691876" lon="-8.637475">
        <ele>56.818</ele>
        <time>2019-05-01T08:04:15Z</time>
      </trkpt>
      <trkpt lat="42.692209" lon="-8.637404">
        <ele>57.386</ele>
        <time>2019-05-01T08:04:27Z</time>
      </trkpt>
      <trkpt lat="42.692538" lon="-8.637444">
        <ele>54.960</ele>
        <time>2019-05-01T08:04:36Z</time>
      </trkpt>
      <trkpt lat="42.692578" lon="-8.637436">
        <ele>54.926</ele>
        <time>2019-05-01T08:04:37Z</time>
      </trkpt>
      <trkpt lat="42.692619" lon="-8.637430">
        <ele>54.908</ele>
        <time>2019-05-01T08:04:38Z</time>
      </trkpt>
      <trkpt lat="42.692661" lon="-8.637432">
        <ele>54.981</ele>
        <time>2019-05-01T08:04:39Z</time>
      </trkpt>
      <trkpt lat="42.692705" lon="-8.637440">
        <ele>54.494</ele>
        <time>2019-05-01T08:04:40Z</time>
      </trkpt>
      <trkpt lat="42.692745" lon="-8.637461">
        <ele>54.450</ele>
        <time>2019-05-01T08:04:41Z</time>
      </trkpt>
      <trkpt lat="42.692776" lon="-8.637498">
        <ele>54.978</ele>
        <time>2019-05-01T08:04:42Z</time>
      </trkpt>
      <trkpt lat="42.693166" lon="-8.637758">
        <ele>55.466</ele>
        <time>2019-05-01T08:04:54Z</time>
      </trkpt>
      <trkpt lat="42.693466" lon="-8.637910">
        <ele>59.298</ele>
        <time>2019-05-01T08:05:07Z</time>
      </trkpt>
      <trkpt lat="42.693845" lon="-8.638056">
        <ele>60.268</ele>
        <time>2019-05-01T08:05:20Z</time>
      </trkpt>
      <trkpt lat="42.694383" lon="-8.638213">
        <ele>61.622</ele>
        <time>2019-05-01T08:05:35Z</time>
      </trkpt>
      <trkpt lat="42.694620" lon="-8.638252">
        <ele>61.695</ele>
        <time>2019-05-01T08:05:40Z</time>
      </trkpt>
      <trkpt lat="42.694664" lon="-8.638249">
        <ele>61.649</ele>
        <time>2019-05-01T08:05:41Z</time>
      </trkpt>
      <trkpt lat="42.694702" lon="-8.638242">
        <ele>61.623</ele>
        <time>2019-05-01T08:05:42Z</time>
      </trkpt>
      <trkpt lat="42.695312" lon="-8.638248">
        <ele>62.108</ele>
        <time>2019-05-01T08:05:58Z</time>
      </trkpt>
      <trkpt lat="42.695768" lon="-8.638361">
        <ele>64.542</ele>
        <time>2019-05-01T08:06:09Z</time>
      </trkpt>
      <trkpt lat="42.695804" lon="-8.638389">
        <ele>64.575</ele>
        <time>2019-05-01T08:06:10Z</time>
      </trkpt>
      <trkpt lat="42.695839" lon="-8.638423">
        <ele>65.031</ele>
        <time>2019-05-01T08:06:11Z</time>
      </trkpt>
      <trkpt lat="42.696111" lon="-8.638847">
        <ele>66.419</ele>
        <time>2019-05-01T08:06:22Z</time>
      </trkpt>
      <trkpt lat="42.696421" lon="-8.639155">
        <ele>68.377</ele>
        <time>2019-05-01T08:06:34Z</time>
      </trkpt>
      <trkpt lat="42.696604" lon="-8.639331">
        <ele>69.849</ele>
        <time>2019-05-01T08:06:43Z</time>
      </trkpt>
      <trkpt lat="42.696609" lon="-8.639362">
        <ele>70.379</ele>
        <time>2019-05-01T08:06:44Z</time>
      </trkpt>
      <trkpt lat="42.696610" lon="-8.639399">
        <ele>70.383</ele>
        <time>2019-05-01T08:06:45Z</time>
      </trkpt>
      <trkpt lat="42.696611" lon="-8.639444">
        <ele>70.711</ele>
        <time>2019-05-01T08:06:46Z</time>
      </trkpt>
      <trkpt lat="42.696609" lon="-8.639503">
        <ele>70.721</ele>
        <time>2019-05-01T08:06:47Z</time>
      </trkpt>
      <trkpt lat="42.696602" lon="-8.639566">
        <ele>70.703</ele>
        <time>2019-05-01T08:06:48Z</time>
      </trkpt>
      <trkpt lat="42.696587" lon="-8.639628">
        <ele>70.708</ele>
        <time>2019-05-01T08:06:49Z</time>
      </trkpt>
      <trkpt lat="42.696567" lon="-8.639686">
        <ele>70.394</ele>
        <time>2019-05-01T08:06:50Z</time>
      </trkpt>
      <trkpt lat="42.696526" lon="-8.639809">
        <ele>69.857</ele>
        <time>2019-05-01T08:06:52Z</time>
      </trkpt>
      <trkpt lat="42.696515" lon="-8.639877">
        <ele>69.853</ele>
        <time>2019-05-01T08:06:53Z</time>
      </trkpt>
      <trkpt lat="42.696516" lon="-8.639951">
        <ele>69.881</ele>
        <time>2019-05-01T08:06:54Z</time>
      </trkpt>
      <trkpt lat="42.696529" lon="-8.640028">
        <ele>69.339</ele>
        <time>2019-05-01T08:06:55Z</time>
      </trkpt>
      <trkpt lat="42.696546" lon="-8.640109">
        <ele>68.821</ele>
        <time>2019-05-01T08:06:56Z</time>
      </trkpt>
      <trkpt lat="42.696587" lon="-8.640277">
        <ele>67.951</ele>
        <time>2019-05-01T08:06:58Z</time>
      </trkpt>
      <trkpt lat="42.696623" lon="-8.640356">
        <ele>67.485</ele>
        <time>2019-05-01T08:06:59Z</time>
      </trkpt>
      <trkpt lat="42.696665" lon="-8.640431">
        <ele>66.428</ele>
        <time>2019-05-01T08:07:00Z</time>
      </trkpt>
      <trkpt lat="42.696711" lon="-8.640500">
        <ele>65.989</ele>
        <time>2019-05-01T08:07:01Z</time>
      </trkpt>
      <trkpt lat="42.696761" lon="-8.640563">
        <ele>65.517</ele>
        <time>2019-05-01T08:07:02Z</time>
      </trkpt>
      <trkpt lat="42.696817" lon="-8.640618">
        <ele>65.008</ele>
        <time>2019-05-01T08:07:03Z</time>
      </trkpt>
      <trkpt lat="42.696882" lon="-8.640664">
        <ele>64.035</ele>
        <time>2019-05-01T08:07:04Z</time>
      </trkpt>
      <trkpt lat="42.696946" lon="-8.640704">
        <ele>63.558</ele>
        <time>2019-05-01T08:07:05Z</time>
      </trkpt>
      <trkpt lat="42.697009" lon="-8.640736">
        <ele>63.564</ele>
        <time>2019-05-01T08:07:06Z</time>
      </trkpt>
      <trkpt lat="42.697175" lon="-8.640815">
        <ele>63.172</ele>
        <time>2019-05-01T08:07:09Z</time>
      </trkpt>
      <trkpt lat="42.697614" lon="-8.640942">
        <ele>65.940</ele>
        <time>2019-05-01T08:07:22Z</time>
      </trkpt>
      <trkpt lat="42.697807" lon="-8.640947">
        <ele>67.472</ele>
        <time>2019-05-01T08:07:30Z</time>
      </trkpt>
      <trkpt lat="42.697943" lon="-8.640971">
        <ele>66.452</ele>
        <time>2019-05-01T08:07:35Z</time>
      </trkpt>
      <trkpt lat="42.697968" lon="-8.640965">
        <ele>66.486</ele>
        <time>2019-05-01T08:07:36Z</time>
      </trkpt>
      <trkpt lat="42.697999" lon="-8.640962">
        <ele>66.486</ele>
        <time>2019-05-01T08:07:37Z</time>
      </trkpt>
      <trkpt lat="42.698034" lon="-8.640960">
        <ele>66.460</ele>
        <time>2019-05-01T08:07:38Z</time>
      </trkpt>
      <trkpt lat="42.698063" lon="-8.640961">
        <ele>66.426</ele>
        <time>2019-05-01T08:07:39Z</time>
      </trkpt>
      <trkpt lat="42.698336" lon="-8.640999">
        <ele>62.108</ele>
        <time>2019-05-01T08:07:50Z</time>
      </trkpt>
      <trkpt lat="42.698610" lon="-8.640905">
        <ele>62.151</ele>
        <time>2019-05-01T08:08:00Z</time>
      </trkpt>
      <trkpt lat="42.698996" lon="-8.640658">
        <ele>62.654</ele>
        <time>2019-05-01T08:08:12Z</time>
      </trkpt>
      <trkpt lat="42.699336" lon="-8.640139">
        <ele>68.310</ele>
        <time>2019-05-01T08:08:25Z</time>
      </trkpt>
      <trkpt lat="42.699365" lon="-8.640106">
        <ele>68.838</ele>
        <time>2019-05-01T08:08:26Z</time>
      </trkpt>
      <trkpt lat="42.699399" lon="-8.640091">
        <ele>68.846</ele>
        <time>2019-05-01T08:08:27Z</time>
      </trkpt>
      <trkpt lat="42.699430" lon="-8.640091">
        <ele>68.818</ele>
        <time>2019-05-01T08:08:28Z</time>
      </trkpt>
      <trkpt lat="42.699462" lon="-8.640096">
        <ele>68.868</ele>
        <time>2019-05-01T08:08:29Z</time>
      </trkpt>
      <trkpt lat="42.699494" lon="-8.640105">
        <ele>69.392</ele>
        <time>2019-05-01T08:08:30Z</time>
      </trkpt>
      <trkpt lat="42.699524" lon="-8.640117">
        <ele>69.844</ele>
        <time>2019-05-01T08:08:31Z</time>
      </trkpt>
      <trkpt lat="42.699926" lon="-8.640235">
        <ele>72.205</ele>
        <time>2019-05-01T08:08:44Z</time>
      </trkpt>
      <trkpt lat="42.700290" lon="-8.640175">
        <ele>75.615</ele>
        <time>2019-05-01T08:08:57Z</time>
      </trkpt>
      <trkpt lat="42.700793" lon="-8.640106">
        <ele>74.108</ele>
        <time>2019-05-01T08:09:12Z</time>
      </trkpt>
      <trkpt lat="42.701008" lon="-8.640057">
        <ele>73.227</ele>
        <time>2019-05-01T08:09:17Z</time>
      </trkpt>
      <trkpt lat="42.701059" lon="-8.640064">
        <ele>72.750</ele>
        <time>2019-05-01T08:09:18Z</time>
      </trkpt>
      <trkpt lat="42.701110" lon="-8.640091">
        <ele>72.746</ele>
        <time>2019-05-01T08:09:19Z</time>
      </trkpt>
      <trkpt lat="42.701163" lon="-8.640129">
        <ele>71.784</ele>
        <time>2019-05-01T08:09:20Z</time>
      </trkpt>
      <trkpt lat="42.701219" lon="-8.640176">
        <ele>71.282</ele>
        <time>2019-05-01T08:09:21Z</time>
      </trkpt>
      <trkpt lat="42.701274" lon="-8.640229">
        <ele>70.764</ele>
        <time>2019-05-01T08:09:22Z</time>
      </trkpt>
      <trkpt lat="42.701327" lon="-8.640289">
        <ele>70.364</ele>
        <time>2019-05-01T08:09:23Z</time>
      </trkpt>
      <trkpt lat="42.701370" lon="-8.640361">
        <ele>69.888</ele>
        <time>2019-05-01T08:09:24Z</time>
      </trkpt>
      <trkpt lat="42.701391" lon="-8.640444">
        <ele>69.312</ele>
        <time>2019-05-01T08:09:25Z</time>
      </trkpt>
      <trkpt lat="42.701397" lon="-8.640525">
        <ele>68.832</ele>
        <time>2019-05-01T08:09:26Z</time>
      </trkpt>
      <trkpt lat="42.701405" lon="-8.640593">
        <ele>68.805</ele>
        <time>2019-05-01T08:09:27Z</time>
      </trkpt>
      <trkpt lat="42.701420" lon="-8.640651">
        <ele>68.808</ele>
        <time>2019-05-01T08:09:28Z</time>
      </trkpt>
      <trkpt lat="42.701444" lon="-8.640701">
        <ele>68.874</ele>
        <time>2019-05-01T08:09:29Z</time>
      </trkpt>
      <trkpt lat="42.701469" lon="-8.640748">
        <ele>68.367</ele>
        <time>2019-05-01T08:09:30Z</time>
      </trkpt>
      <trkpt lat="42.701499" lon="-8.640785">
        <ele>68.383</ele>
        <time>2019-05-01T08:09:31Z</time>
      </trkpt>
      <trkpt lat="42.701531" lon="-8.640816">
        <ele>67.961</ele>
        <time>2019-05-01T08:09:32Z</time>
      </trkpt>
      <trkpt lat="42.701650" lon="-8.641003">
        <ele>68.349</ele>
        <time>2019-05-01T08:09:37Z</time>
      </trkpt>
      <trkpt lat="42.701662" lon="-8.641055">
        <ele>68.341</ele>
        <time>2019-05-01T08:09:38Z</time>
      </trkpt>
      <trkpt lat="42.701665" lon="-8.641105">
        <ele>68.891</ele>
        <time>2019-05-01T08:09:39Z</time>
      </trkpt>
      <trkpt lat="42.701662" lon="-8.641154">
        <ele>68.875</ele>
        <time>2019-05-01T08:09:40Z</time>
      </trkpt>
      <trkpt lat="42.701654" lon="-8.641203">
        <ele>69.328</ele>
        <time>2019-05-01T08:09:41Z</time>
      </trkpt>
      <trkpt lat="42.701537" lon="-8.641744">
        <ele>71.289</ele>
        <time>2019-05-01T08:09:53Z</time>
      </trkpt>
      <trkpt lat="42.701578" lon="-8.642107">
        <ele>71.217</ele>
        <time>2019-05-01T08:10:02Z</time>
      </trkpt>
      <trkpt lat="42.701941" lon="-8.642271">
        <ele>75.608</ele>
        <time>2019-05-01T08:10:16Z</time>
      </trkpt>
      <trkpt lat="42.701979" lon="-8.642274">
        <ele>76.555</ele>
        <time>2019-05-01T08:10:18Z</time>
      </trkpt>
      <trkpt lat="42.701991" lon="-8.642272">
        <ele>76.558</ele>
        <time>2019-05-01T08:10:19Z</time>
      </trkpt>
      <trkpt lat="42.702022" lon="-8.642271">
        <ele>77.524</ele>
        <time>2019-05-01T08:10:21Z</time>
      </trkpt>
      <trkpt lat="42.702044" lon="-8.642266">
        <ele>78.032</ele>
        <time>2019-05-01T08:10:22Z</time>
      </trkpt>
      <trkpt lat="42.702067" lon="-8.642262">
        <ele>78.060</ele>
        <time>2019-05-01T08:10:23Z</time>
      </trkpt>
      <trkpt lat="42.702091" lon="-8.642253">
        <ele>78.072</ele>
        <time>2019-05-01T08:10:24Z</time>
      </trkpt>
      <trkpt lat="42.702116" lon="-8.642243">
        <ele>78.092</ele>
        <time>2019-05-01T08:10:25Z</time>
      </trkpt>
      <trkpt lat="42.702525" lon="-8.642114">
        <ele>77.576</ele>
        <time>2019-05-01T08:10:39Z</time>
      </trkpt>
      <trkpt lat="42.703054" lon="-8.642164">
        <ele>77.073</ele>
        <time>2019-05-01T08:10:53Z</time>
      </trkpt>
      <trkpt lat="42.703828" lon="-8.642258">
        <ele>76.585</ele>
        <time>2019-05-01T08:11:11Z</time>
      </trkpt>
      <trkpt lat="42.703861" lon="-8.642272">
        <ele>76.513</ele>
        <time>2019-05-01T08:11:12Z</time>
      </trkpt>
      <trkpt lat="42.703896" lon="-8.642288">
        <ele>76.508</ele>
        <time>2019-05-01T08:11:13Z</time>
      </trkpt>
      <trkpt lat="42.703929" lon="-8.642294">
        <ele>76.010</ele>
        <time>2019-05-01T08:11:14Z</time>
      </trkpt>
      <trkpt lat="42.703963" lon="-8.642300">
        <ele>76.083</ele>
        <time>2019-05-01T08:11:15Z</time>
      </trkpt>
      <trkpt lat="42.703997" lon="-8.642305">
        <ele>76.039</ele>
        <time>2019-05-01T08:11:16Z</time>
      </trkpt>
      <trkpt lat="42.704229" lon="-8.642359">
        <ele>74.167</ele>
        <time>2019-05-01T08:11:25Z</time>
      </trkpt>
      <trkpt lat="42.704492" lon="-8.642402">
        <ele>71.745</ele>
        <time>2019-05-01T08:11:34Z</time>
      </trkpt>
      <trkpt lat="42.704630" lon="-8.642433">
        <ele>70.737</ele>
        <time>2019-05-01T08:11:37Z</time>
      </trkpt>
      <trkpt lat="42.704824" lon="-8.642412">
        <ele>69.377</ele>
        <time>2019-05-01T08:11:40Z</time>
      </trkpt>
      <trkpt lat="42.705389" lon="-8.642440">
        <ele>65.531</ele>
        <time>2019-05-01T08:11:47Z</time>
      </trkpt>
      <trkpt lat="42.705623" lon="-8.642591">
        <ele>63.546</ele>
        <time>2019-05-01T08:11:51Z</time>
      </trkpt>
      <trkpt lat="42.705917" lon="-8.643068">
        <ele>62.188</ele>
        <time>2019-05-01T08:11:58Z</time>
      </trkpt>
      <trkpt lat="42.705947" lon="-8.643837">
        <ele>61.116</ele>
        <time>2019-05-01T08:12:06Z</time>
      </trkpt>
      <trkpt lat="42.705974" lon="-8.644026">
        <ele>61.108</ele>
        <time>2019-05-01T08:12:08Z</time>
      </trkpt>
      <trkpt lat="42.706070" lon="-8.644369">
        <ele>61.627</ele>
        <time>2019-05-01T08:12:11Z</time>
      </trkpt>
      <trkpt lat="42.706399" lon="-8.644751">
        <ele>60.780</ele>
        <time>2019-05-01T08:12:17Z</time>
      </trkpt>
      <trkpt lat="42.706436" lon="-8.645049">
        <ele>59.716</ele>
        <time>2019-05-01T08:12:23Z</time>
      </trkpt>
      <trkpt lat="42.706440" lon="-8.645416">
        <ele>57.364</ele>
        <time>2019-05-01T08:12:30Z</time>
      </trkpt>
      <trkpt lat="42.706459" lon="-8.645577">
        <ele>56.312</ele>
        <time>2019-05-01T08:12:32Z</time>
      </trkpt>
      <trkpt lat="42.706518" lon="-8.645859">
        <ele>53.954</ele>
        <time>2019-05-01T08:12:35Z</time>
      </trkpt>
      <trkpt lat="42.706611" lon="-8.646172">
        <ele>51.554</ele>
        <time>2019-05-01T08:12:38Z</time>
      </trkpt>
      <trkpt lat="42.706727" lon="-8.646651">
        <ele>48.228</ele>
        <time>2019-05-01T08:12:43Z</time>
      </trkpt>
      <trkpt lat="42.706740" lon="-8.647411">
        <ele>44.374</ele>
        <time>2019-05-01T08:12:51Z</time>
      </trkpt>
      <trkpt lat="42.706762" lon="-8.647440">
        <ele>43.856</ele>
        <time>2019-05-01T08:12:52Z</time>
      </trkpt>
      <trkpt lat="42.706788" lon="-8.647459">
        <ele>43.421</ele>
        <time>2019-05-01T08:12:53Z</time>
      </trkpt>
      <trkpt lat="42.706819" lon="-8.647466">
        <ele>42.908</ele>
        <time>2019-05-01T08:12:54Z</time>
      </trkpt>
      <trkpt lat="42.706851" lon="-8.647469">
        <ele>42.450</ele>
        <time>2019-05-01T08:12:55Z</time>
      </trkpt>
      <trkpt lat="42.706883" lon="-8.647468">
        <ele>41.993</ele>
        <time>2019-05-01T08:12:56Z</time>
      </trkpt>
      <trkpt lat="42.707307" lon="-8.647495">
        <ele>38.599</ele>
        <time>2019-05-01T08:13:09Z</time>
      </trkpt>
      <trkpt lat="42.707375" lon="-8.647562">
        <ele>37.187</ele>
        <time>2019-05-01T08:13:12Z</time>
      </trkpt>
      <trkpt lat="42.707406" lon="-8.647560">
        <ele>36.655</ele>
        <time>2019-05-01T08:13:13Z</time>
      </trkpt>
      <trkpt lat="42.707438" lon="-8.647552">
        <ele>36.697</ele>
        <time>2019-05-01T08:13:14Z</time>
      </trkpt>
      <trkpt lat="42.707473" lon="-8.647542">
        <ele>36.667</ele>
        <time>2019-05-01T08:13:15Z</time>
      </trkpt>
      <trkpt lat="42.707509" lon="-8.647534">
        <ele>36.691</ele>
        <time>2019-05-01T08:13:16Z</time>
      </trkpt>
      <trkpt lat="42.708089" lon="-8.647391">
        <ele>35.266</ele>
        <time>2019-05-01T08:13:32Z</time>
      </trkpt>
      <trkpt lat="42.708668" lon="-8.647241">
        <ele>34.229</ele>
        <time>2019-05-01T08:13:47Z</time>
      </trkpt>
      <trkpt lat="42.709088" lon="-8.647129">
        <ele>34.221</ele>
        <time>2019-05-01T08:13:59Z</time>
      </trkpt>
      <trkpt lat="42.709501" lon="-8.647237">
        <ele>36.608</ele>
        <time>2019-05-01T08:14:12Z</time>
      </trkpt>
      <trkpt lat="42.709809" lon="-8.647276">
        <ele>35.269</ele>
        <time>2019-05-01T08:14:20Z</time>
      </trkpt>
      <trkpt lat="42.710383" lon="-8.647263">
        <ele>33.712</ele>
        <time>2019-05-01T08:14:34Z</time>
      </trkpt>
      <trkpt lat="42.710425" lon="-8.647258">
        <ele>34.228</ele>
        <time>2019-05-01T08:14:35Z</time>
      </trkpt>
      <trkpt lat="42.710980" lon="-8.647164">
        <ele>35.226</ele>
        <time>2019-05-01T08:14:49Z</time>
      </trkpt>
      <trkpt lat="42.711344" lon="-8.647108">
        <ele>36.134</ele>
        <time>2019-05-01T08:15:00Z</time>
      </trkpt>
      <trkpt lat="42.711574" lon="-8.647082">
        <ele>36.186</ele>
        <time>2019-05-01T08:15:10Z</time>
      </trkpt>
      <trkpt lat="42.711809" lon="-8.647068">
        <ele>36.176</ele>
        <time>2019-05-01T08:15:20Z</time>
      </trkpt>
      <trkpt lat="42.712282" lon="-8.647157">
        <ele>35.280</ele>
        <time>2019-05-01T08:15:34Z</time>
      </trkpt>
      <trkpt lat="42.712852" lon="-8.647254">
        <ele>33.753</ele>
        <time>2019-05-01T08:15:49Z</time>
      </trkpt>
      <trkpt lat="42.713540" lon="-8.647512">
        <ele>31.804</ele>
        <time>2019-05-01T08:16:06Z</time>
      </trkpt>
      <trkpt lat="42.713660" lon="-8.647580">
        <ele>31.814</ele>
        <time>2019-05-01T08:16:09Z</time>
      </trkpt>
      <trkpt lat="42.713698" lon="-8.647603">
        <ele>31.808</ele>
        <time>2019-05-01T08:16:10Z</time>
      </trkpt>
      <trkpt lat="42.713933" lon="-8.647726">
        <ele>31.348</ele>
        <time>2019-05-01T08:16:16Z</time>
      </trkpt>
      <trkpt lat="42.713976" lon="-8.647745">
        <ele>31.361</ele>
        <time>2019-05-01T08:16:17Z</time>
      </trkpt>
      <trkpt lat="42.714659" lon="-8.648079">
        <ele>32.337</ele>
        <time>2019-05-01T08:16:34Z</time>
      </trkpt>
      <trkpt lat="42.714699" lon="-8.648093">
        <ele>32.325</ele>
        <time>2019-05-01T08:16:35Z</time>
      </trkpt>
      <trkpt lat="42.715382" lon="-8.648292">
        <ele>32.893</ele>
        <time>2019-05-01T08:16:51Z</time>
      </trkpt>
      <trkpt lat="42.716159" lon="-8.648448">
        <ele>34.795</ele>
        <time>2019-05-01T08:17:08Z</time>
      </trkpt>
      <trkpt lat="42.717022" lon="-8.648674">
        <ele>34.725</ele>
        <time>2019-05-01T08:17:28Z</time>
      </trkpt>
      <trkpt lat="42.717064" lon="-8.648672">
        <ele>34.749</ele>
        <time>2019-05-01T08:17:29Z</time>
      </trkpt>
      <trkpt lat="42.717736" lon="-8.648570">
        <ele>34.297</ele>
        <time>2019-05-01T08:17:44Z</time>
      </trkpt>
      <trkpt lat="42.717785" lon="-8.648577">
        <ele>34.223</ele>
        <time>2019-05-01T08:17:45Z</time>
      </trkpt>
      <trkpt lat="42.717865" lon="-8.648610">
        <ele>34.725</ele>
        <time>2019-05-01T08:17:47Z</time>
      </trkpt>
      <trkpt lat="42.717941" lon="-8.648656">
        <ele>34.708</ele>
        <time>2019-05-01T08:17:49Z</time>
      </trkpt>
      <trkpt lat="42.718097" lon="-8.648757">
        <ele>35.232</ele>
        <time>2019-05-01T08:17:53Z</time>
      </trkpt>
      <trkpt lat="42.718449" lon="-8.648989">
        <ele>34.245</ele>
        <time>2019-05-01T08:18:05Z</time>
      </trkpt>
      <trkpt lat="42.718525" lon="-8.649169">
        <ele>31.871</ele>
        <time>2019-05-01T08:18:09Z</time>
      </trkpt>
      <trkpt lat="42.718617" lon="-8.649297">
        <ele>30.429</ele>
        <time>2019-05-01T08:18:13Z</time>
      </trkpt>
      <trkpt lat="42.718761" lon="-8.649281">
        <ele>30.457</ele>
        <time>2019-05-01T08:18:17Z</time>
      </trkpt>
      <trkpt lat="42.718796" lon="-8.649288">
        <ele>30.469</ele>
        <time>2019-05-01T08:18:18Z</time>
      </trkpt>
      <trkpt lat="42.718840" lon="-8.649281">
        <ele>30.449</ele>
        <time>2019-05-01T08:18:19Z</time>
      </trkpt>
      <trkpt lat="42.718864" lon="-8.649272">
        <ele>30.973</ele>
        <time>2019-05-01T08:18:20Z</time>
      </trkpt>
      <trkpt lat="42.718885" lon="-8.649263">
        <ele>30.943</ele>
        <time>2019-05-01T08:18:21Z</time>
      </trkpt>
      <trkpt lat="42.719187" lon="-8.649135">
        <ele>30.964</ele>
        <time>2019-05-01T08:18:31Z</time>
      </trkpt>
      <trkpt lat="42.719541" lon="-8.648967">
        <ele>34.210</ele>
        <time>2019-05-01T08:18:43Z</time>
      </trkpt>
      <trkpt lat="42.719566" lon="-8.648964">
        <ele>34.208</ele>
        <time>2019-05-01T08:18:44Z</time>
      </trkpt>
      <trkpt lat="42.719696" lon="-8.649002">
        <ele>34.297</ele>
        <time>2019-05-01T08:18:55Z</time>
      </trkpt>
      <trkpt lat="42.719706" lon="-8.649020">
        <ele>34.210</ele>
        <time>2019-05-01T08:18:56Z</time>
      </trkpt>
      <trkpt lat="42.719714" lon="-8.649034">
        <ele>33.336</ele>
        <time>2019-05-01T08:18:57Z</time>
      </trkpt>
      <trkpt lat="42.719715" lon="-8.649057">
        <ele>33.374</ele>
        <time>2019-05-01T08:18:58Z</time>
      </trkpt>
      <trkpt lat="42.719712" lon="-8.649087">
        <ele>32.842</ele>
        <time>2019-05-01T08:18:59Z</time>
      </trkpt>
      <trkpt lat="42.719704" lon="-8.649120">
        <ele>32.834</ele>
        <time>2019-05-01T08:19:00Z</time>
      </trkpt>
      <trkpt lat="42.719692" lon="-8.649158">
        <ele>32.364</ele>
        <time>2019-05-01T08:19:01Z</time>
      </trkpt>
      <trkpt lat="42.719480" lon="-8.649908">
        <ele>27.528</ele>
        <time>2019-05-01T08:19:13Z</time>
      </trkpt>
      <trkpt lat="42.719447" lon="-8.650294">
        <ele>25.674</ele>
        <time>2019-05-01T08:19:18Z</time>
      </trkpt>
      <trkpt lat="42.719464" lon="-8.650362">
        <ele>25.156</ele>
        <time>2019-05-01T08:19:19Z</time>
      </trkpt>
      <trkpt lat="42.719494" lon="-8.650418">
        <ele>24.621</ele>
        <time>2019-05-01T08:19:20Z</time>
      </trkpt>
      <trkpt lat="42.719534" lon="-8.650454">
        <ele>24.608</ele>
        <time>2019-05-01T08:19:21Z</time>
      </trkpt>
      <trkpt lat="42.719582" lon="-8.650469">
        <ele>24.130</ele>
        <time>2019-05-01T08:19:22Z</time>
      </trkpt>
      <trkpt lat="42.719627" lon="-8.650472">
        <ele>24.133</ele>
        <time>2019-05-01T08:19:23Z</time>
      </trkpt>
      <trkpt lat="42.719664" lon="-8.650472">
        <ele>24.199</ele>
        <time>2019-05-01T08:19:24Z</time>
      </trkpt>
      <trkpt lat="42.719993" lon="-8.650505">
        <ele>26.097</ele>
        <time>2019-05-01T08:19:35Z</time>
      </trkpt>
      <trkpt lat="42.720411" lon="-8.650596">
        <ele>28.925</ele>
        <time>2019-05-01T08:19:51Z</time>
      </trkpt>
      <trkpt lat="42.720705" lon="-8.650616">
        <ele>33.387</ele>
        <time>2019-05-01T08:20:04Z</time>
      </trkpt>
      <trkpt lat="42.720867" lon="-8.650591">
        <ele>33.367</ele>
        <time>2019-05-01T08:20:15Z</time>
      </trkpt>
      <trkpt lat="42.721112" lon="-8.650523">
        <ele>36.661</ele>
        <time>2019-05-01T08:20:28Z</time>
      </trkpt>
      <trkpt lat="42.721443" lon="-8.650484">
        <ele>40.064</ele>
        <time>2019-05-01T08:20:43Z</time>
      </trkpt>
      <trkpt lat="42.721750" lon="-8.650431">
        <ele>44.806</ele>
        <time>2019-05-01T08:20:58Z</time>
      </trkpt>
      <trkpt lat="42.721910" lon="-8.650097">
        <ele>42.916</ele>
        <time>2019-05-01T08:21:10Z</time>
      </trkpt>
      <trkpt lat="42.722021" lon="-8.649780">
        <ele>44.808</ele>
        <time>2019-05-01T08:21:24Z</time>
      </trkpt>
      <trkpt lat="42.722336" lon="-8.649895">
        <ele>43.869</ele>
        <time>2019-05-01T08:21:36Z</time>
      </trkpt>
      <trkpt lat="42.722712" lon="-8.650139">
        <ele>42.962</ele>
        <time>2019-05-01T08:21:47Z</time>
      </trkpt>
      <trkpt lat="42.723011" lon="-8.650241">
        <ele>41.468</ele>
        <time>2019-05-01T08:21:53Z</time>
      </trkpt>
      <trkpt lat="42.723071" lon="-8.650276">
        <ele>40.936</ele>
        <time>2019-05-01T08:21:54Z</time>
      </trkpt>
      <trkpt lat="42.723129" lon="-8.650318">
        <ele>40.584</ele>
        <time>2019-05-01T08:21:55Z</time>
      </trkpt>
      <trkpt lat="42.723185" lon="-8.650368">
        <ele>40.046</ele>
        <time>2019-05-01T08:21:56Z</time>
      </trkpt>
      <trkpt lat="42.723238" lon="-8.650421">
        <ele>39.556</ele>
        <time>2019-05-01T08:21:57Z</time>
      </trkpt>
      <trkpt lat="42.723342" lon="-8.650518">
        <ele>38.510</ele>
        <time>2019-05-01T08:21:59Z</time>
      </trkpt>
      <trkpt lat="42.723393" lon="-8.650542">
        <ele>38.145</ele>
        <time>2019-05-01T08:22:00Z</time>
      </trkpt>
      <trkpt lat="42.723444" lon="-8.650555">
        <ele>37.647</ele>
        <time>2019-05-01T08:22:01Z</time>
      </trkpt>
      <trkpt lat="42.723494" lon="-8.650564">
        <ele>37.611</ele>
        <time>2019-05-01T08:22:02Z</time>
      </trkpt>
      <trkpt lat="42.723548" lon="-8.650574">
        <ele>37.108</ele>
        <time>2019-05-01T08:22:03Z</time>
      </trkpt>
      <trkpt lat="42.723605" lon="-8.650592">
        <ele>37.117</ele>
        <time>2019-05-01T08:22:04Z</time>
      </trkpt>
      <trkpt lat="42.723666" lon="-8.650608">
        <ele>36.120</ele>
        <time>2019-05-01T08:22:05Z</time>
      </trkpt>
      <trkpt lat="42.723727" lon="-8.650613">
        <ele>35.746</ele>
        <time>2019-05-01T08:22:06Z</time>
      </trkpt>
      <trkpt lat="42.723786" lon="-8.650604">
        <ele>34.784</ele>
        <time>2019-05-01T08:22:07Z</time>
      </trkpt>
      <trkpt lat="42.723841" lon="-8.650582">
        <ele>34.282</ele>
        <time>2019-05-01T08:22:08Z</time>
      </trkpt>
      <trkpt lat="42.723893" lon="-8.650555">
        <ele>33.314</ele>
        <time>2019-05-01T08:22:09Z</time>
      </trkpt>
      <trkpt lat="42.723950" lon="-8.650550">
        <ele>32.854</ele>
        <time>2019-05-01T08:22:10Z</time>
      </trkpt>
      <trkpt lat="42.724011" lon="-8.650571">
        <ele>31.868</ele>
        <time>2019-05-01T08:22:11Z</time>
      </trkpt>
      <trkpt lat="42.724078" lon="-8.650593">
        <ele>31.384</ele>
        <time>2019-05-01T08:22:12Z</time>
      </trkpt>
      <trkpt lat="42.724145" lon="-8.650594">
        <ele>31.307</ele>
        <time>2019-05-01T08:22:13Z</time>
      </trkpt>
      <trkpt lat="42.724204" lon="-8.650582">
        <ele>31.317</ele>
        <time>2019-05-01T08:22:14Z</time>
      </trkpt>
      <trkpt lat="42.724253" lon="-8.650569">
        <ele>31.308</ele>
        <time>2019-05-01T08:22:15Z</time>
      </trkpt>
      <trkpt lat="42.724430" lon="-8.650532">
        <ele>29.921</ele>
        <time>2019-05-01T08:22:20Z</time>
      </trkpt>
      <trkpt lat="42.724469" lon="-8.650512">
        <ele>29.914</ele>
        <time>2019-05-01T08:22:21Z</time>
      </trkpt>
      <trkpt lat="42.724507" lon="-8.650504">
        <ele>29.980</ele>
        <time>2019-05-01T08:22:22Z</time>
      </trkpt>
      <trkpt lat="42.724939" lon="-8.650455">
        <ele>28.598</ele>
        <time>2019-05-01T08:22:31Z</time>
      </trkpt>
      <trkpt lat="42.724999" lon="-8.650473">
        <ele>28.576</ele>
        <time>2019-05-01T08:22:32Z</time>
      </trkpt>
      <trkpt lat="42.725106" lon="-8.650496">
        <ele>27.598</ele>
        <time>2019-05-01T08:22:34Z</time>
      </trkpt>
      <trkpt lat="42.725156" lon="-8.650487">
        <ele>27.598</ele>
        <time>2019-05-01T08:22:35Z</time>
      </trkpt>
      <trkpt lat="42.725258" lon="-8.650468">
        <ele>27.072</ele>
        <time>2019-05-01T08:22:37Z</time>
      </trkpt>
      <trkpt lat="42.725306" lon="-8.650481">
        <ele>26.572</ele>
        <time>2019-05-01T08:22:38Z</time>
      </trkpt>
      <trkpt lat="42.725346" lon="-8.650513">
        <ele>26.013</ele>
        <time>2019-05-01T08:22:39Z</time>
      </trkpt>
      <trkpt lat="42.725378" lon="-8.650549">
        <ele>25.614</ele>
        <time>2019-05-01T08:22:40Z</time>
      </trkpt>
      <trkpt lat="42.725404" lon="-8.650575">
        <ele>25.108</ele>
        <time>2019-05-01T08:22:41Z</time>
      </trkpt>
      <trkpt lat="42.725437" lon="-8.650588">
        <ele>25.140</ele>
        <time>2019-05-01T08:22:42Z</time>
      </trkpt>
      <trkpt lat="42.725475" lon="-8.650592">
        <ele>24.613</ele>
        <time>2019-05-01T08:22:43Z</time>
      </trkpt>
      <trkpt lat="42.725521" lon="-8.650591">
        <ele>24.119</ele>
        <time>2019-05-01T08:22:44Z</time>
      </trkpt>
      <trkpt lat="42.725717" lon="-8.650586">
        <ele>23.687</ele>
        <time>2019-05-01T08:22:48Z</time>
      </trkpt>
      <trkpt lat="42.725749" lon="-8.650614">
        <ele>23.285</ele>
        <time>2019-05-01T08:22:49Z</time>
      </trkpt>
      <trkpt lat="42.725768" lon="-8.650653">
        <ele>22.717</ele>
        <time>2019-05-01T08:22:50Z</time>
      </trkpt>
      <trkpt lat="42.725788" lon="-8.650683">
        <ele>22.297</ele>
        <time>2019-05-01T08:22:51Z</time>
      </trkpt>
      <trkpt lat="42.725814" lon="-8.650704">
        <ele>21.741</ele>
        <time>2019-05-01T08:22:52Z</time>
      </trkpt>
      <trkpt lat="42.725845" lon="-8.650722">
        <ele>21.216</ele>
        <time>2019-05-01T08:22:53Z</time>
      </trkpt>
      <trkpt lat="42.725880" lon="-8.650743">
        <ele>20.876</ele>
        <time>2019-05-01T08:22:54Z</time>
      </trkpt>
      <trkpt lat="42.726083" lon="-8.650869">
        <ele>18.813</ele>
        <time>2019-05-01T08:22:59Z</time>
      </trkpt>
      <trkpt lat="42.726096" lon="-8.650897">
        <ele>18.808</ele>
        <time>2019-05-01T08:23:00Z</time>
      </trkpt>
      <trkpt lat="42.726095" lon="-8.650929">
        <ele>18.414</ele>
        <time>2019-05-01T08:23:01Z</time>
      </trkpt>
      <trkpt lat="42.726087" lon="-8.650966">
        <ele>17.497</ele>
        <time>2019-05-01T08:23:02Z</time>
      </trkpt>
      <trkpt lat="42.726079" lon="-8.651000">
        <ele>16.963</ele>
        <time>2019-05-01T08:23:03Z</time>
      </trkpt>
      <trkpt lat="42.726067" lon="-8.651034">
        <ele>16.481</ele>
        <time>2019-05-01T08:23:04Z</time>
      </trkpt>
      <trkpt lat="42.726056" lon="-8.651065">
        <ele>16.069</ele>
        <time>2019-05-01T08:23:05Z</time>
      </trkpt>
      <trkpt lat="42.725939" lon="-8.651459">
        <ele>14.591</ele>
        <time>2019-05-01T08:23:17Z</time>
      </trkpt>
      <trkpt lat="42.725851" lon="-8.651741">
        <ele>13.681</ele>
        <time>2019-05-01T08:23:23Z</time>
      </trkpt>
      <trkpt lat="42.725845" lon="-8.651803">
        <ele>13.145</ele>
        <time>2019-05-01T08:23:24Z</time>
      </trkpt>
      <trkpt lat="42.725731" lon="-8.652353">
        <ele>11.155</ele>
        <time>2019-05-01T08:23:35Z</time>
      </trkpt>
      <trkpt lat="42.725707" lon="-8.652371">
        <ele>10.707</ele>
        <time>2019-05-01T08:23:36Z</time>
      </trkpt>
      <trkpt lat="42.725671" lon="-8.652382">
        <ele>10.217</ele>
        <time>2019-05-01T08:23:37Z</time>
      </trkpt>
      <trkpt lat="42.725632" lon="-8.652399">
        <ele>10.208</ele>
        <time>2019-05-01T08:23:38Z</time>
      </trkpt>
      <trkpt lat="42.725471" lon="-8.652462">
        <ele>9.768</ele>
        <time>2019-05-01T08:23:42Z</time>
      </trkpt>
      <trkpt lat="42.725459" lon="-8.652485">
        <ele>9.731</ele>
        <time>2019-05-01T08:23:43Z</time>
      </trkpt>
      <trkpt lat="42.725468" lon="-8.652729">
        <ele>8.797</ele>
        <time>2019-05-01T08:23:48Z</time>
      </trkpt>
      <trkpt lat="42.725483" lon="-8.652796">
        <ele>8.795</ele>
        <time>2019-05-01T08:23:49Z</time>
      </trkpt>
      <trkpt lat="42.725575" lon="-8.653103">
        <ele>11.183</ele>
        <time>2019-05-01T08:23:57Z</time>
      </trkpt>
      <trkpt lat="42.725593" lon="-8.653440">
        <ele>10.715</ele>
        <time>2019-05-01T08:24:11Z</time>
      </trkpt>
      <trkpt lat="42.725587" lon="-8.653451">
        <ele>11.115</ele>
        <time>2019-05-01T08:24:34Z</time>
      </trkpt>
      <trkpt lat="42.725576" lon="-8.653531">
        <ele>10.789</ele>
        <time>2019-05-01T08:24:53Z</time>
      </trkpt>
      <trkpt lat="42.725579" lon="-8.653598">
        <ele>10.727</ele>
        <time>2019-05-01T08:24:56Z</time>
      </trkpt>
      <trkpt lat="42.725596" lon="-8.653609">
        <ele>10.268</ele>
        <time>2019-05-01T08:25:07Z</time>
      </trkpt>
      <trkpt lat="42.725599" lon="-8.653602">
        <ele>10.214</ele>
        <time>2019-05-01T08:25:19Z</time>
      </trkpt>
      <trkpt lat="42.725613" lon="-8.653615">
        <ele>10.208</ele>
        <time>2019-05-01T08:25:20Z</time>
      </trkpt>
      <trkpt lat="42.725626" lon="-8.653634">
        <ele>10.235</ele>
        <time>2019-05-01T08:25:21Z</time>
      </trkpt>
      <trkpt lat="42.725637" lon="-8.653663">
        <ele>10.278</ele>
        <time>2019-05-01T08:25:22Z</time>
      </trkpt>
      <trkpt lat="42.725640" lon="-8.653701">
        <ele>10.284</ele>
        <time>2019-05-01T08:25:23Z</time>
      </trkpt>
      <trkpt lat="42.725639" lon="-8.653744">
        <ele>10.292</ele>
        <time>2019-05-01T08:25:24Z</time>
      </trkpt>
      <trkpt lat="42.725554" lon="-8.654688">
        <ele>11.190</ele>
        <time>2019-05-01T08:25:42Z</time>
      </trkpt>
      <trkpt lat="42.725490" lon="-8.655505">
        <ele>10.792</ele>
        <time>2019-05-01T08:25:56Z</time>
      </trkpt>
      <trkpt lat="42.725495" lon="-8.655565">
        <ele>11.162</ele>
        <time>2019-05-01T08:25:57Z</time>
      </trkpt>
      <trkpt lat="42.725506" lon="-8.655624">
        <ele>11.126</ele>
        <time>2019-05-01T08:25:58Z</time>
      </trkpt>
      <trkpt lat="42.725524" lon="-8.655678">
        <ele>11.191</ele>
        <time>2019-05-01T08:25:59Z</time>
      </trkpt>
      <trkpt lat="42.725550" lon="-8.655727">
        <ele>11.181</ele>
        <time>2019-05-01T08:26:00Z</time>
      </trkpt>
      <trkpt lat="42.725580" lon="-8.655770">
        <ele>11.119</ele>
        <time>2019-05-01T08:26:01Z</time>
      </trkpt>
      <trkpt lat="42.725614" lon="-8.655809">
        <ele>11.108</ele>
        <time>2019-05-01T08:26:02Z</time>
      </trkpt>
      <trkpt lat="42.725654" lon="-8.655840">
        <ele>11.682</ele>
        <time>2019-05-01T08:26:03Z</time>
      </trkpt>
      <trkpt lat="42.725694" lon="-8.655863">
        <ele>11.675</ele>
        <time>2019-05-01T08:26:04Z</time>
      </trkpt>
      <trkpt lat="42.725734" lon="-8.655881">
        <ele>11.131</ele>
        <time>2019-05-01T08:26:05Z</time>
      </trkpt>
      <trkpt lat="42.725776" lon="-8.655898">
        <ele>11.179</ele>
        <time>2019-05-01T08:26:06Z</time>
      </trkpt>
      <trkpt lat="42.726170" lon="-8.656048">
        <ele>11.687</ele>
        <time>2019-05-01T08:26:20Z</time>
      </trkpt>
      <trkpt lat="42.726186" lon="-8.656052">
        <ele>11.659</ele>
        <time>2019-05-01T08:26:37Z</time>
      </trkpt>
      <trkpt lat="42.726204" lon="-8.656041">
        <ele>11.139</ele>
        <time>2019-05-01T08:26:41Z</time>
      </trkpt>
      <trkpt lat="42.726221" lon="-8.656023">
        <ele>10.773</ele>
        <time>2019-05-01T08:26:42Z</time>
      </trkpt>
      <trkpt lat="42.726240" lon="-8.655994">
        <ele>10.788</ele>
        <time>2019-05-01T08:26:43Z</time>
      </trkpt>
      <trkpt lat="42.726260" lon="-8.655960">
        <ele>10.224</ele>
        <time>2019-05-01T08:26:44Z</time>
      </trkpt>
      <trkpt lat="42.726280" lon="-8.655925">
        <ele>9.726</ele>
        <time>2019-05-01T08:26:45Z</time>
      </trkpt>
      <trkpt lat="42.726318" lon="-8.655850">
        <ele>9.208</ele>
        <time>2019-05-01T08:26:47Z</time>
      </trkpt>
      <trkpt lat="42.726319" lon="-8.655815">
        <ele>8.731</ele>
        <time>2019-05-01T08:26:48Z</time>
      </trkpt>
      <trkpt lat="42.726301" lon="-8.655801">
        <ele>8.394</ele>
        <time>2019-05-01T08:26:49Z</time>
      </trkpt>
      <trkpt lat="42.726278" lon="-8.655811">
        <ele>7.860</ele>
        <time>2019-05-01T08:26:50Z</time>
      </trkpt>
      <trkpt lat="42.726256" lon="-8.655827">
        <ele>7.838</ele>
        <time>2019-05-01T08:26:51Z</time>
      </trkpt>
      <trkpt lat="42.726234" lon="-8.655845">
        <ele>7.876</ele>
        <time>2019-05-01T08:26:52Z</time>
      </trkpt>
      <trkpt lat="42.726212" lon="-8.655866">
        <ele>7.898</ele>
        <time>2019-05-01T08:26:53Z</time>
      </trkpt>
      <trkpt lat="42.726054" lon="-8.656190">
        <ele>8.748</ele>
        <time>2019-05-01T08:27:05Z</time>
      </trkpt>
      <trkpt lat="42.726029" lon="-8.656203">
        <ele>8.782</ele>
        <time>2019-05-01T08:27:06Z</time>
      </trkpt>
      <trkpt lat="42.726006" lon="-8.656210">
        <ele>8.794</ele>
        <time>2019-05-01T08:27:07Z</time>
      </trkpt>
      <trkpt lat="42.725858" lon="-8.656205">
        <ele>10.757</ele>
        <time>2019-05-01T08:27:14Z</time>
      </trkpt>
      <trkpt lat="42.725837" lon="-8.656195">
        <ele>10.722</ele>
        <time>2019-05-01T08:27:15Z</time>
      </trkpt>
      <trkpt lat="42.725816" lon="-8.656181">
        <ele>11.108</ele>
        <time>2019-05-01T08:27:16Z</time>
      </trkpt>
      <trkpt lat="42.725799" lon="-8.656169">
        <ele>11.642</ele>
        <time>2019-05-01T08:27:17Z</time>
      </trkpt>
      <trkpt lat="42.725781" lon="-8.656157">
        <ele>11.655</ele>
        <time>2019-05-01T08:27:18Z</time>
      </trkpt>
      <trkpt lat="42.725761" lon="-8.656148">
        <ele>11.611</ele>
        <time>2019-05-01T08:27:19Z</time>
      </trkpt>
      <trkpt lat="42.725741" lon="-8.656141">
        <ele>11.619</ele>
        <time>2019-05-01T08:27:20Z</time>
      </trkpt>
      <trkpt lat="42.725686" lon="-8.656150">
        <ele>12.137</ele>
        <time>2019-05-01T08:27:23Z</time>
      </trkpt>
      <trkpt lat="42.725675" lon="-8.656179">
        <ele>11.689</ele>
        <time>2019-05-01T08:27:24Z</time>
      </trkpt>
      <trkpt lat="42.725675" lon="-8.656214">
        <ele>11.689</ele>
        <time>2019-05-01T08:27:25Z</time>
      </trkpt>
      <trkpt lat="42.725682" lon="-8.656252">
        <ele>11.173</ele>
        <time>2019-05-01T08:27:26Z</time>
      </trkpt>
      <trkpt lat="42.725690" lon="-8.656288">
        <ele>11.136</ele>
        <time>2019-05-01T08:27:27Z</time>
      </trkpt>
      <trkpt lat="42.725702" lon="-8.656320">
        <ele>11.117</ele>
        <time>2019-05-01T08:27:28Z</time>
      </trkpt>
      <trkpt lat="42.725712" lon="-8.656352">
        <ele>10.718</ele>
        <time>2019-05-01T08:27:29Z</time>
      </trkpt>
      <trkpt lat="42.725717" lon="-8.656386">
        <ele>10.708</ele>
        <time>2019-05-01T08:27:30Z</time>
      </trkpt>
      <trkpt lat="42.725724" lon="-8.656420">
        <ele>10.776</ele>
        <time>2019-05-01T08:27:31Z</time>
      </trkpt>
      <trkpt lat="42.725735" lon="-8.656452">
        <ele>10.279</ele>
        <time>2019-05-01T08:27:32Z</time>
      </trkpt>
      <trkpt lat="42.725836" lon="-8.656850">
        <ele>8.765</ele>
        <time>2019-05-01T08:27:46Z</time>
      </trkpt>
      <trkpt lat="42.725959" lon="-8.657260">
        <ele>7.343</ele>
        <time>2019-05-01T08:27:59Z</time>
      </trkpt>
      <trkpt lat="42.726069" lon="-8.657687">
        <ele>6.361</ele>
        <time>2019-05-01T08:28:11Z</time>
      </trkpt>
      <trkpt lat="42.726320" lon="-8.658256">
        <ele>7.323</ele>
        <time>2019-05-01T08:28:26Z</time>
      </trkpt>
      <trkpt lat="42.726569" lon="-8.658414">
        <ele>8.373</ele>
        <time>2019-05-01T08:28:36Z</time>
      </trkpt>
      <trkpt lat="42.726730" lon="-8.658465">
        <ele>8.357</ele>
        <time>2019-05-01T08:28:41Z</time>
      </trkpt>
      <trkpt lat="42.726752" lon="-8.658514">
        <ele>8.791</ele>
        <time>2019-05-01T08:28:42Z</time>
      </trkpt>
      <trkpt lat="42.726766" lon="-8.658569">
        <ele>8.781</ele>
        <time>2019-05-01T08:28:43Z</time>
      </trkpt>
      <trkpt lat="42.726916" lon="-8.659611">
        <ele>8.319</ele>
        <time>2019-05-01T08:29:02Z</time>
      </trkpt>
      <trkpt lat="42.726930" lon="-8.659668">
        <ele>8.308</ele>
        <time>2019-05-01T08:29:03Z</time>
      </trkpt>
      <trkpt lat="42.726952" lon="-8.659718">
        <ele>8.382</ele>
        <time>2019-05-01T08:29:04Z</time>
      </trkpt>
      <trkpt lat="42.726987" lon="-8.659754">
        <ele>8.325</ele>
        <time>2019-05-01T08:29:05Z</time>
      </trkpt>
      <trkpt lat="42.727026" lon="-8.659775">
        <ele>8.391</ele>
        <time>2019-05-01T08:29:06Z</time>
      </trkpt>
      <trkpt lat="42.727064" lon="-8.659790">
        <ele>8.369</ele>
        <time>2019-05-01T08:29:07Z</time>
      </trkpt>
      <trkpt lat="42.727249" lon="-8.660179">
        <ele>7.387</ele>
        <time>2019-05-01T08:29:16Z</time>
      </trkpt>
      <trkpt lat="42.727271" lon="-8.660444">
        <ele>6.839</ele>
        <time>2019-05-01T08:29:21Z</time>
      </trkpt>
      <trkpt lat="42.727266" lon="-8.660500">
        <ele>6.899</ele>
        <time>2019-05-01T08:29:22Z</time>
      </trkpt>
      <trkpt lat="42.727259" lon="-8.660554">
        <ele>6.373</ele>
        <time>2019-05-01T08:29:23Z</time>
      </trkpt>
      <trkpt lat="42.727250" lon="-8.660604">
        <ele>6.383</ele>
        <time>2019-05-01T08:29:24Z</time>
      </trkpt>
      <trkpt lat="42.727234" lon="-8.660651">
        <ele>6.825</ele>
        <time>2019-05-01T08:29:25Z</time>
      </trkpt>
      <trkpt lat="42.727213" lon="-8.660696">
        <ele>6.817</ele>
        <time>2019-05-01T08:29:26Z</time>
      </trkpt>
      <trkpt lat="42.727188" lon="-8.660741">
        <ele>6.808</ele>
        <time>2019-05-01T08:29:27Z</time>
      </trkpt>
      <trkpt lat="42.727161" lon="-8.660785">
        <ele>6.831</ele>
        <time>2019-05-01T08:29:28Z</time>
      </trkpt>
      <trkpt lat="42.727135" lon="-8.660833">
        <ele>6.854</ele>
        <time>2019-05-01T08:29:29Z</time>
      </trkpt>
      <trkpt lat="42.727114" lon="-8.660886">
        <ele>6.890</ele>
        <time>2019-05-01T08:29:30Z</time>
      </trkpt>
      <trkpt lat="42.727099" lon="-8.660944">
        <ele>6.848</ele>
        <time>2019-05-01T08:29:31Z</time>
      </trkpt>
      <trkpt lat="42.727090" lon="-8.661003">
        <ele>6.856</ele>
        <time>2019-05-01T08:29:32Z</time>
      </trkpt>
      <trkpt lat="42.727089" lon="-8.661060">
        <ele>6.878</ele>
        <time>2019-05-01T08:29:33Z</time>
      </trkpt>
      <trkpt lat="42.727091" lon="-8.661115">
        <ele>7.398</ele>
        <time>2019-05-01T08:29:34Z</time>
      </trkpt>
      <trkpt lat="42.727130" lon="-8.661279">
        <ele>8.722</ele>
        <time>2019-05-01T08:29:38Z</time>
      </trkpt>
      <trkpt lat="42.727153" lon="-8.661290">
        <ele>9.272</ele>
        <time>2019-05-01T08:29:39Z</time>
      </trkpt>
      <trkpt lat="42.727179" lon="-8.661285">
        <ele>9.213</ele>
        <time>2019-05-01T08:29:40Z</time>
      </trkpt>
      <trkpt lat="42.727519" lon="-8.661191">
        <ele>10.214</ele>
        <time>2019-05-01T08:29:54Z</time>
      </trkpt>
      <trkpt lat="42.727774" lon="-8.661129">
        <ele>9.708</ele>
        <time>2019-05-01T08:30:04Z</time>
      </trkpt>
      <trkpt lat="42.727955" lon="-8.661112">
        <ele>10.210</ele>
        <time>2019-05-01T08:30:11Z</time>
      </trkpt>
      <trkpt lat="42.727977" lon="-8.661097">
        <ele>10.743</ele>
        <time>2019-05-01T08:30:12Z</time>
      </trkpt>
      <trkpt lat="42.728005" lon="-8.661085">
        <ele>10.719</ele>
        <time>2019-05-01T08:30:13Z</time>
      </trkpt>
      <trkpt lat="42.728032" lon="-8.661075">
        <ele>10.797</ele>
        <time>2019-05-01T08:30:14Z</time>
      </trkpt>
      <trkpt lat="42.728061" lon="-8.661069">
        <ele>10.745</ele>
        <time>2019-05-01T08:30:15Z</time>
      </trkpt>
      <trkpt lat="42.728484" lon="-8.661003">
        <ele>10.237</ele>
        <time>2019-05-01T08:30:31Z</time>
      </trkpt>
      <trkpt lat="42.728881" lon="-8.660982">
        <ele>9.767</ele>
        <time>2019-05-01T08:30:44Z</time>
      </trkpt>
      <trkpt lat="42.729318" lon="-8.660947">
        <ele>9.711</ele>
        <time>2019-05-01T08:30:57Z</time>
      </trkpt>
      <trkpt lat="42.729739" lon="-8.660937">
        <ele>9.272</ele>
        <time>2019-05-01T08:31:09Z</time>
      </trkpt>
      <trkpt lat="42.730134" lon="-8.660910">
        <ele>9.213</ele>
        <time>2019-05-01T08:31:21Z</time>
      </trkpt>
      <trkpt lat="42.730703" lon="-8.660939">
        <ele>8.714</ele>
        <time>2019-05-01T08:31:37Z</time>
      </trkpt>
      <trkpt lat="42.731253" lon="-8.661006">
        <ele>8.708</ele>
        <time>2019-05-01T08:31:52Z</time>
      </trkpt>
      <trkpt lat="42.731783" lon="-8.661127">
        <ele>11.660</ele>
        <time>2019-05-01T08:32:06Z</time>
      </trkpt>
      <trkpt lat="42.732359" lon="-8.661288">
        <ele>10.773</ele>
        <time>2019-05-01T08:32:21Z</time>
      </trkpt>
      <trkpt lat="42.732821" lon="-8.661383">
        <ele>11.149</ele>
        <time>2019-05-01T08:32:34Z</time>
      </trkpt>
      <trkpt lat="42.733534" lon="-8.661521">
        <ele>10.717</ele>
        <time>2019-05-01T08:32:52Z</time>
      </trkpt>
      <trkpt lat="42.734058" lon="-8.661602">
        <ele>12.175</ele>
        <time>2019-05-01T08:33:06Z</time>
      </trkpt>
      <trkpt lat="42.734130" lon="-8.661633">
        <ele>13.147</ele>
        <time>2019-05-01T08:33:09Z</time>
      </trkpt>
      <trkpt lat="42.734155" lon="-8.661635">
        <ele>13.187</ele>
        <time>2019-05-01T08:33:10Z</time>
      </trkpt>
      <trkpt lat="42.734179" lon="-8.661639">
        <ele>13.681</ele>
        <time>2019-05-01T08:33:11Z</time>
      </trkpt>
      <trkpt lat="42.734448" lon="-8.661629">
        <ele>15.087</ele>
        <time>2019-05-01T08:33:22Z</time>
      </trkpt>
      <trkpt lat="42.734777" lon="-8.661633">
        <ele>13.142</ele>
        <time>2019-05-01T08:33:35Z</time>
      </trkpt>
      <trkpt lat="42.735098" lon="-8.661558">
        <ele>11.626</ele>
        <time>2019-05-01T08:33:47Z</time>
      </trkpt>
      <trkpt lat="42.735240" lon="-8.661495">
        <ele>10.208</ele>
        <time>2019-05-01T08:33:53Z</time>
      </trkpt>
      <trkpt lat="42.735415" lon="-8.661387">
        <ele>10.271</ele>
        <time>2019-05-01T08:34:02Z</time>
      </trkpt>
      <trkpt lat="42.735711" lon="-8.661331">
        <ele>11.134</ele>
        <time>2019-05-01T08:34:15Z</time>
      </trkpt>
      <trkpt lat="42.735905" lon="-8.661336">
        <ele>13.120</ele>
        <time>2019-05-01T08:34:26Z</time>
      </trkpt>
      <trkpt lat="42.736025" lon="-8.661337">
        <ele>13.678</ele>
        <time>2019-05-01T08:34:34Z</time>
      </trkpt>
      <trkpt lat="42.736080" lon="-8.661178">
        <ele>13.176</ele>
        <time>2019-05-01T08:34:45Z</time>
      </trkpt>
      <trkpt lat="42.736096" lon="-8.661188">
        <ele>11.118</ele>
        <time>2019-05-01T08:35:11Z</time>
      </trkpt>
      <trkpt lat="42.736095" lon="-8.661172">
        <ele>10.728</ele>
        <time>2019-05-01T08:35:34Z</time>
      </trkpt>
      <trkpt lat="42.736083" lon="-8.661084">
        <ele>9.252</ele>
        <time>2019-05-01T08:35:45Z</time>
      </trkpt>
      <trkpt lat="42.736057" lon="-8.661091">
        <ele>9.753</ele>
        <time>2019-05-01T08:35:58Z</time>
      </trkpt>
      <trkpt lat="42.736056" lon="-8.661122">
        <ele>10.704</ele>
        <time>2019-05-01T08:36:09Z</time>
      </trkpt>
      <trkpt lat="42.736054" lon="-8.661195">
        <ele>10.714</ele>
        <time>2019-05-01T08:36:16Z</time>
      </trkpt>
      <trkpt lat="42.736045" lon="-8.661224">
        <ele>10.708</ele>
        <time>2019-05-01T08:36:18Z</time>
      </trkpt>
      <trkpt lat="42.736038" lon="-8.661301">
        <ele>9.238</ele>
        <time>2019-05-01T08:36:32Z</time>
      </trkpt>
      <trkpt lat="42.736027" lon="-8.661314">
        <ele>13.191</ele>
        <time>2019-05-01T08:37:07Z</time>
      </trkpt>
      <trkpt lat="42.736021" lon="-8.661310">
        <ele>12.677</ele>
        <time>2019-05-01T08:37:30Z</time>
      </trkpt>
      <trkpt lat="42.736029" lon="-8.661315">
        <ele>13.165</ele>
        <time>2019-05-01T08:37:57Z</time>
      </trkpt>
      <trkpt lat="42.736035" lon="-8.661301">
        <ele>12.153</ele>
        <time>2019-05-01T08:38:22Z</time>
      </trkpt>
      <trkpt lat="42.736044" lon="-8.661312">
        <ele>11.655</ele>
        <time>2019-05-01T08:38:39Z</time>
      </trkpt>
      <trkpt lat="42.736090" lon="-8.661323">
        <ele>11.155</ele>
        <time>2019-05-01T08:38:51Z</time>
      </trkpt>
      <trkpt lat="42.736094" lon="-8.661322">
        <ele>10.739</ele>
        <time>2019-05-01T08:39:15Z</time>
      </trkpt>
      <trkpt lat="42.736102" lon="-8.661336">
        <ele>10.712</ele>
        <time>2019-05-01T08:39:41Z</time>
      </trkpt>
      <trkpt lat="42.736097" lon="-8.661346">
        <ele>10.232</ele>
        <time>2019-05-01T08:40:09Z</time>
      </trkpt>
      <trkpt lat="42.736091" lon="-8.661341">
        <ele>10.705</ele>
        <time>2019-05-01T08:40:37Z</time>
      </trkpt>
      <trkpt lat="42.736138" lon="-8.661330">
        <ele>10.708</ele>
        <time>2019-05-01T08:40:53Z</time>
      </trkpt>
      <trkpt lat="42.736208" lon="-8.661326">
        <ele>11.154</ele>
        <time>2019-05-01T08:40:57Z</time>
      </trkpt>
      <trkpt lat="42.736297" lon="-8.661337">
        <ele>11.197</ele>
        <time>2019-05-01T08:41:02Z</time>
      </trkpt>
      <trkpt lat="42.736518" lon="-8.661339">
        <ele>12.653</ele>
        <time>2019-05-01T08:41:13Z</time>
      </trkpt>
      <trkpt lat="42.736645" lon="-8.661294">
        <ele>14.031</ele>
        <time>2019-05-01T08:41:25Z</time>
      </trkpt>
      <trkpt lat="42.736651" lon="-8.661293">
        <ele>14.029</ele>
        <time>2019-05-01T08:41:28Z</time>
      </trkpt>
      <trkpt lat="42.736728" lon="-8.661328">
        <ele>14.571</ele>
        <time>2019-05-01T08:41:33Z</time>
      </trkpt>
      <trkpt lat="42.736837" lon="-8.661374">
        <ele>15.021</ele>
        <time>2019-05-01T08:41:39Z</time>
      </trkpt>
      <trkpt lat="42.736908" lon="-8.661363">
        <ele>16.095</ele>
        <time>2019-05-01T08:41:43Z</time>
      </trkpt>
      <trkpt lat="42.736978" lon="-8.661360">
        <ele>16.029</ele>
        <time>2019-05-01T08:41:47Z</time>
      </trkpt>
      <trkpt lat="42.737276" lon="-8.661405">
        <ele>16.400</ele>
        <time>2019-05-01T08:41:59Z</time>
      </trkpt>
      <trkpt lat="42.737706" lon="-8.661400">
        <ele>16.920</ele>
        <time>2019-05-01T08:42:13Z</time>
      </trkpt>
      <trkpt lat="42.737742" lon="-8.661416">
        <ele>17.408</ele>
        <time>2019-05-01T08:42:24Z</time>
      </trkpt>
      <trkpt lat="42.737742" lon="-8.661415">
        <ele>17.465</ele>
        <time>2019-05-01T08:42:26Z</time>
      </trkpt>
      <trkpt lat="42.737709" lon="-8.661409">
        <ele>16.038</ele>
        <time>2019-05-01T08:42:37Z</time>
      </trkpt>
      <trkpt lat="42.737706" lon="-8.661395">
        <ele>15.564</ele>
        <time>2019-05-01T08:42:55Z</time>
      </trkpt>
      <trkpt lat="42.737720" lon="-8.661387">
        <ele>16.072</ele>
        <time>2019-05-01T08:43:28Z</time>
      </trkpt>
      <trkpt lat="42.737717" lon="-8.661376">
        <ele>16.920</ele>
        <time>2019-05-01T08:43:59Z</time>
      </trkpt>
      <trkpt lat="42.737710" lon="-8.661362">
        <ele>17.922</ele>
        <time>2019-05-01T08:44:26Z</time>
      </trkpt>
      <trkpt lat="42.737710" lon="-8.661345">
        <ele>18.862</ele>
        <time>2019-05-01T08:44:50Z</time>
      </trkpt>
      <trkpt lat="42.737716" lon="-8.661346">
        <ele>20.356</ele>
        <time>2019-05-01T08:45:24Z</time>
      </trkpt>
      <trkpt lat="42.737715" lon="-8.661351">
        <ele>21.219</ele>
        <time>2019-05-01T08:45:51Z</time>
      </trkpt>
      <trkpt lat="42.737722" lon="-8.661359">
        <ele>22.709</ele>
        <time>2019-05-01T08:46:26Z</time>
      </trkpt>
      <trkpt lat="42.737723" lon="-8.661371">
        <ele>23.219</ele>
        <time>2019-05-01T08:46:54Z</time>
      </trkpt>
      <trkpt lat="42.737726" lon="-8.661378">
        <ele>22.708</ele>
        <time>2019-05-01T08:47:19Z</time>
      </trkpt>
      <trkpt lat="42.737730" lon="-8.661388">
        <ele>22.774</ele>
        <time>2019-05-01T08:47:52Z</time>
      </trkpt>
      <trkpt lat="42.737735" lon="-8.661397">
        <ele>22.767</ele>
        <time>2019-05-01T08:48:17Z</time>
      </trkpt>
      <trkpt lat="42.737736" lon="-8.661392">
        <ele>21.253</ele>
        <time>2019-05-01T08:48:49Z</time>
      </trkpt>
      <trkpt lat="42.737738" lon="-8.661397">
        <ele>20.841</ele>
        <time>2019-05-01T08:49:16Z</time>
      </trkpt>
      <trkpt lat="42.737741" lon="-8.661399">
        <ele>20.359</ele>
        <time>2019-05-01T08:49:50Z</time>
      </trkpt>
      <trkpt lat="42.737742" lon="-8.661414">
        <ele>20.361</ele>
        <time>2019-05-01T08:50:20Z</time>
      </trkpt>
      <trkpt lat="42.737744" lon="-8.661410">
        <ele>20.351</ele>
        <time>2019-05-01T08:50:46Z</time>
      </trkpt>
      <trkpt lat="42.737756" lon="-8.661415">
        <ele>19.815</ele>
        <time>2019-05-01T08:51:15Z</time>
      </trkpt>
      <trkpt lat="42.737756" lon="-8.661417">
        <ele>19.818</ele>
        <time>2019-05-01T08:51:49Z</time>
      </trkpt>
      <trkpt lat="42.737761" lon="-8.661413">
        <ele>20.398</ele>
        <time>2019-05-01T08:52:13Z</time>
      </trkpt>
      <trkpt lat="42.737761" lon="-8.661410">
        <ele>19.317</ele>
        <time>2019-05-01T08:52:42Z</time>
      </trkpt>
      <trkpt lat="42.737758" lon="-8.661406">
        <ele>18.408</ele>
        <time>2019-05-01T08:53:11Z</time>
      </trkpt>
      <trkpt lat="42.737753" lon="-8.661410">
        <ele>18.874</ele>
        <time>2019-05-01T08:53:46Z</time>
      </trkpt>
      <trkpt lat="42.737760" lon="-8.661404">
        <ele>18.897</ele>
        <time>2019-05-01T08:54:17Z</time>
      </trkpt>
      <trkpt lat="42.737766" lon="-8.661401">
        <ele>19.883</ele>
        <time>2019-05-01T08:54:47Z</time>
      </trkpt>
      <trkpt lat="42.737758" lon="-8.661406">
        <ele>19.381</ele>
        <time>2019-05-01T08:55:14Z</time>
      </trkpt>
      <trkpt lat="42.737759" lon="-8.661409">
        <ele>18.839</ele>
        <time>2019-05-01T08:55:38Z</time>
      </trkpt>
      <trkpt lat="42.737757" lon="-8.661407">
        <ele>18.871</ele>
        <time>2019-05-01T08:55:59Z</time>
      </trkpt>
      <trkpt lat="42.737770" lon="-8.661406">
        <ele>19.851</ele>
        <time>2019-05-01T08:56:31Z</time>
      </trkpt>
      <trkpt lat="42.737772" lon="-8.661408">
        <ele>20.375</ele>
        <time>2019-05-01T08:57:01Z</time>
      </trkpt>
      <trkpt lat="42.737772" lon="-8.661409">
        <ele>19.882</ele>
        <time>2019-05-01T08:57:25Z</time>
      </trkpt>
      <trkpt lat="42.737769" lon="-8.661411">
        <ele>19.343</ele>
        <time>2019-05-01T08:57:58Z</time>
      </trkpt>
      <trkpt lat="42.737771" lon="-8.661414">
        <ele>19.317</ele>
        <time>2019-05-01T08:58:26Z</time>
      </trkpt>
      <trkpt lat="42.737772" lon="-8.661415">
        <ele>19.308</ele>
        <time>2019-05-01T08:58:59Z</time>
      </trkpt>
      <trkpt lat="42.737771" lon="-8.661416">
        <ele>20.321</ele>
        <time>2019-05-01T08:59:28Z</time>
      </trkpt>
      <trkpt lat="42.737764" lon="-8.661404">
        <ele>20.894</ele>
        <time>2019-05-01T08:59:58Z</time>
      </trkpt>
      <trkpt lat="42.737760" lon="-8.661403">
        <ele>21.240</ele>
        <time>2019-05-01T09:00:30Z</time>
      </trkpt>
      <trkpt lat="42.737760" lon="-8.661396">
        <ele>21.718</ele>
        <time>2019-05-01T09:00:59Z</time>
      </trkpt>
      <trkpt lat="42.737750" lon="-8.661403">
        <ele>21.216</ele>
        <time>2019-05-01T09:01:30Z</time>
      </trkpt>
      <trkpt lat="42.737746" lon="-8.661409">
        <ele>21.238</ele>
        <time>2019-05-01T09:01:59Z</time>
      </trkpt>
      <trkpt lat="42.737737" lon="-8.661416">
        <ele>21.788</ele>
        <time>2019-05-01T09:02:29Z</time>
      </trkpt>
      <trkpt lat="42.737762" lon="-8.661438">
        <ele>21.212</ele>
        <time>2019-05-01T09:02:35Z</time>
      </trkpt>
      <trkpt lat="42.737803" lon="-8.661455">
        <ele>20.892</ele>
        <time>2019-05-01T09:02:38Z</time>
      </trkpt>
      <trkpt lat="42.738095" lon="-8.661461">
        <ele>18.473</ele>
        <time>2019-05-01T09:02:49Z</time>
      </trkpt>
      <trkpt lat="42.738417" lon="-8.661438">
        <ele>19.820</ele>
        <time>2019-05-01T09:03:02Z</time>
      </trkpt>
      <trkpt lat="42.738736" lon="-8.661491">
        <ele>20.808</ele>
        <time>2019-05-01T09:03:12Z</time>
      </trkpt>
      <trkpt lat="42.738929" lon="-8.661517">
        <ele>21.222</ele>
        <time>2019-05-01T09:03:18Z</time>
      </trkpt>
      <trkpt lat="42.738985" lon="-8.661554">
        <ele>20.865</ele>
        <time>2019-05-01T09:03:20Z</time>
      </trkpt>
      <trkpt lat="42.739053" lon="-8.661575">
        <ele>17.991</ele>
        <time>2019-05-01T09:03:31Z</time>
      </trkpt>
      <trkpt lat="42.739039" lon="-8.661585">
        <ele>17.479</ele>
        <time>2019-05-01T09:03:47Z</time>
      </trkpt>
      <trkpt lat="42.738968" lon="-8.661740">
        <ele>16.947</ele>
        <time>2019-05-01T09:03:57Z</time>
      </trkpt>
      <trkpt lat="42.738969" lon="-8.661763">
        <ele>16.029</ele>
        <time>2019-05-01T09:04:10Z</time>
      </trkpt>
      <trkpt lat="42.738978" lon="-8.661763">
        <ele>16.039</ele>
        <time>2019-05-01T09:04:28Z</time>
      </trkpt>
      <trkpt lat="42.738985" lon="-8.661763">
        <ele>16.423</ele>
        <time>2019-05-01T09:04:50Z</time>
      </trkpt>
      <trkpt lat="42.738985" lon="-8.661758">
        <ele>16.454</ele>
        <time>2019-05-01T09:05:06Z</time>
      </trkpt>
      <trkpt lat="42.738988" lon="-8.661740">
        <ele>15.556</ele>
        <time>2019-05-01T09:05:13Z</time>
      </trkpt>
      <trkpt lat="42.739004" lon="-8.661645">
        <ele>15.011</ele>
        <time>2019-05-01T09:05:18Z</time>
      </trkpt>
      <trkpt lat="42.739058" lon="-8.661495">
        <ele>13.108</ele>
        <time>2019-05-01T09:05:30Z</time>
      </trkpt>
      <trkpt lat="42.739059" lon="-8.661498">
        <ele>13.128</ele>
        <time>2019-05-01T09:05:46Z</time>
      </trkpt>
      <trkpt lat="42.739060" lon="-8.661498">
        <ele>13.161</ele>
        <time>2019-05-01T09:05:52Z</time>
      </trkpt>
      <trkpt lat="42.739056" lon="-8.661441">
        <ele>13.177</ele>
        <time>2019-05-01T09:06:03Z</time>
      </trkpt>
      <trkpt lat="42.739069" lon="-8.661411">
        <ele>14.075</ele>
        <time>2019-05-01T09:06:22Z</time>
      </trkpt>
      <trkpt lat="42.739052" lon="-8.661399">
        <ele>13.673</ele>
        <time>2019-05-01T09:06:35Z</time>
      </trkpt>
      <trkpt lat="42.739052" lon="-8.661395">
        <ele>13.185</ele>
        <time>2019-05-01T09:06:40Z</time>
      </trkpt>
      <trkpt lat="42.739059" lon="-8.661509">
        <ele>10.735</ele>
        <time>2019-05-01T09:06:52Z</time>
      </trkpt>
      <trkpt lat="42.739062" lon="-8.661511">
        <ele>10.269</ele>
        <time>2019-05-01T09:07:02Z</time>
      </trkpt>
      <trkpt lat="42.739050" lon="-8.661516">
        <ele>9.718</ele>
        <time>2019-05-01T09:07:08Z</time>
      </trkpt>
      <trkpt lat="42.739059" lon="-8.661378">
        <ele>9.298</ele>
        <time>2019-05-01T09:07:16Z</time>
      </trkpt>
      <trkpt lat="42.739082" lon="-8.661360">
        <ele>8.317</ele>
        <time>2019-05-01T09:07:18Z</time>
      </trkpt>
      <trkpt lat="42.739361" lon="-8.661376">
        <ele>5.408</ele>
        <time>2019-05-01T09:07:29Z</time>
      </trkpt>
      <trkpt lat="42.739656" lon="-8.661335">
        <ele>5.414</ele>
        <time>2019-05-01T09:07:38Z</time>
      </trkpt>
      <trkpt lat="42.739728" lon="-8.660932">
        <ele>6.367</ele>
        <time>2019-05-01T09:07:48Z</time>
      </trkpt>
      <trkpt lat="42.739790" lon="-8.660819">
        <ele>6.843</ele>
        <time>2019-05-01T09:07:51Z</time>
      </trkpt>
      <trkpt lat="42.739962" lon="-8.660546">
        <ele>7.341</ele>
        <time>2019-05-01T09:07:59Z</time>
      </trkpt>
      <trkpt lat="42.739967" lon="-8.660294">
        <ele>7.369</ele>
        <time>2019-05-01T09:08:07Z</time>
      </trkpt>
      <trkpt lat="42.739869" lon="-8.659867">
        <ele>8.771</ele>
        <time>2019-05-01T09:08:18Z</time>
      </trkpt>
      <trkpt lat="42.739733" lon="-8.659467">
        <ele>9.721</ele>
        <time>2019-05-01T09:08:29Z</time>
      </trkpt>
      <trkpt lat="42.739732" lon="-8.659269">
        <ele>8.745</ele>
        <time>2019-05-01T09:08:34Z</time>
      </trkpt>
      <trkpt lat="42.739694" lon="-8.659166">
        <ele>8.751</ele>
        <time>2019-05-01T09:08:38Z</time>
      </trkpt>
      <trkpt lat="42.739713" lon="-8.659113">
        <ele>9.201</ele>
        <time>2019-05-01T09:08:40Z</time>
      </trkpt>
      <trkpt lat="42.739751" lon="-8.659064">
        <ele>9.211</ele>
        <time>2019-05-01T09:08:43Z</time>
      </trkpt>
      <trkpt lat="42.739757" lon="-8.658953">
        <ele>13.108</ele>
        <time>2019-05-01T09:08:53Z</time>
      </trkpt>
      <trkpt lat="42.739748" lon="-8.658931">
        <ele>15.568</ele>
        <time>2019-05-01T09:09:00Z</time>
      </trkpt>
      <trkpt lat="42.739652" lon="-8.658916">
        <ele>16.981</ele>
        <time>2019-05-01T09:09:05Z</time>
      </trkpt>
      <trkpt lat="42.739235" lon="-8.659010">
        <ele>16.947</ele>
        <time>2019-05-01T09:09:18Z</time>
      </trkpt>
      <trkpt lat="42.739183" lon="-8.659017">
        <ele>16.955</ele>
        <time>2019-05-01T09:09:20Z</time>
      </trkpt>
      <trkpt lat="42.739088" lon="-8.658880">
        <ele>16.923</ele>
        <time>2019-05-01T09:09:25Z</time>
      </trkpt>
      <trkpt lat="42.739049" lon="-8.658647">
        <ele>13.695</ele>
        <time>2019-05-01T09:09:30Z</time>
      </trkpt>
      <trkpt lat="42.739030" lon="-8.658595">
        <ele>13.635</ele>
        <time>2019-05-01T09:09:31Z</time>
      </trkpt>
      <trkpt lat="42.739014" lon="-8.658542">
        <ele>13.159</ele>
        <time>2019-05-01T09:09:32Z</time>
      </trkpt>
      <trkpt lat="42.739007" lon="-8.658488">
        <ele>13.135</ele>
        <time>2019-05-01T09:09:33Z</time>
      </trkpt>
      <trkpt lat="42.739003" lon="-8.658435">
        <ele>13.186</ele>
        <time>2019-05-01T09:09:34Z</time>
      </trkpt>
      <trkpt lat="42.738995" lon="-8.658382">
        <ele>13.114</ele>
        <time>2019-05-01T09:09:35Z</time>
      </trkpt>
      <trkpt lat="42.738989" lon="-8.658327">
        <ele>12.608</ele>
        <time>2019-05-01T09:09:36Z</time>
      </trkpt>
      <trkpt lat="42.738963" lon="-8.657829">
        <ele>12.156</ele>
        <time>2019-05-01T09:09:46Z</time>
      </trkpt>
      <trkpt lat="42.738873" lon="-8.657372">
        <ele>10.759</ele>
        <time>2019-05-01T09:09:54Z</time>
      </trkpt>
      <trkpt lat="42.738424" lon="-8.656504">
        <ele>10.265</ele>
        <time>2019-05-01T09:10:11Z</time>
      </trkpt>
      <trkpt lat="42.737965" lon="-8.655646">
        <ele>10.273</ele>
        <time>2019-05-01T09:10:29Z</time>
      </trkpt>
      <trkpt lat="42.737549" lon="-8.655024">
        <ele>9.241</ele>
        <time>2019-05-01T09:10:43Z</time>
      </trkpt>
      <trkpt lat="42.737526" lon="-8.654975">
        <ele>9.723</ele>
        <time>2019-05-01T09:10:44Z</time>
      </trkpt>
      <trkpt lat="42.737507" lon="-8.654924">
        <ele>9.713</ele>
        <time>2019-05-01T09:10:45Z</time>
      </trkpt>
      <trkpt lat="42.737494" lon="-8.654870">
        <ele>9.237</ele>
        <time>2019-05-01T09:10:46Z</time>
      </trkpt>
      <trkpt lat="42.737482" lon="-8.654814">
        <ele>9.759</ele>
        <time>2019-05-01T09:10:47Z</time>
      </trkpt>
      <trkpt lat="42.737474" lon="-8.654758">
        <ele>9.703</ele>
        <time>2019-05-01T09:10:48Z</time>
      </trkpt>
      <trkpt lat="42.737469" lon="-8.654701">
        <ele>9.723</ele>
        <time>2019-05-01T09:10:49Z</time>
      </trkpt>
      <trkpt lat="42.737432" lon="-8.653810">
        <ele>11.108</ele>
        <time>2019-05-01T09:11:06Z</time>
      </trkpt>
      <trkpt lat="42.737433" lon="-8.653368">
        <ele>11.628</ele>
        <time>2019-05-01T09:11:17Z</time>
      </trkpt>
      <trkpt lat="42.737421" lon="-8.652835">
        <ele>12.121</ele>
        <time>2019-05-01T09:11:32Z</time>
      </trkpt>
      <trkpt lat="42.737405" lon="-8.652795">
        <ele>10.747</ele>
        <time>2019-05-01T09:11:46Z</time>
      </trkpt>
      <trkpt lat="42.737408" lon="-8.652778">
        <ele>11.195</ele>
        <time>2019-05-01T09:11:47Z</time>
      </trkpt>
      <trkpt lat="42.737413" lon="-8.652754">
        <ele>11.153</ele>
        <time>2019-05-01T09:11:48Z</time>
      </trkpt>
      <trkpt lat="42.737415" lon="-8.652727">
        <ele>11.195</ele>
        <time>2019-05-01T09:11:49Z</time>
      </trkpt>
      <trkpt lat="42.737416" lon="-8.652699">
        <ele>11.115</ele>
        <time>2019-05-01T09:11:50Z</time>
      </trkpt>
      <trkpt lat="42.737418" lon="-8.652669">
        <ele>11.189</ele>
        <time>2019-05-01T09:11:51Z</time>
      </trkpt>
      <trkpt lat="42.737424" lon="-8.652640">
        <ele>11.195</ele>
        <time>2019-05-01T09:11:52Z</time>
      </trkpt>
      <trkpt lat="42.737439" lon="-8.652611">
        <ele>11.149</ele>
        <time>2019-05-01T09:11:53Z</time>
      </trkpt>
      <trkpt lat="42.737456" lon="-8.652590">
        <ele>11.123</ele>
        <time>2019-05-01T09:11:54Z</time>
      </trkpt>
      <trkpt lat="42.737475" lon="-8.652573">
        <ele>10.708</ele>
        <time>2019-05-01T09:11:55Z</time>
      </trkpt>
      <trkpt lat="42.737495" lon="-8.652560">
        <ele>10.712</ele>
        <time>2019-05-01T09:11:56Z</time>
      </trkpt>
      <trkpt lat="42.737511" lon="-8.652544">
        <ele>10.765</ele>
        <time>2019-05-01T09:11:57Z</time>
      </trkpt>
      <trkpt lat="42.737527" lon="-8.652528">
        <ele>10.711</ele>
        <time>2019-05-01T09:11:58Z</time>
      </trkpt>
      <trkpt lat="42.737547" lon="-8.652521">
        <ele>10.739</ele>
        <time>2019-05-01T09:11:59Z</time>
      </trkpt>
      <trkpt lat="42.737569" lon="-8.652515">
        <ele>10.777</ele>
        <time>2019-05-01T09:12:00Z</time>
      </trkpt>
      <trkpt lat="42.737593" lon="-8.652507">
        <ele>10.239</ele>
        <time>2019-05-01T09:12:01Z</time>
      </trkpt>
      <trkpt lat="42.737887" lon="-8.652436">
        <ele>12.159</ele>
        <time>2019-05-01T09:12:13Z</time>
      </trkpt>
      <trkpt lat="42.738203" lon="-8.652382">
        <ele>12.663</ele>
        <time>2019-05-01T09:12:26Z</time>
      </trkpt>
      <trkpt lat="42.738211" lon="-8.652372">
        <ele>12.618</ele>
        <time>2019-05-01T09:12:39Z</time>
      </trkpt>
      <trkpt lat="42.738214" lon="-8.652364">
        <ele>12.698</ele>
        <time>2019-05-01T09:13:04Z</time>
      </trkpt>
      <trkpt lat="42.738225" lon="-8.652366">
        <ele>13.117</ele>
        <time>2019-05-01T09:13:22Z</time>
      </trkpt>
      <trkpt lat="42.738268" lon="-8.652407">
        <ele>10.708</ele>
        <time>2019-05-01T09:13:33Z</time>
      </trkpt>
      <trkpt lat="42.738282" lon="-8.652395">
        <ele>10.284</ele>
        <time>2019-05-01T09:14:00Z</time>
      </trkpt>
      <trkpt lat="42.738271" lon="-8.652389">
        <ele>10.287</ele>
        <time>2019-05-01T09:14:01Z</time>
      </trkpt>
      <trkpt lat="42.738257" lon="-8.652386">
        <ele>10.233</ele>
        <time>2019-05-01T09:14:02Z</time>
      </trkpt>
      <trkpt lat="42.738243" lon="-8.652389">
        <ele>10.251</ele>
        <time>2019-05-01T09:14:03Z</time>
      </trkpt>
      <trkpt lat="42.738233" lon="-8.652396">
        <ele>10.269</ele>
        <time>2019-05-01T09:14:04Z</time>
      </trkpt>
      <trkpt lat="42.738216" lon="-8.652427">
        <ele>10.291</ele>
        <time>2019-05-01T09:14:19Z</time>
      </trkpt>
      <trkpt lat="42.738224" lon="-8.652427">
        <ele>10.781</ele>
        <time>2019-05-01T09:14:42Z</time>
      </trkpt>
      <trkpt lat="42.738209" lon="-8.652427">
        <ele>10.715</ele>
        <time>2019-05-01T09:14:43Z</time>
      </trkpt>
      <trkpt lat="42.738193" lon="-8.652428">
        <ele>10.764</ele>
        <time>2019-05-01T09:14:44Z</time>
      </trkpt>
      <trkpt lat="42.738176" lon="-8.652430">
        <ele>10.206</ele>
        <time>2019-05-01T09:14:45Z</time>
      </trkpt>
      <trkpt lat="42.738153" lon="-8.652432">
        <ele>10.216</ele>
        <time>2019-05-01T09:14:46Z</time>
      </trkpt>
      <trkpt lat="42.737772" lon="-8.652518">
        <ele>9.708</ele>
        <time>2019-05-01T09:14:59Z</time>
      </trkpt>
      <trkpt lat="42.737426" lon="-8.652625">
        <ele>10.249</ele>
        <time>2019-05-01T09:15:13Z</time>
      </trkpt>
      <trkpt lat="42.737425" lon="-8.652653">
        <ele>10.232</ele>
        <time>2019-05-01T09:15:14Z</time>
      </trkpt>
      <trkpt lat="42.737428" lon="-8.652687">
        <ele>9.748</ele>
        <time>2019-05-01T09:15:15Z</time>
      </trkpt>
      <trkpt lat="42.737432" lon="-8.652726">
        <ele>9.276</ele>
        <time>2019-05-01T09:15:16Z</time>
      </trkpt>
      <trkpt lat="42.737434" lon="-8.652771">
        <ele>9.254</ele>
        <time>2019-05-01T09:15:17Z</time>
      </trkpt>
      <trkpt lat="42.737439" lon="-8.652818">
        <ele>9.296</ele>
        <time>2019-05-01T09:15:18Z</time>
      </trkpt>
      <trkpt lat="42.737445" lon="-8.652867">
        <ele>8.776</ele>
        <time>2019-05-01T09:15:19Z</time>
      </trkpt>
      <trkpt lat="42.737447" lon="-8.652921">
        <ele>8.730</ele>
        <time>2019-05-01T09:15:20Z</time>
      </trkpt>
      <trkpt lat="42.737448" lon="-8.652974">
        <ele>8.782</ele>
        <time>2019-05-01T09:15:21Z</time>
      </trkpt>
      <trkpt lat="42.737457" lon="-8.653251">
        <ele>8.343</ele>
        <time>2019-05-01T09:15:26Z</time>
      </trkpt>
      <trkpt lat="42.737492" lon="-8.654231">
        <ele>6.817</ele>
        <time>2019-05-01T09:15:41Z</time>
      </trkpt>
      <trkpt lat="42.737521" lon="-8.654851">
        <ele>7.808</ele>
        <time>2019-05-01T09:15:50Z</time>
      </trkpt>
      <trkpt lat="42.737538" lon="-8.654910">
        <ele>7.881</ele>
        <time>2019-05-01T09:15:51Z</time>
      </trkpt>
      <trkpt lat="42.737562" lon="-8.654961">
        <ele>7.814</ele>
        <time>2019-05-01T09:15:52Z</time>
      </trkpt>
      <trkpt lat="42.737589" lon="-8.655009">
        <ele>7.860</ele>
        <time>2019-05-01T09:15:53Z</time>
      </trkpt>
      <trkpt lat="42.737619" lon="-8.655055">
        <ele>7.878</ele>
        <time>2019-05-01T09:15:54Z</time>
      </trkpt>
      <trkpt lat="42.737651" lon="-8.655098">
        <ele>7.846</ele>
        <time>2019-05-01T09:15:55Z</time>
      </trkpt>
      <trkpt lat="42.737683" lon="-8.655139">
        <ele>7.828</ele>
        <time>2019-05-01T09:15:56Z</time>
      </trkpt>
      <trkpt lat="42.737898" lon="-8.655437">
        <ele>6.888</ele>
        <time>2019-05-01T09:16:03Z</time>
      </trkpt>
      <trkpt lat="42.738321" lon="-8.656162">
        <ele>7.372</ele>
        <time>2019-05-01T09:16:18Z</time>
      </trkpt>
      <trkpt lat="42.738662" lon="-8.656810">
        <ele>7.314</ele>
        <time>2019-05-01T09:16:32Z</time>
      </trkpt>
      <trkpt lat="42.738826" lon="-8.657117">
        <ele>7.354</ele>
        <time>2019-05-01T09:16:38Z</time>
      </trkpt>
      <trkpt lat="42.738919" lon="-8.657338">
        <ele>7.309</ele>
        <time>2019-05-01T09:16:42Z</time>
      </trkpt>
      <trkpt lat="42.738936" lon="-8.657397">
        <ele>7.308</ele>
        <time>2019-05-01T09:16:43Z</time>
      </trkpt>
      <trkpt lat="42.739029" lon="-8.658066">
        <ele>6.384</ele>
        <time>2019-05-01T09:16:56Z</time>
      </trkpt>
      <trkpt lat="42.739097" lon="-8.658578">
        <ele>4.927</ele>
        <time>2019-05-01T09:17:08Z</time>
      </trkpt>
      <trkpt lat="42.739168" lon="-8.659125">
        <ele>6.363</ele>
        <time>2019-05-01T09:17:20Z</time>
      </trkpt>
      <trkpt lat="42.739225" lon="-8.659738">
        <ele>3.941</ele>
        <time>2019-05-01T09:17:33Z</time>
      </trkpt>
      <trkpt lat="42.739296" lon="-8.660272">
        <ele>0.629</ele>
        <time>2019-05-01T09:17:45Z</time>
      </trkpt>
      <trkpt lat="42.739329" lon="-8.660332">
        <ele>0.621</ele>
        <time>2019-05-01T09:17:47Z</time>
      </trkpt>
      <trkpt lat="42.739434" lon="-8.660325">
        <ele>1.571</ele>
        <time>2019-05-01T09:17:51Z</time>
      </trkpt>
      <trkpt lat="42.739515" lon="-8.660323">
        <ele>1.535</ele>
        <time>2019-05-01T09:17:53Z</time>
      </trkpt>
      <trkpt lat="42.739882" lon="-8.660177">
        <ele>3.577</ele>
        <time>2019-05-01T09:18:04Z</time>
      </trkpt>
      <trkpt lat="42.740254" lon="-8.660150">
        <ele>6.361</ele>
        <time>2019-05-01T09:18:14Z</time>
      </trkpt>
      <trkpt lat="42.740563" lon="-8.659940">
        <ele>6.827</ele>
        <time>2019-05-01T09:18:25Z</time>
      </trkpt>
      <trkpt lat="42.741040" lon="-8.659518">
        <ele>8.708</ele>
        <time>2019-05-01T09:18:40Z</time>
      </trkpt>
      <trkpt lat="42.741651" lon="-8.659289">
        <ele>9.260</ele>
        <time>2019-05-01T09:18:56Z</time>
      </trkpt>
      <trkpt lat="42.741799" lon="-8.659204">
        <ele>9.273</ele>
        <time>2019-05-01T09:19:00Z</time>
      </trkpt>
      <trkpt lat="42.741833" lon="-8.659173">
        <ele>9.239</ele>
        <time>2019-05-01T09:19:01Z</time>
      </trkpt>
      <trkpt lat="42.742350" lon="-8.658654">
        <ele>9.747</ele>
        <time>2019-05-01T09:19:17Z</time>
      </trkpt>
      <trkpt lat="42.742676" lon="-8.658393">
        <ele>9.775</ele>
        <time>2019-05-01T09:19:28Z</time>
      </trkpt>
      <trkpt lat="42.742972" lon="-8.658106">
        <ele>9.737</ele>
        <time>2019-05-01T09:19:39Z</time>
      </trkpt>
      <trkpt lat="42.743338" lon="-8.657631">
        <ele>8.727</ele>
        <time>2019-05-01T09:19:53Z</time>
      </trkpt>
      <trkpt lat="42.743404" lon="-8.657553">
        <ele>8.781</ele>
        <time>2019-05-01T09:19:55Z</time>
      </trkpt>
      <trkpt lat="42.743845" lon="-8.657340">
        <ele>8.788</ele>
        <time>2019-05-01T09:20:07Z</time>
      </trkpt>
      <trkpt lat="42.744326" lon="-8.657131">
        <ele>9.224</ele>
        <time>2019-05-01T09:20:21Z</time>
      </trkpt>
      <trkpt lat="42.744354" lon="-8.657098">
        <ele>9.226</ele>
        <time>2019-05-01T09:20:22Z</time>
      </trkpt>
      <trkpt lat="42.744372" lon="-8.657061">
        <ele>9.208</ele>
        <time>2019-05-01T09:20:23Z</time>
      </trkpt>
      <trkpt lat="42.744468" lon="-8.656791">
        <ele>9.751</ele>
        <time>2019-05-01T09:20:32Z</time>
      </trkpt>
      <trkpt lat="42.744597" lon="-8.656482">
        <ele>12.134</ele>
        <time>2019-05-01T09:20:43Z</time>
      </trkpt>
      <trkpt lat="42.744616" lon="-8.656427">
        <ele>11.180</ele>
        <time>2019-05-01T09:20:50Z</time>
      </trkpt>
      <trkpt lat="42.744627" lon="-8.656411">
        <ele>11.698</ele>
        <time>2019-05-01T09:20:51Z</time>
      </trkpt>
      <trkpt lat="42.744637" lon="-8.656390">
        <ele>11.156</ele>
        <time>2019-05-01T09:20:52Z</time>
      </trkpt>
      <trkpt lat="42.744650" lon="-8.656364">
        <ele>11.188</ele>
        <time>2019-05-01T09:20:53Z</time>
      </trkpt>
      <trkpt lat="42.744666" lon="-8.656340">
        <ele>11.148</ele>
        <time>2019-05-01T09:20:54Z</time>
      </trkpt>
      <trkpt lat="42.744687" lon="-8.656318">
        <ele>11.692</ele>
        <time>2019-05-01T09:20:55Z</time>
      </trkpt>
      <trkpt lat="42.744710" lon="-8.656299">
        <ele>11.645</ele>
        <time>2019-05-01T09:20:56Z</time>
      </trkpt>
      <trkpt lat="42.744891" lon="-8.655969">
        <ele>11.647</ele>
        <time>2019-05-01T09:21:07Z</time>
      </trkpt>
      <trkpt lat="42.745207" lon="-8.655469">
        <ele>12.111</ele>
        <time>2019-05-01T09:21:22Z</time>
      </trkpt>
      <trkpt lat="42.745418" lon="-8.655104">
        <ele>13.608</ele>
        <time>2019-05-01T09:21:34Z</time>
      </trkpt>
      <trkpt lat="42.745596" lon="-8.654586">
        <ele>14.037</ele>
        <time>2019-05-01T09:21:48Z</time>
      </trkpt>
      <trkpt lat="42.745627" lon="-8.653964">
        <ele>12.110</ele>
        <time>2019-05-01T09:21:58Z</time>
      </trkpt>
      <trkpt lat="42.745659" lon="-8.653818">
        <ele>11.696</ele>
        <time>2019-05-01T09:22:00Z</time>
      </trkpt>
      <trkpt lat="42.745810" lon="-8.653553">
        <ele>13.144</ele>
        <time>2019-05-01T09:22:10Z</time>
      </trkpt>
      <trkpt lat="42.745855" lon="-8.653500">
        <ele>14.042</ele>
        <time>2019-05-01T09:22:13Z</time>
      </trkpt>
      <trkpt lat="42.745872" lon="-8.653487">
        <ele>14.554</ele>
        <time>2019-05-01T09:22:14Z</time>
      </trkpt>
      <trkpt lat="42.745889" lon="-8.653474">
        <ele>15.024</ele>
        <time>2019-05-01T09:22:15Z</time>
      </trkpt>
      <trkpt lat="42.745931" lon="-8.653443">
        <ele>15.518</ele>
        <time>2019-05-01T09:22:18Z</time>
      </trkpt>
      <trkpt lat="42.745965" lon="-8.653451">
        <ele>15.049</ele>
        <time>2019-05-01T09:22:23Z</time>
      </trkpt>
      <trkpt lat="42.745972" lon="-8.653433">
        <ele>15.002</ele>
        <time>2019-05-01T09:22:24Z</time>
      </trkpt>
      <trkpt lat="42.745970" lon="-8.653409">
        <ele>15.022</ele>
        <time>2019-05-01T09:22:25Z</time>
      </trkpt>
      <trkpt lat="42.745967" lon="-8.653350">
        <ele>14.508</ele>
        <time>2019-05-01T09:22:28Z</time>
      </trkpt>
      <trkpt lat="42.745979" lon="-8.653331">
        <ele>14.597</ele>
        <time>2019-05-01T09:22:29Z</time>
      </trkpt>
      <trkpt lat="42.745994" lon="-8.653319">
        <ele>14.090</ele>
        <time>2019-05-01T09:22:30Z</time>
      </trkpt>
      <trkpt lat="42.746020" lon="-8.653334">
        <ele>14.536</ele>
        <time>2019-05-01T09:22:34Z</time>
      </trkpt>
      <trkpt lat="42.746008" lon="-8.653344">
        <ele>14.564</ele>
        <time>2019-05-01T09:22:35Z</time>
      </trkpt>
      <trkpt lat="42.745993" lon="-8.653346">
        <ele>14.532</ele>
        <time>2019-05-01T09:22:36Z</time>
      </trkpt>
      <trkpt lat="42.745980" lon="-8.653341">
        <ele>14.564</ele>
        <time>2019-05-01T09:22:37Z</time>
      </trkpt>
      <trkpt lat="42.745997" lon="-8.653293">
        <ele>14.594</ele>
        <time>2019-05-01T09:22:40Z</time>
      </trkpt>
      <trkpt lat="42.746255" lon="-8.653127">
        <ele>16.488</ele>
        <time>2019-05-01T09:22:53Z</time>
      </trkpt>
      <trkpt lat="42.746532" lon="-8.652971">
        <ele>18.468</ele>
        <time>2019-05-01T09:23:05Z</time>
      </trkpt>
      <trkpt lat="42.746796" lon="-8.652809">
        <ele>19.842</ele>
        <time>2019-05-01T09:23:17Z</time>
      </trkpt>
      <trkpt lat="42.747187" lon="-8.652766">
        <ele>20.826</ele>
        <time>2019-05-01T09:23:30Z</time>
      </trkpt>
      <trkpt lat="42.747490" lon="-8.652766">
        <ele>20.308</ele>
        <time>2019-05-01T09:23:38Z</time>
      </trkpt>
      <trkpt lat="42.747528" lon="-8.652743">
        <ele>20.359</ele>
        <time>2019-05-01T09:23:39Z</time>
      </trkpt>
      <trkpt lat="42.747966" lon="-8.652472">
        <ele>19.842</ele>
        <time>2019-05-01T09:23:52Z</time>
      </trkpt>
      <trkpt lat="42.748288" lon="-8.652278">
        <ele>21.268</ele>
        <time>2019-05-01T09:24:06Z</time>
      </trkpt>
      <trkpt lat="42.748602" lon="-8.652287">
        <ele>26.066</ele>
        <time>2019-05-01T09:24:20Z</time>
      </trkpt>
      <trkpt lat="42.748819" lon="-8.652345">
        <ele>27.034</ele>
        <time>2019-05-01T09:24:29Z</time>
      </trkpt>
      <trkpt lat="42.748830" lon="-8.652390">
        <ele>26.576</ele>
        <time>2019-05-01T09:24:30Z</time>
      </trkpt>
      <trkpt lat="42.748838" lon="-8.652450">
        <ele>26.056</ele>
        <time>2019-05-01T09:24:31Z</time>
      </trkpt>
      <trkpt lat="42.748845" lon="-8.652523">
        <ele>25.660</ele>
        <time>2019-05-01T09:24:32Z</time>
      </trkpt>
      <trkpt lat="42.748848" lon="-8.652610">
        <ele>25.194</ele>
        <time>2019-05-01T09:24:33Z</time>
      </trkpt>
      <trkpt lat="42.748847" lon="-8.652708">
        <ele>24.157</ele>
        <time>2019-05-01T09:24:34Z</time>
      </trkpt>
      <trkpt lat="42.748867" lon="-8.653493">
        <ele>19.322</ele>
        <time>2019-05-01T09:24:41Z</time>
      </trkpt>
      <trkpt lat="42.748896" lon="-8.653696">
        <ele>18.808</ele>
        <time>2019-05-01T09:24:43Z</time>
      </trkpt>
      <trkpt lat="42.748910" lon="-8.654427">
        <ele>16.462</ele>
        <time>2019-05-01T09:24:51Z</time>
      </trkpt>
      <trkpt lat="42.748922" lon="-8.654470">
        <ele>16.445</ele>
        <time>2019-05-01T09:24:52Z</time>
      </trkpt>
      <trkpt lat="42.748945" lon="-8.654489">
        <ele>16.071</ele>
        <time>2019-05-01T09:24:53Z</time>
      </trkpt>
      <trkpt lat="42.748975" lon="-8.654483">
        <ele>16.499</ele>
        <time>2019-05-01T09:24:54Z</time>
      </trkpt>
      <trkpt lat="42.749006" lon="-8.654471">
        <ele>16.417</ele>
        <time>2019-05-01T09:24:55Z</time>
      </trkpt>
      <trkpt lat="42.749036" lon="-8.654460">
        <ele>16.479</ele>
        <time>2019-05-01T09:24:56Z</time>
      </trkpt>
      <trkpt lat="42.749539" lon="-8.654276">
        <ele>16.459</ele>
        <time>2019-05-01T09:25:12Z</time>
      </trkpt>
      <trkpt lat="42.749982" lon="-8.654126">
        <ele>17.943</ele>
        <time>2019-05-01T09:25:27Z</time>
      </trkpt>
      <trkpt lat="42.750403" lon="-8.653971">
        <ele>17.988</ele>
        <time>2019-05-01T09:25:40Z</time>
      </trkpt>
      <trkpt lat="42.750790" lon="-8.653815">
        <ele>18.424</ele>
        <time>2019-05-01T09:25:52Z</time>
      </trkpt>
      <trkpt lat="42.751294" lon="-8.653623">
        <ele>20.326</ele>
        <time>2019-05-01T09:26:07Z</time>
      </trkpt>
      <trkpt lat="42.751722" lon="-8.653480">
        <ele>21.208</ele>
        <time>2019-05-01T09:26:22Z</time>
      </trkpt>
      <trkpt lat="42.752272" lon="-8.653207">
        <ele>19.391</ele>
        <time>2019-05-01T09:26:36Z</time>
      </trkpt>
      <trkpt lat="42.753153" lon="-8.652851">
        <ele>16.974</ele>
        <time>2019-05-01T09:26:54Z</time>
      </trkpt>
      <trkpt lat="42.753618" lon="-8.652671">
        <ele>16.420</ele>
        <time>2019-05-01T09:27:04Z</time>
      </trkpt>
      <trkpt lat="42.754268" lon="-8.652426">
        <ele>17.428</ele>
        <time>2019-05-01T09:27:19Z</time>
      </trkpt>
      <trkpt lat="42.754311" lon="-8.652409">
        <ele>17.946</ele>
        <time>2019-05-01T09:27:20Z</time>
      </trkpt>
      <trkpt lat="42.755000" lon="-8.652157">
        <ele>19.888</ele>
        <time>2019-05-01T09:27:37Z</time>
      </trkpt>
      <trkpt lat="42.755166" lon="-8.652064">
        <ele>20.878</ele>
        <time>2019-05-01T09:27:42Z</time>
      </trkpt>
      <trkpt lat="42.755720" lon="-8.651823">
        <ele>21.712</ele>
        <time>2019-05-01T09:27:57Z</time>
      </trkpt>
      <trkpt lat="42.756045" lon="-8.651565">
        <ele>23.261</ele>
        <time>2019-05-01T09:28:08Z</time>
      </trkpt>
      <trkpt lat="42.756456" lon="-8.651616">
        <ele>24.621</ele>
        <time>2019-05-01T09:28:19Z</time>
      </trkpt>
      <trkpt lat="42.757015" lon="-8.651429">
        <ele>24.613</ele>
        <time>2019-05-01T09:28:35Z</time>
      </trkpt>
      <trkpt lat="42.757661" lon="-8.651268">
        <ele>25.608</ele>
        <time>2019-05-01T09:28:52Z</time>
      </trkpt>
      <trkpt lat="42.758348" lon="-8.651159">
        <ele>27.599</ele>
        <time>2019-05-01T09:29:11Z</time>
      </trkpt>
      <trkpt lat="42.758936" lon="-8.651106">
        <ele>28.512</ele>
        <time>2019-05-01T09:29:28Z</time>
      </trkpt>
      <trkpt lat="42.759492" lon="-8.651084">
        <ele>29.448</ele>
        <time>2019-05-01T09:29:44Z</time>
      </trkpt>
      <trkpt lat="42.759924" lon="-8.651170">
        <ele>29.466</ele>
        <time>2019-05-01T09:29:56Z</time>
      </trkpt>
      <trkpt lat="42.759948" lon="-8.651211">
        <ele>29.434</ele>
        <time>2019-05-01T09:29:57Z</time>
      </trkpt>
      <trkpt lat="42.759958" lon="-8.651264">
        <ele>28.996</ele>
        <time>2019-05-01T09:29:58Z</time>
      </trkpt>
      <trkpt lat="42.759959" lon="-8.651324">
        <ele>28.586</ele>
        <time>2019-05-01T09:29:59Z</time>
      </trkpt>
      <trkpt lat="42.759953" lon="-8.651388">
        <ele>28.050</ele>
        <time>2019-05-01T09:30:00Z</time>
      </trkpt>
      <trkpt lat="42.759955" lon="-8.651540">
        <ele>27.573</ele>
        <time>2019-05-01T09:30:02Z</time>
      </trkpt>
      <trkpt lat="42.760049" lon="-8.652817">
        <ele>21.285</ele>
        <time>2019-05-01T09:30:15Z</time>
      </trkpt>
      <trkpt lat="42.760081" lon="-8.653391">
        <ele>17.913</ele>
        <time>2019-05-01T09:30:22Z</time>
      </trkpt>
      <trkpt lat="42.760103" lon="-8.653442">
        <ele>17.408</ele>
        <time>2019-05-01T09:30:23Z</time>
      </trkpt>
      <trkpt lat="42.760140" lon="-8.653468">
        <ele>17.470</ele>
        <time>2019-05-01T09:30:24Z</time>
      </trkpt>
      <trkpt lat="42.760183" lon="-8.653475">
        <ele>17.423</ele>
        <time>2019-05-01T09:30:25Z</time>
      </trkpt>
      <trkpt lat="42.760227" lon="-8.653478">
        <ele>17.489</ele>
        <time>2019-05-01T09:30:26Z</time>
      </trkpt>
      <trkpt lat="42.760351" lon="-8.653486">
        <ele>17.477</ele>
        <time>2019-05-01T09:30:29Z</time>
      </trkpt>
      <trkpt lat="42.760436" lon="-8.653490">
        <ele>17.455</ele>
        <time>2019-05-01T09:30:31Z</time>
      </trkpt>
      <trkpt lat="42.760650" lon="-8.653529">
        <ele>16.447</ele>
        <time>2019-05-01T09:30:36Z</time>
      </trkpt>
      <trkpt lat="42.761102" lon="-8.653587">
        <ele>15.057</ele>
        <time>2019-05-01T09:30:49Z</time>
      </trkpt>
      <trkpt lat="42.761469" lon="-8.653638">
        <ele>15.091</ele>
        <time>2019-05-01T09:31:00Z</time>
      </trkpt>
      <trkpt lat="42.762007" lon="-8.653765">
        <ele>13.672</ele>
        <time>2019-05-01T09:31:14Z</time>
      </trkpt>
      <trkpt lat="42.762515" lon="-8.653728">
        <ele>15.013</ele>
        <time>2019-05-01T09:31:28Z</time>
      </trkpt>
      <trkpt lat="42.762888" lon="-8.653643">
        <ele>16.414</ele>
        <time>2019-05-01T09:31:39Z</time>
      </trkpt>
      <trkpt lat="42.762919" lon="-8.653666">
        <ele>16.008</ele>
        <time>2019-05-01T09:31:40Z</time>
      </trkpt>
      <trkpt lat="42.762942" lon="-8.653703">
        <ele>16.080</ele>
        <time>2019-05-01T09:31:41Z</time>
      </trkpt>
      <trkpt lat="42.762963" lon="-8.653749">
        <ele>16.053</ele>
        <time>2019-05-01T09:31:42Z</time>
      </trkpt>
      <trkpt lat="42.762982" lon="-8.653798">
        <ele>16.079</ele>
        <time>2019-05-01T09:31:43Z</time>
      </trkpt>
      <trkpt lat="42.763063" lon="-8.653948">
        <ele>16.067</ele>
        <time>2019-05-01T09:31:46Z</time>
      </trkpt>
      <trkpt lat="42.763096" lon="-8.653998">
        <ele>16.065</ele>
        <time>2019-05-01T09:31:47Z</time>
      </trkpt>
      <trkpt lat="42.763128" lon="-8.654054">
        <ele>16.077</ele>
        <time>2019-05-01T09:31:48Z</time>
      </trkpt>
      <trkpt lat="42.763159" lon="-8.654113">
        <ele>15.567</ele>
        <time>2019-05-01T09:31:49Z</time>
      </trkpt>
      <trkpt lat="42.763189" lon="-8.654161">
        <ele>15.551</ele>
        <time>2019-05-01T09:31:50Z</time>
      </trkpt>
      <trkpt lat="42.763211" lon="-8.654195">
        <ele>15.079</ele>
        <time>2019-05-01T09:31:51Z</time>
      </trkpt>
      <trkpt lat="42.763229" lon="-8.654216">
        <ele>15.005</ele>
        <time>2019-05-01T09:31:52Z</time>
      </trkpt>
      <trkpt lat="42.763248" lon="-8.654230">
        <ele>14.525</ele>
        <time>2019-05-01T09:31:53Z</time>
      </trkpt>
      <trkpt lat="42.763268" lon="-8.654250">
        <ele>14.508</ele>
        <time>2019-05-01T09:31:54Z</time>
      </trkpt>
      <trkpt lat="42.763292" lon="-8.654277">
        <ele>14.570</ele>
        <time>2019-05-01T09:31:55Z</time>
      </trkpt>
      <trkpt lat="42.763318" lon="-8.654308">
        <ele>14.553</ele>
        <time>2019-05-01T09:31:56Z</time>
      </trkpt>
      <trkpt lat="42.763587" lon="-8.654416">
        <ele>14.599</ele>
        <time>2019-05-01T09:32:05Z</time>
      </trkpt>
      <trkpt lat="42.763932" lon="-8.654531">
        <ele>15.537</ele>
        <time>2019-05-01T09:32:16Z</time>
      </trkpt>
      <trkpt lat="42.764009" lon="-8.654587">
        <ele>14.585</ele>
        <time>2019-05-01T09:32:18Z</time>
      </trkpt>
      <trkpt lat="42.764162" lon="-8.654761">
        <ele>13.647</ele>
        <time>2019-05-01T09:32:25Z</time>
      </trkpt>
      <trkpt lat="42.764452" lon="-8.654914">
        <ele>12.647</ele>
        <time>2019-05-01T09:32:34Z</time>
      </trkpt>
      <trkpt lat="42.764584" lon="-8.655080">
        <ele>9.741</ele>
        <time>2019-05-01T09:32:39Z</time>
      </trkpt>
      <trkpt lat="42.764763" lon="-8.655314">
        <ele>6.888</ele>
        <time>2019-05-01T09:32:45Z</time>
      </trkpt>
      <trkpt lat="42.764846" lon="-8.655348">
        <ele>6.324</ele>
        <time>2019-05-01T09:32:47Z</time>
      </trkpt>
      <trkpt lat="42.764891" lon="-8.655356">
        <ele>5.926</ele>
        <time>2019-05-01T09:32:48Z</time>
      </trkpt>
      <trkpt lat="42.764936" lon="-8.655357">
        <ele>5.408</ele>
        <time>2019-05-01T09:32:49Z</time>
      </trkpt>
      <trkpt lat="42.764982" lon="-8.655353">
        <ele>5.471</ele>
        <time>2019-05-01T09:32:50Z</time>
      </trkpt>
      <trkpt lat="42.765174" lon="-8.655328">
        <ele>6.334</ele>
        <time>2019-05-01T09:32:54Z</time>
      </trkpt>
      <trkpt lat="42.765262" lon="-8.655304">
        <ele>7.360</ele>
        <time>2019-05-01T09:32:56Z</time>
      </trkpt>
      <trkpt lat="42.765304" lon="-8.655282">
        <ele>7.888</ele>
        <time>2019-05-01T09:32:57Z</time>
      </trkpt>
      <trkpt lat="42.765322" lon="-8.655240">
        <ele>8.396</ele>
        <time>2019-05-01T09:32:58Z</time>
      </trkpt>
      <trkpt lat="42.765323" lon="-8.655188">
        <ele>8.788</ele>
        <time>2019-05-01T09:32:59Z</time>
      </trkpt>
      <trkpt lat="42.765324" lon="-8.655137">
        <ele>9.298</ele>
        <time>2019-05-01T09:33:00Z</time>
      </trkpt>
      <trkpt lat="42.765335" lon="-8.654986">
        <ele>9.712</ele>
        <time>2019-05-01T09:33:03Z</time>
      </trkpt>
      <trkpt lat="42.765353" lon="-8.654956">
        <ele>9.796</ele>
        <time>2019-05-01T09:33:04Z</time>
      </trkpt>
      <trkpt lat="42.765380" lon="-8.654944">
        <ele>9.731</ele>
        <time>2019-05-01T09:33:05Z</time>
      </trkpt>
      <trkpt lat="42.765405" lon="-8.654931">
        <ele>9.724</ele>
        <time>2019-05-01T09:33:06Z</time>
      </trkpt>
      <trkpt lat="42.765433" lon="-8.654908">
        <ele>9.708</ele>
        <time>2019-05-01T09:33:07Z</time>
      </trkpt>
      <trkpt lat="42.765467" lon="-8.654877">
        <ele>9.752</ele>
        <time>2019-05-01T09:33:08Z</time>
      </trkpt>
      <trkpt lat="42.765506" lon="-8.654853">
        <ele>9.795</ele>
        <time>2019-05-01T09:33:09Z</time>
      </trkpt>
      <trkpt lat="42.765526" lon="-8.654815">
        <ele>9.741</ele>
        <time>2019-05-01T09:33:10Z</time>
      </trkpt>
      <trkpt lat="42.765533" lon="-8.654772">
        <ele>10.219</ele>
        <time>2019-05-01T09:33:11Z</time>
      </trkpt>
      <trkpt lat="42.765749" lon="-8.654308">
        <ele>13.197</ele>
        <time>2019-05-01T09:33:24Z</time>
      </trkpt>
      <trkpt lat="42.765818" lon="-8.654188">
        <ele>13.669</ele>
        <time>2019-05-01T09:33:28Z</time>
      </trkpt>
      <trkpt lat="42.765845" lon="-8.654175">
        <ele>14.029</ele>
        <time>2019-05-01T09:33:29Z</time>
      </trkpt>
      <trkpt lat="42.766210" lon="-8.654085">
        <ele>15.583</ele>
        <time>2019-05-01T09:33:43Z</time>
      </trkpt>
      <trkpt lat="42.766401" lon="-8.654119">
        <ele>17.973</ele>
        <time>2019-05-01T09:33:51Z</time>
      </trkpt>
      <trkpt lat="42.766463" lon="-8.654178">
        <ele>19.385</ele>
        <time>2019-05-01T09:33:54Z</time>
      </trkpt>
      <trkpt lat="42.766498" lon="-8.654376">
        <ele>18.813</ele>
        <time>2019-05-01T09:34:00Z</time>
      </trkpt>
      <trkpt lat="42.766461" lon="-8.654451">
        <ele>18.808</ele>
        <time>2019-05-01T09:34:02Z</time>
      </trkpt>
      <trkpt lat="42.766546" lon="-8.654780">
        <ele>18.410</ele>
        <time>2019-05-01T09:34:08Z</time>
      </trkpt>
      <trkpt lat="42.766569" lon="-8.654827">
        <ele>17.963</ele>
        <time>2019-05-01T09:34:09Z</time>
      </trkpt>
      <trkpt lat="42.766591" lon="-8.654876">
        <ele>17.979</ele>
        <time>2019-05-01T09:34:10Z</time>
      </trkpt>
      <trkpt lat="42.766618" lon="-8.654923">
        <ele>17.987</ele>
        <time>2019-05-01T09:34:11Z</time>
      </trkpt>
      <trkpt lat="42.766646" lon="-8.654970">
        <ele>17.455</ele>
        <time>2019-05-01T09:34:12Z</time>
      </trkpt>
      <trkpt lat="42.766666" lon="-8.655013">
        <ele>17.447</ele>
        <time>2019-05-01T09:34:13Z</time>
      </trkpt>
      <trkpt lat="42.766692" lon="-8.655050">
        <ele>17.417</ele>
        <time>2019-05-01T09:34:14Z</time>
      </trkpt>
      <trkpt lat="42.766714" lon="-8.655079">
        <ele>16.921</ele>
        <time>2019-05-01T09:34:15Z</time>
      </trkpt>
      <trkpt lat="42.766737" lon="-8.655109">
        <ele>16.965</ele>
        <time>2019-05-01T09:34:16Z</time>
      </trkpt>
      <trkpt lat="42.766929" lon="-8.655380">
        <ele>15.068</ele>
        <time>2019-05-01T09:34:23Z</time>
      </trkpt>
      <trkpt lat="42.766957" lon="-8.655416">
        <ele>14.514</ele>
        <time>2019-05-01T09:34:24Z</time>
      </trkpt>
      <trkpt lat="42.766992" lon="-8.655428">
        <ele>14.508</ele>
        <time>2019-05-01T09:34:25Z</time>
      </trkpt>
      <trkpt lat="42.767030" lon="-8.655411">
        <ele>14.049</ele>
        <time>2019-05-01T09:34:26Z</time>
      </trkpt>
      <trkpt lat="42.767062" lon="-8.655384">
        <ele>14.582</ele>
        <time>2019-05-01T09:34:27Z</time>
      </trkpt>
      <trkpt lat="42.767471" lon="-8.655072">
        <ele>16.018</ele>
        <time>2019-05-01T09:34:40Z</time>
      </trkpt>
      <trkpt lat="42.767889" lon="-8.654755">
        <ele>17.456</ele>
        <time>2019-05-01T09:34:54Z</time>
      </trkpt>
      <trkpt lat="42.768276" lon="-8.654495">
        <ele>17.944</ele>
        <time>2019-05-01T09:35:06Z</time>
      </trkpt>
      <trkpt lat="42.768758" lon="-8.654116">
        <ele>18.436</ele>
        <time>2019-05-01T09:35:21Z</time>
      </trkpt>
      <trkpt lat="42.769173" lon="-8.653804">
        <ele>19.356</ele>
        <time>2019-05-01T09:35:34Z</time>
      </trkpt>
      <trkpt lat="42.769648" lon="-8.653377">
        <ele>19.890</ele>
        <time>2019-05-01T09:35:50Z</time>
      </trkpt>
      <trkpt lat="42.769881" lon="-8.653084">
        <ele>19.817</ele>
        <time>2019-05-01T09:36:00Z</time>
      </trkpt>
      <trkpt lat="42.769898" lon="-8.653094">
        <ele>19.887</ele>
        <time>2019-05-01T09:36:01Z</time>
      </trkpt>
      <trkpt lat="42.769920" lon="-8.653120">
        <ele>19.815</ele>
        <time>2019-05-01T09:36:02Z</time>
      </trkpt>
      <trkpt lat="42.769940" lon="-8.653146">
        <ele>19.308</ele>
        <time>2019-05-01T09:36:03Z</time>
      </trkpt>
      <trkpt lat="42.769969" lon="-8.653179">
        <ele>19.354</ele>
        <time>2019-05-01T09:36:04Z</time>
      </trkpt>
      <trkpt lat="42.770001" lon="-8.653221">
        <ele>19.397</ele>
        <time>2019-05-01T09:36:05Z</time>
      </trkpt>
      <trkpt lat="42.770231" lon="-8.653572">
        <ele>19.383</ele>
        <time>2019-05-01T09:36:13Z</time>
      </trkpt>
      <trkpt lat="42.770263" lon="-8.653605">
        <ele>18.831</ele>
        <time>2019-05-01T09:36:14Z</time>
      </trkpt>
      <trkpt lat="42.770301" lon="-8.653625">
        <ele>18.879</ele>
        <time>2019-05-01T09:36:15Z</time>
      </trkpt>
      <trkpt lat="42.770339" lon="-8.653642">
        <ele>18.491</ele>
        <time>2019-05-01T09:36:16Z</time>
      </trkpt>
      <trkpt lat="42.770374" lon="-8.653661">
        <ele>18.421</ele>
        <time>2019-05-01T09:36:17Z</time>
      </trkpt>
      <trkpt lat="42.770433" lon="-8.653701">
        <ele>17.935</ele>
        <time>2019-05-01T09:36:19Z</time>
      </trkpt>
      <trkpt lat="42.770455" lon="-8.653737">
        <ele>17.963</ele>
        <time>2019-05-01T09:36:20Z</time>
      </trkpt>
      <trkpt lat="42.770462" lon="-8.653781">
        <ele>17.944</ele>
        <time>2019-05-01T09:36:21Z</time>
      </trkpt>
      <trkpt lat="42.770460" lon="-8.653829">
        <ele>17.918</ele>
        <time>2019-05-01T09:36:22Z</time>
      </trkpt>
      <trkpt lat="42.770454" lon="-8.653879">
        <ele>18.408</ele>
        <time>2019-05-01T09:36:23Z</time>
      </trkpt>
      <trkpt lat="42.770439" lon="-8.653922">
        <ele>18.469</ele>
        <time>2019-05-01T09:36:24Z</time>
      </trkpt>
      <trkpt lat="42.770421" lon="-8.653959">
        <ele>18.432</ele>
        <time>2019-05-01T09:36:25Z</time>
      </trkpt>
      <trkpt lat="42.770401" lon="-8.653996">
        <ele>18.438</ele>
        <time>2019-05-01T09:36:26Z</time>
      </trkpt>
      <trkpt lat="42.770387" lon="-8.654037">
        <ele>18.466</ele>
        <time>2019-05-01T09:36:27Z</time>
      </trkpt>
      <trkpt lat="42.770379" lon="-8.654078">
        <ele>18.494</ele>
        <time>2019-05-01T09:36:28Z</time>
      </trkpt>
      <trkpt lat="42.770375" lon="-8.654116">
        <ele>18.426</ele>
        <time>2019-05-01T09:36:29Z</time>
      </trkpt>
      <trkpt lat="42.770375" lon="-8.654147">
        <ele>18.476</ele>
        <time>2019-05-01T09:36:30Z</time>
      </trkpt>
      <trkpt lat="42.770379" lon="-8.654172">
        <ele>18.420</ele>
        <time>2019-05-01T09:36:31Z</time>
      </trkpt>
      <trkpt lat="42.770389" lon="-8.654200">
        <ele>18.883</ele>
        <time>2019-05-01T09:36:32Z</time>
      </trkpt>
      <trkpt lat="42.770402" lon="-8.654227">
        <ele>19.325</ele>
        <time>2019-05-01T09:36:33Z</time>
      </trkpt>
      <trkpt lat="42.770421" lon="-8.654243">
        <ele>19.817</ele>
        <time>2019-05-01T09:36:34Z</time>
      </trkpt>
      <trkpt lat="42.770445" lon="-8.654254">
        <ele>20.308</ele>
        <time>2019-05-01T09:36:35Z</time>
      </trkpt>
      <trkpt lat="42.770470" lon="-8.654270">
        <ele>20.841</ele>
        <time>2019-05-01T09:36:36Z</time>
      </trkpt>
      <trkpt lat="42.770497" lon="-8.654282">
        <ele>20.864</ele>
        <time>2019-05-01T09:36:37Z</time>
      </trkpt>
      <trkpt lat="42.770527" lon="-8.654290">
        <ele>21.250</ele>
        <time>2019-05-01T09:36:38Z</time>
      </trkpt>
      <trkpt lat="42.770556" lon="-8.654301">
        <ele>20.828</ele>
        <time>2019-05-01T09:36:39Z</time>
      </trkpt>
      <trkpt lat="42.770583" lon="-8.654314">
        <ele>20.876</ele>
        <time>2019-05-01T09:36:40Z</time>
      </trkpt>
      <trkpt lat="42.770918" lon="-8.654486">
        <ele>24.688</ele>
        <time>2019-05-01T09:36:52Z</time>
      </trkpt>
      <trkpt lat="42.771228" lon="-8.654525">
        <ele>25.118</ele>
        <time>2019-05-01T09:37:04Z</time>
      </trkpt>
      <trkpt lat="42.771237" lon="-8.654477">
        <ele>25.162</ele>
        <time>2019-05-01T09:37:05Z</time>
      </trkpt>
      <trkpt lat="42.771239" lon="-8.654420">
        <ele>25.194</ele>
        <time>2019-05-01T09:37:06Z</time>
      </trkpt>
      <trkpt lat="42.771230" lon="-8.654175">
        <ele>24.657</ele>
        <time>2019-05-01T09:37:10Z</time>
      </trkpt>
      <trkpt lat="42.771234" lon="-8.654110">
        <ele>24.622</ele>
        <time>2019-05-01T09:37:11Z</time>
      </trkpt>
      <trkpt lat="42.771248" lon="-8.654058">
        <ele>24.108</ele>
        <time>2019-05-01T09:37:12Z</time>
      </trkpt>
      <trkpt lat="42.771267" lon="-8.654022">
        <ele>24.152</ele>
        <time>2019-05-01T09:37:13Z</time>
      </trkpt>
      <trkpt lat="42.771286" lon="-8.653995">
        <ele>24.135</ele>
        <time>2019-05-01T09:37:14Z</time>
      </trkpt>
      <trkpt lat="42.771306" lon="-8.653971">
        <ele>24.661</ele>
        <time>2019-05-01T09:37:15Z</time>
      </trkpt>
      <trkpt lat="42.771344" lon="-8.653958">
        <ele>24.649</ele>
        <time>2019-05-01T09:37:16Z</time>
      </trkpt>
      <trkpt lat="42.771381" lon="-8.653955">
        <ele>24.617</ele>
        <time>2019-05-01T09:37:17Z</time>
      </trkpt>
      <trkpt lat="42.771422" lon="-8.653948">
        <ele>24.659</ele>
        <time>2019-05-01T09:37:18Z</time>
      </trkpt>
      <trkpt lat="42.772018" lon="-8.653865">
        <ele>24.669</ele>
        <time>2019-05-01T09:37:33Z</time>
      </trkpt>
      <trkpt lat="42.772561" lon="-8.653829">
        <ele>28.553</ele>
        <time>2019-05-01T09:37:47Z</time>
      </trkpt>
      <trkpt lat="42.772997" lon="-8.653738">
        <ele>30.436</ele>
        <time>2019-05-01T09:38:01Z</time>
      </trkpt>
      <trkpt lat="42.773508" lon="-8.653629">
        <ele>31.317</ele>
        <time>2019-05-01T09:38:18Z</time>
      </trkpt>
      <trkpt lat="42.773849" lon="-8.653587">
        <ele>32.818</ele>
        <time>2019-05-01T09:38:30Z</time>
      </trkpt>
      <trkpt lat="42.773865" lon="-8.653607">
        <ele>32.808</ele>
        <time>2019-05-01T09:38:31Z</time>
      </trkpt>
      <trkpt lat="42.773876" lon="-8.653634">
        <ele>32.866</ele>
        <time>2019-05-01T09:38:32Z</time>
      </trkpt>
      <trkpt lat="42.773969" lon="-8.654023">
        <ele>32.359</ele>
        <time>2019-05-01T09:38:41Z</time>
      </trkpt>
      <trkpt lat="42.773998" lon="-8.654051">
        <ele>32.375</ele>
        <time>2019-05-01T09:38:42Z</time>
      </trkpt>
      <trkpt lat="42.774033" lon="-8.654063">
        <ele>32.353</ele>
        <time>2019-05-01T09:38:43Z</time>
      </trkpt>
      <trkpt lat="42.774068" lon="-8.654061">
        <ele>31.851</ele>
        <time>2019-05-01T09:38:44Z</time>
      </trkpt>
      <trkpt lat="42.774103" lon="-8.654053">
        <ele>31.893</ele>
        <time>2019-05-01T09:38:45Z</time>
      </trkpt>
      <trkpt lat="42.774624" lon="-8.653980">
        <ele>33.323</ele>
        <time>2019-05-01T09:39:00Z</time>
      </trkpt>
      <trkpt lat="42.775248" lon="-8.653878">
        <ele>35.247</ele>
        <time>2019-05-01T09:39:17Z</time>
      </trkpt>
      <trkpt lat="42.776005" lon="-8.653781">
        <ele>33.747</ele>
        <time>2019-05-01T09:39:34Z</time>
      </trkpt>
      <trkpt lat="42.776348" lon="-8.653769">
        <ele>32.329</ele>
        <time>2019-05-01T09:39:43Z</time>
      </trkpt>
      <trkpt lat="42.776386" lon="-8.653752">
        <ele>32.321</ele>
        <time>2019-05-01T09:39:44Z</time>
      </trkpt>
      <trkpt lat="42.776425" lon="-8.653732">
        <ele>32.308</ele>
        <time>2019-05-01T09:39:45Z</time>
      </trkpt>
      <trkpt lat="42.776464" lon="-8.653714">
        <ele>31.877</ele>
        <time>2019-05-01T09:39:46Z</time>
      </trkpt>
      <trkpt lat="42.776504" lon="-8.653700">
        <ele>31.890</ele>
        <time>2019-05-01T09:39:47Z</time>
      </trkpt>
      <trkpt lat="42.776666" lon="-8.653629">
        <ele>32.376</ele>
        <time>2019-05-01T09:39:51Z</time>
      </trkpt>
      <trkpt lat="42.776714" lon="-8.653614">
        <ele>32.364</ele>
        <time>2019-05-01T09:39:52Z</time>
      </trkpt>
      <trkpt lat="42.776867" lon="-8.653608">
        <ele>32.372</ele>
        <time>2019-05-01T09:39:55Z</time>
      </trkpt>
      <trkpt lat="42.776927" lon="-8.653629">
        <ele>32.334</ele>
        <time>2019-05-01T09:39:56Z</time>
      </trkpt>
      <trkpt lat="42.777049" lon="-8.653673">
        <ele>32.334</ele>
        <time>2019-05-01T09:39:58Z</time>
      </trkpt>
      <trkpt lat="42.777105" lon="-8.653692">
        <ele>32.358</ele>
        <time>2019-05-01T09:39:59Z</time>
      </trkpt>
      <trkpt lat="42.777193" lon="-8.653751">
        <ele>32.333</ele>
        <time>2019-05-01T09:40:01Z</time>
      </trkpt>
      <trkpt lat="42.777225" lon="-8.653809">
        <ele>32.323</ele>
        <time>2019-05-01T09:40:02Z</time>
      </trkpt>
      <trkpt lat="42.777257" lon="-8.653869">
        <ele>31.815</ele>
        <time>2019-05-01T09:40:03Z</time>
      </trkpt>
      <trkpt lat="42.777297" lon="-8.653920">
        <ele>31.308</ele>
        <time>2019-05-01T09:40:04Z</time>
      </trkpt>
      <trkpt lat="42.777337" lon="-8.653956">
        <ele>30.986</ele>
        <time>2019-05-01T09:40:05Z</time>
      </trkpt>
      <trkpt lat="42.777376" lon="-8.653978">
        <ele>30.479</ele>
        <time>2019-05-01T09:40:06Z</time>
      </trkpt>
      <trkpt lat="42.777415" lon="-8.653972">
        <ele>29.915</ele>
        <time>2019-05-01T09:40:07Z</time>
      </trkpt>
      <trkpt lat="42.777446" lon="-8.653941">
        <ele>30.423</ele>
        <time>2019-05-01T09:40:08Z</time>
      </trkpt>
      <trkpt lat="42.777468" lon="-8.653903">
        <ele>30.461</ele>
        <time>2019-05-01T09:40:09Z</time>
      </trkpt>
      <trkpt lat="42.777493" lon="-8.653873">
        <ele>30.433</ele>
        <time>2019-05-01T09:40:10Z</time>
      </trkpt>
      <trkpt lat="42.777518" lon="-8.653843">
        <ele>30.483</ele>
        <time>2019-05-01T09:40:11Z</time>
      </trkpt>
      <trkpt lat="42.777547" lon="-8.653815">
        <ele>30.447</ele>
        <time>2019-05-01T09:40:12Z</time>
      </trkpt>
      <trkpt lat="42.777578" lon="-8.653793">
        <ele>30.472</ele>
        <time>2019-05-01T09:40:13Z</time>
      </trkpt>
      <trkpt lat="42.777986" lon="-8.653483">
        <ele>29.913</ele>
        <time>2019-05-01T09:40:28Z</time>
      </trkpt>
      <trkpt lat="42.778170" lon="-8.653452">
        <ele>29.414</ele>
        <time>2019-05-01T09:40:33Z</time>
      </trkpt>
      <trkpt lat="42.778215" lon="-8.653470">
        <ele>29.408</ele>
        <time>2019-05-01T09:40:34Z</time>
      </trkpt>
      <trkpt lat="42.778261" lon="-8.653498">
        <ele>28.910</ele>
        <time>2019-05-01T09:40:35Z</time>
      </trkpt>
      <trkpt lat="42.778307" lon="-8.653526">
        <ele>28.573</ele>
        <time>2019-05-01T09:40:36Z</time>
      </trkpt>
      <trkpt lat="42.778356" lon="-8.653548">
        <ele>28.059</ele>
        <time>2019-05-01T09:40:37Z</time>
      </trkpt>
      <trkpt lat="42.778405" lon="-8.653562">
        <ele>27.537</ele>
        <time>2019-05-01T09:40:38Z</time>
      </trkpt>
      <trkpt lat="42.778455" lon="-8.653568">
        <ele>27.565</ele>
        <time>2019-05-01T09:40:39Z</time>
      </trkpt>
      <trkpt lat="42.778501" lon="-8.653570">
        <ele>27.087</ele>
        <time>2019-05-01T09:40:40Z</time>
      </trkpt>
      <trkpt lat="42.778831" lon="-8.653452">
        <ele>29.927</ele>
        <time>2019-05-01T09:40:51Z</time>
      </trkpt>
      <trkpt lat="42.779041" lon="-8.653150">
        <ele>30.921</ele>
        <time>2019-05-01T09:41:01Z</time>
      </trkpt>
      <trkpt lat="42.779380" lon="-8.652655">
        <ele>28.921</ele>
        <time>2019-05-01T09:41:17Z</time>
      </trkpt>
      <trkpt lat="42.779636" lon="-8.652334">
        <ele>28.541</ele>
        <time>2019-05-01T09:41:28Z</time>
      </trkpt>
      <trkpt lat="42.779925" lon="-8.651993">
        <ele>30.905</ele>
        <time>2019-05-01T09:41:41Z</time>
      </trkpt>
      <trkpt lat="42.780048" lon="-8.651604">
        <ele>33.308</ele>
        <time>2019-05-01T09:41:53Z</time>
      </trkpt>
      <trkpt lat="42.780183" lon="-8.651142">
        <ele>35.275</ele>
        <time>2019-05-01T09:42:06Z</time>
      </trkpt>
      <trkpt lat="42.780222" lon="-8.651096">
        <ele>34.248</ele>
        <time>2019-05-01T09:42:20Z</time>
      </trkpt>
      <trkpt lat="42.780251" lon="-8.651027">
        <ele>34.244</ele>
        <time>2019-05-01T09:42:42Z</time>
      </trkpt>
      <trkpt lat="42.780276" lon="-8.651006">
        <ele>33.752</ele>
        <time>2019-05-01T09:42:43Z</time>
      </trkpt>
      <trkpt lat="42.780307" lon="-8.650990">
        <ele>33.750</ele>
        <time>2019-05-01T09:42:44Z</time>
      </trkpt>
      <trkpt lat="42.780995" lon="-8.650795">
        <ele>32.872</ele>
        <time>2019-05-01T09:43:00Z</time>
      </trkpt>
      <trkpt lat="42.781866" lon="-8.650587">
        <ele>32.882</ele>
        <time>2019-05-01T09:43:18Z</time>
      </trkpt>
      <trkpt lat="42.782417" lon="-8.650458">
        <ele>32.856</ele>
        <time>2019-05-01T09:43:30Z</time>
      </trkpt>
      <trkpt lat="42.782461" lon="-8.650444">
        <ele>32.897</ele>
        <time>2019-05-01T09:43:31Z</time>
      </trkpt>
      <trkpt lat="42.783107" lon="-8.650295">
        <ele>34.223</ele>
        <time>2019-05-01T09:43:46Z</time>
      </trkpt>
      <trkpt lat="42.783559" lon="-8.650191">
        <ele>36.125</ele>
        <time>2019-05-01T09:43:58Z</time>
      </trkpt>
      <trkpt lat="42.784019" lon="-8.650092">
        <ele>38.508</ele>
        <time>2019-05-01T09:44:12Z</time>
      </trkpt>
      <trkpt lat="42.784399" lon="-8.649919">
        <ele>39.082</ele>
        <time>2019-05-01T09:44:25Z</time>
      </trkpt>
      <trkpt lat="42.784612" lon="-8.649838">
        <ele>40.965</ele>
        <time>2019-05-01T09:44:32Z</time>
      </trkpt>
      <trkpt lat="42.784622" lon="-8.649806">
        <ele>41.481</ele>
        <time>2019-05-01T09:44:33Z</time>
      </trkpt>
      <trkpt lat="42.784540" lon="-8.649559">
        <ele>41.939</ele>
        <time>2019-05-01T09:44:43Z</time>
      </trkpt>
      <trkpt lat="42.784493" lon="-8.649668">
        <ele>41.447</ele>
        <time>2019-05-01T09:44:48Z</time>
      </trkpt>
      <trkpt lat="42.784420" lon="-8.649717">
        <ele>40.599</ele>
        <time>2019-05-01T09:44:51Z</time>
      </trkpt>
      <trkpt lat="42.784419" lon="-8.649703">
        <ele>40.539</ele>
        <time>2019-05-01T09:44:58Z</time>
      </trkpt>
      <trkpt lat="42.784412" lon="-8.649724">
        <ele>40.043</ele>
        <time>2019-05-01T09:44:59Z</time>
      </trkpt>
      <trkpt lat="42.784277" lon="-8.649818">
        <ele>40.937</ele>
        <time>2019-05-01T09:45:05Z</time>
      </trkpt>
      <trkpt lat="42.784087" lon="-8.650015">
        <ele>41.449</ele>
        <time>2019-05-01T09:45:15Z</time>
      </trkpt>
      <trkpt lat="42.784036" lon="-8.650001">
        <ele>40.913</ele>
        <time>2019-05-01T09:45:27Z</time>
      </trkpt>
      <trkpt lat="42.783999" lon="-8.650004">
        <ele>40.508</ele>
        <time>2019-05-01T09:45:41Z</time>
      </trkpt>
      <trkpt lat="42.783992" lon="-8.650004">
        <ele>40.996</ele>
        <time>2019-05-01T09:46:12Z</time>
      </trkpt>
      <trkpt lat="42.783983" lon="-8.650011">
        <ele>42.419</ele>
        <time>2019-05-01T09:46:39Z</time>
      </trkpt>
      <trkpt lat="42.783982" lon="-8.650014">
        <ele>43.495</ele>
        <time>2019-05-01T09:47:11Z</time>
      </trkpt>
      <trkpt lat="42.783995" lon="-8.650001">
        <ele>43.833</ele>
        <time>2019-05-01T09:47:36Z</time>
      </trkpt>
      <trkpt lat="42.783995" lon="-8.650002">
        <ele>43.881</ele>
        <time>2019-05-01T09:47:39Z</time>
      </trkpt>
      <trkpt lat="42.784094" lon="-8.649998">
        <ele>44.363</ele>
        <time>2019-05-01T09:47:46Z</time>
      </trkpt>
      <trkpt lat="42.784146" lon="-8.649973">
        <ele>44.313</ele>
        <time>2019-05-01T09:47:50Z</time>
      </trkpt>
      <trkpt lat="42.784168" lon="-8.649980">
        <ele>44.347</ele>
        <time>2019-05-01T09:47:52Z</time>
      </trkpt>
      <trkpt lat="42.784154" lon="-8.649936">
        <ele>43.478</ele>
        <time>2019-05-01T09:48:01Z</time>
      </trkpt>
      <trkpt lat="42.784208" lon="-8.649911">
        <ele>41.933</ele>
        <time>2019-05-01T09:48:08Z</time>
      </trkpt>
      <trkpt lat="42.784204" lon="-8.649880">
        <ele>41.926</ele>
        <time>2019-05-01T09:48:09Z</time>
      </trkpt>
      <trkpt lat="42.784158" lon="-8.649856">
        <ele>41.908</ele>
        <time>2019-05-01T09:48:15Z</time>
      </trkpt>
      <trkpt lat="42.784343" lon="-8.649696">
        <ele>42.930</ele>
        <time>2019-05-01T09:48:26Z</time>
      </trkpt>
      <trkpt lat="42.784460" lon="-8.649524">
        <ele>41.443</ele>
        <time>2019-05-01T09:48:34Z</time>
      </trkpt>
      <trkpt lat="42.784536" lon="-8.649466">
        <ele>40.589</ele>
        <time>2019-05-01T09:48:38Z</time>
      </trkpt>
      <trkpt lat="42.784673" lon="-8.649207">
        <ele>42.497</ele>
        <time>2019-05-01T09:48:51Z</time>
      </trkpt>
      <trkpt lat="42.784722" lon="-8.649120">
        <ele>42.485</ele>
        <time>2019-05-01T09:48:56Z</time>
      </trkpt>
      <trkpt lat="42.784826" lon="-8.648957">
        <ele>41.917</ele>
        <time>2019-05-01T09:49:06Z</time>
      </trkpt>
      <trkpt lat="42.784982" lon="-8.648819">
        <ele>40.527</ele>
        <time>2019-05-01T09:49:16Z</time>
      </trkpt>
      <trkpt lat="42.785222" lon="-8.648674">
        <ele>41.981</ele>
        <time>2019-05-01T09:49:29Z</time>
      </trkpt>
      <trkpt lat="42.785293" lon="-8.648618">
        <ele>42.496</ele>
        <time>2019-05-01T09:49:33Z</time>
      </trkpt>
      <trkpt lat="42.785383" lon="-8.648536">
        <ele>43.831</ele>
        <time>2019-05-01T09:49:38Z</time>
      </trkpt>
      <trkpt lat="42.785697" lon="-8.648186">
        <ele>48.224</ele>
        <time>2019-05-01T09:49:53Z</time>
      </trkpt>
      <trkpt lat="42.786028" lon="-8.647808">
        <ele>49.108</ele>
        <time>2019-05-01T09:50:10Z</time>
      </trkpt>
      <trkpt lat="42.786378" lon="-8.647852">
        <ele>51.562</ele>
        <time>2019-05-01T09:50:23Z</time>
      </trkpt>
      <trkpt lat="42.786735" lon="-8.647974">
        <ele>53.075</ele>
        <time>2019-05-01T09:50:35Z</time>
      </trkpt>
      <trkpt lat="42.786887" lon="-8.648102">
        <ele>53.021</ele>
        <time>2019-05-01T09:50:40Z</time>
      </trkpt>
      <trkpt lat="42.787020" lon="-8.648070">
        <ele>53.079</ele>
        <time>2019-05-01T09:50:44Z</time>
      </trkpt>
      <trkpt lat="42.787370" lon="-8.647808">
        <ele>52.027</ele>
        <time>2019-05-01T09:50:58Z</time>
      </trkpt>
      <trkpt lat="42.787756" lon="-8.647732">
        <ele>53.069</ele>
        <time>2019-05-01T09:51:09Z</time>
      </trkpt>
      <trkpt lat="42.788067" lon="-8.647710">
        <ele>53.429</ele>
        <time>2019-05-01T09:51:18Z</time>
      </trkpt>
      <trkpt lat="42.788055" lon="-8.647270">
        <ele>54.443</ele>
        <time>2019-05-01T09:51:28Z</time>
      </trkpt>
      <trkpt lat="42.788190" lon="-8.647150">
        <ele>54.964</ele>
        <time>2019-05-01T09:51:33Z</time>
      </trkpt>
      <trkpt lat="42.789086" lon="-8.646893">
        <ele>53.406</ele>
        <time>2019-05-01T09:51:54Z</time>
      </trkpt>
      <trkpt lat="42.789217" lon="-8.646856">
        <ele>53.016</ele>
        <time>2019-05-01T09:51:57Z</time>
      </trkpt>
      <trkpt lat="42.789260" lon="-8.646842">
        <ele>52.508</ele>
        <time>2019-05-01T09:51:58Z</time>
      </trkpt>
      <trkpt lat="42.789795" lon="-8.646671">
        <ele>50.669</ele>
        <time>2019-05-01T09:52:10Z</time>
      </trkpt>
      <trkpt lat="42.789891" lon="-8.646623">
        <ele>50.132</ele>
        <time>2019-05-01T09:52:12Z</time>
      </trkpt>
      <trkpt lat="42.789931" lon="-8.646577">
        <ele>49.698</ele>
        <time>2019-05-01T09:52:13Z</time>
      </trkpt>
      <trkpt lat="42.789950" lon="-8.646517">
        <ele>49.656</ele>
        <time>2019-05-01T09:52:14Z</time>
      </trkpt>
      <trkpt lat="42.789948" lon="-8.646454">
        <ele>50.174</ele>
        <time>2019-05-01T09:52:15Z</time>
      </trkpt>
      <trkpt lat="42.789934" lon="-8.646402">
        <ele>50.636</ele>
        <time>2019-05-01T09:52:16Z</time>
      </trkpt>
      <trkpt lat="42.789919" lon="-8.646360">
        <ele>50.656</ele>
        <time>2019-05-01T09:52:17Z</time>
      </trkpt>
      <trkpt lat="42.789860" lon="-8.645992">
        <ele>53.980</ele>
        <time>2019-05-01T09:52:29Z</time>
      </trkpt>
      <trkpt lat="42.789967" lon="-8.645577">
        <ele>56.864</ele>
        <time>2019-05-01T09:52:45Z</time>
      </trkpt>
      <trkpt lat="42.790046" lon="-8.645198">
        <ele>61.106</ele>
        <time>2019-05-01T09:53:00Z</time>
      </trkpt>
      <trkpt lat="42.790074" lon="-8.644895">
        <ele>63.516</ele>
        <time>2019-05-01T09:53:12Z</time>
      </trkpt>
      <trkpt lat="42.790095" lon="-8.644887">
        <ele>63.508</ele>
        <time>2019-05-01T09:53:13Z</time>
      </trkpt>
      <trkpt lat="42.790113" lon="-8.644888">
        <ele>63.599</ele>
        <time>2019-05-01T09:53:14Z</time>
      </trkpt>
      <trkpt lat="42.790132" lon="-8.644892">
        <ele>64.012</ele>
        <time>2019-05-01T09:53:15Z</time>
      </trkpt>
      <trkpt lat="42.790152" lon="-8.644898">
        <ele>64.088</ele>
        <time>2019-05-01T09:53:16Z</time>
      </trkpt>
      <trkpt lat="42.790172" lon="-8.644908">
        <ele>63.576</ele>
        <time>2019-05-01T09:53:17Z</time>
      </trkpt>
      <trkpt lat="42.790196" lon="-8.644912">
        <ele>63.534</ele>
        <time>2019-05-01T09:53:18Z</time>
      </trkpt>
      <trkpt lat="42.790221" lon="-8.644918">
        <ele>63.596</ele>
        <time>2019-05-01T09:53:19Z</time>
      </trkpt>
      <trkpt lat="42.790247" lon="-8.644927">
        <ele>63.536</ele>
        <time>2019-05-01T09:53:20Z</time>
      </trkpt>
      <trkpt lat="42.790544" lon="-8.644867">
        <ele>63.190</ele>
        <time>2019-05-01T09:53:30Z</time>
      </trkpt>
      <trkpt lat="42.790949" lon="-8.644845">
        <ele>61.614</ele>
        <time>2019-05-01T09:53:41Z</time>
      </trkpt>
      <trkpt lat="42.791464" lon="-8.644809">
        <ele>59.754</ele>
        <time>2019-05-01T09:53:54Z</time>
      </trkpt>
      <trkpt lat="42.791970" lon="-8.644588">
        <ele>62.109</ele>
        <time>2019-05-01T09:54:07Z</time>
      </trkpt>
      <trkpt lat="42.792006" lon="-8.644555">
        <ele>62.608</ele>
        <time>2019-05-01T09:54:08Z</time>
      </trkpt>
      <trkpt lat="42.792197" lon="-8.644274">
        <ele>62.664</ele>
        <time>2019-05-01T09:54:14Z</time>
      </trkpt>
      <trkpt lat="42.792370" lon="-8.643989">
        <ele>61.657</ele>
        <time>2019-05-01T09:54:19Z</time>
      </trkpt>
      <trkpt lat="42.792403" lon="-8.643945">
        <ele>61.693</ele>
        <time>2019-05-01T09:54:20Z</time>
      </trkpt>
      <trkpt lat="42.792437" lon="-8.643899">
        <ele>61.161</ele>
        <time>2019-05-01T09:54:21Z</time>
      </trkpt>
      <trkpt lat="42.792575" lon="-8.643707">
        <ele>61.179</ele>
        <time>2019-05-01T09:54:25Z</time>
      </trkpt>
      <trkpt lat="42.792921" lon="-8.643328">
        <ele>61.661</ele>
        <time>2019-05-01T09:54:37Z</time>
      </trkpt>
      <trkpt lat="42.793212" lon="-8.643074">
        <ele>61.131</ele>
        <time>2019-05-01T09:54:47Z</time>
      </trkpt>
      <trkpt lat="42.793493" lon="-8.642698">
        <ele>55.425</ele>
        <time>2019-05-01T09:54:58Z</time>
      </trkpt>
      <trkpt lat="42.793576" lon="-8.642614">
        <ele>53.944</ele>
        <time>2019-05-01T09:55:00Z</time>
      </trkpt>
      <trkpt lat="42.793846" lon="-8.642250">
        <ele>51.505</ele>
        <time>2019-05-01T09:55:06Z</time>
      </trkpt>
      <trkpt lat="42.793897" lon="-8.642170">
        <ele>51.015</ele>
        <time>2019-05-01T09:55:07Z</time>
      </trkpt>
      <trkpt lat="42.793949" lon="-8.642088">
        <ele>50.108</ele>
        <time>2019-05-01T09:55:08Z</time>
      </trkpt>
      <trkpt lat="42.794006" lon="-8.642007">
        <ele>49.657</ele>
        <time>2019-05-01T09:55:09Z</time>
      </trkpt>
      <trkpt lat="42.794067" lon="-8.641930">
        <ele>48.660</ele>
        <time>2019-05-01T09:55:10Z</time>
      </trkpt>
      <trkpt lat="42.794315" lon="-8.641647">
        <ele>46.216</ele>
        <time>2019-05-01T09:55:14Z</time>
      </trkpt>
      <trkpt lat="42.794375" lon="-8.641609">
        <ele>45.824</ele>
        <time>2019-05-01T09:55:15Z</time>
      </trkpt>
      <trkpt lat="42.794439" lon="-8.641594">
        <ele>45.332</ele>
        <time>2019-05-01T09:55:16Z</time>
      </trkpt>
      <trkpt lat="42.794505" lon="-8.641600">
        <ele>44.854</ele>
        <time>2019-05-01T09:55:17Z</time>
      </trkpt>
      <trkpt lat="42.794667" lon="-8.641689">
        <ele>43.424</ele>
        <time>2019-05-01T09:55:20Z</time>
      </trkpt>
      <trkpt lat="42.795288" lon="-8.642277">
        <ele>38.528</ele>
        <time>2019-05-01T09:55:33Z</time>
      </trkpt>
      <trkpt lat="42.795342" lon="-8.642308">
        <ele>38.519</ele>
        <time>2019-05-01T09:55:34Z</time>
      </trkpt>
      <trkpt lat="42.795395" lon="-8.642320">
        <ele>39.009</ele>
        <time>2019-05-01T09:55:35Z</time>
      </trkpt>
      <trkpt lat="42.795449" lon="-8.642312">
        <ele>39.519</ele>
        <time>2019-05-01T09:55:36Z</time>
      </trkpt>
      <trkpt lat="42.795496" lon="-8.642292">
        <ele>39.508</ele>
        <time>2019-05-01T09:55:37Z</time>
      </trkpt>
      <trkpt lat="42.795538" lon="-8.642276">
        <ele>40.014</ele>
        <time>2019-05-01T09:55:38Z</time>
      </trkpt>
      <trkpt lat="42.795575" lon="-8.642250">
        <ele>40.527</ele>
        <time>2019-05-01T09:55:39Z</time>
      </trkpt>
      <trkpt lat="42.795607" lon="-8.642209">
        <ele>40.963</ele>
        <time>2019-05-01T09:55:40Z</time>
      </trkpt>
      <trkpt lat="42.795634" lon="-8.642158">
        <ele>40.911</ele>
        <time>2019-05-01T09:55:41Z</time>
      </trkpt>
      <trkpt lat="42.795661" lon="-8.642106">
        <ele>40.989</ele>
        <time>2019-05-01T09:55:42Z</time>
      </trkpt>
      <trkpt lat="42.795689" lon="-8.642055">
        <ele>40.961</ele>
        <time>2019-05-01T09:55:43Z</time>
      </trkpt>
      <trkpt lat="42.795866" lon="-8.641814">
        <ele>40.931</ele>
        <time>2019-05-01T09:55:48Z</time>
      </trkpt>
      <trkpt lat="42.796119" lon="-8.641440">
        <ele>40.985</ele>
        <time>2019-05-01T09:55:55Z</time>
      </trkpt>
      <trkpt lat="42.796140" lon="-8.641377">
        <ele>40.919</ele>
        <time>2019-05-01T09:55:56Z</time>
      </trkpt>
      <trkpt lat="42.796153" lon="-8.641311">
        <ele>40.909</ele>
        <time>2019-05-01T09:55:57Z</time>
      </trkpt>
      <trkpt lat="42.796158" lon="-8.641244">
        <ele>40.919</ele>
        <time>2019-05-01T09:55:58Z</time>
      </trkpt>
      <trkpt lat="42.796159" lon="-8.641179">
        <ele>40.908</ele>
        <time>2019-05-01T09:55:59Z</time>
      </trkpt>
      <trkpt lat="42.796160" lon="-8.641117">
        <ele>41.474</ele>
        <time>2019-05-01T09:56:00Z</time>
      </trkpt>
      <trkpt lat="42.796173" lon="-8.640998">
        <ele>42.417</ele>
        <time>2019-05-01T09:56:02Z</time>
      </trkpt>
      <trkpt lat="42.796186" lon="-8.640941">
        <ele>42.413</ele>
        <time>2019-05-01T09:56:03Z</time>
      </trkpt>
      <trkpt lat="42.796243" lon="-8.640669">
        <ele>42.921</ele>
        <time>2019-05-01T09:56:08Z</time>
      </trkpt>
      <trkpt lat="42.796251" lon="-8.640614">
        <ele>43.469</ele>
        <time>2019-05-01T09:56:09Z</time>
      </trkpt>
      <trkpt lat="42.796262" lon="-8.640563">
        <ele>43.421</ele>
        <time>2019-05-01T09:56:10Z</time>
      </trkpt>
      <trkpt lat="42.796276" lon="-8.640512">
        <ele>43.821</ele>
        <time>2019-05-01T09:56:11Z</time>
      </trkpt>
      <trkpt lat="42.796291" lon="-8.640463">
        <ele>44.395</ele>
        <time>2019-05-01T09:56:12Z</time>
      </trkpt>
      <trkpt lat="42.796312" lon="-8.640417">
        <ele>44.359</ele>
        <time>2019-05-01T09:56:13Z</time>
      </trkpt>
      <trkpt lat="42.796337" lon="-8.640369">
        <ele>44.303</ele>
        <time>2019-05-01T09:56:14Z</time>
      </trkpt>
      <trkpt lat="42.796394" lon="-8.640277">
        <ele>44.323</ele>
        <time>2019-05-01T09:56:16Z</time>
      </trkpt>
      <trkpt lat="42.796427" lon="-8.640235">
        <ele>44.308</ele>
        <time>2019-05-01T09:56:17Z</time>
      </trkpt>
      <trkpt lat="42.796456" lon="-8.640182">
        <ele>44.348</ele>
        <time>2019-05-01T09:56:18Z</time>
      </trkpt>
      <trkpt lat="42.796476" lon="-8.640121">
        <ele>43.831</ele>
        <time>2019-05-01T09:56:19Z</time>
      </trkpt>
      <trkpt lat="42.796482" lon="-8.640062">
        <ele>43.897</ele>
        <time>2019-05-01T09:56:20Z</time>
      </trkpt>
      <trkpt lat="42.796474" lon="-8.640004">
        <ele>43.865</ele>
        <time>2019-05-01T09:56:21Z</time>
      </trkpt>
      <trkpt lat="42.796465" lon="-8.639950">
        <ele>43.843</ele>
        <time>2019-05-01T09:56:22Z</time>
      </trkpt>
      <trkpt lat="42.796451" lon="-8.639897">
        <ele>44.315</ele>
        <time>2019-05-01T09:56:23Z</time>
      </trkpt>
      <trkpt lat="42.796435" lon="-8.639844">
        <ele>44.855</ele>
        <time>2019-05-01T09:56:24Z</time>
      </trkpt>
      <trkpt lat="42.796361" lon="-8.639525">
        <ele>45.379</ele>
        <time>2019-05-01T09:56:30Z</time>
      </trkpt>
      <trkpt lat="42.796371" lon="-8.639467">
        <ele>45.359</ele>
        <time>2019-05-01T09:56:31Z</time>
      </trkpt>
      <trkpt lat="42.796406" lon="-8.639357">
        <ele>45.303</ele>
        <time>2019-05-01T09:56:33Z</time>
      </trkpt>
      <trkpt lat="42.796417" lon="-8.639300">
        <ele>44.823</ele>
        <time>2019-05-01T09:56:34Z</time>
      </trkpt>
      <trkpt lat="42.796420" lon="-8.639243">
        <ele>44.808</ele>
        <time>2019-05-01T09:56:35Z</time>
      </trkpt>
      <trkpt lat="42.796426" lon="-8.639192">
        <ele>44.818</ele>
        <time>2019-05-01T09:56:36Z</time>
      </trkpt>
      <trkpt lat="42.796444" lon="-8.639146">
        <ele>44.831</ele>
        <time>2019-05-01T09:56:37Z</time>
      </trkpt>
      <trkpt lat="42.796466" lon="-8.639104">
        <ele>44.897</ele>
        <time>2019-05-01T09:56:38Z</time>
      </trkpt>
      <trkpt lat="42.796495" lon="-8.639075">
        <ele>44.835</ele>
        <time>2019-05-01T09:56:39Z</time>
      </trkpt>
      <trkpt lat="42.796534" lon="-8.639064">
        <ele>44.873</ele>
        <time>2019-05-01T09:56:40Z</time>
      </trkpt>
      <trkpt lat="42.796575" lon="-8.639064">
        <ele>44.895</ele>
        <time>2019-05-01T09:56:41Z</time>
      </trkpt>
      <trkpt lat="42.796619" lon="-8.639074">
        <ele>44.885</ele>
        <time>2019-05-01T09:56:42Z</time>
      </trkpt>
      <trkpt lat="42.796670" lon="-8.639087">
        <ele>44.849</ele>
        <time>2019-05-01T09:56:43Z</time>
      </trkpt>
      <trkpt lat="42.796720" lon="-8.639081">
        <ele>44.826</ele>
        <time>2019-05-01T09:56:44Z</time>
      </trkpt>
      <trkpt lat="42.796763" lon="-8.639057">
        <ele>44.847</ele>
        <time>2019-05-01T09:56:45Z</time>
      </trkpt>
      <trkpt lat="42.796802" lon="-8.639020">
        <ele>45.311</ele>
        <time>2019-05-01T09:56:46Z</time>
      </trkpt>
      <trkpt lat="42.797162" lon="-8.638803">
        <ele>46.208</ele>
        <time>2019-05-01T09:56:56Z</time>
      </trkpt>
      <trkpt lat="42.797212" lon="-8.638788">
        <ele>46.275</ele>
        <time>2019-05-01T09:56:57Z</time>
      </trkpt>
      <trkpt lat="42.797259" lon="-8.638754">
        <ele>46.298</ele>
        <time>2019-05-01T09:56:58Z</time>
      </trkpt>
      <trkpt lat="42.797302" lon="-8.638703">
        <ele>46.254</ele>
        <time>2019-05-01T09:56:59Z</time>
      </trkpt>
      <trkpt lat="42.797375" lon="-8.638610">
        <ele>46.222</ele>
        <time>2019-05-01T09:57:01Z</time>
      </trkpt>
      <trkpt lat="42.797546" lon="-8.638432">
        <ele>45.320</ele>
        <time>2019-05-01T09:57:05Z</time>
      </trkpt>
      <trkpt lat="42.797584" lon="-8.638375">
        <ele>45.312</ele>
        <time>2019-05-01T09:57:06Z</time>
      </trkpt>
      <trkpt lat="42.797620" lon="-8.638318">
        <ele>44.882</ele>
        <time>2019-05-01T09:57:07Z</time>
      </trkpt>
      <trkpt lat="42.797660" lon="-8.638264">
        <ele>44.876</ele>
        <time>2019-05-01T09:57:08Z</time>
      </trkpt>
      <trkpt lat="42.797698" lon="-8.638211">
        <ele>44.833</ele>
        <time>2019-05-01T09:57:09Z</time>
      </trkpt>
      <trkpt lat="42.797731" lon="-8.638156">
        <ele>44.823</ele>
        <time>2019-05-01T09:57:10Z</time>
      </trkpt>
      <trkpt lat="42.797824" lon="-8.637994">
        <ele>43.815</ele>
        <time>2019-05-01T09:57:13Z</time>
      </trkpt>
      <trkpt lat="42.797856" lon="-8.637967">
        <ele>43.408</ele>
        <time>2019-05-01T09:57:17Z</time>
      </trkpt>
      <trkpt lat="42.797868" lon="-8.637993">
        <ele>43.416</ele>
        <time>2019-05-01T09:57:18Z</time>
      </trkpt>
      <trkpt lat="42.797901" lon="-8.638053">
        <ele>43.489</ele>
        <time>2019-05-01T09:57:20Z</time>
      </trkpt>
      <trkpt lat="42.797925" lon="-8.638061">
        <ele>42.945</ele>
        <time>2019-05-01T09:57:21Z</time>
      </trkpt>
      <trkpt lat="42.797951" lon="-8.638050">
        <ele>42.983</ele>
        <time>2019-05-01T09:57:22Z</time>
      </trkpt>
      <trkpt lat="42.797974" lon="-8.638030">
        <ele>42.931</ele>
        <time>2019-05-01T09:57:23Z</time>
      </trkpt>
      <trkpt lat="42.797995" lon="-8.638006">
        <ele>42.433</ele>
        <time>2019-05-01T09:57:24Z</time>
      </trkpt>
      <trkpt lat="42.798129" lon="-8.637700">
        <ele>43.833</ele>
        <time>2019-05-01T09:57:33Z</time>
      </trkpt>
      <trkpt lat="42.798275" lon="-8.637336">
        <ele>43.827</ele>
        <time>2019-05-01T09:57:44Z</time>
      </trkpt>
      <trkpt lat="42.798380" lon="-8.637054">
        <ele>43.417</ele>
        <time>2019-05-01T09:57:53Z</time>
      </trkpt>
      <trkpt lat="42.798438" lon="-8.636982">
        <ele>43.887</ele>
        <time>2019-05-01T09:57:56Z</time>
      </trkpt>
      <trkpt lat="42.798467" lon="-8.636973">
        <ele>43.815</ele>
        <time>2019-05-01T09:57:57Z</time>
      </trkpt>
      <trkpt lat="42.798722" lon="-8.636841">
        <ele>40.508</ele>
        <time>2019-05-01T09:58:09Z</time>
      </trkpt>
      <trkpt lat="42.798768" lon="-8.636801">
        <ele>38.574</ele>
        <time>2019-05-01T09:58:23Z</time>
      </trkpt>
      <trkpt lat="42.798782" lon="-8.636810">
        <ele>38.527</ele>
        <time>2019-05-01T09:58:55Z</time>
      </trkpt>
      <trkpt lat="42.798792" lon="-8.636802">
        <ele>40.973</ele>
        <time>2019-05-01T09:59:20Z</time>
      </trkpt>
      <trkpt lat="42.798806" lon="-8.636801">
        <ele>42.421</ele>
        <time>2019-05-01T09:59:40Z</time>
      </trkpt>
      <trkpt lat="42.798815" lon="-8.636784">
        <ele>42.449</ele>
        <time>2019-05-01T09:59:41Z</time>
      </trkpt>
      <trkpt lat="42.798831" lon="-8.636765">
        <ele>42.411</ele>
        <time>2019-05-01T09:59:42Z</time>
      </trkpt>
      <trkpt lat="42.799080" lon="-8.636544">
        <ele>45.811</ele>
        <time>2019-05-01T09:59:53Z</time>
      </trkpt>
      <trkpt lat="42.799200" lon="-8.636407">
        <ele>47.275</ele>
        <time>2019-05-01T09:59:59Z</time>
      </trkpt>
      <trkpt lat="42.799201" lon="-8.636369">
        <ele>47.713</ele>
        <time>2019-05-01T10:00:00Z</time>
      </trkpt>
      <trkpt lat="42.799193" lon="-8.636335">
        <ele>47.743</ele>
        <time>2019-05-01T10:00:01Z</time>
      </trkpt>
      <trkpt lat="42.799182" lon="-8.636304">
        <ele>47.707</ele>
        <time>2019-05-01T10:00:02Z</time>
      </trkpt>
      <trkpt lat="42.799169" lon="-8.636274">
        <ele>48.208</ele>
        <time>2019-05-01T10:00:03Z</time>
      </trkpt>
      <trkpt lat="42.798998" lon="-8.635869">
        <ele>50.164</ele>
        <time>2019-05-01T10:00:17Z</time>
      </trkpt>
      <trkpt lat="42.798922" lon="-8.635547">
        <ele>50.647</ele>
        <time>2019-05-01T10:00:27Z</time>
      </trkpt>
      <trkpt lat="42.798933" lon="-8.635516">
        <ele>50.683</ele>
        <time>2019-05-01T10:00:28Z</time>
      </trkpt>
      <trkpt lat="42.799185" lon="-8.635120">
        <ele>53.041</ele>
        <time>2019-05-01T10:00:43Z</time>
      </trkpt>
      <trkpt lat="42.799420" lon="-8.634742">
        <ele>56.889</ele>
        <time>2019-05-01T10:00:58Z</time>
      </trkpt>
      <trkpt lat="42.799517" lon="-8.634575">
        <ele>57.351</ele>
        <time>2019-05-01T10:01:05Z</time>
      </trkpt>
      <trkpt lat="42.799620" lon="-8.634532">
        <ele>57.391</ele>
        <time>2019-05-01T10:01:10Z</time>
      </trkpt>
      <trkpt lat="42.799682" lon="-8.634563">
        <ele>57.385</ele>
        <time>2019-05-01T10:01:14Z</time>
      </trkpt>
      <trkpt lat="42.799693" lon="-8.634692">
        <ele>57.386</ele>
        <time>2019-05-01T10:01:18Z</time>
      </trkpt>
      <trkpt lat="42.799818" lon="-8.634896">
        <ele>56.360</ele>
        <time>2019-05-01T10:01:25Z</time>
      </trkpt>
      <trkpt lat="42.800015" lon="-8.635297">
        <ele>57.326</ele>
        <time>2019-05-01T10:01:34Z</time>
      </trkpt>
      <trkpt lat="42.800041" lon="-8.635347">
        <ele>57.308</ele>
        <time>2019-05-01T10:01:35Z</time>
      </trkpt>
      <trkpt lat="42.800068" lon="-8.635398">
        <ele>57.371</ele>
        <time>2019-05-01T10:01:36Z</time>
      </trkpt>
      <trkpt lat="42.800092" lon="-8.635452">
        <ele>57.354</ele>
        <time>2019-05-01T10:01:37Z</time>
      </trkpt>
      <trkpt lat="42.800115" lon="-8.635514">
        <ele>57.380</ele>
        <time>2019-05-01T10:01:38Z</time>
      </trkpt>
      <trkpt lat="42.800129" lon="-8.635577">
        <ele>56.878</ele>
        <time>2019-05-01T10:01:39Z</time>
      </trkpt>
      <trkpt lat="42.800141" lon="-8.635637">
        <ele>56.886</ele>
        <time>2019-05-01T10:01:40Z</time>
      </trkpt>
      <trkpt lat="42.800154" lon="-8.635699">
        <ele>56.838</ele>
        <time>2019-05-01T10:01:41Z</time>
      </trkpt>
      <trkpt lat="42.800169" lon="-8.635760">
        <ele>56.888</ele>
        <time>2019-05-01T10:01:42Z</time>
      </trkpt>
      <trkpt lat="42.800187" lon="-8.635815">
        <ele>56.892</ele>
        <time>2019-05-01T10:01:43Z</time>
      </trkpt>
      <trkpt lat="42.800209" lon="-8.635867">
        <ele>56.871</ele>
        <time>2019-05-01T10:01:44Z</time>
      </trkpt>
      <trkpt lat="42.800265" lon="-8.635969">
        <ele>56.341</ele>
        <time>2019-05-01T10:01:46Z</time>
      </trkpt>
      <trkpt lat="42.800301" lon="-8.636018">
        <ele>55.815</ele>
        <time>2019-05-01T10:01:47Z</time>
      </trkpt>
      <trkpt lat="42.800571" lon="-8.636289">
        <ele>55.808</ele>
        <time>2019-05-01T10:01:54Z</time>
      </trkpt>
      <trkpt lat="42.800784" lon="-8.636401">
        <ele>53.970</ele>
        <time>2019-05-01T10:01:58Z</time>
      </trkpt>
      <trkpt lat="42.800840" lon="-8.636443">
        <ele>53.443</ele>
        <time>2019-05-01T10:01:59Z</time>
      </trkpt>
      <trkpt lat="42.800890" lon="-8.636498">
        <ele>53.459</ele>
        <time>2019-05-01T10:02:00Z</time>
      </trkpt>
      <trkpt lat="42.800931" lon="-8.636570">
        <ele>53.097</ele>
        <time>2019-05-01T10:02:01Z</time>
      </trkpt>
      <trkpt lat="42.800962" lon="-8.636654">
        <ele>53.025</ele>
        <time>2019-05-01T10:02:02Z</time>
      </trkpt>
      <trkpt lat="42.800984" lon="-8.636744">
        <ele>52.537</ele>
        <time>2019-05-01T10:02:03Z</time>
      </trkpt>
      <trkpt lat="42.801007" lon="-8.636835">
        <ele>52.577</ele>
        <time>2019-05-01T10:02:04Z</time>
      </trkpt>
      <trkpt lat="42.801061" lon="-8.637006">
        <ele>52.081</ele>
        <time>2019-05-01T10:02:06Z</time>
      </trkpt>
      <trkpt lat="42.801098" lon="-8.637083">
        <ele>52.024</ele>
        <time>2019-05-01T10:02:07Z</time>
      </trkpt>
      <trkpt lat="42.801138" lon="-8.637155">
        <ele>51.504</ele>
        <time>2019-05-01T10:02:08Z</time>
      </trkpt>
      <trkpt lat="42.801183" lon="-8.637217">
        <ele>51.514</ele>
        <time>2019-05-01T10:02:09Z</time>
      </trkpt>
      <trkpt lat="42.801231" lon="-8.637271">
        <ele>51.008</ele>
        <time>2019-05-01T10:02:10Z</time>
      </trkpt>
      <trkpt lat="42.801282" lon="-8.637317">
        <ele>51.085</ele>
        <time>2019-05-01T10:02:11Z</time>
      </trkpt>
      <trkpt lat="42.801334" lon="-8.637352">
        <ele>50.648</ele>
        <time>2019-05-01T10:02:12Z</time>
      </trkpt>
      <trkpt lat="42.801388" lon="-8.637385">
        <ele>50.614</ele>
        <time>2019-05-01T10:02:13Z</time>
      </trkpt>
      <trkpt lat="42.802006" lon="-8.637923">
        <ele>47.262</ele>
        <time>2019-05-01T10:02:26Z</time>
      </trkpt>
      <trkpt lat="42.802042" lon="-8.637924">
        <ele>47.270</ele>
        <time>2019-05-01T10:02:27Z</time>
      </trkpt>
      <trkpt lat="42.802081" lon="-8.637912">
        <ele>47.282</ele>
        <time>2019-05-01T10:02:28Z</time>
      </trkpt>
      <trkpt lat="42.802440" lon="-8.637657">
        <ele>46.782</ele>
        <time>2019-05-01T10:02:40Z</time>
      </trkpt>
      <trkpt lat="42.802830" lon="-8.637308">
        <ele>46.786</ele>
        <time>2019-05-01T10:02:53Z</time>
      </trkpt>
      <trkpt lat="42.803463" lon="-8.636761">
        <ele>47.766</ele>
        <time>2019-05-01T10:03:12Z</time>
      </trkpt>
      <trkpt lat="42.803716" lon="-8.636533">
        <ele>47.229</ele>
        <time>2019-05-01T10:03:24Z</time>
      </trkpt>
      <trkpt lat="42.803751" lon="-8.636534">
        <ele>47.221</ele>
        <time>2019-05-01T10:03:26Z</time>
      </trkpt>
      <trkpt lat="42.803771" lon="-8.636558">
        <ele>47.208</ele>
        <time>2019-05-01T10:03:27Z</time>
      </trkpt>
      <trkpt lat="42.803784" lon="-8.636593">
        <ele>47.779</ele>
        <time>2019-05-01T10:03:28Z</time>
      </trkpt>
      <trkpt lat="42.803818" lon="-8.636717">
        <ele>46.242</ele>
        <time>2019-05-01T10:03:31Z</time>
      </trkpt>
      <trkpt lat="42.803856" lon="-8.636857">
        <ele>45.898</ele>
        <time>2019-05-01T10:03:33Z</time>
      </trkpt>
      <trkpt lat="42.804043" lon="-8.637341">
        <ele>42.956</ele>
        <time>2019-05-01T10:03:40Z</time>
      </trkpt>
      <trkpt lat="42.804072" lon="-8.637395">
        <ele>42.984</ele>
        <time>2019-05-01T10:03:41Z</time>
      </trkpt>
      <trkpt lat="42.804099" lon="-8.637454">
        <ele>42.436</ele>
        <time>2019-05-01T10:03:42Z</time>
      </trkpt>
      <trkpt lat="42.804130" lon="-8.637521">
        <ele>41.996</ele>
        <time>2019-05-01T10:03:43Z</time>
      </trkpt>
      <trkpt lat="42.804165" lon="-8.637588">
        <ele>41.460</ele>
        <time>2019-05-01T10:03:44Z</time>
      </trkpt>
      <trkpt lat="42.804478" lon="-8.638162">
        <ele>38.559</ele>
        <time>2019-05-01T10:03:54Z</time>
      </trkpt>
      <trkpt lat="42.804487" lon="-8.638151">
        <ele>38.503</ele>
        <time>2019-05-01T10:03:55Z</time>
      </trkpt>
      <trkpt lat="42.804493" lon="-8.638139">
        <ele>39.023</ele>
        <time>2019-05-01T10:03:56Z</time>
      </trkpt>
      <trkpt lat="42.804494" lon="-8.638127">
        <ele>39.008</ele>
        <time>2019-05-01T10:03:57Z</time>
      </trkpt>
      <trkpt lat="42.804495" lon="-8.638113">
        <ele>39.048</ele>
        <time>2019-05-01T10:03:58Z</time>
      </trkpt>
      <trkpt lat="42.804504" lon="-8.638100">
        <ele>39.091</ele>
        <time>2019-05-01T10:04:01Z</time>
      </trkpt>
      <trkpt lat="42.804570" lon="-8.638028">
        <ele>39.057</ele>
        <time>2019-05-01T10:04:05Z</time>
      </trkpt>
      <trkpt lat="42.804696" lon="-8.637910">
        <ele>39.535</ele>
        <time>2019-05-01T10:04:10Z</time>
      </trkpt>
      <trkpt lat="42.804818" lon="-8.637862">
        <ele>40.063</ele>
        <time>2019-05-01T10:04:13Z</time>
      </trkpt>
      <trkpt lat="42.804997" lon="-8.637750">
        <ele>40.555</ele>
        <time>2019-05-01T10:04:17Z</time>
      </trkpt>
      <trkpt lat="42.805094" lon="-8.637685">
        <ele>40.955</ele>
        <time>2019-05-01T10:04:19Z</time>
      </trkpt>
      <trkpt lat="42.805498" lon="-8.637430">
        <ele>41.959</ele>
        <time>2019-05-01T10:04:30Z</time>
      </trkpt>
      <trkpt lat="42.805874" lon="-8.637260">
        <ele>41.945</ele>
        <time>2019-05-01T10:04:39Z</time>
      </trkpt>
      <trkpt lat="42.805912" lon="-8.637270">
        <ele>41.947</ele>
        <time>2019-05-01T10:04:40Z</time>
      </trkpt>
      <trkpt lat="42.806013" lon="-8.637328">
        <ele>40.911</ele>
        <time>2019-05-01T10:04:43Z</time>
      </trkpt>
      <trkpt lat="42.806126" lon="-8.637356">
        <ele>40.508</ele>
        <time>2019-05-01T10:04:46Z</time>
      </trkpt>
      <trkpt lat="42.806168" lon="-8.637346">
        <ele>40.597</ele>
        <time>2019-05-01T10:04:47Z</time>
      </trkpt>
      <trkpt lat="42.806211" lon="-8.637350">
        <ele>40.540</ele>
        <time>2019-05-01T10:04:48Z</time>
      </trkpt>
      <trkpt lat="42.806256" lon="-8.637352">
        <ele>40.596</ele>
        <time>2019-05-01T10:04:49Z</time>
      </trkpt>
      <trkpt lat="42.806306" lon="-8.637353">
        <ele>40.594</ele>
        <time>2019-05-01T10:04:50Z</time>
      </trkpt>
      <trkpt lat="42.806357" lon="-8.637356">
        <ele>40.532</ele>
        <time>2019-05-01T10:04:51Z</time>
      </trkpt>
      <trkpt lat="42.806409" lon="-8.637359">
        <ele>40.594</ele>
        <time>2019-05-01T10:04:52Z</time>
      </trkpt>
      <trkpt lat="42.806542" lon="-8.637338">
        <ele>40.024</ele>
        <time>2019-05-01T10:04:57Z</time>
      </trkpt>
      <trkpt lat="42.806698" lon="-8.637033">
        <ele>39.578</ele>
        <time>2019-05-01T10:05:09Z</time>
      </trkpt>
      <trkpt lat="42.806711" lon="-8.636929">
        <ele>40.534</ele>
        <time>2019-05-01T10:05:11Z</time>
      </trkpt>
      <trkpt lat="42.806976" lon="-8.636531">
        <ele>40.555</ele>
        <time>2019-05-01T10:05:21Z</time>
      </trkpt>
      <trkpt lat="42.807142" lon="-8.636438">
        <ele>40.010</ele>
        <time>2019-05-01T10:05:25Z</time>
      </trkpt>
      <trkpt lat="42.807322" lon="-8.636029">
        <ele>41.408</ele>
        <time>2019-05-01T10:05:34Z</time>
      </trkpt>
      <trkpt lat="42.807342" lon="-8.635827">
        <ele>44.346</ele>
        <time>2019-05-01T10:05:40Z</time>
      </trkpt>
      <trkpt lat="42.807349" lon="-8.635706">
        <ele>45.859</ele>
        <time>2019-05-01T10:05:44Z</time>
      </trkpt>
      <trkpt lat="42.807369" lon="-8.635659">
        <ele>47.295</ele>
        <time>2019-05-01T10:05:46Z</time>
      </trkpt>
      <trkpt lat="42.807500" lon="-8.635322">
        <ele>53.043</ele>
        <time>2019-05-01T10:05:57Z</time>
      </trkpt>
      <trkpt lat="42.807528" lon="-8.635295">
        <ele>54.421</ele>
        <time>2019-05-01T10:05:59Z</time>
      </trkpt>
      <trkpt lat="42.807695" lon="-8.635012">
        <ele>60.213</ele>
        <time>2019-05-01T10:06:11Z</time>
      </trkpt>
      <trkpt lat="42.807705" lon="-8.634982">
        <ele>59.743</ele>
        <time>2019-05-01T10:06:12Z</time>
      </trkpt>
      <trkpt lat="42.807792" lon="-8.634805">
        <ele>61.117</ele>
        <time>2019-05-01T10:06:19Z</time>
      </trkpt>
      <trkpt lat="42.807834" lon="-8.634641">
        <ele>59.226</ele>
        <time>2019-05-01T10:06:25Z</time>
      </trkpt>
      <trkpt lat="42.807937" lon="-8.634489">
        <ele>57.847</ele>
        <time>2019-05-01T10:06:31Z</time>
      </trkpt>
      <trkpt lat="42.807972" lon="-8.634443">
        <ele>57.811</ele>
        <time>2019-05-01T10:06:35Z</time>
      </trkpt>
      <trkpt lat="42.808003" lon="-8.634307">
        <ele>56.308</ele>
        <time>2019-05-01T10:06:40Z</time>
      </trkpt>
      <trkpt lat="42.808047" lon="-8.634204">
        <ele>54.935</ele>
        <time>2019-05-01T10:06:43Z</time>
      </trkpt>
      <trkpt lat="42.808078" lon="-8.634100">
        <ele>52.528</ele>
        <time>2019-05-01T10:06:48Z</time>
      </trkpt>
      <trkpt lat="42.808122" lon="-8.633964">
        <ele>51.524</ele>
        <time>2019-05-01T10:06:53Z</time>
      </trkpt>
      <trkpt lat="42.808318" lon="-8.633431">
        <ele>50.142</ele>
        <time>2019-05-01T10:07:03Z</time>
      </trkpt>
      <trkpt lat="42.808387" lon="-8.633306">
        <ele>48.620</ele>
        <time>2019-05-01T10:07:06Z</time>
      </trkpt>
      <trkpt lat="42.808467" lon="-8.633150">
        <ele>48.632</ele>
        <time>2019-05-01T10:07:10Z</time>
      </trkpt>
      <trkpt lat="42.808584" lon="-8.632890">
        <ele>46.732</ele>
        <time>2019-05-01T10:07:20Z</time>
      </trkpt>
      <trkpt lat="42.808635" lon="-8.632756">
        <ele>45.366</ele>
        <time>2019-05-01T10:07:23Z</time>
      </trkpt>
      <trkpt lat="42.808699" lon="-8.632574">
        <ele>42.994</ele>
        <time>2019-05-01T10:07:29Z</time>
      </trkpt>
      <trkpt lat="42.808718" lon="-8.632492">
        <ele>41.457</ele>
        <time>2019-05-01T10:07:32Z</time>
      </trkpt>
      <trkpt lat="42.808877" lon="-8.632254">
        <ele>40.922</ele>
        <time>2019-05-01T10:07:42Z</time>
      </trkpt>
      <trkpt lat="42.808943" lon="-8.632184">
        <ele>42.908</ele>
        <time>2019-05-01T10:07:45Z</time>
      </trkpt>
      <trkpt lat="42.809019" lon="-8.632094">
        <ele>45.862</ele>
        <time>2019-05-01T10:07:51Z</time>
      </trkpt>
      <trkpt lat="42.809052" lon="-8.632000">
        <ele>47.255</ele>
        <time>2019-05-01T10:07:56Z</time>
      </trkpt>
      <trkpt lat="42.809120" lon="-8.631882">
        <ele>50.191</ele>
        <time>2019-05-01T10:08:00Z</time>
      </trkpt>
      <trkpt lat="42.809168" lon="-8.631645">
        <ele>52.079</ele>
        <time>2019-05-01T10:08:09Z</time>
      </trkpt>
      <trkpt lat="42.809239" lon="-8.631430">
        <ele>52.527</ele>
        <time>2019-05-01T10:08:22Z</time>
      </trkpt>
      <trkpt lat="42.809219" lon="-8.631286">
        <ele>54.969</ele>
        <time>2019-05-01T10:08:29Z</time>
      </trkpt>
      <trkpt lat="42.809232" lon="-8.631252">
        <ele>55.439</ele>
        <time>2019-05-01T10:08:32Z</time>
      </trkpt>
      <trkpt lat="42.809239" lon="-8.631199">
        <ele>55.443</ele>
        <time>2019-05-01T10:08:35Z</time>
      </trkpt>
      <trkpt lat="42.809241" lon="-8.631125">
        <ele>53.431</ele>
        <time>2019-05-01T10:08:39Z</time>
      </trkpt>
      <trkpt lat="42.809258" lon="-8.631062">
        <ele>51.561</ele>
        <time>2019-05-01T10:08:42Z</time>
      </trkpt>
      <trkpt lat="42.809261" lon="-8.631005">
        <ele>48.607</ele>
        <time>2019-05-01T10:08:46Z</time>
      </trkpt>
      <trkpt lat="42.809267" lon="-8.630927">
        <ele>45.808</ele>
        <time>2019-05-01T10:08:50Z</time>
      </trkpt>
      <trkpt lat="42.809262" lon="-8.630856">
        <ele>42.926</ele>
        <time>2019-05-01T10:08:55Z</time>
      </trkpt>
      <trkpt lat="42.809340" lon="-8.630733">
        <ele>42.969</ele>
        <time>2019-05-01T10:09:00Z</time>
      </trkpt>
      <trkpt lat="42.809379" lon="-8.630792">
        <ele>51.035</ele>
        <time>2019-05-01T10:09:11Z</time>
      </trkpt>
      <trkpt lat="42.809437" lon="-8.630782">
        <ele>58.393</ele>
        <time>2019-05-01T10:09:37Z</time>
      </trkpt>
      <trkpt lat="42.809471" lon="-8.630796">
        <ele>64.541</ele>
        <time>2019-05-01T10:10:04Z</time>
      </trkpt>
      <trkpt lat="42.809464" lon="-8.630795">
        <ele>65.913</ele>
        <time>2019-05-01T10:10:10Z</time>
      </trkpt>
      <trkpt lat="42.809484" lon="-8.630781">
        <ele>66.973</ele>
        <time>2019-05-01T10:10:15Z</time>
      </trkpt>
      <trkpt lat="42.809430" lon="-8.630838">
        <ele>67.947</ele>
        <time>2019-05-01T10:10:21Z</time>
      </trkpt>
      <trkpt lat="42.809371" lon="-8.630967">
        <ele>71.226</ele>
        <time>2019-05-01T10:10:32Z</time>
      </trkpt>
      <trkpt lat="42.809351" lon="-8.630988">
        <ele>71.747</ele>
        <time>2019-05-01T10:10:34Z</time>
      </trkpt>
      <trkpt lat="42.809343" lon="-8.631014">
        <ele>71.711</ele>
        <time>2019-05-01T10:10:36Z</time>
      </trkpt>
      <trkpt lat="42.809262" lon="-8.631069">
        <ele>73.208</ele>
        <time>2019-05-01T10:10:42Z</time>
      </trkpt>
      <trkpt lat="42.809236" lon="-8.631049">
        <ele>73.235</ele>
        <time>2019-05-01T10:10:44Z</time>
      </trkpt>
      <trkpt lat="42.809291" lon="-8.630783">
        <ele>70.778</ele>
        <time>2019-05-01T10:10:57Z</time>
      </trkpt>
      <trkpt lat="42.809446" lon="-8.630394">
        <ele>71.244</ele>
        <time>2019-05-01T10:11:11Z</time>
      </trkpt>
      <trkpt lat="42.809538" lon="-8.629916">
        <ele>72.262</ele>
        <time>2019-05-01T10:11:23Z</time>
      </trkpt>
      <trkpt lat="42.809704" lon="-8.629277">
        <ele>72.720</ele>
        <time>2019-05-01T10:11:36Z</time>
      </trkpt>
      <trkpt lat="42.809785" lon="-8.628828">
        <ele>72.222</ele>
        <time>2019-05-01T10:11:45Z</time>
      </trkpt>
      <trkpt lat="42.809791" lon="-8.628352">
        <ele>73.272</ele>
        <time>2019-05-01T10:11:54Z</time>
      </trkpt>
      <trkpt lat="42.809800" lon="-8.628162">
        <ele>73.266</ele>
        <time>2019-05-01T10:11:57Z</time>
      </trkpt>
      <trkpt lat="42.809787" lon="-8.628036">
        <ele>73.629</ele>
        <time>2019-05-01T10:11:59Z</time>
      </trkpt>
      <trkpt lat="42.809770" lon="-8.627967">
        <ele>73.200</ele>
        <time>2019-05-01T10:12:00Z</time>
      </trkpt>
      <trkpt lat="42.809441" lon="-8.626907">
        <ele>69.820</ele>
        <time>2019-05-01T10:12:12Z</time>
      </trkpt>
      <trkpt lat="42.809396" lon="-8.626712">
        <ele>69.308</ele>
        <time>2019-05-01T10:12:14Z</time>
      </trkpt>
      <trkpt lat="42.809384" lon="-8.626617">
        <ele>69.365</ele>
        <time>2019-05-01T10:12:15Z</time>
      </trkpt>
      <trkpt lat="42.809376" lon="-8.626524">
        <ele>69.328</ele>
        <time>2019-05-01T10:12:16Z</time>
      </trkpt>
      <trkpt lat="42.809376" lon="-8.626436">
        <ele>69.394</ele>
        <time>2019-05-01T10:12:17Z</time>
      </trkpt>
      <trkpt lat="42.809379" lon="-8.626354">
        <ele>68.812</ele>
        <time>2019-05-01T10:12:18Z</time>
      </trkpt>
      <trkpt lat="42.809396" lon="-8.626198">
        <ele>68.810</ele>
        <time>2019-05-01T10:12:20Z</time>
      </trkpt>
      <trkpt lat="42.809413" lon="-8.626122">
        <ele>68.832</ele>
        <time>2019-05-01T10:12:21Z</time>
      </trkpt>
      <trkpt lat="42.809707" lon="-8.625276">
        <ele>68.352</ele>
        <time>2019-05-01T10:12:34Z</time>
      </trkpt>
      <trkpt lat="42.809977" lon="-8.624652">
        <ele>71.736</ele>
        <time>2019-05-01T10:12:48Z</time>
      </trkpt>
      <trkpt lat="42.810223" lon="-8.624357">
        <ele>74.179</ele>
        <time>2019-05-01T10:12:59Z</time>
      </trkpt>
      <trkpt lat="42.810354" lon="-8.624274">
        <ele>73.605</ele>
        <time>2019-05-01T10:13:03Z</time>
      </trkpt>
      <trkpt lat="42.810450" lon="-8.624228">
        <ele>72.725</ele>
        <time>2019-05-01T10:13:05Z</time>
      </trkpt>
      <trkpt lat="42.810831" lon="-8.623961">
        <ele>70.708</ele>
        <time>2019-05-01T10:13:13Z</time>
      </trkpt>
      <trkpt lat="42.810875" lon="-8.623932">
        <ele>70.740</ele>
        <time>2019-05-01T10:13:14Z</time>
      </trkpt>
      <trkpt lat="42.810919" lon="-8.623907">
        <ele>70.793</ele>
        <time>2019-05-01T10:13:15Z</time>
      </trkpt>
      <trkpt lat="42.810963" lon="-8.623882">
        <ele>70.779</ele>
        <time>2019-05-01T10:13:16Z</time>
      </trkpt>
      <trkpt lat="42.811004" lon="-8.623854">
        <ele>70.777</ele>
        <time>2019-05-01T10:13:17Z</time>
      </trkpt>
      <trkpt lat="42.811042" lon="-8.623827">
        <ele>70.755</ele>
        <time>2019-05-01T10:13:18Z</time>
      </trkpt>
      <trkpt lat="42.811301" lon="-8.623635">
        <ele>69.857</ele>
        <time>2019-05-01T10:13:28Z</time>
      </trkpt>
      <trkpt lat="42.811361" lon="-8.623530">
        <ele>68.357</ele>
        <time>2019-05-01T10:13:35Z</time>
      </trkpt>
      <trkpt lat="42.811364" lon="-8.623512">
        <ele>68.391</ele>
        <time>2019-05-01T10:13:36Z</time>
      </trkpt>
      <trkpt lat="42.811363" lon="-8.623490">
        <ele>67.996</ele>
        <time>2019-05-01T10:13:37Z</time>
      </trkpt>
      <trkpt lat="42.811368" lon="-8.623464">
        <ele>67.431</ele>
        <time>2019-05-01T10:13:38Z</time>
      </trkpt>
      <trkpt lat="42.811377" lon="-8.623439">
        <ele>67.424</ele>
        <time>2019-05-01T10:13:39Z</time>
      </trkpt>
      <trkpt lat="42.811396" lon="-8.623415">
        <ele>66.908</ele>
        <time>2019-05-01T10:13:40Z</time>
      </trkpt>
      <trkpt lat="42.811415" lon="-8.623387">
        <ele>66.962</ele>
        <time>2019-05-01T10:13:41Z</time>
      </trkpt>
      <trkpt lat="42.811533" lon="-8.623189">
        <ele>66.975</ele>
        <time>2019-05-01T10:13:48Z</time>
      </trkpt>
      <trkpt lat="42.811552" lon="-8.623174">
        <ele>66.971</ele>
        <time>2019-05-01T10:13:49Z</time>
      </trkpt>
      <trkpt lat="42.811563" lon="-8.623161">
        <ele>66.989</ele>
        <time>2019-05-01T10:13:50Z</time>
      </trkpt>
      <trkpt lat="42.811576" lon="-8.623147">
        <ele>66.937</ele>
        <time>2019-05-01T10:13:51Z</time>
      </trkpt>
      <trkpt lat="42.811590" lon="-8.623129">
        <ele>67.479</ele>
        <time>2019-05-01T10:13:52Z</time>
      </trkpt>
      <trkpt lat="42.811607" lon="-8.623109">
        <ele>67.459</ele>
        <time>2019-05-01T10:13:53Z</time>
      </trkpt>
      <trkpt lat="42.811623" lon="-8.623090">
        <ele>67.983</ele>
        <time>2019-05-01T10:13:54Z</time>
      </trkpt>
      <trkpt lat="42.811637" lon="-8.623071">
        <ele>67.939</ele>
        <time>2019-05-01T10:13:55Z</time>
      </trkpt>
      <trkpt lat="42.811838" lon="-8.622793">
        <ele>72.701</ele>
        <time>2019-05-01T10:14:08Z</time>
      </trkpt>
      <trkpt lat="42.812092" lon="-8.622573">
        <ele>79.421</ele>
        <time>2019-05-01T10:14:23Z</time>
      </trkpt>
      <trkpt lat="42.812373" lon="-8.622478">
        <ele>85.208</ele>
        <time>2019-05-01T10:14:37Z</time>
      </trkpt>
      <trkpt lat="42.812649" lon="-8.622339">
        <ele>89.096</ele>
        <time>2019-05-01T10:14:53Z</time>
      </trkpt>
      <trkpt lat="42.812711" lon="-8.622307">
        <ele>89.069</ele>
        <time>2019-05-01T10:15:05Z</time>
      </trkpt>
      <trkpt lat="42.812724" lon="-8.622287">
        <ele>92.455</ele>
        <time>2019-05-01T10:15:36Z</time>
      </trkpt>
      <trkpt lat="42.812728" lon="-8.622284">
        <ele>94.333</ele>
        <time>2019-05-01T10:16:05Z</time>
      </trkpt>
      <trkpt lat="42.812720" lon="-8.622280">
        <ele>94.391</ele>
        <time>2019-05-01T10:16:35Z</time>
      </trkpt>
      <trkpt lat="42.812715" lon="-8.622268">
        <ele>93.823</ele>
        <time>2019-05-01T10:17:03Z</time>
      </trkpt>
      <trkpt lat="42.812723" lon="-8.622253">
        <ele>93.333</ele>
        <time>2019-05-01T10:17:22Z</time>
      </trkpt>
      <trkpt lat="42.812732" lon="-8.622244">
        <ele>93.397</ele>
        <time>2019-05-01T10:17:23Z</time>
      </trkpt>
      <trkpt lat="42.812742" lon="-8.622233">
        <ele>93.372</ele>
        <time>2019-05-01T10:17:24Z</time>
      </trkpt>
      <trkpt lat="42.812753" lon="-8.622220">
        <ele>93.313</ele>
        <time>2019-05-01T10:17:25Z</time>
      </trkpt>
      <trkpt lat="42.812766" lon="-8.622207">
        <ele>93.314</ele>
        <time>2019-05-01T10:17:26Z</time>
      </trkpt>
      <trkpt lat="42.813038" lon="-8.622114">
        <ele>92.908</ele>
        <time>2019-05-01T10:17:35Z</time>
      </trkpt>
      <trkpt lat="42.813067" lon="-8.622085">
        <ele>92.480</ele>
        <time>2019-05-01T10:17:36Z</time>
      </trkpt>
      <trkpt lat="42.813093" lon="-8.622050">
        <ele>92.473</ele>
        <time>2019-05-01T10:17:37Z</time>
      </trkpt>
      <trkpt lat="42.813118" lon="-8.622015">
        <ele>92.449</ele>
        <time>2019-05-01T10:17:38Z</time>
      </trkpt>
      <trkpt lat="42.813146" lon="-8.621984">
        <ele>92.957</ele>
        <time>2019-05-01T10:17:39Z</time>
      </trkpt>
      <trkpt lat="42.813173" lon="-8.621956">
        <ele>92.995</ele>
        <time>2019-05-01T10:17:40Z</time>
      </trkpt>
      <trkpt lat="42.813201" lon="-8.621929">
        <ele>92.967</ele>
        <time>2019-05-01T10:17:41Z</time>
      </trkpt>
      <trkpt lat="42.813230" lon="-8.621903">
        <ele>92.967</ele>
        <time>2019-05-01T10:17:42Z</time>
      </trkpt>
      <trkpt lat="42.813258" lon="-8.621873">
        <ele>92.911</ele>
        <time>2019-05-01T10:17:43Z</time>
      </trkpt>
      <trkpt lat="42.813286" lon="-8.621845">
        <ele>92.929</ele>
        <time>2019-05-01T10:17:44Z</time>
      </trkpt>
      <trkpt lat="42.813525" lon="-8.621439">
        <ele>93.800</ele>
        <time>2019-05-01T10:17:57Z</time>
      </trkpt>
      <trkpt lat="42.813688" lon="-8.621042">
        <ele>94.820</ele>
        <time>2019-05-01T10:18:10Z</time>
      </trkpt>
      <trkpt lat="42.813867" lon="-8.620648">
        <ele>98.608</ele>
        <time>2019-05-01T10:18:25Z</time>
      </trkpt>
      <trkpt lat="42.814032" lon="-8.620304">
        <ele>102.035</ele>
        <time>2019-05-01T10:18:39Z</time>
      </trkpt>
      <trkpt lat="42.814072" lon="-8.620296">
        <ele>103.048</ele>
        <time>2019-05-01T10:18:41Z</time>
      </trkpt>
      <trkpt lat="42.814092" lon="-8.620308">
        <ele>103.434</ele>
        <time>2019-05-01T10:18:42Z</time>
      </trkpt>
      <trkpt lat="42.814110" lon="-8.620321">
        <ele>103.452</ele>
        <time>2019-05-01T10:18:43Z</time>
      </trkpt>
      <trkpt lat="42.814127" lon="-8.620333">
        <ele>103.930</ele>
        <time>2019-05-01T10:18:44Z</time>
      </trkpt>
      <trkpt lat="42.814145" lon="-8.620346">
        <ele>104.492</ele>
        <time>2019-05-01T10:18:45Z</time>
      </trkpt>
      <trkpt lat="42.814166" lon="-8.620358">
        <ele>104.422</ele>
        <time>2019-05-01T10:18:46Z</time>
      </trkpt>
      <trkpt lat="42.814185" lon="-8.620367">
        <ele>104.446</ele>
        <time>2019-05-01T10:18:47Z</time>
      </trkpt>
      <trkpt lat="42.814205" lon="-8.620372">
        <ele>104.975</ele>
        <time>2019-05-01T10:18:48Z</time>
      </trkpt>
      <trkpt lat="42.814225" lon="-8.620373">
        <ele>104.928</ele>
        <time>2019-05-01T10:18:49Z</time>
      </trkpt>
      <trkpt lat="42.814247" lon="-8.620367">
        <ele>104.920</ele>
        <time>2019-05-01T10:18:50Z</time>
      </trkpt>
      <trkpt lat="42.814267" lon="-8.620358">
        <ele>104.908</ele>
        <time>2019-05-01T10:18:51Z</time>
      </trkpt>
      <trkpt lat="42.814286" lon="-8.620346">
        <ele>105.450</ele>
        <time>2019-05-01T10:18:52Z</time>
      </trkpt>
      <trkpt lat="42.814492" lon="-8.620121">
        <ele>107.823</ele>
        <time>2019-05-01T10:19:05Z</time>
      </trkpt>
      <trkpt lat="42.814606" lon="-8.620021">
        <ele>108.769</ele>
        <time>2019-05-01T10:19:11Z</time>
      </trkpt>
      <trkpt lat="42.814629" lon="-8.620036">
        <ele>109.247</ele>
        <time>2019-05-01T10:19:12Z</time>
      </trkpt>
      <trkpt lat="42.814645" lon="-8.620063">
        <ele>109.255</ele>
        <time>2019-05-01T10:19:13Z</time>
      </trkpt>
      <trkpt lat="42.814657" lon="-8.620094">
        <ele>109.247</ele>
        <time>2019-05-01T10:19:14Z</time>
      </trkpt>
      <trkpt lat="42.814666" lon="-8.620126">
        <ele>109.297</ele>
        <time>2019-05-01T10:19:15Z</time>
      </trkpt>
      <trkpt lat="42.814709" lon="-8.620628">
        <ele>108.261</ele>
        <time>2019-05-01T10:19:27Z</time>
      </trkpt>
      <trkpt lat="42.814715" lon="-8.620706">
        <ele>108.275</ele>
        <time>2019-05-01T10:19:28Z</time>
      </trkpt>
      <trkpt lat="42.814758" lon="-8.621243">
        <ele>106.828</ele>
        <time>2019-05-01T10:19:34Z</time>
      </trkpt>
      <trkpt lat="42.814782" lon="-8.621319">
        <ele>106.320</ele>
        <time>2019-05-01T10:19:35Z</time>
      </trkpt>
      <trkpt lat="42.814815" lon="-8.621381">
        <ele>105.808</ele>
        <time>2019-05-01T10:19:36Z</time>
      </trkpt>
      <trkpt lat="42.815073" lon="-8.621725">
        <ele>105.420</ele>
        <time>2019-05-01T10:19:42Z</time>
      </trkpt>
      <trkpt lat="42.815119" lon="-8.621757">
        <ele>105.443</ele>
        <time>2019-05-01T10:19:43Z</time>
      </trkpt>
      <trkpt lat="42.815163" lon="-8.621784">
        <ele>105.459</ele>
        <time>2019-05-01T10:19:44Z</time>
      </trkpt>
      <trkpt lat="42.815369" lon="-8.621913">
        <ele>104.457</ele>
        <time>2019-05-01T10:19:50Z</time>
      </trkpt>
      <trkpt lat="42.815411" lon="-8.621968">
        <ele>104.445</ele>
        <time>2019-05-01T10:19:51Z</time>
      </trkpt>
      <trkpt lat="42.815442" lon="-8.622021">
        <ele>104.987</ele>
        <time>2019-05-01T10:19:52Z</time>
      </trkpt>
      <trkpt lat="42.815474" lon="-8.622076">
        <ele>104.967</ele>
        <time>2019-05-01T10:19:53Z</time>
      </trkpt>
      <trkpt lat="42.815507" lon="-8.622117">
        <ele>105.481</ele>
        <time>2019-05-01T10:19:54Z</time>
      </trkpt>
      <trkpt lat="42.815543" lon="-8.622141">
        <ele>105.466</ele>
        <time>2019-05-01T10:19:55Z</time>
      </trkpt>
      <trkpt lat="42.815573" lon="-8.622152">
        <ele>105.829</ele>
        <time>2019-05-01T10:19:56Z</time>
      </trkpt>
      <trkpt lat="42.815596" lon="-8.622150">
        <ele>106.321</ele>
        <time>2019-05-01T10:19:57Z</time>
      </trkpt>
      <trkpt lat="42.815616" lon="-8.622143">
        <ele>106.308</ele>
        <time>2019-05-01T10:19:58Z</time>
      </trkpt>
      <trkpt lat="42.815638" lon="-8.622132">
        <ele>106.819</ele>
        <time>2019-05-01T10:19:59Z</time>
      </trkpt>
      <trkpt lat="42.815959" lon="-8.622132">
        <ele>106.862</ele>
        <time>2019-05-01T10:20:09Z</time>
      </trkpt>
      <trkpt lat="42.816036" lon="-8.622100">
        <ele>106.358</ele>
        <time>2019-05-01T10:20:12Z</time>
      </trkpt>
      <trkpt lat="42.816060" lon="-8.622043">
        <ele>106.356</ele>
        <time>2019-05-01T10:20:13Z</time>
      </trkpt>
      <trkpt lat="42.816138" lon="-8.621823">
        <ele>105.414</ele>
        <time>2019-05-01T10:20:16Z</time>
      </trkpt>
      <trkpt lat="42.816177" lon="-8.621757">
        <ele>104.916</ele>
        <time>2019-05-01T10:20:17Z</time>
      </trkpt>
      <trkpt lat="42.816221" lon="-8.621703">
        <ele>103.986</ele>
        <time>2019-05-01T10:20:18Z</time>
      </trkpt>
      <trkpt lat="42.816269" lon="-8.621661">
        <ele>103.050</ele>
        <time>2019-05-01T10:20:19Z</time>
      </trkpt>
      <trkpt lat="42.816319" lon="-8.621624">
        <ele>102.522</ele>
        <time>2019-05-01T10:20:20Z</time>
      </trkpt>
      <trkpt lat="42.816374" lon="-8.621594">
        <ele>102.062</ele>
        <time>2019-05-01T10:20:21Z</time>
      </trkpt>
      <trkpt lat="42.816428" lon="-8.621569">
        <ele>102.008</ele>
        <time>2019-05-01T10:20:22Z</time>
      </trkpt>
      <trkpt lat="42.816940" lon="-8.621269">
        <ele>97.208</ele>
        <time>2019-05-01T10:20:35Z</time>
      </trkpt>
      <trkpt lat="42.817409" lon="-8.621159">
        <ele>96.225</ele>
        <time>2019-05-01T10:20:50Z</time>
      </trkpt>
      <trkpt lat="42.817805" lon="-8.621085">
        <ele>95.718</ele>
        <time>2019-05-01T10:21:03Z</time>
      </trkpt>
      <trkpt lat="42.818002" lon="-8.620962">
        <ele>97.744</ele>
        <time>2019-05-01T10:21:14Z</time>
      </trkpt>
      <trkpt lat="42.818165" lon="-8.620771">
        <ele>103.452</ele>
        <time>2019-05-01T10:21:26Z</time>
      </trkpt>
      <trkpt lat="42.818180" lon="-8.620751">
        <ele>103.420</ele>
        <time>2019-05-01T10:21:27Z</time>
      </trkpt>
      <trkpt lat="42.818192" lon="-8.620726">
        <ele>103.952</ele>
        <time>2019-05-01T10:21:28Z</time>
      </trkpt>
      <trkpt lat="42.818228" lon="-8.620664">
        <ele>104.912</ele>
        <time>2019-05-01T10:21:31Z</time>
      </trkpt>
      <trkpt lat="42.818242" lon="-8.620648">
        <ele>105.426</ele>
        <time>2019-05-01T10:21:32Z</time>
      </trkpt>
      <trkpt lat="42.818257" lon="-8.620633">
        <ele>105.875</ele>
        <time>2019-05-01T10:21:33Z</time>
      </trkpt>
      <trkpt lat="42.818437" lon="-8.620508">
        <ele>111.128</ele>
        <time>2019-05-01T10:21:44Z</time>
      </trkpt>
      <trkpt lat="42.818666" lon="-8.620319">
        <ele>116.420</ele>
        <time>2019-05-01T10:21:58Z</time>
      </trkpt>
      <trkpt lat="42.818968" lon="-8.620009">
        <ele>117.908</ele>
        <time>2019-05-01T10:22:17Z</time>
      </trkpt>
      <trkpt lat="42.819011" lon="-8.619979">
        <ele>117.440</ele>
        <time>2019-05-01T10:22:19Z</time>
      </trkpt>
      <trkpt lat="42.819021" lon="-8.619949">
        <ele>116.983</ele>
        <time>2019-05-01T10:22:20Z</time>
      </trkpt>
      <trkpt lat="42.819030" lon="-8.619919">
        <ele>116.919</ele>
        <time>2019-05-01T10:22:21Z</time>
      </trkpt>
      <trkpt lat="42.819045" lon="-8.619894">
        <ele>116.917</ele>
        <time>2019-05-01T10:22:22Z</time>
      </trkpt>
      <trkpt lat="42.819067" lon="-8.619875">
        <ele>116.955</ele>
        <time>2019-05-01T10:22:23Z</time>
      </trkpt>
      <trkpt lat="42.819092" lon="-8.619861">
        <ele>116.487</ele>
        <time>2019-05-01T10:22:24Z</time>
      </trkpt>
      <trkpt lat="42.819135" lon="-8.619822">
        <ele>116.437</ele>
        <time>2019-05-01T10:22:26Z</time>
      </trkpt>
      <trkpt lat="42.819146" lon="-8.619798">
        <ele>116.421</ele>
        <time>2019-05-01T10:22:27Z</time>
      </trkpt>
      <trkpt lat="42.819266" lon="-8.619547">
        <ele>119.826</ele>
        <time>2019-05-01T10:22:37Z</time>
      </trkpt>
      <trkpt lat="42.819305" lon="-8.619312">
        <ele>122.747</ele>
        <time>2019-05-01T10:22:44Z</time>
      </trkpt>
      <trkpt lat="42.819317" lon="-8.619274">
        <ele>122.711</ele>
        <time>2019-05-01T10:22:45Z</time>
      </trkpt>
      <trkpt lat="42.819534" lon="-8.618966">
        <ele>124.608</ele>
        <time>2019-05-01T10:22:56Z</time>
      </trkpt>
      <trkpt lat="42.819624" lon="-8.618848">
        <ele>125.175</ele>
        <time>2019-05-01T10:23:02Z</time>
      </trkpt>
      <trkpt lat="42.819622" lon="-8.618830">
        <ele>125.118</ele>
        <time>2019-05-01T10:23:03Z</time>
      </trkpt>
      <trkpt lat="42.819648" lon="-8.618779">
        <ele>125.114</ele>
        <time>2019-05-01T10:23:05Z</time>
      </trkpt>
      <trkpt lat="42.819666" lon="-8.618758">
        <ele>125.532</ele>
        <time>2019-05-01T10:23:06Z</time>
      </trkpt>
      <trkpt lat="42.819697" lon="-8.618732">
        <ele>125.150</ele>
        <time>2019-05-01T10:23:07Z</time>
      </trkpt>
      <trkpt lat="42.819729" lon="-8.618707">
        <ele>125.532</ele>
        <time>2019-05-01T10:23:08Z</time>
      </trkpt>
      <trkpt lat="42.819758" lon="-8.618684">
        <ele>125.572</ele>
        <time>2019-05-01T10:23:09Z</time>
      </trkpt>
      <trkpt lat="42.819785" lon="-8.618662">
        <ele>125.546</ele>
        <time>2019-05-01T10:23:10Z</time>
      </trkpt>
      <trkpt lat="42.820075" lon="-8.618455">
        <ele>131.328</ele>
        <time>2019-05-01T10:23:21Z</time>
      </trkpt>
      <trkpt lat="42.820396" lon="-8.618260">
        <ele>133.789</ele>
        <time>2019-05-01T10:23:33Z</time>
      </trkpt>
      <trkpt lat="42.820530" lon="-8.618165">
        <ele>133.217</ele>
        <time>2019-05-01T10:23:39Z</time>
      </trkpt>
      <trkpt lat="42.820709" lon="-8.617814">
        <ele>132.308</ele>
        <time>2019-05-01T10:23:50Z</time>
      </trkpt>
      <trkpt lat="42.820756" lon="-8.617470">
        <ele>132.315</ele>
        <time>2019-05-01T10:23:58Z</time>
      </trkpt>
      <trkpt lat="42.820765" lon="-8.617414">
        <ele>132.398</ele>
        <time>2019-05-01T10:23:59Z</time>
      </trkpt>
      <trkpt lat="42.820778" lon="-8.617297">
        <ele>131.894</ele>
        <time>2019-05-01T10:24:01Z</time>
      </trkpt>
      <trkpt lat="42.820782" lon="-8.617235">
        <ele>131.882</ele>
        <time>2019-05-01T10:24:02Z</time>
      </trkpt>
      <trkpt lat="42.820785" lon="-8.617172">
        <ele>131.880</ele>
        <time>2019-05-01T10:24:03Z</time>
      </trkpt>
      <trkpt lat="42.820786" lon="-8.617107">
        <ele>131.362</ele>
        <time>2019-05-01T10:24:04Z</time>
      </trkpt>
      <trkpt lat="42.820802" lon="-8.617048">
        <ele>131.332</ele>
        <time>2019-05-01T10:24:05Z</time>
      </trkpt>
      <trkpt lat="42.820834" lon="-8.617007">
        <ele>130.886</ele>
        <time>2019-05-01T10:24:06Z</time>
      </trkpt>
      <trkpt lat="42.820874" lon="-8.616980">
        <ele>130.891</ele>
        <time>2019-05-01T10:24:07Z</time>
      </trkpt>
      <trkpt lat="42.820916" lon="-8.616962">
        <ele>130.881</ele>
        <time>2019-05-01T10:24:08Z</time>
      </trkpt>
      <trkpt lat="42.820963" lon="-8.616953">
        <ele>130.419</ele>
        <time>2019-05-01T10:24:09Z</time>
      </trkpt>
      <trkpt lat="42.821014" lon="-8.616948">
        <ele>130.408</ele>
        <time>2019-05-01T10:24:10Z</time>
      </trkpt>
      <trkpt lat="42.821067" lon="-8.616946">
        <ele>129.952</ele>
        <time>2019-05-01T10:24:11Z</time>
      </trkpt>
      <trkpt lat="42.821121" lon="-8.616951">
        <ele>129.475</ele>
        <time>2019-05-01T10:24:12Z</time>
      </trkpt>
      <trkpt lat="42.821350" lon="-8.616957">
        <ele>128.931</ele>
        <time>2019-05-01T10:24:17Z</time>
      </trkpt>
      <trkpt lat="42.821351" lon="-8.616920">
        <ele>128.989</ele>
        <time>2019-05-01T10:24:18Z</time>
      </trkpt>
      <trkpt lat="42.821268" lon="-8.616212">
        <ele>130.857</ele>
        <time>2019-05-01T10:24:31Z</time>
      </trkpt>
      <trkpt lat="42.821209" lon="-8.615790">
        <ele>129.479</ele>
        <time>2019-05-01T10:24:37Z</time>
      </trkpt>
      <trkpt lat="42.821194" lon="-8.615725">
        <ele>128.929</ele>
        <time>2019-05-01T10:24:38Z</time>
      </trkpt>
      <trkpt lat="42.821191" lon="-8.615663">
        <ele>129.493</ele>
        <time>2019-05-01T10:24:39Z</time>
      </trkpt>
      <trkpt lat="42.821201" lon="-8.615605">
        <ele>129.483</ele>
        <time>2019-05-01T10:24:40Z</time>
      </trkpt>
      <trkpt lat="42.821220" lon="-8.615552">
        <ele>129.425</ele>
        <time>2019-05-01T10:24:41Z</time>
      </trkpt>
      <trkpt lat="42.821241" lon="-8.615501">
        <ele>129.417</ele>
        <time>2019-05-01T10:24:42Z</time>
      </trkpt>
      <trkpt lat="42.821260" lon="-8.615448">
        <ele>129.908</ele>
        <time>2019-05-01T10:24:43Z</time>
      </trkpt>
      <trkpt lat="42.821282" lon="-8.615400">
        <ele>129.981</ele>
        <time>2019-05-01T10:24:44Z</time>
      </trkpt>
      <trkpt lat="42.821305" lon="-8.615351">
        <ele>129.974</ele>
        <time>2019-05-01T10:24:45Z</time>
      </trkpt>
      <trkpt lat="42.821324" lon="-8.615302">
        <ele>129.940</ele>
        <time>2019-05-01T10:24:46Z</time>
      </trkpt>
      <trkpt lat="42.821342" lon="-8.615255">
        <ele>129.998</ele>
        <time>2019-05-01T10:24:47Z</time>
      </trkpt>
      <trkpt lat="42.821362" lon="-8.615205">
        <ele>129.966</ele>
        <time>2019-05-01T10:24:48Z</time>
      </trkpt>
      <trkpt lat="42.821379" lon="-8.615156">
        <ele>129.948</ele>
        <time>2019-05-01T10:24:49Z</time>
      </trkpt>
      <trkpt lat="42.821525" lon="-8.614653">
        <ele>133.218</ele>
        <time>2019-05-01T10:25:00Z</time>
      </trkpt>
      <trkpt lat="42.821528" lon="-8.614266">
        <ele>135.272</ele>
        <time>2019-05-01T10:25:11Z</time>
      </trkpt>
      <trkpt lat="42.821503" lon="-8.614228">
        <ele>135.242</ele>
        <time>2019-05-01T10:25:13Z</time>
      </trkpt>
      <trkpt lat="42.821488" lon="-8.614226">
        <ele>135.222</ele>
        <time>2019-05-01T10:25:14Z</time>
      </trkpt>
      <trkpt lat="42.821480" lon="-8.614234">
        <ele>135.614</ele>
        <time>2019-05-01T10:25:15Z</time>
      </trkpt>
      <trkpt lat="42.821471" lon="-8.614247">
        <ele>136.108</ele>
        <time>2019-05-01T10:25:16Z</time>
      </trkpt>
      <trkpt lat="42.821458" lon="-8.614249">
        <ele>136.117</ele>
        <time>2019-05-01T10:25:17Z</time>
      </trkpt>
      <trkpt lat="42.821455" lon="-8.614261">
        <ele>136.110</ele>
        <time>2019-05-01T10:25:26Z</time>
      </trkpt>
      <trkpt lat="42.821207" lon="-8.614262">
        <ele>135.296</ele>
        <time>2019-05-01T10:25:35Z</time>
      </trkpt>
      <trkpt lat="42.821206" lon="-8.614239">
        <ele>136.114</ele>
        <time>2019-05-01T10:25:44Z</time>
      </trkpt>
      <trkpt lat="42.821208" lon="-8.614234">
        <ele>134.222</ele>
        <time>2019-05-01T10:26:18Z</time>
      </trkpt>
      <trkpt lat="42.821216" lon="-8.614233">
        <ele>134.224</ele>
        <time>2019-05-01T10:26:49Z</time>
      </trkpt>
      <trkpt lat="42.821250" lon="-8.614252">
        <ele>134.744</ele>
        <time>2019-05-01T10:27:16Z</time>
      </trkpt>
      <trkpt lat="42.821267" lon="-8.614252">
        <ele>134.298</ele>
        <time>2019-05-01T10:27:17Z</time>
      </trkpt>
      <trkpt lat="42.821524" lon="-8.614247">
        <ele>132.876</ele>
        <time>2019-05-01T10:27:28Z</time>
      </trkpt>
      <trkpt lat="42.821539" lon="-8.614269">
        <ele>132.890</ele>
        <time>2019-05-01T10:27:29Z</time>
      </trkpt>
      <trkpt lat="42.821550" lon="-8.614301">
        <ele>132.819</ele>
        <time>2019-05-01T10:27:30Z</time>
      </trkpt>
      <trkpt lat="42.821597" lon="-8.614421">
        <ele>131.808</ele>
        <time>2019-05-01T10:27:34Z</time>
      </trkpt>
      <trkpt lat="42.821592" lon="-8.614441">
        <ele>131.830</ele>
        <time>2019-05-01T10:27:35Z</time>
      </trkpt>
      <trkpt lat="42.821578" lon="-8.614445">
        <ele>131.883</ele>
        <time>2019-05-01T10:27:36Z</time>
      </trkpt>
      <trkpt lat="42.821568" lon="-8.614438">
        <ele>131.879</ele>
        <time>2019-05-01T10:27:37Z</time>
      </trkpt>
      <trkpt lat="42.821563" lon="-8.614418">
        <ele>131.877</ele>
        <time>2019-05-01T10:27:38Z</time>
      </trkpt>
      <trkpt lat="42.821559" lon="-8.614387">
        <ele>131.835</ele>
        <time>2019-05-01T10:27:39Z</time>
      </trkpt>
      <trkpt lat="42.821497" lon="-8.613888">
        <ele>133.277</ele>
        <time>2019-05-01T10:27:51Z</time>
      </trkpt>
      <trkpt lat="42.821491" lon="-8.613642">
        <ele>134.217</ele>
        <time>2019-05-01T10:27:57Z</time>
      </trkpt>
      <trkpt lat="42.821508" lon="-8.613617">
        <ele>134.781</ele>
        <time>2019-05-01T10:27:58Z</time>
      </trkpt>
      <trkpt lat="42.821756" lon="-8.613258">
        <ele>136.189</ele>
        <time>2019-05-01T10:28:10Z</time>
      </trkpt>
      <trkpt lat="42.822041" lon="-8.612996">
        <ele>136.106</ele>
        <time>2019-05-01T10:28:19Z</time>
      </trkpt>
      <trkpt lat="42.822076" lon="-8.612959">
        <ele>136.126</ele>
        <time>2019-05-01T10:28:20Z</time>
      </trkpt>
      <trkpt lat="42.822108" lon="-8.612924">
        <ele>136.108</ele>
        <time>2019-05-01T10:28:21Z</time>
      </trkpt>
      <trkpt lat="42.822142" lon="-8.612889">
        <ele>136.191</ele>
        <time>2019-05-01T10:28:22Z</time>
      </trkpt>
      <trkpt lat="42.822177" lon="-8.612856">
        <ele>136.194</ele>
        <time>2019-05-01T10:28:23Z</time>
      </trkpt>
      <trkpt lat="42.822626" lon="-8.612404">
        <ele>135.660</ele>
        <time>2019-05-01T10:28:36Z</time>
      </trkpt>
      <trkpt lat="42.822657" lon="-8.612359">
        <ele>135.698</ele>
        <time>2019-05-01T10:28:37Z</time>
      </trkpt>
      <trkpt lat="42.822683" lon="-8.612313">
        <ele>135.616</ele>
        <time>2019-05-01T10:28:38Z</time>
      </trkpt>
      <trkpt lat="42.822706" lon="-8.612268">
        <ele>135.698</ele>
        <time>2019-05-01T10:28:39Z</time>
      </trkpt>
      <trkpt lat="42.822727" lon="-8.612222">
        <ele>135.278</ele>
        <time>2019-05-01T10:28:40Z</time>
      </trkpt>
      <trkpt lat="42.822751" lon="-8.612177">
        <ele>134.712</ele>
        <time>2019-05-01T10:28:41Z</time>
      </trkpt>
      <trkpt lat="42.822811" lon="-8.612093">
        <ele>134.235</ele>
        <time>2019-05-01T10:28:43Z</time>
      </trkpt>
      <trkpt lat="42.823026" lon="-8.611876">
        <ele>132.886</ele>
        <time>2019-05-01T10:28:49Z</time>
      </trkpt>
      <trkpt lat="42.823058" lon="-8.611838">
        <ele>132.314</ele>
        <time>2019-05-01T10:28:50Z</time>
      </trkpt>
      <trkpt lat="42.823128" lon="-8.611767">
        <ele>132.308</ele>
        <time>2019-05-01T10:28:52Z</time>
      </trkpt>
      <trkpt lat="42.823164" lon="-8.611740">
        <ele>131.896</ele>
        <time>2019-05-01T10:28:53Z</time>
      </trkpt>
      <trkpt lat="42.823195" lon="-8.611709">
        <ele>131.839</ele>
        <time>2019-05-01T10:28:54Z</time>
      </trkpt>
      <trkpt lat="42.823365" lon="-8.611564">
        <ele>131.835</ele>
        <time>2019-05-01T10:29:05Z</time>
      </trkpt>
      <trkpt lat="42.823499" lon="-8.611490">
        <ele>131.843</ele>
        <time>2019-05-01T10:29:16Z</time>
      </trkpt>
      <trkpt lat="42.823543" lon="-8.611473">
        <ele>131.851</ele>
        <time>2019-05-01T10:29:17Z</time>
      </trkpt>
      <trkpt lat="42.823592" lon="-8.611454">
        <ele>131.853</ele>
        <time>2019-05-01T10:29:18Z</time>
      </trkpt>
      <trkpt lat="42.823643" lon="-8.611428">
        <ele>131.343</ele>
        <time>2019-05-01T10:29:19Z</time>
      </trkpt>
      <trkpt lat="42.823699" lon="-8.611397">
        <ele>131.317</ele>
        <time>2019-05-01T10:29:20Z</time>
      </trkpt>
      <trkpt lat="42.824469" lon="-8.610969">
        <ele>129.974</ele>
        <time>2019-05-01T10:29:32Z</time>
      </trkpt>
      <trkpt lat="42.824530" lon="-8.610947">
        <ele>129.956</ele>
        <time>2019-05-01T10:29:33Z</time>
      </trkpt>
      <trkpt lat="42.825042" lon="-8.610889">
        <ele>129.921</ele>
        <time>2019-05-01T10:29:42Z</time>
      </trkpt>
      <trkpt lat="42.825097" lon="-8.610895">
        <ele>129.408</ele>
        <time>2019-05-01T10:29:43Z</time>
      </trkpt>
      <trkpt lat="42.825150" lon="-8.610891">
        <ele>129.450</ele>
        <time>2019-05-01T10:29:44Z</time>
      </trkpt>
      <trkpt lat="42.825198" lon="-8.610887">
        <ele>128.983</ele>
        <time>2019-05-01T10:29:45Z</time>
      </trkpt>
      <trkpt lat="42.825241" lon="-8.610889">
        <ele>128.989</ele>
        <time>2019-05-01T10:29:46Z</time>
      </trkpt>
      <trkpt lat="42.825277" lon="-8.610894">
        <ele>128.987</ele>
        <time>2019-05-01T10:29:47Z</time>
      </trkpt>
      <trkpt lat="42.825465" lon="-8.610953">
        <ele>127.935</ele>
        <time>2019-05-01T10:29:52Z</time>
      </trkpt>
      <trkpt lat="42.825513" lon="-8.610962">
        <ele>127.567</ele>
        <time>2019-05-01T10:29:53Z</time>
      </trkpt>
      <trkpt lat="42.826056" lon="-8.611145">
        <ele>126.517</ele>
        <time>2019-05-01T10:30:04Z</time>
      </trkpt>
      <trkpt lat="42.826104" lon="-8.611125">
        <ele>126.061</ele>
        <time>2019-05-01T10:30:05Z</time>
      </trkpt>
      <trkpt lat="42.826139" lon="-8.611081">
        <ele>126.061</ele>
        <time>2019-05-01T10:30:06Z</time>
      </trkpt>
      <trkpt lat="42.826200" lon="-8.610992">
        <ele>125.521</ele>
        <time>2019-05-01T10:30:08Z</time>
      </trkpt>
      <trkpt lat="42.826240" lon="-8.610961">
        <ele>125.513</ele>
        <time>2019-05-01T10:30:09Z</time>
      </trkpt>
      <trkpt lat="42.826284" lon="-8.610935">
        <ele>125.508</ele>
        <time>2019-05-01T10:30:10Z</time>
      </trkpt>
      <trkpt lat="42.826329" lon="-8.610914">
        <ele>125.539</ele>
        <time>2019-05-01T10:30:11Z</time>
      </trkpt>
      <trkpt lat="42.826373" lon="-8.610896">
        <ele>125.522</ele>
        <time>2019-05-01T10:30:12Z</time>
      </trkpt>
      <trkpt lat="42.826806" lon="-8.610834">
        <ele>127.538</ele>
        <time>2019-05-01T10:30:23Z</time>
      </trkpt>
      <trkpt lat="42.827203" lon="-8.610641">
        <ele>131.826</ele>
        <time>2019-05-01T10:30:35Z</time>
      </trkpt>
      <trkpt lat="42.827274" lon="-8.610574">
        <ele>132.834</ele>
        <time>2019-05-01T10:30:43Z</time>
      </trkpt>
      <trkpt lat="42.827284" lon="-8.610560">
        <ele>132.896</ele>
        <time>2019-05-01T10:30:44Z</time>
      </trkpt>
      <trkpt lat="42.827298" lon="-8.610550">
        <ele>133.266</ele>
        <time>2019-05-01T10:30:45Z</time>
      </trkpt>
      <trkpt lat="42.827310" lon="-8.610533">
        <ele>133.240</ele>
        <time>2019-05-01T10:30:46Z</time>
      </trkpt>
      <trkpt lat="42.827324" lon="-8.610505">
        <ele>133.212</ele>
        <time>2019-05-01T10:30:47Z</time>
      </trkpt>
      <trkpt lat="42.827344" lon="-8.610476">
        <ele>133.232</ele>
        <time>2019-05-01T10:30:48Z</time>
      </trkpt>
      <trkpt lat="42.827371" lon="-8.610452">
        <ele>133.205</ele>
        <time>2019-05-01T10:30:49Z</time>
      </trkpt>
      <trkpt lat="42.827402" lon="-8.610435">
        <ele>133.208</ele>
        <time>2019-05-01T10:30:50Z</time>
      </trkpt>
      <trkpt lat="42.827437" lon="-8.610420">
        <ele>133.284</ele>
        <time>2019-05-01T10:30:51Z</time>
      </trkpt>
      <trkpt lat="42.827919" lon="-8.610272">
        <ele>133.297</ele>
        <time>2019-05-01T10:31:03Z</time>
      </trkpt>
      <trkpt lat="42.827963" lon="-8.610250">
        <ele>133.243</ele>
        <time>2019-05-01T10:31:04Z</time>
      </trkpt>
      <trkpt lat="42.828005" lon="-8.610221">
        <ele>133.211</ele>
        <time>2019-05-01T10:31:05Z</time>
      </trkpt>
      <trkpt lat="42.828085" lon="-8.610147">
        <ele>133.769</ele>
        <time>2019-05-01T10:31:07Z</time>
      </trkpt>
      <trkpt lat="42.828118" lon="-8.610103">
        <ele>133.771</ele>
        <time>2019-05-01T10:31:08Z</time>
      </trkpt>
      <trkpt lat="42.828149" lon="-8.610055">
        <ele>133.791</ele>
        <time>2019-05-01T10:31:09Z</time>
      </trkpt>
      <trkpt lat="42.828176" lon="-8.610001">
        <ele>133.765</ele>
        <time>2019-05-01T10:31:10Z</time>
      </trkpt>
      <trkpt lat="42.828199" lon="-8.609942">
        <ele>133.746</ele>
        <time>2019-05-01T10:31:11Z</time>
      </trkpt>
      <trkpt lat="42.828302" lon="-8.609508">
        <ele>133.288</ele>
        <time>2019-05-01T10:31:21Z</time>
      </trkpt>
      <trkpt lat="42.828308" lon="-8.609382">
        <ele>132.816</ele>
        <time>2019-05-01T10:31:23Z</time>
      </trkpt>
      <trkpt lat="42.828302" lon="-8.609235">
        <ele>132.808</ele>
        <time>2019-05-01T10:31:25Z</time>
      </trkpt>
      <trkpt lat="42.828287" lon="-8.609161">
        <ele>132.317</ele>
        <time>2019-05-01T10:31:26Z</time>
      </trkpt>
      <trkpt lat="42.828241" lon="-8.608934">
        <ele>131.880</ele>
        <time>2019-05-01T10:31:29Z</time>
      </trkpt>
      <trkpt lat="42.828234" lon="-8.608852">
        <ele>131.356</ele>
        <time>2019-05-01T10:31:30Z</time>
      </trkpt>
      <trkpt lat="42.828240" lon="-8.608772">
        <ele>131.354</ele>
        <time>2019-05-01T10:31:31Z</time>
      </trkpt>
      <trkpt lat="42.828258" lon="-8.608700">
        <ele>131.382</ele>
        <time>2019-05-01T10:31:32Z</time>
      </trkpt>
      <trkpt lat="42.828286" lon="-8.608645">
        <ele>131.364</ele>
        <time>2019-05-01T10:31:33Z</time>
      </trkpt>
      <trkpt lat="42.828313" lon="-8.608613">
        <ele>130.894</ele>
        <time>2019-05-01T10:31:34Z</time>
      </trkpt>
      <trkpt lat="42.828328" lon="-8.608603">
        <ele>130.818</ele>
        <time>2019-05-01T10:31:35Z</time>
      </trkpt>
      <trkpt lat="42.828338" lon="-8.608600">
        <ele>130.832</ele>
        <time>2019-05-01T10:31:36Z</time>
      </trkpt>
      <trkpt lat="42.828352" lon="-8.608594">
        <ele>130.492</ele>
        <time>2019-05-01T10:31:37Z</time>
      </trkpt>
      <trkpt lat="42.828368" lon="-8.608584">
        <ele>130.411</ele>
        <time>2019-05-01T10:31:38Z</time>
      </trkpt>
      <trkpt lat="42.828379" lon="-8.608562">
        <ele>129.908</ele>
        <time>2019-05-01T10:31:39Z</time>
      </trkpt>
      <trkpt lat="42.828399" lon="-8.608513">
        <ele>129.936</ele>
        <time>2019-05-01T10:31:42Z</time>
      </trkpt>
      <trkpt lat="42.828412" lon="-8.608499">
        <ele>129.449</ele>
        <time>2019-05-01T10:31:43Z</time>
      </trkpt>
      <trkpt lat="42.828427" lon="-8.608480">
        <ele>129.475</ele>
        <time>2019-05-01T10:31:44Z</time>
      </trkpt>
      <trkpt lat="42.828444" lon="-8.608457">
        <ele>128.913</ele>
        <time>2019-05-01T10:31:45Z</time>
      </trkpt>
      <trkpt lat="42.828469" lon="-8.608432">
        <ele>128.931</ele>
        <time>2019-05-01T10:31:46Z</time>
      </trkpt>
      <trkpt lat="42.828495" lon="-8.608404">
        <ele>128.983</ele>
        <time>2019-05-01T10:31:47Z</time>
      </trkpt>
      <trkpt lat="42.828527" lon="-8.608367">
        <ele>128.973</ele>
        <time>2019-05-01T10:31:48Z</time>
      </trkpt>
      <trkpt lat="42.828561" lon="-8.608319">
        <ele>128.477</ele>
        <time>2019-05-01T10:31:49Z</time>
      </trkpt>
      <trkpt lat="42.828754" lon="-8.608010">
        <ele>129.993</ele>
        <time>2019-05-01T10:31:58Z</time>
      </trkpt>
      <trkpt lat="42.828822" lon="-8.607682">
        <ele>133.265</ele>
        <time>2019-05-01T10:32:07Z</time>
      </trkpt>
      <trkpt lat="42.828886" lon="-8.607245">
        <ele>137.121</ele>
        <time>2019-05-01T10:32:19Z</time>
      </trkpt>
      <trkpt lat="42.828902" lon="-8.607129">
        <ele>138.008</ele>
        <time>2019-05-01T10:32:23Z</time>
      </trkpt>
      <trkpt lat="42.828895" lon="-8.607105">
        <ele>138.572</ele>
        <time>2019-05-01T10:32:24Z</time>
      </trkpt>
      <trkpt lat="42.828887" lon="-8.607080">
        <ele>139.035</ele>
        <time>2019-05-01T10:32:25Z</time>
      </trkpt>
      <trkpt lat="42.828890" lon="-8.607054">
        <ele>139.091</ele>
        <time>2019-05-01T10:32:26Z</time>
      </trkpt>
      <trkpt lat="42.828892" lon="-8.607030">
        <ele>139.539</ele>
        <time>2019-05-01T10:32:27Z</time>
      </trkpt>
      <trkpt lat="42.828957" lon="-8.606516">
        <ele>141.917</ele>
        <time>2019-05-01T10:32:38Z</time>
      </trkpt>
      <trkpt lat="42.828992" lon="-8.606327">
        <ele>140.419</ele>
        <time>2019-05-01T10:32:42Z</time>
      </trkpt>
      <trkpt lat="42.829028" lon="-8.606285">
        <ele>140.499</ele>
        <time>2019-05-01T10:32:43Z</time>
      </trkpt>
      <trkpt lat="42.829063" lon="-8.606256">
        <ele>140.083</ele>
        <time>2019-05-01T10:32:44Z</time>
      </trkpt>
      <trkpt lat="42.829092" lon="-8.606234">
        <ele>140.055</ele>
        <time>2019-05-01T10:32:45Z</time>
      </trkpt>
      <trkpt lat="42.829113" lon="-8.606215">
        <ele>140.007</ele>
        <time>2019-05-01T10:32:46Z</time>
      </trkpt>
      <trkpt lat="42.829138" lon="-8.606193">
        <ele>140.017</ele>
        <time>2019-05-01T10:32:47Z</time>
      </trkpt>
      <trkpt lat="42.829168" lon="-8.606164">
        <ele>140.008</ele>
        <time>2019-05-01T10:32:48Z</time>
      </trkpt>
      <trkpt lat="42.829199" lon="-8.606139">
        <ele>140.098</ele>
        <time>2019-05-01T10:32:49Z</time>
      </trkpt>
      <trkpt lat="42.829234" lon="-8.606078">
        <ele>141.411</ele>
        <time>2019-05-01T10:32:58Z</time>
      </trkpt>
      <trkpt lat="42.829249" lon="-8.606068">
        <ele>141.427</ele>
        <time>2019-05-01T10:33:30Z</time>
      </trkpt>
      <trkpt lat="42.829241" lon="-8.606077">
        <ele>140.415</ele>
        <time>2019-05-01T10:34:01Z</time>
      </trkpt>
      <trkpt lat="42.829245" lon="-8.606071">
        <ele>141.933</ele>
        <time>2019-05-01T10:34:30Z</time>
      </trkpt>
      <trkpt lat="42.829252" lon="-8.606072">
        <ele>142.465</ele>
        <time>2019-05-01T10:35:08Z</time>
      </trkpt>
      <trkpt lat="42.829251" lon="-8.606081">
        <ele>141.925</ele>
        <time>2019-05-01T10:35:26Z</time>
      </trkpt>
      <trkpt lat="42.829257" lon="-8.606065">
        <ele>141.969</ele>
        <time>2019-05-01T10:35:27Z</time>
      </trkpt>
      <trkpt lat="42.829392" lon="-8.605906">
        <ele>142.468</ele>
        <time>2019-05-01T10:35:33Z</time>
      </trkpt>
      <trkpt lat="42.829506" lon="-8.605824">
        <ele>142.442</ele>
        <time>2019-05-01T10:35:36Z</time>
      </trkpt>
      <trkpt lat="42.829583" lon="-8.605783">
        <ele>141.926</ele>
        <time>2019-05-01T10:35:38Z</time>
      </trkpt>
      <trkpt lat="42.829625" lon="-8.605766">
        <ele>141.908</ele>
        <time>2019-05-01T10:35:39Z</time>
      </trkpt>
      <trkpt lat="42.829838" lon="-8.605679">
        <ele>142.889</ele>
        <time>2019-05-01T10:35:44Z</time>
      </trkpt>
      <trkpt lat="42.829879" lon="-8.605668">
        <ele>143.382</ele>
        <time>2019-05-01T10:35:45Z</time>
      </trkpt>
      <trkpt lat="42.830005" lon="-8.605672">
        <ele>144.398</ele>
        <time>2019-05-01T10:35:53Z</time>
      </trkpt>
      <trkpt lat="42.830006" lon="-8.605676">
        <ele>143.836</ele>
        <time>2019-05-01T10:36:17Z</time>
      </trkpt>
      <trkpt lat="42.830018" lon="-8.605667">
        <ele>143.844</ele>
        <time>2019-05-01T10:36:18Z</time>
      </trkpt>
      <trkpt lat="42.830036" lon="-8.605656">
        <ele>143.866</ele>
        <time>2019-05-01T10:36:19Z</time>
      </trkpt>
      <trkpt lat="42.830060" lon="-8.605647">
        <ele>143.856</ele>
        <time>2019-05-01T10:36:20Z</time>
      </trkpt>
      <trkpt lat="42.830094" lon="-8.605642">
        <ele>143.810</ele>
        <time>2019-05-01T10:36:21Z</time>
      </trkpt>
      <trkpt lat="42.830135" lon="-8.605638">
        <ele>143.861</ele>
        <time>2019-05-01T10:36:22Z</time>
      </trkpt>
      <trkpt lat="42.830177" lon="-8.605628">
        <ele>143.821</ele>
        <time>2019-05-01T10:36:23Z</time>
      </trkpt>
      <trkpt lat="42.830258" lon="-8.605593">
        <ele>143.813</ele>
        <time>2019-05-01T10:36:25Z</time>
      </trkpt>
      <trkpt lat="42.830302" lon="-8.605579">
        <ele>143.808</ele>
        <time>2019-05-01T10:36:26Z</time>
      </trkpt>
      <trkpt lat="42.830903" lon="-8.605356">
        <ele>144.819</ele>
        <time>2019-05-01T10:36:40Z</time>
      </trkpt>
      <trkpt lat="42.830945" lon="-8.605322">
        <ele>145.362</ele>
        <time>2019-05-01T10:36:41Z</time>
      </trkpt>
      <trkpt lat="42.831034" lon="-8.605267">
        <ele>145.798</ele>
        <time>2019-05-01T10:36:43Z</time>
      </trkpt>
      <trkpt lat="42.831172" lon="-8.605203">
        <ele>146.226</ele>
        <time>2019-05-01T10:36:46Z</time>
      </trkpt>
      <trkpt lat="42.831217" lon="-8.605174">
        <ele>146.284</ele>
        <time>2019-05-01T10:36:47Z</time>
      </trkpt>
      <trkpt lat="42.831479" lon="-8.604990">
        <ele>146.796</ele>
        <time>2019-05-01T10:36:53Z</time>
      </trkpt>
      <trkpt lat="42.831505" lon="-8.604948">
        <ele>146.726</ele>
        <time>2019-05-01T10:36:54Z</time>
      </trkpt>
      <trkpt lat="42.831548" lon="-8.604857">
        <ele>147.730</ele>
        <time>2019-05-01T10:36:56Z</time>
      </trkpt>
      <trkpt lat="42.831570" lon="-8.604810">
        <ele>148.194</ele>
        <time>2019-05-01T10:36:57Z</time>
      </trkpt>
      <trkpt lat="42.831732" lon="-8.604440">
        <ele>150.557</ele>
        <time>2019-05-01T10:37:06Z</time>
      </trkpt>
      <trkpt lat="42.831919" lon="-8.604112">
        <ele>154.922</ele>
        <time>2019-05-01T10:37:15Z</time>
      </trkpt>
      <trkpt lat="42.831969" lon="-8.604039">
        <ele>155.308</ele>
        <time>2019-05-01T10:37:17Z</time>
      </trkpt>
      <trkpt lat="42.832224" lon="-8.603664">
        <ele>160.642</ele>
        <time>2019-05-01T10:37:26Z</time>
      </trkpt>
      <trkpt lat="42.832311" lon="-8.603466">
        <ele>165.485</ele>
        <time>2019-05-01T10:37:32Z</time>
      </trkpt>
      <trkpt lat="42.832364" lon="-8.603328">
        <ele>168.311</ele>
        <time>2019-05-01T10:37:36Z</time>
      </trkpt>
      <trkpt lat="42.832415" lon="-8.603186">
        <ele>170.799</ele>
        <time>2019-05-01T10:37:40Z</time>
      </trkpt>
      <trkpt lat="42.832440" lon="-8.603122">
        <ele>171.747</ele>
        <time>2019-05-01T10:37:42Z</time>
      </trkpt>
      <trkpt lat="42.832704" lon="-8.602792">
        <ele>176.539</ele>
        <time>2019-05-01T10:37:52Z</time>
      </trkpt>
      <trkpt lat="42.832866" lon="-8.602552">
        <ele>178.949</ele>
        <time>2019-05-01T10:37:59Z</time>
      </trkpt>
      <trkpt lat="42.832950" lon="-8.602409">
        <ele>180.333</ele>
        <time>2019-05-01T10:38:03Z</time>
      </trkpt>
      <trkpt lat="42.832966" lon="-8.602318">
        <ele>181.333</ele>
        <time>2019-05-01T10:38:06Z</time>
      </trkpt>
      <trkpt lat="42.833093" lon="-8.601994">
        <ele>183.223</ele>
        <time>2019-05-01T10:38:15Z</time>
      </trkpt>
      <trkpt lat="42.833167" lon="-8.601597">
        <ele>181.315</ele>
        <time>2019-05-01T10:38:26Z</time>
      </trkpt>
      <trkpt lat="42.833272" lon="-8.601382">
        <ele>183.708</ele>
        <time>2019-05-01T10:38:37Z</time>
      </trkpt>
      <trkpt lat="42.833355" lon="-8.601252">
        <ele>185.686</ele>
        <time>2019-05-01T10:38:44Z</time>
      </trkpt>
      <trkpt lat="42.833443" lon="-8.601116">
        <ele>184.769</ele>
        <time>2019-05-01T10:38:49Z</time>
      </trkpt>
      <trkpt lat="42.833533" lon="-8.601063">
        <ele>180.895</ele>
        <time>2019-05-01T10:39:03Z</time>
      </trkpt>
      <trkpt lat="42.833552" lon="-8.601046">
        <ele>178.973</ele>
        <time>2019-05-01T10:39:34Z</time>
      </trkpt>
      <trkpt lat="42.833581" lon="-8.601030">
        <ele>177.071</ele>
        <time>2019-05-01T10:40:00Z</time>
      </trkpt>
      <trkpt lat="42.833790" lon="-8.600928">
        <ele>176.043</ele>
        <time>2019-05-01T10:40:12Z</time>
      </trkpt>
      <trkpt lat="42.834012" lon="-8.600770">
        <ele>174.133</ele>
        <time>2019-05-01T10:40:24Z</time>
      </trkpt>
      <trkpt lat="42.834278" lon="-8.600500">
        <ele>171.287</ele>
        <time>2019-05-01T10:40:36Z</time>
      </trkpt>
      <trkpt lat="42.834544" lon="-8.600186">
        <ele>171.287</ele>
        <time>2019-05-01T10:40:48Z</time>
      </trkpt>
      <trkpt lat="42.834946" lon="-8.599849">
        <ele>171.742</ele>
        <time>2019-05-01T10:41:02Z</time>
      </trkpt>
      <trkpt lat="42.835351" lon="-8.599457">
        <ele>173.626</ele>
        <time>2019-05-01T10:41:19Z</time>
      </trkpt>
      <trkpt lat="42.835536" lon="-8.599234">
        <ele>177.008</ele>
        <time>2019-05-01T10:41:29Z</time>
      </trkpt>
      <trkpt lat="42.835588" lon="-8.599111">
        <ele>177.921</ele>
        <time>2019-05-01T10:41:34Z</time>
      </trkpt>
      <trkpt lat="42.835649" lon="-8.599020">
        <ele>177.994</ele>
        <time>2019-05-01T10:41:40Z</time>
      </trkpt>
      <trkpt lat="42.835681" lon="-8.598905">
        <ele>178.940</ele>
        <time>2019-05-01T10:41:45Z</time>
      </trkpt>
      <trkpt lat="42.835780" lon="-8.598481">
        <ele>181.868</ele>
        <time>2019-05-01T10:42:00Z</time>
      </trkpt>
      <trkpt lat="42.835983" lon="-8.598152">
        <ele>183.796</ele>
        <time>2019-05-01T10:42:13Z</time>
      </trkpt>
      <trkpt lat="42.836009" lon="-8.598108">
        <ele>183.738</ele>
        <time>2019-05-01T10:42:14Z</time>
      </trkpt>
      <trkpt lat="42.836057" lon="-8.598014">
        <ele>183.778</ele>
        <time>2019-05-01T10:42:16Z</time>
      </trkpt>
      <trkpt lat="42.836109" lon="-8.597909">
        <ele>183.712</ele>
        <time>2019-05-01T10:42:18Z</time>
      </trkpt>
      <trkpt lat="42.836190" lon="-8.597761">
        <ele>183.767</ele>
        <time>2019-05-01T10:42:21Z</time>
      </trkpt>
      <trkpt lat="42.836240" lon="-8.597664">
        <ele>183.781</ele>
        <time>2019-05-01T10:42:23Z</time>
      </trkpt>
      <trkpt lat="42.836257" lon="-8.597607">
        <ele>183.219</ele>
        <time>2019-05-01T10:42:24Z</time>
      </trkpt>
      <trkpt lat="42.836394" lon="-8.596992">
        <ele>183.208</ele>
        <time>2019-05-01T10:42:36Z</time>
      </trkpt>
      <trkpt lat="42.836442" lon="-8.596571">
        <ele>183.719</ele>
        <time>2019-05-01T10:42:44Z</time>
      </trkpt>
      <trkpt lat="42.836446" lon="-8.596511">
        <ele>183.722</ele>
        <time>2019-05-01T10:42:45Z</time>
      </trkpt>
      <trkpt lat="42.836453" lon="-8.596388">
        <ele>183.798</ele>
        <time>2019-05-01T10:42:47Z</time>
      </trkpt>
      <trkpt lat="42.836463" lon="-8.596329">
        <ele>183.786</ele>
        <time>2019-05-01T10:42:48Z</time>
      </trkpt>
      <trkpt lat="42.836476" lon="-8.596267">
        <ele>184.244</ele>
        <time>2019-05-01T10:42:49Z</time>
      </trkpt>
      <trkpt lat="42.836485" lon="-8.596211">
        <ele>184.256</ele>
        <time>2019-05-01T10:42:50Z</time>
      </trkpt>
      <trkpt lat="42.836490" lon="-8.596158">
        <ele>184.276</ele>
        <time>2019-05-01T10:42:51Z</time>
      </trkpt>
      <trkpt lat="42.836556" lon="-8.595557">
        <ele>182.780</ele>
        <time>2019-05-01T10:43:03Z</time>
      </trkpt>
      <trkpt lat="42.836483" lon="-8.595116">
        <ele>179.932</ele>
        <time>2019-05-01T10:43:15Z</time>
      </trkpt>
      <trkpt lat="42.836456" lon="-8.594825">
        <ele>177.592</ele>
        <time>2019-05-01T10:43:25Z</time>
      </trkpt>
      <trkpt lat="42.836468" lon="-8.594521">
        <ele>177.911</ele>
        <time>2019-05-01T10:43:36Z</time>
      </trkpt>
      <trkpt lat="42.836463" lon="-8.594484">
        <ele>178.408</ele>
        <time>2019-05-01T10:43:37Z</time>
      </trkpt>
      <trkpt lat="42.836452" lon="-8.594448">
        <ele>179.476</ele>
        <time>2019-05-01T10:43:38Z</time>
      </trkpt>
      <trkpt lat="42.836449" lon="-8.594412">
        <ele>179.959</ele>
        <time>2019-05-01T10:43:39Z</time>
      </trkpt>
      <trkpt lat="42.836450" lon="-8.594375">
        <ele>180.345</ele>
        <time>2019-05-01T10:43:40Z</time>
      </trkpt>
      <trkpt lat="42.836453" lon="-8.594341">
        <ele>180.853</ele>
        <time>2019-05-01T10:43:41Z</time>
      </trkpt>
      <trkpt lat="42.836462" lon="-8.594310">
        <ele>181.891</ele>
        <time>2019-05-01T10:43:42Z</time>
      </trkpt>
      <trkpt lat="42.836525" lon="-8.594023">
        <ele>187.133</ele>
        <time>2019-05-01T10:43:51Z</time>
      </trkpt>
      <trkpt lat="42.836537" lon="-8.593993">
        <ele>187.533</ele>
        <time>2019-05-01T10:43:52Z</time>
      </trkpt>
      <trkpt lat="42.836543" lon="-8.593959">
        <ele>188.087</ele>
        <time>2019-05-01T10:43:53Z</time>
      </trkpt>
      <trkpt lat="42.836546" lon="-8.593922">
        <ele>188.591</ele>
        <time>2019-05-01T10:43:54Z</time>
      </trkpt>
      <trkpt lat="42.836543" lon="-8.593882">
        <ele>189.081</ele>
        <time>2019-05-01T10:43:55Z</time>
      </trkpt>
      <trkpt lat="42.836539" lon="-8.593843">
        <ele>189.519</ele>
        <time>2019-05-01T10:43:56Z</time>
      </trkpt>
      <trkpt lat="42.836536" lon="-8.593806">
        <ele>189.508</ele>
        <time>2019-05-01T10:43:57Z</time>
      </trkpt>
      <trkpt lat="42.836529" lon="-8.593775">
        <ele>189.042</ele>
        <time>2019-05-01T10:43:58Z</time>
      </trkpt>
      <trkpt lat="42.836490" lon="-8.593431">
        <ele>188.055</ele>
        <time>2019-05-01T10:44:09Z</time>
      </trkpt>
      <trkpt lat="42.836521" lon="-8.593371">
        <ele>187.541</ele>
        <time>2019-05-01T10:44:12Z</time>
      </trkpt>
      <trkpt lat="42.836705" lon="-8.593351">
        <ele>199.649</ele>
        <time>2019-05-01T10:44:28Z</time>
      </trkpt>
      <trkpt lat="42.836791" lon="-8.593319">
        <ele>202.417</ele>
        <time>2019-05-01T10:44:34Z</time>
      </trkpt>
      <trkpt lat="42.836805" lon="-8.593316">
        <ele>203.489</ele>
        <time>2019-05-01T10:44:35Z</time>
      </trkpt>
      <trkpt lat="42.836818" lon="-8.593314">
        <ele>203.999</ele>
        <time>2019-05-01T10:44:36Z</time>
      </trkpt>
      <trkpt lat="42.837043" lon="-8.593319">
        <ele>210.133</ele>
        <time>2019-05-01T10:44:50Z</time>
      </trkpt>
      <trkpt lat="42.837300" lon="-8.593302">
        <ele>212.523</ele>
        <time>2019-05-01T10:45:05Z</time>
      </trkpt>
      <trkpt lat="42.837651" lon="-8.593245">
        <ele>213.583</ele>
        <time>2019-05-01T10:45:19Z</time>
      </trkpt>
      <trkpt lat="42.838050" lon="-8.593189">
        <ele>212.111</ele>
        <time>2019-05-01T10:45:31Z</time>
      </trkpt>
      <trkpt lat="42.838340" lon="-8.593166">
        <ele>214.908</ele>
        <time>2019-05-01T10:45:41Z</time>
      </trkpt>
      <trkpt lat="42.838366" lon="-8.593173">
        <ele>215.485</ele>
        <time>2019-05-01T10:45:42Z</time>
      </trkpt>
      <trkpt lat="42.838387" lon="-8.593196">
        <ele>215.418</ele>
        <time>2019-05-01T10:45:43Z</time>
      </trkpt>
      <trkpt lat="42.838403" lon="-8.593228">
        <ele>215.944</ele>
        <time>2019-05-01T10:45:44Z</time>
      </trkpt>
      <trkpt lat="42.838415" lon="-8.593263">
        <ele>216.492</ele>
        <time>2019-05-01T10:45:45Z</time>
      </trkpt>
      <trkpt lat="42.838424" lon="-8.593301">
        <ele>216.490</ele>
        <time>2019-05-01T10:45:46Z</time>
      </trkpt>
      <trkpt lat="42.838429" lon="-8.593342">
        <ele>216.992</ele>
        <time>2019-05-01T10:45:47Z</time>
      </trkpt>
      <trkpt lat="42.838429" lon="-8.593385">
        <ele>216.962</ele>
        <time>2019-05-01T10:45:48Z</time>
      </trkpt>
      <trkpt lat="42.838428" lon="-8.593430">
        <ele>217.416</ele>
        <time>2019-05-01T10:45:49Z</time>
      </trkpt>
      <trkpt lat="42.838239" lon="-8.594163">
        <ele>216.492</ele>
        <time>2019-05-01T10:46:06Z</time>
      </trkpt>
      <trkpt lat="42.838176" lon="-8.594357">
        <ele>216.473</ele>
        <time>2019-05-01T10:46:11Z</time>
      </trkpt>
      <trkpt lat="42.838192" lon="-8.594390">
        <ele>216.920</ele>
        <time>2019-05-01T10:46:12Z</time>
      </trkpt>
      <trkpt lat="42.838253" lon="-8.594377">
        <ele>216.408</ele>
        <time>2019-05-01T10:46:15Z</time>
      </trkpt>
      <trkpt lat="42.838287" lon="-8.594224">
        <ele>216.432</ele>
        <time>2019-05-01T10:46:19Z</time>
      </trkpt>
      <trkpt lat="42.838561" lon="-8.593807">
        <ele>220.225</ele>
        <time>2019-05-01T10:46:35Z</time>
      </trkpt>
      <trkpt lat="42.838740" lon="-8.593416">
        <ele>223.611</ele>
        <time>2019-05-01T10:46:50Z</time>
      </trkpt>
      <trkpt lat="42.838733" lon="-8.593262">
        <ele>223.689</ele>
        <time>2019-05-01T10:47:01Z</time>
      </trkpt>
      <trkpt lat="42.838728" lon="-8.593264">
        <ele>222.657</ele>
        <time>2019-05-01T10:47:22Z</time>
      </trkpt>
      <trkpt lat="42.838743" lon="-8.593258">
        <ele>224.159</ele>
        <time>2019-05-01T10:47:51Z</time>
      </trkpt>
      <trkpt lat="42.838727" lon="-8.593013">
        <ele>224.119</ele>
        <time>2019-05-01T10:48:02Z</time>
      </trkpt>
      <trkpt lat="42.838683" lon="-8.592812">
        <ele>223.683</ele>
        <time>2019-05-01T10:48:06Z</time>
      </trkpt>
      <trkpt lat="42.838677" lon="-8.592745">
        <ele>223.135</ele>
        <time>2019-05-01T10:48:07Z</time>
      </trkpt>
      <trkpt lat="42.838675" lon="-8.592499">
        <ele>221.786</ele>
        <time>2019-05-01T10:48:10Z</time>
      </trkpt>
      <trkpt lat="42.838687" lon="-8.592404">
        <ele>221.214</ele>
        <time>2019-05-01T10:48:11Z</time>
      </trkpt>
      <trkpt lat="42.838707" lon="-8.592309">
        <ele>220.708</ele>
        <time>2019-05-01T10:48:12Z</time>
      </trkpt>
      <trkpt lat="42.838736" lon="-8.592220">
        <ele>220.736</ele>
        <time>2019-05-01T10:48:13Z</time>
      </trkpt>
      <trkpt lat="42.838768" lon="-8.592137">
        <ele>220.249</ele>
        <time>2019-05-01T10:48:14Z</time>
      </trkpt>
      <trkpt lat="42.838853" lon="-8.591909">
        <ele>219.335</ele>
        <time>2019-05-01T10:48:17Z</time>
      </trkpt>
      <trkpt lat="42.838872" lon="-8.591826">
        <ele>218.853</ele>
        <time>2019-05-01T10:48:18Z</time>
      </trkpt>
      <trkpt lat="42.838876" lon="-8.591743">
        <ele>218.321</ele>
        <time>2019-05-01T10:48:19Z</time>
      </trkpt>
      <trkpt lat="42.838883" lon="-8.591664">
        <ele>218.363</ele>
        <time>2019-05-01T10:48:20Z</time>
      </trkpt>
      <trkpt lat="42.838907" lon="-8.591594">
        <ele>217.833</ele>
        <time>2019-05-01T10:48:21Z</time>
      </trkpt>
      <trkpt lat="42.838938" lon="-8.591533">
        <ele>217.867</ele>
        <time>2019-05-01T10:48:22Z</time>
      </trkpt>
      <trkpt lat="42.838958" lon="-8.591468">
        <ele>217.445</ele>
        <time>2019-05-01T10:48:23Z</time>
      </trkpt>
      <trkpt lat="42.838959" lon="-8.591401">
        <ele>216.947</ele>
        <time>2019-05-01T10:48:24Z</time>
      </trkpt>
      <trkpt lat="42.838953" lon="-8.591333">
        <ele>216.911</ele>
        <time>2019-05-01T10:48:25Z</time>
      </trkpt>
      <trkpt lat="42.838921" lon="-8.591089">
        <ele>216.908</ele>
        <time>2019-05-01T10:48:29Z</time>
      </trkpt>
      <trkpt lat="42.838851" lon="-8.590795">
        <ele>215.927</ele>
        <time>2019-05-01T10:48:34Z</time>
      </trkpt>
      <trkpt lat="42.838837" lon="-8.590735">
        <ele>216.490</ele>
        <time>2019-05-01T10:48:35Z</time>
      </trkpt>
      <trkpt lat="42.838826" lon="-8.590674">
        <ele>216.436</ele>
        <time>2019-05-01T10:48:36Z</time>
      </trkpt>
      <trkpt lat="42.838797" lon="-8.590489">
        <ele>216.914</ele>
        <time>2019-05-01T10:48:39Z</time>
      </trkpt>
      <trkpt lat="42.838796" lon="-8.590424">
        <ele>217.452</ele>
        <time>2019-05-01T10:48:40Z</time>
      </trkpt>
      <trkpt lat="42.838802" lon="-8.590359">
        <ele>217.464</ele>
        <time>2019-05-01T10:48:41Z</time>
      </trkpt>
      <trkpt lat="42.838815" lon="-8.590298">
        <ele>217.484</ele>
        <time>2019-05-01T10:48:42Z</time>
      </trkpt>
      <trkpt lat="42.838834" lon="-8.590240">
        <ele>217.478</ele>
        <time>2019-05-01T10:48:43Z</time>
      </trkpt>
      <trkpt lat="42.838855" lon="-8.590184">
        <ele>217.851</ele>
        <time>2019-05-01T10:48:44Z</time>
      </trkpt>
      <trkpt lat="42.838920" lon="-8.590030">
        <ele>217.801</ele>
        <time>2019-05-01T10:48:47Z</time>
      </trkpt>
      <trkpt lat="42.838969" lon="-8.589928">
        <ele>217.811</ele>
        <time>2019-05-01T10:48:49Z</time>
      </trkpt>
      <trkpt lat="42.838990" lon="-8.589875">
        <ele>217.808</ele>
        <time>2019-05-01T10:48:50Z</time>
      </trkpt>
      <trkpt lat="42.839014" lon="-8.589826">
        <ele>218.348</ele>
        <time>2019-05-01T10:48:51Z</time>
      </trkpt>
      <trkpt lat="42.839038" lon="-8.589777">
        <ele>218.321</ele>
        <time>2019-05-01T10:48:52Z</time>
      </trkpt>
      <trkpt lat="42.839060" lon="-8.589724">
        <ele>218.387</ele>
        <time>2019-05-01T10:48:53Z</time>
      </trkpt>
      <trkpt lat="42.839080" lon="-8.589675">
        <ele>218.395</ele>
        <time>2019-05-01T10:48:54Z</time>
      </trkpt>
      <trkpt lat="42.839104" lon="-8.589626">
        <ele>218.353</ele>
        <time>2019-05-01T10:48:55Z</time>
      </trkpt>
      <trkpt lat="42.839480" lon="-8.588766">
        <ele>219.815</ele>
        <time>2019-05-01T10:49:12Z</time>
      </trkpt>
      <trkpt lat="42.839851" lon="-8.588000">
        <ele>219.835</ele>
        <time>2019-05-01T10:49:28Z</time>
      </trkpt>
      <trkpt lat="42.840209" lon="-8.587156">
        <ele>221.779</ele>
        <time>2019-05-01T10:49:45Z</time>
      </trkpt>
      <trkpt lat="42.840508" lon="-8.586371">
        <ele>221.772</ele>
        <time>2019-05-01T10:50:01Z</time>
      </trkpt>
      <trkpt lat="42.840527" lon="-8.586320">
        <ele>222.213</ele>
        <time>2019-05-01T10:50:02Z</time>
      </trkpt>
      <trkpt lat="42.840813" lon="-8.585571">
        <ele>224.114</ele>
        <time>2019-05-01T10:50:18Z</time>
      </trkpt>
      <trkpt lat="42.841012" lon="-8.585027">
        <ele>226.008</ele>
        <time>2019-05-01T10:50:31Z</time>
      </trkpt>
      <trkpt lat="42.841258" lon="-8.584296">
        <ele>228.480</ele>
        <time>2019-05-01T10:50:49Z</time>
      </trkpt>
      <trkpt lat="42.841504" lon="-8.583788">
        <ele>232.393</ele>
        <time>2019-05-01T10:51:04Z</time>
      </trkpt>
      <trkpt lat="42.841746" lon="-8.583378">
        <ele>234.219</ele>
        <time>2019-05-01T10:51:18Z</time>
      </trkpt>
      <trkpt lat="42.842104" lon="-8.582893">
        <ele>236.697</ele>
        <time>2019-05-01T10:51:36Z</time>
      </trkpt>
      <trkpt lat="42.842393" lon="-8.582655">
        <ele>237.155</ele>
        <time>2019-05-01T10:51:49Z</time>
      </trkpt>
      <trkpt lat="42.842761" lon="-8.582348">
        <ele>239.917</ele>
        <time>2019-05-01T10:52:05Z</time>
      </trkpt>
      <trkpt lat="42.842862" lon="-8.582251">
        <ele>241.417</ele>
        <time>2019-05-01T10:52:10Z</time>
      </trkpt>
      <trkpt lat="42.842876" lon="-8.582228">
        <ele>241.481</ele>
        <time>2019-05-01T10:52:11Z</time>
      </trkpt>
      <trkpt lat="42.842897" lon="-8.582208">
        <ele>241.489</ele>
        <time>2019-05-01T10:52:12Z</time>
      </trkpt>
      <trkpt lat="42.842923" lon="-8.582186">
        <ele>241.906</ele>
        <time>2019-05-01T10:52:13Z</time>
      </trkpt>
      <trkpt lat="42.842946" lon="-8.582165">
        <ele>242.326</ele>
        <time>2019-05-01T10:52:14Z</time>
      </trkpt>
      <trkpt lat="42.843214" lon="-8.581824">
        <ele>248.108</ele>
        <time>2019-05-01T10:52:29Z</time>
      </trkpt>
      <trkpt lat="42.843421" lon="-8.581603">
        <ele>248.611</ele>
        <time>2019-05-01T10:52:40Z</time>
      </trkpt>
      <trkpt lat="42.843440" lon="-8.581587">
        <ele>248.134</ele>
        <time>2019-05-01T10:52:41Z</time>
      </trkpt>
      <trkpt lat="42.843459" lon="-8.581566">
        <ele>248.180</ele>
        <time>2019-05-01T10:52:42Z</time>
      </trkpt>
      <trkpt lat="42.843471" lon="-8.581548">
        <ele>248.178</ele>
        <time>2019-05-01T10:52:43Z</time>
      </trkpt>
      <trkpt lat="42.843484" lon="-8.581528">
        <ele>248.176</ele>
        <time>2019-05-01T10:52:44Z</time>
      </trkpt>
      <trkpt lat="42.843503" lon="-8.581501">
        <ele>248.118</ele>
        <time>2019-05-01T10:52:45Z</time>
      </trkpt>
      <trkpt lat="42.843788" lon="-8.581271">
        <ele>251.538</ele>
        <time>2019-05-01T10:52:57Z</time>
      </trkpt>
      <trkpt lat="42.843868" lon="-8.581228">
        <ele>252.042</ele>
        <time>2019-05-01T10:53:01Z</time>
      </trkpt>
      <trkpt lat="42.843883" lon="-8.581212">
        <ele>252.084</ele>
        <time>2019-05-01T10:53:02Z</time>
      </trkpt>
      <trkpt lat="42.843900" lon="-8.581197">
        <ele>251.507</ele>
        <time>2019-05-01T10:53:03Z</time>
      </trkpt>
      <trkpt lat="42.844004" lon="-8.581126">
        <ele>251.517</ele>
        <time>2019-05-01T10:53:09Z</time>
      </trkpt>
      <trkpt lat="42.844019" lon="-8.581114">
        <ele>251.508</ele>
        <time>2019-05-01T10:53:10Z</time>
      </trkpt>
      <trkpt lat="42.844032" lon="-8.581107">
        <ele>252.021</ele>
        <time>2019-05-01T10:53:11Z</time>
      </trkpt>
      <trkpt lat="42.844044" lon="-8.581099">
        <ele>252.424</ele>
        <time>2019-05-01T10:53:12Z</time>
      </trkpt>
      <trkpt lat="42.844059" lon="-8.581088">
        <ele>252.960</ele>
        <time>2019-05-01T10:53:13Z</time>
      </trkpt>
      <trkpt lat="42.844074" lon="-8.581080">
        <ele>252.968</ele>
        <time>2019-05-01T10:53:14Z</time>
      </trkpt>
      <trkpt lat="42.844237" lon="-8.580942">
        <ele>252.926</ele>
        <time>2019-05-01T10:53:27Z</time>
      </trkpt>
      <trkpt lat="42.844254" lon="-8.580935">
        <ele>252.928</ele>
        <time>2019-05-01T10:53:28Z</time>
      </trkpt>
      <trkpt lat="42.844271" lon="-8.580927">
        <ele>253.468</ele>
        <time>2019-05-01T10:53:29Z</time>
      </trkpt>
      <trkpt lat="42.844361" lon="-8.580855">
        <ele>252.962</ele>
        <time>2019-05-01T10:53:36Z</time>
      </trkpt>
      <trkpt lat="42.844372" lon="-8.580843">
        <ele>253.412</ele>
        <time>2019-05-01T10:53:37Z</time>
      </trkpt>
      <trkpt lat="42.844383" lon="-8.580833">
        <ele>253.432</ele>
        <time>2019-05-01T10:53:38Z</time>
      </trkpt>
      <trkpt lat="42.844394" lon="-8.580824">
        <ele>253.405</ele>
        <time>2019-05-01T10:53:39Z</time>
      </trkpt>
      <trkpt lat="42.844406" lon="-8.580815">
        <ele>253.408</ele>
        <time>2019-05-01T10:53:40Z</time>
      </trkpt>
      <trkpt lat="42.844419" lon="-8.580804">
        <ele>253.434</ele>
        <time>2019-05-01T10:53:41Z</time>
      </trkpt>
      <trkpt lat="42.844434" lon="-8.580798">
        <ele>253.417</ele>
        <time>2019-05-01T10:53:42Z</time>
      </trkpt>
      <trkpt lat="42.844449" lon="-8.580795">
        <ele>253.963</ele>
        <time>2019-05-01T10:53:43Z</time>
      </trkpt>
      <trkpt lat="42.844651" lon="-8.580700">
        <ele>254.831</ele>
        <time>2019-05-01T10:53:56Z</time>
      </trkpt>
      <trkpt lat="42.844774" lon="-8.580615">
        <ele>255.889</ele>
        <time>2019-05-01T10:54:04Z</time>
      </trkpt>
      <trkpt lat="42.844793" lon="-8.580603">
        <ele>255.861</ele>
        <time>2019-05-01T10:54:05Z</time>
      </trkpt>
      <trkpt lat="42.844871" lon="-8.580573">
        <ele>255.321</ele>
        <time>2019-05-01T10:54:10Z</time>
      </trkpt>
      <trkpt lat="42.844919" lon="-8.580560">
        <ele>255.825</ele>
        <time>2019-05-01T10:54:26Z</time>
      </trkpt>
      <trkpt lat="42.844939" lon="-8.580557">
        <ele>255.876</ele>
        <time>2019-05-01T10:54:50Z</time>
      </trkpt>
      <trkpt lat="42.844950" lon="-8.580558">
        <ele>255.390</ele>
        <time>2019-05-01T10:54:55Z</time>
      </trkpt>
      <trkpt lat="42.844964" lon="-8.580558">
        <ele>255.819</ele>
        <time>2019-05-01T10:54:56Z</time>
      </trkpt>
      <trkpt lat="42.844978" lon="-8.580560">
        <ele>256.308</ele>
        <time>2019-05-01T10:54:57Z</time>
      </trkpt>
      <trkpt lat="42.844996" lon="-8.580558">
        <ele>256.820</ele>
        <time>2019-05-01T10:54:58Z</time>
      </trkpt>
      <trkpt lat="42.845018" lon="-8.580554">
        <ele>256.813</ele>
        <time>2019-05-01T10:54:59Z</time>
      </trkpt>
      <trkpt lat="42.845039" lon="-8.580552">
        <ele>257.259</ele>
        <time>2019-05-01T10:55:00Z</time>
      </trkpt>
      <trkpt lat="42.845434" lon="-8.580488">
        <ele>257.217</ele>
        <time>2019-05-01T10:55:15Z</time>
      </trkpt>
      <trkpt lat="42.845768" lon="-8.580438">
        <ele>256.375</ele>
        <time>2019-05-01T10:55:26Z</time>
      </trkpt>
      <trkpt lat="42.845806" lon="-8.580435">
        <ele>256.317</ele>
        <time>2019-05-01T10:55:27Z</time>
      </trkpt>
      <trkpt lat="42.846264" lon="-8.580376">
        <ele>255.897</ele>
        <time>2019-05-01T10:55:41Z</time>
      </trkpt>
      <trkpt lat="42.846793" lon="-8.580307">
        <ele>253.961</ele>
        <time>2019-05-01T10:55:56Z</time>
      </trkpt>
      <trkpt lat="42.847346" lon="-8.580247">
        <ele>252.464</ele>
        <time>2019-05-01T10:56:11Z</time>
      </trkpt>
      <trkpt lat="42.847596" lon="-8.580196">
        <ele>252.406</ele>
        <time>2019-05-01T10:56:21Z</time>
      </trkpt>
      <trkpt lat="42.847767" lon="-8.580148">
        <ele>252.416</ele>
        <time>2019-05-01T10:56:29Z</time>
      </trkpt>
      <trkpt lat="42.848072" lon="-8.580109">
        <ele>254.408</ele>
        <time>2019-05-01T10:56:41Z</time>
      </trkpt>
      <trkpt lat="42.848400" lon="-8.580042">
        <ele>258.739</ele>
        <time>2019-05-01T10:56:52Z</time>
      </trkpt>
      <trkpt lat="42.848540" lon="-8.580047">
        <ele>260.172</ele>
        <time>2019-05-01T10:56:57Z</time>
      </trkpt>
      <trkpt lat="42.848568" lon="-8.580033">
        <ele>260.158</ele>
        <time>2019-05-01T10:56:58Z</time>
      </trkpt>
      <trkpt lat="42.848589" lon="-8.580008">
        <ele>260.176</ele>
        <time>2019-05-01T10:56:59Z</time>
      </trkpt>
      <trkpt lat="42.848608" lon="-8.579977">
        <ele>260.114</ele>
        <time>2019-05-01T10:57:00Z</time>
      </trkpt>
      <trkpt lat="42.848621" lon="-8.579945">
        <ele>259.616</ele>
        <time>2019-05-01T10:57:01Z</time>
      </trkpt>
      <trkpt lat="42.848700" lon="-8.579763">
        <ele>260.696</ele>
        <time>2019-05-01T10:57:06Z</time>
      </trkpt>
      <trkpt lat="42.848861" lon="-8.579555">
        <ele>261.130</ele>
        <time>2019-05-01T10:57:10Z</time>
      </trkpt>
      <trkpt lat="42.848925" lon="-8.579438">
        <ele>261.673</ele>
        <time>2019-05-01T10:57:12Z</time>
      </trkpt>
      <trkpt lat="42.848994" lon="-8.578974">
        <ele>259.285</ele>
        <time>2019-05-01T10:57:19Z</time>
      </trkpt>
      <trkpt lat="42.849029" lon="-8.578889">
        <ele>258.213</ele>
        <time>2019-05-01T10:57:20Z</time>
      </trkpt>
      <trkpt lat="42.849151" lon="-8.578626">
        <ele>257.208</ele>
        <time>2019-05-01T10:57:23Z</time>
      </trkpt>
      <trkpt lat="42.849224" lon="-8.578499">
        <ele>256.380</ele>
        <time>2019-05-01T10:57:25Z</time>
      </trkpt>
      <trkpt lat="42.849248" lon="-8.578446">
        <ele>254.893</ele>
        <time>2019-05-01T10:57:26Z</time>
      </trkpt>
      <trkpt lat="42.849263" lon="-8.578401">
        <ele>253.449</ele>
        <time>2019-05-01T10:57:27Z</time>
      </trkpt>
      <trkpt lat="42.849271" lon="-8.578360">
        <ele>252.077</ele>
        <time>2019-05-01T10:57:28Z</time>
      </trkpt>
      <trkpt lat="42.849267" lon="-8.578322">
        <ele>250.585</ele>
        <time>2019-05-01T10:57:29Z</time>
      </trkpt>
      <trkpt lat="42.849256" lon="-8.578287">
        <ele>249.657</ele>
        <time>2019-05-01T10:57:30Z</time>
      </trkpt>
      <trkpt lat="42.849243" lon="-8.578259">
        <ele>248.177</ele>
        <time>2019-05-01T10:57:31Z</time>
      </trkpt>
      <trkpt lat="42.849224" lon="-8.578233">
        <ele>246.741</ele>
        <time>2019-05-01T10:57:32Z</time>
      </trkpt>
      <trkpt lat="42.849212" lon="-8.578202">
        <ele>245.713</ele>
        <time>2019-05-01T10:57:33Z</time>
      </trkpt>
      <trkpt lat="42.849198" lon="-8.578169">
        <ele>245.243</ele>
        <time>2019-05-01T10:57:34Z</time>
      </trkpt>
      <trkpt lat="42.849185" lon="-8.578133">
        <ele>244.307</ele>
        <time>2019-05-01T10:57:35Z</time>
      </trkpt>
      <trkpt lat="42.849089" lon="-8.577918">
        <ele>240.908</ele>
        <time>2019-05-01T10:57:40Z</time>
      </trkpt>
      <trkpt lat="42.849071" lon="-8.577855">
        <ele>240.444</ele>
        <time>2019-05-01T10:57:41Z</time>
      </trkpt>
      <trkpt lat="42.849054" lon="-8.577787">
        <ele>239.917</ele>
        <time>2019-05-01T10:57:42Z</time>
      </trkpt>
      <trkpt lat="42.849040" lon="-8.577717">
        <ele>239.553</ele>
        <time>2019-05-01T10:57:43Z</time>
      </trkpt>
      <trkpt lat="42.849027" lon="-8.577651">
        <ele>239.051</ele>
        <time>2019-05-01T10:57:44Z</time>
      </trkpt>
      <trkpt lat="42.848975" lon="-8.577385">
        <ele>237.189</ele>
        <time>2019-05-01T10:57:48Z</time>
      </trkpt>
      <trkpt lat="42.848985" lon="-8.577325">
        <ele>236.631</ele>
        <time>2019-05-01T10:57:49Z</time>
      </trkpt>
      <trkpt lat="42.849007" lon="-8.577271">
        <ele>236.121</ele>
        <time>2019-05-01T10:57:50Z</time>
      </trkpt>
      <trkpt lat="42.849035" lon="-8.577229">
        <ele>235.635</ele>
        <time>2019-05-01T10:57:51Z</time>
      </trkpt>
      <trkpt lat="42.849065" lon="-8.577189">
        <ele>235.678</ele>
        <time>2019-05-01T10:57:52Z</time>
      </trkpt>
      <trkpt lat="42.849343" lon="-8.576951">
        <ele>233.233</ele>
        <time>2019-05-01T10:58:01Z</time>
      </trkpt>
      <trkpt lat="42.849697" lon="-8.576923">
        <ele>231.826</ele>
        <time>2019-05-01T10:58:13Z</time>
      </trkpt>
      <trkpt lat="42.849735" lon="-8.576932">
        <ele>231.808</ele>
        <time>2019-05-01T10:58:14Z</time>
      </trkpt>
      <trkpt lat="42.849951" lon="-8.576943">
        <ele>231.340</ele>
        <time>2019-05-01T10:58:18Z</time>
      </trkpt>
      <trkpt lat="42.850063" lon="-8.576962">
        <ele>230.393</ele>
        <time>2019-05-01T10:58:20Z</time>
      </trkpt>
      <trkpt lat="42.850235" lon="-8.577011">
        <ele>229.469</ele>
        <time>2019-05-01T10:58:23Z</time>
      </trkpt>
      <trkpt lat="42.850825" lon="-8.577204">
        <ele>227.937</ele>
        <time>2019-05-01T10:58:35Z</time>
      </trkpt>
      <trkpt lat="42.850938" lon="-8.577222">
        <ele>227.995</ele>
        <time>2019-05-01T10:58:38Z</time>
      </trkpt>
      <trkpt lat="42.850983" lon="-8.577215">
        <ele>227.447</ele>
        <time>2019-05-01T10:58:39Z</time>
      </trkpt>
      <trkpt lat="42.851033" lon="-8.577207">
        <ele>227.497</ele>
        <time>2019-05-01T10:58:40Z</time>
      </trkpt>
      <trkpt lat="42.851078" lon="-8.577198">
        <ele>227.481</ele>
        <time>2019-05-01T10:58:41Z</time>
      </trkpt>
      <trkpt lat="42.851116" lon="-8.577180">
        <ele>227.031</ele>
        <time>2019-05-01T10:58:42Z</time>
      </trkpt>
      <trkpt lat="42.851155" lon="-8.577153">
        <ele>227.061</ele>
        <time>2019-05-01T10:58:43Z</time>
      </trkpt>
      <trkpt lat="42.851188" lon="-8.577118">
        <ele>226.507</ele>
        <time>2019-05-01T10:58:44Z</time>
      </trkpt>
      <trkpt lat="42.851213" lon="-8.577079">
        <ele>226.508</ele>
        <time>2019-05-01T10:58:45Z</time>
      </trkpt>
      <trkpt lat="42.851536" lon="-8.576651">
        <ele>226.546</ele>
        <time>2019-05-01T10:58:58Z</time>
      </trkpt>
      <trkpt lat="42.851747" lon="-8.576363">
        <ele>225.529</ele>
        <time>2019-05-01T10:59:05Z</time>
      </trkpt>
      <trkpt lat="42.851780" lon="-8.576324">
        <ele>225.055</ele>
        <time>2019-05-01T10:59:06Z</time>
      </trkpt>
      <trkpt lat="42.851812" lon="-8.576287">
        <ele>225.053</ele>
        <time>2019-05-01T10:59:07Z</time>
      </trkpt>
      <trkpt lat="42.851969" lon="-8.575992">
        <ele>224.641</ele>
        <time>2019-05-01T10:59:17Z</time>
      </trkpt>
      <trkpt lat="42.852227" lon="-8.575705">
        <ele>226.063</ele>
        <time>2019-05-01T10:59:27Z</time>
      </trkpt>
      <trkpt lat="42.852415" lon="-8.575369">
        <ele>226.593</ele>
        <time>2019-05-01T10:59:36Z</time>
      </trkpt>
      <trkpt lat="42.852444" lon="-8.575318">
        <ele>226.567</ele>
        <time>2019-05-01T10:59:37Z</time>
      </trkpt>
      <trkpt lat="42.852478" lon="-8.575271">
        <ele>226.577</ele>
        <time>2019-05-01T10:59:38Z</time>
      </trkpt>
      <trkpt lat="42.852515" lon="-8.575231">
        <ele>226.061</ele>
        <time>2019-05-01T10:59:39Z</time>
      </trkpt>
      <trkpt lat="42.852557" lon="-8.575191">
        <ele>226.027</ele>
        <time>2019-05-01T10:59:40Z</time>
      </trkpt>
      <trkpt lat="42.852676" lon="-8.575058">
        <ele>226.008</ele>
        <time>2019-05-01T10:59:43Z</time>
      </trkpt>
      <trkpt lat="42.852710" lon="-8.575007">
        <ele>226.510</ele>
        <time>2019-05-01T10:59:44Z</time>
      </trkpt>
      <trkpt lat="42.852740" lon="-8.574953">
        <ele>226.513</ele>
        <time>2019-05-01T10:59:45Z</time>
      </trkpt>
      <trkpt lat="42.852766" lon="-8.574901">
        <ele>226.019</ele>
        <time>2019-05-01T10:59:46Z</time>
      </trkpt>
      <trkpt lat="42.852786" lon="-8.574850">
        <ele>226.077</ele>
        <time>2019-05-01T10:59:47Z</time>
      </trkpt>
      <trkpt lat="42.852802" lon="-8.574807">
        <ele>226.095</ele>
        <time>2019-05-01T10:59:48Z</time>
      </trkpt>
      <trkpt lat="42.852942" lon="-8.574261">
        <ele>223.697</ele>
        <time>2019-05-01T11:00:01Z</time>
      </trkpt>
      <trkpt lat="42.853044" lon="-8.574093">
        <ele>222.257</ele>
        <time>2019-05-01T11:00:11Z</time>
      </trkpt>
      <trkpt lat="42.853329" lon="-8.574156">
        <ele>222.281</ele>
        <time>2019-05-01T11:00:21Z</time>
      </trkpt>
      <trkpt lat="42.853373" lon="-8.574167">
        <ele>221.751</ele>
        <time>2019-05-01T11:00:22Z</time>
      </trkpt>
      <trkpt lat="42.853424" lon="-8.574167">
        <ele>221.201</ele>
        <time>2019-05-01T11:00:23Z</time>
      </trkpt>
      <trkpt lat="42.854031" lon="-8.574138">
        <ele>217.411</ele>
        <time>2019-05-01T11:00:33Z</time>
      </trkpt>
      <trkpt lat="42.854079" lon="-8.574123">
        <ele>216.908</ele>
        <time>2019-05-01T11:00:34Z</time>
      </trkpt>
      <trkpt lat="42.854125" lon="-8.574101">
        <ele>216.998</ele>
        <time>2019-05-01T11:00:35Z</time>
      </trkpt>
      <trkpt lat="42.854169" lon="-8.574077">
        <ele>216.411</ele>
        <time>2019-05-01T11:00:36Z</time>
      </trkpt>
      <trkpt lat="42.854209" lon="-8.574051">
        <ele>216.477</ele>
        <time>2019-05-01T11:00:37Z</time>
      </trkpt>
      <trkpt lat="42.854241" lon="-8.574010">
        <ele>215.995</ele>
        <time>2019-05-01T11:00:38Z</time>
      </trkpt>
      <trkpt lat="42.854250" lon="-8.573955">
        <ele>215.993</ele>
        <time>2019-05-01T11:00:39Z</time>
      </trkpt>
      <trkpt lat="42.854235" lon="-8.573906">
        <ele>215.465</ele>
        <time>2019-05-01T11:00:40Z</time>
      </trkpt>
      <trkpt lat="42.854202" lon="-8.573876">
        <ele>215.485</ele>
        <time>2019-05-01T11:00:41Z</time>
      </trkpt>
      <trkpt lat="42.854162" lon="-8.573856">
        <ele>214.959</ele>
        <time>2019-05-01T11:00:42Z</time>
      </trkpt>
      <trkpt lat="42.854118" lon="-8.573835">
        <ele>214.996</ele>
        <time>2019-05-01T11:00:43Z</time>
      </trkpt>
      <trkpt lat="42.853518" lon="-8.573505">
        <ele>212.131</ele>
        <time>2019-05-01T11:00:52Z</time>
      </trkpt>
      <trkpt lat="42.853215" lon="-8.573275">
        <ele>210.124</ele>
        <time>2019-05-01T11:00:58Z</time>
      </trkpt>
      <trkpt lat="42.853188" lon="-8.573241">
        <ele>209.708</ele>
        <time>2019-05-01T11:00:59Z</time>
      </trkpt>
      <trkpt lat="42.853090" lon="-8.573091">
        <ele>206.372</ele>
        <time>2019-05-01T11:01:06Z</time>
      </trkpt>
      <trkpt lat="42.853143" lon="-8.573014">
        <ele>205.825</ele>
        <time>2019-05-01T11:01:09Z</time>
      </trkpt>
      <trkpt lat="42.853595" lon="-8.572792">
        <ele>206.881</ele>
        <time>2019-05-01T11:01:22Z</time>
      </trkpt>
      <trkpt lat="42.853650" lon="-8.572778">
        <ele>207.349</ele>
        <time>2019-05-01T11:01:23Z</time>
      </trkpt>
      <trkpt lat="42.853742" lon="-8.572787">
        <ele>206.857</ele>
        <time>2019-05-01T11:01:25Z</time>
      </trkpt>
      <trkpt lat="42.853789" lon="-8.572799">
        <ele>206.869</ele>
        <time>2019-05-01T11:01:26Z</time>
      </trkpt>
      <trkpt lat="42.853835" lon="-8.572821">
        <ele>206.839</ele>
        <time>2019-05-01T11:01:27Z</time>
      </trkpt>
      <trkpt lat="42.853932" lon="-8.572877">
        <ele>206.323</ele>
        <time>2019-05-01T11:01:29Z</time>
      </trkpt>
      <trkpt lat="42.853980" lon="-8.572913">
        <ele>206.345</ele>
        <time>2019-05-01T11:01:30Z</time>
      </trkpt>
      <trkpt lat="42.854094" lon="-8.572986">
        <ele>205.847</ele>
        <time>2019-05-01T11:01:32Z</time>
      </trkpt>
      <trkpt lat="42.854161" lon="-8.573008">
        <ele>205.811</ele>
        <time>2019-05-01T11:01:33Z</time>
      </trkpt>
      <trkpt lat="42.854231" lon="-8.573013">
        <ele>205.808</ele>
        <time>2019-05-01T11:01:34Z</time>
      </trkpt>
      <trkpt lat="42.854302" lon="-8.573009">
        <ele>205.387</ele>
        <time>2019-05-01T11:01:35Z</time>
      </trkpt>
      <trkpt lat="42.854372" lon="-8.572999">
        <ele>204.930</ele>
        <time>2019-05-01T11:01:36Z</time>
      </trkpt>
      <trkpt lat="42.855255" lon="-8.572820">
        <ele>202.496</ele>
        <time>2019-05-01T11:01:49Z</time>
      </trkpt>
      <trkpt lat="42.855744" lon="-8.572719">
        <ele>201.024</ele>
        <time>2019-05-01T11:01:57Z</time>
      </trkpt>
      <trkpt lat="42.855856" lon="-8.572752">
        <ele>200.512</ele>
        <time>2019-05-01T11:01:59Z</time>
      </trkpt>
      <trkpt lat="42.855905" lon="-8.572786">
        <ele>200.564</ele>
        <time>2019-05-01T11:02:00Z</time>
      </trkpt>
      <trkpt lat="42.855945" lon="-8.572822">
        <ele>200.034</ele>
        <time>2019-05-01T11:02:01Z</time>
      </trkpt>
      <trkpt lat="42.855983" lon="-8.572856">
        <ele>200.588</ele>
        <time>2019-05-01T11:02:02Z</time>
      </trkpt>
      <trkpt lat="42.856331" lon="-8.573305">
        <ele>201.578</ele>
        <time>2019-05-01T11:02:16Z</time>
      </trkpt>
      <trkpt lat="42.856451" lon="-8.573744">
        <ele>203.933</ele>
        <time>2019-05-01T11:02:29Z</time>
      </trkpt>
      <trkpt lat="42.856470" lon="-8.574123">
        <ele>207.326</ele>
        <time>2019-05-01T11:02:43Z</time>
      </trkpt>
      <trkpt lat="42.856489" lon="-8.574424">
        <ele>209.708</ele>
        <time>2019-05-01T11:02:56Z</time>
      </trkpt>
      <trkpt lat="42.856510" lon="-8.574774">
        <ele>213.570</ele>
        <time>2019-05-01T11:03:11Z</time>
      </trkpt>
      <trkpt lat="42.856591" lon="-8.575035">
        <ele>216.973</ele>
        <time>2019-05-01T11:03:23Z</time>
      </trkpt>
      <trkpt lat="42.856794" lon="-8.575300">
        <ele>219.869</ele>
        <time>2019-05-01T11:03:36Z</time>
      </trkpt>
      <trkpt lat="42.857017" lon="-8.575380">
        <ele>219.827</ele>
        <time>2019-05-01T11:03:43Z</time>
      </trkpt>
      <trkpt lat="42.857058" lon="-8.575397">
        <ele>219.855</ele>
        <time>2019-05-01T11:03:44Z</time>
      </trkpt>
      <trkpt lat="42.857099" lon="-8.575425">
        <ele>219.327</ele>
        <time>2019-05-01T11:03:45Z</time>
      </trkpt>
      <trkpt lat="42.857188" lon="-8.575498">
        <ele>219.327</ele>
        <time>2019-05-01T11:03:47Z</time>
      </trkpt>
      <trkpt lat="42.857282" lon="-8.575581">
        <ele>218.861</ele>
        <time>2019-05-01T11:03:49Z</time>
      </trkpt>
      <trkpt lat="42.857901" lon="-8.576122">
        <ele>216.436</ele>
        <time>2019-05-01T11:04:03Z</time>
      </trkpt>
      <trkpt lat="42.857977" lon="-8.576198">
        <ele>215.917</ele>
        <time>2019-05-01T11:04:05Z</time>
      </trkpt>
      <trkpt lat="42.858011" lon="-8.576242">
        <ele>215.918</ele>
        <time>2019-05-01T11:04:06Z</time>
      </trkpt>
      <trkpt lat="42.858047" lon="-8.576273">
        <ele>215.908</ele>
        <time>2019-05-01T11:04:07Z</time>
      </trkpt>
      <trkpt lat="42.858085" lon="-8.576294">
        <ele>215.976</ele>
        <time>2019-05-01T11:04:08Z</time>
      </trkpt>
      <trkpt lat="42.858120" lon="-8.576306">
        <ele>215.979</ele>
        <time>2019-05-01T11:04:09Z</time>
      </trkpt>
      <trkpt lat="42.858147" lon="-8.576322">
        <ele>216.445</ele>
        <time>2019-05-01T11:04:10Z</time>
      </trkpt>
      <trkpt lat="42.858170" lon="-8.576343">
        <ele>216.483</ele>
        <time>2019-05-01T11:04:11Z</time>
      </trkpt>
      <trkpt lat="42.858445" lon="-8.576610">
        <ele>214.971</ele>
        <time>2019-05-01T11:04:22Z</time>
      </trkpt>
      <trkpt lat="42.858723" lon="-8.576956">
        <ele>212.513</ele>
        <time>2019-05-01T11:04:35Z</time>
      </trkpt>
      <trkpt lat="42.858896" lon="-8.577108">
        <ele>209.713</ele>
        <time>2019-05-01T11:04:46Z</time>
      </trkpt>
      <trkpt lat="42.858999" lon="-8.577113">
        <ele>209.247</ele>
        <time>2019-05-01T11:04:57Z</time>
      </trkpt>
      <trkpt lat="42.859014" lon="-8.577107">
        <ele>209.283</ele>
        <time>2019-05-01T11:05:01Z</time>
      </trkpt>
      <trkpt lat="42.859309" lon="-8.576949">
        <ele>209.725</ele>
        <time>2019-05-01T11:05:12Z</time>
      </trkpt>
      <trkpt lat="42.859428" lon="-8.576839">
        <ele>208.217</ele>
        <time>2019-05-01T11:05:16Z</time>
      </trkpt>
      <trkpt lat="42.859470" lon="-8.576814">
        <ele>207.708</ele>
        <time>2019-05-01T11:05:17Z</time>
      </trkpt>
      <trkpt lat="42.859606" lon="-8.576735">
        <ele>206.321</ele>
        <time>2019-05-01T11:05:20Z</time>
      </trkpt>
      <trkpt lat="42.859757" lon="-8.576635">
        <ele>206.314</ele>
        <time>2019-05-01T11:05:24Z</time>
      </trkpt>
      <trkpt lat="42.859801" lon="-8.576621">
        <ele>206.830</ele>
        <time>2019-05-01T11:05:25Z</time>
      </trkpt>
      <trkpt lat="42.859845" lon="-8.576619">
        <ele>207.328</ele>
        <time>2019-05-01T11:05:26Z</time>
      </trkpt>
      <trkpt lat="42.859891" lon="-8.576631">
        <ele>207.366</ele>
        <time>2019-05-01T11:05:27Z</time>
      </trkpt>
      <trkpt lat="42.859932" lon="-8.576656">
        <ele>207.358</ele>
        <time>2019-05-01T11:05:28Z</time>
      </trkpt>
      <trkpt lat="42.859964" lon="-8.576689">
        <ele>207.728</ele>
        <time>2019-05-01T11:05:29Z</time>
      </trkpt>
      <trkpt lat="42.859991" lon="-8.576720">
        <ele>207.742</ele>
        <time>2019-05-01T11:05:30Z</time>
      </trkpt>
      <trkpt lat="42.860022" lon="-8.576742">
        <ele>208.263</ele>
        <time>2019-05-01T11:05:31Z</time>
      </trkpt>
      <trkpt lat="42.860055" lon="-8.576763">
        <ele>208.744</ele>
        <time>2019-05-01T11:05:32Z</time>
      </trkpt>
      <trkpt lat="42.860116" lon="-8.576816">
        <ele>209.718</ele>
        <time>2019-05-01T11:05:34Z</time>
      </trkpt>
      <trkpt lat="42.860362" lon="-8.576981">
        <ele>213.008</ele>
        <time>2019-05-01T11:05:44Z</time>
      </trkpt>
      <trkpt lat="42.860787" lon="-8.577095">
        <ele>213.059</ele>
        <time>2019-05-01T11:05:58Z</time>
      </trkpt>
      <trkpt lat="42.861144" lon="-8.577091">
        <ele>213.532</ele>
        <time>2019-05-01T11:06:09Z</time>
      </trkpt>
      <trkpt lat="42.861506" lon="-8.576907">
        <ele>217.448</ele>
        <time>2019-05-01T11:06:23Z</time>
      </trkpt>
      <trkpt lat="42.861780" lon="-8.576549">
        <ele>214.596</ele>
        <time>2019-05-01T11:06:33Z</time>
      </trkpt>
      <trkpt lat="42.861997" lon="-8.576195">
        <ele>214.074</ele>
        <time>2019-05-01T11:06:40Z</time>
      </trkpt>
      <trkpt lat="42.862037" lon="-8.576155">
        <ele>213.516</ele>
        <time>2019-05-01T11:06:41Z</time>
      </trkpt>
      <trkpt lat="42.862284" lon="-8.575916">
        <ele>211.116</ele>
        <time>2019-05-01T11:06:46Z</time>
      </trkpt>
      <trkpt lat="42.862350" lon="-8.575877">
        <ele>210.630</ele>
        <time>2019-05-01T11:06:47Z</time>
      </trkpt>
      <trkpt lat="42.862417" lon="-8.575847">
        <ele>210.153</ele>
        <time>2019-05-01T11:06:48Z</time>
      </trkpt>
      <trkpt lat="42.862485" lon="-8.575826">
        <ele>209.704</ele>
        <time>2019-05-01T11:06:49Z</time>
      </trkpt>
      <trkpt lat="42.862552" lon="-8.575815">
        <ele>209.214</ele>
        <time>2019-05-01T11:06:50Z</time>
      </trkpt>
      <trkpt lat="42.862618" lon="-8.575806">
        <ele>208.708</ele>
        <time>2019-05-01T11:06:51Z</time>
      </trkpt>
      <trkpt lat="42.863035" lon="-8.575804">
        <ele>205.848</ele>
        <time>2019-05-01T11:07:00Z</time>
      </trkpt>
      <trkpt lat="42.863040" lon="-8.575774">
        <ele>205.381</ele>
        <time>2019-05-01T11:07:01Z</time>
      </trkpt>
      <trkpt lat="42.863038" lon="-8.575739">
        <ele>205.327</ele>
        <time>2019-05-01T11:07:02Z</time>
      </trkpt>
      <trkpt lat="42.863034" lon="-8.575545">
        <ele>204.475</ele>
        <time>2019-05-01T11:07:06Z</time>
      </trkpt>
      <trkpt lat="42.863172" lon="-8.574710">
        <ele>198.643</ele>
        <time>2019-05-01T11:07:14Z</time>
      </trkpt>
      <trkpt lat="42.863437" lon="-8.574030">
        <ele>196.265</ele>
        <time>2019-05-01T11:07:22Z</time>
      </trkpt>
      <trkpt lat="42.863692" lon="-8.574034">
        <ele>193.855</ele>
        <time>2019-05-01T11:07:31Z</time>
      </trkpt>
      <trkpt lat="42.863724" lon="-8.574070">
        <ele>193.889</ele>
        <time>2019-05-01T11:07:32Z</time>
      </trkpt>
      <trkpt lat="42.863863" lon="-8.574257">
        <ele>192.899</ele>
        <time>2019-05-01T11:07:36Z</time>
      </trkpt>
      <trkpt lat="42.863905" lon="-8.574308">
        <ele>192.407</ele>
        <time>2019-05-01T11:07:37Z</time>
      </trkpt>
      <trkpt lat="42.863952" lon="-8.574363">
        <ele>191.927</ele>
        <time>2019-05-01T11:07:38Z</time>
      </trkpt>
      <trkpt lat="42.864500" lon="-8.575234">
        <ele>185.608</ele>
        <time>2019-05-01T11:07:48Z</time>
      </trkpt>
      <trkpt lat="42.864882" lon="-8.575854">
        <ele>187.172</ele>
        <time>2019-05-01T11:07:57Z</time>
      </trkpt>
      <trkpt lat="42.864967" lon="-8.575992">
        <ele>187.185</ele>
        <time>2019-05-01T11:08:00Z</time>
      </trkpt>
      <trkpt lat="42.865005" lon="-8.576006">
        <ele>187.571</ele>
        <time>2019-05-01T11:08:01Z</time>
      </trkpt>
      <trkpt lat="42.865044" lon="-8.575992">
        <ele>187.559</ele>
        <time>2019-05-01T11:08:02Z</time>
      </trkpt>
      <trkpt lat="42.865091" lon="-8.575943">
        <ele>188.077</ele>
        <time>2019-05-01T11:08:03Z</time>
      </trkpt>
      <trkpt lat="42.865150" lon="-8.575874">
        <ele>188.019</ele>
        <time>2019-05-01T11:08:04Z</time>
      </trkpt>
      <trkpt lat="42.865454" lon="-8.575503">
        <ele>186.179</ele>
        <time>2019-05-01T11:08:09Z</time>
      </trkpt>
      <trkpt lat="42.865521" lon="-8.575443">
        <ele>185.643</ele>
        <time>2019-05-01T11:08:10Z</time>
      </trkpt>
      <trkpt lat="42.865591" lon="-8.575397">
        <ele>185.125</ele>
        <time>2019-05-01T11:08:11Z</time>
      </trkpt>
      <trkpt lat="42.865657" lon="-8.575347">
        <ele>184.226</ele>
        <time>2019-05-01T11:08:12Z</time>
      </trkpt>
      <trkpt lat="42.865720" lon="-8.575287">
        <ele>183.208</ele>
        <time>2019-05-01T11:08:13Z</time>
      </trkpt>
      <trkpt lat="42.865833" lon="-8.575182">
        <ele>181.808</ele>
        <time>2019-05-01T11:08:15Z</time>
      </trkpt>
      <trkpt lat="42.865992" lon="-8.575056">
        <ele>177.995</ele>
        <time>2019-05-01T11:08:18Z</time>
      </trkpt>
      <trkpt lat="42.866029" lon="-8.574993">
        <ele>177.078</ele>
        <time>2019-05-01T11:08:19Z</time>
      </trkpt>
      <trkpt lat="42.866044" lon="-8.574916">
        <ele>176.044</ele>
        <time>2019-05-01T11:08:20Z</time>
      </trkpt>
      <trkpt lat="42.866092" lon="-8.574698">
        <ele>174.142</ele>
        <time>2019-05-01T11:08:23Z</time>
      </trkpt>
      <trkpt lat="42.866100" lon="-8.574625">
        <ele>173.690</ele>
        <time>2019-05-01T11:08:24Z</time>
      </trkpt>
      <trkpt lat="42.866130" lon="-8.574115">
        <ele>169.892</ele>
        <time>2019-05-01T11:08:30Z</time>
      </trkpt>
      <trkpt lat="42.866126" lon="-8.574025">
        <ele>169.322</ele>
        <time>2019-05-01T11:08:31Z</time>
      </trkpt>
      <trkpt lat="42.866073" lon="-8.573683">
        <ele>168.376</ele>
        <time>2019-05-01T11:08:35Z</time>
      </trkpt>
      <trkpt lat="42.866047" lon="-8.573606">
        <ele>167.846</ele>
        <time>2019-05-01T11:08:36Z</time>
      </trkpt>
      <trkpt lat="42.866018" lon="-8.573533">
        <ele>167.488</ele>
        <time>2019-05-01T11:08:37Z</time>
      </trkpt>
      <trkpt lat="42.865651" lon="-8.572555">
        <ele>163.016</ele>
        <time>2019-05-01T11:08:49Z</time>
      </trkpt>
      <trkpt lat="42.865634" lon="-8.572496">
        <ele>162.608</ele>
        <time>2019-05-01T11:08:50Z</time>
      </trkpt>
      <trkpt lat="42.865633" lon="-8.572439">
        <ele>162.177</ele>
        <time>2019-05-01T11:08:51Z</time>
      </trkpt>
      <trkpt lat="42.865650" lon="-8.572378">
        <ele>161.670</ele>
        <time>2019-05-01T11:08:52Z</time>
      </trkpt>
      <trkpt lat="42.865681" lon="-8.572323">
        <ele>161.646</ele>
        <time>2019-05-01T11:08:53Z</time>
      </trkpt>
      <trkpt lat="42.865717" lon="-8.572288">
        <ele>161.674</ele>
        <time>2019-05-01T11:08:54Z</time>
      </trkpt>
      <trkpt lat="42.865752" lon="-8.572256">
        <ele>161.192</ele>
        <time>2019-05-01T11:08:55Z</time>
      </trkpt>
      <trkpt lat="42.865860" lon="-8.572046">
        <ele>161.694</ele>
        <time>2019-05-01T11:09:04Z</time>
      </trkpt>
      <trkpt lat="42.865852" lon="-8.572029">
        <ele>161.624</ele>
        <time>2019-05-01T11:09:05Z</time>
      </trkpt>
      <trkpt lat="42.865828" lon="-8.571616">
        <ele>159.728</ele>
        <time>2019-05-01T11:09:17Z</time>
      </trkpt>
      <trkpt lat="42.865818" lon="-8.571414">
        <ele>159.245</ele>
        <time>2019-05-01T11:09:23Z</time>
      </trkpt>
      <trkpt lat="42.865801" lon="-8.571389">
        <ele>159.247</ele>
        <time>2019-05-01T11:09:24Z</time>
      </trkpt>
      <trkpt lat="42.865783" lon="-8.571360">
        <ele>159.211</ele>
        <time>2019-05-01T11:09:25Z</time>
      </trkpt>
      <trkpt lat="42.865764" lon="-8.571332">
        <ele>159.208</ele>
        <time>2019-05-01T11:09:26Z</time>
      </trkpt>
      <trkpt lat="42.865755" lon="-8.571304">
        <ele>159.247</ele>
        <time>2019-05-01T11:09:27Z</time>
      </trkpt>
      <trkpt lat="42.865758" lon="-8.571273">
        <ele>159.210</ele>
        <time>2019-05-01T11:09:28Z</time>
      </trkpt>
      <trkpt lat="42.865762" lon="-8.571243">
        <ele>158.766</ele>
        <time>2019-05-01T11:09:29Z</time>
      </trkpt>
      <trkpt lat="42.865761" lon="-8.571218">
        <ele>158.734</ele>
        <time>2019-05-01T11:09:30Z</time>
      </trkpt>
      <trkpt lat="42.865758" lon="-8.571201">
        <ele>158.752</ele>
        <time>2019-05-01T11:09:31Z</time>
      </trkpt>
      <trkpt lat="42.865751" lon="-8.571187">
        <ele>158.734</ele>
        <time>2019-05-01T11:09:32Z</time>
      </trkpt>
      <trkpt lat="42.865738" lon="-8.571175">
        <ele>159.264</ele>
        <time>2019-05-01T11:09:33Z</time>
      </trkpt>
      <trkpt lat="42.865734" lon="-8.571156">
        <ele>159.728</ele>
        <time>2019-05-01T11:09:34Z</time>
      </trkpt>
      <trkpt lat="42.865729" lon="-8.571134">
        <ele>159.731</ele>
        <time>2019-05-01T11:09:35Z</time>
      </trkpt>
      <trkpt lat="42.865723" lon="-8.571117">
        <ele>160.261</ele>
        <time>2019-05-01T11:09:36Z</time>
      </trkpt>
      <trkpt lat="42.865689" lon="-8.571068">
        <ele>161.107</ele>
        <time>2019-05-01T11:09:40Z</time>
      </trkpt>
      <trkpt lat="42.865675" lon="-8.571057">
        <ele>161.108</ele>
        <time>2019-05-01T11:09:41Z</time>
      </trkpt>
      <trkpt lat="42.865663" lon="-8.571046">
        <ele>161.146</ele>
        <time>2019-05-01T11:09:42Z</time>
      </trkpt>
      <trkpt lat="42.865648" lon="-8.571035">
        <ele>161.139</ele>
        <time>2019-05-01T11:09:43Z</time>
      </trkpt>
      <trkpt lat="42.865631" lon="-8.571023">
        <ele>161.185</ele>
        <time>2019-05-01T11:09:44Z</time>
      </trkpt>
      <trkpt lat="42.865592" lon="-8.570981">
        <ele>161.653</ele>
        <time>2019-05-01T11:09:47Z</time>
      </trkpt>
      <trkpt lat="42.865583" lon="-8.570966">
        <ele>161.131</ele>
        <time>2019-05-01T11:09:48Z</time>
      </trkpt>
      <trkpt lat="42.865569" lon="-8.570954">
        <ele>161.193</ele>
        <time>2019-05-01T11:09:49Z</time>
      </trkpt>
      <trkpt lat="42.865551" lon="-8.570938">
        <ele>161.623</ele>
        <time>2019-05-01T11:09:50Z</time>
      </trkpt>
      <trkpt lat="42.865539" lon="-8.570917">
        <ele>161.667</ele>
        <time>2019-05-01T11:09:51Z</time>
      </trkpt>
      <trkpt lat="42.865525" lon="-8.570899">
        <ele>161.624</ele>
        <time>2019-05-01T11:09:52Z</time>
      </trkpt>
      <trkpt lat="42.865362" lon="-8.570781">
        <ele>161.604</ele>
        <time>2019-05-01T11:10:01Z</time>
      </trkpt>
      <trkpt lat="42.865354" lon="-8.570763">
        <ele>161.614</ele>
        <time>2019-05-01T11:10:02Z</time>
      </trkpt>
      <trkpt lat="42.865341" lon="-8.570747">
        <ele>161.608</ele>
        <time>2019-05-01T11:10:03Z</time>
      </trkpt>
      <trkpt lat="42.865240" lon="-8.570597">
        <ele>161.655</ele>
        <time>2019-05-01T11:10:12Z</time>
      </trkpt>
      <trkpt lat="42.865198" lon="-8.570552">
        <ele>161.148</ele>
        <time>2019-05-01T11:10:15Z</time>
      </trkpt>
      <trkpt lat="42.865184" lon="-8.570529">
        <ele>161.114</ele>
        <time>2019-05-01T11:10:16Z</time>
      </trkpt>
      <trkpt lat="42.865075" lon="-8.570403">
        <ele>161.152</ele>
        <time>2019-05-01T11:10:22Z</time>
      </trkpt>
      <trkpt lat="42.865066" lon="-8.570379">
        <ele>161.650</ele>
        <time>2019-05-01T11:10:23Z</time>
      </trkpt>
      <trkpt lat="42.865050" lon="-8.570351">
        <ele>162.142</ele>
        <time>2019-05-01T11:10:24Z</time>
      </trkpt>
      <trkpt lat="42.865036" lon="-8.570328">
        <ele>162.622</ele>
        <time>2019-05-01T11:10:25Z</time>
      </trkpt>
      <trkpt lat="42.865024" lon="-8.570303">
        <ele>163.586</ele>
        <time>2019-05-01T11:10:26Z</time>
      </trkpt>
      <trkpt lat="42.865010" lon="-8.570285">
        <ele>164.044</ele>
        <time>2019-05-01T11:10:27Z</time>
      </trkpt>
      <trkpt lat="42.864999" lon="-8.570266">
        <ele>164.005</ele>
        <time>2019-05-01T11:10:28Z</time>
      </trkpt>
      <trkpt lat="42.864983" lon="-8.570246">
        <ele>164.515</ele>
        <time>2019-05-01T11:10:29Z</time>
      </trkpt>
      <trkpt lat="42.864952" lon="-8.570226">
        <ele>165.008</ele>
        <time>2019-05-01T11:10:31Z</time>
      </trkpt>
      <trkpt lat="42.864934" lon="-8.570214">
        <ele>165.447</ele>
        <time>2019-05-01T11:10:32Z</time>
      </trkpt>
      <trkpt lat="42.864921" lon="-8.570204">
        <ele>165.470</ele>
        <time>2019-05-01T11:10:33Z</time>
      </trkpt>
      <trkpt lat="42.864908" lon="-8.570197">
        <ele>165.986</ele>
        <time>2019-05-01T11:10:34Z</time>
      </trkpt>
      <trkpt lat="42.864900" lon="-8.570186">
        <ele>165.974</ele>
        <time>2019-05-01T11:10:35Z</time>
      </trkpt>
      <trkpt lat="42.864888" lon="-8.570174">
        <ele>165.942</ele>
        <time>2019-05-01T11:10:36Z</time>
      </trkpt>
      <trkpt lat="42.864874" lon="-8.570162">
        <ele>165.484</ele>
        <time>2019-05-01T11:10:37Z</time>
      </trkpt>
      <trkpt lat="42.864863" lon="-8.570149">
        <ele>165.494</ele>
        <time>2019-05-01T11:10:38Z</time>
      </trkpt>
      <trkpt lat="42.864853" lon="-8.570136">
        <ele>165.098</ele>
        <time>2019-05-01T11:10:39Z</time>
      </trkpt>
      <trkpt lat="42.864838" lon="-8.570118">
        <ele>165.042</ele>
        <time>2019-05-01T11:10:40Z</time>
      </trkpt>
      <trkpt lat="42.864821" lon="-8.570103">
        <ele>165.022</ele>
        <time>2019-05-01T11:10:41Z</time>
      </trkpt>
      <trkpt lat="42.864719" lon="-8.569979">
        <ele>167.814</ele>
        <time>2019-05-01T11:10:47Z</time>
      </trkpt>
      <trkpt lat="42.864683" lon="-8.569960">
        <ele>168.308</ele>
        <time>2019-05-01T11:10:48Z</time>
      </trkpt>
      <trkpt lat="42.864653" lon="-8.569939">
        <ele>168.817</ele>
        <time>2019-05-01T11:10:49Z</time>
      </trkpt>
      <trkpt lat="42.864620" lon="-8.569915">
        <ele>168.860</ele>
        <time>2019-05-01T11:10:50Z</time>
      </trkpt>
      <trkpt lat="42.864583" lon="-8.569893">
        <ele>168.846</ele>
        <time>2019-05-01T11:10:51Z</time>
      </trkpt>
      <trkpt lat="42.864546" lon="-8.569873">
        <ele>169.374</ele>
        <time>2019-05-01T11:10:52Z</time>
      </trkpt>
      <trkpt lat="42.864500" lon="-8.569860">
        <ele>168.872</ele>
        <time>2019-05-01T11:10:53Z</time>
      </trkpt>
      <trkpt lat="42.864450" lon="-8.569858">
        <ele>168.884</ele>
        <time>2019-05-01T11:10:54Z</time>
      </trkpt>
      <trkpt lat="42.864402" lon="-8.569860">
        <ele>169.394</ele>
        <time>2019-05-01T11:10:55Z</time>
      </trkpt>
      <trkpt lat="42.864357" lon="-8.569863">
        <ele>169.318</ele>
        <time>2019-05-01T11:10:56Z</time>
      </trkpt>
      <trkpt lat="42.864315" lon="-8.569862">
        <ele>168.876</ele>
        <time>2019-05-01T11:10:57Z</time>
      </trkpt>
      <trkpt lat="42.864053" lon="-8.569972">
        <ele>169.890</ele>
        <time>2019-05-01T11:11:08Z</time>
      </trkpt>
      <trkpt lat="42.863887" lon="-8.570063">
        <ele>171.219</ele>
        <time>2019-05-01T11:11:17Z</time>
      </trkpt>
      <trkpt lat="42.863744" lon="-8.570059">
        <ele>170.708</ele>
        <time>2019-05-01T11:11:25Z</time>
      </trkpt>
      <trkpt lat="42.863724" lon="-8.570056">
        <ele>170.720</ele>
        <time>2019-05-01T11:11:26Z</time>
      </trkpt>
      <trkpt lat="42.863707" lon="-8.570058">
        <ele>170.783</ele>
        <time>2019-05-01T11:11:27Z</time>
      </trkpt>
      <trkpt lat="42.863692" lon="-8.570061">
        <ele>171.279</ele>
        <time>2019-05-01T11:11:28Z</time>
      </trkpt>
      <trkpt lat="42.863675" lon="-8.570067">
        <ele>171.287</ele>
        <time>2019-05-01T11:11:29Z</time>
      </trkpt>
      <trkpt lat="42.863657" lon="-8.570071">
        <ele>171.235</ele>
        <time>2019-05-01T11:11:30Z</time>
      </trkpt>
      <trkpt lat="42.863641" lon="-8.570074">
        <ele>171.267</ele>
        <time>2019-05-01T11:11:31Z</time>
      </trkpt>
      <trkpt lat="42.863622" lon="-8.570082">
        <ele>171.227</ele>
        <time>2019-05-01T11:11:32Z</time>
      </trkpt>
      <trkpt lat="42.863569" lon="-8.570092">
        <ele>171.791</ele>
        <time>2019-05-01T11:11:35Z</time>
      </trkpt>
      <trkpt lat="42.863552" lon="-8.570087">
        <ele>171.713</ele>
        <time>2019-05-01T11:11:36Z</time>
      </trkpt>
      <trkpt lat="42.863534" lon="-8.570087">
        <ele>171.743</ele>
        <time>2019-05-01T11:11:37Z</time>
      </trkpt>
      <trkpt lat="42.863514" lon="-8.570088">
        <ele>171.707</ele>
        <time>2019-05-01T11:11:38Z</time>
      </trkpt>
      <trkpt lat="42.863496" lon="-8.570088">
        <ele>171.708</ele>
        <time>2019-05-01T11:11:39Z</time>
      </trkpt>
      <trkpt lat="42.863464" lon="-8.570082">
        <ele>172.244</ele>
        <time>2019-05-01T11:11:41Z</time>
      </trkpt>
      <trkpt lat="42.863446" lon="-8.570073">
        <ele>172.277</ele>
        <time>2019-05-01T11:11:42Z</time>
      </trkpt>
      <trkpt lat="42.863426" lon="-8.570063">
        <ele>172.253</ele>
        <time>2019-05-01T11:11:43Z</time>
      </trkpt>
      <trkpt lat="42.863407" lon="-8.570052">
        <ele>172.231</ele>
        <time>2019-05-01T11:11:44Z</time>
      </trkpt>
      <trkpt lat="42.863385" lon="-8.570046">
        <ele>172.649</ele>
        <time>2019-05-01T11:11:45Z</time>
      </trkpt>
      <trkpt lat="42.863364" lon="-8.570042">
        <ele>172.281</ele>
        <time>2019-05-01T11:11:46Z</time>
      </trkpt>
      <trkpt lat="42.863345" lon="-8.570040">
        <ele>172.251</ele>
        <time>2019-05-01T11:11:47Z</time>
      </trkpt>
      <trkpt lat="42.863332" lon="-8.570036">
        <ele>172.265</ele>
        <time>2019-05-01T11:11:48Z</time>
      </trkpt>
      <trkpt lat="42.863319" lon="-8.570034">
        <ele>172.242</ele>
        <time>2019-05-01T11:11:49Z</time>
      </trkpt>
      <trkpt lat="42.863307" lon="-8.570034">
        <ele>172.222</ele>
        <time>2019-05-01T11:11:50Z</time>
      </trkpt>
      <trkpt lat="42.863294" lon="-8.570036">
        <ele>172.214</ele>
        <time>2019-05-01T11:11:51Z</time>
      </trkpt>
      <trkpt lat="42.863280" lon="-8.570035">
        <ele>172.208</ele>
        <time>2019-05-01T11:11:52Z</time>
      </trkpt>
      <trkpt lat="42.863267" lon="-8.570035">
        <ele>172.287</ele>
        <time>2019-05-01T11:11:53Z</time>
      </trkpt>
      <trkpt lat="42.863253" lon="-8.570038">
        <ele>172.270</ele>
        <time>2019-05-01T11:11:54Z</time>
      </trkpt>
      <trkpt lat="42.863212" lon="-8.570047">
        <ele>172.236</ele>
        <time>2019-05-01T11:11:56Z</time>
      </trkpt>
      <trkpt lat="42.863190" lon="-8.570042">
        <ele>172.294</ele>
        <time>2019-05-01T11:11:57Z</time>
      </trkpt>
      <trkpt lat="42.863169" lon="-8.570038">
        <ele>172.262</ele>
        <time>2019-05-01T11:11:58Z</time>
      </trkpt>
      <trkpt lat="42.863141" lon="-8.570033">
        <ele>172.264</ele>
        <time>2019-05-01T11:11:59Z</time>
      </trkpt>
      <trkpt lat="42.863112" lon="-8.570026">
        <ele>172.244</ele>
        <time>2019-05-01T11:12:00Z</time>
      </trkpt>
      <trkpt lat="42.863085" lon="-8.570019">
        <ele>172.288</ele>
        <time>2019-05-01T11:12:01Z</time>
      </trkpt>
      <trkpt lat="42.862901" lon="-8.570049">
        <ele>173.624</ele>
        <time>2019-05-01T11:12:09Z</time>
      </trkpt>
      <trkpt lat="42.862892" lon="-8.570041">
        <ele>173.604</ele>
        <time>2019-05-01T11:12:10Z</time>
      </trkpt>
      <trkpt lat="42.862877" lon="-8.570033">
        <ele>173.114</ele>
        <time>2019-05-01T11:12:11Z</time>
      </trkpt>
      <trkpt lat="42.862850" lon="-8.570030">
        <ele>173.608</ele>
        <time>2019-05-01T11:12:12Z</time>
      </trkpt>
      <trkpt lat="42.862822" lon="-8.570026">
        <ele>173.665</ele>
        <time>2019-05-01T11:12:13Z</time>
      </trkpt>
      <trkpt lat="42.862794" lon="-8.570024">
        <ele>173.688</ele>
        <time>2019-05-01T11:12:14Z</time>
      </trkpt>
      <trkpt lat="42.862550" lon="-8.569948">
        <ele>177.054</ele>
        <time>2019-05-01T11:12:26Z</time>
      </trkpt>
      <trkpt lat="42.862434" lon="-8.569862">
        <ele>177.572</ele>
        <time>2019-05-01T11:12:35Z</time>
      </trkpt>
      <trkpt lat="42.862425" lon="-8.569853">
        <ele>177.090</ele>
        <time>2019-05-01T11:12:36Z</time>
      </trkpt>
      <trkpt lat="42.862413" lon="-8.569844">
        <ele>177.042</ele>
        <time>2019-05-01T11:12:37Z</time>
      </trkpt>
      <trkpt lat="42.862399" lon="-8.569839">
        <ele>177.092</ele>
        <time>2019-05-01T11:12:38Z</time>
      </trkpt>
      <trkpt lat="42.862384" lon="-8.569834">
        <ele>177.096</ele>
        <time>2019-05-01T11:12:39Z</time>
      </trkpt>
      <trkpt lat="42.862370" lon="-8.569826">
        <ele>177.072</ele>
        <time>2019-05-01T11:12:40Z</time>
      </trkpt>
      <trkpt lat="42.862302" lon="-8.569789">
        <ele>177.513</ele>
        <time>2019-05-01T11:12:45Z</time>
      </trkpt>
      <trkpt lat="42.862288" lon="-8.569777">
        <ele>177.014</ele>
        <time>2019-05-01T11:12:46Z</time>
      </trkpt>
      <trkpt lat="42.862240" lon="-8.569761">
        <ele>177.008</ele>
        <time>2019-05-01T11:12:50Z</time>
      </trkpt>
      <trkpt lat="42.862225" lon="-8.569762">
        <ele>177.050</ele>
        <time>2019-05-01T11:12:51Z</time>
      </trkpt>
      <trkpt lat="42.862210" lon="-8.569765">
        <ele>177.583</ele>
        <time>2019-05-01T11:12:52Z</time>
      </trkpt>
      <trkpt lat="42.862194" lon="-8.569768">
        <ele>177.099</ele>
        <time>2019-05-01T11:12:53Z</time>
      </trkpt>
      <trkpt lat="42.862177" lon="-8.569770">
        <ele>177.097</ele>
        <time>2019-05-01T11:12:54Z</time>
      </trkpt>
      <trkpt lat="42.861994" lon="-8.569787">
        <ele>178.945</ele>
        <time>2019-05-01T11:13:06Z</time>
      </trkpt>
      <trkpt lat="42.861835" lon="-8.569745">
        <ele>179.967</ele>
        <time>2019-05-01T11:13:14Z</time>
      </trkpt>
      <trkpt lat="42.861769" lon="-8.569638">
        <ele>180.317</ele>
        <time>2019-05-01T11:13:19Z</time>
      </trkpt>
      <trkpt lat="42.861772" lon="-8.569522">
        <ele>181.371</ele>
        <time>2019-05-01T11:13:21Z</time>
      </trkpt>
      <trkpt lat="42.861762" lon="-8.569514">
        <ele>182.394</ele>
        <time>2019-05-01T11:13:22Z</time>
      </trkpt>
      <trkpt lat="42.861766" lon="-8.569457">
        <ele>184.257</ele>
        <time>2019-05-01T11:13:26Z</time>
      </trkpt>
      <trkpt lat="42.861816" lon="-8.569350">
        <ele>185.622</ele>
        <time>2019-05-01T11:13:33Z</time>
      </trkpt>
      <trkpt lat="42.861856" lon="-8.569254">
        <ele>187.508</ele>
        <time>2019-05-01T11:13:39Z</time>
      </trkpt>
      <trkpt lat="42.861872" lon="-8.569224">
        <ele>187.542</ele>
        <time>2019-05-01T11:13:41Z</time>
      </trkpt>
      <trkpt lat="42.861877" lon="-8.569203">
        <ele>187.565</ele>
        <time>2019-05-01T11:13:42Z</time>
      </trkpt>
      <trkpt lat="42.861883" lon="-8.569179">
        <ele>187.171</ele>
        <time>2019-05-01T11:13:43Z</time>
      </trkpt>
      <trkpt lat="42.861892" lon="-8.569156">
        <ele>187.149</ele>
        <time>2019-05-01T11:13:44Z</time>
      </trkpt>
      <trkpt lat="42.861904" lon="-8.569130">
        <ele>187.187</ele>
        <time>2019-05-01T11:13:45Z</time>
      </trkpt>
      <trkpt lat="42.861919" lon="-8.569107">
        <ele>187.589</ele>
        <time>2019-05-01T11:13:46Z</time>
      </trkpt>
      <trkpt lat="42.862148" lon="-8.568818">
        <ele>187.599</ele>
        <time>2019-05-01T11:14:00Z</time>
      </trkpt>
      <trkpt lat="42.862322" lon="-8.568443">
        <ele>189.053</ele>
        <time>2019-05-01T11:14:14Z</time>
      </trkpt>
      <trkpt lat="42.862433" lon="-8.568068">
        <ele>190.026</ele>
        <time>2019-05-01T11:14:25Z</time>
      </trkpt>
      <trkpt lat="42.862391" lon="-8.567583">
        <ele>190.047</ele>
        <time>2019-05-01T11:14:39Z</time>
      </trkpt>
      <trkpt lat="42.862393" lon="-8.567551">
        <ele>190.011</ele>
        <time>2019-05-01T11:14:40Z</time>
      </trkpt>
      <trkpt lat="42.862398" lon="-8.567520">
        <ele>189.508</ele>
        <time>2019-05-01T11:14:41Z</time>
      </trkpt>
      <trkpt lat="42.862384" lon="-8.567315">
        <ele>189.085</ele>
        <time>2019-05-01T11:14:46Z</time>
      </trkpt>
      <trkpt lat="42.862356" lon="-8.567200">
        <ele>188.088</ele>
        <time>2019-05-01T11:14:48Z</time>
      </trkpt>
      <trkpt lat="42.862366" lon="-8.567134">
        <ele>187.564</ele>
        <time>2019-05-01T11:14:49Z</time>
      </trkpt>
      <trkpt lat="42.862396" lon="-8.567078">
        <ele>187.192</ele>
        <time>2019-05-01T11:14:50Z</time>
      </trkpt>
      <trkpt lat="42.862434" lon="-8.567035">
        <ele>186.660</ele>
        <time>2019-05-01T11:14:51Z</time>
      </trkpt>
      <trkpt lat="42.862476" lon="-8.566999">
        <ele>186.662</ele>
        <time>2019-05-01T11:14:52Z</time>
      </trkpt>
      <trkpt lat="42.862518" lon="-8.566964">
        <ele>186.642</ele>
        <time>2019-05-01T11:14:53Z</time>
      </trkpt>
      <trkpt lat="42.862552" lon="-8.566925">
        <ele>186.636</ele>
        <time>2019-05-01T11:14:54Z</time>
      </trkpt>
      <trkpt lat="42.862578" lon="-8.566891">
        <ele>187.174</ele>
        <time>2019-05-01T11:14:55Z</time>
      </trkpt>
      <trkpt lat="42.862603" lon="-8.566862">
        <ele>187.156</ele>
        <time>2019-05-01T11:14:56Z</time>
      </trkpt>
      <trkpt lat="42.862934" lon="-8.566544">
        <ele>190.021</ele>
        <time>2019-05-01T11:15:11Z</time>
      </trkpt>
      <trkpt lat="42.863172" lon="-8.566263">
        <ele>191.408</ele>
        <time>2019-05-01T11:15:22Z</time>
      </trkpt>
      <trkpt lat="42.863226" lon="-8.566120">
        <ele>191.970</ele>
        <time>2019-05-01T11:15:27Z</time>
      </trkpt>
      <trkpt lat="42.863242" lon="-8.566090">
        <ele>191.943</ele>
        <time>2019-05-01T11:15:28Z</time>
      </trkpt>
      <trkpt lat="42.863257" lon="-8.566062">
        <ele>191.469</ele>
        <time>2019-05-01T11:15:29Z</time>
      </trkpt>
      <trkpt lat="42.863311" lon="-8.565720">
        <ele>195.757</ele>
        <time>2019-05-01T11:15:43Z</time>
      </trkpt>
      <trkpt lat="42.863449" lon="-8.565480">
        <ele>199.175</ele>
        <time>2019-05-01T11:15:55Z</time>
      </trkpt>
      <trkpt lat="42.863660" lon="-8.565248">
        <ele>201.527</ele>
        <time>2019-05-01T11:16:07Z</time>
      </trkpt>
      <trkpt lat="42.863970" lon="-8.565095">
        <ele>200.097</ele>
        <time>2019-05-01T11:16:16Z</time>
      </trkpt>
      <trkpt lat="42.864037" lon="-8.565090">
        <ele>199.121</ele>
        <time>2019-05-01T11:16:17Z</time>
      </trkpt>
      <trkpt lat="42.864089" lon="-8.565078">
        <ele>198.155</ele>
        <time>2019-05-01T11:16:18Z</time>
      </trkpt>
      <trkpt lat="42.864123" lon="-8.565057">
        <ele>197.607</ele>
        <time>2019-05-01T11:16:19Z</time>
      </trkpt>
      <trkpt lat="42.864142" lon="-8.565029">
        <ele>196.717</ele>
        <time>2019-05-01T11:16:20Z</time>
      </trkpt>
      <trkpt lat="42.864162" lon="-8.564998">
        <ele>196.208</ele>
        <time>2019-05-01T11:16:21Z</time>
      </trkpt>
      <trkpt lat="42.864563" lon="-8.564473">
        <ele>196.738</ele>
        <time>2019-05-01T11:16:36Z</time>
      </trkpt>
      <trkpt lat="42.864597" lon="-8.564438">
        <ele>196.711</ele>
        <time>2019-05-01T11:16:37Z</time>
      </trkpt>
      <trkpt lat="42.864632" lon="-8.564405">
        <ele>196.737</ele>
        <time>2019-05-01T11:16:38Z</time>
      </trkpt>
      <trkpt lat="42.864856" lon="-8.564119">
        <ele>197.215</ele>
        <time>2019-05-01T11:16:46Z</time>
      </trkpt>
      <trkpt lat="42.864878" lon="-8.564090">
        <ele>197.223</ele>
        <time>2019-05-01T11:16:47Z</time>
      </trkpt>
      <trkpt lat="42.864904" lon="-8.564054">
        <ele>197.695</ele>
        <time>2019-05-01T11:16:48Z</time>
      </trkpt>
      <trkpt lat="42.864931" lon="-8.564016">
        <ele>198.155</ele>
        <time>2019-05-01T11:16:49Z</time>
      </trkpt>
      <trkpt lat="42.864957" lon="-8.563980">
        <ele>198.149</ele>
        <time>2019-05-01T11:16:50Z</time>
      </trkpt>
      <trkpt lat="42.865422" lon="-8.563410">
        <ele>199.143</ele>
        <time>2019-05-01T11:17:05Z</time>
      </trkpt>
      <trkpt lat="42.865787" lon="-8.563001">
        <ele>198.664</ele>
        <time>2019-05-01T11:17:17Z</time>
      </trkpt>
      <trkpt lat="42.865815" lon="-8.563018">
        <ele>198.610</ele>
        <time>2019-05-01T11:17:18Z</time>
      </trkpt>
      <trkpt lat="42.865998" lon="-8.563253">
        <ele>200.008</ele>
        <time>2019-05-01T11:17:27Z</time>
      </trkpt>
      <trkpt lat="42.866124" lon="-8.563175">
        <ele>201.057</ele>
        <time>2019-05-01T11:17:32Z</time>
      </trkpt>
      <trkpt lat="42.866277" lon="-8.562865">
        <ele>203.970</ele>
        <time>2019-05-01T11:17:42Z</time>
      </trkpt>
      <trkpt lat="42.866393" lon="-8.562908">
        <ele>204.936</ele>
        <time>2019-05-01T11:17:47Z</time>
      </trkpt>
      <trkpt lat="42.866701" lon="-8.562797">
        <ele>206.834</ele>
        <time>2019-05-01T11:17:58Z</time>
      </trkpt>
      <trkpt lat="42.867019" lon="-8.562509">
        <ele>209.262</ele>
        <time>2019-05-01T11:18:12Z</time>
      </trkpt>
      <trkpt lat="42.867266" lon="-8.562331">
        <ele>213.514</ele>
        <time>2019-05-01T11:18:24Z</time>
      </trkpt>
      <trkpt lat="42.867519" lon="-8.562181">
        <ele>215.984</ele>
        <time>2019-05-01T11:18:37Z</time>
      </trkpt>
      <trkpt lat="42.867592" lon="-8.561928">
        <ele>216.418</ele>
        <time>2019-05-01T11:18:47Z</time>
      </trkpt>
      <trkpt lat="42.867744" lon="-8.561763">
        <ele>215.441</ele>
        <time>2019-05-01T11:18:55Z</time>
      </trkpt>
      <trkpt lat="42.867760" lon="-8.561733">
        <ele>214.081</ele>
        <time>2019-05-01T11:18:57Z</time>
      </trkpt>
      <trkpt lat="42.867802" lon="-8.561729">
        <ele>211.109</ele>
        <time>2019-05-01T11:19:08Z</time>
      </trkpt>
      <trkpt lat="42.867883" lon="-8.561715">
        <ele>211.108</ele>
        <time>2019-05-01T11:19:23Z</time>
      </trkpt>
      <trkpt lat="42.868060" lon="-8.561428">
        <ele>213.077</ele>
        <time>2019-05-01T11:19:34Z</time>
      </trkpt>
      <trkpt lat="42.868200" lon="-8.561295">
        <ele>215.480</ele>
        <time>2019-05-01T11:19:46Z</time>
      </trkpt>
      <trkpt lat="42.868292" lon="-8.561197">
        <ele>215.426</ele>
        <time>2019-05-01T11:19:57Z</time>
      </trkpt>
      <trkpt lat="42.868574" lon="-8.560765">
        <ele>217.414</ele>
        <time>2019-05-01T11:20:10Z</time>
      </trkpt>
      <trkpt lat="42.868830" lon="-8.560369">
        <ele>219.842</ele>
        <time>2019-05-01T11:20:23Z</time>
      </trkpt>
      <trkpt lat="42.868925" lon="-8.560188">
        <ele>219.864</ele>
        <time>2019-05-01T11:20:29Z</time>
      </trkpt>
      <trkpt lat="42.869020" lon="-8.560054">
        <ele>220.284</ele>
        <time>2019-05-01T11:20:34Z</time>
      </trkpt>
      <trkpt lat="42.869356" lon="-8.559606">
        <ele>222.658</ele>
        <time>2019-05-01T11:20:50Z</time>
      </trkpt>
      <trkpt lat="42.869668" lon="-8.559174">
        <ele>225.562</ele>
        <time>2019-05-01T11:21:05Z</time>
      </trkpt>
      <trkpt lat="42.869943" lon="-8.558813">
        <ele>229.883</ele>
        <time>2019-05-01T11:21:16Z</time>
      </trkpt>
      <trkpt lat="42.870260" lon="-8.558334">
        <ele>230.811</ele>
        <time>2019-05-01T11:21:30Z</time>
      </trkpt>
      <trkpt lat="42.870477" lon="-8.557984">
        <ele>229.808</ele>
        <time>2019-05-01T11:21:40Z</time>
      </trkpt>
      <trkpt lat="42.870750" lon="-8.557623">
        <ele>230.899</ele>
        <time>2019-05-01T11:21:51Z</time>
      </trkpt>
      <trkpt lat="42.870992" lon="-8.557276">
        <ele>231.372</ele>
        <time>2019-05-01T11:22:03Z</time>
      </trkpt>
      <trkpt lat="42.871256" lon="-8.556845">
        <ele>234.218</ele>
        <time>2019-05-01T11:22:17Z</time>
      </trkpt>
      <trkpt lat="42.871366" lon="-8.556714">
        <ele>235.176</ele>
        <time>2019-05-01T11:22:22Z</time>
      </trkpt>
      <trkpt lat="42.871434" lon="-8.556594">
        <ele>235.654</ele>
        <time>2019-05-01T11:22:26Z</time>
      </trkpt>
      <trkpt lat="42.871699" lon="-8.556158">
        <ele>238.536</ele>
        <time>2019-05-01T11:22:41Z</time>
      </trkpt>
      <trkpt lat="42.871826" lon="-8.555806">
        <ele>239.096</ele>
        <time>2019-05-01T11:22:54Z</time>
      </trkpt>
      <trkpt lat="42.871811" lon="-8.555798">
        <ele>241.970</ele>
        <time>2019-05-01T11:23:14Z</time>
      </trkpt>
      <trkpt lat="42.871824" lon="-8.555777">
        <ele>241.941</ele>
        <time>2019-05-01T11:23:33Z</time>
      </trkpt>
      <trkpt lat="42.871940" lon="-8.555480">
        <ele>238.581</ele>
        <time>2019-05-01T11:23:44Z</time>
      </trkpt>
      <trkpt lat="42.872059" lon="-8.555048">
        <ele>237.509</ele>
        <time>2019-05-01T11:23:54Z</time>
      </trkpt>
      <trkpt lat="42.872153" lon="-8.554525">
        <ele>237.108</ele>
        <time>2019-05-01T11:24:05Z</time>
      </trkpt>
      <trkpt lat="42.872405" lon="-8.554084">
        <ele>235.697</ele>
        <time>2019-05-01T11:24:16Z</time>
      </trkpt>
      <trkpt lat="42.872646" lon="-8.553705">
        <ele>233.740</ele>
        <time>2019-05-01T11:24:27Z</time>
      </trkpt>
      <trkpt lat="42.873006" lon="-8.553325">
        <ele>235.156</ele>
        <time>2019-05-01T11:24:40Z</time>
      </trkpt>
      <trkpt lat="42.873284" lon="-8.553071">
        <ele>237.154</ele>
        <time>2019-05-01T11:24:49Z</time>
      </trkpt>
      <trkpt lat="42.873556" lon="-8.552654">
        <ele>238.552</ele>
        <time>2019-05-01T11:25:01Z</time>
      </trkpt>
      <trkpt lat="42.873645" lon="-8.552545">
        <ele>239.084</ele>
        <time>2019-05-01T11:25:04Z</time>
      </trkpt>
      <trkpt lat="42.874001" lon="-8.552290">
        <ele>240.434</ele>
        <time>2019-05-01T11:25:14Z</time>
      </trkpt>
      <trkpt lat="42.874134" lon="-8.552112">
        <ele>235.678</ele>
        <time>2019-05-01T11:25:23Z</time>
      </trkpt>
      <trkpt lat="42.874127" lon="-8.552090">
        <ele>236.635</ele>
        <time>2019-05-01T11:25:30Z</time>
      </trkpt>
      <trkpt lat="42.874281" lon="-8.551802">
        <ele>230.886</ele>
        <time>2019-05-01T11:25:39Z</time>
      </trkpt>
      <trkpt lat="42.874334" lon="-8.551678">
        <ele>229.414</ele>
        <time>2019-05-01T11:25:42Z</time>
      </trkpt>
      <trkpt lat="42.874700" lon="-8.551102">
        <ele>230.308</ele>
        <time>2019-05-01T11:25:57Z</time>
      </trkpt>
      <trkpt lat="42.874870" lon="-8.550816">
        <ele>229.486</ele>
        <time>2019-05-01T11:26:07Z</time>
      </trkpt>
      <trkpt lat="42.874962" lon="-8.550774">
        <ele>232.319</ele>
        <time>2019-05-01T11:26:21Z</time>
      </trkpt>
      <trkpt lat="42.874962" lon="-8.550774">
        <ele>232.775</ele>
        <time>2019-05-01T11:26:24Z</time>
      </trkpt>
      <trkpt lat="42.875103" lon="-8.550609">
        <ele>234.293</ele>
        <time>2019-05-01T11:26:33Z</time>
      </trkpt>
      <trkpt lat="42.875317" lon="-8.550364">
        <ele>235.181</ele>
        <time>2019-05-01T11:26:42Z</time>
      </trkpt>
      <trkpt lat="42.875402" lon="-8.550162">
        <ele>235.153</ele>
        <time>2019-05-01T11:26:50Z</time>
      </trkpt>
      <trkpt lat="42.875623" lon="-8.549844">
        <ele>238.083</ele>
        <time>2019-05-01T11:27:03Z</time>
      </trkpt>
      <trkpt lat="42.875697" lon="-8.549715">
        <ele>238.097</ele>
        <time>2019-05-01T11:27:10Z</time>
      </trkpt>
      <trkpt lat="42.875786" lon="-8.549441">
        <ele>239.032</ele>
        <time>2019-05-01T11:27:20Z</time>
      </trkpt>
      <trkpt lat="42.875967" lon="-8.549108">
        <ele>240.992</ele>
        <time>2019-05-01T11:27:32Z</time>
      </trkpt>
      <trkpt lat="42.876105" lon="-8.548765">
        <ele>243.811</ele>
        <time>2019-05-01T11:27:43Z</time>
      </trkpt>
      <trkpt lat="42.876300" lon="-8.548195">
        <ele>246.208</ele>
        <time>2019-05-01T11:27:57Z</time>
      </trkpt>
      <trkpt lat="42.876461" lon="-8.547731">
        <ele>248.666</ele>
        <time>2019-05-01T11:28:09Z</time>
      </trkpt>
      <trkpt lat="42.876649" lon="-8.547179">
        <ele>252.929</ele>
        <time>2019-05-01T11:28:23Z</time>
      </trkpt>
      <trkpt lat="42.876833" lon="-8.546691">
        <ele>254.865</ele>
        <time>2019-05-01T11:28:35Z</time>
      </trkpt>
      <trkpt lat="42.876930" lon="-8.546306">
        <ele>256.323</ele>
        <time>2019-05-01T11:28:48Z</time>
      </trkpt>
      <trkpt lat="42.876932" lon="-8.546295">
        <ele>258.791</ele>
        <time>2019-05-01T11:29:09Z</time>
      </trkpt>
      <trkpt lat="42.877136" lon="-8.546166">
        <ele>258.273</ele>
        <time>2019-05-01T11:29:18Z</time>
      </trkpt>
      <trkpt lat="42.877477" lon="-8.546221">
        <ele>259.623</ele>
        <time>2019-05-01T11:29:30Z</time>
      </trkpt>
      <trkpt lat="42.877604" lon="-8.546257">
        <ele>261.637</ele>
        <time>2019-05-01T11:29:35Z</time>
      </trkpt>
      <trkpt lat="42.877679" lon="-8.546296">
        <ele>261.628</ele>
        <time>2019-05-01T11:29:39Z</time>
      </trkpt>
      <trkpt lat="42.877774" lon="-8.546321">
        <ele>262.189</ele>
        <time>2019-05-01T11:29:44Z</time>
      </trkpt>
      <trkpt lat="42.877853" lon="-8.546298">
        <ele>262.517</ele>
        <time>2019-05-01T11:29:48Z</time>
      </trkpt>
      <trkpt lat="42.878012" lon="-8.546269">
        <ele>263.008</ele>
        <time>2019-05-01T11:29:53Z</time>
      </trkpt>
      <trkpt lat="42.878323" lon="-8.546046">
        <ele>263.085</ele>
        <time>2019-05-01T11:30:03Z</time>
      </trkpt>
      <trkpt lat="42.878341" lon="-8.545972">
        <ele>263.088</ele>
        <time>2019-05-01T11:30:05Z</time>
      </trkpt>
      <trkpt lat="42.878467" lon="-8.545921">
        <ele>262.534</ele>
        <time>2019-05-01T11:30:09Z</time>
      </trkpt>
      <trkpt lat="42.878912" lon="-8.546026">
        <ele>258.782</ele>
        <time>2019-05-01T11:30:22Z</time>
      </trkpt>
      <trkpt lat="42.878969" lon="-8.546049">
        <ele>257.290</ele>
        <time>2019-05-01T11:30:25Z</time>
      </trkpt>
      <trkpt lat="42.879023" lon="-8.545785">
        <ele>255.872</ele>
        <time>2019-05-01T11:30:33Z</time>
      </trkpt>
      <trkpt lat="42.879048" lon="-8.545604">
        <ele>255.312</ele>
        <time>2019-05-01T11:30:38Z</time>
      </trkpt>
      <trkpt lat="42.879049" lon="-8.545161">
        <ele>255.846</ele>
        <time>2019-05-01T11:30:52Z</time>
      </trkpt>
      <trkpt lat="42.879059" lon="-8.545119">
        <ele>255.862</ele>
        <time>2019-05-01T11:30:55Z</time>
      </trkpt>
      <trkpt lat="42.879262" lon="-8.545052">
        <ele>254.883</ele>
        <time>2019-05-01T11:31:09Z</time>
      </trkpt>
      <trkpt lat="42.879421" lon="-8.544993">
        <ele>258.711</ele>
        <time>2019-05-01T11:31:17Z</time>
      </trkpt>
      <trkpt lat="42.879638" lon="-8.545044">
        <ele>263.008</ele>
        <time>2019-05-01T11:31:30Z</time>
      </trkpt>
      <trkpt lat="42.879715" lon="-8.545038">
        <ele>264.959</ele>
        <time>2019-05-01T11:31:39Z</time>
      </trkpt>
      <trkpt lat="42.879702" lon="-8.545056">
        <ele>266.482</ele>
        <time>2019-05-01T11:31:42Z</time>
      </trkpt>
      <trkpt lat="42.879698" lon="-8.545081">
        <ele>267.328</ele>
        <time>2019-05-01T11:31:45Z</time>
      </trkpt>
      <trkpt lat="42.880105" lon="-8.545238">
        <ele>269.766</ele>
        <time>2019-05-01T11:31:58Z</time>
      </trkpt>
      <trkpt lat="42.880278" lon="-8.545620">
        <ele>269.714</ele>
        <time>2019-05-01T11:32:12Z</time>
      </trkpt>
      <trkpt lat="42.880298" lon="-8.545676">
        <ele>268.886</ele>
        <time>2019-05-01T11:32:14Z</time>
      </trkpt>
      <trkpt lat="42.880355" lon="-8.545856">
        <ele>267.846</ele>
        <time>2019-05-01T11:32:23Z</time>
      </trkpt>
      <trkpt lat="42.880365" lon="-8.545851">
        <ele>265.920</ele>
        <time>2019-05-01T11:32:34Z</time>
      </trkpt>
      <trkpt lat="42.880371" lon="-8.545857">
        <ele>265.445</ele>
        <time>2019-05-01T11:32:48Z</time>
      </trkpt>
      <trkpt lat="42.880368" lon="-8.545850">
        <ele>264.947</ele>
        <time>2019-05-01T11:32:59Z</time>
      </trkpt>
      <trkpt lat="42.880363" lon="-8.545850">
        <ele>265.411</ele>
        <time>2019-05-01T11:33:12Z</time>
      </trkpt>
      <trkpt lat="42.880367" lon="-8.545847">
        <ele>264.508</ele>
        <time>2019-05-01T11:33:20Z</time>
      </trkpt>
    </trkseg>
  </trk>
</gpx>
